<?xml version="1.0" encoding="utf-8"?>
<gpx version="1.1" creator="com.bodunov.GalileoPro/v5.4.1" xmlns:xsi="http://www.w3.org/2001/XMLSchema-instance" xmlns="http://www.topografix.com/GPX/1/1" xmlns:gom="https://gurumaps.app/gpx/v3" xsi:schemaLocation="http://www.topografix.com/GPX/1/1 http://www.topografix.com/GPX/1/1/gpx.xsd https://gurumaps.app/gpx/v3 https://gurumaps.app/gpx/v3/schema.xsd">
 <trk>
  <name>12</name>
  <type>TrackStyle_FFD60AC8</type>
  <extensions>
   <gom:time>2026-04-20T17:13:02.476Z</gom:time>
  </extensions>
  <trkseg>
   <trkpt lat="59.0629300263" lon="30.024870804"><ele>94.331</ele><time>2026-04-20T17:13:04.037Z</time><hdop>7.625</hdop><vdop>8.25</vdop><extensions><gom:speed>0.0</gom:speed></extensions></trkpt>
   <trkpt lat="59.0629285175" lon="30.0248382822"><ele>91.09</ele><time>2026-04-20T17:13:05.049Z</time><hdop>7.125</hdop><vdop>7.0</vdop><extensions><gom:speed>0.0</gom:speed></extensions></trkpt>
   <trkpt lat="59.0629447365" lon="30.0248206802"><ele>90.678</ele><time>2026-04-20T17:13:06.049Z</time><hdop>6.625</hdop><vdop>6.125</vdop><extensions><gom:speed>0.0</gom:speed></extensions></trkpt>
   <trkpt lat="59.062944527" lon="30.0248103705"><ele>91.22</ele><time>2026-04-20T17:13:07.047Z</time><hdop>6.25</hdop><vdop>5.375</vdop><extensions><gom:speed>0.0</gom:speed></extensions></trkpt>
   <trkpt lat="59.0629527412" lon="30.0248060957"><ele>91.568</ele><time>2026-04-20T17:13:08.075Z</time><hdop>6.0</hdop><vdop>4.5</vdop><extensions><gom:speed>0.0</gom:speed></extensions></trkpt>
   <trkpt lat="59.0629558426" lon="30.0248003122"><ele>92.24</ele><time>2026-04-20T17:13:09.075Z</time><hdop>5.25</hdop><vdop>3.875</vdop><extensions><gom:speed>0.0</gom:speed></extensions></trkpt>
   <trkpt lat="59.0629562197" lon="30.0247896672"><ele>93.055</ele><time>2026-04-20T17:13:10.076Z</time><hdop>4.75</hdop><vdop>3.625</vdop><extensions><gom:speed>0.0</gom:speed></extensions></trkpt>
   <trkpt lat="59.0629590277" lon="30.0247869012"><ele>93.772</ele><time>2026-04-20T17:13:11.075Z</time><hdop>4.375</hdop><vdop>3.375</vdop><extensions><gom:speed>0.0</gom:speed></extensions></trkpt>
   <trkpt lat="59.0629619194" lon="30.0247803633"><ele>94.271</ele><time>2026-04-20T17:13:12.075Z</time><hdop>4.0</hdop><vdop>3.375</vdop><extensions><gom:speed>0.0</gom:speed></extensions></trkpt>
   <trkpt lat="59.0629612489" lon="30.0247760047"><ele>94.71</ele><time>2026-04-20T17:13:13.075Z</time><hdop>4.0</hdop><vdop>3.5</vdop><extensions><gom:speed>0.0</gom:speed></extensions></trkpt>
   <trkpt lat="59.0629624223" lon="30.0247734901"><ele>95.108</ele><time>2026-04-20T17:13:14.076Z</time><hdop>3.875</hdop><vdop>3.5</vdop><extensions><gom:speed>0.0</gom:speed></extensions></trkpt>
   <trkpt lat="59.0629625481" lon="30.024772149"><ele>95.345</ele><time>2026-04-20T17:13:15.075Z</time><hdop>3.75</hdop><vdop>3.625</vdop><extensions><gom:speed>0.0</gom:speed></extensions></trkpt>
   <trkpt lat="59.0629629253" lon="30.0247700535"><ele>95.579</ele><time>2026-04-20T17:13:16.075Z</time><hdop>3.75</hdop><vdop>3.5</vdop><extensions><gom:speed>0.0</gom:speed></extensions></trkpt>
   <trkpt lat="59.0629641406" lon="30.0247682933"><ele>95.84</ele><time>2026-04-20T17:13:17.075Z</time><hdop>3.75</hdop><vdop>3.375</vdop><extensions><gom:speed>0.0</gom:speed></extensions></trkpt>
   <trkpt lat="59.0629649369" lon="30.024767539"><ele>96.048</ele><time>2026-04-20T17:13:18.075Z</time><hdop>3.75</hdop><vdop>3.25</vdop><extensions><gom:speed>0.0</gom:speed></extensions></trkpt>
   <trkpt lat="59.0629652303" lon="30.0247678742"><ele>96.178</ele><time>2026-04-20T17:13:19.075Z</time><hdop>3.75</hdop><vdop>3.375</vdop><extensions><gom:speed>0.0</gom:speed></extensions></trkpt>
   <trkpt lat="59.0629656494" lon="30.0247673713"><ele>96.266</ele><time>2026-04-20T17:13:20.076Z</time><hdop>3.75</hdop><vdop>3.375</vdop><extensions><gom:speed>0.0</gom:speed></extensions></trkpt>
   <trkpt lat="59.0629664457" lon="30.024767036"><ele>96.328</ele><time>2026-04-20T17:13:21.075Z</time><hdop>3.75</hdop><vdop>3.125</vdop><extensions><gom:speed>0.0</gom:speed></extensions></trkpt>
   <trkpt lat="59.0629669486" lon="30.0247673713"><ele>96.347</ele><time>2026-04-20T17:13:22.076Z</time><hdop>3.75</hdop><vdop>2.875</vdop><extensions><gom:speed>0.0</gom:speed></extensions></trkpt>
   <trkpt lat="59.0629674515" lon="30.0247663655"><ele>96.384</ele><time>2026-04-20T17:13:23.075Z</time><hdop>3.75</hdop><vdop>3.0</vdop><extensions><gom:speed>0.0</gom:speed></extensions></trkpt>
   <trkpt lat="59.0629674515" lon="30.0247667008"><ele>96.396</ele><time>2026-04-20T17:13:24.075Z</time><hdop>3.75</hdop><vdop>3.0</vdop><extensions><gom:speed>0.0</gom:speed></extensions></trkpt>
   <trkpt lat="59.0629679544" lon="30.0247658626"><ele>96.408</ele><time>2026-04-20T17:13:25.075Z</time><hdop>3.75</hdop><vdop>3.0</vdop><extensions><gom:speed>0.0</gom:speed></extensions></trkpt>
   <trkpt lat="59.062968625" lon="30.0247661978"><ele>96.413</ele><time>2026-04-20T17:13:26.076Z</time><hdop>3.75</hdop><vdop>2.875</vdop><extensions><gom:speed>0.0</gom:speed></extensions></trkpt>
   <trkpt lat="59.0629688345" lon="30.0247661978"><ele>96.413</ele><time>2026-04-20T17:13:27.076Z</time><hdop>3.75</hdop><vdop>2.875</vdop><extensions><gom:speed>0.0</gom:speed></extensions></trkpt>
   <trkpt lat="59.062969044" lon="30.0247663655"><ele>96.416</ele><time>2026-04-20T17:13:28.076Z</time><hdop>3.75</hdop><vdop>2.875</vdop><extensions><gom:speed>0.0</gom:speed></extensions></trkpt>
   <trkpt lat="59.0629694212" lon="30.0247667846"><ele>96.401</ele><time>2026-04-20T17:13:29.076Z</time><hdop>3.75</hdop><vdop>2.875</vdop><extensions><gom:speed>0.0</gom:speed></extensions></trkpt>
   <trkpt lat="59.062969547" lon="30.0247669522"><ele>96.383</ele><time>2026-04-20T17:13:30.075Z</time><hdop>3.75</hdop><vdop>3.0</vdop><extensions><gom:speed>0.0</gom:speed></extensions></trkpt>
   <trkpt lat="59.0629694212" lon="30.0247673713"><ele>96.35</ele><time>2026-04-20T17:13:31.075Z</time><hdop>3.75</hdop><vdop>3.0</vdop><extensions><gom:speed>0.0</gom:speed></extensions></trkpt>
   <trkpt lat="59.062969547" lon="30.0247673713"><ele>96.328</ele><time>2026-04-20T17:13:32.075Z</time><hdop>3.75</hdop><vdop>2.875</vdop><extensions><gom:speed>0.0</gom:speed></extensions></trkpt>
   <trkpt lat="59.0629696308" lon="30.0247674551"><ele>96.307</ele><time>2026-04-20T17:13:33.075Z</time><hdop>3.75</hdop><vdop>2.875</vdop><extensions><gom:speed>0.0</gom:speed></extensions></trkpt>
   <trkpt lat="59.0629696308" lon="30.0247673713"><ele>96.289</ele><time>2026-04-20T17:13:34.075Z</time><hdop>3.75</hdop><vdop>2.875</vdop><extensions><gom:speed>0.0</gom:speed></extensions></trkpt>
   <trkpt lat="59.0629696308" lon="30.0247673713"><ele>96.275</ele><time>2026-04-20T17:13:35.075Z</time><hdop>3.75</hdop><vdop>2.875</vdop><extensions><gom:speed>0.0</gom:speed></extensions></trkpt>
   <trkpt lat="59.0629697565" lon="30.0247674551"><ele>96.262</ele><time>2026-04-20T17:13:36.075Z</time><hdop>3.75</hdop><vdop>2.875</vdop><extensions><gom:speed>0.0</gom:speed></extensions></trkpt>
   <trkpt lat="59.0629697565" lon="30.024767539"><ele>96.247</ele><time>2026-04-20T17:13:37.075Z</time><hdop>3.75</hdop><vdop>2.875</vdop><extensions><gom:speed>0.0</gom:speed></extensions></trkpt>
   <trkpt lat="59.0629697565" lon="30.024767539"><ele>96.237</ele><time>2026-04-20T17:13:38.075Z</time><hdop>3.75</hdop><vdop>2.875</vdop><extensions><gom:speed>0.0</gom:speed></extensions></trkpt>
   <trkpt lat="59.0629698403" lon="30.0247677066"><ele>96.23</ele><time>2026-04-20T17:13:39.075Z</time><hdop>3.75</hdop><vdop>2.875</vdop><extensions><gom:speed>0.0</gom:speed></extensions></trkpt>
   <trkpt lat="59.0629698403" lon="30.0247677066"><ele>96.224</ele><time>2026-04-20T17:13:40.075Z</time><hdop>3.75</hdop><vdop>3.0</vdop><extensions><gom:speed>0.0</gom:speed></extensions></trkpt>
   <trkpt lat="59.0629698403" lon="30.0247677904"><ele>96.217</ele><time>2026-04-20T17:13:41.075Z</time><hdop>3.75</hdop><vdop>3.125</vdop><extensions><gom:speed>0.0</gom:speed></extensions></trkpt>
   <trkpt lat="59.0629699241" lon="30.0247678742"><ele>96.212</ele><time>2026-04-20T17:13:42.075Z</time><hdop>3.75</hdop><vdop>3.375</vdop><extensions><gom:speed>0.0</gom:speed></extensions></trkpt>
   <trkpt lat="59.0629700499" lon="30.024767958"><ele>96.211</ele><time>2026-04-20T17:13:43.075Z</time><hdop>3.75</hdop><vdop>3.375</vdop><extensions><gom:speed>0.0</gom:speed></extensions></trkpt>
   <trkpt lat="59.0629702175" lon="30.024767958"><ele>96.207</ele><time>2026-04-20T17:13:44.075Z</time><hdop>3.75</hdop><vdop>3.5</vdop><extensions><gom:speed>0.0</gom:speed></extensions></trkpt>
   <trkpt lat="59.0629703432" lon="30.0247680419"><ele>96.202</ele><time>2026-04-20T17:13:45.076Z</time><hdop>3.75</hdop><vdop>3.5</vdop><extensions><gom:speed>0.0</gom:speed></extensions></trkpt>
   <trkpt lat="59.0629704271" lon="30.0247682933"><ele>96.193</ele><time>2026-04-20T17:13:46.075Z</time><hdop>3.75</hdop><vdop>3.5</vdop><extensions><gom:speed>0.0</gom:speed></extensions></trkpt>
   <trkpt lat="59.0629705528" lon="30.024768461"><ele>96.185</ele><time>2026-04-20T17:13:47.075Z</time><hdop>3.75</hdop><vdop>3.5</vdop><extensions><gom:speed>0.0</gom:speed></extensions></trkpt>
   <trkpt lat="59.0629706366" lon="30.0247687124"><ele>96.174</ele><time>2026-04-20T17:13:48.075Z</time><hdop>3.75</hdop><vdop>3.5</vdop><extensions><gom:speed>0.0</gom:speed></extensions></trkpt>
   <trkpt lat="59.0629707204" lon="30.0247687962"><ele>96.164</ele><time>2026-04-20T17:13:49.076Z</time><hdop>3.75</hdop><vdop>3.5</vdop><extensions><gom:speed>0.0</gom:speed></extensions></trkpt>
   <trkpt lat="59.0629708462" lon="30.0247687962"><ele>96.154</ele><time>2026-04-20T17:13:50.075Z</time><hdop>3.75</hdop><vdop>3.375</vdop><extensions><gom:speed>0.0</gom:speed></extensions></trkpt>
   <trkpt lat="59.0629714329" lon="30.0247685448"><ele>96.113</ele><time>2026-04-20T17:13:51.075Z</time><hdop>3.75</hdop><vdop>3.25</vdop><extensions><gom:speed>0.0</gom:speed></extensions></trkpt>
   <trkpt lat="59.0629721454" lon="30.0247682933"><ele>96.039</ele><time>2026-04-20T17:13:52.076Z</time><hdop>3.75</hdop><vdop>3.375</vdop><extensions><gom:speed>0.0</gom:speed></extensions></trkpt>
   <trkpt lat="59.0629723549" lon="30.0247683771"><ele>95.984</ele><time>2026-04-20T17:13:53.075Z</time><hdop>3.75</hdop><vdop>3.625</vdop><extensions><gom:speed>0.0</gom:speed></extensions></trkpt>
   <trkpt lat="59.0629792281" lon="30.0247611687"><ele>95.951</ele><time>2026-04-20T17:13:53.998Z</time><hdop>3.625</hdop><vdop>3.625</vdop><extensions><gom:speed>0.331</gom:speed></extensions></trkpt>
   <trkpt lat="59.0629787251" lon="30.0247617554"><ele>95.871</ele><time>2026-04-20T17:13:55.075Z</time><hdop>3.375</hdop><vdop>3.75</vdop><extensions><gom:speed>0.241</gom:speed></extensions></trkpt>
   <trkpt lat="59.0629780546" lon="30.024760582"><ele>95.81</ele><time>2026-04-20T17:13:56.075Z</time><hdop>3.25</hdop><vdop>3.625</vdop><extensions><gom:speed>0.193</gom:speed></extensions></trkpt>
   <trkpt lat="59.0629776355" lon="30.0247600791"><ele>95.747</ele><time>2026-04-20T17:13:57.075Z</time><hdop>3.125</hdop><vdop>3.625</vdop><extensions><gom:speed>0.182</gom:speed></extensions></trkpt>
   <trkpt lat="59.0629777193" lon="30.0247592409"><ele>95.709</ele><time>2026-04-20T17:13:57.775Z</time><hdop>3.0</hdop><vdop>3.625</vdop><extensions><gom:speed>0.187</gom:speed></extensions></trkpt>
   <trkpt lat="59.0629773421" lon="30.0247608334"><ele>95.678</ele><time>2026-04-20T17:13:58.428Z</time><hdop>3.0</hdop><vdop>3.625</vdop><extensions><gom:speed>0.15</gom:speed></extensions></trkpt>
   <trkpt lat="59.0629770488" lon="30.0247616716"><ele>95.647</ele><time>2026-04-20T17:13:59.076Z</time><hdop>3.0</hdop><vdop>3.75</vdop><extensions><gom:speed>0.125</gom:speed></extensions></trkpt>
   <trkpt lat="59.0629835447" lon="30.0247622584"><ele>95.331</ele><time>2026-04-20T17:14:00.075Z</time><hdop>3.0</hdop><vdop>3.25</vdop><extensions><gom:speed>0.226</gom:speed></extensions></trkpt>
   <trkpt lat="59.0629946508" lon="30.0247615878"><ele>94.608</ele><time>2026-04-20T17:14:01.076Z</time><hdop>3.0</hdop><vdop>2.75</vdop><extensions><gom:speed>0.357</gom:speed></extensions></trkpt>
   <trkpt lat="59.063009822" lon="30.0247618393"><ele>94.046</ele><time>2026-04-20T17:14:02.075Z</time><hdop>3.0</hdop><vdop>2.5</vdop><extensions><gom:speed>0.531</gom:speed></extensions></trkpt>
   <trkpt lat="59.0630295195" lon="30.0247654435"><ele>94.079</ele><time>2026-04-20T17:14:03.075Z</time><hdop>3.0</hdop><vdop>2.5</vdop><extensions><gom:speed>0.667</gom:speed></extensions></trkpt>
   <trkpt lat="59.0630506419" lon="30.0247685448"><ele>94.062</ele><time>2026-04-20T17:14:04.075Z</time><hdop>3.0</hdop><vdop>2.5</vdop><extensions><gom:speed>0.647</gom:speed></extensions></trkpt>
   <trkpt lat="59.0630673219" lon="30.0247751665"><ele>93.964</ele><time>2026-04-20T17:14:05.075Z</time><hdop>3.0</hdop><vdop>2.5</vdop><extensions><gom:speed>0.573</gom:speed></extensions></trkpt>
   <trkpt lat="59.0630772544" lon="30.0247863982"><ele>93.702</ele><time>2026-04-20T17:14:06.075Z</time><hdop>3.0</hdop><vdop>2.5</vdop><extensions><gom:speed>0.579</gom:speed></extensions></trkpt>
   <trkpt lat="59.063083457" lon="30.0247954507"><ele>93.673</ele><time>2026-04-20T17:14:07.075Z</time><hdop>3.0</hdop><vdop>2.5</vdop><extensions><gom:speed>0.439</gom:speed></extensions></trkpt>
   <trkpt lat="59.0630911265" lon="30.0247938581"><ele>93.824</ele><time>2026-04-20T17:14:08.075Z</time><hdop>3.0</hdop><vdop>4.5</vdop><extensions><gom:speed>0.328</gom:speed></extensions></trkpt>
   <trkpt lat="59.0630979577" lon="30.0247853924"><ele>94.089</ele><time>2026-04-20T17:14:09.075Z</time><hdop>3.0</hdop><vdop>4.625</vdop><extensions><gom:speed>0.259</gom:speed></extensions></trkpt>
   <trkpt lat="59.0631010171" lon="30.0247819558"><ele>94.373</ele><time>2026-04-20T17:14:10.075Z</time><hdop>3.0</hdop><vdop>4.375</vdop><extensions><gom:speed>0.203</gom:speed></extensions></trkpt>
   <trkpt lat="59.0631034479" lon="30.0247801956"><ele>94.719</ele><time>2026-04-20T17:14:11.075Z</time><hdop>3.0</hdop><vdop>4.375</vdop><extensions><gom:speed>0.157</gom:speed></extensions></trkpt>
   <trkpt lat="59.0631050404" lon="30.024779106"><ele>95.106</ele><time>2026-04-20T17:14:12.075Z</time><hdop>3.0</hdop><vdop>4.125</vdop><extensions><gom:speed>0.108</gom:speed></extensions></trkpt>
   <trkpt lat="59.0631054176" lon="30.0247794413"><ele>95.446</ele><time>2026-04-20T17:14:13.055Z</time><hdop>3.0</hdop><vdop>4.125</vdop><extensions><gom:speed>0.093</gom:speed></extensions></trkpt>
   <trkpt lat="59.0631076388" lon="30.0247786031"><ele>95.695</ele><time>2026-04-20T17:14:14.075Z</time><hdop>3.0</hdop><vdop>4.0</vdop><extensions><gom:speed>0.124</gom:speed></extensions></trkpt>
   <trkpt lat="59.0631109497" lon="30.0247781002"><ele>95.785</ele><time>2026-04-20T17:14:15.075Z</time><hdop>3.0</hdop><vdop>3.875</vdop><extensions><gom:speed>0.15</gom:speed></extensions></trkpt>
   <trkpt lat="59.0631156435" lon="30.0247770105"><ele>95.965</ele><time>2026-04-20T17:14:16.075Z</time><hdop>3.125</hdop><vdop>3.75</vdop><extensions><gom:speed>0.205</gom:speed></extensions></trkpt>
   <trkpt lat="59.0631217204" lon="30.024774915"><ele>96.218</ele><time>2026-04-20T17:14:17.076Z</time><hdop>3.25</hdop><vdop>3.75</vdop><extensions><gom:speed>0.303</gom:speed></extensions></trkpt>
   <trkpt lat="59.0631281326" lon="30.0247729872"><ele>96.381</ele><time>2026-04-20T17:14:18.075Z</time><hdop>3.25</hdop><vdop>3.5</vdop><extensions><gom:speed>0.366</gom:speed></extensions></trkpt>
   <trkpt lat="59.0631346285" lon="30.0247709755"><ele>96.471</ele><time>2026-04-20T17:14:19.075Z</time><hdop>3.375</hdop><vdop>3.375</vdop><extensions><gom:speed>0.383</gom:speed></extensions></trkpt>
   <trkpt lat="59.0631399511" lon="30.0247692992"><ele>96.458</ele><time>2026-04-20T17:14:20.075Z</time><hdop>3.5</hdop><vdop>3.5</vdop><extensions><gom:speed>0.328</gom:speed></extensions></trkpt>
   <trkpt lat="59.063145525" lon="30.0247667008"><ele>96.46</ele><time>2026-04-20T17:14:21.076Z</time><hdop>3.75</hdop><vdop>3.375</vdop><extensions><gom:speed>0.323</gom:speed></extensions></trkpt>
   <trkpt lat="59.0631511409" lon="30.0247626775"><ele>96.476</ele><time>2026-04-20T17:14:22.075Z</time><hdop>3.875</hdop><vdop>3.25</vdop><extensions><gom:speed>0.339</gom:speed></extensions></trkpt>
   <trkpt lat="59.0631535297" lon="30.0247615878"><ele>96.486</ele><time>2026-04-20T17:14:22.532Z</time><hdop>4.0</hdop><vdop>3.25</vdop><extensions><gom:speed>0.361</gom:speed></extensions></trkpt>
   <trkpt lat="59.0631584332" lon="30.0247597438"><ele>96.491</ele><time>2026-04-20T17:14:23.075Z</time><hdop>4.0</hdop><vdop>3.25</vdop><extensions><gom:speed>0.384</gom:speed></extensions></trkpt>
   <trkpt lat="59.0631624565" lon="30.024757313"><ele>96.499</ele><time>2026-04-20T17:14:24.075Z</time><hdop>4.0</hdop><vdop>3.25</vdop><extensions><gom:speed>0.386</gom:speed></extensions></trkpt>
   <trkpt lat="59.0631658511" lon="30.0247547985"><ele>96.503</ele><time>2026-04-20T17:14:24.596Z</time><hdop>4.125</hdop><vdop>3.25</vdop><extensions><gom:speed>0.498</gom:speed></extensions></trkpt>
   <trkpt lat="59.06316824" lon="30.0247527868"><ele>96.514</ele><time>2026-04-20T17:14:25.075Z</time><hdop>4.125</hdop><vdop>3.25</vdop><extensions><gom:speed>0.482</gom:speed></extensions></trkpt>
   <trkpt lat="59.0631716346" lon="30.0247516972"><ele>96.521</ele><time>2026-04-20T17:14:25.672Z</time><hdop>4.125</hdop><vdop>3.25</vdop><extensions><gom:speed>0.503</gom:speed></extensions></trkpt>
   <trkpt lat="59.0631772505" lon="30.0247492664"><ele>96.57</ele><time>2026-04-20T17:14:26.738Z</time><hdop>4.25</hdop><vdop>3.375</vdop><extensions><gom:speed>0.511</gom:speed></extensions></trkpt>
   <trkpt lat="59.0631803518" lon="30.0247459975"><ele>96.604</ele><time>2026-04-20T17:14:28.075Z</time><hdop>4.25</hdop><vdop>3.5</vdop><extensions><gom:speed>0.406</gom:speed></extensions></trkpt>
   <trkpt lat="59.0631803518" lon="30.0247455784"><ele>96.624</ele><time>2026-04-20T17:14:28.808Z</time><hdop>4.25</hdop><vdop>3.5</vdop><extensions><gom:speed>0.366</gom:speed></extensions></trkpt>
   <trkpt lat="59.0631783402" lon="30.0247447402"><ele>96.633</ele><time>2026-04-20T17:14:30.075Z</time><hdop>4.375</hdop><vdop>3.625</vdop><extensions><gom:speed>0.188</gom:speed></extensions></trkpt>
   <trkpt lat="59.0631769572" lon="30.0247435667"><ele>96.637</ele><time>2026-04-20T17:14:31.076Z</time><hdop>4.25</hdop><vdop>3.625</vdop><extensions><gom:speed>0.156</gom:speed></extensions></trkpt>
   <trkpt lat="59.0631758256" lon="30.0247428123"><ele>96.643</ele><time>2026-04-20T17:14:32.075Z</time><hdop>4.25</hdop><vdop>3.5</vdop><extensions><gom:speed>0.159</gom:speed></extensions></trkpt>
   <trkpt lat="59.0631760351" lon="30.0247423932"><ele>96.647</ele><time>2026-04-20T17:14:32.819Z</time><hdop>4.125</hdop><vdop>3.5</vdop><extensions><gom:speed>0.142</gom:speed></extensions></trkpt>
   <trkpt lat="59.0631759513" lon="30.0247419741"><ele>96.687</ele><time>2026-04-20T17:14:34.076Z</time><hdop>4.125</hdop><vdop>3.5</vdop><extensions><gom:speed>0.16</gom:speed></extensions></trkpt>
   <trkpt lat="59.0631763285" lon="30.0247418065"><ele>96.712</ele><time>2026-04-20T17:14:34.968Z</time><hdop>4.0</hdop><vdop>3.5</vdop><extensions><gom:speed>0.166</gom:speed></extensions></trkpt>
   <trkpt lat="59.0631765381" lon="30.0247404654"><ele>96.737</ele><time>2026-04-20T17:14:35.799Z</time><hdop>4.0</hdop><vdop>3.5</vdop><extensions><gom:speed>0.158</gom:speed></extensions></trkpt>
   <trkpt lat="59.0631769572" lon="30.0247397949"><ele>96.75</ele><time>2026-04-20T17:14:36.661Z</time><hdop>4.0</hdop><vdop>3.5</vdop><extensions><gom:speed>0.199</gom:speed></extensions></trkpt>
   <trkpt lat="59.0631777534" lon="30.0247408007"><ele>96.761</ele><time>2026-04-20T17:14:37.616Z</time><hdop>4.0</hdop><vdop>3.75</vdop><extensions><gom:speed>0.269</gom:speed></extensions></trkpt>
   <trkpt lat="59.0631778373" lon="30.0247419741"><ele>96.769</ele><time>2026-04-20T17:14:38.075Z</time><hdop>4.0</hdop><vdop>3.625</vdop><extensions><gom:speed>0.252</gom:speed></extensions></trkpt>
   <trkpt lat="59.0631818187" lon="30.0247459136"><ele>97.66</ele><time>2026-04-20T17:14:39.075Z</time><hdop>4.0</hdop><vdop>3.125</vdop><extensions><gom:speed>0.333</gom:speed></extensions></trkpt>
   <trkpt lat="59.0631911226" lon="30.0247490988"><ele>98.808</ele><time>2026-04-20T17:14:40.075Z</time><hdop>4.0</hdop><vdop>2.75</vdop><extensions><gom:speed>0.465</gom:speed></extensions></trkpt>
   <trkpt lat="59.0632027315" lon="30.0247498531"><ele>100.188</ele><time>2026-04-20T17:14:41.075Z</time><hdop>4.0</hdop><vdop>2.625</vdop><extensions><gom:speed>0.523</gom:speed></extensions></trkpt>
   <trkpt lat="59.0632142566" lon="30.0247467518"><ele>100.623</ele><time>2026-04-20T17:14:42.075Z</time><hdop>4.0</hdop><vdop>2.5</vdop><extensions><gom:speed>0.506</gom:speed></extensions></trkpt>
   <trkpt lat="59.0632255303" lon="30.0247398787"><ele>101.035</ele><time>2026-04-20T17:14:43.075Z</time><hdop>4.125</hdop><vdop>4.5</vdop><extensions><gom:speed>0.502</gom:speed></extensions></trkpt>
   <trkpt lat="59.0632363429" lon="30.0247322511"><ele>101.187</ele><time>2026-04-20T17:14:44.075Z</time><hdop>4.125</hdop><vdop>4.625</vdop><extensions><gom:speed>0.5</gom:speed></extensions></trkpt>
   <trkpt lat="59.0632485386" lon="30.0247239531"><ele>101.121</ele><time>2026-04-20T17:14:45.075Z</time><hdop>4.25</hdop><vdop>4.625</vdop><extensions><gom:speed>0.564</gom:speed></extensions></trkpt>
   <trkpt lat="59.0632606505" lon="30.0247166608"><ele>101.166</ele><time>2026-04-20T17:14:46.075Z</time><hdop>4.375</hdop><vdop>4.375</vdop><extensions><gom:speed>0.525</gom:speed></extensions></trkpt>
   <trkpt lat="59.0632658472" lon="30.0247151521"><ele>101.193</ele><time>2026-04-20T17:14:46.678Z</time><hdop>4.5</hdop><vdop>4.375</vdop><extensions><gom:speed>0.527</gom:speed></extensions></trkpt>
   <trkpt lat="59.0632725528" lon="30.0247123022"><ele>101.438</ele><time>2026-04-20T17:14:47.351Z</time><hdop>4.5</hdop><vdop>4.25</vdop><extensions><gom:speed>0.471</gom:speed></extensions></trkpt>
   <trkpt lat="59.0632819405" lon="30.0247092009"><ele>101.723</ele><time>2026-04-20T17:14:48.075Z</time><hdop>4.625</hdop><vdop>4.125</vdop><extensions><gom:speed>0.438</gom:speed></extensions></trkpt>
   <trkpt lat="59.0632836169" lon="30.0247081951"><ele>101.894</ele><time>2026-04-20T17:14:48.958Z</time><hdop>4.75</hdop><vdop>4.125</vdop><extensions><gom:speed>0.318</gom:speed></extensions></trkpt>
   <trkpt lat="59.0632895261" lon="30.0247040879"><ele>101.959</ele><time>2026-04-20T17:14:49.875Z</time><hdop>4.75</hdop><vdop>3.875</vdop><extensions><gom:speed>0.351</gom:speed></extensions></trkpt>
   <trkpt lat="59.0632971536" lon="30.0246967119"><ele>102.006</ele><time>2026-04-20T17:14:50.814Z</time><hdop>4.875</hdop><vdop>3.875</vdop><extensions><gom:speed>0.435</gom:speed></extensions></trkpt>
   <trkpt lat="59.0633026438" lon="30.0246895873"><ele>101.965</ele><time>2026-04-20T17:14:51.726Z</time><hdop>4.875</hdop><vdop>3.625</vdop><extensions><gom:speed>0.458</gom:speed></extensions></trkpt>
   <trkpt lat="59.063310439" lon="30.0246855639"><ele>101.93</ele><time>2026-04-20T17:14:52.639Z</time><hdop>4.875</hdop><vdop>3.5</vdop><extensions><gom:speed>0.519</gom:speed></extensions></trkpt>
   <trkpt lat="59.0633179408" lon="30.0246838876"><ele>101.968</ele><time>2026-04-20T17:14:53.499Z</time><hdop>4.875</hdop><vdop>3.25</vdop><extensions><gom:speed>0.549</gom:speed></extensions></trkpt>
   <trkpt lat="59.0633243529" lon="30.0246827979"><ele>101.87</ele><time>2026-04-20T17:14:54.075Z</time><hdop>4.875</hdop><vdop>3.125</vdop><extensions><gom:speed>0.534</gom:speed></extensions></trkpt>
   <trkpt lat="59.0633269513" lon="30.0246818759"><ele>101.811</ele><time>2026-04-20T17:14:54.693Z</time><hdop>4.875</hdop><vdop>3.125</vdop><extensions><gom:speed>0.535</gom:speed></extensions></trkpt>
   <trkpt lat="59.0633329444" lon="30.0246799481"><ele>101.774</ele><time>2026-04-20T17:14:55.723Z</time><hdop>4.875</hdop><vdop>3.25</vdop><extensions><gom:speed>0.547</gom:speed></extensions></trkpt>
   <trkpt lat="59.0633397337" lon="30.0246782717"><ele>101.698</ele><time>2026-04-20T17:14:57.076Z</time><hdop>4.75</hdop><vdop>3.375</vdop><extensions><gom:speed>0.509</gom:speed></extensions></trkpt>
   <trkpt lat="59.063342835" lon="30.0246765115"><ele>101.664</ele><time>2026-04-20T17:14:58.076Z</time><hdop>4.625</hdop><vdop>3.125</vdop><extensions><gom:speed>0.432</gom:speed></extensions></trkpt>
   <trkpt lat="59.0633449305" lon="30.0246766791"><ele>101.679</ele><time>2026-04-20T17:14:59.075Z</time><hdop>4.625</hdop><vdop>3.25</vdop><extensions><gom:speed>0.348</gom:speed></extensions></trkpt>
   <trkpt lat="59.063345643" lon="30.024677182"><ele>101.688</ele><time>2026-04-20T17:14:59.723Z</time><hdop>4.625</hdop><vdop>3.25</vdop><extensions><gom:speed>0.311</gom:speed></extensions></trkpt>
   <trkpt lat="59.0633473193" lon="30.0246773497"><ele>101.681</ele><time>2026-04-20T17:15:00.415Z</time><hdop>4.625</hdop><vdop>3.25</vdop><extensions><gom:speed>0.275</gom:speed></extensions></trkpt>
   <trkpt lat="59.0633482413" lon="30.0246783555"><ele>101.691</ele><time>2026-04-20T17:15:01.075Z</time><hdop>4.625</hdop><vdop>3.25</vdop><extensions><gom:speed>0.276</gom:speed></extensions></trkpt>
   <trkpt lat="59.0633509236" lon="30.0246793613"><ele>101.699</ele><time>2026-04-20T17:15:02.075Z</time><hdop>4.5</hdop><vdop>3.375</vdop><extensions><gom:speed>0.302</gom:speed></extensions></trkpt>
   <trkpt lat="59.0633547373" lon="30.024680451"><ele>101.703</ele><time>2026-04-20T17:15:03.084Z</time><hdop>4.5</hdop><vdop>3.375</vdop><extensions><gom:speed>0.348</gom:speed></extensions></trkpt>
   <trkpt lat="59.0633566233" lon="30.0246838037"><ele>101.73</ele><time>2026-04-20T17:15:04.075Z</time><hdop>4.5</hdop><vdop>3.5</vdop><extensions><gom:speed>0.341</gom:speed></extensions></trkpt>
   <trkpt lat="59.0633593474" lon="30.0246849772"><ele>101.747</ele><time>2026-04-20T17:15:05.075Z</time><hdop>4.5</hdop><vdop>3.375</vdop><extensions><gom:speed>0.374</gom:speed></extensions></trkpt>
   <trkpt lat="59.0633605208" lon="30.0246849772"><ele>101.757</ele><time>2026-04-20T17:15:05.883Z</time><hdop>4.375</hdop><vdop>3.375</vdop><extensions><gom:speed>0.389</gom:speed></extensions></trkpt>
   <trkpt lat="59.0633662205" lon="30.0246853125"><ele>101.761</ele><time>2026-04-20T17:15:07.061Z</time><hdop>4.375</hdop><vdop>3.375</vdop><extensions><gom:speed>0.418</gom:speed></extensions></trkpt>
   <trkpt lat="59.0633702438" lon="30.0246867374"><ele>101.767</ele><time>2026-04-20T17:15:07.998Z</time><hdop>4.375</hdop><vdop>3.25</vdop><extensions><gom:speed>0.518</gom:speed></extensions></trkpt>
   <trkpt lat="59.0633731356" lon="30.024687408"><ele>101.772</ele><time>2026-04-20T17:15:08.858Z</time><hdop>4.375</hdop><vdop>3.25</vdop><extensions><gom:speed>0.535</gom:speed></extensions></trkpt>
   <trkpt lat="59.0633742252" lon="30.0246870727"><ele>101.778</ele><time>2026-04-20T17:15:09.498Z</time><hdop>4.375</hdop><vdop>3.25</vdop><extensions><gom:speed>0.52</gom:speed></extensions></trkpt>
   <trkpt lat="59.0633746443" lon="30.0246862345"><ele>101.78</ele><time>2026-04-20T17:15:10.075Z</time><hdop>4.25</hdop><vdop>3.25</vdop><extensions><gom:speed>0.478</gom:speed></extensions></trkpt>
   <trkpt lat="59.0633764465" lon="30.0246836361"><ele>101.781</ele><time>2026-04-20T17:15:10.596Z</time><hdop>4.25</hdop><vdop>3.25</vdop><extensions><gom:speed>0.513</gom:speed></extensions></trkpt>
   <trkpt lat="59.0633758178" lon="30.0246812054"><ele>101.781</ele><time>2026-04-20T17:15:11.075Z</time><hdop>4.25</hdop><vdop>3.125</vdop><extensions><gom:speed>0.47</gom:speed></extensions></trkpt>
   <trkpt lat="59.0633741414" lon="30.0246752542"><ele>101.78</ele><time>2026-04-20T17:15:12.075Z</time><hdop>4.375</hdop><vdop>3.125</vdop><extensions><gom:speed>0.462</gom:speed></extensions></trkpt>
   <trkpt lat="59.0633730518" lon="30.0246710632"><ele>101.779</ele><time>2026-04-20T17:15:13.075Z</time><hdop>4.375</hdop><vdop>3.125</vdop><extensions><gom:speed>0.444</gom:speed></extensions></trkpt>
   <trkpt lat="59.0633736385" lon="30.0246675428"><ele>101.776</ele><time>2026-04-20T17:15:14.075Z</time><hdop>4.25</hdop><vdop>3.125</vdop><extensions><gom:speed>0.456</gom:speed></extensions></trkpt>
   <trkpt lat="59.0633753568" lon="30.0246651121"><ele>101.773</ele><time>2026-04-20T17:15:15.075Z</time><hdop>4.25</hdop><vdop>3.125</vdop><extensions><gom:speed>0.494</gom:speed></extensions></trkpt>
   <trkpt lat="59.0633773266" lon="30.0246648606"><ele>101.775</ele><time>2026-04-20T17:15:16.075Z</time><hdop>4.25</hdop><vdop>3.375</vdop><extensions><gom:speed>0.486</gom:speed></extensions></trkpt>
   <trkpt lat="59.0633792544" lon="30.0246625975"><ele>101.777</ele><time>2026-04-20T17:15:16.675Z</time><hdop>4.25</hdop><vdop>3.375</vdop><extensions><gom:speed>0.487</gom:speed></extensions></trkpt>
   <trkpt lat="59.0633793382" lon="30.0246599153"><ele>101.775</ele><time>2026-04-20T17:15:17.553Z</time><hdop>4.25</hdop><vdop>3.5</vdop><extensions><gom:speed>0.47</gom:speed></extensions></trkpt>
   <trkpt lat="59.0633796316" lon="30.0246579037"><ele>102.02</ele><time>2026-04-20T17:15:18.075Z</time><hdop>4.25</hdop><vdop>3.25</vdop><extensions><gom:speed>0.46</gom:speed></extensions></trkpt>
   <trkpt lat="59.0633825233" lon="30.0246530422"><ele>101.45</ele><time>2026-04-20T17:15:19.075Z</time><hdop>4.25</hdop><vdop>2.625</vdop><extensions><gom:speed>0.442</gom:speed></extensions></trkpt>
   <trkpt lat="59.0633864209" lon="30.0246529583"><ele>101.078</ele><time>2026-04-20T17:15:20.076Z</time><hdop>4.25</hdop><vdop>2.5</vdop><extensions><gom:speed>0.374</gom:speed></extensions></trkpt>
   <trkpt lat="59.063391953" lon="30.0246548862"><ele>100.718</ele><time>2026-04-20T17:15:21.075Z</time><hdop>4.25</hdop><vdop>2.5</vdop><extensions><gom:speed>0.36</gom:speed></extensions></trkpt>
   <trkpt lat="59.0633937551" lon="30.0246568978"><ele>100.502</ele><time>2026-04-20T17:15:21.541Z</time><hdop>4.25</hdop><vdop>2.5</vdop><extensions><gom:speed>0.33</gom:speed></extensions></trkpt>
   <trkpt lat="59.0633976527" lon="30.024658658"><ele>100.278</ele><time>2026-04-20T17:15:22.075Z</time><hdop>4.25</hdop><vdop>2.5</vdop><extensions><gom:speed>0.353</gom:speed></extensions></trkpt>
   <trkpt lat="59.0634050287" lon="30.024660083"><ele>100.189</ele><time>2026-04-20T17:15:23.075Z</time><hdop>4.375</hdop><vdop>2.5</vdop><extensions><gom:speed>0.393</gom:speed></extensions></trkpt>
   <trkpt lat="59.0634083396" lon="30.0246605859"><ele>100.135</ele><time>2026-04-20T17:15:23.554Z</time><hdop>4.375</hdop><vdop>2.5</vdop><extensions><gom:speed>0.399</gom:speed></extensions></trkpt>
   <trkpt lat="59.0634142488" lon="30.0246617593"><ele>100.293</ele><time>2026-04-20T17:15:24.075Z</time><hdop>4.375</hdop><vdop>2.5</vdop><extensions><gom:speed>0.431</gom:speed></extensions></trkpt>
   <trkpt lat="59.0634201162" lon="30.0246634357"><ele>100.387</ele><time>2026-04-20T17:15:24.699Z</time><hdop>4.5</hdop><vdop>2.5</vdop><extensions><gom:speed>0.437</gom:speed></extensions></trkpt>
   <trkpt lat="59.0634352455" lon="30.0246627652"><ele>100.61</ele><time>2026-04-20T17:15:26.075Z</time><hdop>4.5</hdop><vdop>2.5</vdop><extensions><gom:speed>0.436</gom:speed></extensions></trkpt>
   <trkpt lat="59.0634456391" lon="30.0246587419"><ele>100.656</ele><time>2026-04-20T17:15:27.075Z</time><hdop>4.5</hdop><vdop>4.25</vdop><extensions><gom:speed>0.405</gom:speed></extensions></trkpt>
   <trkpt lat="59.0634543562" lon="30.0246544671"><ele>100.816</ele><time>2026-04-20T17:15:28.075Z</time><hdop>4.625</hdop><vdop>4.0</vdop><extensions><gom:speed>0.295</gom:speed></extensions></trkpt>
   <trkpt lat="59.0634565355" lon="30.0246504438"><ele>100.912</ele><time>2026-04-20T17:15:28.817Z</time><hdop>4.75</hdop><vdop>4.0</vdop><extensions><gom:speed>0.239</gom:speed></extensions></trkpt>
   <trkpt lat="59.0634719163" lon="30.0246437382"><ele>101.178</ele><time>2026-04-20T17:15:30.076Z</time><hdop>4.75</hdop><vdop>3.875</vdop><extensions><gom:speed>0.22</gom:speed></extensions></trkpt>
   <trkpt lat="59.0634740537" lon="30.0246429839"><ele>101.337</ele><time>2026-04-20T17:15:30.638Z</time><hdop>4.75</hdop><vdop>3.875</vdop><extensions><gom:speed>0.202</gom:speed></extensions></trkpt>
   <trkpt lat="59.0634865428" lon="30.024641056"><ele>101.337</ele><time>2026-04-20T17:15:31.699Z</time><hdop>4.875</hdop><vdop>4.0</vdop><extensions><gom:speed>0.197</gom:speed></extensions></trkpt>
   <trkpt lat="59.063494757" lon="30.0246411399"><ele>101.42</ele><time>2026-04-20T17:15:32.635Z</time><hdop>4.75</hdop><vdop>4.0</vdop><extensions><gom:speed>0.197</gom:speed></extensions></trkpt>
   <trkpt lat="59.0635023426" lon="30.0246409722"><ele>101.388</ele><time>2026-04-20T17:15:33.455Z</time><hdop>4.625</hdop><vdop>3.875</vdop><extensions><gom:speed>0.213</gom:speed></extensions></trkpt>
   <trkpt lat="59.0635073299" lon="30.0246400502"><ele>101.349</ele><time>2026-04-20T17:15:34.076Z</time><hdop>4.5</hdop><vdop>3.75</vdop><extensions><gom:speed>0.221</gom:speed></extensions></trkpt>
   <trkpt lat="59.0635138258" lon="30.0246382062"><ele>101.405</ele><time>2026-04-20T17:15:35.076Z</time><hdop>4.25</hdop><vdop>3.625</vdop><extensions><gom:speed>0.282</gom:speed></extensions></trkpt>
   <trkpt lat="59.0635199446" lon="30.0246353563"><ele>101.537</ele><time>2026-04-20T17:15:36.075Z</time><hdop>4.0</hdop><vdop>3.625</vdop><extensions><gom:speed>0.319</gom:speed></extensions></trkpt>
   <trkpt lat="59.0635229202" lon="30.0246340991"><ele>101.615</ele><time>2026-04-20T17:15:36.798Z</time><hdop>3.875</hdop><vdop>3.625</vdop><extensions><gom:speed>0.366</gom:speed></extensions></trkpt>
   <trkpt lat="59.0635293324" lon="30.0246317521"><ele>101.708</ele><time>2026-04-20T17:15:37.254Z</time><hdop>3.75</hdop><vdop>3.5</vdop><extensions><gom:speed>0.406</gom:speed></extensions></trkpt>
   <trkpt lat="59.0635348225" lon="30.0246295728"><ele>101.758</ele><time>2026-04-20T17:15:38.075Z</time><hdop>3.625</hdop><vdop>3.625</vdop><extensions><gom:speed>0.482</gom:speed></extensions></trkpt>
   <trkpt lat="59.0635411508" lon="30.0246261362"><ele>101.791</ele><time>2026-04-20T17:15:39.075Z</time><hdop>3.625</hdop><vdop>3.625</vdop><extensions><gom:speed>0.492</gom:speed></extensions></trkpt>
   <trkpt lat="59.0635454256" lon="30.0246198498"><ele>101.81</ele><time>2026-04-20T17:15:40.075Z</time><hdop>3.625</hdop><vdop>3.625</vdop><extensions><gom:speed>0.443</gom:speed></extensions></trkpt>
   <trkpt lat="59.0635492394" lon="30.024614653"><ele>101.819</ele><time>2026-04-20T17:15:41.075Z</time><hdop>3.75</hdop><vdop>3.625</vdop><extensions><gom:speed>0.403</gom:speed></extensions></trkpt>
   <trkpt lat="59.0635510415" lon="30.0246128928"><ele>101.825</ele><time>2026-04-20T17:15:41.540Z</time><hdop>3.875</hdop><vdop>3.625</vdop><extensions><gom:speed>0.414</gom:speed></extensions></trkpt>
   <trkpt lat="59.0635528436" lon="30.0246116356"><ele>101.855</ele><time>2026-04-20T17:15:42.076Z</time><hdop>3.875</hdop><vdop>3.625</vdop><extensions><gom:speed>0.401</gom:speed></extensions></trkpt>
   <trkpt lat="59.0635571184" lon="30.0246087857"><ele>101.862</ele><time>2026-04-20T17:15:43.075Z</time><hdop>3.875</hdop><vdop>3.625</vdop><extensions><gom:speed>0.408</gom:speed></extensions></trkpt>
   <trkpt lat="59.0635602197" lon="30.0246102945"><ele>101.866</ele><time>2026-04-20T17:15:44.075Z</time><hdop>4.0</hdop><vdop>3.5</vdop><extensions><gom:speed>0.361</gom:speed></extensions></trkpt>
   <trkpt lat="59.0635627343" lon="30.0246138987"><ele>101.864</ele><time>2026-04-20T17:15:45.075Z</time><hdop>4.0</hdop><vdop>3.625</vdop><extensions><gom:speed>0.373</gom:speed></extensions></trkpt>
   <trkpt lat="59.0635643268" lon="30.0246164971"><ele>101.816</ele><time>2026-04-20T17:15:46.076Z</time><hdop>4.125</hdop><vdop>3.75</vdop><extensions><gom:speed>0.358</gom:speed></extensions></trkpt>
   <trkpt lat="59.0635663385" lon="30.0246167485"><ele>101.785</ele><time>2026-04-20T17:15:47.076Z</time><hdop>4.125</hdop><vdop>3.75</vdop><extensions><gom:speed>0.363</gom:speed></extensions></trkpt>
   <trkpt lat="59.0635684339" lon="30.024617"><ele>101.767</ele><time>2026-04-20T17:15:48.075Z</time><hdop>4.125</hdop><vdop>3.625</vdop><extensions><gom:speed>0.369</gom:speed></extensions></trkpt>
   <trkpt lat="59.063567931" lon="30.0246182573"><ele>101.76</ele><time>2026-04-20T17:15:49.076Z</time><hdop>4.25</hdop><vdop>3.5</vdop><extensions><gom:speed>0.308</gom:speed></extensions></trkpt>
   <trkpt lat="59.0635691464" lon="30.0246196822"><ele>101.756</ele><time>2026-04-20T17:15:49.684Z</time><hdop>4.25</hdop><vdop>3.5</vdop><extensions><gom:speed>0.304</gom:speed></extensions></trkpt>
   <trkpt lat="59.0635697331" lon="30.0246195145"><ele>101.708</ele><time>2026-04-20T17:15:50.700Z</time><hdop>4.25</hdop><vdop>3.375</vdop><extensions><gom:speed>0.314</gom:speed></extensions></trkpt>
   <trkpt lat="59.0635689369" lon="30.0246156589"><ele>101.678</ele><time>2026-04-20T17:15:52.075Z</time><hdop>4.25</hdop><vdop>3.625</vdop><extensions><gom:speed>0.259</gom:speed></extensions></trkpt>
   <trkpt lat="59.0635681406" lon="30.0246157427"><ele>101.655</ele><time>2026-04-20T17:15:53.075Z</time><hdop>4.25</hdop><vdop>3.75</vdop><extensions><gom:speed>0.2</gom:speed></extensions></trkpt>
   <trkpt lat="59.0635675538" lon="30.0246162456"><ele>101.67</ele><time>2026-04-20T17:15:54.075Z</time><hdop>4.25</hdop><vdop>3.75</vdop><extensions><gom:speed>0.192</gom:speed></extensions></trkpt>
   <trkpt lat="59.063566548" lon="30.0246149045"><ele>101.678</ele><time>2026-04-20T17:15:55.076Z</time><hdop>4.25</hdop><vdop>4.0</vdop><extensions><gom:speed>0.18</gom:speed></extensions></trkpt>
   <trkpt lat="59.0635661289" lon="30.0246147369"><ele>101.713</ele><time>2026-04-20T17:15:56.076Z</time><hdop>4.25</hdop><vdop>4.0</vdop><extensions><gom:speed>0.173</gom:speed></extensions></trkpt>
   <trkpt lat="59.0635667576" lon="30.024615156"><ele>101.746</ele><time>2026-04-20T17:15:57.076Z</time><hdop>4.25</hdop><vdop>4.0</vdop><extensions><gom:speed>0.204</gom:speed></extensions></trkpt>
   <trkpt lat="59.0635683501" lon="30.0246152398"><ele>101.766</ele><time>2026-04-20T17:15:58.053Z</time><hdop>4.125</hdop><vdop>4.0</vdop><extensions><gom:speed>0.205</gom:speed></extensions></trkpt>
   <trkpt lat="59.0635683501" lon="30.0246161618"><ele>101.78</ele><time>2026-04-20T17:15:59.075Z</time><hdop>4.125</hdop><vdop>4.0</vdop><extensions><gom:speed>0.231</gom:speed></extensions></trkpt>
   <trkpt lat="59.0635691464" lon="30.0246180896"><ele>101.79</ele><time>2026-04-20T17:16:00.075Z</time><hdop>4.125</hdop><vdop>4.0</vdop><extensions><gom:speed>0.271</gom:speed></extensions></trkpt>
   <trkpt lat="59.063570739" lon="30.0246199336"><ele>101.795</ele><time>2026-04-20T17:16:01.075Z</time><hdop>4.125</hdop><vdop>3.875</vdop><extensions><gom:speed>0.297</gom:speed></extensions></trkpt>
   <trkpt lat="59.0635715352" lon="30.0246202689"><ele>101.798</ele><time>2026-04-20T17:16:01.554Z</time><hdop>4.125</hdop><vdop>3.875</vdop><extensions><gom:speed>0.301</gom:speed></extensions></trkpt>
   <trkpt lat="59.0635723315" lon="30.0246213586"><ele>101.8</ele><time>2026-04-20T17:16:02.075Z</time><hdop>4.125</hdop><vdop>3.75</vdop><extensions><gom:speed>0.286</gom:speed></extensions></trkpt>
   <trkpt lat="59.0635734212" lon="30.0246224482"><ele>101.792</ele><time>2026-04-20T17:16:03.075Z</time><hdop>4.125</hdop><vdop>3.5</vdop><extensions><gom:speed>0.335</gom:speed></extensions></trkpt>
   <trkpt lat="59.0635752233" lon="30.024623454"><ele>101.788</ele><time>2026-04-20T17:16:03.620Z</time><hdop>4.125</hdop><vdop>3.5</vdop><extensions><gom:speed>0.343</gom:speed></extensions></trkpt>
   <trkpt lat="59.0635752233" lon="30.0246244599"><ele>101.786</ele><time>2026-04-20T17:16:04.075Z</time><hdop>4.125</hdop><vdop>3.375</vdop><extensions><gom:speed>0.32</gom:speed></extensions></trkpt>
   <trkpt lat="59.0635764387" lon="30.0246250466"><ele>101.785</ele><time>2026-04-20T17:16:05.076Z</time><hdop>4.125</hdop><vdop>3.375</vdop><extensions><gom:speed>0.316</gom:speed></extensions></trkpt>
   <trkpt lat="59.0635756424" lon="30.0246247951"><ele>101.782</ele><time>2026-04-20T17:16:06.075Z</time><hdop>4.25</hdop><vdop>3.375</vdop><extensions><gom:speed>0.263</gom:speed></extensions></trkpt>
   <trkpt lat="59.0635768578" lon="30.0246252142"><ele>100.756</ele><time>2026-04-20T17:16:07.076Z</time><hdop>4.25</hdop><vdop>3.0</vdop><extensions><gom:speed>0.301</gom:speed></extensions></trkpt>
   <trkpt lat="59.0635784503" lon="30.0246254657"><ele>100.143</ele><time>2026-04-20T17:16:07.713Z</time><hdop>4.25</hdop><vdop>3.0</vdop><extensions><gom:speed>0.351</gom:speed></extensions></trkpt>
   <trkpt lat="59.0635901431" lon="30.0246284832"><ele>98.799</ele><time>2026-04-20T17:16:09.020Z</time><hdop>4.375</hdop><vdop>2.5</vdop><extensions><gom:speed>0.48</gom:speed></extensions></trkpt>
   <trkpt lat="59.0635996565" lon="30.0246307463"><ele>98.208</ele><time>2026-04-20T17:16:10.075Z</time><hdop>4.375</hdop><vdop>2.5</vdop><extensions><gom:speed>0.436</gom:speed></extensions></trkpt>
   <trkpt lat="59.0636067392" lon="30.024628567"><ele>97.903</ele><time>2026-04-20T17:16:11.075Z</time><hdop>4.375</hdop><vdop>2.5</vdop><extensions><gom:speed>0.368</gom:speed></extensions></trkpt>
   <trkpt lat="59.0636075355" lon="30.0246269744"><ele>97.721</ele><time>2026-04-20T17:16:11.578Z</time><hdop>4.375</hdop><vdop>2.5</vdop><extensions><gom:speed>0.269</gom:speed></extensions></trkpt>
   <trkpt lat="59.0636120198" lon="30.0246268906"><ele>97.517</ele><time>2026-04-20T17:16:12.075Z</time><hdop>4.375</hdop><vdop>2.5</vdop><extensions><gom:speed>0.297</gom:speed></extensions></trkpt>
   <trkpt lat="59.0636141572" lon="30.0246265553"><ele>97.396</ele><time>2026-04-20T17:16:12.681Z</time><hdop>4.375</hdop><vdop>2.5</vdop><extensions><gom:speed>0.256</gom:speed></extensions></trkpt>
   <trkpt lat="59.0636212399" lon="30.0246273935"><ele>97.851</ele><time>2026-04-20T17:16:13.599Z</time><hdop>4.25</hdop><vdop>2.5</vdop><extensions><gom:speed>0.249</gom:speed></extensions></trkpt>
   <trkpt lat="59.0636284484" lon="30.0246289023"><ele>98.439</ele><time>2026-04-20T17:16:14.075Z</time><hdop>4.25</hdop><vdop>2.5</vdop><extensions><gom:speed>0.273</gom:speed></extensions></trkpt>
   <trkpt lat="59.0636297476" lon="30.0246283994"><ele>98.79</ele><time>2026-04-20T17:16:14.677Z</time><hdop>4.125</hdop><vdop>2.5</vdop><extensions><gom:speed>0.241</gom:speed></extensions></trkpt>
   <trkpt lat="59.063636956" lon="30.0246283994"><ele>99.228</ele><time>2026-04-20T17:16:15.781Z</time><hdop>4.125</hdop><vdop>2.5</vdop><extensions><gom:speed>0.221</gom:speed></extensions></trkpt>
   <trkpt lat="59.0636456313" lon="30.0246309978"><ele>99.198</ele><time>2026-04-20T17:16:16.540Z</time><hdop>4.125</hdop><vdop>2.5</vdop><extensions><gom:speed>0.284</gom:speed></extensions></trkpt>
   <trkpt lat="59.0636481458" lon="30.0246316683"><ele>99.18</ele><time>2026-04-20T17:16:17.034Z</time><hdop>4.25</hdop><vdop>2.5</vdop><extensions><gom:speed>0.314</gom:speed></extensions></trkpt>
   <trkpt lat="59.0636553543" lon="30.024634602"><ele>99.42</ele><time>2026-04-20T17:16:17.597Z</time><hdop>4.25</hdop><vdop>2.5</vdop><extensions><gom:speed>0.282</gom:speed></extensions></trkpt>
   <trkpt lat="59.0636612216" lon="30.0246372004"><ele>99.546</ele><time>2026-04-20T17:16:18.075Z</time><hdop>4.25</hdop><vdop>2.625</vdop><extensions><gom:speed>0.292</gom:speed></extensions></trkpt>
   <trkpt lat="59.0636649516" lon="30.024639212"><ele>99.622</ele><time>2026-04-20T17:16:19.059Z</time><hdop>4.25</hdop><vdop>2.625</vdop><extensions><gom:speed>0.253</gom:speed></extensions></trkpt>
   <trkpt lat="59.0636776501" lon="30.0246478454"><ele>98.383</ele><time>2026-04-20T17:16:20.076Z</time><hdop>4.25</hdop><vdop>2.5</vdop><extensions><gom:speed>0.312</gom:speed></extensions></trkpt>
   <trkpt lat="59.0636817573" lon="30.0246513658"><ele>97.643</ele><time>2026-04-20T17:16:20.756Z</time><hdop>4.25</hdop><vdop>2.5</vdop><extensions><gom:speed>0.317</gom:speed></extensions></trkpt>
   <trkpt lat="59.0636892172" lon="30.0246638548"><ele>96.784</ele><time>2026-04-20T17:16:22.075Z</time><hdop>4.25</hdop><vdop>5.625</vdop><extensions><gom:speed>0.218</gom:speed></extensions></trkpt>
   <trkpt lat="59.0636886304" lon="30.0246648606"><ele>96.271</ele><time>2026-04-20T17:16:22.917Z</time><hdop>4.25</hdop><vdop>5.625</vdop><extensions><gom:speed>0.114</gom:speed></extensions></trkpt>
   <trkpt lat="59.0636877503" lon="30.0246651121"><ele>96.458</ele><time>2026-04-20T17:16:23.431Z</time><hdop>4.25</hdop><vdop>5.375</vdop><extensions><gom:speed>0.059</gom:speed></extensions></trkpt>
   <trkpt lat="59.0636915222" lon="30.0246714823"><ele>96.641</ele><time>2026-04-20T17:16:24.075Z</time><hdop>4.25</hdop><vdop>5.125</vdop><extensions><gom:speed>0.104</gom:speed></extensions></trkpt>
   <trkpt lat="59.06369345" lon="30.0246750027"><ele>96.751</ele><time>2026-04-20T17:16:25.082Z</time><hdop>4.125</hdop><vdop>5.125</vdop><extensions><gom:speed>0.126</gom:speed></extensions></trkpt>
   <trkpt lat="59.0636936177" lon="30.0246757571"><ele>96.809</ele><time>2026-04-20T17:16:26.073Z</time><hdop>4.125</hdop><vdop>4.625</vdop><extensions><gom:speed>0.132</gom:speed></extensions></trkpt>
   <trkpt lat="59.0636939529" lon="30.0246770982"><ele>96.843</ele><time>2026-04-20T17:16:27.055Z</time><hdop>4.125</hdop><vdop>4.625</vdop><extensions><gom:speed>0.122</gom:speed></extensions></trkpt>
   <trkpt lat="59.0636942463" lon="30.0246787746"><ele>96.784</ele><time>2026-04-20T17:16:28.059Z</time><hdop>4.25</hdop><vdop>4.5</vdop><extensions><gom:speed>0.135</gom:speed></extensions></trkpt>
   <trkpt lat="59.0636945397" lon="30.0246801157"><ele>96.736</ele><time>2026-04-20T17:16:28.938Z</time><hdop>4.375</hdop><vdop>4.375</vdop><extensions><gom:speed>0.181</gom:speed></extensions></trkpt>
   <trkpt lat="59.0636994431" lon="30.0246900063"><ele>96.63</ele><time>2026-04-20T17:16:30.075Z</time><hdop>4.5</hdop><vdop>4.25</vdop><extensions><gom:speed>0.204</gom:speed></extensions></trkpt>
   <trkpt lat="59.0637010357" lon="30.0246933591"><ele>96.567</ele><time>2026-04-20T17:16:30.695Z</time><hdop>4.625</hdop><vdop>4.25</vdop><extensions><gom:speed>0.216</gom:speed></extensions></trkpt>
   <trkpt lat="59.0637028378" lon="30.024699897"><ele>96.597</ele><time>2026-04-20T17:16:31.995Z</time><hdop>4.625</hdop><vdop>4.375</vdop><extensions><gom:speed>0.286</gom:speed></extensions></trkpt>
   <trkpt lat="59.0637037179" lon="30.02470501"><ele>96.615</ele><time>2026-04-20T17:16:32.943Z</time><hdop>4.75</hdop><vdop>4.375</vdop><extensions><gom:speed>0.336</gom:speed></extensions></trkpt>
   <trkpt lat="59.0637067353" lon="30.0247336761"><ele>96.583</ele><time>2026-04-20T17:16:34.010Z</time><hdop>5.0</hdop><vdop>4.375</vdop><extensions><gom:speed>0.659</gom:speed></extensions></trkpt>
   <trkpt lat="59.0637083279" lon="30.0247543794"><ele>96.538</ele><time>2026-04-20T17:16:35.075Z</time><hdop>5.25</hdop><vdop>4.375</vdop><extensions><gom:speed>0.724</gom:speed></extensions></trkpt>
   <trkpt lat="59.0637104234" lon="30.0247644376"><ele>96.511</ele><time>2026-04-20T17:16:35.837Z</time><hdop>5.5</hdop><vdop>4.375</vdop><extensions><gom:speed>0.728</gom:speed></extensions></trkpt>
   <trkpt lat="59.0637139438" lon="30.0247726519"><ele>96.577</ele><time>2026-04-20T17:16:36.970Z</time><hdop>5.875</hdop><vdop>4.0</vdop><extensions><gom:speed>0.599</gom:speed></extensions></trkpt>
   <trkpt lat="59.0637142372" lon="30.0247563072"><ele>96.521</ele><time>2026-04-20T17:16:38.037Z</time><hdop>6.25</hdop><vdop>3.75</vdop><extensions><gom:speed>0.287</gom:speed></extensions></trkpt>
   <trkpt lat="59.0637148239" lon="30.0247492664"><ele>96.393</ele><time>2026-04-20T17:16:38.983Z</time><hdop>6.375</hdop><vdop>3.625</vdop><extensions><gom:speed>0.3</gom:speed></extensions></trkpt>
   <trkpt lat="59.063714321" lon="30.0247516972"><ele>96.317</ele><time>2026-04-20T17:16:39.994Z</time><hdop>6.75</hdop><vdop>3.625</vdop><extensions><gom:speed>0.34</gom:speed></extensions></trkpt>
   <trkpt lat="59.0637174223" lon="30.0247463327"><ele>96.121</ele><time>2026-04-20T17:16:41.076Z</time><hdop>6.75</hdop><vdop>3.5</vdop><extensions><gom:speed>0.231</gom:speed></extensions></trkpt>
   <trkpt lat="59.063717548" lon="30.0247459136"><ele>95.986</ele><time>2026-04-20T17:16:42.063Z</time><hdop>6.625</hdop><vdop>3.875</vdop><extensions><gom:speed>0.208</gom:speed></extensions></trkpt>
   <trkpt lat="59.0637206493" lon="30.0247473386"><ele>95.854</ele><time>2026-04-20T17:16:43.075Z</time><hdop>6.375</hdop><vdop>3.75</vdop><extensions><gom:speed>0.179</gom:speed></extensions></trkpt>
   <trkpt lat="59.0637242535" lon="30.024748512"><ele>95.76</ele><time>2026-04-20T17:16:44.076Z</time><hdop>6.125</hdop><vdop>3.875</vdop><extensions><gom:speed>0.172</gom:speed></extensions></trkpt>
   <trkpt lat="59.0637266424" lon="30.0247511104"><ele>95.637</ele><time>2026-04-20T17:16:45.075Z</time><hdop>5.375</hdop><vdop>4.0</vdop><extensions><gom:speed>0.163</gom:speed></extensions></trkpt>
   <trkpt lat="59.0637290312" lon="30.0247555528"><ele>95.5</ele><time>2026-04-20T17:16:46.075Z</time><hdop>5.0</hdop><vdop>4.0</vdop><extensions><gom:speed>0.175</gom:speed></extensions></trkpt>
   <trkpt lat="59.0637311267" lon="30.0247594085"><ele>95.38</ele><time>2026-04-20T17:16:47.075Z</time><hdop>4.875</hdop><vdop>3.875</vdop><extensions><gom:speed>0.214</gom:speed></extensions></trkpt>
   <trkpt lat="59.0637331383" lon="30.0247625936"><ele>95.282</ele><time>2026-04-20T17:16:48.075Z</time><hdop>4.75</hdop><vdop>3.875</vdop><extensions><gom:speed>0.238</gom:speed></extensions></trkpt>
   <trkpt lat="59.0637356529" lon="30.0247630127"><ele>95.223</ele><time>2026-04-20T17:16:48.995Z</time><hdop>4.625</hdop><vdop>3.875</vdop><extensions><gom:speed>0.273</gom:speed></extensions></trkpt>
   <trkpt lat="59.0637391314" lon="30.0247610011"><ele>95.162</ele><time>2026-04-20T17:16:49.799Z</time><hdop>4.5</hdop><vdop>3.75</vdop><extensions><gom:speed>0.358</gom:speed></extensions></trkpt>
   <trkpt lat="59.0637446215" lon="30.0247568101"><ele>95.15</ele><time>2026-04-20T17:16:50.594Z</time><hdop>4.5</hdop><vdop>3.75</vdop><extensions><gom:speed>0.519</gom:speed></extensions></trkpt>
   <trkpt lat="59.063746717" lon="30.0247549661"><ele>95.131</ele><time>2026-04-20T17:16:51.075Z</time><hdop>4.5</hdop><vdop>3.875</vdop><extensions><gom:speed>0.5</gom:speed></extensions></trkpt>
   <trkpt lat="59.063749022" lon="30.0247537926"><ele>95.12</ele><time>2026-04-20T17:16:51.539Z</time><hdop>4.5</hdop><vdop>3.875</vdop><extensions><gom:speed>0.53</gom:speed></extensions></trkpt>
   <trkpt lat="59.06375183" lon="30.0247530383"><ele>95.111</ele><time>2026-04-20T17:16:52.076Z</time><hdop>4.5</hdop><vdop>3.875</vdop><extensions><gom:speed>0.511</gom:speed></extensions></trkpt>
   <trkpt lat="59.0637577392" lon="30.0247529544"><ele>95.106</ele><time>2026-04-20T17:16:52.856Z</time><hdop>4.5</hdop><vdop>3.875</vdop><extensions><gom:speed>0.643</gom:speed></extensions></trkpt>
   <trkpt lat="59.0637632294" lon="30.0247560557"><ele>95.101</ele><time>2026-04-20T17:16:53.596Z</time><hdop>4.5</hdop><vdop>3.875</vdop><extensions><gom:speed>0.747</gom:speed></extensions></trkpt>
   <trkpt lat="59.0637645286" lon="30.0247599114"><ele>95.096</ele><time>2026-04-20T17:16:54.075Z</time><hdop>4.5</hdop><vdop>3.75</vdop><extensions><gom:speed>0.716</gom:speed></extensions></trkpt>
   <trkpt lat="59.0637685519" lon="30.0247627613"><ele>95.091</ele><time>2026-04-20T17:16:55.075Z</time><hdop>4.5</hdop><vdop>3.875</vdop><extensions><gom:speed>0.685</gom:speed></extensions></trkpt>
   <trkpt lat="59.0637736229" lon="30.0247592409"><ele>95.088</ele><time>2026-04-20T17:16:55.856Z</time><hdop>4.625</hdop><vdop>3.875</vdop><extensions><gom:speed>0.748</gom:speed></extensions></trkpt>
   <trkpt lat="59.0637760537" lon="30.0247537926"><ele>95.085</ele><time>2026-04-20T17:16:56.655Z</time><hdop>4.625</hdop><vdop>3.875</vdop><extensions><gom:speed>0.817</gom:speed></extensions></trkpt>
   <trkpt lat="59.0637776462" lon="30.0247490149"><ele>95.081</ele><time>2026-04-20T17:16:57.476Z</time><hdop>4.625</hdop><vdop>4.125</vdop><extensions><gom:speed>0.831</gom:speed></extensions></trkpt>
   <trkpt lat="59.0637820467" lon="30.0247423932"><ele>95.076</ele><time>2026-04-20T17:16:57.935Z</time><hdop>4.625</hdop><vdop>4.125</vdop><extensions><gom:speed>0.84</gom:speed></extensions></trkpt>
   <trkpt lat="59.0637887523" lon="30.0247364421"><ele>95.073</ele><time>2026-04-20T17:16:59.036Z</time><hdop>4.75</hdop><vdop>4.125</vdop><extensions><gom:speed>0.861</gom:speed></extensions></trkpt>
   <trkpt lat="59.0637911411" lon="30.0247376994"><ele>95.071</ele><time>2026-04-20T17:16:59.964Z</time><hdop>4.875</hdop><vdop>4.125</vdop><extensions><gom:speed>0.845</gom:speed></extensions></trkpt>
   <trkpt lat="59.0637911411" lon="30.02474298"><ele>95.073</ele><time>2026-04-20T17:17:00.821Z</time><hdop>4.875</hdop><vdop>4.0</vdop><extensions><gom:speed>0.812</gom:speed></extensions></trkpt>
   <trkpt lat="59.0637896324" lon="30.0247473386"><ele>95.076</ele><time>2026-04-20T17:17:01.699Z</time><hdop>5.0</hdop><vdop>3.875</vdop><extensions><gom:speed>0.711</gom:speed></extensions></trkpt>
   <trkpt lat="59.0637878303" lon="30.0247516133"><ele>95.085</ele><time>2026-04-20T17:17:02.597Z</time><hdop>5.125</hdop><vdop>3.875</vdop><extensions><gom:speed>0.637</gom:speed></extensions></trkpt>
   <trkpt lat="59.0637852319" lon="30.0247537926"><ele>95.092</ele><time>2026-04-20T17:17:03.075Z</time><hdop>5.0</hdop><vdop>3.75</vdop><extensions><gom:speed>0.562</gom:speed></extensions></trkpt>
   <trkpt lat="59.0637877464" lon="30.024755469"><ele>95.096</ele><time>2026-04-20T17:17:03.556Z</time><hdop>5.125</hdop><vdop>3.75</vdop><extensions><gom:speed>0.652</gom:speed></extensions></trkpt>
   <trkpt lat="59.0637860282" lon="30.0247580674"><ele>95.098</ele><time>2026-04-20T17:17:04.076Z</time><hdop>5.125</hdop><vdop>3.625</vdop><extensions><gom:speed>0.585</gom:speed></extensions></trkpt>
   <trkpt lat="59.0637841422" lon="30.024760582"><ele>95.099</ele><time>2026-04-20T17:17:05.075Z</time><hdop>5.125</hdop><vdop>3.5</vdop><extensions><gom:speed>0.546</gom:speed></extensions></trkpt>
   <trkpt lat="59.0637803285" lon="30.0247592409"><ele>95.102</ele><time>2026-04-20T17:17:06.075Z</time><hdop>5.0</hdop><vdop>3.375</vdop><extensions><gom:speed>0.441</gom:speed></extensions></trkpt>
   <trkpt lat="59.0637783168" lon="30.0247564748"><ele>95.101</ele><time>2026-04-20T17:17:07.075Z</time><hdop>5.0</hdop><vdop>3.375</vdop><extensions><gom:speed>0.419</gom:speed></extensions></trkpt>
   <trkpt lat="59.0637822563" lon="30.0247555528"><ele>95.101</ele><time>2026-04-20T17:17:07.859Z</time><hdop>4.875</hdop><vdop>3.375</vdop><extensions><gom:speed>0.536</gom:speed></extensions></trkpt>
   <trkpt lat="59.0637824239" lon="30.024757313"><ele>95.102</ele><time>2026-04-20T17:17:08.638Z</time><hdop>4.75</hdop><vdop>3.375</vdop><extensions><gom:speed>0.589</gom:speed></extensions></trkpt>
   <trkpt lat="59.0637826335" lon="30.0247613363"><ele>95.112</ele><time>2026-04-20T17:17:09.581Z</time><hdop>4.75</hdop><vdop>3.375</vdop><extensions><gom:speed>0.62</gom:speed></extensions></trkpt>
   <trkpt lat="59.0637815438" lon="30.0247623422"><ele>95.11</ele><time>2026-04-20T17:17:10.075Z</time><hdop>4.625</hdop><vdop>3.25</vdop><extensions><gom:speed>0.571</gom:speed></extensions></trkpt>
   <trkpt lat="59.0637811247" lon="30.0247625098"><ele>95.11</ele><time>2026-04-20T17:17:11.076Z</time><hdop>4.5</hdop><vdop>3.25</vdop><extensions><gom:speed>0.533</gom:speed></extensions></trkpt>
   <trkpt lat="59.0637839327" lon="30.0247637671"><ele>95.126</ele><time>2026-04-20T17:17:12.075Z</time><hdop>4.5</hdop><vdop>3.125</vdop><extensions><gom:speed>0.755</gom:speed></extensions></trkpt>
   <trkpt lat="59.0637868244" lon="30.0247625936"><ele>95.152</ele><time>2026-04-20T17:17:13.075Z</time><hdop>4.375</hdop><vdop>3.25</vdop><extensions><gom:speed>0.827</gom:speed></extensions></trkpt>
   <trkpt lat="59.0637885427" lon="30.024756391"><ele>95.17</ele><time>2026-04-20T17:17:14.075Z</time><hdop>4.375</hdop><vdop>3.125</vdop><extensions><gom:speed>0.757</gom:speed></extensions></trkpt>
   <trkpt lat="59.0637890456" lon="30.0247468357"><ele>95.175</ele><time>2026-04-20T17:17:15.075Z</time><hdop>4.5</hdop><vdop>3.125</vdop><extensions><gom:speed>0.718</gom:speed></extensions></trkpt>
   <trkpt lat="59.0637880398" lon="30.0247359392"><ele>95.174</ele><time>2026-04-20T17:17:16.075Z</time><hdop>4.5</hdop><vdop>3.0</vdop><extensions><gom:speed>0.663</gom:speed></extensions></trkpt>
   <trkpt lat="59.0637903448" lon="30.0247257971"><ele>95.173</ele><time>2026-04-20T17:17:17.041Z</time><hdop>4.5</hdop><vdop>3.0</vdop><extensions><gom:speed>0.709</gom:speed></extensions></trkpt>
   <trkpt lat="59.0637872435" lon="30.0247259647"><ele>93.926</ele><time>2026-04-20T17:17:18.075Z</time><hdop>4.5</hdop><vdop>3.125</vdop><extensions><gom:speed>0.54</gom:speed></extensions></trkpt>
   <trkpt lat="59.0637873273" lon="30.0247319159"><ele>92.643</ele><time>2026-04-20T17:17:19.075Z</time><hdop>4.5</hdop><vdop>2.875</vdop><extensions><gom:speed>0.49</gom:speed></extensions></trkpt>
   <trkpt lat="59.0637891295" lon="30.0247410521"><ele>91.217</ele><time>2026-04-20T17:17:20.075Z</time><hdop>4.5</hdop><vdop>2.5</vdop><extensions><gom:speed>0.447</gom:speed></extensions></trkpt>
   <trkpt lat="59.0637924403" lon="30.0247518648"><ele>89.592</ele><time>2026-04-20T17:17:21.075Z</time><hdop>4.625</hdop><vdop>2.5</vdop><extensions><gom:speed>0.419</gom:speed></extensions></trkpt>
   <trkpt lat="59.0637987267" lon="30.0247618393"><ele>88.616</ele><time>2026-04-20T17:17:22.075Z</time><hdop>4.625</hdop><vdop>2.5</vdop><extensions><gom:speed>0.447</gom:speed></extensions></trkpt>
   <trkpt lat="59.0638101261" lon="30.0247734901"><ele>88.275</ele><time>2026-04-20T17:17:23.075Z</time><hdop>4.75</hdop><vdop>2.5</vdop><extensions><gom:speed>0.471</gom:speed></extensions></trkpt>
   <trkpt lat="59.0638192205" lon="30.0247813691"><ele>89.033</ele><time>2026-04-20T17:17:24.075Z</time><hdop>4.875</hdop><vdop>2.5</vdop><extensions><gom:speed>0.488</gom:speed></extensions></trkpt>
   <trkpt lat="59.0638302427" lon="30.0247890804"><ele>90.152</ele><time>2026-04-20T17:17:25.076Z</time><hdop>5.0</hdop><vdop>2.5</vdop><extensions><gom:speed>0.466</gom:speed></extensions></trkpt>
   <trkpt lat="59.063837032" lon="30.0247861468"><ele>90.821</ele><time>2026-04-20T17:17:26.022Z</time><hdop>5.125</hdop><vdop>2.5</vdop><extensions><gom:speed>0.553</gom:speed></extensions></trkpt>
   <trkpt lat="59.063847258" lon="30.0247892481"><ele>91.275</ele><time>2026-04-20T17:17:26.840Z</time><hdop>5.25</hdop><vdop>2.5</vdop><extensions><gom:speed>0.602</gom:speed></extensions></trkpt>
   <trkpt lat="59.0638606271" lon="30.0247964565"><ele>91.923</ele><time>2026-04-20T17:17:27.777Z</time><hdop>5.125</hdop><vdop>2.5</vdop><extensions><gom:speed>0.686</gom:speed></extensions></trkpt>
   <trkpt lat="59.0638728228" lon="30.0248104543"><ele>92.458</ele><time>2026-04-20T17:17:28.696Z</time><hdop>4.875</hdop><vdop>2.5</vdop><extensions><gom:speed>0.723</gom:speed></extensions></trkpt>
   <trkpt lat="59.0638834259" lon="30.0248293974"><ele>93.799</ele><time>2026-04-20T17:17:29.742Z</time><hdop>4.5</hdop><vdop>2.5</vdop><extensions><gom:speed>0.738</gom:speed></extensions></trkpt>
   <trkpt lat="59.0638952443" lon="30.0248419703"><ele>94.713</ele><time>2026-04-20T17:17:30.761Z</time><hdop>4.25</hdop><vdop>2.5</vdop><extensions><gom:speed>0.712</gom:speed></extensions></trkpt>
   <trkpt lat="59.0639087392" lon="30.0248533696"><ele>94.97</ele><time>2026-04-20T17:17:31.834Z</time><hdop>4.0</hdop><vdop>2.5</vdop><extensions><gom:speed>0.726</gom:speed></extensions></trkpt>
   <trkpt lat="59.0639284367" lon="30.0248656072"><ele>94.767</ele><time>2026-04-20T17:17:33.075Z</time><hdop>3.75</hdop><vdop>2.5</vdop><extensions><gom:speed>0.728</gom:speed></extensions></trkpt>
   <trkpt lat="59.0639408419" lon="30.0248739891"><ele>94.398</ele><time>2026-04-20T17:17:34.076Z</time><hdop>3.75</hdop><vdop>2.5</vdop><extensions><gom:speed>0.683</gom:speed></extensions></trkpt>
   <trkpt lat="59.0639431469" lon="30.0248760846"><ele>94.178</ele><time>2026-04-20T17:17:34.773Z</time><hdop>3.75</hdop><vdop>2.5</vdop><extensions><gom:speed>0.648</gom:speed></extensions></trkpt>
   <trkpt lat="59.063962551" lon="30.02489025"><ele>94.275</ele><time>2026-04-20T17:17:36.075Z</time><hdop>3.875</hdop><vdop>3.75</vdop><extensions><gom:speed>0.503</gom:speed></extensions></trkpt>
   <trkpt lat="59.0639648561" lon="30.0248882384"><ele>94.333</ele><time>2026-04-20T17:17:36.919Z</time><hdop>4.0</hdop><vdop>3.75</vdop><extensions><gom:speed>0.35</gom:speed></extensions></trkpt>
   <trkpt lat="59.0639750401" lon="30.0248920102"><ele>94.429</ele><time>2026-04-20T17:17:38.075Z</time><hdop>4.125</hdop><vdop>3.5</vdop><extensions><gom:speed>0.297</gom:speed></extensions></trkpt>
   <trkpt lat="59.0639776385" lon="30.0248901662"><ele>94.486</ele><time>2026-04-20T17:17:39.040Z</time><hdop>4.25</hdop><vdop>3.5</vdop><extensions><gom:speed>0.243</gom:speed></extensions></trkpt>
   <trkpt lat="59.0639846373" lon="30.0248951953"><ele>94.463</ele><time>2026-04-20T17:17:40.017Z</time><hdop>4.375</hdop><vdop>3.5</vdop><extensions><gom:speed>0.265</gom:speed></extensions></trkpt>
   <trkpt lat="59.0639953243" lon="30.0249029905"><ele>94.561</ele><time>2026-04-20T17:17:40.935Z</time><hdop>4.5</hdop><vdop>3.5</vdop><extensions><gom:speed>0.412</gom:speed></extensions></trkpt>
   <trkpt lat="59.0640078552" lon="30.0249169883"><ele>94.642</ele><time>2026-04-20T17:17:42.075Z</time><hdop>4.5</hdop><vdop>3.5</vdop><extensions><gom:speed>0.434</gom:speed></extensions></trkpt>
   <trkpt lat="59.0640125491" lon="30.0249260407"><ele>94.637</ele><time>2026-04-20T17:17:43.075Z</time><hdop>4.5</hdop><vdop>3.5</vdop><extensions><gom:speed>0.357</gom:speed></extensions></trkpt>
   <trkpt lat="59.0640139321" lon="30.0249321595"><ele>94.644</ele><time>2026-04-20T17:17:44.075Z</time><hdop>4.5</hdop><vdop>3.625</vdop><extensions><gom:speed>0.196</gom:speed></extensions></trkpt>
   <trkpt lat="59.0640149379" lon="30.0249350932"><ele>94.585</ele><time>2026-04-20T17:17:45.075Z</time><hdop>4.25</hdop><vdop>3.625</vdop><extensions><gom:speed>0.127</gom:speed></extensions></trkpt>
   <trkpt lat="59.0640173268" lon="30.0249371887"><ele>94.489</ele><time>2026-04-20T17:17:46.075Z</time><hdop>4.0</hdop><vdop>3.5</vdop><extensions><gom:speed>0.088</gom:speed></extensions></trkpt>
   <trkpt lat="59.064019548" lon="30.0249397871"><ele>94.402</ele><time>2026-04-20T17:17:47.075Z</time><hdop>3.875</hdop><vdop>3.5</vdop><extensions><gom:speed>0.108</gom:speed></extensions></trkpt>
   <trkpt lat="59.0640215177" lon="30.0249429722"><ele>94.349</ele><time>2026-04-20T17:17:48.076Z</time><hdop>3.625</hdop><vdop>3.5</vdop><extensions><gom:speed>0.062</gom:speed></extensions></trkpt>
   <trkpt lat="59.0640220206" lon="30.0249441457"><ele>94.304</ele><time>2026-04-20T17:17:49.105Z</time><hdop>3.5</hdop><vdop>3.5</vdop><extensions><gom:speed>0.084</gom:speed></extensions></trkpt>
   <trkpt lat="59.0640225235" lon="30.0249460735"><ele>94.277</ele><time>2026-04-20T17:17:49.641Z</time><hdop>3.5</hdop><vdop>3.5</vdop><extensions><gom:speed>0.113</gom:speed></extensions></trkpt>
   <trkpt lat="59.064023236" lon="30.0249496777"><ele>94.257</ele><time>2026-04-20T17:17:50.501Z</time><hdop>3.375</hdop><vdop>3.625</vdop><extensions><gom:speed>0.189</gom:speed></extensions></trkpt>
   <trkpt lat="59.064023236" lon="30.0249516894"><ele>94.241</ele><time>2026-04-20T17:17:51.076Z</time><hdop>3.375</hdop><vdop>3.875</vdop><extensions><gom:speed>0.194</gom:speed></extensions></trkpt>
   <trkpt lat="59.0640213501" lon="30.0249562156"><ele>94.224</ele><time>2026-04-20T17:17:52.075Z</time><hdop>3.375</hdop><vdop>4.0</vdop><extensions><gom:speed>0.347</gom:speed></extensions></trkpt>
   <trkpt lat="59.0640156504" lon="30.0249631726"><ele>94.214</ele><time>2026-04-20T17:17:52.880Z</time><hdop>3.5</hdop><vdop>4.0</vdop><extensions><gom:speed>0.594</gom:speed></extensions></trkpt>
   <trkpt lat="59.06401213" lon="30.0249668606"><ele>94.229</ele><time>2026-04-20T17:17:53.369Z</time><hdop>3.5</hdop><vdop>4.125</vdop><extensions><gom:speed>0.631</gom:speed></extensions></trkpt>
   <trkpt lat="59.064005634" lon="30.0249770027"><ele>94.239</ele><time>2026-04-20T17:17:53.975Z</time><hdop>3.625</hdop><vdop>4.125</vdop><extensions><gom:speed>0.683</gom:speed></extensions></trkpt>
   <trkpt lat="59.0640066398" lon="30.0249859714"><ele>94.23</ele><time>2026-04-20T17:17:54.794Z</time><hdop>3.75</hdop><vdop>3.875</vdop><extensions><gom:speed>0.724</gom:speed></extensions></trkpt>
   <trkpt lat="59.0640068494" lon="30.0249970355"><ele>94.228</ele><time>2026-04-20T17:17:55.613Z</time><hdop>3.875</hdop><vdop>4.25</vdop><extensions><gom:speed>0.814</gom:speed></extensions></trkpt>
   <trkpt lat="59.0640008563" lon="30.0250093569"><ele>94.234</ele><time>2026-04-20T17:17:56.488Z</time><hdop>4.125</hdop><vdop>4.375</vdop><extensions><gom:speed>0.828</gom:speed></extensions></trkpt>
   <trkpt lat="59.0640001439" lon="30.0250099436"><ele>94.231</ele><time>2026-04-20T17:17:57.075Z</time><hdop>4.125</hdop><vdop>4.0</vdop><extensions><gom:speed>0.733</gom:speed></extensions></trkpt>
   <trkpt lat="59.0640012335" lon="30.0250112847"><ele>94.232</ele><time>2026-04-20T17:17:58.075Z</time><hdop>4.375</hdop><vdop>3.875</vdop><extensions><gom:speed>0.621</gom:speed></extensions></trkpt>
   <trkpt lat="59.0640015269" lon="30.0250226003"><ele>94.232</ele><time>2026-04-20T17:17:58.762Z</time><hdop>4.5</hdop><vdop>3.875</vdop><extensions><gom:speed>0.84</gom:speed></extensions></trkpt>
   <trkpt lat="59.0640072266" lon="30.0250248634"><ele>94.262</ele><time>2026-04-20T17:17:59.530Z</time><hdop>4.625</hdop><vdop>3.5</vdop><extensions><gom:speed>0.791</gom:speed></extensions></trkpt>
   <trkpt lat="59.0640169496" lon="30.0250257854"><ele>94.275</ele><time>2026-04-20T17:18:00.075Z</time><hdop>4.625</hdop><vdop>3.375</vdop><extensions><gom:speed>0.787</gom:speed></extensions></trkpt>
   <trkpt lat="59.0640216434" lon="30.0250246957"><ele>94.283</ele><time>2026-04-20T17:18:00.598Z</time><hdop>4.625</hdop><vdop>3.375</vdop><extensions><gom:speed>0.799</gom:speed></extensions></trkpt>
   <trkpt lat="59.0640264211" lon="30.0250220974"><ele>94.294</ele><time>2026-04-20T17:18:01.075Z</time><hdop>4.625</hdop><vdop>3.125</vdop><extensions><gom:speed>0.751</gom:speed></extensions></trkpt>
   <trkpt lat="59.0640331267" lon="30.0250236061"><ele>94.311</ele><time>2026-04-20T17:18:02.076Z</time><hdop>4.625</hdop><vdop>3.125</vdop><extensions><gom:speed>0.717</gom:speed></extensions></trkpt>
   <trkpt lat="59.0640380301" lon="30.0250232708"><ele>94.32</ele><time>2026-04-20T17:18:03.075Z</time><hdop>4.625</hdop><vdop>3.125</vdop><extensions><gom:speed>0.602</gom:speed></extensions></trkpt>
   <trkpt lat="59.0640420534" lon="30.0250251987"><ele>94.326</ele><time>2026-04-20T17:18:03.914Z</time><hdop>4.625</hdop><vdop>3.125</vdop><extensions><gom:speed>0.601</gom:speed></extensions></trkpt>
   <trkpt lat="59.0640460348" lon="30.0250150566"><ele>94.331</ele><time>2026-04-20T17:18:05.075Z</time><hdop>4.625</hdop><vdop>3.125</vdop><extensions><gom:speed>0.443</gom:speed></extensions></trkpt>
   <trkpt lat="59.0640471244" lon="30.0250130449"><ele>94.334</ele><time>2026-04-20T17:18:05.688Z</time><hdop>4.75</hdop><vdop>3.125</vdop><extensions><gom:speed>0.437</gom:speed></extensions></trkpt>
   <trkpt lat="59.0640516507" lon="30.0250096083"><ele>94.338</ele><time>2026-04-20T17:18:06.620Z</time><hdop>4.75</hdop><vdop>3.25</vdop><extensions><gom:speed>0.449</gom:speed></extensions></trkpt>
   <trkpt lat="59.0640555482" lon="30.0250120391"><ele>94.344</ele><time>2026-04-20T17:18:07.426Z</time><hdop>4.875</hdop><vdop>3.375</vdop><extensions><gom:speed>0.49</gom:speed></extensions></trkpt>
   <trkpt lat="59.06405844" lon="30.0250144698"><ele>94.348</ele><time>2026-04-20T17:18:07.939Z</time><hdop>4.875</hdop><vdop>3.5</vdop><extensions><gom:speed>0.514</gom:speed></extensions></trkpt>
   <trkpt lat="59.0640639302" lon="30.0250161462"><ele>94.36</ele><time>2026-04-20T17:18:09.006Z</time><hdop>5.125</hdop><vdop>3.375</vdop><extensions><gom:speed>0.528</gom:speed></extensions></trkpt>
   <trkpt lat="59.0640684564" lon="30.0250133802"><ele>94.367</ele><time>2026-04-20T17:18:09.952Z</time><hdop>5.25</hdop><vdop>3.5</vdop><extensions><gom:speed>0.52</gom:speed></extensions></trkpt>
   <trkpt lat="59.0640716415" lon="30.0250075128"><ele>94.372</ele><time>2026-04-20T17:18:11.018Z</time><hdop>5.5</hdop><vdop>3.625</vdop><extensions><gom:speed>0.524</gom:speed></extensions></trkpt>
   <trkpt lat="59.0640719349" lon="30.0250049145"><ele>94.375</ele><time>2026-04-20T17:18:11.966Z</time><hdop>5.75</hdop><vdop>3.625</vdop><extensions><gom:speed>0.526</gom:speed></extensions></trkpt>
   <trkpt lat="59.0640742399" lon="30.0249901623"><ele>94.378</ele><time>2026-04-20T17:18:13.015Z</time><hdop>6.0</hdop><vdop>3.75</vdop><extensions><gom:speed>0.525</gom:speed></extensions></trkpt>
   <trkpt lat="59.0640733179" lon="30.0249760807"><ele>94.452</ele><time>2026-04-20T17:18:13.815Z</time><hdop>6.125</hdop><vdop>3.75</vdop><extensions><gom:speed>0.632</gom:speed></extensions></trkpt>
   <trkpt lat="59.0640762515" lon="30.0249609095"><ele>94.453</ele><time>2026-04-20T17:18:14.555Z</time><hdop>6.125</hdop><vdop>3.125</vdop><extensions><gom:speed>0.78</gom:speed></extensions></trkpt>
   <trkpt lat="59.064080233" lon="30.0249547907"><ele>94.608</ele><time>2026-04-20T17:18:15.075Z</time><hdop>6.125</hdop><vdop>3.125</vdop><extensions><gom:speed>0.814</gom:speed></extensions></trkpt>
   <trkpt lat="59.0640906265" lon="30.0249474146"><ele>95.165</ele><time>2026-04-20T17:18:16.076Z</time><hdop>6.0</hdop><vdop>2.75</vdop><extensions><gom:speed>0.905</gom:speed></extensions></trkpt>
   <trkpt lat="59.064099218" lon="30.0249383621"><ele>95.498</ele><time>2026-04-20T17:18:16.954Z</time><hdop>5.875</hdop><vdop>2.75</vdop><extensions><gom:speed>0.99</gom:speed></extensions></trkpt>
   <trkpt lat="59.0641090248" lon="30.0249356799"><ele>95.909</ele><time>2026-04-20T17:18:17.694Z</time><hdop>5.875</hdop><vdop>2.625</vdop><extensions><gom:speed>1.033</gom:speed></extensions></trkpt>
   <trkpt lat="59.0641245313" lon="30.0249387812"><ele>95.901</ele><time>2026-04-20T17:18:18.516Z</time><hdop>5.75</hdop><vdop>2.5</vdop><extensions><gom:speed>1.004</gom:speed></extensions></trkpt>
   <trkpt lat="59.0641308177" lon="30.0249470793"><ele>96.087</ele><time>2026-04-20T17:18:19.075Z</time><hdop>5.625</hdop><vdop>2.5</vdop><extensions><gom:speed>0.98</gom:speed></extensions></trkpt>
   <trkpt lat="59.0641409179" lon="30.0249632564"><ele>96.078</ele><time>2026-04-20T17:18:20.076Z</time><hdop>5.625</hdop><vdop>2.5</vdop><extensions><gom:speed>0.895</gom:speed></extensions></trkpt>
   <trkpt lat="59.064147833" lon="30.0249764998"><ele>96.072</ele><time>2026-04-20T17:18:21.040Z</time><hdop>5.625</hdop><vdop>2.5</vdop><extensions><gom:speed>0.911</gom:speed></extensions></trkpt>
   <trkpt lat="59.064152443" lon="30.0249935989"><ele>95.259</ele><time>2026-04-20T17:18:21.800Z</time><hdop>5.5</hdop><vdop>2.5</vdop><extensions><gom:speed>0.895</gom:speed></extensions></trkpt>
   <trkpt lat="59.0641583523" lon="30.0250129611"><ele>95.194</ele><time>2026-04-20T17:18:22.561Z</time><hdop>5.375</hdop><vdop>2.5</vdop><extensions><gom:speed>0.966</gom:speed></extensions></trkpt>
   <trkpt lat="59.0641630462" lon="30.0250265398"><ele>95.169</ele><time>2026-04-20T17:18:23.075Z</time><hdop>5.375</hdop><vdop>2.5</vdop><extensions><gom:speed>0.981</gom:speed></extensions></trkpt>
   <trkpt lat="59.0641713442" lon="30.0250480813"><ele>95.228</ele><time>2026-04-20T17:18:24.075Z</time><hdop>5.25</hdop><vdop>2.5</vdop><extensions><gom:speed>0.91</gom:speed></extensions></trkpt>
   <trkpt lat="59.0641812349" lon="30.0250617438"><ele>95.262</ele><time>2026-04-20T17:18:25.040Z</time><hdop>5.125</hdop><vdop>2.5</vdop><extensions><gom:speed>0.832</gom:speed></extensions></trkpt>
   <trkpt lat="59.0641863478" lon="30.0250678625"><ele>95.207</ele><time>2026-04-20T17:18:25.861Z</time><hdop>5.125</hdop><vdop>2.5</vdop><extensions><gom:speed>0.771</gom:speed></extensions></trkpt>
   <trkpt lat="59.0641935563" lon="30.0250757415"><ele>95.334</ele><time>2026-04-20T17:18:26.637Z</time><hdop>5.125</hdop><vdop>2.5</vdop><extensions><gom:speed>0.773</gom:speed></extensions></trkpt>
   <trkpt lat="59.0642018544" lon="30.0250811898"><ele>95.097</ele><time>2026-04-20T17:18:27.519Z</time><hdop>5.0</hdop><vdop>2.5</vdop><extensions><gom:speed>0.763</gom:speed></extensions></trkpt>
   <trkpt lat="59.0642072188" lon="30.0250834529"><ele>95.176</ele><time>2026-04-20T17:18:28.075Z</time><hdop>5.0</hdop><vdop>2.5</vdop><extensions><gom:speed>0.758</gom:speed></extensions></trkpt>
   <trkpt lat="59.0642151397" lon="30.0250873924"><ele>94.938</ele><time>2026-04-20T17:18:29.075Z</time><hdop>5.0</hdop><vdop>2.5</vdop><extensions><gom:speed>0.686</gom:speed></extensions></trkpt>
   <trkpt lat="59.0642203365" lon="30.0250927568"><ele>94.796</ele><time>2026-04-20T17:18:30.012Z</time><hdop>5.0</hdop><vdop>2.5</vdop><extensions><gom:speed>0.62</gom:speed></extensions></trkpt>
   <trkpt lat="59.0642268324" lon="30.0251086824"><ele>95.077</ele><time>2026-04-20T17:18:31.075Z</time><hdop>4.875</hdop><vdop>4.625</vdop><extensions><gom:speed>0.589</gom:speed></extensions></trkpt>
   <trkpt lat="59.064229347" lon="30.0251138792"><ele>95.366</ele><time>2026-04-20T17:18:31.984Z</time><hdop>4.875</hdop><vdop>4.625</vdop><extensions><gom:speed>0.496</gom:speed></extensions></trkpt>
   <trkpt lat="59.0642309396" lon="30.0251189083"><ele>95.625</ele><time>2026-04-20T17:18:33.075Z</time><hdop>4.875</hdop><vdop>4.625</vdop><extensions><gom:speed>0.271</gom:speed></extensions></trkpt>
   <trkpt lat="59.0642298499" lon="30.025119998"><ele>95.898</ele><time>2026-04-20T17:18:33.997Z</time><hdop>4.875</hdop><vdop>4.5</vdop><extensions><gom:speed>0.147</gom:speed></extensions></trkpt>
   <trkpt lat="59.0642297242" lon="30.0251238537"><ele>96.084</ele><time>2026-04-20T17:18:35.075Z</time><hdop>4.875</hdop><vdop>4.375</vdop><extensions><gom:speed>0.113</gom:speed></extensions></trkpt>
   <trkpt lat="59.06423073" lon="30.0251279608"><ele>96.115</ele><time>2026-04-20T17:18:36.075Z</time><hdop>4.75</hdop><vdop>4.25</vdop><extensions><gom:speed>0.068</gom:speed></extensions></trkpt>
   <trkpt lat="59.0642310234" lon="30.025128799"><ele>96.133</ele><time>2026-04-20T17:18:36.722Z</time><hdop>4.75</hdop><vdop>4.25</vdop><extensions><gom:speed>0.04</gom:speed></extensions></trkpt>
   <trkpt lat="59.0642334541" lon="30.0251374323"><ele>96.344</ele><time>2026-04-20T17:18:38.076Z</time><hdop>4.625</hdop><vdop>3.875</vdop><extensions><gom:speed>0.091</gom:speed></extensions></trkpt>
   <trkpt lat="59.0642341247" lon="30.0251412042"><ele>96.534</ele><time>2026-04-20T17:18:39.075Z</time><hdop>4.5</hdop><vdop>3.875</vdop><extensions><gom:speed>0.116</gom:speed></extensions></trkpt>
   <trkpt lat="59.0642356334" lon="30.0251443893"><ele>96.786</ele><time>2026-04-20T17:18:40.075Z</time><hdop>4.375</hdop><vdop>3.625</vdop><extensions><gom:speed>0.106</gom:speed></extensions></trkpt>
   <trkpt lat="59.0642366393" lon="30.025145479"><ele>96.936</ele><time>2026-04-20T17:18:40.906Z</time><hdop>4.25</hdop><vdop>3.625</vdop><extensions><gom:speed>0.123</gom:speed></extensions></trkpt>
   <trkpt lat="59.0642397406" lon="30.0251484965"><ele>97.118</ele><time>2026-04-20T17:18:42.076Z</time><hdop>4.125</hdop><vdop>3.375</vdop><extensions><gom:speed>0.165</gom:speed></extensions></trkpt>
   <trkpt lat="59.0642403273" lon="30.0251485803"><ele>97.226</ele><time>2026-04-20T17:18:42.882Z</time><hdop>4.125</hdop><vdop>3.375</vdop><extensions><gom:speed>0.168</gom:speed></extensions></trkpt>
   <trkpt lat="59.0642441411" lon="30.0251510948"><ele>97.305</ele><time>2026-04-20T17:18:44.075Z</time><hdop>4.0</hdop><vdop>3.625</vdop><extensions><gom:speed>0.158</gom:speed></extensions></trkpt>
   <trkpt lat="59.0642453564" lon="30.0251524359"><ele>97.352</ele><time>2026-04-20T17:18:44.937Z</time><hdop>4.0</hdop><vdop>3.625</vdop><extensions><gom:speed>0.18</gom:speed></extensions></trkpt>
   <trkpt lat="59.0642464461" lon="30.0251552858"><ele>97.379</ele><time>2026-04-20T17:18:46.075Z</time><hdop>4.0</hdop><vdop>3.25</vdop><extensions><gom:speed>0.179</gom:speed></extensions></trkpt>
   <trkpt lat="59.0642479548" lon="30.0251562078"><ele>97.339</ele><time>2026-04-20T17:18:47.075Z</time><hdop>3.875</hdop><vdop>3.125</vdop><extensions><gom:speed>0.16</gom:speed></extensions></trkpt>
   <trkpt lat="59.0642484577" lon="30.0251581356"><ele>97.31</ele><time>2026-04-20T17:18:48.075Z</time><hdop>3.875</hdop><vdop>3.125</vdop><extensions><gom:speed>0.167</gom:speed></extensions></trkpt>
   <trkpt lat="59.064248332" lon="30.0251609017"><ele>97.247</ele><time>2026-04-20T17:18:49.075Z</time><hdop>3.875</hdop><vdop>3.125</vdop><extensions><gom:speed>0.157</gom:speed></extensions></trkpt>
   <trkpt lat="59.0642479548" lon="30.0251615722"><ele>97.191</ele><time>2026-04-20T17:18:50.075Z</time><hdop>3.875</hdop><vdop>3.125</vdop><extensions><gom:speed>0.1</gom:speed></extensions></trkpt>
   <trkpt lat="59.0642481225" lon="30.025160734"><ele>97.155</ele><time>2026-04-20T17:18:51.075Z</time><hdop>3.875</hdop><vdop>2.875</vdop><extensions><gom:speed>0.097</gom:speed></extensions></trkpt>
   <trkpt lat="59.0642487511" lon="30.0251601473"><ele>97.148</ele><time>2026-04-20T17:18:52.075Z</time><hdop>3.875</hdop><vdop>2.75</vdop><extensions><gom:speed>0.11</gom:speed></extensions></trkpt>
   <trkpt lat="59.0642488349" lon="30.0251604826"><ele>97.145</ele><time>2026-04-20T17:18:52.656Z</time><hdop>3.875</hdop><vdop>2.75</vdop><extensions><gom:speed>0.094</gom:speed></extensions></trkpt>
   <trkpt lat="59.0642490445" lon="30.0251610693"><ele>97.144</ele><time>2026-04-20T17:18:53.556Z</time><hdop>3.875</hdop><vdop>2.875</vdop><extensions><gom:speed>0.05</gom:speed></extensions></trkpt>
   <trkpt lat="59.064249254" lon="30.0251614046"><ele>97.145</ele><time>2026-04-20T17:18:54.075Z</time><hdop>3.875</hdop><vdop>2.875</vdop><extensions><gom:speed>0.082</gom:speed></extensions></trkpt>
   <trkpt lat="59.0642498408" lon="30.025162159"><ele>97.139</ele><time>2026-04-20T17:18:55.075Z</time><hdop>3.875</hdop><vdop>2.75</vdop><extensions><gom:speed>0.144</gom:speed></extensions></trkpt>
   <trkpt lat="59.06425114" lon="30.025161656"><ele>97.136</ele><time>2026-04-20T17:18:55.836Z</time><hdop>3.875</hdop><vdop>2.75</vdop><extensions><gom:speed>0.173</gom:speed></extensions></trkpt>
   <trkpt lat="59.0642533193" lon="30.025159812"><ele>97.133</ele><time>2026-04-20T17:18:56.674Z</time><hdop>3.875</hdop><vdop>2.875</vdop><extensions><gom:speed>0.265</gom:speed></extensions></trkpt>
   <trkpt lat="59.0642555405" lon="30.025157046"><ele>97.126</ele><time>2026-04-20T17:18:57.434Z</time><hdop>3.875</hdop><vdop>2.875</vdop><extensions><gom:speed>0.306</gom:speed></extensions></trkpt>
   <trkpt lat="59.0642569235" lon="30.0251557887"><ele>97.121</ele><time>2026-04-20T17:18:58.075Z</time><hdop>3.875</hdop><vdop>2.875</vdop><extensions><gom:speed>0.301</gom:speed></extensions></trkpt>
   <trkpt lat="59.0642615335" lon="30.02515428"><ele>97.119</ele><time>2026-04-20T17:18:59.104Z</time><hdop>4.0</hdop><vdop>2.875</vdop><extensions><gom:speed>0.429</gom:speed></extensions></trkpt>
   <trkpt lat="59.0642641319" lon="30.0251543638"><ele>97.114</ele><time>2026-04-20T17:19:00.075Z</time><hdop>4.0</hdop><vdop>2.875</vdop><extensions><gom:speed>0.434</gom:speed></extensions></trkpt>
   <trkpt lat="59.0642663531" lon="30.0251550343"><ele>97.109</ele><time>2026-04-20T17:19:01.075Z</time><hdop>4.125</hdop><vdop>2.875</vdop><extensions><gom:speed>0.412</gom:speed></extensions></trkpt>
   <trkpt lat="59.0642681552" lon="30.0251562916"><ele>97.109</ele><time>2026-04-20T17:19:02.075Z</time><hdop>4.125</hdop><vdop>3.0</vdop><extensions><gom:speed>0.379</gom:speed></extensions></trkpt>
   <trkpt lat="59.0642700411" lon="30.025157968"><ele>97.109</ele><time>2026-04-20T17:19:03.099Z</time><hdop>4.375</hdop><vdop>3.0</vdop><extensions><gom:speed>0.357</gom:speed></extensions></trkpt>
   <trkpt lat="59.0642696221" lon="30.025160734"><ele>96.677</ele><time>2026-04-20T17:19:04.075Z</time><hdop>4.375</hdop><vdop>3.25</vdop><extensions><gom:speed>0.307</gom:speed></extensions></trkpt>
   <trkpt lat="59.064271047" lon="30.0251633324"><ele>96.498</ele><time>2026-04-20T17:19:05.076Z</time><hdop>4.375</hdop><vdop>3.375</vdop><extensions><gom:speed>0.274</gom:speed></extensions></trkpt>
   <trkpt lat="59.0642741483" lon="30.0251629133"><ele>96.163</ele><time>2026-04-20T17:19:06.076Z</time><hdop>4.375</hdop><vdop>3.25</vdop><extensions><gom:speed>0.244</gom:speed></extensions></trkpt>
   <trkpt lat="59.0642751541" lon="30.0251632486"><ele>95.962</ele><time>2026-04-20T17:19:06.782Z</time><hdop>4.375</hdop><vdop>3.25</vdop><extensions><gom:speed>0.227</gom:speed></extensions></trkpt>
   <trkpt lat="59.0642794289" lon="30.0251622428"><ele>95.974</ele><time>2026-04-20T17:19:07.637Z</time><hdop>4.5</hdop><vdop>3.125</vdop><extensions><gom:speed>0.267</gom:speed></extensions></trkpt>
   <trkpt lat="59.0642855477" lon="30.0251617399"><ele>95.855</ele><time>2026-04-20T17:19:09.062Z</time><hdop>4.5</hdop><vdop>3.125</vdop><extensions><gom:speed>0.189</gom:speed></extensions></trkpt>
   <trkpt lat="59.0642893195" lon="30.0251624942"><ele>95.612</ele><time>2026-04-20T17:19:10.078Z</time><hdop>4.5</hdop><vdop>3.25</vdop><extensions><gom:speed>0.171</gom:speed></extensions></trkpt>
   <trkpt lat="59.0642973242" lon="30.0251625781"><ele>95.432</ele><time>2026-04-20T17:19:11.075Z</time><hdop>4.5</hdop><vdop>3.375</vdop><extensions><gom:speed>0.212</gom:speed></extensions></trkpt>
   <trkpt lat="59.0643023534" lon="30.025162159"><ele>95.345</ele><time>2026-04-20T17:19:12.075Z</time><hdop>4.375</hdop><vdop>3.375</vdop><extensions><gom:speed>0.168</gom:speed></extensions></trkpt>
   <trkpt lat="59.0643061252" lon="30.0251619913"><ele>95.582</ele><time>2026-04-20T17:19:13.076Z</time><hdop>4.375</hdop><vdop>3.5</vdop><extensions><gom:speed>0.12</gom:speed></extensions></trkpt>
   <trkpt lat="59.0643067539" lon="30.0251617399"><ele>95.723</ele><time>2026-04-20T17:19:13.797Z</time><hdop>4.25</hdop><vdop>3.5</vdop><extensions><gom:speed>0.11</gom:speed></extensions></trkpt>
   <trkpt lat="59.0643114478" lon="30.0251642544"><ele>95.94</ele><time>2026-04-20T17:19:14.856Z</time><hdop>4.25</hdop><vdop>3.625</vdop><extensions><gom:speed>0.126</gom:speed></extensions></trkpt>
   <trkpt lat="59.06431413" lon="30.025165847"><ele>96.049</ele><time>2026-04-20T17:19:15.943Z</time><hdop>4.25</hdop><vdop>3.5</vdop><extensions><gom:speed>0.116</gom:speed></extensions></trkpt>
   <trkpt lat="59.0643190334" lon="30.0251677748"><ele>96.01</ele><time>2026-04-20T17:19:17.075Z</time><hdop>4.125</hdop><vdop>3.25</vdop><extensions><gom:speed>0.135</gom:speed></extensions></trkpt>
   <trkpt lat="59.0643222185" lon="30.0251702894"><ele>95.945</ele><time>2026-04-20T17:19:18.076Z</time><hdop>4.125</hdop><vdop>3.375</vdop><extensions><gom:speed>0.181</gom:speed></extensions></trkpt>
   <trkpt lat="59.0643257389" lon="30.0251739774"><ele>95.959</ele><time>2026-04-20T17:19:19.075Z</time><hdop>4.125</hdop><vdop>3.125</vdop><extensions><gom:speed>0.162</gom:speed></extensions></trkpt>
   <trkpt lat="59.0643274572" lon="30.0251738098"><ele>95.967</ele><time>2026-04-20T17:19:19.800Z</time><hdop>4.25</hdop><vdop>3.125</vdop><extensions><gom:speed>0.179</gom:speed></extensions></trkpt>
   <trkpt lat="59.0643321511" lon="30.0251717143"><ele>95.999</ele><time>2026-04-20T17:19:21.075Z</time><hdop>4.125</hdop><vdop>3.25</vdop><extensions><gom:speed>0.164</gom:speed></extensions></trkpt>
   <trkpt lat="59.0643342465" lon="30.0251703732"><ele>95.999</ele><time>2026-04-20T17:19:22.075Z</time><hdop>4.125</hdop><vdop>3.375</vdop><extensions><gom:speed>0.148</gom:speed></extensions></trkpt>
   <trkpt lat="59.0643359229" lon="30.0251697027"><ele>95.991</ele><time>2026-04-20T17:19:23.076Z</time><hdop>4.125</hdop><vdop>3.5</vdop><extensions><gom:speed>0.102</gom:speed></extensions></trkpt>
   <trkpt lat="59.064337725" lon="30.02517096"><ele>95.984</ele><time>2026-04-20T17:19:24.075Z</time><hdop>4.125</hdop><vdop>3.5</vdop><extensions><gom:speed>0.085</gom:speed></extensions></trkpt>
   <trkpt lat="59.0643392338" lon="30.0251710438"><ele>95.992</ele><time>2026-04-20T17:19:25.075Z</time><hdop>4.0</hdop><vdop>3.625</vdop><extensions><gom:speed>0.121</gom:speed></extensions></trkpt>
   <trkpt lat="59.0643404491" lon="30.025170457"><ele>95.996</ele><time>2026-04-20T17:19:25.558Z</time><hdop>4.0</hdop><vdop>3.625</vdop><extensions><gom:speed>0.099</gom:speed></extensions></trkpt>
   <trkpt lat="59.0643417483" lon="30.0251699541"><ele>95.998</ele><time>2026-04-20T17:19:26.075Z</time><hdop>4.0</hdop><vdop>3.625</vdop><extensions><gom:speed>0.129</gom:speed></extensions></trkpt>
   <trkpt lat="59.0643443467" lon="30.0251692836"><ele>95.999</ele><time>2026-04-20T17:19:27.075Z</time><hdop>4.0</hdop><vdop>3.625</vdop><extensions><gom:speed>0.103</gom:speed></extensions></trkpt>
   <trkpt lat="59.0643456459" lon="30.0251679425"><ele>96.012</ele><time>2026-04-20T17:19:28.075Z</time><hdop>3.875</hdop><vdop>3.5</vdop><extensions><gom:speed>0.111</gom:speed></extensions></trkpt>
   <trkpt lat="59.0643471547" lon="30.0251673557"><ele>96.019</ele><time>2026-04-20T17:19:29.075Z</time><hdop>3.875</hdop><vdop>3.375</vdop><extensions><gom:speed>0.156</gom:speed></extensions></trkpt>
   <trkpt lat="59.0643483281" lon="30.0251678586"><ele>96.014</ele><time>2026-04-20T17:19:30.075Z</time><hdop>4.0</hdop><vdop>3.25</vdop><extensions><gom:speed>0.184</gom:speed></extensions></trkpt>
   <trkpt lat="59.0643494178" lon="30.0251684454"><ele>96.011</ele><time>2026-04-20T17:19:31.075Z</time><hdop>4.0</hdop><vdop>3.125</vdop><extensions><gom:speed>0.152</gom:speed></extensions></trkpt>
   <trkpt lat="59.064349334" lon="30.0251688645"><ele>96.009</ele><time>2026-04-20T17:19:31.558Z</time><hdop>4.0</hdop><vdop>3.125</vdop><extensions><gom:speed>0.134</gom:speed></extensions></trkpt>
   <trkpt lat="59.0643495435" lon="30.0251692836"><ele>96.028</ele><time>2026-04-20T17:19:32.075Z</time><hdop>4.0</hdop><vdop>3.125</vdop><extensions><gom:speed>0.159</gom:speed></extensions></trkpt>
   <trkpt lat="59.0643515552" lon="30.0251702056"><ele>96.041</ele><time>2026-04-20T17:19:33.075Z</time><hdop>4.125</hdop><vdop>3.0</vdop><extensions><gom:speed>0.233</gom:speed></extensions></trkpt>
   <trkpt lat="59.0643522257" lon="30.0251698703"><ele>96.051</ele><time>2026-04-20T17:19:34.075Z</time><hdop>4.125</hdop><vdop>3.0</vdop><extensions><gom:speed>0.215</gom:speed></extensions></trkpt>
   <trkpt lat="59.0643535249" lon="30.0251697027"><ele>96.056</ele><time>2026-04-20T17:19:34.953Z</time><hdop>4.125</hdop><vdop>3.0</vdop><extensions><gom:speed>0.215</gom:speed></extensions></trkpt>
   <trkpt lat="59.0643550336" lon="30.0251700379"><ele>96.061</ele><time>2026-04-20T17:19:35.920Z</time><hdop>4.125</hdop><vdop>3.0</vdop><extensions><gom:speed>0.23</gom:speed></extensions></trkpt>
   <trkpt lat="59.0643560395" lon="30.0251721334"><ele>96.066</ele><time>2026-04-20T17:19:36.956Z</time><hdop>4.125</hdop><vdop>3.0</vdop><extensions><gom:speed>0.27</gom:speed></extensions></trkpt>
   <trkpt lat="59.0643575482" lon="30.0251759053"><ele>96.066</ele><time>2026-04-20T17:19:37.996Z</time><hdop>4.125</hdop><vdop>3.125</vdop><extensions><gom:speed>0.326</gom:speed></extensions></trkpt>
   <trkpt lat="59.0643591408" lon="30.0251780008"><ele>95.013</ele><time>2026-04-20T17:19:38.552Z</time><hdop>4.125</hdop><vdop>2.75</vdop><extensions><gom:speed>0.373</gom:speed></extensions></trkpt>
   <trkpt lat="59.0643644214" lon="30.0251845386"><ele>93.785</ele><time>2026-04-20T17:19:39.075Z</time><hdop>4.25</hdop><vdop>2.625</vdop><extensions><gom:speed>0.452</gom:speed></extensions></trkpt>
   <trkpt lat="59.0643720489" lon="30.0251938425"><ele>93.051</ele><time>2026-04-20T17:19:39.957Z</time><hdop>4.25</hdop><vdop>2.625</vdop><extensions><gom:speed>0.632</gom:speed></extensions></trkpt>
   <trkpt lat="59.0643819396" lon="30.0252140429"><ele>92.652</ele><time>2026-04-20T17:19:40.876Z</time><hdop>4.25</hdop><vdop>2.5</vdop><extensions><gom:speed>0.896</gom:speed></extensions></trkpt>
   <trkpt lat="59.0643952249" lon="30.0252394401"><ele>92.303</ele><time>2026-04-20T17:19:42.075Z</time><hdop>4.375</hdop><vdop>2.5</vdop><extensions><gom:speed>0.974</gom:speed></extensions></trkpt>
   <trkpt lat="59.0644069176" lon="30.025252935"><ele>92.011</ele><time>2026-04-20T17:19:43.075Z</time><hdop>4.5</hdop><vdop>2.5</vdop><extensions><gom:speed>0.924</gom:speed></extensions></trkpt>
   <trkpt lat="59.064416934" lon="30.0252624903"><ele>91.465</ele><time>2026-04-20T17:19:44.076Z</time><hdop>4.5</hdop><vdop>2.5</vdop><extensions><gom:speed>0.849</gom:speed></extensions></trkpt>
   <trkpt lat="59.0644185266" lon="30.0252643344"><ele>91.138</ele><time>2026-04-20T17:19:44.711Z</time><hdop>4.625</hdop><vdop>2.5</vdop><extensions><gom:speed>0.774</gom:speed></extensions></trkpt>
   <trkpt lat="59.0644272437" lon="30.0252739735"><ele>90.733</ele><time>2026-04-20T17:19:45.701Z</time><hdop>4.625</hdop><vdop>2.5</vdop><extensions><gom:speed>0.535</gom:speed></extensions></trkpt>
   <trkpt lat="59.0644343265" lon="30.0252765719"><ele>90.615</ele><time>2026-04-20T17:19:47.075Z</time><hdop>4.625</hdop><vdop>2.5</vdop><extensions><gom:speed>0.387</gom:speed></extensions></trkpt>
   <trkpt lat="59.0644366315" lon="30.0252784998"><ele>90.848</ele><time>2026-04-20T17:19:48.075Z</time><hdop>4.5</hdop><vdop>2.5</vdop><extensions><gom:speed>0.232</gom:speed></extensions></trkpt>
   <trkpt lat="59.0644369248" lon="30.02528026"><ele>91.202</ele><time>2026-04-20T17:19:49.075Z</time><hdop>4.25</hdop><vdop>2.5</vdop><extensions><gom:speed>0.133</gom:speed></extensions></trkpt>
   <trkpt lat="59.0644385174" lon="30.0252810143"><ele>91.843</ele><time>2026-04-20T17:19:50.075Z</time><hdop>4.0</hdop><vdop>4.375</vdop><extensions><gom:speed>0.109</gom:speed></extensions></trkpt>
   <trkpt lat="59.064438727" lon="30.025281182"><ele>92.226</ele><time>2026-04-20T17:19:50.989Z</time><hdop>4.0</hdop><vdop>4.375</vdop><extensions><gom:speed>0.088</gom:speed></extensions></trkpt>
   <trkpt lat="59.0644439237" lon="30.025278835"><ele>92.646</ele><time>2026-04-20T17:19:52.075Z</time><hdop>3.625</hdop><vdop>3.875</vdop><extensions><gom:speed>0.067</gom:speed></extensions></trkpt>
   <trkpt lat="59.0644473184" lon="30.0252774939"><ele>92.999</ele><time>2026-04-20T17:19:53.076Z</time><hdop>3.625</hdop><vdop>3.75</vdop><extensions><gom:speed>0.063</gom:speed></extensions></trkpt>
   <trkpt lat="59.0644504197" lon="30.0252766558"><ele>93.174</ele><time>2026-04-20T17:19:54.076Z</time><hdop>3.5</hdop><vdop>3.75</vdop><extensions><gom:speed>0.096</gom:speed></extensions></trkpt>
   <trkpt lat="59.0644515513" lon="30.0252754823"><ele>93.279</ele><time>2026-04-20T17:19:54.635Z</time><hdop>3.5</hdop><vdop>3.75</vdop><extensions><gom:speed>0.093</gom:speed></extensions></trkpt>
   <trkpt lat="59.0644553231" lon="30.0252746441"><ele>93.402</ele><time>2026-04-20T17:19:55.821Z</time><hdop>3.5</hdop><vdop>3.75</vdop><extensions><gom:speed>0.101</gom:speed></extensions></trkpt>
   <trkpt lat="59.064459556" lon="30.0252744765"><ele>93.562</ele><time>2026-04-20T17:19:57.053Z</time><hdop>3.625</hdop><vdop>3.75</vdop><extensions><gom:speed>0.116</gom:speed></extensions></trkpt>
   <trkpt lat="59.0644668482" lon="30.025275147"><ele>93.698</ele><time>2026-04-20T17:19:58.075Z</time><hdop>3.625</hdop><vdop>3.5</vdop><extensions><gom:speed>0.149</gom:speed></extensions></trkpt>
   <trkpt lat="59.0644696562" lon="30.025276069"><ele>93.828</ele><time>2026-04-20T17:19:59.075Z</time><hdop>3.625</hdop><vdop>3.5</vdop><extensions><gom:speed>0.14</gom:speed></extensions></trkpt>
   <trkpt lat="59.0644730508" lon="30.0252769072"><ele>93.876</ele><time>2026-04-20T17:20:00.075Z</time><hdop>3.625</hdop><vdop>3.625</vdop><extensions><gom:speed>0.153</gom:speed></extensions></trkpt>
   <trkpt lat="59.0644741405" lon="30.0252757337"><ele>93.905</ele><time>2026-04-20T17:20:00.638Z</time><hdop>3.625</hdop><vdop>3.625</vdop><extensions><gom:speed>0.128</gom:speed></extensions></trkpt>
   <trkpt lat="59.0644773256" lon="30.0252756499"><ele>93.937</ele><time>2026-04-20T17:20:01.554Z</time><hdop>3.625</hdop><vdop>3.625</vdop><extensions><gom:speed>0.143</gom:speed></extensions></trkpt>
   <trkpt lat="59.0644795468" lon="30.0252767396"><ele>93.957</ele><time>2026-04-20T17:20:02.075Z</time><hdop>3.625</hdop><vdop>3.625</vdop><extensions><gom:speed>0.173</gom:speed></extensions></trkpt>
   <trkpt lat="59.0644817261" lon="30.0252805952"><ele>93.969</ele><time>2026-04-20T17:20:02.721Z</time><hdop>3.625</hdop><vdop>3.625</vdop><extensions><gom:speed>0.245</gom:speed></extensions></trkpt>
   <trkpt lat="59.0644844502" lon="30.0252857082"><ele>93.983</ele><time>2026-04-20T17:20:03.351Z</time><hdop>3.75</hdop><vdop>3.5</vdop><extensions><gom:speed>0.316</gom:speed></extensions></trkpt>
   <trkpt lat="59.0644890184" lon="30.025295515"><ele>93.864</ele><time>2026-04-20T17:20:04.076Z</time><hdop>3.875</hdop><vdop>3.5</vdop><extensions><gom:speed>0.443</gom:speed></extensions></trkpt>
   <trkpt lat="59.064501717" lon="30.0253071659"><ele>93.448</ele><time>2026-04-20T17:20:05.075Z</time><hdop>4.125</hdop><vdop>3.125</vdop><extensions><gom:speed>0.75</gom:speed></extensions></trkpt>
   <trkpt lat="59.0645146251" lon="30.0253104348"><ele>93.2</ele><time>2026-04-20T17:20:06.016Z</time><hdop>4.25</hdop><vdop>3.125</vdop><extensions><gom:speed>0.922</gom:speed></extensions></trkpt>
   <trkpt lat="59.0645255216" lon="30.0253046513"><ele>92.971</ele><time>2026-04-20T17:20:06.974Z</time><hdop>4.625</hdop><vdop>3.0</vdop><extensions><gom:speed>0.921</gom:speed></extensions></trkpt>
   <trkpt lat="59.0645344483" lon="30.025304316"><ele>92.436</ele><time>2026-04-20T17:20:07.881Z</time><hdop>4.875</hdop><vdop>3.5</vdop><extensions><gom:speed>0.867</gom:speed></extensions></trkpt>
   <trkpt lat="59.0645434169" lon="30.025312195"><ele>92.072</ele><time>2026-04-20T17:20:08.997Z</time><hdop>5.125</hdop><vdop>3.375</vdop><extensions><gom:speed>0.797</gom:speed></extensions></trkpt>
   <trkpt lat="59.0645446323" lon="30.0253152963"><ele>91.823</ele><time>2026-04-20T17:20:09.467Z</time><hdop>5.125</hdop><vdop>3.375</vdop><extensions><gom:speed>0.719</gom:speed></extensions></trkpt>
   <trkpt lat="59.0645507511" lon="30.0253235106"><ele>91.835</ele><time>2026-04-20T17:20:10.076Z</time><hdop>5.25</hdop><vdop>3.375</vdop><extensions><gom:speed>0.618</gom:speed></extensions></trkpt>
   <trkpt lat="59.0645536428" lon="30.0253289588"><ele>92.056</ele><time>2026-04-20T17:20:11.075Z</time><hdop>5.25</hdop><vdop>3.375</vdop><extensions><gom:speed>0.488</gom:speed></extensions></trkpt>
   <trkpt lat="59.064556828" lon="30.0253349938"><ele>92.187</ele><time>2026-04-20T17:20:12.076Z</time><hdop>5.125</hdop><vdop>3.375</vdop><extensions><gom:speed>0.493</gom:speed></extensions></trkpt>
   <trkpt lat="59.0645603484" lon="30.0253434595"><ele>92.443</ele><time>2026-04-20T17:20:12.898Z</time><hdop>5.125</hdop><vdop>3.125</vdop><extensions><gom:speed>0.527</gom:speed></extensions></trkpt>
   <trkpt lat="59.0645663414" lon="30.0253618159"><ele>92.769</ele><time>2026-04-20T17:20:14.002Z</time><hdop>5.0</hdop><vdop>3.375</vdop><extensions><gom:speed>0.624</gom:speed></extensions></trkpt>
   <trkpt lat="59.0645758549" lon="30.0253839441"><ele>93.906</ele><time>2026-04-20T17:20:15.075Z</time><hdop>4.875</hdop><vdop>3.625</vdop><extensions><gom:speed>0.622</gom:speed></extensions></trkpt>
   <trkpt lat="59.0645772379" lon="30.0253849499"><ele>94.585</ele><time>2026-04-20T17:20:15.745Z</time><hdop>4.875</hdop><vdop>3.625</vdop><extensions><gom:speed>0.554</gom:speed></extensions></trkpt>
   <trkpt lat="59.0645872543" lon="30.025395595"><ele>95.239</ele><time>2026-04-20T17:20:17.075Z</time><hdop>4.875</hdop><vdop>3.75</vdop><extensions><gom:speed>0.44</gom:speed></extensions></trkpt>
   <trkpt lat="59.0645899365" lon="30.0254007079"><ele>95.422</ele><time>2026-04-20T17:20:18.075Z</time><hdop>4.875</hdop><vdop>3.625</vdop><extensions><gom:speed>0.297</gom:speed></extensions></trkpt>
   <trkpt lat="59.0645910261" lon="30.02540624"><ele>95.374</ele><time>2026-04-20T17:20:19.075Z</time><hdop>4.75</hdop><vdop>3.625</vdop><extensions><gom:speed>0.214</gom:speed></extensions></trkpt>
   <trkpt lat="59.0645923253" lon="30.0254105147"><ele>95.208</ele><time>2026-04-20T17:20:20.076Z</time><hdop>4.625</hdop><vdop>3.375</vdop><extensions><gom:speed>0.121</gom:speed></extensions></trkpt>
   <trkpt lat="59.0645938341" lon="30.0254158792"><ele>95.068</ele><time>2026-04-20T17:20:21.076Z</time><hdop>4.5</hdop><vdop>3.375</vdop><extensions><gom:speed>0.102</gom:speed></extensions></trkpt>
   <trkpt lat="59.0645941274" lon="30.0254164659"><ele>94.984</ele><time>2026-04-20T17:20:22.024Z</time><hdop>4.5</hdop><vdop>3.375</vdop><extensions><gom:speed>0.082</gom:speed></extensions></trkpt>
   <trkpt lat="59.0645986537" lon="30.0254248478"><ele>94.84</ele><time>2026-04-20T17:20:23.076Z</time><hdop>4.25</hdop><vdop>3.25</vdop><extensions><gom:speed>0.098</gom:speed></extensions></trkpt>
   <trkpt lat="59.0645992404" lon="30.0254261051"><ele>94.753</ele><time>2026-04-20T17:20:24.060Z</time><hdop>4.25</hdop><vdop>3.25</vdop><extensions><gom:speed>0.07</gom:speed></extensions></trkpt>
   <trkpt lat="59.0646022579" lon="30.0254323915"><ele>94.664</ele><time>2026-04-20T17:20:25.075Z</time><hdop>4.125</hdop><vdop>3.25</vdop><extensions><gom:speed>0.083</gom:speed></extensions></trkpt>
   <trkpt lat="59.0646046467" lon="30.0254364148"><ele>94.682</ele><time>2026-04-20T17:20:26.076Z</time><hdop>4.0</hdop><vdop>3.375</vdop><extensions><gom:speed>0.115</gom:speed></extensions></trkpt>
   <trkpt lat="59.0646065327" lon="30.0254403543"><ele>94.769</ele><time>2026-04-20T17:20:27.075Z</time><hdop>4.0</hdop><vdop>3.375</vdop><extensions><gom:speed>0.078</gom:speed></extensions></trkpt>
   <trkpt lat="59.0646078318" lon="30.0254437071"><ele>94.884</ele><time>2026-04-20T17:20:28.075Z</time><hdop>4.0</hdop><vdop>3.5</vdop><extensions><gom:speed>0.076</gom:speed></extensions></trkpt>
   <trkpt lat="59.0646092568" lon="30.0254452996"><ele>94.977</ele><time>2026-04-20T17:20:29.075Z</time><hdop>3.875</hdop><vdop>3.5</vdop><extensions><gom:speed>0.084</gom:speed></extensions></trkpt>
   <trkpt lat="59.0646107236" lon="30.0254458026"><ele>95.066</ele><time>2026-04-20T17:20:30.075Z</time><hdop>3.875</hdop><vdop>3.625</vdop><extensions><gom:speed>0.116</gom:speed></extensions></trkpt>
   <trkpt lat="59.0646123162" lon="30.025446054"><ele>95.151</ele><time>2026-04-20T17:20:31.075Z</time><hdop>3.875</hdop><vdop>3.625</vdop><extensions><gom:speed>0.1</gom:speed></extensions></trkpt>
   <trkpt lat="59.0646141183" lon="30.025446976"><ele>95.191</ele><time>2026-04-20T17:20:32.075Z</time><hdop>3.875</hdop><vdop>3.625</vdop><extensions><gom:speed>0.135</gom:speed></extensions></trkpt>
   <trkpt lat="59.0646160461" lon="30.0254465569"><ele>95.206</ele><time>2026-04-20T17:20:33.076Z</time><hdop>3.75</hdop><vdop>3.625</vdop><extensions><gom:speed>0.183</gom:speed></extensions></trkpt>
   <trkpt lat="59.064618435" lon="30.0254458864"><ele>95.219</ele><time>2026-04-20T17:20:34.075Z</time><hdop>3.75</hdop><vdop>3.625</vdop><extensions><gom:speed>0.214</gom:speed></extensions></trkpt>
   <trkpt lat="59.0646203209" lon="30.0254463055"><ele>95.226</ele><time>2026-04-20T17:20:34.779Z</time><hdop>3.875</hdop><vdop>3.625</vdop><extensions><gom:speed>0.218</gom:speed></extensions></trkpt>
   <trkpt lat="59.0646224164" lon="30.025446054"><ele>95.232</ele><time>2026-04-20T17:20:35.875Z</time><hdop>3.875</hdop><vdop>3.75</vdop><extensions><gom:speed>0.254</gom:speed></extensions></trkpt>
   <trkpt lat="59.064624428" lon="30.0254476466"><ele>95.251</ele><time>2026-04-20T17:20:36.694Z</time><hdop>3.875</hdop><vdop>3.75</vdop><extensions><gom:speed>0.258</gom:speed></extensions></trkpt>
   <trkpt lat="59.064626733" lon="30.0254556094"><ele>95.272</ele><time>2026-04-20T17:20:38.075Z</time><hdop>3.875</hdop><vdop>3.125</vdop><extensions><gom:speed>0.35</gom:speed></extensions></trkpt>
   <trkpt lat="59.064629541" lon="30.025470613"><ele>95.807</ele><time>2026-04-20T17:20:39.075Z</time><hdop>3.875</hdop><vdop>2.75</vdop><extensions><gom:speed>0.61</gom:speed></extensions></trkpt>
   <trkpt lat="59.0646387192" lon="30.0254834373"><ele>95.3</ele><time>2026-04-20T17:20:40.075Z</time><hdop>3.875</hdop><vdop>2.5</vdop><extensions><gom:speed>0.818</gom:speed></extensions></trkpt>
   <trkpt lat="59.0646435388" lon="30.0254832697"><ele>94.997</ele><time>2026-04-20T17:20:40.619Z</time><hdop>3.875</hdop><vdop>2.5</vdop><extensions><gom:speed>0.866</gom:speed></extensions></trkpt>
   <trkpt lat="59.0646515435" lon="30.0254769832"><ele>94.888</ele><time>2026-04-20T17:20:41.075Z</time><hdop>3.875</hdop><vdop>2.5</vdop><extensions><gom:speed>0.869</gom:speed></extensions></trkpt>
   <trkpt lat="59.0646586262" lon="30.0254684337"><ele>94.304</ele><time>2026-04-20T17:20:42.076Z</time><hdop>3.75</hdop><vdop>2.5</vdop><extensions><gom:speed>0.852</gom:speed></extensions></trkpt>
   <trkpt lat="59.0646667566" lon="30.0254604709"><ele>94.067</ele><time>2026-04-20T17:20:43.075Z</time><hdop>3.75</hdop><vdop>2.5</vdop><extensions><gom:speed>0.826</gom:speed></extensions></trkpt>
   <trkpt lat="59.0646718277" lon="30.0254564476"><ele>93.969</ele><time>2026-04-20T17:20:44.076Z</time><hdop>3.875</hdop><vdop>2.5</vdop><extensions><gom:speed>0.651</gom:speed></extensions></trkpt>
   <trkpt lat="59.0646736298" lon="30.0254541845"><ele>93.892</ele><time>2026-04-20T17:20:45.075Z</time><hdop>3.875</hdop><vdop>2.5</vdop><extensions><gom:speed>0.457</gom:speed></extensions></trkpt>
   <trkpt lat="59.0646755576" lon="30.0254522566"><ele>93.854</ele><time>2026-04-20T17:20:46.075Z</time><hdop>4.0</hdop><vdop>2.5</vdop><extensions><gom:speed>0.349</gom:speed></extensions></trkpt>
   <trkpt lat="59.0646755576" lon="30.0254520052"><ele>93.832</ele><time>2026-04-20T17:20:46.779Z</time><hdop>4.125</hdop><vdop>2.5</vdop><extensions><gom:speed>0.31</gom:speed></extensions></trkpt>
   <trkpt lat="59.0646819279" lon="30.0254471437"><ele>93.327</ele><time>2026-04-20T17:20:48.075Z</time><hdop>4.25</hdop><vdop>2.5</vdop><extensions><gom:speed>0.307</gom:speed></extensions></trkpt>
   <trkpt lat="59.064687418" lon="30.0254458026"><ele>93.109</ele><time>2026-04-20T17:20:49.075Z</time><hdop>4.375</hdop><vdop>4.375</vdop><extensions><gom:speed>0.324</gom:speed></extensions></trkpt>
   <trkpt lat="59.0646930339" lon="30.0254461378"><ele>93.023</ele><time>2026-04-20T17:20:50.075Z</time><hdop>4.375</hdop><vdop>4.25</vdop><extensions><gom:speed>0.341</gom:speed></extensions></trkpt>
   <trkpt lat="59.0647002423" lon="30.0254461378"><ele>93.053</ele><time>2026-04-20T17:20:51.075Z</time><hdop>4.375</hdop><vdop>4.125</vdop><extensions><gom:speed>0.407</gom:speed></extensions></trkpt>
   <trkpt lat="59.0647048524" lon="30.0254458864"><ele>93.072</ele><time>2026-04-20T17:20:51.717Z</time><hdop>4.5</hdop><vdop>4.125</vdop><extensions><gom:speed>0.499</gom:speed></extensions></trkpt>
   <trkpt lat="59.0647132343" lon="30.0254461378"><ele>93.022</ele><time>2026-04-20T17:20:52.714Z</time><hdop>4.5</hdop><vdop>4.125</vdop><extensions><gom:speed>0.586</gom:speed></extensions></trkpt>
   <trkpt lat="59.0647201493" lon="30.0254484848"><ele>93.225</ele><time>2026-04-20T17:20:54.075Z</time><hdop>4.5</hdop><vdop>4.0</vdop><extensions><gom:speed>0.463</gom:speed></extensions></trkpt>
   <trkpt lat="59.0647202332" lon="30.0254504126"><ele>93.359</ele><time>2026-04-20T17:20:55.075Z</time><hdop>4.5</hdop><vdop>4.0</vdop><extensions><gom:speed>0.344</gom:speed></extensions></trkpt>
   <trkpt lat="59.0647196464" lon="30.0254515861"><ele>93.421</ele><time>2026-04-20T17:20:56.075Z</time><hdop>4.5</hdop><vdop>4.0</vdop><extensions><gom:speed>0.242</gom:speed></extensions></trkpt>
   <trkpt lat="59.0647178443" lon="30.025452089"><ele>93.444</ele><time>2026-04-20T17:20:57.075Z</time><hdop>4.375</hdop><vdop>3.875</vdop><extensions><gom:speed>0.137</gom:speed></extensions></trkpt>
   <trkpt lat="59.064717048" lon="30.025452089"><ele>93.458</ele><time>2026-04-20T17:20:57.720Z</time><hdop>4.25</hdop><vdop>3.875</vdop><extensions><gom:speed>0.117</gom:speed></extensions></trkpt>
   <trkpt lat="59.0647176348" lon="30.0254505802"><ele>93.561</ele><time>2026-04-20T17:20:59.075Z</time><hdop>4.0</hdop><vdop>3.875</vdop><extensions><gom:speed>0.134</gom:speed></extensions></trkpt>
   <trkpt lat="59.0647181377" lon="30.0254494068"><ele>93.681</ele><time>2026-04-20T17:21:00.076Z</time><hdop>3.875</hdop><vdop>3.875</vdop><extensions><gom:speed>0.122</gom:speed></extensions></trkpt>
   <trkpt lat="59.0647186406" lon="30.0254486524"><ele>93.761</ele><time>2026-04-20T17:21:01.076Z</time><hdop>3.875</hdop><vdop>3.875</vdop><extensions><gom:speed>0.14</gom:speed></extensions></trkpt>
   <trkpt lat="59.0647190178" lon="30.0254464731"><ele>93.853</ele><time>2026-04-20T17:21:02.076Z</time><hdop>3.75</hdop><vdop>3.625</vdop><extensions><gom:speed>0.172</gom:speed></extensions></trkpt>
   <trkpt lat="59.0647194369" lon="30.0254442938"><ele>93.906</ele><time>2026-04-20T17:21:03.075Z</time><hdop>3.625</hdop><vdop>3.375</vdop><extensions><gom:speed>0.168</gom:speed></extensions></trkpt>
   <trkpt lat="59.0647207361" lon="30.0254435394"><ele>93.943</ele><time>2026-04-20T17:21:04.076Z</time><hdop>3.625</hdop><vdop>3.5</vdop><extensions><gom:speed>0.183</gom:speed></extensions></trkpt>
   <trkpt lat="59.0647215324" lon="30.0254437909"><ele>93.965</ele><time>2026-04-20T17:21:04.541Z</time><hdop>3.75</hdop><vdop>3.5</vdop><extensions><gom:speed>0.193</gom:speed></extensions></trkpt>
   <trkpt lat="59.0647227477" lon="30.0254442938"><ele>93.98</ele><time>2026-04-20T17:21:05.075Z</time><hdop>3.75</hdop><vdop>3.5</vdop><extensions><gom:speed>0.207</gom:speed></extensions></trkpt>
   <trkpt lat="59.0647266453" lon="30.0254463055"><ele>93.99</ele><time>2026-04-20T17:21:06.075Z</time><hdop>3.75</hdop><vdop>3.375</vdop><extensions><gom:speed>0.273</gom:speed></extensions></trkpt>
   <trkpt lat="59.064729118" lon="30.0254479819"><ele>94.0</ele><time>2026-04-20T17:21:07.075Z</time><hdop>3.75</hdop><vdop>3.5</vdop><extensions><gom:speed>0.293</gom:speed></extensions></trkpt>
   <trkpt lat="59.0647318421" lon="30.0254473951"><ele>94.035</ele><time>2026-04-20T17:21:08.075Z</time><hdop>3.75</hdop><vdop>3.375</vdop><extensions><gom:speed>0.323</gom:speed></extensions></trkpt>
   <trkpt lat="59.0647342309" lon="30.0254455511"><ele>94.058</ele><time>2026-04-20T17:21:09.075Z</time><hdop>3.75</hdop><vdop>3.5</vdop><extensions><gom:speed>0.312</gom:speed></extensions></trkpt>
   <trkpt lat="59.0647364522" lon="30.0254432042"><ele>94.071</ele><time>2026-04-20T17:21:10.075Z</time><hdop>3.75</hdop><vdop>3.5</vdop><extensions><gom:speed>0.346</gom:speed></extensions></trkpt>
   <trkpt lat="59.0647395535" lon="30.0254428689"><ele>93.848</ele><time>2026-04-20T17:21:11.075Z</time><hdop>3.75</hdop><vdop>3.0</vdop><extensions><gom:speed>0.375</gom:speed></extensions></trkpt>
   <trkpt lat="59.0647407269" lon="30.0254449644"><ele>93.715</ele><time>2026-04-20T17:21:11.536Z</time><hdop>3.875</hdop><vdop>3.0</vdop><extensions><gom:speed>0.391</gom:speed></extensions></trkpt>
   <trkpt lat="59.064743954" lon="30.0254527595"><ele>93.686</ele><time>2026-04-20T17:21:12.075Z</time><hdop>3.875</hdop><vdop>2.75</vdop><extensions><gom:speed>0.413</gom:speed></extensions></trkpt>
   <trkpt lat="59.0647471391" lon="30.0254603871"><ele>93.424</ele><time>2026-04-20T17:21:13.075Z</time><hdop>3.875</hdop><vdop>2.5</vdop><extensions><gom:speed>0.388</gom:speed></extensions></trkpt>
   <trkpt lat="59.0647526292" lon="30.0254660029"><ele>92.435</ele><time>2026-04-20T17:21:14.075Z</time><hdop>4.0</hdop><vdop>2.5</vdop><extensions><gom:speed>0.426</gom:speed></extensions></trkpt>
   <trkpt lat="59.0647600472" lon="30.0254717865"><ele>91.781</ele><time>2026-04-20T17:21:15.075Z</time><hdop>4.0</hdop><vdop>2.5</vdop><extensions><gom:speed>0.507</gom:speed></extensions></trkpt>
   <trkpt lat="59.0647673395" lon="30.0254737143"><ele>91.39</ele><time>2026-04-20T17:21:15.980Z</time><hdop>4.125</hdop><vdop>2.5</vdop><extensions><gom:speed>0.609</gom:speed></extensions></trkpt>
   <trkpt lat="59.0647778168" lon="30.0254789111"><ele>91.505</ele><time>2026-04-20T17:21:16.918Z</time><hdop>4.125</hdop><vdop>2.5</vdop><extensions><gom:speed>0.694</gom:speed></extensions></trkpt>
   <trkpt lat="59.0647839356" lon="30.0254853651"><ele>91.502</ele><time>2026-04-20T17:21:17.694Z</time><hdop>4.25</hdop><vdop>2.5</vdop><extensions><gom:speed>0.723</gom:speed></extensions></trkpt>
   <trkpt lat="59.0647989392" lon="30.0254996144"><ele>91.577</ele><time>2026-04-20T17:21:18.881Z</time><hdop>4.5</hdop><vdop>2.5</vdop><extensions><gom:speed>0.654</gom:speed></extensions></trkpt>
   <trkpt lat="59.0648116378" lon="30.0255147018"><ele>91.839</ele><time>2026-04-20T17:21:20.075Z</time><hdop>4.625</hdop><vdop>2.5</vdop><extensions><gom:speed>0.604</gom:speed></extensions></trkpt>
   <trkpt lat="59.0648198521" lon="30.0255202339"><ele>92.021</ele><time>2026-04-20T17:21:21.075Z</time><hdop>4.75</hdop><vdop>4.625</vdop><extensions><gom:speed>0.533</gom:speed></extensions></trkpt>
   <trkpt lat="59.0648265576" lon="30.0255232513"><ele>92.163</ele><time>2026-04-20T17:21:22.075Z</time><hdop>4.75</hdop><vdop>4.625</vdop><extensions><gom:speed>0.467</gom:speed></extensions></trkpt>
   <trkpt lat="59.0648287369" lon="30.0255235866"><ele>92.164</ele><time>2026-04-20T17:21:23.025Z</time><hdop>4.75</hdop><vdop>4.375</vdop><extensions><gom:speed>0.303</gom:speed></extensions></trkpt>
   <trkpt lat="59.0648281502" lon="30.0255232513"><ele>92.165</ele><time>2026-04-20T17:21:23.972Z</time><hdop>4.75</hdop><vdop>4.375</vdop><extensions><gom:speed>0.192</gom:speed></extensions></trkpt>
   <trkpt lat="59.0648313353" lon="30.0255248439"><ele>92.091</ele><time>2026-04-20T17:21:25.076Z</time><hdop>4.875</hdop><vdop>4.625</vdop><extensions><gom:speed>0.11</gom:speed></extensions></trkpt>
   <trkpt lat="59.0648317544" lon="30.0255240057"><ele>91.979</ele><time>2026-04-20T17:21:25.986Z</time><hdop>4.875</hdop><vdop>4.625</vdop><extensions><gom:speed>0.085</gom:speed></extensions></trkpt>
   <trkpt lat="59.0648323411" lon="30.0255236704"><ele>91.918</ele><time>2026-04-20T17:21:27.051Z</time><hdop>4.875</hdop><vdop>4.625</vdop><extensions><gom:speed>0.106</gom:speed></extensions></trkpt>
   <trkpt lat="59.0648369512" lon="30.0255247601"><ele>91.954</ele><time>2026-04-20T17:21:28.075Z</time><hdop>5.0</hdop><vdop>4.625</vdop><extensions><gom:speed>0.143</gom:speed></extensions></trkpt>
   <trkpt lat="59.0648396334" lon="30.0255240057"><ele>91.976</ele><time>2026-04-20T17:21:29.041Z</time><hdop>5.0</hdop><vdop>4.625</vdop><extensions><gom:speed>0.212</gom:speed></extensions></trkpt>
   <trkpt lat="59.0648449559" lon="30.0255221617"><ele>92.121</ele><time>2026-04-20T17:21:30.075Z</time><hdop>5.0</hdop><vdop>4.375</vdop><extensions><gom:speed>0.278</gom:speed></extensions></trkpt>
   <trkpt lat="59.0648496498" lon="30.0255175516"><ele>92.347</ele><time>2026-04-20T17:21:30.960Z</time><hdop>5.0</hdop><vdop>4.5</vdop><extensions><gom:speed>0.363</gom:speed></extensions></trkpt>
   <trkpt lat="59.0648535473" lon="30.0255133607"><ele>92.482</ele><time>2026-04-20T17:21:32.001Z</time><hdop>5.0</hdop><vdop>4.5</vdop><extensions><gom:speed>0.427</gom:speed></extensions></trkpt>
   <trkpt lat="59.0648591213" lon="30.0255090021"><ele>92.657</ele><time>2026-04-20T17:21:32.974Z</time><hdop>5.0</hdop><vdop>4.75</vdop><extensions><gom:speed>0.435</gom:speed></extensions></trkpt>
   <trkpt lat="59.0648632284" lon="30.0255038891"><ele>92.761</ele><time>2026-04-20T17:21:33.957Z</time><hdop>5.0</hdop><vdop>4.75</vdop><extensions><gom:speed>0.478</gom:speed></extensions></trkpt>
   <trkpt lat="59.0648679223" lon="30.0255000335"><ele>92.834</ele><time>2026-04-20T17:21:34.961Z</time><hdop>5.0</hdop><vdop>4.875</vdop><extensions><gom:speed>0.507</gom:speed></extensions></trkpt>
   <trkpt lat="59.0648728257" lon="30.0254983571"><ele>92.892</ele><time>2026-04-20T17:21:35.919Z</time><hdop>5.125</hdop><vdop>4.875</vdop><extensions><gom:speed>0.512</gom:speed></extensions></trkpt>
   <trkpt lat="59.0648791541" lon="30.0254930765"><ele>92.943</ele><time>2026-04-20T17:21:36.936Z</time><hdop>5.25</hdop><vdop>4.875</vdop><extensions><gom:speed>0.53</gom:speed></extensions></trkpt>
   <trkpt lat="59.0648841413" lon="30.0254957587"><ele>92.987</ele><time>2026-04-20T17:21:37.794Z</time><hdop>5.375</hdop><vdop>5.0</vdop><extensions><gom:speed>0.61</gom:speed></extensions></trkpt>
   <trkpt lat="59.0648913497" lon="30.0254941661"><ele>93.037</ele><time>2026-04-20T17:21:38.840Z</time><hdop>5.5</hdop><vdop>4.75</vdop><extensions><gom:speed>0.666</gom:speed></extensions></trkpt>
   <trkpt lat="59.06489772" lon="30.0254904781"><ele>93.07</ele><time>2026-04-20T17:21:39.818Z</time><hdop>5.625</hdop><vdop>4.75</vdop><extensions><gom:speed>0.636</gom:speed></extensions></trkpt>
   <trkpt lat="59.0649037549" lon="30.0254857004"><ele>93.089</ele><time>2026-04-20T17:21:40.934Z</time><hdop>5.75</hdop><vdop>4.5</vdop><extensions><gom:speed>0.577</gom:speed></extensions></trkpt>
   <trkpt lat="59.0649085326" lon="30.0254816771"><ele>93.101</ele><time>2026-04-20T17:21:41.880Z</time><hdop>6.0</hdop><vdop>4.5</vdop><extensions><gom:speed>0.56</gom:speed></extensions></trkpt>
   <trkpt lat="59.0649100414" lon="30.0254798331"><ele>93.117</ele><time>2026-04-20T17:21:42.451Z</time><hdop>6.125</hdop><vdop>4.5</vdop><extensions><gom:speed>0.568</gom:speed></extensions></trkpt>
   <trkpt lat="59.0649160344" lon="30.0254765641"><ele>93.126</ele><time>2026-04-20T17:21:42.937Z</time><hdop>6.25</hdop><vdop>4.5</vdop><extensions><gom:speed>0.577</gom:speed></extensions></trkpt>
   <trkpt lat="59.0649204349" lon="30.0254760612"><ele>93.137</ele><time>2026-04-20T17:21:43.874Z</time><hdop>6.5</hdop><vdop>4.375</vdop><extensions><gom:speed>0.589</gom:speed></extensions></trkpt>
   <trkpt lat="59.0649268471" lon="30.025476648"><ele>93.157</ele><time>2026-04-20T17:21:45.060Z</time><hdop>6.75</hdop><vdop>4.25</vdop><extensions><gom:speed>0.621</gom:speed></extensions></trkpt>
   <trkpt lat="59.0649321277" lon="30.0254765641"><ele>93.193</ele><time>2026-04-20T17:21:46.004Z</time><hdop>6.875</hdop><vdop>4.25</vdop><extensions><gom:speed>0.583</gom:speed></extensions></trkpt>
   <trkpt lat="59.0649322534" lon="30.0254829344"><ele>93.769</ele><time>2026-04-20T17:21:47.075Z</time><hdop>7.0</hdop><vdop>3.5</vdop><extensions><gom:speed>0.528</gom:speed></extensions></trkpt>
   <trkpt lat="59.0649336364" lon="30.025483102"><ele>94.113</ele><time>2026-04-20T17:21:47.883Z</time><hdop>7.0</hdop><vdop>3.5</vdop><extensions><gom:speed>0.567</gom:speed></extensions></trkpt>
   <trkpt lat="59.0649350194" lon="30.0254864548"><ele>94.782</ele><time>2026-04-20T17:21:48.609Z</time><hdop>6.75</hdop><vdop>2.75</vdop><extensions><gom:speed>0.585</gom:speed></extensions></trkpt>
   <trkpt lat="59.0649410544" lon="30.0254848622"><ele>95.333</ele><time>2026-04-20T17:21:49.075Z</time><hdop>6.625</hdop><vdop>2.625</vdop><extensions><gom:speed>0.613</gom:speed></extensions></trkpt>
   <trkpt lat="59.06494864" lon="30.0254828506"><ele>95.982</ele><time>2026-04-20T17:21:50.075Z</time><hdop>6.375</hdop><vdop>2.5</vdop><extensions><gom:speed>0.553</gom:speed></extensions></trkpt>
   <trkpt lat="59.0649578182" lon="30.025478492"><ele>96.34</ele><time>2026-04-20T17:21:51.075Z</time><hdop>6.125</hdop><vdop>2.5</vdop><extensions><gom:speed>0.587</gom:speed></extensions></trkpt>
   <trkpt lat="59.0649682537" lon="30.0254749716"><ele>96.601</ele><time>2026-04-20T17:21:52.075Z</time><hdop>5.625</hdop><vdop>2.5</vdop><extensions><gom:speed>0.605</gom:speed></extensions></trkpt>
   <trkpt lat="59.0649788568" lon="30.0254730437"><ele>96.701</ele><time>2026-04-20T17:21:53.075Z</time><hdop>5.25</hdop><vdop>2.5</vdop><extensions><gom:speed>0.593</gom:speed></extensions></trkpt>
   <trkpt lat="59.0649827544" lon="30.025471535"><ele>96.76</ele><time>2026-04-20T17:21:53.538Z</time><hdop>5.125</hdop><vdop>2.5</vdop><extensions><gom:speed>0.59</gom:speed></extensions></trkpt>
   <trkpt lat="59.0649897533" lon="30.0254701101"><ele>96.935</ele><time>2026-04-20T17:21:54.075Z</time><hdop>5.0</hdop><vdop>2.5</vdop><extensions><gom:speed>0.641</gom:speed></extensions></trkpt>
   <trkpt lat="59.0649929384" lon="30.025469691"><ele>97.039</ele><time>2026-04-20T17:21:54.768Z</time><hdop>4.875</hdop><vdop>2.5</vdop><extensions><gom:speed>0.644</gom:speed></extensions></trkpt>
   <trkpt lat="59.0650118396" lon="30.0254714512"><ele>96.818</ele><time>2026-04-20T17:21:56.075Z</time><hdop>4.875</hdop><vdop>5.375</vdop><extensions><gom:speed>0.569</gom:speed></extensions></trkpt>
   <trkpt lat="59.0650229456" lon="30.0254800845"><ele>96.601</ele><time>2026-04-20T17:21:57.075Z</time><hdop>4.875</hdop><vdop>5.125</vdop><extensions><gom:speed>0.649</gom:speed></extensions></trkpt>
   <trkpt lat="59.0650298188" lon="30.0254950043"><ele>96.471</ele><time>2026-04-20T17:21:57.980Z</time><hdop>4.875</hdop><vdop>5.125</vdop><extensions><gom:speed>0.855</gom:speed></extensions></trkpt>
   <trkpt lat="59.065039919" lon="30.0255105947"><ele>96.216</ele><time>2026-04-20T17:21:59.033Z</time><hdop>4.875</hdop><vdop>4.625</vdop><extensions><gom:speed>0.854</gom:speed></extensions></trkpt>
   <trkpt lat="59.0650478399" lon="30.0255178031"><ele>96.092</ele><time>2026-04-20T17:22:00.075Z</time><hdop>4.875</hdop><vdop>4.5</vdop><extensions><gom:speed>0.65</gom:speed></extensions></trkpt>
   <trkpt lat="59.0650505221" lon="30.0255175516"><ele>95.919</ele><time>2026-04-20T17:22:01.046Z</time><hdop>4.875</hdop><vdop>4.5</vdop><extensions><gom:speed>0.436</gom:speed></extensions></trkpt>
   <trkpt lat="59.0650520308" lon="30.0255157915"><ele>95.825</ele><time>2026-04-20T17:22:02.075Z</time><hdop>4.75</hdop><vdop>4.5</vdop><extensions><gom:speed>0.261</gom:speed></extensions></trkpt>
   <trkpt lat="59.0650516536" lon="30.0255142827"><ele>95.768</ele><time>2026-04-20T17:22:02.978Z</time><hdop>4.75</hdop><vdop>4.5</vdop><extensions><gom:speed>0.185</gom:speed></extensions></trkpt>
   <trkpt lat="59.0650511507" lon="30.0255116843"><ele>95.786</ele><time>2026-04-20T17:22:04.021Z</time><hdop>4.75</hdop><vdop>4.25</vdop><extensions><gom:speed>0.147</gom:speed></extensions></trkpt>
   <trkpt lat="59.0650505221" lon="30.0255107623"><ele>95.818</ele><time>2026-04-20T17:22:04.702Z</time><hdop>4.625</hdop><vdop>4.125</vdop><extensions><gom:speed>0.097</gom:speed></extensions></trkpt>
   <trkpt lat="59.0650529528" lon="30.0255110138"><ele>95.831</ele><time>2026-04-20T17:22:05.195Z</time><hdop>4.5</hdop><vdop>4.0</vdop><extensions><gom:speed>0.129</gom:speed></extensions></trkpt>
   <trkpt lat="59.0650562218" lon="30.0255117681"><ele>95.815</ele><time>2026-04-20T17:22:06.075Z</time><hdop>4.5</hdop><vdop>4.0</vdop><extensions><gom:speed>0.159</gom:speed></extensions></trkpt>
   <trkpt lat="59.0650602451" lon="30.0255141989"><ele>95.81</ele><time>2026-04-20T17:22:07.075Z</time><hdop>4.375</hdop><vdop>4.0</vdop><extensions><gom:speed>0.163</gom:speed></extensions></trkpt>
   <trkpt lat="59.0650633464" lon="30.0255168811"><ele>95.843</ele><time>2026-04-20T17:22:08.075Z</time><hdop>4.25</hdop><vdop>3.875</vdop><extensions><gom:speed>0.132</gom:speed></extensions></trkpt>
   <trkpt lat="59.0650646456" lon="30.0255191442"><ele>95.832</ele><time>2026-04-20T17:22:09.075Z</time><hdop>4.25</hdop><vdop>3.75</vdop><extensions><gom:speed>0.112</gom:speed></extensions></trkpt>
   <trkpt lat="59.0650668249" lon="30.0255198986"><ele>95.832</ele><time>2026-04-20T17:22:10.075Z</time><hdop>4.25</hdop><vdop>3.875</vdop><extensions><gom:speed>0.147</gom:speed></extensions></trkpt>
   <trkpt lat="59.0650688365" lon="30.0255188089"><ele>95.833</ele><time>2026-04-20T17:22:10.979Z</time><hdop>4.125</hdop><vdop>3.875</vdop><extensions><gom:speed>0.187</gom:speed></extensions></trkpt>
   <trkpt lat="59.0650723569" lon="30.025517384"><ele>95.86</ele><time>2026-04-20T17:22:11.898Z</time><hdop>4.125</hdop><vdop>3.875</vdop><extensions><gom:speed>0.275</gom:speed></extensions></trkpt>
   <trkpt lat="59.0650742428" lon="30.0255167135"><ele>95.877</ele><time>2026-04-20T17:22:12.460Z</time><hdop>4.125</hdop><vdop>3.75</vdop><extensions><gom:speed>0.258</gom:speed></extensions></trkpt>
   <trkpt lat="59.0650749553" lon="30.0255153724"><ele>95.887</ele><time>2026-04-20T17:22:12.953Z</time><hdop>4.25</hdop><vdop>3.75</vdop><extensions><gom:speed>0.274</gom:speed></extensions></trkpt>
   <trkpt lat="59.0650777213" lon="30.0255131092"><ele>95.926</ele><time>2026-04-20T17:22:14.075Z</time><hdop>4.25</hdop><vdop>3.75</vdop><extensions><gom:speed>0.282</gom:speed></extensions></trkpt>
   <trkpt lat="59.0650784338" lon="30.0255116005"><ele>95.948</ele><time>2026-04-20T17:22:15.075Z</time><hdop>4.25</hdop><vdop>3.75</vdop><extensions><gom:speed>0.236</gom:speed></extensions></trkpt>
   <trkpt lat="59.0650795234" lon="30.0255112652"><ele>95.962</ele><time>2026-04-20T17:22:16.075Z</time><hdop>4.25</hdop><vdop>3.875</vdop><extensions><gom:speed>0.227</gom:speed></extensions></trkpt>
   <trkpt lat="59.0650813256" lon="30.0255110976"><ele>95.973</ele><time>2026-04-20T17:22:17.075Z</time><hdop>4.25</hdop><vdop>3.875</vdop><extensions><gom:speed>0.249</gom:speed></extensions></trkpt>
   <trkpt lat="59.0650827505" lon="30.0255107623"><ele>95.979</ele><time>2026-04-20T17:22:17.702Z</time><hdop>4.25</hdop><vdop>3.875</vdop><extensions><gom:speed>0.27</gom:speed></extensions></trkpt>
   <trkpt lat="59.0650844269" lon="30.0255111814"><ele>95.984</ele><time>2026-04-20T17:22:18.817Z</time><hdop>4.25</hdop><vdop>3.75</vdop><extensions><gom:speed>0.259</gom:speed></extensions></trkpt>
   <trkpt lat="59.0650841335" lon="30.0255107623"><ele>95.989</ele><time>2026-04-20T17:22:19.643Z</time><hdop>4.25</hdop><vdop>3.75</vdop><extensions><gom:speed>0.243</gom:speed></extensions></trkpt>
   <trkpt lat="59.0650840497" lon="30.0255091697"><ele>95.999</ele><time>2026-04-20T17:22:21.076Z</time><hdop>4.125</hdop><vdop>3.75</vdop><extensions><gom:speed>0.237</gom:speed></extensions></trkpt>
   <trkpt lat="59.0650853489" lon="30.0255097565"><ele>96.004</ele><time>2026-04-20T17:22:21.778Z</time><hdop>4.125</hdop><vdop>3.75</vdop><extensions><gom:speed>0.242</gom:speed></extensions></trkpt>
   <trkpt lat="59.0650867319" lon="30.0255137798"><ele>96.02</ele><time>2026-04-20T17:22:23.076Z</time><hdop>4.125</hdop><vdop>3.75</vdop><extensions><gom:speed>0.19</gom:speed></extensions></trkpt>
   <trkpt lat="59.0650868576" lon="30.0255157915"><ele>96.044</ele><time>2026-04-20T17:22:24.075Z</time><hdop>4.0</hdop><vdop>3.625</vdop><extensions><gom:speed>0.163</gom:speed></extensions></trkpt>
   <trkpt lat="59.0650878215" lon="30.0255178031"><ele>95.875</ele><time>2026-04-20T17:22:25.075Z</time><hdop>4.0</hdop><vdop>3.125</vdop><extensions><gom:speed>0.176</gom:speed></extensions></trkpt>
   <trkpt lat="59.0650890369" lon="30.0255175516"><ele>95.775</ele><time>2026-04-20T17:22:25.803Z</time><hdop>4.0</hdop><vdop>3.125</vdop><extensions><gom:speed>0.204</gom:speed></extensions></trkpt>
   <trkpt lat="59.0650932279" lon="30.025521072"><ele>95.301</ele><time>2026-04-20T17:22:26.635Z</time><hdop>4.0</hdop><vdop>2.625</vdop><extensions><gom:speed>0.274</gom:speed></extensions></trkpt>
   <trkpt lat="59.0650986342" lon="30.0255283643"><ele>95.2</ele><time>2026-04-20T17:22:27.621Z</time><hdop>4.0</hdop><vdop>3.625</vdop><extensions><gom:speed>0.348</gom:speed></extensions></trkpt>
   <trkpt lat="59.0651026575" lon="30.0255345669"><ele>94.959</ele><time>2026-04-20T17:22:28.075Z</time><hdop>4.0</hdop><vdop>3.75</vdop><extensions><gom:speed>0.366</gom:speed></extensions></trkpt>
   <trkpt lat="59.0651124224" lon="30.0255473912"><ele>94.037</ele><time>2026-04-20T17:22:29.075Z</time><hdop>4.125</hdop><vdop>3.25</vdop><extensions><gom:speed>0.505</gom:speed></extensions></trkpt>
   <trkpt lat="59.0651236542" lon="30.0255599641"><ele>93.316</ele><time>2026-04-20T17:22:30.075Z</time><hdop>4.25</hdop><vdop>3.125</vdop><extensions><gom:speed>0.584</gom:speed></extensions></trkpt>
   <trkpt lat="59.0651323294" lon="30.025569268"><ele>92.815</ele><time>2026-04-20T17:22:31.075Z</time><hdop>4.375</hdop><vdop>4.0</vdop><extensions><gom:speed>0.489</gom:speed></extensions></trkpt>
   <trkpt lat="59.0651332514" lon="30.0255702738"><ele>92.516</ele><time>2026-04-20T17:22:31.961Z</time><hdop>4.375</hdop><vdop>4.0</vdop><extensions><gom:speed>0.413</gom:speed></extensions></trkpt>
   <trkpt lat="59.0651394541" lon="30.025579913"><ele>92.739</ele><time>2026-04-20T17:22:33.028Z</time><hdop>4.5</hdop><vdop>4.375</vdop><extensions><gom:speed>0.226</gom:speed></extensions></trkpt>
   <trkpt lat="59.0651410466" lon="30.0255864509"><ele>92.929</ele><time>2026-04-20T17:22:34.075Z</time><hdop>4.625</hdop><vdop>4.5</vdop><extensions><gom:speed>0.144</gom:speed></extensions></trkpt>
   <trkpt lat="59.0651401246" lon="30.0255890493"><ele>93.023</ele><time>2026-04-20T17:22:35.041Z</time><hdop>4.625</hdop><vdop>4.75</vdop><extensions><gom:speed>0.076</gom:speed></extensions></trkpt>
   <trkpt lat="59.0651402503" lon="30.0255903904"><ele>93.128</ele><time>2026-04-20T17:22:35.990Z</time><hdop>4.75</hdop><vdop>4.875</vdop><extensions><gom:speed>0.064</gom:speed></extensions></trkpt>
   <trkpt lat="59.0651412562" lon="30.0255909771"><ele>93.175</ele><time>2026-04-20T17:22:37.056Z</time><hdop>4.875</hdop><vdop>4.625</vdop><extensions><gom:speed>0.106</gom:speed></extensions></trkpt>
   <trkpt lat="59.0651448185" lon="30.0255958386"><ele>93.225</ele><time>2026-04-20T17:22:38.075Z</time><hdop>4.875</hdop><vdop>4.75</vdop><extensions><gom:speed>0.071</gom:speed></extensions></trkpt>
   <trkpt lat="59.0651465368" lon="30.0255986047"><ele>93.327</ele><time>2026-04-20T17:22:39.068Z</time><hdop>4.875</hdop><vdop>4.625</vdop><extensions><gom:speed>0.072</gom:speed></extensions></trkpt>
   <trkpt lat="59.0651467463" lon="30.0255982694"><ele>93.368</ele><time>2026-04-20T17:22:40.016Z</time><hdop>4.875</hdop><vdop>4.75</vdop><extensions><gom:speed>0.068</gom:speed></extensions></trkpt>
   <trkpt lat="59.0651504343" lon="30.0256015383"><ele>93.542</ele><time>2026-04-20T17:22:41.076Z</time><hdop>5.0</hdop><vdop>4.625</vdop><extensions><gom:speed>0.11</gom:speed></extensions></trkpt>
   <trkpt lat="59.0651527394" lon="30.0256029632"><ele>93.7</ele><time>2026-04-20T17:22:42.030Z</time><hdop>5.0</hdop><vdop>4.5</vdop><extensions><gom:speed>0.098</gom:speed></extensions></trkpt>
   <trkpt lat="59.0651537452" lon="30.0256027118"><ele>93.794</ele><time>2026-04-20T17:22:43.059Z</time><hdop>5.125</hdop><vdop>4.5</vdop><extensions><gom:speed>0.129</gom:speed></extensions></trkpt>
   <trkpt lat="59.0651543319" lon="30.0256022927"><ele>93.914</ele><time>2026-04-20T17:22:44.017Z</time><hdop>5.25</hdop><vdop>4.5</vdop><extensions><gom:speed>0.174</gom:speed></extensions></trkpt>
   <trkpt lat="59.0651560502" lon="30.0255992752"><ele>93.992</ele><time>2026-04-20T17:22:44.991Z</time><hdop>5.375</hdop><vdop>4.625</vdop><extensions><gom:speed>0.193</gom:speed></extensions></trkpt>
   <trkpt lat="59.0651583552" lon="30.025595671"><ele>94.039</ele><time>2026-04-20T17:22:45.980Z</time><hdop>5.5</hdop><vdop>4.625</vdop><extensions><gom:speed>0.293</gom:speed></extensions></trkpt>
   <trkpt lat="59.0651623367" lon="30.0255920668"><ele>94.067</ele><time>2026-04-20T17:22:46.997Z</time><hdop>5.75</hdop><vdop>4.625</vdop><extensions><gom:speed>0.371</gom:speed></extensions></trkpt>
   <trkpt lat="59.0651684554" lon="30.0255950004"><ele>94.11</ele><time>2026-04-20T17:22:47.955Z</time><hdop>5.875</hdop><vdop>4.625</vdop><extensions><gom:speed>0.367</gom:speed></extensions></trkpt>
   <trkpt lat="59.0651750352" lon="30.0255991914"><ele>94.162</ele><time>2026-04-20T17:22:48.833Z</time><hdop>5.75</hdop><vdop>4.5</vdop><extensions><gom:speed>0.452</gom:speed></extensions></trkpt>
   <trkpt lat="59.0651815312" lon="30.0256059807"><ele>94.197</ele><time>2026-04-20T17:22:49.742Z</time><hdop>5.75</hdop><vdop>4.5</vdop><extensions><gom:speed>0.566</gom:speed></extensions></trkpt>
   <trkpt lat="59.0651848421" lon="30.0256126863"><ele>94.219</ele><time>2026-04-20T17:22:50.558Z</time><hdop>5.625</hdop><vdop>4.5</vdop><extensions><gom:speed>0.596</gom:speed></extensions></trkpt>
   <trkpt lat="59.0651898293" lon="30.0256209005"><ele>94.236</ele><time>2026-04-20T17:22:51.076Z</time><hdop>5.5</hdop><vdop>4.375</vdop><extensions><gom:speed>0.611</gom:speed></extensions></trkpt>
   <trkpt lat="59.0651921343" lon="30.0256252591"><ele>94.247</ele><time>2026-04-20T17:22:51.580Z</time><hdop>5.375</hdop><vdop>4.375</vdop><extensions><gom:speed>0.647</gom:speed></extensions></trkpt>
   <trkpt lat="59.0651946489" lon="30.0256328028"><ele>93.972</ele><time>2026-04-20T17:22:52.075Z</time><hdop>5.25</hdop><vdop>4.375</vdop><extensions><gom:speed>0.687</gom:speed></extensions></trkpt>
   <trkpt lat="59.0651971215" lon="30.0256377481"><ele>93.808</ele><time>2026-04-20T17:22:52.555Z</time><hdop>5.125</hdop><vdop>4.375</vdop><extensions><gom:speed>0.673</gom:speed></extensions></trkpt>
   <trkpt lat="59.0652004324" lon="30.0256436993"><ele>94.492</ele><time>2026-04-20T17:22:53.076Z</time><hdop>5.0</hdop><vdop>3.5</vdop><extensions><gom:speed>0.655</gom:speed></extensions></trkpt>
   <trkpt lat="59.0652041204" lon="30.0256468006"><ele>94.901</ele><time>2026-04-20T17:22:53.642Z</time><hdop>5.0</hdop><vdop>3.5</vdop><extensions><gom:speed>0.675</gom:speed></extensions></trkpt>
   <trkpt lat="59.0652106164" lon="30.0256516621"><ele>95.088</ele><time>2026-04-20T17:22:54.420Z</time><hdop>4.875</hdop><vdop>3.125</vdop><extensions><gom:speed>0.711</gom:speed></extensions></trkpt>
   <trkpt lat="59.0652162323" lon="30.0256553501"><ele>96.07</ele><time>2026-04-20T17:22:55.075Z</time><hdop>4.75</hdop><vdop>3.125</vdop><extensions><gom:speed>0.7</gom:speed></extensions></trkpt>
   <trkpt lat="59.0652236503" lon="30.0256578647"><ele>96.904</ele><time>2026-04-20T17:22:56.075Z</time><hdop>4.625</hdop><vdop>2.625</vdop><extensions><gom:speed>0.63</gom:speed></extensions></trkpt>
   <trkpt lat="59.0652259553" lon="30.0256551825"><ele>97.402</ele><time>2026-04-20T17:22:56.602Z</time><hdop>4.625</hdop><vdop>2.625</vdop><extensions><gom:speed>0.563</gom:speed></extensions></trkpt>
   <trkpt lat="59.0652305234" lon="30.0256514945"><ele>97.771</ele><time>2026-04-20T17:22:57.075Z</time><hdop>4.5</hdop><vdop>2.5</vdop><extensions><gom:speed>0.565</gom:speed></extensions></trkpt>
   <trkpt lat="59.0652320322" lon="30.0256473035"><ele>97.991</ele><time>2026-04-20T17:22:57.757Z</time><hdop>4.5</hdop><vdop>2.5</vdop><extensions><gom:speed>0.548</gom:speed></extensions></trkpt>
   <trkpt lat="59.0652380252" lon="30.0256414362"><ele>98.301</ele><time>2026-04-20T17:22:58.734Z</time><hdop>4.5</hdop><vdop>2.5</vdop><extensions><gom:speed>0.577</gom:speed></extensions></trkpt>
   <trkpt lat="59.0652489217" lon="30.0256354012"><ele>99.03</ele><time>2026-04-20T17:23:00.075Z</time><hdop>4.375</hdop><vdop>2.5</vdop><extensions><gom:speed>0.504</gom:speed></extensions></trkpt>
   <trkpt lat="59.0652537413" lon="30.0256331381"><ele>99.466</ele><time>2026-04-20T17:23:01.074Z</time><hdop>4.375</hdop><vdop>2.5</vdop><extensions><gom:speed>0.464</gom:speed></extensions></trkpt>
   <trkpt lat="59.0652612431" lon="30.0256331381"><ele>99.917</ele><time>2026-04-20T17:23:02.041Z</time><hdop>4.375</hdop><vdop>2.5</vdop><extensions><gom:speed>0.48</gom:speed></extensions></trkpt>
   <trkpt lat="59.0652653502" lon="30.025634563"><ele>100.219</ele><time>2026-04-20T17:23:02.878Z</time><hdop>4.375</hdop><vdop>2.5</vdop><extensions><gom:speed>0.506</gom:speed></extensions></trkpt>
   <trkpt lat="59.0652786356" lon="30.0256398436"><ele>100.338</ele><time>2026-04-20T17:23:04.075Z</time><hdop>4.25</hdop><vdop>2.5</vdop><extensions><gom:speed>0.466</gom:speed></extensions></trkpt>
   <trkpt lat="59.0652856344" lon="30.0256386702"><ele>100.353</ele><time>2026-04-20T17:23:05.075Z</time><hdop>4.25</hdop><vdop>2.5</vdop><extensions><gom:speed>0.445</gom:speed></extensions></trkpt>
   <trkpt lat="59.0652926333" lon="30.0256352336"><ele>100.183</ele><time>2026-04-20T17:23:06.076Z</time><hdop>4.25</hdop><vdop>2.5</vdop><extensions><gom:speed>0.464</gom:speed></extensions></trkpt>
   <trkpt lat="59.0653001351" lon="30.0256325514"><ele>100.032</ele><time>2026-04-20T17:23:07.075Z</time><hdop>4.25</hdop><vdop>2.5</vdop><extensions><gom:speed>0.442</gom:speed></extensions></trkpt>
   <trkpt lat="59.0653083494" lon="30.0256297015"><ele>100.123</ele><time>2026-04-20T17:23:08.075Z</time><hdop>4.375</hdop><vdop>2.5</vdop><extensions><gom:speed>0.485</gom:speed></extensions></trkpt>
   <trkpt lat="59.0653153483" lon="30.0256274384"><ele>100.177</ele><time>2026-04-20T17:23:09.000Z</time><hdop>4.375</hdop><vdop>2.5</vdop><extensions><gom:speed>0.546</gom:speed></extensions></trkpt>
   <trkpt lat="59.0653241493" lon="30.0256286957"><ele>100.272</ele><time>2026-04-20T17:23:10.076Z</time><hdop>4.5</hdop><vdop>2.5</vdop><extensions><gom:speed>0.569</gom:speed></extensions></trkpt>
   <trkpt lat="59.0653331179" lon="30.0256348145"><ele>100.237</ele><time>2026-04-20T17:23:11.075Z</time><hdop>4.5</hdop><vdop>2.5</vdop><extensions><gom:speed>0.527</gom:speed></extensions></trkpt>
   <trkpt lat="59.065340033" lon="30.0256395922"><ele>100.216</ele><time>2026-04-20T17:23:12.059Z</time><hdop>4.5</hdop><vdop>2.5</vdop><extensions><gom:speed>0.574</gom:speed></extensions></trkpt>
   <trkpt lat="59.0653503427" lon="30.0256457109"><ele>99.405</ele><time>2026-04-20T17:23:13.075Z</time><hdop>4.5</hdop><vdop>2.5</vdop><extensions><gom:speed>0.583</gom:speed></extensions></trkpt>
   <trkpt lat="59.0653581379" lon="30.0256497343"><ele>99.25</ele><time>2026-04-20T17:23:14.075Z</time><hdop>4.5</hdop><vdop>5.125</vdop><extensions><gom:speed>0.525</gom:speed></extensions></trkpt>
   <trkpt lat="59.0653665198" lon="30.025652165"><ele>99.269</ele><time>2026-04-20T17:23:15.075Z</time><hdop>4.5</hdop><vdop>5.125</vdop><extensions><gom:speed>0.529</gom:speed></extensions></trkpt>
   <trkpt lat="59.0653753208" lon="30.0256515783"><ele>99.451</ele><time>2026-04-20T17:23:16.076Z</time><hdop>4.5</hdop><vdop>5.125</vdop><extensions><gom:speed>0.515</gom:speed></extensions></trkpt>
   <trkpt lat="59.06538035" lon="30.0256502372"><ele>99.69</ele><time>2026-04-20T17:23:16.972Z</time><hdop>4.625</hdop><vdop>5.25</vdop><extensions><gom:speed>0.48</gom:speed></extensions></trkpt>
   <trkpt lat="59.0653829483" lon="30.0256522488"><ele>99.832</ele><time>2026-04-20T17:23:17.736Z</time><hdop>4.625</hdop><vdop>5.25</vdop><extensions><gom:speed>0.441</gom:speed></extensions></trkpt>
   <trkpt lat="59.0653887319" lon="30.0256602116"><ele>100.124</ele><time>2026-04-20T17:23:18.987Z</time><hdop>4.75</hdop><vdop>5.0</vdop><extensions><gom:speed>0.373</gom:speed></extensions></trkpt>
   <trkpt lat="59.0653923361" lon="30.0256629777"><ele>100.298</ele><time>2026-04-20T17:23:20.094Z</time><hdop>5.0</hdop><vdop>5.0</vdop><extensions><gom:speed>0.387</gom:speed></extensions></trkpt>
   <trkpt lat="59.0653978262" lon="30.0256608822"><ele>100.446</ele><time>2026-04-20T17:23:20.999Z</time><hdop>5.125</hdop><vdop>4.75</vdop><extensions><gom:speed>0.361</gom:speed></extensions></trkpt>
   <trkpt lat="59.0653992511" lon="30.0256602955"><ele>100.534</ele><time>2026-04-20T17:23:21.473Z</time><hdop>5.25</hdop><vdop>4.75</vdop><extensions><gom:speed>0.371</gom:speed></extensions></trkpt>
   <trkpt lat="59.0654059567" lon="30.0256578647"><ele>100.582</ele><time>2026-04-20T17:23:22.075Z</time><hdop>5.25</hdop><vdop>4.75</vdop><extensions><gom:speed>0.378</gom:speed></extensions></trkpt>
   <trkpt lat="59.0654092256" lon="30.0256568589"><ele>100.554</ele><time>2026-04-20T17:23:23.013Z</time><hdop>5.375</hdop><vdop>4.5</vdop><extensions><gom:speed>0.357</gom:speed></extensions></trkpt>
   <trkpt lat="59.0654113211" lon="30.0256580323"><ele>100.538</ele><time>2026-04-20T17:23:23.579Z</time><hdop>5.375</hdop><vdop>4.5</vdop><extensions><gom:speed>0.389</gom:speed></extensions></trkpt>
   <trkpt lat="59.0654145481" lon="30.0256602116"><ele>100.535</ele><time>2026-04-20T17:23:24.076Z</time><hdop>5.375</hdop><vdop>4.125</vdop><extensions><gom:speed>0.384</gom:speed></extensions></trkpt>
   <trkpt lat="59.0654166436" lon="30.0256623909"><ele>100.533</ele><time>2026-04-20T17:23:24.844Z</time><hdop>5.5</hdop><vdop>4.125</vdop><extensions><gom:speed>0.322</gom:speed></extensions></trkpt>
   <trkpt lat="59.0654196192" lon="30.0256685935"><ele>100.479</ele><time>2026-04-20T17:23:25.819Z</time><hdop>5.375</hdop><vdop>4.0</vdop><extensions><gom:speed>0.377</gom:speed></extensions></trkpt>
   <trkpt lat="59.0654219242" lon="30.0256781489"><ele>100.309</ele><time>2026-04-20T17:23:26.876Z</time><hdop>5.375</hdop><vdop>4.125</vdop><extensions><gom:speed>0.544</gom:speed></extensions></trkpt>
   <trkpt lat="59.0654248579" lon="30.0256833457"><ele>100.233</ele><time>2026-04-20T17:23:27.632Z</time><hdop>5.375</hdop><vdop>4.375</vdop><extensions><gom:speed>0.599</gom:speed></extensions></trkpt>
   <trkpt lat="59.0654347485" lon="30.0257041328"><ele>100.155</ele><time>2026-04-20T17:23:28.634Z</time><hdop>5.25</hdop><vdop>4.625</vdop><extensions><gom:speed>0.844</gom:speed></extensions></trkpt>
   <trkpt lat="59.0654439267" lon="30.0257189688"><ele>100.055</ele><time>2026-04-20T17:23:30.001Z</time><hdop>5.25</hdop><vdop>4.375</vdop><extensions><gom:speed>0.749</gom:speed></extensions></trkpt>
   <trkpt lat="59.0654494168" lon="30.0257242494"><ele>100.016</ele><time>2026-04-20T17:23:30.950Z</time><hdop>5.375</hdop><vdop>4.5</vdop><extensions><gom:speed>0.642</gom:speed></extensions></trkpt>
   <trkpt lat="59.0654536497" lon="30.0257236626"><ele>99.99</ele><time>2026-04-20T17:23:32.015Z</time><hdop>5.5</hdop><vdop>4.375</vdop><extensions><gom:speed>0.538</gom:speed></extensions></trkpt>
   <trkpt lat="59.0654573377" lon="30.0257214834"><ele>99.991</ele><time>2026-04-20T17:23:32.963Z</time><hdop>5.625</hdop><vdop>4.25</vdop><extensions><gom:speed>0.511</gom:speed></extensions></trkpt>
   <trkpt lat="59.0654589303" lon="30.025721651"><ele>99.991</ele><time>2026-04-20T17:23:33.792Z</time><hdop>5.75</hdop><vdop>4.25</vdop><extensions><gom:speed>0.475</gom:speed></extensions></trkpt>
   <trkpt lat="59.065459056" lon="30.0257211481"><ele>99.278</ele><time>2026-04-20T17:23:34.260Z</time><hdop>5.625</hdop><vdop>3.375</vdop><extensions><gom:speed>0.441</gom:speed></extensions></trkpt>
   <trkpt lat="59.0654602295" lon="30.0257247523"><ele>98.46</ele><time>2026-04-20T17:23:35.075Z</time><hdop>5.625</hdop><vdop>2.875</vdop><extensions><gom:speed>0.471</gom:speed></extensions></trkpt>
   <trkpt lat="59.0654624507" lon="30.025731374"><ele>98.242</ele><time>2026-04-20T17:23:36.075Z</time><hdop>5.5</hdop><vdop>2.5</vdop><extensions><gom:speed>0.478</gom:speed></extensions></trkpt>
   <trkpt lat="59.0654661387" lon="30.0257403426"><ele>98.306</ele><time>2026-04-20T17:23:37.076Z</time><hdop>5.5</hdop><vdop>2.5</vdop><extensions><gom:speed>0.473</gom:speed></extensions></trkpt>
   <trkpt lat="59.0654701201" lon="30.0257460423"><ele>98.649</ele><time>2026-04-20T17:23:38.075Z</time><hdop>5.25</hdop><vdop>2.5</vdop><extensions><gom:speed>0.375</gom:speed></extensions></trkpt>
   <trkpt lat="59.0654737244" lon="30.0257493113"><ele>99.352</ele><time>2026-04-20T17:23:39.075Z</time><hdop>5.0</hdop><vdop>2.5</vdop><extensions><gom:speed>0.297</gom:speed></extensions></trkpt>
   <trkpt lat="59.0654767418" lon="30.0257545919"><ele>99.951</ele><time>2026-04-20T17:23:40.075Z</time><hdop>4.875</hdop><vdop>4.875</vdop><extensions><gom:speed>0.235</gom:speed></extensions></trkpt>
   <trkpt lat="59.0654796336" lon="30.0257618003"><ele>100.374</ele><time>2026-04-20T17:23:41.075Z</time><hdop>4.625</hdop><vdop>5.0</vdop><extensions><gom:speed>0.162</gom:speed></extensions></trkpt>
   <trkpt lat="59.065482232" lon="30.0257671647"><ele>100.664</ele><time>2026-04-20T17:23:42.075Z</time><hdop>4.5</hdop><vdop>5.0</vdop><extensions><gom:speed>0.097</gom:speed></extensions></trkpt>
   <trkpt lat="59.065483154" lon="30.0257688411"><ele>101.029</ele><time>2026-04-20T17:23:43.032Z</time><hdop>4.375</hdop><vdop>5.0</vdop><extensions><gom:speed>0.073</gom:speed></extensions></trkpt>
   <trkpt lat="59.0654833216" lon="30.0257695955"><ele>101.247</ele><time>2026-04-20T17:23:43.962Z</time><hdop>4.375</hdop><vdop>5.0</vdop><extensions><gom:speed>0.077</gom:speed></extensions></trkpt>
   <trkpt lat="59.0654858362" lon="30.0257731159"><ele>101.489</ele><time>2026-04-20T17:23:44.999Z</time><hdop>4.375</hdop><vdop>5.125</vdop><extensions><gom:speed>0.117</gom:speed></extensions></trkpt>
   <trkpt lat="59.0654867163" lon="30.0257738702"><ele>101.675</ele><time>2026-04-20T17:23:46.035Z</time><hdop>4.375</hdop><vdop>5.0</vdop><extensions><gom:speed>0.137</gom:speed></extensions></trkpt>
   <trkpt lat="59.0654913264" lon="30.0257785641"><ele>101.838</ele><time>2026-04-20T17:23:47.002Z</time><hdop>4.5</hdop><vdop>4.875</vdop><extensions><gom:speed>0.151</gom:speed></extensions></trkpt>
   <trkpt lat="59.0654983252" lon="30.0257857726"><ele>102.151</ele><time>2026-04-20T17:23:48.075Z</time><hdop>4.5</hdop><vdop>4.75</vdop><extensions><gom:speed>0.2</gom:speed></extensions></trkpt>
   <trkpt lat="59.0655038573" lon="30.0257903826"><ele>102.362</ele><time>2026-04-20T17:23:49.075Z</time><hdop>4.375</hdop><vdop>4.625</vdop><extensions><gom:speed>0.216</gom:speed></extensions></trkpt>
   <trkpt lat="59.0655094313" lon="30.025793903"><ele>102.499</ele><time>2026-04-20T17:23:50.075Z</time><hdop>4.5</hdop><vdop>4.5</vdop><extensions><gom:speed>0.292</gom:speed></extensions></trkpt>
   <trkpt lat="59.065514628" lon="30.025796669"><ele>102.509</ele><time>2026-04-20T17:23:51.075Z</time><hdop>4.375</hdop><vdop>4.375</vdop><extensions><gom:speed>0.299</gom:speed></extensions></trkpt>
   <trkpt lat="59.0655164302" lon="30.0257978425"><ele>102.515</ele><time>2026-04-20T17:23:51.761Z</time><hdop>4.375</hdop><vdop>4.375</vdop><extensions><gom:speed>0.283</gom:speed></extensions></trkpt>
   <trkpt lat="59.0655184418" lon="30.0257991836"><ele>102.562</ele><time>2026-04-20T17:23:52.388Z</time><hdop>4.375</hdop><vdop>4.25</vdop><extensions><gom:speed>0.261</gom:speed></extensions></trkpt>
   <trkpt lat="59.0655217527" lon="30.02580086"><ele>102.572</ele><time>2026-04-20T17:23:53.075Z</time><hdop>4.375</hdop><vdop>4.125</vdop><extensions><gom:speed>0.261</gom:speed></extensions></trkpt>
   <trkpt lat="59.0655230519" lon="30.025801782"><ele>102.578</ele><time>2026-04-20T17:23:53.773Z</time><hdop>4.5</hdop><vdop>4.125</vdop><extensions><gom:speed>0.257</gom:speed></extensions></trkpt>
   <trkpt lat="59.0655251473" lon="30.0258042966"><ele>102.518</ele><time>2026-04-20T17:23:55.075Z</time><hdop>4.5</hdop><vdop>4.125</vdop><extensions><gom:speed>0.223</gom:speed></extensions></trkpt>
   <trkpt lat="59.0655263208" lon="30.0258049671"><ele>102.524</ele><time>2026-04-20T17:23:56.075Z</time><hdop>4.375</hdop><vdop>4.125</vdop><extensions><gom:speed>0.19</gom:speed></extensions></trkpt>
   <trkpt lat="59.0655279553" lon="30.0258049671"><ele>102.567</ele><time>2026-04-20T17:23:57.008Z</time><hdop>4.375</hdop><vdop>4.5</vdop><extensions><gom:speed>0.221</gom:speed></extensions></trkpt>
   <trkpt lat="59.0655311404" lon="30.0258053862"><ele>102.279</ele><time>2026-04-20T17:23:58.075Z</time><hdop>4.375</hdop><vdop>3.875</vdop><extensions><gom:speed>0.242</gom:speed></extensions></trkpt>
   <trkpt lat="59.065532733" lon="30.0258058053"><ele>102.108</ele><time>2026-04-20T17:23:58.602Z</time><hdop>4.375</hdop><vdop>3.875</vdop><extensions><gom:speed>0.262</gom:speed></extensions></trkpt>
   <trkpt lat="59.0655359181" lon="30.0258065597"><ele>102.399</ele><time>2026-04-20T17:23:59.076Z</time><hdop>4.375</hdop><vdop>3.375</vdop><extensions><gom:speed>0.27</gom:speed></extensions></trkpt>
   <trkpt lat="59.0655394385" lon="30.025807314"><ele>102.573</ele><time>2026-04-20T17:23:59.616Z</time><hdop>4.5</hdop><vdop>3.375</vdop><extensions><gom:speed>0.326</gom:speed></extensions></trkpt>
   <trkpt lat="59.0655436294" lon="30.0258090742"><ele>101.949</ele><time>2026-04-20T17:24:00.076Z</time><hdop>4.5</hdop><vdop>3.0</vdop><extensions><gom:speed>0.332</gom:speed></extensions></trkpt>
   <trkpt lat="59.0655470241" lon="30.0258108344"><ele>101.577</ele><time>2026-04-20T17:24:00.762Z</time><hdop>4.5</hdop><vdop>3.0</vdop><extensions><gom:speed>0.343</gom:speed></extensions></trkpt>
   <trkpt lat="59.0655545259" lon="30.0258141872"><ele>101.495</ele><time>2026-04-20T17:24:01.680Z</time><hdop>4.625</hdop><vdop>2.625</vdop><extensions><gom:speed>0.399</gom:speed></extensions></trkpt>
   <trkpt lat="59.0655629497" lon="30.0258177914"><ele>101.393</ele><time>2026-04-20T17:24:02.558Z</time><hdop>4.75</hdop><vdop>2.5</vdop><extensions><gom:speed>0.498</gom:speed></extensions></trkpt>
   <trkpt lat="59.0655691523" lon="30.0258208089"><ele>101.377</ele><time>2026-04-20T17:24:03.075Z</time><hdop>4.75</hdop><vdop>2.5</vdop><extensions><gom:speed>0.514</gom:speed></extensions></trkpt>
   <trkpt lat="59.0655787496" lon="30.0258244969"><ele>101.696</ele><time>2026-04-20T17:24:04.075Z</time><hdop>4.75</hdop><vdop>2.5</vdop><extensions><gom:speed>0.512</gom:speed></extensions></trkpt>
   <trkpt lat="59.0655812223" lon="30.0258253351"><ele>101.887</ele><time>2026-04-20T17:24:04.825Z</time><hdop>4.875</hdop><vdop>2.5</vdop><extensions><gom:speed>0.527</gom:speed></extensions></trkpt>
   <trkpt lat="59.0655972317" lon="30.0258353096"><ele>101.777</ele><time>2026-04-20T17:24:06.075Z</time><hdop>4.875</hdop><vdop>5.875</vdop><extensions><gom:speed>0.541</gom:speed></extensions></trkpt>
   <trkpt lat="59.0656014226" lon="30.025839752"><ele>101.855</ele><time>2026-04-20T17:24:07.076Z</time><hdop>4.875</hdop><vdop>6.0</vdop><extensions><gom:speed>0.481</gom:speed></extensions></trkpt>
   <trkpt lat="59.0656050269" lon="30.0258454517"><ele>101.722</ele><time>2026-04-20T17:24:08.075Z</time><hdop>4.875</hdop><vdop>6.0</vdop><extensions><gom:speed>0.21</gom:speed></extensions></trkpt>
   <trkpt lat="59.0656037277" lon="30.0258458708"><ele>101.745</ele><time>2026-04-20T17:24:08.972Z</time><hdop>4.75</hdop><vdop>6.25</vdop><extensions><gom:speed>0.088</gom:speed></extensions></trkpt>
   <trkpt lat="59.0656052364" lon="30.0258480501"><ele>101.811</ele><time>2026-04-20T17:24:10.075Z</time><hdop>4.625</hdop><vdop>6.25</vdop><extensions><gom:speed>0.103</gom:speed></extensions></trkpt>
   <trkpt lat="59.0656051526" lon="30.0258474634"><ele>101.85</ele><time>2026-04-20T17:24:10.985Z</time><hdop>4.625</hdop><vdop>6.25</vdop><extensions><gom:speed>0.076</gom:speed></extensions></trkpt>
   <trkpt lat="59.0656047335" lon="30.0258477148"><ele>101.902</ele><time>2026-04-20T17:24:12.051Z</time><hdop>4.625</hdop><vdop>6.375</vdop><extensions><gom:speed>0.071</gom:speed></extensions></trkpt>
   <trkpt lat="59.0656070385" lon="30.0258499779"><ele>102.087</ele><time>2026-04-20T17:24:13.075Z</time><hdop>4.5</hdop><vdop>6.0</vdop><extensions><gom:speed>0.078</gom:speed></extensions></trkpt>
   <trkpt lat="59.0656079186" lon="30.0258508161"><ele>102.472</ele><time>2026-04-20T17:24:13.946Z</time><hdop>4.5</hdop><vdop>5.75</vdop><extensions><gom:speed>0.058</gom:speed></extensions></trkpt>
   <trkpt lat="59.0656078348" lon="30.0258509838"><ele>102.596</ele><time>2026-04-20T17:24:15.012Z</time><hdop>4.625</hdop><vdop>5.5</vdop><extensions><gom:speed>0.06</gom:speed></extensions></trkpt>
   <trkpt lat="59.0656075414" lon="30.0258498941"><ele>102.601</ele><time>2026-04-20T17:24:16.079Z</time><hdop>4.625</hdop><vdop>5.625</vdop><extensions><gom:speed>0.069</gom:speed></extensions></trkpt>
   <trkpt lat="59.0656106427" lon="30.0258520734"><ele>102.697</ele><time>2026-04-20T17:24:17.075Z</time><hdop>4.75</hdop><vdop>5.375</vdop><extensions><gom:speed>0.079</gom:speed></extensions></trkpt>
   <trkpt lat="59.0656125287" lon="30.0258534145"><ele>102.731</ele><time>2026-04-20T17:24:17.973Z</time><hdop>4.75</hdop><vdop>5.25</vdop><extensions><gom:speed>0.071</gom:speed></extensions></trkpt>
   <trkpt lat="59.0656135345" lon="30.025854588"><ele>102.795</ele><time>2026-04-20T17:24:19.039Z</time><hdop>4.75</hdop><vdop>5.25</vdop><extensions><gom:speed>0.083</gom:speed></extensions></trkpt>
   <trkpt lat="59.0656141212" lon="30.0258550909"><ele>102.76</ele><time>2026-04-20T17:24:19.988Z</time><hdop>4.875</hdop><vdop>5.125</vdop><extensions><gom:speed>0.098</gom:speed></extensions></trkpt>
   <trkpt lat="59.0656153366" lon="30.0258550071"><ele>102.649</ele><time>2026-04-20T17:24:21.053Z</time><hdop>5.0</hdop><vdop>5.25</vdop><extensions><gom:speed>0.124</gom:speed></extensions></trkpt>
   <trkpt lat="59.0656153366" lon="30.0258534145"><ele>102.646</ele><time>2026-04-20T17:24:22.001Z</time><hdop>5.125</hdop><vdop>5.125</vdop><extensions><gom:speed>0.11</gom:speed></extensions></trkpt>
   <trkpt lat="59.0656161329" lon="30.0258541689"><ele>102.575</ele><time>2026-04-20T17:24:22.948Z</time><hdop>5.25</hdop><vdop>4.875</vdop><extensions><gom:speed>0.173</gom:speed></extensions></trkpt>
   <trkpt lat="59.0656177255" lon="30.0258578569"><ele>102.532</ele><time>2026-04-20T17:24:23.725Z</time><hdop>5.375</hdop><vdop>4.875</vdop><extensions><gom:speed>0.302</gom:speed></extensions></trkpt>
   <trkpt lat="59.06562024" lon="30.0258622993"><ele>102.519</ele><time>2026-04-20T17:24:24.561Z</time><hdop>5.5</hdop><vdop>4.625</vdop><extensions><gom:speed>0.476</gom:speed></extensions></trkpt>
   <trkpt lat="59.0656255206" lon="30.0258697592"><ele>102.486</ele><time>2026-04-20T17:24:25.597Z</time><hdop>5.625</hdop><vdop>4.5</vdop><extensions><gom:speed>0.594</gom:speed></extensions></trkpt>
   <trkpt lat="59.0656331482" lon="30.0258738664"><ele>103.901</ele><time>2026-04-20T17:24:26.075Z</time><hdop>5.625</hdop><vdop>3.625</vdop><extensions><gom:speed>0.599</gom:speed></extensions></trkpt>
   <trkpt lat="59.0656396441" lon="30.0258783088"><ele>104.746</ele><time>2026-04-20T17:24:26.702Z</time><hdop>5.625</hdop><vdop>3.625</vdop><extensions><gom:speed>0.625</gom:speed></extensions></trkpt>
   <trkpt lat="59.0656520493" lon="30.0258830864"><ele>103.742</ele><time>2026-04-20T17:24:27.603Z</time><hdop>5.625</hdop><vdop>2.75</vdop><extensions><gom:speed>0.632</gom:speed></extensions></trkpt>
   <trkpt lat="59.0656587549" lon="30.0258836732"><ele>103.119</ele><time>2026-04-20T17:24:28.076Z</time><hdop>5.625</hdop><vdop>2.625</vdop><extensions><gom:speed>0.631</gom:speed></extensions></trkpt>
   <trkpt lat="59.0656641193" lon="30.0258831703"><ele>102.746</ele><time>2026-04-20T17:24:28.696Z</time><hdop>5.5</hdop><vdop>2.625</vdop><extensions><gom:speed>0.625</gom:speed></extensions></trkpt>
   <trkpt lat="59.0656734232" lon="30.0258830026"><ele>102.665</ele><time>2026-04-20T17:24:29.556Z</time><hdop>5.5</hdop><vdop>2.5</vdop><extensions><gom:speed>0.614</gom:speed></extensions></trkpt>
   <trkpt lat="59.0656813441" lon="30.0258845114"><ele>102.374</ele><time>2026-04-20T17:24:30.076Z</time><hdop>5.375</hdop><vdop>2.5</vdop><extensions><gom:speed>0.583</gom:speed></extensions></trkpt>
   <trkpt lat="59.0656840263" lon="30.0258838408"><ele>102.2</ele><time>2026-04-20T17:24:30.564Z</time><hdop>5.375</hdop><vdop>2.5</vdop><extensions><gom:speed>0.581</gom:speed></extensions></trkpt>
   <trkpt lat="59.0656887202" lon="30.0258856848"><ele>102.424</ele><time>2026-04-20T17:24:31.075Z</time><hdop>5.25</hdop><vdop>5.0</vdop><extensions><gom:speed>0.572</gom:speed></extensions></trkpt>
   <trkpt lat="59.0656980241" lon="30.0258892891"><ele>103.019</ele><time>2026-04-20T17:24:32.075Z</time><hdop>5.25</hdop><vdop>5.375</vdop><extensions><gom:speed>0.577</gom:speed></extensions></trkpt>
   <trkpt lat="59.0657054421" lon="30.0258918874"><ele>103.097</ele><time>2026-04-20T17:24:33.016Z</time><hdop>5.25</hdop><vdop>5.5</vdop><extensions><gom:speed>0.621</gom:speed></extensions></trkpt>
   <trkpt lat="59.0657090463" lon="30.0258924742"><ele>103.143</ele><time>2026-04-20T17:24:33.532Z</time><hdop>5.25</hdop><vdop>5.5</vdop><extensions><gom:speed>0.638</gom:speed></extensions></trkpt>
   <trkpt lat="59.0657139497" lon="30.0258955755"><ele>103.035</ele><time>2026-04-20T17:24:34.075Z</time><hdop>5.375</hdop><vdop>5.5</vdop><extensions><gom:speed>0.617</gom:speed></extensions></trkpt>
   <trkpt lat="59.0657179311" lon="30.0258964137"><ele>102.971</ele><time>2026-04-20T17:24:34.559Z</time><hdop>5.375</hdop><vdop>5.5</vdop><extensions><gom:speed>0.631</gom:speed></extensions></trkpt>
   <trkpt lat="59.065721242" lon="30.025896246"><ele>102.84</ele><time>2026-04-20T17:24:35.030Z</time><hdop>5.375</hdop><vdop>5.375</vdop><extensions><gom:speed>0.632</gom:speed></extensions></trkpt>
   <trkpt lat="59.06572493" lon="30.0258952402"><ele>102.762</ele><time>2026-04-20T17:24:35.694Z</time><hdop>5.5</hdop><vdop>5.375</vdop><extensions><gom:speed>0.597</gom:speed></extensions></trkpt>
   <trkpt lat="59.0657320546" lon="30.0258950726"><ele>102.74</ele><time>2026-04-20T17:24:36.682Z</time><hdop>5.5</hdop><vdop>5.5</vdop><extensions><gom:speed>0.574</gom:speed></extensions></trkpt>
   <trkpt lat="59.0657371257" lon="30.02589348"><ele>102.802</ele><time>2026-04-20T17:24:37.501Z</time><hdop>5.625</hdop><vdop>5.25</vdop><extensions><gom:speed>0.631</gom:speed></extensions></trkpt>
   <trkpt lat="59.0657415262" lon="30.0258935638"><ele>102.976</ele><time>2026-04-20T17:24:38.075Z</time><hdop>5.625</hdop><vdop>5.0</vdop><extensions><gom:speed>0.624</gom:speed></extensions></trkpt>
   <trkpt lat="59.0657457171" lon="30.02589348"><ele>103.079</ele><time>2026-04-20T17:24:38.717Z</time><hdop>5.625</hdop><vdop>5.0</vdop><extensions><gom:speed>0.601</gom:speed></extensions></trkpt>
   <trkpt lat="59.0657519197" lon="30.0258942344"><ele>103.183</ele><time>2026-04-20T17:24:39.652Z</time><hdop>5.625</hdop><vdop>4.875</vdop><extensions><gom:speed>0.631</gom:speed></extensions></trkpt>
   <trkpt lat="59.0657591282" lon="30.0258964975"><ele>103.174</ele><time>2026-04-20T17:24:40.856Z</time><hdop>5.625</hdop><vdop>4.625</vdop><extensions><gom:speed>0.595</gom:speed></extensions></trkpt>
   <trkpt lat="59.0657629419" lon="30.0258999341"><ele>103.233</ele><time>2026-04-20T17:24:41.755Z</time><hdop>5.75</hdop><vdop>4.625</vdop><extensions><gom:speed>0.553</gom:speed></extensions></trkpt>
   <trkpt lat="59.0657690188" lon="30.0259039574"><ele>103.181</ele><time>2026-04-20T17:24:42.980Z</time><hdop>5.875</hdop><vdop>4.625</vdop><extensions><gom:speed>0.494</gom:speed></extensions></trkpt>
   <trkpt lat="59.065769857" lon="30.0259042927"><ele>103.272</ele><time>2026-04-20T17:24:43.759Z</time><hdop>5.875</hdop><vdop>4.75</vdop><extensions><gom:speed>0.412</gom:speed></extensions></trkpt>
   <trkpt lat="59.065772623" lon="30.0259069749"><ele>103.089</ele><time>2026-04-20T17:24:44.980Z</time><hdop>5.75</hdop><vdop>5.0</vdop><extensions><gom:speed>0.32</gom:speed></extensions></trkpt>
   <trkpt lat="59.0657745509" lon="30.0259085674"><ele>103.006</ele><time>2026-04-20T17:24:46.046Z</time><hdop>5.75</hdop><vdop>5.0</vdop><extensions><gom:speed>0.301</gom:speed></extensions></trkpt>
   <trkpt lat="59.0657729164" lon="30.0259079807"><ele>102.912</ele><time>2026-04-20T17:24:47.075Z</time><hdop>5.75</hdop><vdop>5.0</vdop><extensions><gom:speed>0.204</gom:speed></extensions></trkpt>
   <trkpt lat="59.0657709466" lon="30.0259079807"><ele>102.825</ele><time>2026-04-20T17:24:47.941Z</time><hdop>5.625</hdop><vdop>5.0</vdop><extensions><gom:speed>0.113</gom:speed></extensions></trkpt>
   <trkpt lat="59.0657707371" lon="30.0259079807"><ele>102.749</ele><time>2026-04-20T17:24:49.007Z</time><hdop>5.625</hdop><vdop>5.0</vdop><extensions><gom:speed>0.09</gom:speed></extensions></trkpt>
   <trkpt lat="59.0657707371" lon="30.0259085674"><ele>102.697</ele><time>2026-04-20T17:24:50.073Z</time><hdop>5.75</hdop><vdop>5.0</vdop><extensions><gom:speed>0.085</gom:speed></extensions></trkpt>
   <trkpt lat="59.0657706533" lon="30.0259075616"><ele>102.67</ele><time>2026-04-20T17:24:51.021Z</time><hdop>5.75</hdop><vdop>4.875</vdop><extensions><gom:speed>0.096</gom:speed></extensions></trkpt>
   <trkpt lat="59.06577124" lon="30.0259058852"><ele>102.656</ele><time>2026-04-20T17:24:51.968Z</time><hdop>5.75</hdop><vdop>4.75</vdop><extensions><gom:speed>0.095</gom:speed></extensions></trkpt>
   <trkpt lat="59.0657723297" lon="30.0259044603"><ele>102.649</ele><time>2026-04-20T17:24:53.034Z</time><hdop>5.875</hdop><vdop>4.625</vdop><extensions><gom:speed>0.14</gom:speed></extensions></trkpt>
   <trkpt lat="59.065773545" lon="30.0259043765"><ele>102.639</ele><time>2026-04-20T17:24:53.982Z</time><hdop>6.0</hdop><vdop>4.75</vdop><extensions><gom:speed>0.208</gom:speed></extensions></trkpt>
   <trkpt lat="59.0657765206" lon="30.0259042088"><ele>102.642</ele><time>2026-04-20T17:24:55.049Z</time><hdop>6.125</hdop><vdop>5.0</vdop><extensions><gom:speed>0.303</gom:speed></extensions></trkpt>
   <trkpt lat="59.0657815497" lon="30.0259027839"><ele>102.674</ele><time>2026-04-20T17:24:55.995Z</time><hdop>6.25</hdop><vdop>5.0</vdop><extensions><gom:speed>0.382</gom:speed></extensions></trkpt>
   <trkpt lat="59.0657874171" lon="30.0259016943"><ele>102.719</ele><time>2026-04-20T17:24:56.943Z</time><hdop>6.375</hdop><vdop>5.125</vdop><extensions><gom:speed>0.434</gom:speed></extensions></trkpt>
   <trkpt lat="59.0657938292" lon="30.0259001017"><ele>102.76</ele><time>2026-04-20T17:24:58.009Z</time><hdop>6.5</hdop><vdop>5.125</vdop><extensions><gom:speed>0.487</gom:speed></extensions></trkpt>
   <trkpt lat="59.065795338" lon="30.025897168"><ele>101.921</ele><time>2026-04-20T17:24:59.075Z</time><hdop>6.625</hdop><vdop>4.375</vdop><extensions><gom:speed>0.485</gom:speed></extensions></trkpt>
   <trkpt lat="59.0657970563" lon="30.0258928933"><ele>101.734</ele><time>2026-04-20T17:25:00.076Z</time><hdop>6.625</hdop><vdop>3.875</vdop><extensions><gom:speed>0.429</gom:speed></extensions></trkpt>
   <trkpt lat="59.0657996547" lon="30.0258869421"><ele>101.623</ele><time>2026-04-20T17:25:00.657Z</time><hdop>6.5</hdop><vdop>3.875</vdop><extensions><gom:speed>0.475</gom:speed></extensions></trkpt>
   <trkpt lat="59.0658036361" lon="30.0258824159"><ele>102.764</ele><time>2026-04-20T17:25:01.774Z</time><hdop>6.375</hdop><vdop>3.5</vdop><extensions><gom:speed>0.468</gom:speed></extensions></trkpt>
   <trkpt lat="59.065814323" lon="30.0258810748"><ele>103.477</ele><time>2026-04-20T17:25:03.075Z</time><hdop>6.0</hdop><vdop>5.375</vdop><extensions><gom:speed>0.391</gom:speed></extensions></trkpt>
   <trkpt lat="59.0658223277" lon="30.0258833379"><ele>103.747</ele><time>2026-04-20T17:25:04.076Z</time><hdop>5.75</hdop><vdop>5.25</vdop><extensions><gom:speed>0.292</gom:speed></extensions></trkpt>
   <trkpt lat="59.0658303324" lon="30.0258859363"><ele>103.691</ele><time>2026-04-20T17:25:05.076Z</time><hdop>5.5</hdop><vdop>5.25</vdop><extensions><gom:speed>0.232</gom:speed></extensions></trkpt>
   <trkpt lat="59.0658336433" lon="30.0258861039"><ele>103.657</ele><time>2026-04-20T17:25:05.863Z</time><hdop>5.375</hdop><vdop>5.25</vdop><extensions><gom:speed>0.202</gom:speed></extensions></trkpt>
   <trkpt lat="59.0658383371" lon="30.0258878641"><ele>103.61</ele><time>2026-04-20T17:25:06.656Z</time><hdop>5.25</hdop><vdop>5.125</vdop><extensions><gom:speed>0.189</gom:speed></extensions></trkpt>
   <trkpt lat="59.0658494432" lon="30.0258895405"><ele>103.379</ele><time>2026-04-20T17:25:08.075Z</time><hdop>5.0</hdop><vdop>5.0</vdop><extensions><gom:speed>0.14</gom:speed></extensions></trkpt>
   <trkpt lat="59.0658552267" lon="30.0258902111"><ele>103.472</ele><time>2026-04-20T17:25:09.075Z</time><hdop>4.875</hdop><vdop>5.25</vdop><extensions><gom:speed>0.13</gom:speed></extensions></trkpt>
   <trkpt lat="59.0658566516" lon="30.0258900434"><ele>103.641</ele><time>2026-04-20T17:25:09.972Z</time><hdop>4.875</hdop><vdop>5.25</vdop><extensions><gom:speed>0.12</gom:speed></extensions></trkpt>
   <trkpt lat="59.0658604235" lon="30.025889792"><ele>103.941</ele><time>2026-04-20T17:25:11.075Z</time><hdop>4.625</hdop><vdop>5.25</vdop><extensions><gom:speed>0.108</gom:speed></extensions></trkpt>
   <trkpt lat="59.0658649497" lon="30.0258898758"><ele>104.227</ele><time>2026-04-20T17:25:12.075Z</time><hdop>4.5</hdop><vdop>4.875</vdop><extensions><gom:speed>0.097</gom:speed></extensions></trkpt>
   <trkpt lat="59.0658661232" lon="30.0258892891"><ele>104.398</ele><time>2026-04-20T17:25:12.877Z</time><hdop>4.375</hdop><vdop>4.875</vdop><extensions><gom:speed>0.082</gom:speed></extensions></trkpt>
   <trkpt lat="59.065871739" lon="30.025889792"><ele>104.723</ele><time>2026-04-20T17:25:14.000Z</time><hdop>4.375</hdop><vdop>4.5</vdop><extensions><gom:speed>0.095</gom:speed></extensions></trkpt>
   <trkpt lat="59.0658727449" lon="30.0258892891"><ele>104.917</ele><time>2026-04-20T17:25:15.084Z</time><hdop>4.25</hdop><vdop>4.5</vdop><extensions><gom:speed>0.127</gom:speed></extensions></trkpt>
   <trkpt lat="59.0658772292" lon="30.0258892891"><ele>105.106</ele><time>2026-04-20T17:25:15.996Z</time><hdop>4.25</hdop><vdop>4.5</vdop><extensions><gom:speed>0.168</gom:speed></extensions></trkpt>
   <trkpt lat="59.06588054" lon="30.0258868583"><ele>105.288</ele><time>2026-04-20T17:25:16.962Z</time><hdop>4.375</hdop><vdop>4.25</vdop><extensions><gom:speed>0.245</gom:speed></extensions></trkpt>
   <trkpt lat="59.0658855273" lon="30.0258819968"><ele>105.396</ele><time>2026-04-20T17:25:17.960Z</time><hdop>4.5</hdop><vdop>4.25</vdop><extensions><gom:speed>0.408</gom:speed></extensions></trkpt>
   <trkpt lat="59.0658908498" lon="30.0258738664"><ele>105.433</ele><time>2026-04-20T17:25:18.918Z</time><hdop>4.625</hdop><vdop>4.125</vdop><extensions><gom:speed>0.503</gom:speed></extensions></trkpt>
   <trkpt lat="59.0658966333" lon="30.0258607906"><ele>105.457</ele><time>2026-04-20T17:25:19.857Z</time><hdop>4.875</hdop><vdop>4.125</vdop><extensions><gom:speed>0.587</gom:speed></extensions></trkpt>
   <trkpt lat="59.0659027521" lon="30.0258540012"><ele>105.467</ele><time>2026-04-20T17:25:20.982Z</time><hdop>4.875</hdop><vdop>4.0</vdop><extensions><gom:speed>0.609</gom:speed></extensions></trkpt>
   <trkpt lat="59.0659086194" lon="30.0258469604"><ele>105.47</ele><time>2026-04-20T17:25:21.919Z</time><hdop>5.0</hdop><vdop>4.0</vdop><extensions><gom:speed>0.655</gom:speed></extensions></trkpt>
   <trkpt lat="59.0659168337" lon="30.0258367345"><ele>104.872</ele><time>2026-04-20T17:25:22.996Z</time><hdop>5.125</hdop><vdop>3.5</vdop><extensions><gom:speed>0.685</gom:speed></extensions></trkpt>
   <trkpt lat="59.0659248384" lon="30.0258286041"><ele>104.667</ele><time>2026-04-20T17:25:23.815Z</time><hdop>5.0</hdop><vdop>3.375</vdop><extensions><gom:speed>0.727</gom:speed></extensions></trkpt>
   <trkpt lat="59.0659339327" lon="30.0258172047"><ele>104.294</ele><time>2026-04-20T17:25:24.880Z</time><hdop>4.875</hdop><vdop>3.0</vdop><extensions><gom:speed>0.721</gom:speed></extensions></trkpt>
   <trkpt lat="59.0659439491" lon="30.0258059729"><ele>104.383</ele><time>2026-04-20T17:25:25.819Z</time><hdop>4.75</hdop><vdop>3.125</vdop><extensions><gom:speed>0.709</gom:speed></extensions></trkpt>
   <trkpt lat="59.0659524568" lon="30.0257992674"><ele>104.34</ele><time>2026-04-20T17:25:26.776Z</time><hdop>4.75</hdop><vdop>2.875</vdop><extensions><gom:speed>0.742</gom:speed></extensions></trkpt>
   <trkpt lat="59.0659613416" lon="30.0257919752"><ele>104.989</ele><time>2026-04-20T17:25:27.693Z</time><hdop>4.625</hdop><vdop>2.75</vdop><extensions><gom:speed>0.687</gom:speed></extensions></trkpt>
   <trkpt lat="59.0659712322" lon="30.025790215"><ele>105.435</ele><time>2026-04-20T17:25:28.760Z</time><hdop>4.625</hdop><vdop>2.625</vdop><extensions><gom:speed>0.591</gom:speed></extensions></trkpt>
   <trkpt lat="59.065979656" lon="30.0257882033"><ele>105.649</ele><time>2026-04-20T17:25:29.638Z</time><hdop>4.5</hdop><vdop>2.5</vdop><extensions><gom:speed>0.622</gom:speed></extensions></trkpt>
   <trkpt lat="59.0659872417" lon="30.0257815816"><ele>105.582</ele><time>2026-04-20T17:25:30.427Z</time><hdop>4.5</hdop><vdop>2.5</vdop><extensions><gom:speed>0.601</gom:speed></extensions></trkpt>
   <trkpt lat="59.0659932347" lon="30.025776301"><ele>105.557</ele><time>2026-04-20T17:25:31.075Z</time><hdop>4.5</hdop><vdop>2.5</vdop><extensions><gom:speed>0.61</gom:speed></extensions></trkpt>
   <trkpt lat="59.0660040474" lon="30.0257664104"><ele>105.705</ele><time>2026-04-20T17:25:32.076Z</time><hdop>4.5</hdop><vdop>2.5</vdop><extensions><gom:speed>0.622</gom:speed></extensions></trkpt>
   <trkpt lat="59.0660118425" lon="30.0257602077"><ele>105.961</ele><time>2026-04-20T17:25:33.075Z</time><hdop>4.375</hdop><vdop>2.5</vdop><extensions><gom:speed>0.64</gom:speed></extensions></trkpt>
   <trkpt lat="59.0660225295" lon="30.0257524126"><ele>106.565</ele><time>2026-04-20T17:25:34.075Z</time><hdop>4.375</hdop><vdop>2.5</vdop><extensions><gom:speed>0.735</gom:speed></extensions></trkpt>
   <trkpt lat="59.066032923" lon="30.0257445336"><ele>106.544</ele><time>2026-04-20T17:25:35.076Z</time><hdop>4.25</hdop><vdop>2.5</vdop><extensions><gom:speed>0.668</gom:speed></extensions></trkpt>
   <trkpt lat="59.0660425203" lon="30.0257388339"><ele>106.785</ele><time>2026-04-20T17:25:36.075Z</time><hdop>4.25</hdop><vdop>2.5</vdop><extensions><gom:speed>0.633</gom:speed></extensions></trkpt>
   <trkpt lat="59.0660496449" lon="30.0257369061"><ele>106.93</ele><time>2026-04-20T17:25:36.982Z</time><hdop>4.25</hdop><vdop>2.5</vdop><extensions><gom:speed>0.651</gom:speed></extensions></trkpt>
   <trkpt lat="59.0660532491" lon="30.0257339724"><ele>106.703</ele><time>2026-04-20T17:25:37.691Z</time><hdop>4.375</hdop><vdop>2.5</vdop><extensions><gom:speed>0.645</gom:speed></extensions></trkpt>
   <trkpt lat="59.0660700549" lon="30.0257255067"><ele>106.63</ele><time>2026-04-20T17:25:39.075Z</time><hdop>4.5</hdop><vdop>2.5</vdop><extensions><gom:speed>0.676</gom:speed></extensions></trkpt>
   <trkpt lat="59.0660790235" lon="30.0257214834"><ele>106.824</ele><time>2026-04-20T17:25:40.076Z</time><hdop>4.5</hdop><vdop>5.125</vdop><extensions><gom:speed>0.683</gom:speed></extensions></trkpt>
   <trkpt lat="59.0660867348" lon="30.0257217348"><ele>106.966</ele><time>2026-04-20T17:25:41.006Z</time><hdop>4.625</hdop><vdop>5.375</vdop><extensions><gom:speed>0.664</gom:speed></extensions></trkpt>
   <trkpt lat="59.0660932308" lon="30.0257243332"><ele>107.061</ele><time>2026-04-20T17:25:42.075Z</time><hdop>4.75</hdop><vdop>5.125</vdop><extensions><gom:speed>0.635</gom:speed></extensions></trkpt>
   <trkpt lat="59.0660982181" lon="30.0257266801"><ele>107.084</ele><time>2026-04-20T17:25:43.021Z</time><hdop>4.875</hdop><vdop>5.125</vdop><extensions><gom:speed>0.593</gom:speed></extensions></trkpt>
   <trkpt lat="59.0660997268" lon="30.0257270154"><ele>107.098</ele><time>2026-04-20T17:25:43.849Z</time><hdop>5.0</hdop><vdop>5.125</vdop><extensions><gom:speed>0.586</gom:speed></extensions></trkpt>
   <trkpt lat="59.0661074381" lon="30.0257335533"><ele>107.019</ele><time>2026-04-20T17:25:45.033Z</time><hdop>5.125</hdop><vdop>5.125</vdop><extensions><gom:speed>0.523</gom:speed></extensions></trkpt>
   <trkpt lat="59.0661088212" lon="30.025737409"><ele>106.972</ele><time>2026-04-20T17:25:45.618Z</time><hdop>5.125</hdop><vdop>5.125</vdop><extensions><gom:speed>0.511</gom:speed></extensions></trkpt>
   <trkpt lat="59.0661100365" lon="30.0257405941"><ele>106.932</ele><time>2026-04-20T17:25:46.076Z</time><hdop>5.125</hdop><vdop>5.0</vdop><extensions><gom:speed>0.496</gom:speed></extensions></trkpt>
   <trkpt lat="59.0661123416" lon="30.0257428572"><ele>106.908</ele><time>2026-04-20T17:25:46.616Z</time><hdop>5.25</hdop><vdop>5.0</vdop><extensions><gom:speed>0.468</gom:speed></extensions></trkpt>
   <trkpt lat="59.0661161553" lon="30.0257436954"><ele>106.872</ele><time>2026-04-20T17:25:47.496Z</time><hdop>5.25</hdop><vdop>5.125</vdop><extensions><gom:speed>0.455</gom:speed></extensions></trkpt>
   <trkpt lat="59.0661177479" lon="30.0257434439"><ele>106.886</ele><time>2026-04-20T17:25:48.075Z</time><hdop>5.25</hdop><vdop>5.0</vdop><extensions><gom:speed>0.447</gom:speed></extensions></trkpt>
   <trkpt lat="59.0661197176" lon="30.0257426058"><ele>106.895</ele><time>2026-04-20T17:25:48.541Z</time><hdop>5.25</hdop><vdop>5.0</vdop><extensions><gom:speed>0.491</gom:speed></extensions></trkpt>
   <trkpt lat="59.0661244534" lon="30.0257407617"><ele>106.772</ele><time>2026-04-20T17:25:49.481Z</time><hdop>5.375</hdop><vdop>5.0</vdop><extensions><gom:speed>0.586</gom:speed></extensions></trkpt>
   <trkpt lat="59.0661267165" lon="30.0257415161"><ele>106.531</ele><time>2026-04-20T17:25:50.076Z</time><hdop>5.375</hdop><vdop>4.875</vdop><extensions><gom:speed>0.547</gom:speed></extensions></trkpt>
   <trkpt lat="59.0661317457" lon="30.0257421028"><ele>106.273</ele><time>2026-04-20T17:25:50.956Z</time><hdop>5.375</hdop><vdop>4.875</vdop><extensions><gom:speed>0.61</gom:speed></extensions></trkpt>
   <trkpt lat="59.0661344279" lon="30.0257426896"><ele>106.119</ele><time>2026-04-20T17:25:51.432Z</time><hdop>5.375</hdop><vdop>4.875</vdop><extensions><gom:speed>0.613</gom:speed></extensions></trkpt>
   <trkpt lat="59.0661378225" lon="30.0257447012"><ele>105.275</ele><time>2026-04-20T17:25:52.076Z</time><hdop>5.375</hdop><vdop>4.125</vdop><extensions><gom:speed>0.598</gom:speed></extensions></trkpt>
   <trkpt lat="59.0661434384" lon="30.0257459585"><ele>105.619</ele><time>2026-04-20T17:25:53.075Z</time><hdop>5.375</hdop><vdop>3.875</vdop><extensions><gom:speed>0.597</gom:speed></extensions></trkpt>
   <trkpt lat="59.0661497248" lon="30.0257457071"><ele>106.735</ele><time>2026-04-20T17:25:54.075Z</time><hdop>5.375</hdop><vdop>3.375</vdop><extensions><gom:speed>0.586</gom:speed></extensions></trkpt>
   <trkpt lat="59.0661527423" lon="30.0257445336"><ele>107.401</ele><time>2026-04-20T17:25:54.762Z</time><hdop>5.375</hdop><vdop>3.375</vdop><extensions><gom:speed>0.488</gom:speed></extensions></trkpt>
   <trkpt lat="59.0661599508" lon="30.0257450365"><ele>108.195</ele><time>2026-04-20T17:25:55.875Z</time><hdop>5.25</hdop><vdop>3.25</vdop><extensions><gom:speed>0.514</gom:speed></extensions></trkpt>
   <trkpt lat="59.0661690451" lon="30.0257455394"><ele>108.473</ele><time>2026-04-20T17:25:57.075Z</time><hdop>5.125</hdop><vdop>3.125</vdop><extensions><gom:speed>0.391</gom:speed></extensions></trkpt>
   <trkpt lat="59.066172817" lon="30.0257484731"><ele>108.449</ele><time>2026-04-20T17:25:58.075Z</time><hdop>5.0</hdop><vdop>3.25</vdop><extensions><gom:speed>0.347</gom:speed></extensions></trkpt>
   <trkpt lat="59.066175122" lon="30.0257504009"><ele>108.435</ele><time>2026-04-20T17:25:58.738Z</time><hdop>4.875</hdop><vdop>3.25</vdop><extensions><gom:speed>0.339</gom:speed></extensions></trkpt>
   <trkpt lat="59.0661809474" lon="30.0257533346"><ele>107.576</ele><time>2026-04-20T17:25:59.852Z</time><hdop>4.75</hdop><vdop>3.375</vdop><extensions><gom:speed>0.323</gom:speed></extensions></trkpt>
   <trkpt lat="59.0661873177" lon="30.0257548433"><ele>107.548</ele><time>2026-04-20T17:26:00.919Z</time><hdop>4.625</hdop><vdop>3.375</vdop><extensions><gom:speed>0.374</gom:speed></extensions></trkpt>
   <trkpt lat="59.0661955319" lon="30.0257552624"><ele>107.607</ele><time>2026-04-20T17:26:01.856Z</time><hdop>4.625</hdop><vdop>3.25</vdop><extensions><gom:speed>0.453</gom:speed></extensions></trkpt>
   <trkpt lat="59.0662004354" lon="30.0257561844"><ele>107.333</ele><time>2026-04-20T17:26:02.446Z</time><hdop>4.625</hdop><vdop>3.25</vdop><extensions><gom:speed>0.462</gom:speed></extensions></trkpt>
   <trkpt lat="59.0662060512" lon="30.0257521611"><ele>107.17</ele><time>2026-04-20T17:26:03.003Z</time><hdop>4.5</hdop><vdop>3.25</vdop><extensions><gom:speed>0.478</gom:speed></extensions></trkpt>
   <trkpt lat="59.0662123377" lon="30.0257481378"><ele>107.118</ele><time>2026-04-20T17:26:03.880Z</time><hdop>4.5</hdop><vdop>3.125</vdop><extensions><gom:speed>0.546</gom:speed></extensions></trkpt>
   <trkpt lat="59.0662207196" lon="30.0257436954"><ele>106.81</ele><time>2026-04-20T17:26:04.858Z</time><hdop>4.5</hdop><vdop>3.125</vdop><extensions><gom:speed>0.603</gom:speed></extensions></trkpt>
   <trkpt lat="59.0662305264" lon="30.0257416837"><ele>106.679</ele><time>2026-04-20T17:26:05.776Z</time><hdop>4.5</hdop><vdop>3.25</vdop><extensions><gom:speed>0.619</gom:speed></extensions></trkpt>
   <trkpt lat="59.0662397465" lon="30.0257388339"><ele>106.971</ele><time>2026-04-20T17:26:06.920Z</time><hdop>4.5</hdop><vdop>3.25</vdop><extensions><gom:speed>0.585</gom:speed></extensions></trkpt>
   <trkpt lat="59.0662474578" lon="30.0257372413"><ele>107.027</ele><time>2026-04-20T17:26:07.839Z</time><hdop>4.5</hdop><vdop>3.25</vdop><extensions><gom:speed>0.612</gom:speed></extensions></trkpt>
   <trkpt lat="59.066252026" lon="30.0257362355"><ele>107.416</ele><time>2026-04-20T17:26:08.605Z</time><hdop>4.5</hdop><vdop>3.125</vdop><extensions><gom:speed>0.591</gom:speed></extensions></trkpt>
   <trkpt lat="59.0662596535" lon="30.0257327989"><ele>107.897</ele><time>2026-04-20T17:26:09.075Z</time><hdop>4.5</hdop><vdop>3.0</vdop><extensions><gom:speed>0.549</gom:speed></extensions></trkpt>
   <trkpt lat="59.0662647246" lon="30.0257320446"><ele>108.336</ele><time>2026-04-20T17:26:10.075Z</time><hdop>4.5</hdop><vdop>2.875</vdop><extensions><gom:speed>0.439</gom:speed></extensions></trkpt>
   <trkpt lat="59.0662689574" lon="30.0257308711"><ele>108.505</ele><time>2026-04-20T17:26:11.076Z</time><hdop>4.5</hdop><vdop>2.75</vdop><extensions><gom:speed>0.366</gom:speed></extensions></trkpt>
   <trkpt lat="59.0662729388" lon="30.0257243332"><ele>108.396</ele><time>2026-04-20T17:26:12.076Z</time><hdop>4.5</hdop><vdop>5.5</vdop><extensions><gom:speed>0.325</gom:speed></extensions></trkpt>
   <trkpt lat="59.0662738189" lon="30.025718885"><ele>108.331</ele><time>2026-04-20T17:26:13.060Z</time><hdop>4.5</hdop><vdop>5.5</vdop><extensions><gom:speed>0.296</gom:speed></extensions></trkpt>
   <trkpt lat="59.0662768364" lon="30.0257141073"><ele>108.091</ele><time>2026-04-20T17:26:14.075Z</time><hdop>4.5</hdop><vdop>5.125</vdop><extensions><gom:speed>0.283</gom:speed></extensions></trkpt>
   <trkpt lat="59.0662774651" lon="30.0257131853"><ele>107.947</ele><time>2026-04-20T17:26:14.764Z</time><hdop>4.5</hdop><vdop>5.125</vdop><extensions><gom:speed>0.289</gom:speed></extensions></trkpt>
   <trkpt lat="59.0662794348" lon="30.0257094972"><ele>107.521</ele><time>2026-04-20T17:26:15.320Z</time><hdop>4.625</hdop><vdop>4.75</vdop><extensions><gom:speed>0.305</gom:speed></extensions></trkpt>
   <trkpt lat="59.0662827456" lon="30.0257037975"><ele>107.253</ele><time>2026-04-20T17:26:16.075Z</time><hdop>4.625</hdop><vdop>4.5</vdop><extensions><gom:speed>0.361</gom:speed></extensions></trkpt>
   <trkpt lat="59.066284422" lon="30.0256993551"><ele>107.092</ele><time>2026-04-20T17:26:16.535Z</time><hdop>4.75</hdop><vdop>4.5</vdop><extensions><gom:speed>0.377</gom:speed></extensions></trkpt>
   <trkpt lat="59.0662855536" lon="30.0256951642"><ele>106.878</ele><time>2026-04-20T17:26:17.015Z</time><hdop>4.75</hdop><vdop>4.25</vdop><extensions><gom:speed>0.389</gom:speed></extensions></trkpt>
   <trkpt lat="59.0662868528" lon="30.025690638"><ele>106.75</ele><time>2026-04-20T17:26:17.481Z</time><hdop>4.875</hdop><vdop>4.25</vdop><extensions><gom:speed>0.435</gom:speed></extensions></trkpt>
   <trkpt lat="59.0662886549" lon="30.0256847706"><ele>106.637</ele><time>2026-04-20T17:26:18.075Z</time><hdop>4.875</hdop><vdop>4.125</vdop><extensions><gom:speed>0.425</gom:speed></extensions></trkpt>
   <trkpt lat="59.0662897445" lon="30.025681334"><ele>106.569</ele><time>2026-04-20T17:26:18.558Z</time><hdop>4.875</hdop><vdop>4.125</vdop><extensions><gom:speed>0.403</gom:speed></extensions></trkpt>
   <trkpt lat="59.066290918" lon="30.0256782327"><ele>106.522</ele><time>2026-04-20T17:26:19.029Z</time><hdop>4.875</hdop><vdop>4.125</vdop><extensions><gom:speed>0.393</gom:speed></extensions></trkpt>
   <trkpt lat="59.0662919238" lon="30.0256754667"><ele>106.493</ele><time>2026-04-20T17:26:19.480Z</time><hdop>5.0</hdop><vdop>4.125</vdop><extensions><gom:speed>0.399</gom:speed></extensions></trkpt>
   <trkpt lat="59.0662935164" lon="30.0256723654"><ele>106.461</ele><time>2026-04-20T17:26:19.976Z</time><hdop>5.0</hdop><vdop>4.125</vdop><extensions><gom:speed>0.412</gom:speed></extensions></trkpt>
   <trkpt lat="59.0662964501" lon="30.0256683421"><ele>106.504</ele><time>2026-04-20T17:26:21.075Z</time><hdop>5.0</hdop><vdop>4.25</vdop><extensions><gom:speed>0.389</gom:speed></extensions></trkpt>
   <trkpt lat="59.0663001381" lon="30.0256641511"><ele>106.585</ele><time>2026-04-20T17:26:21.990Z</time><hdop>5.125</hdop><vdop>4.25</vdop><extensions><gom:speed>0.412</gom:speed></extensions></trkpt>
   <trkpt lat="59.0663046224" lon="30.0256621395"><ele>106.634</ele><time>2026-04-20T17:26:23.098Z</time><hdop>5.375</hdop><vdop>4.25</vdop><extensions><gom:speed>0.432</gom:speed></extensions></trkpt>
   <trkpt lat="59.0663095258" lon="30.0256603793"><ele>106.684</ele><time>2026-04-20T17:26:23.917Z</time><hdop>5.5</hdop><vdop>4.375</vdop><extensions><gom:speed>0.52</gom:speed></extensions></trkpt>
   <trkpt lat="59.0663132558" lon="30.0256566912"><ele>106.76</ele><time>2026-04-20T17:26:24.757Z</time><hdop>5.625</hdop><vdop>4.5</vdop><extensions><gom:speed>0.565</gom:speed></extensions></trkpt>
   <trkpt lat="59.0663174467" lon="30.0256495666"><ele>106.791</ele><time>2026-04-20T17:26:25.518Z</time><hdop>5.625</hdop><vdop>4.375</vdop><extensions><gom:speed>0.683</gom:speed></extensions></trkpt>
   <trkpt lat="59.066320548" lon="30.0256434478"><ele>106.83</ele><time>2026-04-20T17:26:26.018Z</time><hdop>5.625</hdop><vdop>4.25</vdop><extensions><gom:speed>0.688</gom:speed></extensions></trkpt>
   <trkpt lat="59.0663269183" lon="30.0256338086"><ele>106.846</ele><time>2026-04-20T17:26:26.965Z</time><hdop>5.875</hdop><vdop>4.125</vdop><extensions><gom:speed>0.733</gom:speed></extensions></trkpt>
   <trkpt lat="59.0663331209" lon="30.0256253429"><ele>106.855</ele><time>2026-04-20T17:26:28.035Z</time><hdop>6.0</hdop><vdop>4.125</vdop><extensions><gom:speed>0.776</gom:speed></extensions></trkpt>
   <trkpt lat="59.0663392397" lon="30.0256190565"><ele>106.86</ele><time>2026-04-20T17:26:28.922Z</time><hdop>6.125</hdop><vdop>4.0</vdop><extensions><gom:speed>0.784</gom:speed></extensions></trkpt>
   <trkpt lat="59.0663387368" lon="30.0256174639"><ele>106.864</ele><time>2026-04-20T17:26:29.845Z</time><hdop>6.25</hdop><vdop>3.75</vdop><extensions><gom:speed>0.706</gom:speed></extensions></trkpt>
   <trkpt lat="59.0663369347" lon="30.0256117642"><ele>106.23</ele><time>2026-04-20T17:26:30.837Z</time><hdop>6.25</hdop><vdop>3.375</vdop><extensions><gom:speed>0.722</gom:speed></extensions></trkpt>
   <trkpt lat="59.0663378567" lon="30.025604472"><ele>106.461</ele><time>2026-04-20T17:26:31.715Z</time><hdop>6.125</hdop><vdop>4.0</vdop><extensions><gom:speed>0.696</gom:speed></extensions></trkpt>
   <trkpt lat="59.0663417542" lon="30.0255967606"><ele>106.782</ele><time>2026-04-20T17:26:32.762Z</time><hdop>5.875</hdop><vdop>3.875</vdop><extensions><gom:speed>0.611</gom:speed></extensions></trkpt>
   <trkpt lat="59.0663451489" lon="30.0255942461"><ele>106.924</ele><time>2026-04-20T17:26:33.835Z</time><hdop>5.625</hdop><vdop>3.875</vdop><extensions><gom:speed>0.555</gom:speed></extensions></trkpt>
   <trkpt lat="59.0663530279" lon="30.0255836849"><ele>106.719</ele><time>2026-04-20T17:26:34.914Z</time><hdop>5.25</hdop><vdop>3.75</vdop><extensions><gom:speed>0.562</gom:speed></extensions></trkpt>
   <trkpt lat="59.0663566321" lon="30.0255749677"><ele>106.651</ele><time>2026-04-20T17:26:35.803Z</time><hdop>5.0</hdop><vdop>3.625</vdop><extensions><gom:speed>0.563</gom:speed></extensions></trkpt>
   <trkpt lat="59.0663584342" lon="30.0255659152"><ele>106.415</ele><time>2026-04-20T17:26:36.660Z</time><hdop>4.875</hdop><vdop>3.625</vdop><extensions><gom:speed>0.56</gom:speed></extensions></trkpt>
   <trkpt lat="59.0663616194" lon="30.0255569466"><ele>106.236</ele><time>2026-04-20T17:26:37.579Z</time><hdop>4.625</hdop><vdop>3.625</vdop><extensions><gom:speed>0.571</gom:speed></extensions></trkpt>
   <trkpt lat="59.0663641339" lon="30.0255531747"><ele>106.217</ele><time>2026-04-20T17:26:38.076Z</time><hdop>4.625</hdop><vdop>3.625</vdop><extensions><gom:speed>0.552</gom:speed></extensions></trkpt>
   <trkpt lat="59.0663665228" lon="30.0255492352"><ele>106.206</ele><time>2026-04-20T17:26:38.655Z</time><hdop>4.5</hdop><vdop>3.625</vdop><extensions><gom:speed>0.491</gom:speed></extensions></trkpt>
   <trkpt lat="59.066368744" lon="30.0255442061"><ele>106.173</ele><time>2026-04-20T17:26:39.455Z</time><hdop>4.5</hdop><vdop>3.5</vdop><extensions><gom:speed>0.435</gom:speed></extensions></trkpt>
   <trkpt lat="59.0663697498" lon="30.0255401828"><ele>106.24</ele><time>2026-04-20T17:26:40.076Z</time><hdop>4.375</hdop><vdop>3.5</vdop><extensions><gom:speed>0.42</gom:speed></extensions></trkpt>
   <trkpt lat="59.0663704204" lon="30.0255325553"><ele>106.061</ele><time>2026-04-20T17:26:41.075Z</time><hdop>4.375</hdop><vdop>3.5</vdop><extensions><gom:speed>0.442</gom:speed></extensions></trkpt>
   <trkpt lat="59.0663719291" lon="30.0255246763"><ele>105.969</ele><time>2026-04-20T17:26:42.075Z</time><hdop>4.375</hdop><vdop>3.5</vdop><extensions><gom:speed>0.448</gom:speed></extensions></trkpt>
   <trkpt lat="59.0663749466" lon="30.0255163782"><ele>105.914</ele><time>2026-04-20T17:26:43.080Z</time><hdop>4.375</hdop><vdop>3.5</vdop><extensions><gom:speed>0.495</gom:speed></extensions></trkpt>
   <trkpt lat="59.0663794309" lon="30.0255096727"><ele>105.958</ele><time>2026-04-20T17:26:44.035Z</time><hdop>4.375</hdop><vdop>3.375</vdop><extensions><gom:speed>0.542</gom:speed></extensions></trkpt>
   <trkpt lat="59.0663848372" lon="30.0255027157"><ele>106.072</ele><time>2026-04-20T17:26:45.022Z</time><hdop>4.375</hdop><vdop>3.375</vdop><extensions><gom:speed>0.613</gom:speed></extensions></trkpt>
   <trkpt lat="59.0663907465" lon="30.0254968483"><ele>106.132</ele><time>2026-04-20T17:26:46.079Z</time><hdop>4.375</hdop><vdop>3.375</vdop><extensions><gom:speed>0.62</gom:speed></extensions></trkpt>
   <trkpt lat="59.0663960271" lon="30.0254960102"><ele>106.153</ele><time>2026-04-20T17:26:46.995Z</time><hdop>4.375</hdop><vdop>3.25</vdop><extensions><gom:speed>0.591</gom:speed></extensions></trkpt>
   <trkpt lat="59.0663973263" lon="30.025497016"><ele>106.153</ele><time>2026-04-20T17:26:48.075Z</time><hdop>4.375</hdop><vdop>3.25</vdop><extensions><gom:speed>0.477</gom:speed></extensions></trkpt>
   <trkpt lat="59.0663991284" lon="30.0254945852"><ele>106.154</ele><time>2026-04-20T17:26:49.002Z</time><hdop>4.375</hdop><vdop>3.25</vdop><extensions><gom:speed>0.433</gom:speed></extensions></trkpt>
   <trkpt lat="59.0664012239" lon="30.0254943338"><ele>106.173</ele><time>2026-04-20T17:26:49.860Z</time><hdop>4.375</hdop><vdop>3.5</vdop><extensions><gom:speed>0.473</gom:speed></extensions></trkpt>
   <trkpt lat="59.0664042413" lon="30.0254948367"><ele>106.176</ele><time>2026-04-20T17:26:50.717Z</time><hdop>4.375</hdop><vdop>3.625</vdop><extensions><gom:speed>0.53</gom:speed></extensions></trkpt>
   <trkpt lat="59.0664081389" lon="30.0254939985"><ele>105.222</ele><time>2026-04-20T17:26:51.596Z</time><hdop>4.375</hdop><vdop>3.25</vdop><extensions><gom:speed>0.568</gom:speed></extensions></trkpt>
   <trkpt lat="59.0664109469" lon="30.0254924059"><ele>104.951</ele><time>2026-04-20T17:26:52.075Z</time><hdop>4.375</hdop><vdop>3.125</vdop><extensions><gom:speed>0.585</gom:speed></extensions></trkpt>
   <trkpt lat="59.0664171495" lon="30.0254826829"><ele>104.968</ele><time>2026-04-20T17:26:53.075Z</time><hdop>4.375</hdop><vdop>3.0</vdop><extensions><gom:speed>0.587</gom:speed></extensions></trkpt>
   <trkpt lat="59.0664202508" lon="30.025472457"><ele>104.978</ele><time>2026-04-20T17:26:54.053Z</time><hdop>4.375</hdop><vdop>3.0</vdop><extensions><gom:speed>0.637</gom:speed></extensions></trkpt>
   <trkpt lat="59.0664257409" lon="30.0254594651"><ele>104.899</ele><time>2026-04-20T17:26:54.961Z</time><hdop>4.5</hdop><vdop>2.75</vdop><extensions><gom:speed>0.686</gom:speed></extensions></trkpt>
   <trkpt lat="59.0664322369" lon="30.0254479819"><ele>104.982</ele><time>2026-04-20T17:26:55.785Z</time><hdop>4.5</hdop><vdop>2.625</vdop><extensions><gom:speed>0.681</gom:speed></extensions></trkpt>
   <trkpt lat="59.0664401578" lon="30.025435409"><ele>104.913</ele><time>2026-04-20T17:26:56.758Z</time><hdop>4.5</hdop><vdop>2.75</vdop><extensions><gom:speed>0.713</gom:speed></extensions></trkpt>
   <trkpt lat="59.0664482463" lon="30.0254243449"><ele>104.981</ele><time>2026-04-20T17:26:57.658Z</time><hdop>4.625</hdop><vdop>2.75</vdop><extensions><gom:speed>0.725</gom:speed></extensions></trkpt>
   <trkpt lat="59.0664550357" lon="30.0254194834"><ele>105.329</ele><time>2026-04-20T17:26:58.591Z</time><hdop>4.625</hdop><vdop>2.75</vdop><extensions><gom:speed>0.685</gom:speed></extensions></trkpt>
   <trkpt lat="59.0664634176" lon="30.0254160468"><ele>105.469</ele><time>2026-04-20T17:26:59.075Z</time><hdop>4.625</hdop><vdop>2.75</vdop><extensions><gom:speed>0.667</gom:speed></extensions></trkpt>
   <trkpt lat="59.0664675247" lon="30.0254142028"><ele>105.553</ele><time>2026-04-20T17:26:59.660Z</time><hdop>4.625</hdop><vdop>2.75</vdop><extensions><gom:speed>0.654</gom:speed></extensions></trkpt>
   <trkpt lat="59.066475739" lon="30.0254054018"><ele>105.735</ele><time>2026-04-20T17:27:00.522Z</time><hdop>4.625</hdop><vdop>2.75</vdop><extensions><gom:speed>0.66</gom:speed></extensions></trkpt>
   <trkpt lat="59.0664812291" lon="30.0253991154"><ele>105.747</ele><time>2026-04-20T17:27:01.075Z</time><hdop>4.625</hdop><vdop>2.875</vdop><extensions><gom:speed>0.648</gom:speed></extensions></trkpt>
   <trkpt lat="59.0664904492" lon="30.0253924098"><ele>105.366</ele><time>2026-04-20T17:27:02.076Z</time><hdop>4.625</hdop><vdop>2.75</vdop><extensions><gom:speed>0.617</gom:speed></extensions></trkpt>
   <trkpt lat="59.0665004237" lon="30.0253873807"><ele>105.418</ele><time>2026-04-20T17:27:03.075Z</time><hdop>4.625</hdop><vdop>2.625</vdop><extensions><gom:speed>0.658</gom:speed></extensions></trkpt>
   <trkpt lat="59.066510943" lon="30.0253818486"><ele>105.532</ele><time>2026-04-20T17:27:04.075Z</time><hdop>4.5</hdop><vdop>2.75</vdop><extensions><gom:speed>0.689</gom:speed></extensions></trkpt>
   <trkpt lat="59.0665149244" lon="30.0253796693"><ele>105.6</ele><time>2026-04-20T17:27:04.750Z</time><hdop>4.5</hdop><vdop>2.75</vdop><extensions><gom:speed>0.687</gom:speed></extensions></trkpt>
   <trkpt lat="59.0665301375" lon="30.025368689"><ele>105.674</ele><time>2026-04-20T17:27:06.056Z</time><hdop>4.5</hdop><vdop>2.75</vdop><extensions><gom:speed>0.736</gom:speed></extensions></trkpt>
   <trkpt lat="59.0665392319" lon="30.0253615644"><ele>105.87</ele><time>2026-04-20T17:27:06.956Z</time><hdop>4.375</hdop><vdop>2.875</vdop><extensions><gom:speed>0.77</gom:speed></extensions></trkpt>
   <trkpt lat="59.0665488292" lon="30.0253558647"><ele>105.562</ele><time>2026-04-20T17:27:07.834Z</time><hdop>4.375</hdop><vdop>2.875</vdop><extensions><gom:speed>0.804</gom:speed></extensions></trkpt>
   <trkpt lat="59.0665589294" lon="30.0253485725"><ele>105.766</ele><time>2026-04-20T17:27:08.761Z</time><hdop>4.5</hdop><vdop>2.875</vdop><extensions><gom:speed>0.806</gom:speed></extensions></trkpt>
   <trkpt lat="59.0665709574" lon="30.0253425375"><ele>105.705</ele><time>2026-04-20T17:27:10.075Z</time><hdop>4.5</hdop><vdop>2.875</vdop><extensions><gom:speed>0.686</gom:speed></extensions></trkpt>
   <trkpt lat="59.0665726338" lon="30.0253424537"><ele>105.668</ele><time>2026-04-20T17:27:10.911Z</time><hdop>4.5</hdop><vdop>2.875</vdop><extensions><gom:speed>0.636</gom:speed></extensions></trkpt>
   <trkpt lat="59.0665833207" lon="30.0253375922"><ele>105.564</ele><time>2026-04-20T17:27:12.075Z</time><hdop>4.5</hdop><vdop>3.0</vdop><extensions><gom:speed>0.499</gom:speed></extensions></trkpt>
   <trkpt lat="59.0665869249" lon="30.0253360834"><ele>105.696</ele><time>2026-04-20T17:27:13.076Z</time><hdop>4.5</hdop><vdop>3.0</vdop><extensions><gom:speed>0.353</gom:speed></extensions></trkpt>
   <trkpt lat="59.0665881403" lon="30.0253350776"><ele>105.569</ele><time>2026-04-20T17:27:14.075Z</time><hdop>4.5</hdop><vdop>3.0</vdop><extensions><gom:speed>0.218</gom:speed></extensions></trkpt>
   <trkpt lat="59.0665898167" lon="30.0253324792"><ele>105.649</ele><time>2026-04-20T17:27:15.075Z</time><hdop>4.375</hdop><vdop>5.375</vdop><extensions><gom:speed>0.183</gom:speed></extensions></trkpt>
   <trkpt lat="59.0665897329" lon="30.0253315572"><ele>105.67</ele><time>2026-04-20T17:27:16.003Z</time><hdop>4.375</hdop><vdop>5.25</vdop><extensions><gom:speed>0.128</gom:speed></extensions></trkpt>
   <trkpt lat="59.0665920379" lon="30.025331641"><ele>105.485</ele><time>2026-04-20T17:27:17.075Z</time><hdop>4.375</hdop><vdop>5.125</vdop><extensions><gom:speed>0.098</gom:speed></extensions></trkpt>
   <trkpt lat="59.0665936304" lon="30.0253320601"><ele>105.052</ele><time>2026-04-20T17:27:18.016Z</time><hdop>4.375</hdop><vdop>4.875</vdop><extensions><gom:speed>0.09</gom:speed></extensions></trkpt>
   <trkpt lat="59.0665956421" lon="30.0253320601"><ele>104.553</ele><time>2026-04-20T17:27:19.075Z</time><hdop>4.375</hdop><vdop>4.75</vdop><extensions><gom:speed>0.111</gom:speed></extensions></trkpt>
   <trkpt lat="59.066596145" lon="30.0253323954"><ele>104.282</ele><time>2026-04-20T17:27:20.030Z</time><hdop>4.5</hdop><vdop>4.75</vdop><extensions><gom:speed>0.074</gom:speed></extensions></trkpt>
   <trkpt lat="59.0665953487" lon="30.0253329821"><ele>104.203</ele><time>2026-04-20T17:27:20.978Z</time><hdop>4.625</hdop><vdop>4.625</vdop><extensions><gom:speed>0.078</gom:speed></extensions></trkpt>
   <trkpt lat="59.066595223" lon="30.025332563"><ele>104.253</ele><time>2026-04-20T17:27:22.044Z</time><hdop>4.625</hdop><vdop>4.5</vdop><extensions><gom:speed>0.109</gom:speed></extensions></trkpt>
   <trkpt lat="59.0665977376" lon="30.0253323116"><ele>104.377</ele><time>2026-04-20T17:27:23.076Z</time><hdop>4.75</hdop><vdop>4.375</vdop><extensions><gom:speed>0.079</gom:speed></extensions></trkpt>
   <trkpt lat="59.0666010484" lon="30.0253308028"><ele>104.565</ele><time>2026-04-20T17:27:24.075Z</time><hdop>4.75</hdop><vdop>4.375</vdop><extensions><gom:speed>0.074</gom:speed></extensions></trkpt>
   <trkpt lat="59.0666042335" lon="30.0253294617"><ele>104.798</ele><time>2026-04-20T17:27:25.075Z</time><hdop>4.75</hdop><vdop>4.375</vdop><extensions><gom:speed>0.08</gom:speed></extensions></trkpt>
   <trkpt lat="59.066606329" lon="30.0253292103"><ele>104.985</ele><time>2026-04-20T17:27:26.076Z</time><hdop>4.75</hdop><vdop>4.25</vdop><extensions><gom:speed>0.102</gom:speed></extensions></trkpt>
   <trkpt lat="59.0666082569" lon="30.025327953"><ele>105.119</ele><time>2026-04-20T17:27:27.075Z</time><hdop>4.625</hdop><vdop>4.25</vdop><extensions><gom:speed>0.07</gom:speed></extensions></trkpt>
   <trkpt lat="59.0666097237" lon="30.0253277015"><ele>105.2</ele><time>2026-04-20T17:27:28.075Z</time><hdop>4.5</hdop><vdop>4.25</vdop><extensions><gom:speed>0.069</gom:speed></extensions></trkpt>
   <trkpt lat="59.0666109391" lon="30.0253280368"><ele>105.254</ele><time>2026-04-20T17:27:29.075Z</time><hdop>4.375</hdop><vdop>4.25</vdop><extensions><gom:speed>0.101</gom:speed></extensions></trkpt>
   <trkpt lat="59.0666124478" lon="30.0253287074"><ele>105.288</ele><time>2026-04-20T17:27:30.075Z</time><hdop>4.25</hdop><vdop>4.25</vdop><extensions><gom:speed>0.157</gom:speed></extensions></trkpt>
   <trkpt lat="59.0666140404" lon="30.0253289588"><ele>105.335</ele><time>2026-04-20T17:27:31.075Z</time><hdop>4.25</hdop><vdop>4.25</vdop><extensions><gom:speed>0.198</gom:speed></extensions></trkpt>
   <trkpt lat="59.0666158425" lon="30.0253292941"><ele>105.384</ele><time>2026-04-20T17:27:32.075Z</time><hdop>4.125</hdop><vdop>4.375</vdop><extensions><gom:speed>0.22</gom:speed></extensions></trkpt>
   <trkpt lat="59.0666176446" lon="30.0253292941"><ele>105.438</ele><time>2026-04-20T17:27:33.075Z</time><hdop>4.125</hdop><vdop>4.5</vdop><extensions><gom:speed>0.239</gom:speed></extensions></trkpt>
   <trkpt lat="59.0666192372" lon="30.0253287074"><ele>105.47</ele><time>2026-04-20T17:27:33.882Z</time><hdop>4.125</hdop><vdop>4.5</vdop><extensions><gom:speed>0.24</gom:speed></extensions></trkpt>
   <trkpt lat="59.0666213326" lon="30.0253266957"><ele>105.523</ele><time>2026-04-20T17:27:35.081Z</time><hdop>4.25</hdop><vdop>4.5</vdop><extensions><gom:speed>0.275</gom:speed></extensions></trkpt>
   <trkpt lat="59.0666218355" lon="30.0253264443"><ele>105.549</ele><time>2026-04-20T17:27:35.785Z</time><hdop>4.25</hdop><vdop>4.625</vdop><extensions><gom:speed>0.295</gom:speed></extensions></trkpt>
   <trkpt lat="59.0666249368" lon="30.0253238459"><ele>105.562</ele><time>2026-04-20T17:27:36.943Z</time><hdop>4.375</hdop><vdop>4.625</vdop><extensions><gom:speed>0.328</gom:speed></extensions></trkpt>
   <trkpt lat="59.0666261522" lon="30.0253217504"><ele>105.573</ele><time>2026-04-20T17:27:37.899Z</time><hdop>4.5</hdop><vdop>4.5</vdop><extensions><gom:speed>0.325</gom:speed></extensions></trkpt>
   <trkpt lat="59.0666297564" lon="30.0253157154"><ele>105.58</ele><time>2026-04-20T17:27:38.600Z</time><hdop>4.625</hdop><vdop>4.375</vdop><extensions><gom:speed>0.483</gom:speed></extensions></trkpt>
   <trkpt lat="59.0666358333" lon="30.0253056571"><ele>105.581</ele><time>2026-04-20T17:27:39.618Z</time><hdop>4.875</hdop><vdop>4.375</vdop><extensions><gom:speed>0.582</gom:speed></extensions></trkpt>
   <trkpt lat="59.0666419521" lon="30.0252981972"><ele>105.569</ele><time>2026-04-20T17:27:40.496Z</time><hdop>5.125</hdop><vdop>4.5</vdop><extensions><gom:speed>0.651</gom:speed></extensions></trkpt>
   <trkpt lat="59.0666455563" lon="30.0252953474"><ele>105.586</ele><time>2026-04-20T17:27:40.997Z</time><hdop>5.25</hdop><vdop>4.625</vdop><extensions><gom:speed>0.671</gom:speed></extensions></trkpt>
   <trkpt lat="59.0666492444" lon="30.0252919946"><ele>105.596</ele><time>2026-04-20T17:27:41.943Z</time><hdop>5.625</hdop><vdop>4.625</vdop><extensions><gom:speed>0.696</gom:speed></extensions></trkpt>
   <trkpt lat="59.0666563271" lon="30.0252873846"><ele>105.613</ele><time>2026-04-20T17:27:42.418Z</time><hdop>5.875</hdop><vdop>4.75</vdop><extensions><gom:speed>0.68</gom:speed></extensions></trkpt>
   <trkpt lat="59.0666589255" lon="30.0252841156"><ele>105.628</ele><time>2026-04-20T17:27:43.010Z</time><hdop>6.125</hdop><vdop>4.625</vdop><extensions><gom:speed>0.683</gom:speed></extensions></trkpt>
   <trkpt lat="59.0666636193" lon="30.0252774939"><ele>105.64</ele><time>2026-04-20T17:27:43.957Z</time><hdop>6.625</hdop><vdop>4.625</vdop><extensions><gom:speed>0.684</gom:speed></extensions></trkpt>
   <trkpt lat="59.0666696543" lon="30.0252717104"><ele>105.651</ele><time>2026-04-20T17:27:45.024Z</time><hdop>7.125</hdop><vdop>4.625</vdop><extensions><gom:speed>0.681</gom:speed></extensions></trkpt>
   <trkpt lat="59.0666759407" lon="30.0252674357"><ele>105.657</ele><time>2026-04-20T17:27:45.971Z</time><hdop>7.625</hdop><vdop>4.625</vdop><extensions><gom:speed>0.642</gom:speed></extensions></trkpt>
   <trkpt lat="59.0666788325" lon="30.025272381"><ele>105.83</ele><time>2026-04-20T17:27:47.076Z</time><hdop>8.0</hdop><vdop>3.75</vdop><extensions><gom:speed>0.585</gom:speed></extensions></trkpt>
   <trkpt lat="59.0666801317" lon="30.0252772425"><ele>105.067</ele><time>2026-04-20T17:27:48.075Z</time><hdop>7.875</hdop><vdop>3.625</vdop><extensions><gom:speed>0.56</gom:speed></extensions></trkpt>
   <trkpt lat="59.0666829396" lon="30.0252784998"><ele>105.303</ele><time>2026-04-20T17:27:49.075Z</time><hdop>7.625</hdop><vdop>3.25</vdop><extensions><gom:speed>0.549</gom:speed></extensions></trkpt>
   <trkpt lat="59.0666881364" lon="30.0252728839"><ele>105.444</ele><time>2026-04-20T17:27:50.022Z</time><hdop>7.375</hdop><vdop>3.25</vdop><extensions><gom:speed>0.631</gom:speed></extensions></trkpt>
   <trkpt lat="59.0666954287" lon="30.0252657593"><ele>106.201</ele><time>2026-04-20T17:27:50.999Z</time><hdop>6.875</hdop><vdop>3.0</vdop><extensions><gom:speed>0.713</gom:speed></extensions></trkpt>
   <trkpt lat="59.0667033496" lon="30.0252593052"><ele>106.812</ele><time>2026-04-20T17:27:51.994Z</time><hdop>6.375</hdop><vdop>3.0</vdop><extensions><gom:speed>0.714</gom:speed></extensions></trkpt>
   <trkpt lat="59.0667125277" lon="30.02525151"><ele>107.146</ele><time>2026-04-20T17:27:53.075Z</time><hdop>6.0</hdop><vdop>2.75</vdop><extensions><gom:speed>0.625</gom:speed></extensions></trkpt>
   <trkpt lat="59.0667189399" lon="30.0252437987"><ele>107.645</ele><time>2026-04-20T17:27:54.075Z</time><hdop>5.625</hdop><vdop>2.875</vdop><extensions><gom:speed>0.531</gom:speed></extensions></trkpt>
   <trkpt lat="59.0667247234" lon="30.0252345786"><ele>107.681</ele><time>2026-04-20T17:27:55.075Z</time><hdop>5.375</hdop><vdop>2.75</vdop><extensions><gom:speed>0.461</gom:speed></extensions></trkpt>
   <trkpt lat="59.0667255197" lon="30.0252329022"><ele>107.702</ele><time>2026-04-20T17:27:55.540Z</time><hdop>5.25</hdop><vdop>2.75</vdop><extensions><gom:speed>0.451</gom:speed></extensions></trkpt>
   <trkpt lat="59.066728621" lon="30.0252275378"><ele>107.217</ele><time>2026-04-20T17:27:56.075Z</time><hdop>5.125</hdop><vdop>2.75</vdop><extensions><gom:speed>0.48</gom:speed></extensions></trkpt>
   <trkpt lat="59.0667303393" lon="30.0252236821"><ele>106.928</ele><time>2026-04-20T17:27:56.634Z</time><hdop>5.0</hdop><vdop>2.75</vdop><extensions><gom:speed>0.389</gom:speed></extensions></trkpt>
   <trkpt lat="59.0667347398" lon="30.0252133724"><ele>106.229</ele><time>2026-04-20T17:27:57.641Z</time><hdop>4.75</hdop><vdop>2.5</vdop><extensions><gom:speed>0.389</gom:speed></extensions></trkpt>
   <trkpt lat="59.0667384278" lon="30.0252023921"><ele>105.904</ele><time>2026-04-20T17:27:58.579Z</time><hdop>4.625</hdop><vdop>2.5</vdop><extensions><gom:speed>0.448</gom:speed></extensions></trkpt>
   <trkpt lat="59.0667409424" lon="30.025195016"><ele>105.733</ele><time>2026-04-20T17:27:59.075Z</time><hdop>4.625</hdop><vdop>2.5</vdop><extensions><gom:speed>0.473</gom:speed></extensions></trkpt>
   <trkpt lat="59.0667435408" lon="30.0251894001"><ele>105.63</ele><time>2026-04-20T17:27:59.865Z</time><hdop>4.625</hdop><vdop>2.5</vdop><extensions><gom:speed>0.407</gom:speed></extensions></trkpt>
   <trkpt lat="59.0667470193" lon="30.0251854606"><ele>105.293</ele><time>2026-04-20T17:28:00.422Z</time><hdop>4.5</hdop><vdop>2.625</vdop><extensions><gom:speed>0.402</gom:speed></extensions></trkpt>
   <trkpt lat="59.0667529285" lon="30.0251807668"><ele>105.219</ele><time>2026-04-20T17:28:01.075Z</time><hdop>4.375</hdop><vdop>4.875</vdop><extensions><gom:speed>0.379</gom:speed></extensions></trkpt>
   <trkpt lat="59.0667551497" lon="30.0251785875"><ele>105.175</ele><time>2026-04-20T17:28:01.541Z</time><hdop>4.375</hdop><vdop>4.875</vdop><extensions><gom:speed>0.406</gom:speed></extensions></trkpt>
   <trkpt lat="59.0667589216" lon="30.0251740613"><ele>105.232</ele><time>2026-04-20T17:28:02.420Z</time><hdop>4.375</hdop><vdop>4.75</vdop><extensions><gom:speed>0.442</gom:speed></extensions></trkpt>
   <trkpt lat="59.0667637412" lon="30.0251683616"><ele>105.29</ele><time>2026-04-20T17:28:03.075Z</time><hdop>4.375</hdop><vdop>4.625</vdop><extensions><gom:speed>0.442</gom:speed></extensions></trkpt>
   <trkpt lat="59.0667706562" lon="30.025159812"><ele>105.363</ele><time>2026-04-20T17:28:04.076Z</time><hdop>4.375</hdop><vdop>4.5</vdop><extensions><gom:speed>0.47</gom:speed></extensions></trkpt>
   <trkpt lat="59.0667769427" lon="30.025148245"><ele>105.395</ele><time>2026-04-20T17:28:05.076Z</time><hdop>4.5</hdop><vdop>4.375</vdop><extensions><gom:speed>0.504</gom:speed></extensions></trkpt>
   <trkpt lat="59.0667808402" lon="30.0251355045"><ele>105.414</ele><time>2026-04-20T17:28:06.002Z</time><hdop>4.5</hdop><vdop>4.375</vdop><extensions><gom:speed>0.628</gom:speed></extensions></trkpt>
   <trkpt lat="59.0667830195" lon="30.0251293019"><ele>105.305</ele><time>2026-04-20T17:28:06.699Z</time><hdop>4.5</hdop><vdop>3.875</vdop><extensions><gom:speed>0.65</gom:speed></extensions></trkpt>
   <trkpt lat="59.0667889288" lon="30.02510424"><ele>105.56</ele><time>2026-04-20T17:28:07.858Z</time><hdop>4.5</hdop><vdop>3.5</vdop><extensions><gom:speed>0.722</gom:speed></extensions></trkpt>
   <trkpt lat="59.0667945447" lon="30.0250889011"><ele>105.562</ele><time>2026-04-20T17:28:08.895Z</time><hdop>4.5</hdop><vdop>3.125</vdop><extensions><gom:speed>0.721</gom:speed></extensions></trkpt>
   <trkpt lat="59.066799951" lon="30.0250749033"><ele>105.64</ele><time>2026-04-20T17:28:09.753Z</time><hdop>4.5</hdop><vdop>3.125</vdop><extensions><gom:speed>0.747</gom:speed></extensions></trkpt>
   <trkpt lat="59.0668068241" lon="30.0250578881"><ele>105.784</ele><time>2026-04-20T17:28:10.780Z</time><hdop>4.5</hdop><vdop>3.0</vdop><extensions><gom:speed>0.789</gom:speed></extensions></trkpt>
   <trkpt lat="59.0668128172" lon="30.025043555"><ele>105.744</ele><time>2026-04-20T17:28:11.638Z</time><hdop>4.625</hdop><vdop>2.875</vdop><extensions><gom:speed>0.754</gom:speed></extensions></trkpt>
   <trkpt lat="59.0668181397" lon="30.0250280485"><ele>105.382</ele><time>2026-04-20T17:28:12.557Z</time><hdop>4.625</hdop><vdop>2.875</vdop><extensions><gom:speed>0.759</gom:speed></extensions></trkpt>
   <trkpt lat="59.066822624" lon="30.0250137993"><ele>105.321</ele><time>2026-04-20T17:28:13.075Z</time><hdop>4.625</hdop><vdop>2.875</vdop><extensions><gom:speed>0.771</gom:speed></extensions></trkpt>
   <trkpt lat="59.0668272341" lon="30.0249998015"><ele>105.151</ele><time>2026-04-20T17:28:14.075Z</time><hdop>4.625</hdop><vdop>2.625</vdop><extensions><gom:speed>0.765</gom:speed></extensions></trkpt>
   <trkpt lat="59.0668327242" lon="30.0249845464"><ele>104.972</ele><time>2026-04-20T17:28:15.075Z</time><hdop>4.625</hdop><vdop>2.5</vdop><extensions><gom:speed>0.741</gom:speed></extensions></trkpt>
   <trkpt lat="59.0668391364" lon="30.0249718898"><ele>104.921</ele><time>2026-04-20T17:28:16.075Z</time><hdop>4.5</hdop><vdop>2.625</vdop><extensions><gom:speed>0.715</gom:speed></extensions></trkpt>
   <trkpt lat="59.0668447523" lon="30.0249617477"><ele>104.891</ele><time>2026-04-20T17:28:16.997Z</time><hdop>4.5</hdop><vdop>2.625</vdop><extensions><gom:speed>0.753</gom:speed></extensions></trkpt>
   <trkpt lat="59.0668507453" lon="30.0249506835"><ele>104.897</ele><time>2026-04-20T17:28:17.975Z</time><hdop>4.5</hdop><vdop>2.625</vdop><extensions><gom:speed>0.739</gom:speed></extensions></trkpt>
   <trkpt lat="59.0668574508" lon="30.0249374401"><ele>105.088</ele><time>2026-04-20T17:28:19.075Z</time><hdop>4.5</hdop><vdop>2.75</vdop><extensions><gom:speed>0.672</gom:speed></extensions></trkpt>
   <trkpt lat="59.066862941" lon="30.0249267113"><ele>105.258</ele><time>2026-04-20T17:28:20.075Z</time><hdop>4.5</hdop><vdop>2.625</vdop><extensions><gom:speed>0.606</gom:speed></extensions></trkpt>
   <trkpt lat="59.0668671319" lon="30.0249176588"><ele>105.207</ele><time>2026-04-20T17:28:21.075Z</time><hdop>4.375</hdop><vdop>4.0</vdop><extensions><gom:speed>0.475</gom:speed></extensions></trkpt>
   <trkpt lat="59.066868934" lon="30.0249117077"><ele>104.95</ele><time>2026-04-20T17:28:22.075Z</time><hdop>4.375</hdop><vdop>3.875</vdop><extensions><gom:speed>0.314</gom:speed></extensions></trkpt>
   <trkpt lat="59.0668701494" lon="30.0249082711"><ele>105.096</ele><time>2026-04-20T17:28:23.075Z</time><hdop>4.375</hdop><vdop>3.5</vdop><extensions><gom:speed>0.214</gom:speed></extensions></trkpt>
   <trkpt lat="59.0668710295" lon="30.0249074329"><ele>105.441</ele><time>2026-04-20T17:28:24.076Z</time><hdop>4.375</hdop><vdop>3.375</vdop><extensions><gom:speed>0.186</gom:speed></extensions></trkpt>
   <trkpt lat="59.0668713229" lon="30.0249070976"><ele>105.648</ele><time>2026-04-20T17:28:24.579Z</time><hdop>4.375</hdop><vdop>3.375</vdop><extensions><gom:speed>0.145</gom:speed></extensions></trkpt>
   <trkpt lat="59.0668723287" lon="30.0249045831"><ele>105.899</ele><time>2026-04-20T17:28:25.075Z</time><hdop>4.375</hdop><vdop>3.375</vdop><extensions><gom:speed>0.143</gom:speed></extensions></trkpt>
   <trkpt lat="59.0668734184" lon="30.0249029905"><ele>106.049</ele><time>2026-04-20T17:28:25.575Z</time><hdop>4.375</hdop><vdop>3.375</vdop><extensions><gom:speed>0.129</gom:speed></extensions></trkpt>
   <trkpt lat="59.0668750528" lon="30.0248998054"><ele>106.456</ele><time>2026-04-20T17:28:26.075Z</time><hdop>4.375</hdop><vdop>3.25</vdop><extensions><gom:speed>0.168</gom:speed></extensions></trkpt>
   <trkpt lat="59.0668758491" lon="30.0248978775"><ele>106.699</ele><time>2026-04-20T17:28:26.573Z</time><hdop>4.375</hdop><vdop>3.25</vdop><extensions><gom:speed>0.206</gom:speed></extensions></trkpt>
   <trkpt lat="59.066878238" lon="30.0248936028"><ele>106.624</ele><time>2026-04-20T17:28:27.076Z</time><hdop>4.375</hdop><vdop>3.125</vdop><extensions><gom:speed>0.228</gom:speed></extensions></trkpt>
   <trkpt lat="59.0668808363" lon="30.0248886575"><ele>106.58</ele><time>2026-04-20T17:28:27.718Z</time><hdop>4.375</hdop><vdop>3.125</vdop><extensions><gom:speed>0.308</gom:speed></extensions></trkpt>
   <trkpt lat="59.0668868294" lon="30.0248765037"><ele>106.517</ele><time>2026-04-20T17:28:28.655Z</time><hdop>4.375</hdop><vdop>3.125</vdop><extensions><gom:speed>0.43</gom:speed></extensions></trkpt>
   <trkpt lat="59.0668936188" lon="30.0248646014"><ele>106.6</ele><time>2026-04-20T17:28:29.682Z</time><hdop>4.375</hdop><vdop>3.125</vdop><extensions><gom:speed>0.518</gom:speed></extensions></trkpt>
   <trkpt lat="59.06690045" lon="30.0248553813"><ele>106.499</ele><time>2026-04-20T17:28:30.780Z</time><hdop>4.375</hdop><vdop>3.125</vdop><extensions><gom:speed>0.493</gom:speed></extensions></trkpt>
   <trkpt lat="59.0669038447" lon="30.0248506874"><ele>106.137</ele><time>2026-04-20T17:28:31.455Z</time><hdop>4.5</hdop><vdop>3.0</vdop><extensions><gom:speed>0.514</gom:speed></extensions></trkpt>
   <trkpt lat="59.0669097539" lon="30.0248454907"><ele>105.897</ele><time>2026-04-20T17:28:32.075Z</time><hdop>4.5</hdop><vdop>2.875</vdop><extensions><gom:speed>0.498</gom:speed></extensions></trkpt>
   <trkpt lat="59.0669127295" lon="30.0248419703"><ele>105.753</ele><time>2026-04-20T17:28:32.721Z</time><hdop>4.5</hdop><vdop>2.875</vdop><extensions><gom:speed>0.503</gom:speed></extensions></trkpt>
   <trkpt lat="59.0669179263" lon="30.0248353486"><ele>105.847</ele><time>2026-04-20T17:28:33.600Z</time><hdop>4.5</hdop><vdop>2.75</vdop><extensions><gom:speed>0.584</gom:speed></extensions></trkpt>
   <trkpt lat="59.0669211533" lon="30.0248320796"><ele>106.249</ele><time>2026-04-20T17:28:34.075Z</time><hdop>4.5</hdop><vdop>2.875</vdop><extensions><gom:speed>0.571</gom:speed></extensions></trkpt>
   <trkpt lat="59.0669237517" lon="30.0248293974"><ele>106.49</ele><time>2026-04-20T17:28:34.577Z</time><hdop>4.625</hdop><vdop>2.875</vdop><extensions><gom:speed>0.579</gom:speed></extensions></trkpt>
   <trkpt lat="59.0669267273" lon="30.0248260446"><ele>106.403</ele><time>2026-04-20T17:28:35.075Z</time><hdop>4.625</hdop><vdop>2.75</vdop><extensions><gom:speed>0.582</gom:speed></extensions></trkpt>
   <trkpt lat="59.0669290323" lon="30.0248223566"><ele>106.35</ele><time>2026-04-20T17:28:35.576Z</time><hdop>4.625</hdop><vdop>2.75</vdop><extensions><gom:speed>0.575</gom:speed></extensions></trkpt>
   <trkpt lat="59.0669315469" lon="30.0248167407"><ele>106.444</ele><time>2026-04-20T17:28:36.075Z</time><hdop>4.625</hdop><vdop>2.75</vdop><extensions><gom:speed>0.577</gom:speed></extensions></trkpt>
   <trkpt lat="59.0669355283" lon="30.024805509"><ele>106.032</ele><time>2026-04-20T17:28:37.076Z</time><hdop>4.625</hdop><vdop>2.625</vdop><extensions><gom:speed>0.579</gom:speed></extensions></trkpt>
   <trkpt lat="59.0669372466" lon="30.0248008151"><ele>105.786</ele><time>2026-04-20T17:28:37.615Z</time><hdop>4.625</hdop><vdop>2.625</vdop><extensions><gom:speed>0.586</gom:speed></extensions></trkpt>
   <trkpt lat="59.066941228" lon="30.0247915112"><ele>105.807</ele><time>2026-04-20T17:28:38.075Z</time><hdop>4.625</hdop><vdop>2.5</vdop><extensions><gom:speed>0.588</gom:speed></extensions></trkpt>
   <trkpt lat="59.066944455" lon="30.0247839675"><ele>105.773</ele><time>2026-04-20T17:28:39.076Z</time><hdop>4.625</hdop><vdop>2.5</vdop><extensions><gom:speed>0.514</gom:speed></extensions></trkpt>
   <trkpt lat="59.0669448322" lon="30.0247788545"><ele>105.752</ele><time>2026-04-20T17:28:39.681Z</time><hdop>4.625</hdop><vdop>2.5</vdop><extensions><gom:speed>0.507</gom:speed></extensions></trkpt>
   <trkpt lat="59.0669450417" lon="30.0247704726"><ele>105.386</ele><time>2026-04-20T17:28:40.599Z</time><hdop>4.625</hdop><vdop>2.5</vdop><extensions><gom:speed>0.469</gom:speed></extensions></trkpt>
   <trkpt lat="59.0669468438" lon="30.0247646891"><ele>105.142</ele><time>2026-04-20T17:28:41.075Z</time><hdop>4.625</hdop><vdop>2.5</vdop><extensions><gom:speed>0.515</gom:speed></extensions></trkpt>
   <trkpt lat="59.066953256" lon="30.0247543794"><ele>105.198</ele><time>2026-04-20T17:28:42.075Z</time><hdop>4.5</hdop><vdop>2.5</vdop><extensions><gom:speed>0.529</gom:speed></extensions></trkpt>
   <trkpt lat="59.0669564411" lon="30.0247522001"><ele>105.232</ele><time>2026-04-20T17:28:42.613Z</time><hdop>4.5</hdop><vdop>2.5</vdop><extensions><gom:speed>0.489</gom:speed></extensions></trkpt>
   <trkpt lat="59.0669605482" lon="30.0247501046"><ele>105.198</ele><time>2026-04-20T17:28:43.076Z</time><hdop>4.5</hdop><vdop>2.5</vdop><extensions><gom:speed>0.483</gom:speed></extensions></trkpt>
   <trkpt lat="59.0669647392" lon="30.0247472547"><ele>105.177</ele><time>2026-04-20T17:28:43.778Z</time><hdop>4.5</hdop><vdop>2.5</vdop><extensions><gom:speed>0.49</gom:speed></extensions></trkpt>
   <trkpt lat="59.0669712352" lon="30.0247421418"><ele>105.431</ele><time>2026-04-20T17:28:44.676Z</time><hdop>4.5</hdop><vdop>6.625</vdop><extensions><gom:speed>0.516</gom:speed></extensions></trkpt>
   <trkpt lat="59.0669777312" lon="30.0247377832"><ele>105.757</ele><time>2026-04-20T17:28:45.516Z</time><hdop>4.375</hdop><vdop>6.5</vdop><extensions><gom:speed>0.544</gom:speed></extensions></trkpt>
   <trkpt lat="59.0669809163" lon="30.0247348495"><ele>105.959</ele><time>2026-04-20T17:28:46.025Z</time><hdop>4.5</hdop><vdop>6.25</vdop><extensions><gom:speed>0.545</gom:speed></extensions></trkpt>
   <trkpt lat="59.0669840176" lon="30.0247319159"><ele>106.08</ele><time>2026-04-20T17:28:46.600Z</time><hdop>4.5</hdop><vdop>6.25</vdop><extensions><gom:speed>0.524</gom:speed></extensions></trkpt>
   <trkpt lat="59.0669870351" lon="30.0247292337"><ele>105.98</ele><time>2026-04-20T17:28:47.075Z</time><hdop>4.5</hdop><vdop>6.25</vdop><extensions><gom:speed>0.512</gom:speed></extensions></trkpt>
   <trkpt lat="59.0669901364" lon="30.0247242883"><ele>105.92</ele><time>2026-04-20T17:28:47.874Z</time><hdop>4.625</hdop><vdop>6.25</vdop><extensions><gom:speed>0.469</gom:speed></extensions></trkpt>
   <trkpt lat="59.0669920223" lon="30.0247186725"><ele>105.786</ele><time>2026-04-20T17:28:48.556Z</time><hdop>4.75</hdop><vdop>5.875</vdop><extensions><gom:speed>0.413</gom:speed></extensions></trkpt>
   <trkpt lat="59.0669957522" lon="30.0247125537"><ele>105.806</ele><time>2026-04-20T17:28:49.779Z</time><hdop>5.0</hdop><vdop>5.875</vdop><extensions><gom:speed>0.378</gom:speed></extensions></trkpt>
   <trkpt lat="59.0670006557" lon="30.0247119669"><ele>105.773</ele><time>2026-04-20T17:28:50.895Z</time><hdop>5.125</hdop><vdop>5.75</vdop><extensions><gom:speed>0.371</gom:speed></extensions></trkpt>
   <trkpt lat="59.067003757" lon="30.0247120508"><ele>105.728</ele><time>2026-04-20T17:28:51.982Z</time><hdop>5.375</hdop><vdop>5.75</vdop><extensions><gom:speed>0.398</gom:speed></extensions></trkpt>
   <trkpt lat="59.067007445" lon="30.0247081951"><ele>105.701</ele><time>2026-04-20T17:28:52.937Z</time><hdop>5.625</hdop><vdop>5.875</vdop><extensions><gom:speed>0.415</gom:speed></extensions></trkpt>
   <trkpt lat="59.0670114264" lon="30.0247045909"><ele>105.627</ele><time>2026-04-20T17:28:53.895Z</time><hdop>5.875</hdop><vdop>6.125</vdop><extensions><gom:speed>0.474</gom:speed></extensions></trkpt>
   <trkpt lat="59.0670158269" lon="30.0246985559"><ele>105.666</ele><time>2026-04-20T17:28:54.813Z</time><hdop>6.0</hdop><vdop>5.875</vdop><extensions><gom:speed>0.561</gom:speed></extensions></trkpt>
   <trkpt lat="59.0670211494" lon="30.0246900902"><ele>105.579</ele><time>2026-04-20T17:28:55.761Z</time><hdop>6.0</hdop><vdop>5.75</vdop><extensions><gom:speed>0.659</gom:speed></extensions></trkpt>
   <trkpt lat="59.0670298247" lon="30.0246770144"><ele>105.493</ele><time>2026-04-20T17:28:56.778Z</time><hdop>6.25</hdop><vdop>5.5</vdop><extensions><gom:speed>0.679</gom:speed></extensions></trkpt>
   <trkpt lat="59.0670310401" lon="30.0246770982"><ele>105.429</ele><time>2026-04-20T17:28:57.962Z</time><hdop>6.25</hdop><vdop>5.625</vdop><extensions><gom:speed>0.573</gom:speed></extensions></trkpt>
   <trkpt lat="59.0670326326" lon="30.0246698898"><ele>105.397</ele><time>2026-04-20T17:28:58.998Z</time><hdop>6.375</hdop><vdop>5.5</vdop><extensions><gom:speed>0.552</gom:speed></extensions></trkpt>
   <trkpt lat="59.0670327164" lon="30.0246620946"><ele>105.414</ele><time>2026-04-20T17:29:00.016Z</time><hdop>6.5</hdop><vdop>5.375</vdop><extensions><gom:speed>0.509</gom:speed></extensions></trkpt>
   <trkpt lat="59.0670319202" lon="30.024655892"><ele>105.383</ele><time>2026-04-20T17:29:00.913Z</time><hdop>6.625</hdop><vdop>5.25</vdop><extensions><gom:speed>0.441</gom:speed></extensions></trkpt>
   <trkpt lat="59.0670340575" lon="30.0246502761"><ele>105.334</ele><time>2026-04-20T17:29:02.016Z</time><hdop>6.75</hdop><vdop>4.625</vdop><extensions><gom:speed>0.38</gom:speed></extensions></trkpt>
   <trkpt lat="59.067036153" lon="30.0246440735"><ele>105.287</ele><time>2026-04-20T17:29:02.964Z</time><hdop>7.125</hdop><vdop>4.5</vdop><extensions><gom:speed>0.371</gom:speed></extensions></trkpt>
   <trkpt lat="59.0670362368" lon="30.0246406369"><ele>105.259</ele><time>2026-04-20T17:29:04.030Z</time><hdop>7.375</hdop><vdop>4.625</vdop><extensions><gom:speed>0.36</gom:speed></extensions></trkpt>
   <trkpt lat="59.0670383323" lon="30.0246380386"><ele>105.242</ele><time>2026-04-20T17:29:05.059Z</time><hdop>7.5</hdop><vdop>4.625</vdop><extensions><gom:speed>0.341</gom:speed></extensions></trkpt>
   <trkpt lat="59.0670406373" lon="30.0246374518"><ele>105.233</ele><time>2026-04-20T17:29:06.017Z</time><hdop>7.5</hdop><vdop>4.5</vdop><extensions><gom:speed>0.293</gom:speed></extensions></trkpt>
   <trkpt lat="59.0670423556" lon="30.024636446"><ele>105.237</ele><time>2026-04-20T17:29:06.992Z</time><hdop>7.625</hdop><vdop>4.5</vdop><extensions><gom:speed>0.325</gom:speed></extensions></trkpt>
   <trkpt lat="59.0670412241" lon="30.0246485997"><ele>105.243</ele><time>2026-04-20T17:29:08.075Z</time><hdop>7.5</hdop><vdop>4.375</vdop><extensions><gom:speed>0.32</gom:speed></extensions></trkpt>
   <trkpt lat="59.0670404278" lon="30.0246542994"><ele>105.247</ele><time>2026-04-20T17:29:08.530Z</time><hdop>7.375</hdop><vdop>4.375</vdop><extensions><gom:speed>0.351</gom:speed></extensions></trkpt>
   <trkpt lat="59.0670401344" lon="30.0246581551"><ele>104.673</ele><time>2026-04-20T17:29:09.075Z</time><hdop>7.125</hdop><vdop>3.75</vdop><extensions><gom:speed>0.387</gom:speed></extensions></trkpt>
   <trkpt lat="59.0670416432" lon="30.024656814"><ele>103.901</ele><time>2026-04-20T17:29:10.075Z</time><hdop>6.625</hdop><vdop>4.25</vdop><extensions><gom:speed>0.413</gom:speed></extensions></trkpt>
   <trkpt lat="59.0670429424" lon="30.0246488512"><ele>103.441</ele><time>2026-04-20T17:29:11.085Z</time><hdop>6.25</hdop><vdop>4.25</vdop><extensions><gom:speed>0.471</gom:speed></extensions></trkpt>
   <trkpt lat="59.0670461275" lon="30.0246369489"><ele>103.052</ele><time>2026-04-20T17:29:12.058Z</time><hdop>6.125</hdop><vdop>4.125</vdop><extensions><gom:speed>0.49</gom:speed></extensions></trkpt>
   <trkpt lat="59.0670533359" lon="30.0246214424"><ele>103.232</ele><time>2026-04-20T17:29:13.055Z</time><hdop>5.625</hdop><vdop>4.125</vdop><extensions><gom:speed>0.457</gom:speed></extensions></trkpt>
   <trkpt lat="59.0670654478" lon="30.0246024155"><ele>103.842</ele><time>2026-04-20T17:29:14.075Z</time><hdop>5.25</hdop><vdop>3.75</vdop><extensions><gom:speed>0.399</gom:speed></extensions></trkpt>
   <trkpt lat="59.0670683395" lon="30.0245988112"><ele>104.207</ele><time>2026-04-20T17:29:14.690Z</time><hdop>5.125</hdop><vdop>3.75</vdop><extensions><gom:speed>0.38</gom:speed></extensions></trkpt>
   <trkpt lat="59.0670752546" lon="30.0245903455"><ele>104.57</ele><time>2026-04-20T17:29:15.158Z</time><hdop>4.875</hdop><vdop>4.0</vdop><extensions><gom:speed>0.373</gom:speed></extensions></trkpt>
   <trkpt lat="59.0670808286" lon="30.024584562"><ele>104.415</ele><time>2026-04-20T17:29:16.075Z</time><hdop>4.875</hdop><vdop>4.25</vdop><extensions><gom:speed>0.351</gom:speed></extensions></trkpt>
   <trkpt lat="59.0670855224" lon="30.0245797005"><ele>104.323</ele><time>2026-04-20T17:29:16.956Z</time><hdop>4.75</hdop><vdop>4.25</vdop><extensions><gom:speed>0.442</gom:speed></extensions></trkpt>
   <trkpt lat="59.0670938205" lon="30.0245686364"><ele>104.213</ele><time>2026-04-20T17:29:17.864Z</time><hdop>4.75</hdop><vdop>4.375</vdop><extensions><gom:speed>0.557</gom:speed></extensions></trkpt>
   <trkpt lat="59.0671029568" lon="30.0245548901"><ele>104.365</ele><time>2026-04-20T17:29:18.760Z</time><hdop>4.625</hdop><vdop>4.375</vdop><extensions><gom:speed>0.691</gom:speed></extensions></trkpt>
   <trkpt lat="59.0671120511" lon="30.0245429039"><ele>104.767</ele><time>2026-04-20T17:29:19.638Z</time><hdop>4.625</hdop><vdop>4.5</vdop><extensions><gom:speed>0.721</gom:speed></extensions></trkpt>
   <trkpt lat="59.0671206426" lon="30.0245311693"><ele>105.257</ele><time>2026-04-20T17:29:20.517Z</time><hdop>4.75</hdop><vdop>4.625</vdop><extensions><gom:speed>0.739</gom:speed></extensions></trkpt>
   <trkpt lat="59.0671256298" lon="30.0245230388"><ele>105.615</ele><time>2026-04-20T17:29:20.968Z</time><hdop>4.875</hdop><vdop>4.75</vdop><extensions><gom:speed>0.74</gom:speed></extensions></trkpt>
   <trkpt lat="59.0671272224" lon="30.0245196861"><ele>105.828</ele><time>2026-04-20T17:29:21.455Z</time><hdop>5.0</hdop><vdop>4.75</vdop><extensions><gom:speed>0.748</gom:speed></extensions></trkpt>
   <trkpt lat="59.0671324192" lon="30.0245159142"><ele>105.925</ele><time>2026-04-20T17:29:22.076Z</time><hdop>5.0</hdop><vdop>4.875</vdop><extensions><gom:speed>0.721</gom:speed></extensions></trkpt>
   <trkpt lat="59.0671394181" lon="30.0245106336"><ele>106.137</ele><time>2026-04-20T17:29:22.982Z</time><hdop>5.125</hdop><vdop>5.0</vdop><extensions><gom:speed>0.731</gom:speed></extensions></trkpt>
   <trkpt lat="59.0671463331" lon="30.0245037605"><ele>106.253</ele><time>2026-04-20T17:29:24.047Z</time><hdop>5.25</hdop><vdop>5.125</vdop><extensions><gom:speed>0.736</gom:speed></extensions></trkpt>
   <trkpt lat="59.0671517395" lon="30.0244943727"><ele>106.273</ele><time>2026-04-20T17:29:24.995Z</time><hdop>5.5</hdop><vdop>5.125</vdop><extensions><gom:speed>0.719</gom:speed></extensions></trkpt>
   <trkpt lat="59.0671566429" lon="30.0244866614"><ele>106.327</ele><time>2026-04-20T17:29:26.076Z</time><hdop>5.625</hdop><vdop>5.125</vdop><extensions><gom:speed>0.657</gom:speed></extensions></trkpt>
   <trkpt lat="59.0671610434" lon="30.0244790338"><ele>106.357</ele><time>2026-04-20T17:29:27.010Z</time><hdop>5.75</hdop><vdop>5.5</vdop><extensions><gom:speed>0.652</gom:speed></extensions></trkpt>
   <trkpt lat="59.0671647314" lon="30.024468305"><ele>106.375</ele><time>2026-04-20T17:29:28.079Z</time><hdop>6.0</hdop><vdop>5.5</vdop><extensions><gom:speed>0.649</gom:speed></extensions></trkpt>
   <trkpt lat="59.0671677489" lon="30.0244574924"><ele>106.343</ele><time>2026-04-20T17:29:29.078Z</time><hdop>6.0</hdop><vdop>5.375</vdop><extensions><gom:speed>0.655</gom:speed></extensions></trkpt>
   <trkpt lat="59.0671710178" lon="30.0244491943"><ele>106.418</ele><time>2026-04-20T17:29:29.973Z</time><hdop>6.125</hdop><vdop>5.125</vdop><extensions><gom:speed>0.637</gom:speed></extensions></trkpt>
   <trkpt lat="59.0671759213" lon="30.0244390522"><ele>106.505</ele><time>2026-04-20T17:29:31.059Z</time><hdop>6.25</hdop><vdop>4.875</vdop><extensions><gom:speed>0.664</gom:speed></extensions></trkpt>
   <trkpt lat="59.0671835488" lon="30.0244375434"><ele>105.301</ele><time>2026-04-20T17:29:32.075Z</time><hdop>6.375</hdop><vdop>3.25</vdop><extensions><gom:speed>0.615</gom:speed></extensions></trkpt>
   <trkpt lat="59.0671901286" lon="30.0244332687"><ele>104.604</ele><time>2026-04-20T17:29:33.075Z</time><hdop>6.375</hdop><vdop>2.875</vdop><extensions><gom:speed>0.466</gom:speed></extensions></trkpt>
   <trkpt lat="59.0671971275" lon="30.0244286586"><ele>104.531</ele><time>2026-04-20T17:29:34.075Z</time><hdop>6.125</hdop><vdop>2.75</vdop><extensions><gom:speed>0.308</gom:speed></extensions></trkpt>
   <trkpt lat="59.0672032463" lon="30.0244263117"><ele>105.593</ele><time>2026-04-20T17:29:35.075Z</time><hdop>5.875</hdop><vdop>5.125</vdop><extensions><gom:speed>0.184</gom:speed></extensions></trkpt>
   <trkpt lat="59.0672086526" lon="30.0244232942"><ele>106.884</ele><time>2026-04-20T17:29:36.076Z</time><hdop>5.375</hdop><vdop>5.125</vdop><extensions><gom:speed>0.098</gom:speed></extensions></trkpt>
   <trkpt lat="59.0672130531" lon="30.024418265"><ele>107.73</ele><time>2026-04-20T17:29:37.076Z</time><hdop>5.125</hdop><vdop>5.0</vdop><extensions><gom:speed>0.076</gom:speed></extensions></trkpt>
   <trkpt lat="59.067217244" lon="30.024412733"><ele>108.498</ele><time>2026-04-20T17:29:38.075Z</time><hdop>4.625</hdop><vdop>5.0</vdop><extensions><gom:speed>0.084</gom:speed></extensions></trkpt>
   <trkpt lat="59.067221435" lon="30.0244069495"><ele>108.931</ele><time>2026-04-20T17:29:39.075Z</time><hdop>4.125</hdop><vdop>5.0</vdop><extensions><gom:speed>0.12</gom:speed></extensions></trkpt>
   <trkpt lat="59.06722374" lon="30.0244047702"><ele>108.943</ele><time>2026-04-20T17:29:40.038Z</time><hdop>3.875</hdop><vdop>5.125</vdop><extensions><gom:speed>0.123</gom:speed></extensions></trkpt>
   <trkpt lat="59.067227428" lon="30.0244027585"><ele>108.545</ele><time>2026-04-20T17:29:41.075Z</time><hdop>3.75</hdop><vdop>5.375</vdop><extensions><gom:speed>0.177</gom:speed></extensions></trkpt>
   <trkpt lat="59.0672301522" lon="30.024402088"><ele>108.043</ele><time>2026-04-20T17:29:42.052Z</time><hdop>3.75</hdop><vdop>5.625</vdop><extensions><gom:speed>0.194</gom:speed></extensions></trkpt>
   <trkpt lat="59.0672340497" lon="30.0244017527"><ele>107.71</ele><time>2026-04-20T17:29:43.075Z</time><hdop>3.625</hdop><vdop>5.5</vdop><extensions><gom:speed>0.163</gom:speed></extensions></trkpt>
   <trkpt lat="59.0672353489" lon="30.0244015012"><ele>107.676</ele><time>2026-04-20T17:29:43.947Z</time><hdop>3.75</hdop><vdop>5.5</vdop><extensions><gom:speed>0.137</gom:speed></extensions></trkpt>
   <trkpt lat="59.0672382407" lon="30.0243999925"><ele>107.781</ele><time>2026-04-20T17:29:45.075Z</time><hdop>3.875</hdop><vdop>5.5</vdop><extensions><gom:speed>0.1</gom:speed></extensions></trkpt>
   <trkpt lat="59.0672387436" lon="30.0243991543"><ele>107.844</ele><time>2026-04-20T17:29:45.605Z</time><hdop>3.875</hdop><vdop>5.5</vdop><extensions><gom:speed>0.079</gom:speed></extensions></trkpt>
   <trkpt lat="59.0672418449" lon="30.0243987352"><ele>107.352</ele><time>2026-04-20T17:29:47.075Z</time><hdop>3.875</hdop><vdop>5.75</vdop><extensions><gom:speed>0.075</gom:speed></extensions></trkpt>
   <trkpt lat="59.0672418449" lon="30.0243992381"><ele>106.857</ele><time>2026-04-20T17:29:47.975Z</time><hdop>4.0</hdop><vdop>5.625</vdop><extensions><gom:speed>0.065</gom:speed></extensions></trkpt>
   <trkpt lat="59.0672432279" lon="30.0244012498"><ele>106.416</ele><time>2026-04-20T17:29:49.076Z</time><hdop>4.0</hdop><vdop>5.625</vdop><extensions><gom:speed>0.095</gom:speed></extensions></trkpt>
   <trkpt lat="59.0672447367" lon="30.0244028423"><ele>106.22</ele><time>2026-04-20T17:29:49.989Z</time><hdop>4.125</hdop><vdop>5.75</vdop><extensions><gom:speed>0.067</gom:speed></extensions></trkpt>
   <trkpt lat="59.0672459521" lon="30.0244032614"><ele>105.967</ele><time>2026-04-20T17:29:51.075Z</time><hdop>4.125</hdop><vdop>5.75</vdop><extensions><gom:speed>0.069</gom:speed></extensions></trkpt>
   <trkpt lat="59.0672458263" lon="30.0244027585"><ele>105.816</ele><time>2026-04-20T17:29:51.883Z</time><hdop>4.125</hdop><vdop>5.75</vdop><extensions><gom:speed>0.067</gom:speed></extensions></trkpt>
   <trkpt lat="59.0672473351" lon="30.0244043511"><ele>105.442</ele><time>2026-04-20T17:29:53.075Z</time><hdop>4.25</hdop><vdop>5.75</vdop><extensions><gom:speed>0.144</gom:speed></extensions></trkpt>
   <trkpt lat="59.0672484247" lon="30.0244067818"><ele>105.122</ele><time>2026-04-20T17:29:54.076Z</time><hdop>4.25</hdop><vdop>5.75</vdop><extensions><gom:speed>0.189</gom:speed></extensions></trkpt>
   <trkpt lat="59.0672496401" lon="30.0244095479"><ele>104.842</ele><time>2026-04-20T17:29:55.075Z</time><hdop>4.25</hdop><vdop>6.375</vdop><extensions><gom:speed>0.231</gom:speed></extensions></trkpt>
   <trkpt lat="59.0672513165" lon="30.0244116433"><ele>104.681</ele><time>2026-04-20T17:29:56.075Z</time><hdop>4.125</hdop><vdop>6.75</vdop><extensions><gom:speed>0.271</gom:speed></extensions></trkpt>
   <trkpt lat="59.0672531186" lon="30.0244121463"><ele>104.584</ele><time>2026-04-20T17:29:56.774Z</time><hdop>4.125</hdop><vdop>6.75</vdop><extensions><gom:speed>0.28</gom:speed></extensions></trkpt>
   <trkpt lat="59.0672555493" lon="30.0244113919"><ele>104.529</ele><time>2026-04-20T17:29:57.918Z</time><hdop>4.125</hdop><vdop>6.625</vdop><extensions><gom:speed>0.285</gom:speed></extensions></trkpt>
   <trkpt lat="59.0672574353" lon="30.0244097155"><ele>104.469</ele><time>2026-04-20T17:29:58.796Z</time><hdop>4.25</hdop><vdop>6.5</vdop><extensions><gom:speed>0.297</gom:speed></extensions></trkpt>
   <trkpt lat="59.0672607461" lon="30.0244080391"><ele>104.408</ele><time>2026-04-20T17:29:59.596Z</time><hdop>4.375</hdop><vdop>6.5</vdop><extensions><gom:speed>0.403</gom:speed></extensions></trkpt>
   <trkpt lat="59.0672652304" lon="30.0244073686"><ele>104.326</ele><time>2026-04-20T17:30:00.417Z</time><hdop>4.5</hdop><vdop>6.5</vdop><extensions><gom:speed>0.533</gom:speed></extensions></trkpt>
   <trkpt lat="59.0672688346" lon="30.0244077877"><ele>104.263</ele><time>2026-04-20T17:30:01.004Z</time><hdop>4.625</hdop><vdop>6.375</vdop><extensions><gom:speed>0.557</gom:speed></extensions></trkpt>
   <trkpt lat="59.0672751211" lon="30.0244063627"><ele>104.213</ele><time>2026-04-20T17:30:01.953Z</time><hdop>4.875</hdop><vdop>6.25</vdop><extensions><gom:speed>0.607</gom:speed></extensions></trkpt>
   <trkpt lat="59.0672819523" lon="30.0244022556"><ele>104.175</ele><time>2026-04-20T17:30:03.018Z</time><hdop>5.125</hdop><vdop>6.25</vdop><extensions><gom:speed>0.616</gom:speed></extensions></trkpt>
   <trkpt lat="59.0672882388" lon="30.0243987352"><ele>104.157</ele><time>2026-04-20T17:30:03.965Z</time><hdop>5.5</hdop><vdop>6.25</vdop><extensions><gom:speed>0.638</gom:speed></extensions></trkpt>
   <trkpt lat="59.0672950281" lon="30.0243944604"><ele>104.135</ele><time>2026-04-20T17:30:05.031Z</time><hdop>5.875</hdop><vdop>6.25</vdop><extensions><gom:speed>0.632</gom:speed></extensions></trkpt>
   <trkpt lat="59.0673013564" lon="30.0243908562"><ele>104.123</ele><time>2026-04-20T17:30:06.060Z</time><hdop>6.25</hdop><vdop>6.25</vdop><extensions><gom:speed>0.626</gom:speed></extensions></trkpt>
   <trkpt lat="59.0673063437" lon="30.0243876711"><ele>104.103</ele><time>2026-04-20T17:30:07.045Z</time><hdop>6.5</hdop><vdop>6.5</vdop><extensions><gom:speed>0.577</gom:speed></extensions></trkpt>
   <trkpt lat="59.0673098222" lon="30.0243850727"><ele>104.074</ele><time>2026-04-20T17:30:07.993Z</time><hdop>6.875</hdop><vdop>6.625</vdop><extensions><gom:speed>0.505</gom:speed></extensions></trkpt>
   <trkpt lat="59.0673145579" lon="30.0243809656"><ele>104.057</ele><time>2026-04-20T17:30:09.085Z</time><hdop>7.375</hdop><vdop>6.625</vdop><extensions><gom:speed>0.547</gom:speed></extensions></trkpt>
   <trkpt lat="59.0673198385" lon="30.0243757688"><ele>104.044</ele><time>2026-04-20T17:30:10.019Z</time><hdop>7.625</hdop><vdop>6.875</vdop><extensions><gom:speed>0.578</gom:speed></extensions></trkpt>
   <trkpt lat="59.0673215568" lon="30.0243735057"><ele>103.998</ele><time>2026-04-20T17:30:10.480Z</time><hdop>7.625</hdop><vdop>6.75</vdop><extensions><gom:speed>0.598</gom:speed></extensions></trkpt>
   <trkpt lat="59.0673287233" lon="30.0243660458"><ele>103.971</ele><time>2026-04-20T17:30:11.036Z</time><hdop>8.0</hdop><vdop>6.75</vdop><extensions><gom:speed>0.608</gom:speed></extensions></trkpt>
   <trkpt lat="59.0673333334" lon="30.0243605137"><ele>103.938</ele><time>2026-04-20T17:30:12.020Z</time><hdop>8.125</hdop><vdop>6.25</vdop><extensions><gom:speed>0.555</gom:speed></extensions></trkpt>
   <trkpt lat="59.0673387397" lon="30.0243559037"><ele>103.918</ele><time>2026-04-20T17:30:13.084Z</time><hdop>8.625</hdop><vdop>6.25</vdop><extensions><gom:speed>0.558</gom:speed></extensions></trkpt>
   <trkpt lat="59.067344146" lon="30.0243802112"><ele>104.953</ele><time>2026-04-20T17:30:14.075Z</time><hdop>8.5</hdop><vdop>4.75</vdop><extensions><gom:speed>0.605</gom:speed></extensions></trkpt>
   <trkpt lat="59.0673505163" lon="30.0243898504"><ele>105.572</ele><time>2026-04-20T17:30:15.035Z</time><hdop>8.0</hdop><vdop>4.75</vdop><extensions><gom:speed>0.636</gom:speed></extensions></trkpt>
   <trkpt lat="59.0673609518" lon="30.0244044349"><ele>107.937</ele><time>2026-04-20T17:30:15.988Z</time><hdop>7.625</hdop><vdop>4.5</vdop><extensions><gom:speed>0.646</gom:speed></extensions></trkpt>
   <trkpt lat="59.0673691241" lon="30.024412733"><ele>108.704</ele><time>2026-04-20T17:30:16.639Z</time><hdop>7.25</hdop><vdop>6.75</vdop><extensions><gom:speed>0.626</gom:speed></extensions></trkpt>
   <trkpt lat="59.0673938507" lon="30.024418265"><ele>109.355</ele><time>2026-04-20T17:30:18.054Z</time><hdop>6.625</hdop><vdop>6.625</vdop><extensions><gom:speed>0.635</gom:speed></extensions></trkpt>
   <trkpt lat="59.0674102374" lon="30.0244211149"><ele>109.81</ele><time>2026-04-20T17:30:18.912Z</time><hdop>6.25</hdop><vdop>6.375</vdop><extensions><gom:speed>0.714</gom:speed></extensions></trkpt>
   <trkpt lat="59.0674267497" lon="30.0244209473"><ele>110.284</ele><time>2026-04-20T17:30:19.880Z</time><hdop>6.125</hdop><vdop>6.0</vdop><extensions><gom:speed>0.745</gom:speed></extensions></trkpt>
   <trkpt lat="59.0674416276" lon="30.0244177621"><ele>110.638</ele><time>2026-04-20T17:30:20.838Z</time><hdop>5.875</hdop><vdop>5.75</vdop><extensions><gom:speed>0.753</gom:speed></extensions></trkpt>
   <trkpt lat="59.0674541166" lon="30.0244129844"><ele>110.883</ele><time>2026-04-20T17:30:21.657Z</time><hdop>5.75</hdop><vdop>5.5</vdop><extensions><gom:speed>0.811</gom:speed></extensions></trkpt>
   <trkpt lat="59.0674656417" lon="30.0244064466"><ele>111.009</ele><time>2026-04-20T17:30:22.497Z</time><hdop>5.625</hdop><vdop>5.75</vdop><extensions><gom:speed>0.819</gom:speed></extensions></trkpt>
   <trkpt lat="59.0674754486" lon="30.0243996572"><ele>111.13</ele><time>2026-04-20T17:30:23.075Z</time><hdop>5.5</hdop><vdop>5.5</vdop><extensions><gom:speed>0.799</gom:speed></extensions></trkpt>
   <trkpt lat="59.0674843334" lon="30.0243943766"><ele>111.023</ele><time>2026-04-20T17:30:24.075Z</time><hdop>5.375</hdop><vdop>5.375</vdop><extensions><gom:speed>0.777</gom:speed></extensions></trkpt>
   <trkpt lat="59.0674884405" lon="30.0243921135"><ele>110.959</ele><time>2026-04-20T17:30:24.559Z</time><hdop>5.375</hdop><vdop>5.375</vdop><extensions><gom:speed>0.797</gom:speed></extensions></trkpt>
   <trkpt lat="59.0674955232" lon="30.0243887607"><ele>110.657</ele><time>2026-04-20T17:30:25.459Z</time><hdop>5.375</hdop><vdop>5.25</vdop><extensions><gom:speed>0.8</gom:speed></extensions></trkpt>
   <trkpt lat="59.0675018516" lon="30.0243901857"><ele>110.474</ele><time>2026-04-20T17:30:26.076Z</time><hdop>5.375</hdop><vdop>5.125</vdop><extensions><gom:speed>0.769</gom:speed></extensions></trkpt>
   <trkpt lat="59.0675092276" lon="30.0243904371"><ele>110.212</ele><time>2026-04-20T17:30:26.945Z</time><hdop>5.375</hdop><vdop>5.375</vdop><extensions><gom:speed>0.751</gom:speed></extensions></trkpt>
   <trkpt lat="59.067511826" lon="30.024389096"><ele>110.056</ele><time>2026-04-20T17:30:27.520Z</time><hdop>5.5</hdop><vdop>5.375</vdop><extensions><gom:speed>0.696</gom:speed></extensions></trkpt>
   <trkpt lat="59.0675151369" lon="30.0243871682"><ele>110.019</ele><time>2026-04-20T17:30:28.011Z</time><hdop>5.5</hdop><vdop>5.375</vdop><extensions><gom:speed>0.692</gom:speed></extensions></trkpt>
   <trkpt lat="59.0675174419" lon="30.0243851565"><ele>109.996</ele><time>2026-04-20T17:30:28.577Z</time><hdop>5.625</hdop><vdop>5.375</vdop><extensions><gom:speed>0.622</gom:speed></extensions></trkpt>
   <trkpt lat="59.0675239379" lon="30.0243774452"><ele>109.807</ele><time>2026-04-20T17:30:30.024Z</time><hdop>5.875</hdop><vdop>5.375</vdop><extensions><gom:speed>0.517</gom:speed></extensions></trkpt>
   <trkpt lat="59.0675239379" lon="30.0243759364"><ele>109.693</ele><time>2026-04-20T17:30:30.659Z</time><hdop>6.0</hdop><vdop>5.375</vdop><extensions><gom:speed>0.419</gom:speed></extensions></trkpt>
   <trkpt lat="59.067524357" lon="30.0243722484"><ele>109.682</ele><time>2026-04-20T17:30:31.482Z</time><hdop>6.125</hdop><vdop>5.375</vdop><extensions><gom:speed>0.374</gom:speed></extensions></trkpt>
   <trkpt lat="59.0675247342" lon="30.0243688956"><ele>109.724</ele><time>2026-04-20T17:30:32.039Z</time><hdop>6.125</hdop><vdop>5.25</vdop><extensions><gom:speed>0.386</gom:speed></extensions></trkpt>
   <trkpt lat="59.0675275421" lon="30.0243647047"><ele>109.796</ele><time>2026-04-20T17:30:32.987Z</time><hdop>6.375</hdop><vdop>5.125</vdop><extensions><gom:speed>0.378</gom:speed></extensions></trkpt>
   <trkpt lat="59.0675307272" lon="30.0243636989"><ele>109.508</ele><time>2026-04-20T17:30:33.934Z</time><hdop>6.625</hdop><vdop>4.875</vdop><extensions><gom:speed>0.372</gom:speed></extensions></trkpt>
   <trkpt lat="59.0675332418" lon="30.0243670516"><ele>109.335</ele><time>2026-04-20T17:30:34.994Z</time><hdop>6.625</hdop><vdop>4.875</vdop><extensions><gom:speed>0.333</gom:speed></extensions></trkpt>
   <trkpt lat="59.0675372232" lon="30.0243665487"><ele>109.238</ele><time>2026-04-20T17:30:35.900Z</time><hdop>6.875</hdop><vdop>4.75</vdop><extensions><gom:speed>0.379</gom:speed></extensions></trkpt>
   <trkpt lat="59.0675399473" lon="30.0243605976"><ele>109.187</ele><time>2026-04-20T17:30:37.016Z</time><hdop>7.125</hdop><vdop>4.75</vdop><extensions><gom:speed>0.412</gom:speed></extensions></trkpt>
   <trkpt lat="59.0675377261" lon="30.0243653752"><ele>109.159</ele><time>2026-04-20T17:30:37.934Z</time><hdop>7.125</hdop><vdop>4.75</vdop><extensions><gom:speed>0.409</gom:speed></extensions></trkpt>
   <trkpt lat="59.0675400311" lon="30.0243642018"><ele>109.141</ele><time>2026-04-20T17:30:38.793Z</time><hdop>7.125</hdop><vdop>4.75</vdop><extensions><gom:speed>0.469</gom:speed></extensions></trkpt>
   <trkpt lat="59.0675443478" lon="30.0243607652"><ele>109.15</ele><time>2026-04-20T17:30:39.515Z</time><hdop>7.125</hdop><vdop>4.625</vdop><extensions><gom:speed>0.555</gom:speed></extensions></trkpt>
   <trkpt lat="59.0675478263" lon="30.0243586697"><ele>109.157</ele><time>2026-04-20T17:30:39.974Z</time><hdop>7.125</hdop><vdop>4.625</vdop><extensions><gom:speed>0.571</gom:speed></extensions></trkpt>
   <trkpt lat="59.0675518496" lon="30.0243566581"><ele>109.161</ele><time>2026-04-20T17:30:40.488Z</time><hdop>7.125</hdop><vdop>4.625</vdop><extensions><gom:speed>0.651</gom:speed></extensions></trkpt>
   <trkpt lat="59.0675566273" lon="30.0243550655"><ele>109.093</ele><time>2026-04-20T17:30:41.040Z</time><hdop>7.25</hdop><vdop>4.5</vdop><extensions><gom:speed>0.674</gom:speed></extensions></trkpt>
   <trkpt lat="59.0675689487" lon="30.0243523833"><ele>108.822</ele><time>2026-04-20T17:30:41.988Z</time><hdop>7.375</hdop><vdop>4.5</vdop><extensions><gom:speed>0.741</gom:speed></extensions></trkpt>
   <trkpt lat="59.0675746484" lon="30.0243503716"><ele>108.661</ele><time>2026-04-20T17:30:43.038Z</time><hdop>7.625</hdop><vdop>4.5</vdop><extensions><gom:speed>0.744</gom:speed></extensions></trkpt>
   <trkpt lat="59.0675721338" lon="30.0243510422"><ele>108.35</ele><time>2026-04-20T17:30:43.915Z</time><hdop>7.625</hdop><vdop>4.0</vdop><extensions><gom:speed>0.751</gom:speed></extensions></trkpt>
   <trkpt lat="59.0675715471" lon="30.0243451749"><ele>107.544</ele><time>2026-04-20T17:30:44.933Z</time><hdop>7.5</hdop><vdop>3.625</vdop><extensions><gom:speed>0.738</gom:speed></extensions></trkpt>
   <trkpt lat="59.0675747322" lon="30.0243391399"><ele>106.916</ele><time>2026-04-20T17:30:45.782Z</time><hdop>7.25</hdop><vdop>3.5</vdop><extensions><gom:speed>0.721</gom:speed></extensions></trkpt>
   <trkpt lat="59.0675795518" lon="30.0243346975"><ele>106.349</ele><time>2026-04-20T17:30:46.525Z</time><hdop>6.875</hdop><vdop>3.5</vdop><extensions><gom:speed>0.604</gom:speed></extensions></trkpt>
   <trkpt lat="59.0675846228" lon="30.0243334402"><ele>106.088</ele><time>2026-04-20T17:30:47.076Z</time><hdop>6.75</hdop><vdop>3.875</vdop><extensions><gom:speed>0.601</gom:speed></extensions></trkpt>
   <trkpt lat="59.0675854191" lon="30.0243327696"><ele>105.933</ele><time>2026-04-20T17:30:47.555Z</time><hdop>6.625</hdop><vdop>3.875</vdop><extensions><gom:speed>0.523</gom:speed></extensions></trkpt>
   <trkpt lat="59.0675943459" lon="30.0243320153"><ele>105.972</ele><time>2026-04-20T17:30:48.075Z</time><hdop>6.125</hdop><vdop>3.875</vdop><extensions><gom:speed>0.464</gom:speed></extensions></trkpt>
   <trkpt lat="59.067602141" lon="30.0243266508"><ele>106.365</ele><time>2026-04-20T17:30:49.075Z</time><hdop>5.75</hdop><vdop>3.625</vdop><extensions><gom:speed>0.397</gom:speed></extensions></trkpt>
   <trkpt lat="59.0676095171" lon="30.0243189395"><ele>106.335</ele><time>2026-04-20T17:30:50.075Z</time><hdop>5.5</hdop><vdop>3.625</vdop><extensions><gom:speed>0.366</gom:speed></extensions></trkpt>
   <trkpt lat="59.0676189467" lon="30.0243087136"><ele>106.812</ele><time>2026-04-20T17:30:51.076Z</time><hdop>5.125</hdop><vdop>5.875</vdop><extensions><gom:speed>0.344</gom:speed></extensions></trkpt>
   <trkpt lat="59.067622551" lon="30.0243006669"><ele>107.097</ele><time>2026-04-20T17:30:52.039Z</time><hdop>4.875</hdop><vdop>5.875</vdop><extensions><gom:speed>0.372</gom:speed></extensions></trkpt>
   <trkpt lat="59.0676302204" lon="30.0242892676"><ele>107.172</ele><time>2026-04-20T17:30:52.938Z</time><hdop>4.75</hdop><vdop>5.875</vdop><extensions><gom:speed>0.464</gom:speed></extensions></trkpt>
   <trkpt lat="59.0676391471" lon="30.0242757727"><ele>106.516</ele><time>2026-04-20T17:30:53.817Z</time><hdop>4.5</hdop><vdop>4.875</vdop><extensions><gom:speed>0.583</gom:speed></extensions></trkpt>
   <trkpt lat="59.0676480319" lon="30.0242606015"><ele>106.232</ele><time>2026-04-20T17:30:54.794Z</time><hdop>4.375</hdop><vdop>4.25</vdop><extensions><gom:speed>0.657</gom:speed></extensions></trkpt>
   <trkpt lat="59.0676562462" lon="30.0242461008"><ele>106.594</ele><time>2026-04-20T17:30:55.722Z</time><hdop>4.125</hdop><vdop>3.875</vdop><extensions><gom:speed>0.665</gom:speed></extensions></trkpt>
   <trkpt lat="59.0676643347" lon="30.0242341146"><ele>107.275</ele><time>2026-04-20T17:30:56.660Z</time><hdop>4.0</hdop><vdop>3.625</vdop><extensions><gom:speed>0.649</gom:speed></extensions></trkpt>
   <trkpt lat="59.0676734291" lon="30.0242210389"><ele>107.903</ele><time>2026-04-20T17:30:57.834Z</time><hdop>3.875</hdop><vdop>3.5</vdop><extensions><gom:speed>0.665</gom:speed></extensions></trkpt>
   <trkpt lat="59.0676812243" lon="30.0242090527"><ele>108.563</ele><time>2026-04-20T17:30:58.742Z</time><hdop>3.875</hdop><vdop>4.75</vdop><extensions><gom:speed>0.684</gom:speed></extensions></trkpt>
   <trkpt lat="59.0676890195" lon="30.0241989106"><ele>108.795</ele><time>2026-04-20T17:30:59.621Z</time><hdop>4.0</hdop><vdop>4.5</vdop><extensions><gom:speed>0.687</gom:speed></extensions></trkpt>
   <trkpt lat="59.0676965213" lon="30.0241919537"><ele>108.98</ele><time>2026-04-20T17:31:00.075Z</time><hdop>4.125</hdop><vdop>4.375</vdop><extensions><gom:speed>0.667</gom:speed></extensions></trkpt>
   <trkpt lat="59.0676996226" lon="30.0241893553"><ele>109.091</ele><time>2026-04-20T17:31:00.597Z</time><hdop>4.125</hdop><vdop>4.375</vdop><extensions><gom:speed>0.709</gom:speed></extensions></trkpt>
   <trkpt lat="59.0677047355" lon="30.0241875113"><ele>109.099</ele><time>2026-04-20T17:31:01.075Z</time><hdop>4.125</hdop><vdop>4.375</vdop><extensions><gom:speed>0.694</gom:speed></extensions></trkpt>
   <trkpt lat="59.0677087169" lon="30.0241860025"><ele>109.103</ele><time>2026-04-20T17:31:01.594Z</time><hdop>4.25</hdop><vdop>4.375</vdop><extensions><gom:speed>0.664</gom:speed></extensions></trkpt>
   <trkpt lat="59.0677138299" lon="30.0241849967"><ele>109.163</ele><time>2026-04-20T17:31:02.075Z</time><hdop>4.25</hdop><vdop>4.375</vdop><extensions><gom:speed>0.643</gom:speed></extensions></trkpt>
   <trkpt lat="59.0677192362" lon="30.0241837394"><ele>109.198</ele><time>2026-04-20T17:31:02.760Z</time><hdop>4.375</hdop><vdop>4.375</vdop><extensions><gom:speed>0.625</gom:speed></extensions></trkpt>
   <trkpt lat="59.0677302165" lon="30.0241823983"><ele>109.547</ele><time>2026-04-20T17:31:04.075Z</time><hdop>4.5</hdop><vdop>4.5</vdop><extensions><gom:speed>0.504</gom:speed></extensions></trkpt>
   <trkpt lat="59.0677351199" lon="30.0241818116"><ele>109.824</ele><time>2026-04-20T17:31:05.075Z</time><hdop>4.625</hdop><vdop>4.5</vdop><extensions><gom:speed>0.348</gom:speed></extensions></trkpt>
   <trkpt lat="59.067736922" lon="30.0241813925"><ele>109.978</ele><time>2026-04-20T17:31:06.075Z</time><hdop>4.625</hdop><vdop>4.5</vdop><extensions><gom:speed>0.201</gom:speed></extensions></trkpt>
   <trkpt lat="59.0677367544" lon="30.0241814763"><ele>110.07</ele><time>2026-04-20T17:31:06.601Z</time><hdop>4.5</hdop><vdop>4.5</vdop><extensions><gom:speed>0.128</gom:speed></extensions></trkpt>
   <trkpt lat="59.0677380536" lon="30.0241808057"><ele>110.151</ele><time>2026-04-20T17:31:07.075Z</time><hdop>4.5</hdop><vdop>4.375</vdop><extensions><gom:speed>0.156</gom:speed></extensions></trkpt>
   <trkpt lat="59.067740652" lon="30.0241779559"><ele>110.234</ele><time>2026-04-20T17:31:08.075Z</time><hdop>4.5</hdop><vdop>4.125</vdop><extensions><gom:speed>0.15</gom:speed></extensions></trkpt>
   <trkpt lat="59.0677438371" lon="30.0241767824"><ele>110.24</ele><time>2026-04-20T17:31:09.075Z</time><hdop>4.375</hdop><vdop>4.0</vdop><extensions><gom:speed>0.154</gom:speed></extensions></trkpt>
   <trkpt lat="59.067747148" lon="30.0241748546"><ele>110.292</ele><time>2026-04-20T17:31:10.075Z</time><hdop>4.375</hdop><vdop>4.0</vdop><extensions><gom:speed>0.175</gom:speed></extensions></trkpt>
   <trkpt lat="59.0677501235" lon="30.0241717533"><ele>110.346</ele><time>2026-04-20T17:31:11.075Z</time><hdop>4.25</hdop><vdop>3.875</vdop><extensions><gom:speed>0.202</gom:speed></extensions></trkpt>
   <trkpt lat="59.0677538535" lon="30.0241666403"><ele>110.418</ele><time>2026-04-20T17:31:12.075Z</time><hdop>4.25</hdop><vdop>3.875</vdop><extensions><gom:speed>0.264</gom:speed></extensions></trkpt>
   <trkpt lat="59.0677577511" lon="30.0241634552"><ele>110.476</ele><time>2026-04-20T17:31:13.075Z</time><hdop>4.25</hdop><vdop>3.75</vdop><extensions><gom:speed>0.281</gom:speed></extensions></trkpt>
   <trkpt lat="59.0677611457" lon="30.0241649639"><ele>110.435</ele><time>2026-04-20T17:31:14.075Z</time><hdop>4.25</hdop><vdop>3.75</vdop><extensions><gom:speed>0.286</gom:speed></extensions></trkpt>
   <trkpt lat="59.0677636184" lon="30.0241678138"><ele>110.381</ele><time>2026-04-20T17:31:15.075Z</time><hdop>4.25</hdop><vdop>3.625</vdop><extensions><gom:speed>0.27</gom:speed></extensions></trkpt>
   <trkpt lat="59.0677654205" lon="30.0241666403"><ele>110.319</ele><time>2026-04-20T17:31:16.075Z</time><hdop>4.25</hdop><vdop>3.75</vdop><extensions><gom:speed>0.248</gom:speed></extensions></trkpt>
   <trkpt lat="59.0677666359" lon="30.0241637066"><ele>110.247</ele><time>2026-04-20T17:31:17.075Z</time><hdop>4.25</hdop><vdop>3.625</vdop><extensions><gom:speed>0.252</gom:speed></extensions></trkpt>
   <trkpt lat="59.067767055" lon="30.0241627846"><ele>110.203</ele><time>2026-04-20T17:31:17.576Z</time><hdop>4.25</hdop><vdop>3.625</vdop><extensions><gom:speed>0.213</gom:speed></extensions></trkpt>
   <trkpt lat="59.0677673483" lon="30.0241618626"><ele>110.178</ele><time>2026-04-20T17:31:18.075Z</time><hdop>4.25</hdop><vdop>3.625</vdop><extensions><gom:speed>0.222</gom:speed></extensions></trkpt>
   <trkpt lat="59.0677675579" lon="30.0241616112"><ele>110.163</ele><time>2026-04-20T17:31:18.589Z</time><hdop>4.25</hdop><vdop>3.625</vdop><extensions><gom:speed>0.212</gom:speed></extensions></trkpt>
   <trkpt lat="59.0677683542" lon="30.0241595157"><ele>110.154</ele><time>2026-04-20T17:31:19.075Z</time><hdop>4.25</hdop><vdop>3.625</vdop><extensions><gom:speed>0.221</gom:speed></extensions></trkpt>
   <trkpt lat="59.0677694438" lon="30.0241572526"><ele>110.149</ele><time>2026-04-20T17:31:19.619Z</time><hdop>4.25</hdop><vdop>3.625</vdop><extensions><gom:speed>0.275</gom:speed></extensions></trkpt>
   <trkpt lat="59.0677701563" lon="30.0241566659"><ele>110.143</ele><time>2026-04-20T17:31:20.075Z</time><hdop>4.25</hdop><vdop>3.625</vdop><extensions><gom:speed>0.266</gom:speed></extensions></trkpt>
   <trkpt lat="59.0677717488" lon="30.0241541513"><ele>110.139</ele><time>2026-04-20T17:31:21.001Z</time><hdop>4.25</hdop><vdop>3.625</vdop><extensions><gom:speed>0.285</gom:speed></extensions></trkpt>
   <trkpt lat="59.0677727547" lon="30.0241539836"><ele>110.139</ele><time>2026-04-20T17:31:22.075Z</time><hdop>4.125</hdop><vdop>3.75</vdop><extensions><gom:speed>0.255</gom:speed></extensions></trkpt>
   <trkpt lat="59.0677750178" lon="30.0241504632"><ele>110.139</ele><time>2026-04-20T17:31:23.053Z</time><hdop>4.125</hdop><vdop>3.75</vdop><extensions><gom:speed>0.317</gom:speed></extensions></trkpt>
   <trkpt lat="59.0677775324" lon="30.024147781"><ele>110.141</ele><time>2026-04-20T17:31:23.982Z</time><hdop>4.125</hdop><vdop>3.875</vdop><extensions><gom:speed>0.371</gom:speed></extensions></trkpt>
   <trkpt lat="59.0677817233" lon="30.0241442606"><ele>110.151</ele><time>2026-04-20T17:31:24.784Z</time><hdop>4.25</hdop><vdop>3.875</vdop><extensions><gom:speed>0.478</gom:speed></extensions></trkpt>
   <trkpt lat="59.0677881355" lon="30.02413898"><ele>110.044</ele><time>2026-04-20T17:31:25.679Z</time><hdop>4.25</hdop><vdop>3.5</vdop><extensions><gom:speed>0.632</gom:speed></extensions></trkpt>
   <trkpt lat="59.0677963497" lon="30.0241307658"><ele>109.92</ele><time>2026-04-20T17:31:26.637Z</time><hdop>4.375</hdop><vdop>3.5</vdop><extensions><gom:speed>0.678</gom:speed></extensions></trkpt>
   <trkpt lat="59.0678061566" lon="30.0241192826"><ele>110.563</ele><time>2026-04-20T17:31:27.738Z</time><hdop>4.5</hdop><vdop>3.5</vdop><extensions><gom:speed>0.725</gom:speed></extensions></trkpt>
   <trkpt lat="59.0678136164" lon="30.0241062906"><ele>110.841</ele><time>2026-04-20T17:31:28.543Z</time><hdop>4.625</hdop><vdop>3.375</vdop><extensions><gom:speed>0.747</gom:speed></extensions></trkpt>
   <trkpt lat="59.0678188551" lon="30.0240958132"><ele>110.849</ele><time>2026-04-20T17:31:29.075Z</time><hdop>4.625</hdop><vdop>3.125</vdop><extensions><gom:speed>0.775</gom:speed></extensions></trkpt>
   <trkpt lat="59.0678286201" lon="30.024077876"><ele>111.376</ele><time>2026-04-20T17:31:30.076Z</time><hdop>4.625</hdop><vdop>3.0</vdop><extensions><gom:speed>0.805</gom:speed></extensions></trkpt>
   <trkpt lat="59.0678332301" lon="30.0240700808"><ele>111.691</ele><time>2026-04-20T17:31:30.908Z</time><hdop>4.75</hdop><vdop>3.0</vdop><extensions><gom:speed>0.796</gom:speed></extensions></trkpt>
   <trkpt lat="59.0678446295" lon="30.0240549095"><ele>111.96</ele><time>2026-04-20T17:31:31.535Z</time><hdop>4.75</hdop><vdop>4.375</vdop><extensions><gom:speed>0.776</gom:speed></extensions></trkpt>
   <trkpt lat="59.0678508321" lon="30.0240479526"><ele>111.796</ele><time>2026-04-20T17:31:32.075Z</time><hdop>4.75</hdop><vdop>4.375</vdop><extensions><gom:speed>0.763</gom:speed></extensions></trkpt>
   <trkpt lat="59.0678547297" lon="30.0240448513"><ele>111.698</ele><time>2026-04-20T17:31:32.560Z</time><hdop>4.75</hdop><vdop>4.375</vdop><extensions><gom:speed>0.714</gom:speed></extensions></trkpt>
   <trkpt lat="59.0678607227" lon="30.0240420852"><ele>111.652</ele><time>2026-04-20T17:31:33.075Z</time><hdop>4.75</hdop><vdop>4.5</vdop><extensions><gom:speed>0.689</gom:speed></extensions></trkpt>
   <trkpt lat="59.0678651232" lon="30.0240430072"><ele>111.624</ele><time>2026-04-20T17:31:33.834Z</time><hdop>4.75</hdop><vdop>4.5</vdop><extensions><gom:speed>0.59</gom:speed></extensions></trkpt>
   <trkpt lat="59.0678755168" lon="30.024037559"><ele>111.901</ele><time>2026-04-20T17:31:35.075Z</time><hdop>4.5</hdop><vdop>4.75</vdop><extensions><gom:speed>0.485</gom:speed></extensions></trkpt>
   <trkpt lat="59.0678816356" lon="30.0240355473"><ele>112.009</ele><time>2026-04-20T17:31:36.076Z</time><hdop>4.375</hdop><vdop>4.875</vdop><extensions><gom:speed>0.366</gom:speed></extensions></trkpt>
   <trkpt lat="59.0678863295" lon="30.0240339548"><ele>112.193</ele><time>2026-04-20T17:31:37.075Z</time><hdop>4.375</hdop><vdop>4.875</vdop><extensions><gom:speed>0.282</gom:speed></extensions></trkpt>
   <trkpt lat="59.0678915262" lon="30.0240321946"><ele>112.359</ele><time>2026-04-20T17:31:38.075Z</time><hdop>4.125</hdop><vdop>5.0</vdop><extensions><gom:speed>0.188</gom:speed></extensions></trkpt>
   <trkpt lat="59.0678921549" lon="30.0240292609"><ele>112.529</ele><time>2026-04-20T17:31:38.963Z</time><hdop>4.125</hdop><vdop>5.0</vdop><extensions><gom:speed>0.115</gom:speed></extensions></trkpt>
   <trkpt lat="59.0678957172" lon="30.0240259082"><ele>112.594</ele><time>2026-04-20T17:31:40.075Z</time><hdop>4.125</hdop><vdop>4.875</vdop><extensions><gom:speed>0.085</gom:speed></extensions></trkpt>
   <trkpt lat="59.0678993214" lon="30.0240233936"><ele>112.609</ele><time>2026-04-20T17:31:41.075Z</time><hdop>4.125</hdop><vdop>4.75</vdop><extensions><gom:speed>0.105</gom:speed></extensions></trkpt>
   <trkpt lat="59.067902758" lon="30.0240216334"><ele>112.633</ele><time>2026-04-20T17:31:42.075Z</time><hdop>4.125</hdop><vdop>4.75</vdop><extensions><gom:speed>0.077</gom:speed></extensions></trkpt>
   <trkpt lat="59.0679059431" lon="30.0240198732"><ele>112.611</ele><time>2026-04-20T17:31:43.075Z</time><hdop>4.25</hdop><vdop>4.625</vdop><extensions><gom:speed>0.083</gom:speed></extensions></trkpt>
   <trkpt lat="59.0679091282" lon="30.0240173586"><ele>112.641</ele><time>2026-04-20T17:31:44.075Z</time><hdop>4.25</hdop><vdop>4.5</vdop><extensions><gom:speed>0.122</gom:speed></extensions></trkpt>
   <trkpt lat="59.06791202" lon="30.0240156822"><ele>112.699</ele><time>2026-04-20T17:31:45.075Z</time><hdop>4.125</hdop><vdop>4.375</vdop><extensions><gom:speed>0.101</gom:speed></extensions></trkpt>
   <trkpt lat="59.067914325" lon="30.0240135029"><ele>112.725</ele><time>2026-04-20T17:31:46.075Z</time><hdop>4.125</hdop><vdop>4.25</vdop><extensions><gom:speed>0.117</gom:speed></extensions></trkpt>
   <trkpt lat="59.0679171329" lon="30.0240112398"><ele>112.743</ele><time>2026-04-20T17:31:47.075Z</time><hdop>4.125</hdop><vdop>4.25</vdop><extensions><gom:speed>0.139</gom:speed></extensions></trkpt>
   <trkpt lat="59.0679186417" lon="30.0240099825"><ele>112.754</ele><time>2026-04-20T17:31:47.840Z</time><hdop>4.125</hdop><vdop>4.25</vdop><extensions><gom:speed>0.168</gom:speed></extensions></trkpt>
   <trkpt lat="59.0679214496" lon="30.0240062945"><ele>112.752</ele><time>2026-04-20T17:31:48.935Z</time><hdop>4.125</hdop><vdop>4.125</vdop><extensions><gom:speed>0.193</gom:speed></extensions></trkpt>
   <trkpt lat="59.067923126" lon="30.0240047019"><ele>112.756</ele><time>2026-04-20T17:31:49.505Z</time><hdop>4.125</hdop><vdop>4.0</vdop><extensions><gom:speed>0.214</gom:speed></extensions></trkpt>
   <trkpt lat="59.0679267302" lon="30.0240013492"><ele>112.759</ele><time>2026-04-20T17:31:50.076Z</time><hdop>4.125</hdop><vdop>4.125</vdop><extensions><gom:speed>0.26</gom:speed></extensions></trkpt>
   <trkpt lat="59.0679285323" lon="30.0240000081"><ele>112.761</ele><time>2026-04-20T17:31:50.742Z</time><hdop>4.25</hdop><vdop>4.125</vdop><extensions><gom:speed>0.293</gom:speed></extensions></trkpt>
   <trkpt lat="59.067932849" lon="30.0239981641"><ele>112.767</ele><time>2026-04-20T17:31:51.699Z</time><hdop>4.25</hdop><vdop>4.0</vdop><extensions><gom:speed>0.391</gom:speed></extensions></trkpt>
   <trkpt lat="59.0679371238" lon="30.0239948113"><ele>112.753</ele><time>2026-04-20T17:31:52.558Z</time><hdop>4.25</hdop><vdop>4.0</vdop><extensions><gom:speed>0.493</gom:speed></extensions></trkpt>
   <trkpt lat="59.0679391354" lon="30.0239927996"><ele>112.745</ele><time>2026-04-20T17:31:53.076Z</time><hdop>4.25</hdop><vdop>4.125</vdop><extensions><gom:speed>0.475</gom:speed></extensions></trkpt>
   <trkpt lat="59.0679438293" lon="30.0239899498"><ele>112.745</ele><time>2026-04-20T17:31:54.075Z</time><hdop>4.375</hdop><vdop>4.0</vdop><extensions><gom:speed>0.565</gom:speed></extensions></trkpt>
   <trkpt lat="59.0679476431" lon="30.0239871838"><ele>112.745</ele><time>2026-04-20T17:31:55.075Z</time><hdop>4.375</hdop><vdop>4.25</vdop><extensions><gom:speed>0.579</gom:speed></extensions></trkpt>
   <trkpt lat="59.0679494452" lon="30.0239851721"><ele>112.744</ele><time>2026-04-20T17:31:55.664Z</time><hdop>4.5</hdop><vdop>4.25</vdop><extensions><gom:speed>0.597</gom:speed></extensions></trkpt>
   <trkpt lat="59.0679513311" lon="30.0239821546"><ele>112.747</ele><time>2026-04-20T17:31:56.124Z</time><hdop>4.5</hdop><vdop>4.25</vdop><extensions><gom:speed>0.582</gom:speed></extensions></trkpt>
   <trkpt lat="59.0679551449" lon="30.0239769578"><ele>112.749</ele><time>2026-04-20T17:31:57.020Z</time><hdop>4.5</hdop><vdop>4.25</vdop><extensions><gom:speed>0.619</gom:speed></extensions></trkpt>
   <trkpt lat="59.0679580366" lon="30.0239732698"><ele>112.731</ele><time>2026-04-20T17:31:57.937Z</time><hdop>4.5</hdop><vdop>4.125</vdop><extensions><gom:speed>0.677</gom:speed></extensions></trkpt>
   <trkpt lat="59.0679598387" lon="30.0239692465"><ele>112.715</ele><time>2026-04-20T17:31:58.740Z</time><hdop>4.5</hdop><vdop>3.875</vdop><extensions><gom:speed>0.686</gom:speed></extensions></trkpt>
   <trkpt lat="59.0679624371" lon="30.0239646364"><ele>112.707</ele><time>2026-04-20T17:31:59.754Z</time><hdop>4.5</hdop><vdop>4.0</vdop><extensions><gom:speed>0.659</gom:speed></extensions></trkpt>
   <trkpt lat="59.0679656223" lon="30.0239630439"><ele>112.698</ele><time>2026-04-20T17:32:00.800Z</time><hdop>4.375</hdop><vdop>4.5</vdop><extensions><gom:speed>0.617</gom:speed></extensions></trkpt>
   <trkpt lat="59.0679676339" lon="30.0239617028"><ele>112.694</ele><time>2026-04-20T17:32:01.640Z</time><hdop>4.375</hdop><vdop>4.5</vdop><extensions><gom:speed>0.645</gom:speed></extensions></trkpt>
   <trkpt lat="59.0679699389" lon="30.0239575118"><ele>112.69</ele><time>2026-04-20T17:32:02.577Z</time><hdop>4.25</hdop><vdop>4.5</vdop><extensions><gom:speed>0.648</gom:speed></extensions></trkpt>
   <trkpt lat="59.0679699389" lon="30.0239560869"><ele>112.766</ele><time>2026-04-20T17:32:03.075Z</time><hdop>4.25</hdop><vdop>4.5</vdop><extensions><gom:speed>0.618</gom:speed></extensions></trkpt>
   <trkpt lat="59.0679723278" lon="30.0239521474"><ele>112.807</ele><time>2026-04-20T17:32:04.075Z</time><hdop>4.25</hdop><vdop>4.0</vdop><extensions><gom:speed>0.64</gom:speed></extensions></trkpt>
   <trkpt lat="59.0679756386" lon="30.0239487108"><ele>112.618</ele><time>2026-04-20T17:32:05.075Z</time><hdop>4.25</hdop><vdop>3.75</vdop><extensions><gom:speed>0.632</gom:speed></extensions></trkpt>
   <trkpt lat="59.0679802487" lon="30.0239420053"><ele>112.503</ele><time>2026-04-20T17:32:06.075Z</time><hdop>4.375</hdop><vdop>3.625</vdop><extensions><gom:speed>0.646</gom:speed></extensions></trkpt>
   <trkpt lat="59.0679852359" lon="30.0239332043"><ele>112.434</ele><time>2026-04-20T17:32:07.058Z</time><hdop>4.5</hdop><vdop>3.625</vdop><extensions><gom:speed>0.677</gom:speed></extensions></trkpt>
   <trkpt lat="59.0679924443" lon="30.0239233137"><ele>111.721</ele><time>2026-04-20T17:32:08.075Z</time><hdop>4.5</hdop><vdop>3.375</vdop><extensions><gom:speed>0.649</gom:speed></extensions></trkpt>
   <trkpt lat="59.0680002395" lon="30.023911579"><ele>111.164</ele><time>2026-04-20T17:32:09.075Z</time><hdop>4.5</hdop><vdop>4.5</vdop><extensions><gom:speed>0.648</gom:speed></extensions></trkpt>
   <trkpt lat="59.0680091243" lon="30.0238992576"><ele>110.703</ele><time>2026-04-20T17:32:10.076Z</time><hdop>4.625</hdop><vdop>4.375</vdop><extensions><gom:speed>0.625</gom:speed></extensions></trkpt>
   <trkpt lat="59.0680191407" lon="30.0238855113"><ele>110.222</ele><time>2026-04-20T17:32:11.075Z</time><hdop>4.625</hdop><vdop>4.0</vdop><extensions><gom:speed>0.626</gom:speed></extensions></trkpt>
   <trkpt lat="59.0680227449" lon="30.0238790572"><ele>109.934</ele><time>2026-04-20T17:32:11.639Z</time><hdop>4.625</hdop><vdop>4.0</vdop><extensions><gom:speed>0.594</gom:speed></extensions></trkpt>
   <trkpt lat="59.068032426" lon="30.0238664844"><ele>110.031</ele><time>2026-04-20T17:32:12.675Z</time><hdop>4.625</hdop><vdop>4.75</vdop><extensions><gom:speed>0.542</gom:speed></extensions></trkpt>
   <trkpt lat="59.0680404307" lon="30.0238534086"><ele>110.248</ele><time>2026-04-20T17:32:13.705Z</time><hdop>4.5</hdop><vdop>4.875</vdop><extensions><gom:speed>0.496</gom:speed></extensions></trkpt>
   <trkpt lat="59.0680455437" lon="30.0238448591"><ele>110.392</ele><time>2026-04-20T17:32:14.262Z</time><hdop>4.375</hdop><vdop>4.625</vdop><extensions><gom:speed>0.487</gom:speed></extensions></trkpt>
   <trkpt lat="59.0680531293" lon="30.0238320347"><ele>110.797</ele><time>2026-04-20T17:32:15.075Z</time><hdop>4.375</hdop><vdop>4.5</vdop><extensions><gom:speed>0.409</gom:speed></extensions></trkpt>
   <trkpt lat="59.0680586195" lon="30.0238261674"><ele>110.95</ele><time>2026-04-20T17:32:16.075Z</time><hdop>4.25</hdop><vdop>4.25</vdop><extensions><gom:speed>0.358</gom:speed></extensions></trkpt>
   <trkpt lat="59.0680637324" lon="30.0238257483"><ele>110.938</ele><time>2026-04-20T17:32:17.075Z</time><hdop>4.125</hdop><vdop>4.375</vdop><extensions><gom:speed>0.313</gom:speed></extensions></trkpt>
   <trkpt lat="59.0680682168" lon="30.0238236528"><ele>110.864</ele><time>2026-04-20T17:32:18.075Z</time><hdop>4.0</hdop><vdop>4.375</vdop><extensions><gom:speed>0.266</gom:speed></extensions></trkpt>
   <trkpt lat="59.0680717372" lon="30.0238174502"><ele>110.69</ele><time>2026-04-20T17:32:19.075Z</time><hdop>3.875</hdop><vdop>4.25</vdop><extensions><gom:speed>0.212</gom:speed></extensions></trkpt>
   <trkpt lat="59.0680737488" lon="30.0238112476"><ele>110.593</ele><time>2026-04-20T17:32:20.075Z</time><hdop>3.875</hdop><vdop>4.25</vdop><extensions><gom:speed>0.183</gom:speed></extensions></trkpt>
   <trkpt lat="59.0680752576" lon="30.023805967"><ele>110.587</ele><time>2026-04-20T17:32:21.075Z</time><hdop>3.875</hdop><vdop>4.25</vdop><extensions><gom:speed>0.1</gom:speed></extensions></trkpt>
   <trkpt lat="59.068077353" lon="30.0238038715"><ele>110.548</ele><time>2026-04-20T17:32:22.076Z</time><hdop>3.75</hdop><vdop>4.25</vdop><extensions><gom:speed>0.084</gom:speed></extensions></trkpt>
   <trkpt lat="59.0680798257" lon="30.0238011893"><ele>110.544</ele><time>2026-04-20T17:32:23.075Z</time><hdop>3.75</hdop><vdop>4.0</vdop><extensions><gom:speed>0.067</gom:speed></extensions></trkpt>
   <trkpt lat="59.0680804543" lon="30.0238011893"><ele>110.517</ele><time>2026-04-20T17:32:23.974Z</time><hdop>3.75</hdop><vdop>4.125</vdop><extensions><gom:speed>0.061</gom:speed></extensions></trkpt>
   <trkpt lat="59.0680802448" lon="30.0238026143"><ele>110.559</ele><time>2026-04-20T17:32:25.040Z</time><hdop>3.75</hdop><vdop>3.875</vdop><extensions><gom:speed>0.068</gom:speed></extensions></trkpt>
   <trkpt lat="59.0680804543" lon="30.0238033686"><ele>110.575</ele><time>2026-04-20T17:32:25.988Z</time><hdop>3.875</hdop><vdop>3.625</vdop><extensions><gom:speed>0.07</gom:speed></extensions></trkpt>
   <trkpt lat="59.0680800352" lon="30.0238032848"><ele>110.585</ele><time>2026-04-20T17:32:26.581Z</time><hdop>4.0</hdop><vdop>3.625</vdop><extensions><gom:speed>0.069</gom:speed></extensions></trkpt>
   <trkpt lat="59.0680802448" lon="30.0238024466"><ele>110.654</ele><time>2026-04-20T17:32:28.001Z</time><hdop>4.25</hdop><vdop>3.625</vdop><extensions><gom:speed>0.064</gom:speed></extensions></trkpt>
   <trkpt lat="59.0680808315" lon="30.0237993453"><ele>110.693</ele><time>2026-04-20T17:32:28.949Z</time><hdop>4.5</hdop><vdop>3.625</vdop><extensions><gom:speed>0.074</gom:speed></extensions></trkpt>
   <trkpt lat="59.068081544" lon="30.0237959087"><ele>110.711</ele><time>2026-04-20T17:32:30.016Z</time><hdop>4.625</hdop><vdop>3.625</vdop><extensions><gom:speed>0.072</gom:speed></extensions></trkpt>
   <trkpt lat="59.0680822564" lon="30.0237933942"><ele>110.723</ele><time>2026-04-20T17:32:30.963Z</time><hdop>4.875</hdop><vdop>3.75</vdop><extensions><gom:speed>0.067</gom:speed></extensions></trkpt>
   <trkpt lat="59.0680833461" lon="30.0237923045"><ele>110.73</ele><time>2026-04-20T17:32:32.065Z</time><hdop>5.125</hdop><vdop>3.75</vdop><extensions><gom:speed>0.047</gom:speed></extensions></trkpt>
   <trkpt lat="59.0680836395" lon="30.0237923883"><ele>110.738</ele><time>2026-04-20T17:32:32.858Z</time><hdop>5.25</hdop><vdop>4.0</vdop><extensions><gom:speed>0.047</gom:speed></extensions></trkpt>
   <trkpt lat="59.0680870341" lon="30.0237899576"><ele>110.751</ele><time>2026-04-20T17:32:34.085Z</time><hdop>5.5</hdop><vdop>4.25</vdop><extensions><gom:speed>0.111</gom:speed></extensions></trkpt>
   <trkpt lat="59.0680892553" lon="30.0237887841"><ele>110.732</ele><time>2026-04-20T17:32:35.076Z</time><hdop>5.5</hdop><vdop>3.875</vdop><extensions><gom:speed>0.167</gom:speed></extensions></trkpt>
   <trkpt lat="59.0680927338" lon="30.0237876107"><ele>110.702</ele><time>2026-04-20T17:32:36.075Z</time><hdop>5.5</hdop><vdop>3.875</vdop><extensions><gom:speed>0.269</gom:speed></extensions></trkpt>
   <trkpt lat="59.0680960447" lon="30.0237877783"><ele>110.684</ele><time>2026-04-20T17:32:37.077Z</time><hdop>5.5</hdop><vdop>3.875</vdop><extensions><gom:speed>0.321</gom:speed></extensions></trkpt>
   <trkpt lat="59.068101451" lon="30.0237845932"><ele>110.582</ele><time>2026-04-20T17:32:38.075Z</time><hdop>5.5</hdop><vdop>3.75</vdop><extensions><gom:speed>0.38</gom:speed></extensions></trkpt>
   <trkpt lat="59.0681074441" lon="30.023781911"><ele>110.521</ele><time>2026-04-20T17:32:39.080Z</time><hdop>5.5</hdop><vdop>3.75</vdop><extensions><gom:speed>0.443</gom:speed></extensions></trkpt>
   <trkpt lat="59.0681143172" lon="30.0237780553"><ele>110.468</ele><time>2026-04-20T17:32:39.978Z</time><hdop>5.5</hdop><vdop>3.875</vdop><extensions><gom:speed>0.577</gom:speed></extensions></trkpt>
   <trkpt lat="59.0681207294" lon="30.0237723556"><ele>110.404</ele><time>2026-04-20T17:32:40.896Z</time><hdop>5.625</hdop><vdop>4.25</vdop><extensions><gom:speed>0.667</gom:speed></extensions></trkpt>
   <trkpt lat="59.0681264291" lon="30.0237648119"><ele>110.355</ele><time>2026-04-20T17:32:41.814Z</time><hdop>5.875</hdop><vdop>4.125</vdop><extensions><gom:speed>0.693</gom:speed></extensions></trkpt>
   <trkpt lat="59.0681318354" lon="30.023758274"><ele>110.316</ele><time>2026-04-20T17:32:42.782Z</time><hdop>6.125</hdop><vdop>4.25</vdop><extensions><gom:speed>0.658</gom:speed></extensions></trkpt>
   <trkpt lat="59.0681373255" lon="30.0237515685"><ele>110.28</ele><time>2026-04-20T17:32:43.798Z</time><hdop>6.375</hdop><vdop>4.125</vdop><extensions><gom:speed>0.645</gom:speed></extensions></trkpt>
   <trkpt lat="59.0681428576" lon="30.0237460364"><ele>110.221</ele><time>2026-04-20T17:32:44.796Z</time><hdop>6.625</hdop><vdop>4.125</vdop><extensions><gom:speed>0.607</gom:speed></extensions></trkpt>
   <trkpt lat="59.068150527" lon="30.0237429351"><ele>110.084</ele><time>2026-04-20T17:32:46.006Z</time><hdop>6.875</hdop><vdop>4.125</vdop><extensions><gom:speed>0.5</gom:speed></extensions></trkpt>
   <trkpt lat="59.0681503175" lon="30.0237509817"><ele>109.598</ele><time>2026-04-20T17:32:47.076Z</time><hdop>7.0</hdop><vdop>3.625</vdop><extensions><gom:speed>0.378</gom:speed></extensions></trkpt>
   <trkpt lat="59.0681507366" lon="30.0237638899"><ele>109.447</ele><time>2026-04-20T17:32:48.075Z</time><hdop>7.0</hdop><vdop>3.5</vdop><extensions><gom:speed>0.377</gom:speed></extensions></trkpt>
   <trkpt lat="59.0681529578" lon="30.0237722718"><ele>109.357</ele><time>2026-04-20T17:32:48.981Z</time><hdop>6.875</hdop><vdop>3.5</vdop><extensions><gom:speed>0.43</gom:speed></extensions></trkpt>
   <trkpt lat="59.0681576517" lon="30.0237861019"><ele>109.777</ele><time>2026-04-20T17:32:50.037Z</time><hdop>6.625</hdop><vdop>3.625</vdop><extensions><gom:speed>0.416</gom:speed></extensions></trkpt>
   <trkpt lat="59.0681642315" lon="30.0237987586"><ele>110.441</ele><time>2026-04-20T17:32:50.916Z</time><hdop>6.375</hdop><vdop>3.375</vdop><extensions><gom:speed>0.518</gom:speed></extensions></trkpt>
   <trkpt lat="59.06817693" lon="30.0238157738"><ele>111.339</ele><time>2026-04-20T17:32:51.942Z</time><hdop>6.0</hdop><vdop>3.25</vdop><extensions><gom:speed>0.576</gom:speed></extensions></trkpt>
   <trkpt lat="59.0681869464" lon="30.0238205515"><ele>112.043</ele><time>2026-04-20T17:32:52.899Z</time><hdop>5.75</hdop><vdop>3.125</vdop><extensions><gom:speed>0.611</gom:speed></extensions></trkpt>
   <trkpt lat="59.0681965437" lon="30.0238218926"><ele>112.099</ele><time>2026-04-20T17:32:53.935Z</time><hdop>5.5</hdop><vdop>2.875</vdop><extensions><gom:speed>0.528</gom:speed></extensions></trkpt>
   <trkpt lat="59.0682058476" lon="30.0238254969"><ele>112.63</ele><time>2026-04-20T17:32:55.022Z</time><hdop>5.375</hdop><vdop>2.875</vdop><extensions><gom:speed>0.482</gom:speed></extensions></trkpt>
   <trkpt lat="59.0682156544" lon="30.0238338788"><ele>112.933</ele><time>2026-04-20T17:32:56.078Z</time><hdop>5.0</hdop><vdop>5.125</vdop><extensions><gom:speed>0.431</gom:speed></extensions></trkpt>
   <trkpt lat="59.0682244554" lon="30.0238399137"><ele>113.02</ele><time>2026-04-20T17:32:56.918Z</time><hdop>5.0</hdop><vdop>5.0</vdop><extensions><gom:speed>0.418</gom:speed></extensions></trkpt>
   <trkpt lat="59.0682328373" lon="30.0238449429"><ele>113.089</ele><time>2026-04-20T17:32:57.614Z</time><hdop>5.0</hdop><vdop>4.75</vdop><extensions><gom:speed>0.404</gom:speed></extensions></trkpt>
   <trkpt lat="59.0682433566" lon="30.0238458649"><ele>113.283</ele><time>2026-04-20T17:32:58.075Z</time><hdop>4.875</hdop><vdop>4.875</vdop><extensions><gom:speed>0.41</gom:speed></extensions></trkpt>
   <trkpt lat="59.068247338" lon="30.0238430989"><ele>113.4</ele><time>2026-04-20T17:32:58.841Z</time><hdop>4.875</hdop><vdop>4.875</vdop><extensions><gom:speed>0.433</gom:speed></extensions></trkpt>
   <trkpt lat="59.0682522414" lon="30.0238391594"><ele>113.46</ele><time>2026-04-20T17:32:59.902Z</time><hdop>4.75</hdop><vdop>4.625</vdop><extensions><gom:speed>0.437</gom:speed></extensions></trkpt>
   <trkpt lat="59.0682610424" lon="30.0238430989"><ele>113.58</ele><time>2026-04-20T17:33:01.013Z</time><hdop>4.75</hdop><vdop>4.625</vdop><extensions><gom:speed>0.436</gom:speed></extensions></trkpt>
   <trkpt lat="59.0682653172" lon="30.0238472898"><ele>113.706</ele><time>2026-04-20T17:33:01.901Z</time><hdop>4.75</hdop><vdop>4.625</vdop><extensions><gom:speed>0.467</gom:speed></extensions></trkpt>
   <trkpt lat="59.0682745373" lon="30.023853241"><ele>113.775</ele><time>2026-04-20T17:33:02.820Z</time><hdop>4.75</hdop><vdop>4.625</vdop><extensions><gom:speed>0.564</gom:speed></extensions></trkpt>
   <trkpt lat="59.0682820391" lon="30.023855085"><ele>113.811</ele><time>2026-04-20T17:33:03.678Z</time><hdop>4.75</hdop><vdop>4.625</vdop><extensions><gom:speed>0.672</gom:speed></extensions></trkpt>
   <trkpt lat="59.0682937319" lon="30.0238603656"><ele>113.7</ele><time>2026-04-20T17:33:04.597Z</time><hdop>4.875</hdop><vdop>4.375</vdop><extensions><gom:speed>0.695</gom:speed></extensions></trkpt>
   <trkpt lat="59.0683011498" lon="30.0238608685"><ele>113.719</ele><time>2026-04-20T17:33:05.662Z</time><hdop>4.875</hdop><vdop>4.5</vdop><extensions><gom:speed>0.706</gom:speed></extensions></trkpt>
   <trkpt lat="59.0683108309" lon="30.0238674064"><ele>113.772</ele><time>2026-04-20T17:33:06.856Z</time><hdop>4.875</hdop><vdop>4.5</vdop><extensions><gom:speed>0.676</gom:speed></extensions></trkpt>
   <trkpt lat="59.0683175365" lon="30.0238727708"><ele>113.794</ele><time>2026-04-20T17:33:07.794Z</time><hdop>4.875</hdop><vdop>4.5</vdop><extensions><gom:speed>0.709</gom:speed></extensions></trkpt>
   <trkpt lat="59.068324242" lon="30.0238786381"><ele>113.783</ele><time>2026-04-20T17:33:08.673Z</time><hdop>5.0</hdop><vdop>4.625</vdop><extensions><gom:speed>0.756</gom:speed></extensions></trkpt>
   <trkpt lat="59.0683299417" lon="30.0238848407"><ele>113.838</ele><time>2026-04-20T17:33:09.759Z</time><hdop>5.0</hdop><vdop>4.625</vdop><extensions><gom:speed>0.674</gom:speed></extensions></trkpt>
   <trkpt lat="59.0683387427" lon="30.0238841702"><ele>113.855</ele><time>2026-04-20T17:33:10.999Z</time><hdop>5.125</hdop><vdop>4.875</vdop><extensions><gom:speed>0.638</gom:speed></extensions></trkpt>
   <trkpt lat="59.0683435204" lon="30.0238843378"><ele>113.865</ele><time>2026-04-20T17:33:11.985Z</time><hdop>5.25</hdop><vdop>4.875</vdop><extensions><gom:speed>0.625</gom:speed></extensions></trkpt>
   <trkpt lat="59.0683484238" lon="30.0238858466"><ele>113.876</ele><time>2026-04-20T17:33:12.956Z</time><hdop>5.375</hdop><vdop>4.75</vdop><extensions><gom:speed>0.555</gom:speed></extensions></trkpt>
   <trkpt lat="59.0683524471" lon="30.0238850922"><ele>113.915</ele><time>2026-04-20T17:33:13.960Z</time><hdop>5.5</hdop><vdop>4.625</vdop><extensions><gom:speed>0.445</gom:speed></extensions></trkpt>
   <trkpt lat="59.0683547521" lon="30.023879644"><ele>113.938</ele><time>2026-04-20T17:33:15.026Z</time><hdop>5.875</hdop><vdop>4.75</vdop><extensions><gom:speed>0.302</gom:speed></extensions></trkpt>
   <trkpt lat="59.0683557579" lon="30.0238777999"><ele>113.955</ele><time>2026-04-20T17:33:15.974Z</time><hdop>5.875</hdop><vdop>4.75</vdop><extensions><gom:speed>0.215</gom:speed></extensions></trkpt>
   <trkpt lat="59.0683553388" lon="30.023877297"><ele>113.965</ele><time>2026-04-20T17:33:17.040Z</time><hdop>6.125</hdop><vdop>4.75</vdop><extensions><gom:speed>0.143</gom:speed></extensions></trkpt>
   <trkpt lat="59.0683547521" lon="30.0238767941"><ele>113.975</ele><time>2026-04-20T17:33:17.988Z</time><hdop>6.25</hdop><vdop>4.875</vdop><extensions><gom:speed>0.129</gom:speed></extensions></trkpt>
   <trkpt lat="59.0683551293" lon="30.0238762074"><ele>113.98</ele><time>2026-04-20T17:33:18.935Z</time><hdop>6.375</hdop><vdop>5.125</vdop><extensions><gom:speed>0.133</gom:speed></extensions></trkpt>
   <trkpt lat="59.0683549198" lon="30.0238757883"><ele>113.983</ele><time>2026-04-20T17:33:19.540Z</time><hdop>6.375</hdop><vdop>5.125</vdop><extensions><gom:speed>0.124</gom:speed></extensions></trkpt>
   <trkpt lat="59.0683551293" lon="30.0238757883"><ele>113.987</ele><time>2026-04-20T17:33:20.001Z</time><hdop>6.5</hdop><vdop>5.25</vdop><extensions><gom:speed>0.166</gom:speed></extensions></trkpt>
   <trkpt lat="59.0683562189" lon="30.0238760397"><ele>113.989</ele><time>2026-04-20T17:33:20.557Z</time><hdop>6.5</hdop><vdop>5.25</vdop><extensions><gom:speed>0.261</gom:speed></extensions></trkpt>
   <trkpt lat="59.0683597393" lon="30.023877297"><ele>113.991</ele><time>2026-04-20T17:33:21.496Z</time><hdop>6.625</hdop><vdop>5.25</vdop><extensions><gom:speed>0.436</gom:speed></extensions></trkpt>
   <trkpt lat="59.0683626311" lon="30.0238784705"><ele>113.923</ele><time>2026-04-20T17:33:22.016Z</time><hdop>6.75</hdop><vdop>5.125</vdop><extensions><gom:speed>0.455</gom:speed></extensions></trkpt>
   <trkpt lat="59.0683689175" lon="30.0238804821"><ele>113.886</ele><time>2026-04-20T17:33:22.964Z</time><hdop>7.0</hdop><vdop>4.875</vdop><extensions><gom:speed>0.543</gom:speed></extensions></trkpt>
   <trkpt lat="59.0683774252" lon="30.0238824938"><ele>113.861</ele><time>2026-04-20T17:33:24.029Z</time><hdop>7.375</hdop><vdop>4.875</vdop><extensions><gom:speed>0.596</gom:speed></extensions></trkpt>
   <trkpt lat="59.0683848431" lon="30.0238834996"><ele>113.848</ele><time>2026-04-20T17:33:24.976Z</time><hdop>7.75</hdop><vdop>4.75</vdop><extensions><gom:speed>0.587</gom:speed></extensions></trkpt>
   <trkpt lat="59.068388154" lon="30.0238834158"><ele>113.84</ele><time>2026-04-20T17:33:25.493Z</time><hdop>7.875</hdop><vdop>4.75</vdop><extensions><gom:speed>0.612</gom:speed></extensions></trkpt>
   <trkpt lat="59.0683921354" lon="30.0238831644"><ele>113.833</ele><time>2026-04-20T17:33:26.043Z</time><hdop>8.0</hdop><vdop>4.75</vdop><extensions><gom:speed>0.615</gom:speed></extensions></trkpt>
   <trkpt lat="59.0683975417" lon="30.0238803983"><ele>113.832</ele><time>2026-04-20T17:33:26.990Z</time><hdop>8.25</hdop><vdop>4.625</vdop><extensions><gom:speed>0.542</gom:speed></extensions></trkpt>
   <trkpt lat="59.0684005173" lon="30.0238748663"><ele>113.831</ele><time>2026-04-20T17:33:27.938Z</time><hdop>8.5</hdop><vdop>4.625</vdop><extensions><gom:speed>0.413</gom:speed></extensions></trkpt>
   <trkpt lat="59.0684002239" lon="30.0238739443"><ele>113.831</ele><time>2026-04-20T17:33:28.530Z</time><hdop>8.5</hdop><vdop>4.625</vdop><extensions><gom:speed>0.369</gom:speed></extensions></trkpt>
   <trkpt lat="59.0683915487" lon="30.0238806498"><ele>113.356</ele><time>2026-04-20T17:33:29.075Z</time><hdop>8.5</hdop><vdop>4.0</vdop><extensions><gom:speed>0.317</gom:speed></extensions></trkpt>
   <trkpt lat="59.0683829572" lon="30.0238897022"><ele>113.432</ele><time>2026-04-20T17:33:30.075Z</time><hdop>8.25</hdop><vdop>3.5</vdop><extensions><gom:speed>0.212</gom:speed></extensions></trkpt>
   <trkpt lat="59.0683799397" lon="30.023898168"><ele>113.826</ele><time>2026-04-20T17:33:31.075Z</time><hdop>7.625</hdop><vdop>3.125</vdop><extensions><gom:speed>0.16</gom:speed></extensions></trkpt>
   <trkpt lat="59.0683799397" lon="30.0239003473"><ele>114.061</ele><time>2026-04-20T17:33:31.859Z</time><hdop>7.375</hdop><vdop>3.125</vdop><extensions><gom:speed>0.142</gom:speed></extensions></trkpt>
   <trkpt lat="59.0683874415" lon="30.0239163567"><ele>113.852</ele><time>2026-04-20T17:33:33.076Z</time><hdop>6.5</hdop><vdop>2.5</vdop><extensions><gom:speed>0.164</gom:speed></extensions></trkpt>
   <trkpt lat="59.0683904171" lon="30.0239193742"><ele>113.727</ele><time>2026-04-20T17:33:34.061Z</time><hdop>5.625</hdop><vdop>2.5</vdop><extensions><gom:speed>0.169</gom:speed></extensions></trkpt>
   <trkpt lat="59.0683942309" lon="30.0239239004"><ele>112.948</ele><time>2026-04-20T17:33:34.690Z</time><hdop>5.5</hdop><vdop>2.5</vdop><extensions><gom:speed>0.202</gom:speed></extensions></trkpt>
   <trkpt lat="59.0684045406" lon="30.0239250739"><ele>112.321</ele><time>2026-04-20T17:33:35.739Z</time><hdop>5.125</hdop><vdop>2.5</vdop><extensions><gom:speed>0.377</gom:speed></extensions></trkpt>
   <trkpt lat="59.0684139283" lon="30.0239241519"><ele>111.427</ele><time>2026-04-20T17:33:36.637Z</time><hdop>5.0</hdop><vdop>2.5</vdop><extensions><gom:speed>0.492</gom:speed></extensions></trkpt>
   <trkpt lat="59.0684239447" lon="30.023923146"><ele>110.709</ele><time>2026-04-20T17:33:37.535Z</time><hdop>4.875</hdop><vdop>2.5</vdop><extensions><gom:speed>0.544</gom:speed></extensions></trkpt>
   <trkpt lat="59.0684301473" lon="30.0239242357"><ele>109.739</ele><time>2026-04-20T17:33:38.075Z</time><hdop>4.75</hdop><vdop>2.5</vdop><extensions><gom:speed>0.548</gom:speed></extensions></trkpt>
   <trkpt lat="59.0684401218" lon="30.0239321147"><ele>109.349</ele><time>2026-04-20T17:33:39.076Z</time><hdop>4.625</hdop><vdop>5.0</vdop><extensions><gom:speed>0.573</gom:speed></extensions></trkpt>
   <trkpt lat="59.0684473302" lon="30.0239375629"><ele>109.116</ele><time>2026-04-20T17:33:40.057Z</time><hdop>4.5</hdop><vdop>5.0</vdop><extensions><gom:speed>0.597</gom:speed></extensions></trkpt>
   <trkpt lat="59.0684517307" lon="30.0239390716"><ele>109.054</ele><time>2026-04-20T17:33:40.849Z</time><hdop>4.5</hdop><vdop>4.75</vdop><extensions><gom:speed>0.614</gom:speed></extensions></trkpt>
   <trkpt lat="59.0684677402" lon="30.0239432626"><ele>109.152</ele><time>2026-04-20T17:33:41.721Z</time><hdop>4.25</hdop><vdop>4.75</vdop><extensions><gom:speed>0.768</gom:speed></extensions></trkpt>
   <trkpt lat="59.0684791396" lon="30.0239452743"><ele>109.373</ele><time>2026-04-20T17:33:42.640Z</time><hdop>4.25</hdop><vdop>4.625</vdop><extensions><gom:speed>0.797</gom:speed></extensions></trkpt>
   <trkpt lat="59.0684878567" lon="30.0239470345"><ele>109.502</ele><time>2026-04-20T17:33:43.416Z</time><hdop>4.25</hdop><vdop>4.5</vdop><extensions><gom:speed>0.797</gom:speed></extensions></trkpt>
   <trkpt lat="59.0684947299" lon="30.0239489623"><ele>109.58</ele><time>2026-04-20T17:33:44.076Z</time><hdop>4.25</hdop><vdop>4.5</vdop><extensions><gom:speed>0.77</gom:speed></extensions></trkpt>
   <trkpt lat="59.0685036566" lon="30.0239530694"><ele>109.66</ele><time>2026-04-20T17:33:44.995Z</time><hdop>4.125</hdop><vdop>4.5</vdop><extensions><gom:speed>0.8</gom:speed></extensions></trkpt>
   <trkpt lat="59.0685116194" lon="30.0239577633"><ele>109.775</ele><time>2026-04-20T17:33:46.075Z</time><hdop>4.25</hdop><vdop>4.5</vdop><extensions><gom:speed>0.705</gom:speed></extensions></trkpt>
   <trkpt lat="59.0685179478" lon="30.0239552487"><ele>109.838</ele><time>2026-04-20T17:33:47.009Z</time><hdop>4.25</hdop><vdop>4.375</vdop><extensions><gom:speed>0.643</gom:speed></extensions></trkpt>
   <trkpt lat="59.0685241504" lon="30.023947705"><ele>109.876</ele><time>2026-04-20T17:33:48.078Z</time><hdop>4.375</hdop><vdop>4.375</vdop><extensions><gom:speed>0.635</gom:speed></extensions></trkpt>
   <trkpt lat="59.0685292214" lon="30.0239415024"><ele>109.896</ele><time>2026-04-20T17:33:48.977Z</time><hdop>4.5</hdop><vdop>4.125</vdop><extensions><gom:speed>0.681</gom:speed></extensions></trkpt>
   <trkpt lat="59.0685328256" lon="30.0239373114"><ele>109.898</ele><time>2026-04-20T17:33:49.796Z</time><hdop>4.5</hdop><vdop>4.0</vdop><extensions><gom:speed>0.688</gom:speed></extensions></trkpt>
   <trkpt lat="59.0685356336" lon="30.0239348807"><ele>109.914</ele><time>2026-04-20T17:33:50.556Z</time><hdop>4.5</hdop><vdop>4.0</vdop><extensions><gom:speed>0.654</gom:speed></extensions></trkpt>
   <trkpt lat="59.0685383577" lon="30.0239321985"><ele>109.951</ele><time>2026-04-20T17:33:51.036Z</time><hdop>4.625</hdop><vdop>4.0</vdop><extensions><gom:speed>0.65</gom:speed></extensions></trkpt>
   <trkpt lat="59.0685407465" lon="30.0239294325"><ele>109.974</ele><time>2026-04-20T17:33:51.533Z</time><hdop>4.625</hdop><vdop>4.0</vdop><extensions><gom:speed>0.637</gom:speed></extensions></trkpt>
   <trkpt lat="59.0685436383" lon="30.0239275046"><ele>109.982</ele><time>2026-04-20T17:33:51.984Z</time><hdop>4.625</hdop><vdop>4.125</vdop><extensions><gom:speed>0.647</gom:speed></extensions></trkpt>
   <trkpt lat="59.0685469492" lon="30.0239255768"><ele>109.988</ele><time>2026-04-20T17:33:52.579Z</time><hdop>4.75</hdop><vdop>4.125</vdop><extensions><gom:speed>0.639</gom:speed></extensions></trkpt>
   <trkpt lat="59.0685497571" lon="30.0239236489"><ele>109.994</ele><time>2026-04-20T17:33:53.051Z</time><hdop>4.875</hdop><vdop>4.0</vdop><extensions><gom:speed>0.645</gom:speed></extensions></trkpt>
   <trkpt lat="59.0685543252" lon="30.0239169434"><ele>109.997</ele><time>2026-04-20T17:33:53.814Z</time><hdop>5.0</hdop><vdop>4.0</vdop><extensions><gom:speed>0.574</gom:speed></extensions></trkpt>
   <trkpt lat="59.0685565464" lon="30.0239120819"><ele>110.009</ele><time>2026-04-20T17:33:54.800Z</time><hdop>5.25</hdop><vdop>4.125</vdop><extensions><gom:speed>0.53</gom:speed></extensions></trkpt>
   <trkpt lat="59.0685551215" lon="30.0239171111"><ele>109.99</ele><time>2026-04-20T17:33:55.777Z</time><hdop>5.375</hdop><vdop>4.125</vdop><extensions><gom:speed>0.445</gom:speed></extensions></trkpt>
   <trkpt lat="59.0685537385" lon="30.0239250739"><ele>109.956</ele><time>2026-04-20T17:33:56.557Z</time><hdop>5.375</hdop><vdop>4.125</vdop><extensions><gom:speed>0.477</gom:speed></extensions></trkpt>
   <trkpt lat="59.0685528165" lon="30.0239296839"><ele>109.932</ele><time>2026-04-20T17:33:57.075Z</time><hdop>5.25</hdop><vdop>4.25</vdop><extensions><gom:speed>0.448</gom:speed></extensions></trkpt>
   <trkpt lat="59.0685543252" lon="30.0239378982"><ele>109.912</ele><time>2026-04-20T17:33:58.076Z</time><hdop>5.125</hdop><vdop>4.25</vdop><extensions><gom:speed>0.498</gom:speed></extensions></trkpt>
   <trkpt lat="59.068554451" lon="30.0239441846"><ele>109.918</ele><time>2026-04-20T17:33:59.075Z</time><hdop>4.875</hdop><vdop>4.25</vdop><extensions><gom:speed>0.414</gom:speed></extensions></trkpt>
   <trkpt lat="59.0685520202" lon="30.0239489623"><ele>109.904</ele><time>2026-04-20T17:34:00.075Z</time><hdop>4.625</hdop><vdop>4.25</vdop><extensions><gom:speed>0.3</gom:speed></extensions></trkpt>
   <trkpt lat="59.0685488351" lon="30.0239510578"><ele>109.903</ele><time>2026-04-20T17:34:01.075Z</time><hdop>4.375</hdop><vdop>4.375</vdop><extensions><gom:speed>0.16</gom:speed></extensions></trkpt>
   <trkpt lat="59.0685455242" lon="30.0239519798"><ele>109.888</ele><time>2026-04-20T17:34:02.075Z</time><hdop>4.25</hdop><vdop>4.25</vdop><extensions><gom:speed>0.097</gom:speed></extensions></trkpt>
   <trkpt lat="59.0685434288" lon="30.0239541591"><ele>109.867</ele><time>2026-04-20T17:34:03.075Z</time><hdop>4.125</hdop><vdop>4.25</vdop><extensions><gom:speed>0.068</gom:speed></extensions></trkpt>
   <trkpt lat="59.0685420457" lon="30.0239560031"><ele>109.853</ele><time>2026-04-20T17:34:04.076Z</time><hdop>4.0</hdop><vdop>4.375</vdop><extensions><gom:speed>0.104</gom:speed></extensions></trkpt>
   <trkpt lat="59.0685425487" lon="30.0239563384"><ele>109.844</ele><time>2026-04-20T17:34:05.016Z</time><hdop>4.0</hdop><vdop>4.375</vdop><extensions><gom:speed>0.111</gom:speed></extensions></trkpt>
   <trkpt lat="59.06854192" lon="30.0239571766"><ele>109.828</ele><time>2026-04-20T17:34:05.607Z</time><hdop>4.0</hdop><vdop>4.5</vdop><extensions><gom:speed>0.109</gom:speed></extensions></trkpt>
   <trkpt lat="59.0685431354" lon="30.0239589368"><ele>109.93</ele><time>2026-04-20T17:34:06.075Z</time><hdop>3.875</hdop><vdop>4.0</vdop><extensions><gom:speed>0.177</gom:speed></extensions></trkpt>
   <trkpt lat="59.0685450213" lon="30.023960194"><ele>109.991</ele><time>2026-04-20T17:34:07.041Z</time><hdop>3.875</hdop><vdop>4.0</vdop><extensions><gom:speed>0.207</gom:speed></extensions></trkpt>
   <trkpt lat="59.0685503438" lon="30.0239615351"><ele>110.264</ele><time>2026-04-20T17:34:08.079Z</time><hdop>3.875</hdop><vdop>3.25</vdop><extensions><gom:speed>0.276</gom:speed></extensions></trkpt>
   <trkpt lat="59.0685562531" lon="30.0239622895"><ele>110.546</ele><time>2026-04-20T17:34:08.916Z</time><hdop>3.875</hdop><vdop>3.125</vdop><extensions><gom:speed>0.324</gom:speed></extensions></trkpt>
   <trkpt lat="59.0685688259" lon="30.0239618704"><ele>110.917</ele><time>2026-04-20T17:34:10.075Z</time><hdop>3.875</hdop><vdop>3.125</vdop><extensions><gom:speed>0.37</gom:speed></extensions></trkpt>
   <trkpt lat="59.0685787166" lon="30.0239591044"><ele>111.2</ele><time>2026-04-20T17:34:11.076Z</time><hdop>3.875</hdop><vdop>3.25</vdop><extensions><gom:speed>0.422</gom:speed></extensions></trkpt>
   <trkpt lat="59.0685817341" lon="30.0239570927"><ele>111.369</ele><time>2026-04-20T17:34:11.765Z</time><hdop>3.875</hdop><vdop>3.25</vdop><extensions><gom:speed>0.422</gom:speed></extensions></trkpt>
   <trkpt lat="59.0685990427" lon="30.0239431788"><ele>111.633</ele><time>2026-04-20T17:34:13.075Z</time><hdop>4.0</hdop><vdop>5.5</vdop><extensions><gom:speed>0.475</gom:speed></extensions></trkpt>
   <trkpt lat="59.0686088495" lon="30.0239356351"><ele>111.643</ele><time>2026-04-20T17:34:14.076Z</time><hdop>4.0</hdop><vdop>5.125</vdop><extensions><gom:speed>0.502</gom:speed></extensions></trkpt>
   <trkpt lat="59.0686196203" lon="30.0239271693"><ele>111.618</ele><time>2026-04-20T17:34:15.076Z</time><hdop>4.0</hdop><vdop>4.875</vdop><extensions><gom:speed>0.557</gom:speed></extensions></trkpt>
   <trkpt lat="59.0686302234" lon="30.0239197094"><ele>111.732</ele><time>2026-04-20T17:34:16.076Z</time><hdop>4.125</hdop><vdop>4.625</vdop><extensions><gom:speed>0.547</gom:speed></extensions></trkpt>
   <trkpt lat="59.0686371384" lon="30.0239150994"><ele>111.771</ele><time>2026-04-20T17:34:16.978Z</time><hdop>4.125</hdop><vdop>4.5</vdop><extensions><gom:speed>0.538</gom:speed></extensions></trkpt>
   <trkpt lat="59.0686465262" lon="30.0239131716"><ele>111.526</ele><time>2026-04-20T17:34:18.075Z</time><hdop>4.25</hdop><vdop>4.5</vdop><extensions><gom:speed>0.517</gom:speed></extensions></trkpt>
   <trkpt lat="59.0686510524" lon="30.0239114952"><ele>111.379</ele><time>2026-04-20T17:34:18.758Z</time><hdop>4.25</hdop><vdop>4.5</vdop><extensions><gom:speed>0.494</gom:speed></extensions></trkpt>
   <trkpt lat="59.0686557463" lon="30.0239070528"><ele>111.16</ele><time>2026-04-20T17:34:19.517Z</time><hdop>4.375</hdop><vdop>4.375</vdop><extensions><gom:speed>0.557</gom:speed></extensions></trkpt>
   <trkpt lat="59.0686615298" lon="30.0239034486"><ele>110.893</ele><time>2026-04-20T17:34:20.075Z</time><hdop>4.375</hdop><vdop>4.25</vdop><extensions><gom:speed>0.552</gom:speed></extensions></trkpt>
   <trkpt lat="59.0686649244" lon="30.0238997605"><ele>110.734</ele><time>2026-04-20T17:34:20.662Z</time><hdop>4.5</hdop><vdop>4.25</vdop><extensions><gom:speed>0.511</gom:speed></extensions></trkpt>
   <trkpt lat="59.0686728453" lon="30.0238941446"><ele>110.635</ele><time>2026-04-20T17:34:21.740Z</time><hdop>4.5</hdop><vdop>4.25</vdop><extensions><gom:speed>0.491</gom:speed></extensions></trkpt>
   <trkpt lat="59.0686807243" lon="30.0238887802"><ele>110.53</ele><time>2026-04-20T17:34:22.656Z</time><hdop>4.625</hdop><vdop>4.0</vdop><extensions><gom:speed>0.56</gom:speed></extensions></trkpt>
   <trkpt lat="59.0686878489" lon="30.0238840025"><ele>110.415</ele><time>2026-04-20T17:34:23.496Z</time><hdop>4.625</hdop><vdop>3.875</vdop><extensions><gom:speed>0.579</gom:speed></extensions></trkpt>
   <trkpt lat="59.0686918303" lon="30.0238809012"><ele>110.278</ele><time>2026-04-20T17:34:24.075Z</time><hdop>4.625</hdop><vdop>3.875</vdop><extensions><gom:speed>0.559</gom:speed></extensions></trkpt>
   <trkpt lat="59.0686974462" lon="30.0238726032"><ele>110.19</ele><time>2026-04-20T17:34:25.076Z</time><hdop>4.625</hdop><vdop>3.875</vdop><extensions><gom:speed>0.551</gom:speed></extensions></trkpt>
   <trkpt lat="59.068701721" lon="30.0238677416"><ele>110.138</ele><time>2026-04-20T17:34:26.075Z</time><hdop>4.625</hdop><vdop>3.625</vdop><extensions><gom:speed>0.524</gom:speed></extensions></trkpt>
   <trkpt lat="59.0687061215" lon="30.0238648918"><ele>110.111</ele><time>2026-04-20T17:34:27.075Z</time><hdop>4.625</hdop><vdop>3.875</vdop><extensions><gom:speed>0.526</gom:speed></extensions></trkpt>
   <trkpt lat="59.0687095162" lon="30.0238632992"><ele>110.093</ele><time>2026-04-20T17:34:28.076Z</time><hdop>4.75</hdop><vdop>3.75</vdop><extensions><gom:speed>0.476</gom:speed></extensions></trkpt>
   <trkpt lat="59.0687127432" lon="30.0238633831"><ele>110.08</ele><time>2026-04-20T17:34:29.075Z</time><hdop>4.75</hdop><vdop>3.625</vdop><extensions><gom:speed>0.449</gom:speed></extensions></trkpt>
   <trkpt lat="59.0687163474" lon="30.0238659814"><ele>109.997</ele><time>2026-04-20T17:34:30.075Z</time><hdop>4.75</hdop><vdop>3.5</vdop><extensions><gom:speed>0.459</gom:speed></extensions></trkpt>
   <trkpt lat="59.0687184429" lon="30.0238702562"><ele>109.939</ele><time>2026-04-20T17:34:31.075Z</time><hdop>4.75</hdop><vdop>3.625</vdop><extensions><gom:speed>0.392</gom:speed></extensions></trkpt>
   <trkpt lat="59.0687197421" lon="30.0238718488"><ele>109.901</ele><time>2026-04-20T17:34:32.076Z</time><hdop>4.75</hdop><vdop>3.5</vdop><extensions><gom:speed>0.41</gom:speed></extensions></trkpt>
   <trkpt lat="59.0687234301" lon="30.0238710944"><ele>109.879</ele><time>2026-04-20T17:34:33.061Z</time><hdop>4.875</hdop><vdop>3.5</vdop><extensions><gom:speed>0.469</gom:speed></extensions></trkpt>
   <trkpt lat="59.0687238492" lon="30.0238705915"><ele>109.873</ele><time>2026-04-20T17:34:34.076Z</time><hdop>4.75</hdop><vdop>3.75</vdop><extensions><gom:speed>0.437</gom:speed></extensions></trkpt>
   <trkpt lat="59.0687242264" lon="30.0238706753"><ele>109.789</ele><time>2026-04-20T17:34:35.075Z</time><hdop>4.75</hdop><vdop>3.875</vdop><extensions><gom:speed>0.37</gom:speed></extensions></trkpt>
   <trkpt lat="59.0687237235" lon="30.0238731899"><ele>109.781</ele><time>2026-04-20T17:34:36.075Z</time><hdop>4.75</hdop><vdop>3.875</vdop><extensions><gom:speed>0.311</gom:speed></extensions></trkpt>
   <trkpt lat="59.0687219214" lon="30.0238741119"><ele>109.766</ele><time>2026-04-20T17:34:37.075Z</time><hdop>4.75</hdop><vdop>3.75</vdop><extensions><gom:speed>0.21</gom:speed></extensions></trkpt>
   <trkpt lat="59.0687201193" lon="30.0238742795"><ele>109.764</ele><time>2026-04-20T17:34:38.075Z</time><hdop>4.625</hdop><vdop>3.625</vdop><extensions><gom:speed>0.137</gom:speed></extensions></trkpt>
   <trkpt lat="59.0687184429" lon="30.023875453"><ele>109.761</ele><time>2026-04-20T17:34:39.075Z</time><hdop>4.5</hdop><vdop>3.75</vdop><extensions><gom:speed>0.098</gom:speed></extensions></trkpt>
   <trkpt lat="59.0687169341" lon="30.0238765426"><ele>109.76</ele><time>2026-04-20T17:34:40.075Z</time><hdop>4.5</hdop><vdop>3.75</vdop><extensions><gom:speed>0.078</gom:speed></extensions></trkpt>
   <trkpt lat="59.0687159283" lon="30.0238774647"><ele>109.762</ele><time>2026-04-20T17:34:41.075Z</time><hdop>4.25</hdop><vdop>3.875</vdop><extensions><gom:speed>0.089</gom:speed></extensions></trkpt>
   <trkpt lat="59.0687157188" lon="30.0238777161"><ele>109.764</ele><time>2026-04-20T17:34:41.914Z</time><hdop>4.25</hdop><vdop>3.875</vdop><extensions><gom:speed>0.077</gom:speed></extensions></trkpt>
   <trkpt lat="59.0687149225" lon="30.0238798116"><ele>109.765</ele><time>2026-04-20T17:34:42.773Z</time><hdop>4.125</hdop><vdop>3.75</vdop><extensions><gom:speed>0.096</gom:speed></extensions></trkpt>
   <trkpt lat="59.0687136233" lon="30.023881488"><ele>109.766</ele><time>2026-04-20T17:34:43.572Z</time><hdop>4.0</hdop><vdop>3.625</vdop><extensions><gom:speed>0.065</gom:speed></extensions></trkpt>
   <trkpt lat="59.0687132461" lon="30.0238819909"><ele>109.769</ele><time>2026-04-20T17:34:44.075Z</time><hdop>4.0</hdop><vdop>3.5</vdop><extensions><gom:speed>0.099</gom:speed></extensions></trkpt>
   <trkpt lat="59.0687131204" lon="30.0238820747"><ele>109.771</ele><time>2026-04-20T17:34:44.541Z</time><hdop>4.0</hdop><vdop>3.5</vdop><extensions><gom:speed>0.1</gom:speed></extensions></trkpt>
   <trkpt lat="59.068712827" lon="30.02388241"><ele>109.778</ele><time>2026-04-20T17:34:45.076Z</time><hdop>4.0</hdop><vdop>3.5</vdop><extensions><gom:speed>0.127</gom:speed></extensions></trkpt>
   <trkpt lat="59.068712827" lon="30.0238812365"><ele>109.782</ele><time>2026-04-20T17:34:46.075Z</time><hdop>3.875</hdop><vdop>3.375</vdop><extensions><gom:speed>0.159</gom:speed></extensions></trkpt>
   <trkpt lat="59.068713749" lon="30.0238768779"><ele>109.785</ele><time>2026-04-20T17:34:47.038Z</time><hdop>3.875</hdop><vdop>3.375</vdop><extensions><gom:speed>0.26</gom:speed></extensions></trkpt>
   <trkpt lat="59.0687158445" lon="30.0238726032"><ele>109.786</ele><time>2026-04-20T17:34:47.877Z</time><hdop>3.875</hdop><vdop>3.5</vdop><extensions><gom:speed>0.37</gom:speed></extensions></trkpt>
   <trkpt lat="59.0687192392" lon="30.02387034"><ele>109.785</ele><time>2026-04-20T17:34:48.814Z</time><hdop>4.0</hdop><vdop>3.5</vdop><extensions><gom:speed>0.464</gom:speed></extensions></trkpt>
   <trkpt lat="59.0687247293" lon="30.0238658138"><ele>109.269</ele><time>2026-04-20T17:34:49.860Z</time><hdop>4.125</hdop><vdop>3.0</vdop><extensions><gom:speed>0.54</gom:speed></extensions></trkpt>
   <trkpt lat="59.0687291298" lon="30.0238641374"><ele>108.615</ele><time>2026-04-20T17:34:50.837Z</time><hdop>4.125</hdop><vdop>2.875</vdop><extensions><gom:speed>0.465</gom:speed></extensions></trkpt>
   <trkpt lat="59.06873462" lon="30.0238632154"><ele>108.122</ele><time>2026-04-20T17:34:51.618Z</time><hdop>4.25</hdop><vdop>2.75</vdop><extensions><gom:speed>0.469</gom:speed></extensions></trkpt>
   <trkpt lat="59.0687403197" lon="30.0238582701"><ele>108.34</ele><time>2026-04-20T17:34:52.075Z</time><hdop>4.375</hdop><vdop>3.5</vdop><extensions><gom:speed>0.471</gom:speed></extensions></trkpt>
   <trkpt lat="59.0687486177" lon="30.0238473736"><ele>108.673</ele><time>2026-04-20T17:34:53.075Z</time><hdop>4.375</hdop><vdop>3.5</vdop><extensions><gom:speed>0.392</gom:speed></extensions></trkpt>
   <trkpt lat="59.0687546527" lon="30.0238368124"><ele>109.07</ele><time>2026-04-20T17:34:54.075Z</time><hdop>4.5</hdop><vdop>3.625</vdop><extensions><gom:speed>0.203</gom:speed></extensions></trkpt>
   <trkpt lat="59.0687602267" lon="30.0238313642"><ele>109.086</ele><time>2026-04-20T17:34:55.075Z</time><hdop>4.375</hdop><vdop>3.5</vdop><extensions><gom:speed>0.128</gom:speed></extensions></trkpt>
   <trkpt lat="59.068766555" lon="30.0238234014"><ele>108.966</ele><time>2026-04-20T17:34:56.075Z</time><hdop>4.25</hdop><vdop>3.375</vdop><extensions><gom:speed>0.14</gom:speed></extensions></trkpt>
   <trkpt lat="59.0687703269" lon="30.0238183722"><ele>108.795</ele><time>2026-04-20T17:34:57.076Z</time><hdop>4.125</hdop><vdop>3.375</vdop><extensions><gom:speed>0.136</gom:speed></extensions></trkpt>
   <trkpt lat="59.0687737215" lon="30.0238087331"><ele>108.434</ele><time>2026-04-20T17:34:58.075Z</time><hdop>4.0</hdop><vdop>3.5</vdop><extensions><gom:speed>0.145</gom:speed></extensions></trkpt>
   <trkpt lat="59.0687747274" lon="30.0238047097"><ele>108.219</ele><time>2026-04-20T17:34:59.041Z</time><hdop>3.875</hdop><vdop>3.5</vdop><extensions><gom:speed>0.176</gom:speed></extensions></trkpt>
   <trkpt lat="59.0687782478" lon="30.0237957411"><ele>107.854</ele><time>2026-04-20T17:34:59.958Z</time><hdop>3.875</hdop><vdop>3.5</vdop><extensions><gom:speed>0.256</gom:speed></extensions></trkpt>
   <trkpt lat="59.0687831512" lon="30.023783755"><ele>107.709</ele><time>2026-04-20T17:35:00.778Z</time><hdop>3.875</hdop><vdop>3.5</vdop><extensions><gom:speed>0.395</gom:speed></extensions></trkpt>
   <trkpt lat="59.0687879289" lon="30.0237750378"><ele>107.649</ele><time>2026-04-20T17:35:01.351Z</time><hdop>3.875</hdop><vdop>3.5</vdop><extensions><gom:speed>0.482</gom:speed></extensions></trkpt>
   <trkpt lat="59.0687950535" lon="30.0237612077"><ele>107.623</ele><time>2026-04-20T17:35:02.075Z</time><hdop>3.875</hdop><vdop>3.375</vdop><extensions><gom:speed>0.565</gom:speed></extensions></trkpt>
   <trkpt lat="59.0687981548" lon="30.0237539992"><ele>107.607</ele><time>2026-04-20T17:35:02.655Z</time><hdop>4.0</hdop><vdop>3.375</vdop><extensions><gom:speed>0.614</gom:speed></extensions></trkpt>
   <trkpt lat="59.0688041479" lon="30.0237423484"><ele>107.613</ele><time>2026-04-20T17:35:03.486Z</time><hdop>4.0</hdop><vdop>3.25</vdop><extensions><gom:speed>0.634</gom:speed></extensions></trkpt>
   <trkpt lat="59.0688091351" lon="30.0237359781"><ele>107.67</ele><time>2026-04-20T17:35:04.075Z</time><hdop>4.125</hdop><vdop>3.25</vdop><extensions><gom:speed>0.622</gom:speed></extensions></trkpt>
   <trkpt lat="59.0688188162" lon="30.0237260875"><ele>107.723</ele><time>2026-04-20T17:35:05.075Z</time><hdop>4.25</hdop><vdop>3.25</vdop><extensions><gom:speed>0.602</gom:speed></extensions></trkpt>
   <trkpt lat="59.0688294193" lon="30.0237190467"><ele>107.758</ele><time>2026-04-20T17:35:06.075Z</time><hdop>4.5</hdop><vdop>3.125</vdop><extensions><gom:speed>0.637</gom:speed></extensions></trkpt>
   <trkpt lat="59.0688394357" lon="30.0237147719"><ele>107.779</ele><time>2026-04-20T17:35:07.075Z</time><hdop>4.625</hdop><vdop>3.125</vdop><extensions><gom:speed>0.649</gom:speed></extensions></trkpt>
   <trkpt lat="59.0688413216" lon="30.0237130955"><ele>107.791</ele><time>2026-04-20T17:35:07.556Z</time><hdop>4.75</hdop><vdop>3.125</vdop><extensions><gom:speed>0.657</gom:speed></extensions></trkpt>
   <trkpt lat="59.0688481528" lon="30.0237073958"><ele>107.784</ele><time>2026-04-20T17:35:08.075Z</time><hdop>4.875</hdop><vdop>3.125</vdop><extensions><gom:speed>0.655</gom:speed></extensions></trkpt>
   <trkpt lat="59.0688553194" lon="30.0237050489"><ele>107.746</ele><time>2026-04-20T17:35:09.075Z</time><hdop>5.0</hdop><vdop>3.125</vdop><extensions><gom:speed>0.562</gom:speed></extensions></trkpt>
   <trkpt lat="59.068861522" lon="30.0237058033"><ele>107.707</ele><time>2026-04-20T17:35:10.075Z</time><hdop>5.0</hdop><vdop>3.375</vdop><extensions><gom:speed>0.534</gom:speed></extensions></trkpt>
   <trkpt lat="59.0688653357" lon="30.0237060547"><ele>107.685</ele><time>2026-04-20T17:35:10.658Z</time><hdop>4.875</hdop><vdop>3.375</vdop><extensions><gom:speed>0.568</gom:speed></extensions></trkpt>
   <trkpt lat="59.0688710354" lon="30.0237034563"><ele>107.671</ele><time>2026-04-20T17:35:11.655Z</time><hdop>4.75</hdop><vdop>3.375</vdop><extensions><gom:speed>0.552</gom:speed></extensions></trkpt>
   <trkpt lat="59.0688753521" lon="30.0236980919"><ele>107.659</ele><time>2026-04-20T17:35:12.803Z</time><hdop>4.625</hdop><vdop>3.625</vdop><extensions><gom:speed>0.517</gom:speed></extensions></trkpt>
   <trkpt lat="59.068877238" lon="30.0236944877"><ele>107.653</ele><time>2026-04-20T17:35:13.522Z</time><hdop>4.5</hdop><vdop>3.375</vdop><extensions><gom:speed>0.522</gom:speed></extensions></trkpt>
   <trkpt lat="59.0688788306" lon="30.0236909673"><ele>107.626</ele><time>2026-04-20T17:35:14.075Z</time><hdop>4.5</hdop><vdop>3.375</vdop><extensions><gom:speed>0.481</gom:speed></extensions></trkpt>
   <trkpt lat="59.0688813452" lon="30.0236849323"><ele>107.493</ele><time>2026-04-20T17:35:15.075Z</time><hdop>4.5</hdop><vdop>3.5</vdop><extensions><gom:speed>0.512</gom:speed></extensions></trkpt>
   <trkpt lat="59.0688828539" lon="30.0236742035"><ele>107.766</ele><time>2026-04-20T17:35:16.076Z</time><hdop>4.5</hdop><vdop>3.625</vdop><extensions><gom:speed>0.538</gom:speed></extensions></trkpt>
   <trkpt lat="59.0688840274" lon="30.0236581941"><ele>108.199</ele><time>2026-04-20T17:35:17.075Z</time><hdop>4.5</hdop><vdop>3.375</vdop><extensions><gom:speed>0.626</gom:speed></extensions></trkpt>
   <trkpt lat="59.0688842369" lon="30.0236412626"><ele>108.457</ele><time>2026-04-20T17:35:18.042Z</time><hdop>4.5</hdop><vdop>3.375</vdop><extensions><gom:speed>0.702</gom:speed></extensions></trkpt>
   <trkpt lat="59.0688847399" lon="30.023621649"><ele>108.945</ele><time>2026-04-20T17:35:19.039Z</time><hdop>4.625</hdop><vdop>3.125</vdop><extensions><gom:speed>0.728</gom:speed></extensions></trkpt>
   <trkpt lat="59.0688852428" lon="30.0236037955"><ele>108.943</ele><time>2026-04-20T17:35:19.977Z</time><hdop>4.625</hdop><vdop>3.125</vdop><extensions><gom:speed>0.723</gom:speed></extensions></trkpt>
   <trkpt lat="59.068885117" lon="30.0235833437"><ele>109.373</ele><time>2026-04-20T17:35:20.876Z</time><hdop>4.75</hdop><vdop>3.0</vdop><extensions><gom:speed>0.733</gom:speed></extensions></trkpt>
   <trkpt lat="59.0688847399" lon="30.0235623889"><ele>109.336</ele><time>2026-04-20T17:35:21.738Z</time><hdop>4.625</hdop><vdop>2.75</vdop><extensions><gom:speed>0.749</gom:speed></extensions></trkpt>
   <trkpt lat="59.0688844465" lon="30.0235414342"><ele>109.144</ele><time>2026-04-20T17:35:22.623Z</time><hdop>4.625</hdop><vdop>2.625</vdop><extensions><gom:speed>0.764</gom:speed></extensions></trkpt>
   <trkpt lat="59.0688849494" lon="30.0235292804"><ele>109.105</ele><time>2026-04-20T17:35:23.076Z</time><hdop>4.625</hdop><vdop>2.5</vdop><extensions><gom:speed>0.756</gom:speed></extensions></trkpt>
   <trkpt lat="59.0688864162" lon="30.02350447"><ele>109.072</ele><time>2026-04-20T17:35:24.075Z</time><hdop>4.5</hdop><vdop>2.5</vdop><extensions><gom:speed>0.775</gom:speed></extensions></trkpt>
   <trkpt lat="59.0688884279" lon="30.0234810845"><ele>108.892</ele><time>2026-04-20T17:35:25.076Z</time><hdop>4.625</hdop><vdop>2.5</vdop><extensions><gom:speed>0.783</gom:speed></extensions></trkpt>
   <trkpt lat="59.0688913196" lon="30.0234582019"><ele>108.524</ele><time>2026-04-20T17:35:26.075Z</time><hdop>4.625</hdop><vdop>2.5</vdop><extensions><gom:speed>0.739</gom:speed></extensions></trkpt>
   <trkpt lat="59.0688944209" lon="30.0234371633"><ele>108.236</ele><time>2026-04-20T17:35:27.075Z</time><hdop>4.625</hdop><vdop>2.5</vdop><extensions><gom:speed>0.697</gom:speed></extensions></trkpt>
   <trkpt lat="59.068895343" lon="30.023421992"><ele>108.064</ele><time>2026-04-20T17:35:28.004Z</time><hdop>4.625</hdop><vdop>2.5</vdop><extensions><gom:speed>0.694</gom:speed></extensions></trkpt>
   <trkpt lat="59.0688969355" lon="30.0234001153"><ele>107.803</ele><time>2026-04-20T17:35:29.038Z</time><hdop>4.625</hdop><vdop>2.5</vdop><extensions><gom:speed>0.691</gom:speed></extensions></trkpt>
   <trkpt lat="59.068902258" lon="30.0233786576"><ele>107.549</ele><time>2026-04-20T17:35:30.075Z</time><hdop>4.625</hdop><vdop>2.5</vdop><extensions><gom:speed>0.608</gom:speed></extensions></trkpt>
   <trkpt lat="59.0689084187" lon="30.0233718683"><ele>107.272</ele><time>2026-04-20T17:35:31.075Z</time><hdop>4.5</hdop><vdop>2.5</vdop><extensions><gom:speed>0.497</gom:speed></extensions></trkpt>
   <trkpt lat="59.0689118553" lon="30.0233729579"><ele>106.944</ele><time>2026-04-20T17:35:32.075Z</time><hdop>4.375</hdop><vdop>2.5</vdop><extensions><gom:speed>0.317</gom:speed></extensions></trkpt>
   <trkpt lat="59.0689102208" lon="30.0233689346"><ele>106.42</ele><time>2026-04-20T17:35:33.076Z</time><hdop>4.25</hdop><vdop>2.5</vdop><extensions><gom:speed>0.136</gom:speed></extensions></trkpt>
   <trkpt lat="59.0689100532" lon="30.0233641569"><ele>106.092</ele><time>2026-04-20T17:35:34.076Z</time><hdop>4.125</hdop><vdop>2.5</vdop><extensions><gom:speed>0.118</gom:speed></extensions></trkpt>
   <trkpt lat="59.0689106399" lon="30.0233624805"><ele>105.89</ele><time>2026-04-20T17:35:35.037Z</time><hdop>4.0</hdop><vdop>5.0</vdop><extensions><gom:speed>0.086</gom:speed></extensions></trkpt>
   <trkpt lat="59.0689111428" lon="30.0233587087"><ele>105.761</ele><time>2026-04-20T17:35:36.075Z</time><hdop>4.0</hdop><vdop>4.875</vdop><extensions><gom:speed>0.077</gom:speed></extensions></trkpt>
   <trkpt lat="59.0689119391" lon="30.0233552721"><ele>105.593</ele><time>2026-04-20T17:35:37.076Z</time><hdop>3.875</hdop><vdop>4.75</vdop><extensions><gom:speed>0.098</gom:speed></extensions></trkpt>
   <trkpt lat="59.068912442" lon="30.0233516679"><ele>105.54</ele><time>2026-04-20T17:35:38.076Z</time><hdop>3.75</hdop><vdop>4.75</vdop><extensions><gom:speed>0.065</gom:speed></extensions></trkpt>
   <trkpt lat="59.0689122325" lon="30.0233481475"><ele>105.479</ele><time>2026-04-20T17:35:39.075Z</time><hdop>3.625</hdop><vdop>4.75</vdop><extensions><gom:speed>0.077</gom:speed></extensions></trkpt>
   <trkpt lat="59.068912442" lon="30.0233452138"><ele>105.4</ele><time>2026-04-20T17:35:40.075Z</time><hdop>3.5</hdop><vdop>4.875</vdop><extensions><gom:speed>0.081</gom:speed></extensions></trkpt>
   <trkpt lat="59.0689130288" lon="30.023341861"><ele>105.275</ele><time>2026-04-20T17:35:41.075Z</time><hdop>3.5</hdop><vdop>4.875</vdop><extensions><gom:speed>0.097</gom:speed></extensions></trkpt>
   <trkpt lat="59.0689142442" lon="30.0233397656"><ele>105.24</ele><time>2026-04-20T17:35:42.075Z</time><hdop>3.5</hdop><vdop>5.0</vdop><extensions><gom:speed>0.076</gom:speed></extensions></trkpt>
   <trkpt lat="59.0689145375" lon="30.023338173"><ele>105.219</ele><time>2026-04-20T17:35:42.798Z</time><hdop>3.5</hdop><vdop>5.0</vdop><extensions><gom:speed>0.079</gom:speed></extensions></trkpt>
   <trkpt lat="59.0689153338" lon="30.0233349879"><ele>105.184</ele><time>2026-04-20T17:35:43.520Z</time><hdop>3.625</hdop><vdop>4.75</vdop><extensions><gom:speed>0.043</gom:speed></extensions></trkpt>
   <trkpt lat="59.0689160463" lon="30.0233320542"><ele>105.129</ele><time>2026-04-20T17:35:44.075Z</time><hdop>3.625</hdop><vdop>4.625</vdop><extensions><gom:speed>0.087</gom:speed></extensions></trkpt>
   <trkpt lat="59.0689165492" lon="30.0233316351"><ele>105.095</ele><time>2026-04-20T17:35:44.632Z</time><hdop>3.625</hdop><vdop>4.625</vdop><extensions><gom:speed>0.046</gom:speed></extensions></trkpt>
   <trkpt lat="59.0689178484" lon="30.0233277794"><ele>105.063</ele><time>2026-04-20T17:35:45.278Z</time><hdop>3.625</hdop><vdop>4.625</vdop><extensions><gom:speed>0.108</gom:speed></extensions></trkpt>
   <trkpt lat="59.0689186446" lon="30.0233252649"><ele>105.065</ele><time>2026-04-20T17:35:46.075Z</time><hdop>3.625</hdop><vdop>4.375</vdop><extensions><gom:speed>0.1</gom:speed></extensions></trkpt>
   <trkpt lat="59.0689200277" lon="30.023322415"><ele>105.066</ele><time>2026-04-20T17:35:46.914Z</time><hdop>3.625</hdop><vdop>4.375</vdop><extensions><gom:speed>0.187</gom:speed></extensions></trkpt>
   <trkpt lat="59.0689225422" lon="30.0233162124"><ele>105.067</ele><time>2026-04-20T17:35:47.774Z</time><hdop>3.75</hdop><vdop>4.5</vdop><extensions><gom:speed>0.358</gom:speed></extensions></trkpt>
   <trkpt lat="59.0689260207" lon="30.0233055674"><ele>105.078</ele><time>2026-04-20T17:35:48.662Z</time><hdop>3.75</hdop><vdop>4.375</vdop><extensions><gom:speed>0.502</gom:speed></extensions></trkpt>
   <trkpt lat="59.0689293316" lon="30.0232925755"><ele>105.078</ele><time>2026-04-20T17:35:49.526Z</time><hdop>3.875</hdop><vdop>4.125</vdop><extensions><gom:speed>0.591</gom:speed></extensions></trkpt>
   <trkpt lat="59.068930044" lon="30.0232846965"><ele>105.086</ele><time>2026-04-20T17:35:50.075Z</time><hdop>3.875</hdop><vdop>3.75</vdop><extensions><gom:speed>0.595</gom:speed></extensions></trkpt>
   <trkpt lat="59.0689304212" lon="30.0232787453"><ele>105.091</ele><time>2026-04-20T17:35:50.910Z</time><hdop>4.0</hdop><vdop>3.75</vdop><extensions><gom:speed>0.605</gom:speed></extensions></trkpt>
   <trkpt lat="59.0689309241" lon="30.0232582096"><ele>105.081</ele><time>2026-04-20T17:35:52.038Z</time><hdop>4.25</hdop><vdop>3.75</vdop><extensions><gom:speed>0.618</gom:speed></extensions></trkpt>
   <trkpt lat="59.0689296249" lon="30.0232481514"><ele>105.071</ele><time>2026-04-20T17:35:53.015Z</time><hdop>4.375</hdop><vdop>3.75</vdop><extensions><gom:speed>0.608</gom:speed></extensions></trkpt>
   <trkpt lat="59.0689292478" lon="30.0232416973"><ele>105.051</ele><time>2026-04-20T17:35:53.815Z</time><hdop>4.5</hdop><vdop>3.875</vdop><extensions><gom:speed>0.606</gom:speed></extensions></trkpt>
   <trkpt lat="59.0689302536" lon="30.0232336507"><ele>105.042</ele><time>2026-04-20T17:35:54.762Z</time><hdop>4.5</hdop><vdop>3.75</vdop><extensions><gom:speed>0.628</gom:speed></extensions></trkpt>
   <trkpt lat="59.0689309241" lon="30.0232266099"><ele>105.035</ele><time>2026-04-20T17:35:55.582Z</time><hdop>4.5</hdop><vdop>3.75</vdop><extensions><gom:speed>0.676</gom:speed></extensions></trkpt>
   <trkpt lat="59.0689312175" lon="30.0232223351"><ele>104.303</ele><time>2026-04-20T17:35:56.075Z</time><hdop>4.5</hdop><vdop>3.25</vdop><extensions><gom:speed>0.65</gom:speed></extensions></trkpt>
   <trkpt lat="59.0689318461" lon="30.0232168869"><ele>103.865</ele><time>2026-04-20T17:35:56.559Z</time><hdop>4.5</hdop><vdop>3.25</vdop><extensions><gom:speed>0.665</gom:speed></extensions></trkpt>
   <trkpt lat="59.0689325167" lon="30.0232113548"><ele>103.551</ele><time>2026-04-20T17:35:57.075Z</time><hdop>4.5</hdop><vdop>3.125</vdop><extensions><gom:speed>0.665</gom:speed></extensions></trkpt>
   <trkpt lat="59.0689350313" lon="30.0232012965"><ele>104.116</ele><time>2026-04-20T17:35:58.075Z</time><hdop>4.5</hdop><vdop>2.875</vdop><extensions><gom:speed>0.659</gom:speed></extensions></trkpt>
   <trkpt lat="59.0689397251" lon="30.0231895619"><ele>104.294</ele><time>2026-04-20T17:35:59.075Z</time><hdop>4.5</hdop><vdop>2.625</vdop><extensions><gom:speed>0.703</gom:speed></extensions></trkpt>
   <trkpt lat="59.0689434551" lon="30.0231740553"><ele>104.583</ele><time>2026-04-20T17:36:00.075Z</time><hdop>4.5</hdop><vdop>3.875</vdop><extensions><gom:speed>0.642</gom:speed></extensions></trkpt>
   <trkpt lat="59.0689449219" lon="30.0231551122"><ele>104.701</ele><time>2026-04-20T17:36:01.076Z</time><hdop>4.5</hdop><vdop>3.625</vdop><extensions><gom:speed>0.633</gom:speed></extensions></trkpt>
   <trkpt lat="59.0689455506" lon="30.023139941"><ele>104.772</ele><time>2026-04-20T17:36:02.018Z</time><hdop>4.625</hdop><vdop>3.625</vdop><extensions><gom:speed>0.662</gom:speed></extensions></trkpt>
   <trkpt lat="59.0689466402" lon="30.0231213332"><ele>104.69</ele><time>2026-04-20T17:36:02.857Z</time><hdop>4.625</hdop><vdop>3.75</vdop><extensions><gom:speed>0.713</gom:speed></extensions></trkpt>
   <trkpt lat="59.0689492386" lon="30.0230946787"><ele>104.58</ele><time>2026-04-20T17:36:03.981Z</time><hdop>4.75</hdop><vdop>3.5</vdop><extensions><gom:speed>0.684</gom:speed></extensions></trkpt>
   <trkpt lat="59.0689503282" lon="30.0230790884"><ele>104.829</ele><time>2026-04-20T17:36:04.841Z</time><hdop>4.75</hdop><vdop>3.375</vdop><extensions><gom:speed>0.73</gom:speed></extensions></trkpt>
   <trkpt lat="59.0689515436" lon="30.0230586365"><ele>105.02</ele><time>2026-04-20T17:36:05.896Z</time><hdop>4.75</hdop><vdop>3.375</vdop><extensions><gom:speed>0.713</gom:speed></extensions></trkpt>
   <trkpt lat="59.0689542258" lon="30.0230401963"><ele>105.067</ele><time>2026-04-20T17:36:07.042Z</time><hdop>4.75</hdop><vdop>3.375</vdop><extensions><gom:speed>0.665</gom:speed></extensions></trkpt>
   <trkpt lat="59.0689568242" lon="30.0230265338"><ele>105.087</ele><time>2026-04-20T17:36:07.981Z</time><hdop>4.75</hdop><vdop>3.375</vdop><extensions><gom:speed>0.645</gom:speed></extensions></trkpt>
   <trkpt lat="59.0689590454" lon="30.023013039"><ele>105.125</ele><time>2026-04-20T17:36:08.819Z</time><hdop>4.75</hdop><vdop>3.125</vdop><extensions><gom:speed>0.658</gom:speed></extensions></trkpt>
   <trkpt lat="59.0689596322" lon="30.0230056629"><ele>105.218</ele><time>2026-04-20T17:36:09.506Z</time><hdop>4.625</hdop><vdop>3.125</vdop><extensions><gom:speed>0.596</gom:speed></extensions></trkpt>
   <trkpt lat="59.0689612247" lon="30.022993593"><ele>105.385</ele><time>2026-04-20T17:36:10.075Z</time><hdop>4.625</hdop><vdop>3.25</vdop><extensions><gom:speed>0.541</gom:speed></extensions></trkpt>
   <trkpt lat="59.068962021" lon="30.0229881447"><ele>105.535</ele><time>2026-04-20T17:36:11.075Z</time><hdop>4.5</hdop><vdop>3.25</vdop><extensions><gom:speed>0.353</gom:speed></extensions></trkpt>
   <trkpt lat="59.0689626496" lon="30.0229878095"><ele>105.651</ele><time>2026-04-20T17:36:12.075Z</time><hdop>4.5</hdop><vdop>3.375</vdop><extensions><gom:speed>0.225</gom:speed></extensions></trkpt>
   <trkpt lat="59.0689625239" lon="30.0229892344"><ele>105.752</ele><time>2026-04-20T17:36:13.075Z</time><hdop>4.5</hdop><vdop>3.375</vdop><extensions><gom:speed>0.14</gom:speed></extensions></trkpt>
   <trkpt lat="59.0689621467" lon="30.0229891506"><ele>105.835</ele><time>2026-04-20T17:36:14.075Z</time><hdop>4.375</hdop><vdop>3.625</vdop><extensions><gom:speed>0.08</gom:speed></extensions></trkpt>
   <trkpt lat="59.0689618534" lon="30.0229880609"><ele>105.904</ele><time>2026-04-20T17:36:14.955Z</time><hdop>4.25</hdop><vdop>3.75</vdop><extensions><gom:speed>0.065</gom:speed></extensions></trkpt>
   <trkpt lat="59.0689622305" lon="30.0229890667"><ele>105.945</ele><time>2026-04-20T17:36:15.666Z</time><hdop>4.25</hdop><vdop>3.75</vdop><extensions><gom:speed>0.029</gom:speed></extensions></trkpt>
   <trkpt lat="59.0689626496" lon="30.0229888153"><ele>105.99</ele><time>2026-04-20T17:36:17.075Z</time><hdop>4.125</hdop><vdop>3.5</vdop><extensions><gom:speed>0.098</gom:speed></extensions></trkpt>
   <trkpt lat="59.0689630268" lon="30.0229859654"><ele>106.036</ele><time>2026-04-20T17:36:18.075Z</time><hdop>4.0</hdop><vdop>3.375</vdop><extensions><gom:speed>0.065</gom:speed></extensions></trkpt>
   <trkpt lat="59.0689628173" lon="30.022983367"><ele>106.069</ele><time>2026-04-20T17:36:19.075Z</time><hdop>3.875</hdop><vdop>3.25</vdop><extensions><gom:speed>0.064</gom:speed></extensions></trkpt>
   <trkpt lat="59.0689630268" lon="30.0229809363"><ele>106.108</ele><time>2026-04-20T17:36:20.075Z</time><hdop>3.875</hdop><vdop>3.25</vdop><extensions><gom:speed>0.097</gom:speed></extensions></trkpt>
   <trkpt lat="59.0689633202" lon="30.0229792599"><ele>106.152</ele><time>2026-04-20T17:36:21.075Z</time><hdop>3.75</hdop><vdop>3.0</vdop><extensions><gom:speed>0.058</gom:speed></extensions></trkpt>
   <trkpt lat="59.0689634459" lon="30.0229795952"><ele>106.178</ele><time>2026-04-20T17:36:21.826Z</time><hdop>3.75</hdop><vdop>3.0</vdop><extensions><gom:speed>0.061</gom:speed></extensions></trkpt>
   <trkpt lat="59.0689645356" lon="30.0229749851"><ele>106.207</ele><time>2026-04-20T17:36:23.075Z</time><hdop>3.625</hdop><vdop>2.75</vdop><extensions><gom:speed>0.066</gom:speed></extensions></trkpt>
   <trkpt lat="59.0689653319" lon="30.022973644"><ele>106.231</ele><time>2026-04-20T17:36:24.075Z</time><hdop>3.625</hdop><vdop>2.875</vdop><extensions><gom:speed>0.099</gom:speed></extensions></trkpt>
   <trkpt lat="59.0689655414" lon="30.0229728897"><ele>106.245</ele><time>2026-04-20T17:36:24.823Z</time><hdop>3.625</hdop><vdop>2.875</vdop><extensions><gom:speed>0.089</gom:speed></extensions></trkpt>
   <trkpt lat="59.0689657509" lon="30.0229698722"><ele>106.296</ele><time>2026-04-20T17:36:26.075Z</time><hdop>3.625</hdop><vdop>3.125</vdop><extensions><gom:speed>0.093</gom:speed></extensions></trkpt>
   <trkpt lat="59.0689664215" lon="30.0229683634"><ele>106.326</ele><time>2026-04-20T17:36:27.040Z</time><hdop>3.625</hdop><vdop>3.125</vdop><extensions><gom:speed>0.137</gom:speed></extensions></trkpt>
   <trkpt lat="59.0689669244" lon="30.0229651783"><ele>106.36</ele><time>2026-04-20T17:36:28.038Z</time><hdop>3.625</hdop><vdop>3.0</vdop><extensions><gom:speed>0.171</gom:speed></extensions></trkpt>
   <trkpt lat="59.0689681398" lon="30.0229583052"><ele>106.498</ele><time>2026-04-20T17:36:28.935Z</time><hdop>3.625</hdop><vdop>2.75</vdop><extensions><gom:speed>0.286</gom:speed></extensions></trkpt>
   <trkpt lat="59.0689697323" lon="30.0229498394"><ele>106.682</ele><time>2026-04-20T17:36:29.597Z</time><hdop>3.625</hdop><vdop>2.5</vdop><extensions><gom:speed>0.379</gom:speed></extensions></trkpt>
   <trkpt lat="59.0689712411" lon="30.0229428825"><ele>106.277</ele><time>2026-04-20T17:36:30.075Z</time><hdop>3.625</hdop><vdop>2.5</vdop><extensions><gom:speed>0.403</gom:speed></extensions></trkpt>
   <trkpt lat="59.068975935" lon="30.0229216762"><ele>105.966</ele><time>2026-04-20T17:36:31.075Z</time><hdop>3.75</hdop><vdop>2.5</vdop><extensions><gom:speed>0.618</gom:speed></extensions></trkpt>
   <trkpt lat="59.0689803355" lon="30.0228987098"><ele>105.644</ele><time>2026-04-20T17:36:32.075Z</time><hdop>3.875</hdop><vdop>2.5</vdop><extensions><gom:speed>0.719</gom:speed></extensions></trkpt>
   <trkpt lat="59.0689855322" lon="30.0228744023"><ele>105.874</ele><time>2026-04-20T17:36:33.075Z</time><hdop>4.0</hdop><vdop>2.5</vdop><extensions><gom:speed>0.782</gom:speed></extensions></trkpt>
   <trkpt lat="59.0689891365" lon="30.022858309"><ele>106.012</ele><time>2026-04-20T17:36:33.881Z</time><hdop>4.0</hdop><vdop>2.5</vdop><extensions><gom:speed>0.815</gom:speed></extensions></trkpt>
   <trkpt lat="59.0689919444" lon="30.0228369352"><ele>105.998</ele><time>2026-04-20T17:36:34.680Z</time><hdop>4.125</hdop><vdop>2.5</vdop><extensions><gom:speed>0.863</gom:speed></extensions></trkpt>
   <trkpt lat="59.0689947523" lon="30.0228149746"><ele>105.981</ele><time>2026-04-20T17:36:35.484Z</time><hdop>4.25</hdop><vdop>2.5</vdop><extensions><gom:speed>0.888</gom:speed></extensions></trkpt>
   <trkpt lat="59.0689978536" lon="30.0227989652"><ele>106.164</ele><time>2026-04-20T17:36:36.076Z</time><hdop>4.25</hdop><vdop>2.5</vdop><extensions><gom:speed>0.893</gom:speed></extensions></trkpt>
   <trkpt lat="59.0690031342" lon="30.0227744062"><ele>105.888</ele><time>2026-04-20T17:36:37.075Z</time><hdop>4.25</hdop><vdop>2.5</vdop><extensions><gom:speed>0.873</gom:speed></extensions></trkpt>
   <trkpt lat="59.069008331" lon="30.0227521942"><ele>105.848</ele><time>2026-04-20T17:36:38.076Z</time><hdop>4.25</hdop><vdop>2.5</vdop><extensions><gom:speed>0.819</gom:speed></extensions></trkpt>
   <trkpt lat="59.0690144498" lon="30.022733754"><ele>105.493</ele><time>2026-04-20T17:36:39.075Z</time><hdop>4.25</hdop><vdop>2.5</vdop><extensions><gom:speed>0.774</gom:speed></extensions></trkpt>
   <trkpt lat="59.0690202333" lon="30.0227164872"><ele>105.344</ele><time>2026-04-20T17:36:40.075Z</time><hdop>4.375</hdop><vdop>2.5</vdop><extensions><gom:speed>0.742</gom:speed></extensions></trkpt>
   <trkpt lat="59.0690253463" lon="30.0226995558"><ele>105.077</ele><time>2026-04-20T17:36:41.075Z</time><hdop>4.375</hdop><vdop>2.5</vdop><extensions><gom:speed>0.69</gom:speed></extensions></trkpt>
   <trkpt lat="59.0690288248" lon="30.0226840493"><ele>104.917</ele><time>2026-04-20T17:36:41.896Z</time><hdop>4.5</hdop><vdop>2.5</vdop><extensions><gom:speed>0.71</gom:speed></extensions></trkpt>
   <trkpt lat="59.0690338539" lon="30.0226663635"><ele>104.743</ele><time>2026-04-20T17:36:43.061Z</time><hdop>4.5</hdop><vdop>2.5</vdop><extensions><gom:speed>0.698</gom:speed></extensions></trkpt>
   <trkpt lat="59.0690383382" lon="30.0226506055"><ele>104.426</ele><time>2026-04-20T17:36:44.075Z</time><hdop>4.5</hdop><vdop>2.5</vdop><extensions><gom:speed>0.568</gom:speed></extensions></trkpt>
   <trkpt lat="59.0690395536" lon="30.0226409663"><ele>104.161</ele><time>2026-04-20T17:36:45.075Z</time><hdop>4.5</hdop><vdop>4.75</vdop><extensions><gom:speed>0.422</gom:speed></extensions></trkpt>
   <trkpt lat="59.0690400565" lon="30.0226376135"><ele>103.9</ele><time>2026-04-20T17:36:45.989Z</time><hdop>4.5</hdop><vdop>4.875</vdop><extensions><gom:speed>0.289</gom:speed></extensions></trkpt>
   <trkpt lat="59.0690402242" lon="30.0226398767"><ele>103.774</ele><time>2026-04-20T17:36:46.938Z</time><hdop>4.5</hdop><vdop>4.875</vdop><extensions><gom:speed>0.129</gom:speed></extensions></trkpt>
   <trkpt lat="59.069039847" lon="30.0226428103"><ele>103.698</ele><time>2026-04-20T17:36:47.434Z</time><hdop>4.625</hdop><vdop>4.875</vdop><extensions><gom:speed>0.056</gom:speed></extensions></trkpt>
   <trkpt lat="59.0690404337" lon="30.0226404634"><ele>103.692</ele><time>2026-04-20T17:36:48.075Z</time><hdop>4.5</hdop><vdop>4.75</vdop><extensions><gom:speed>0.1</gom:speed></extensions></trkpt>
   <trkpt lat="59.0690406433" lon="30.022639709"><ele>103.671</ele><time>2026-04-20T17:36:48.951Z</time><hdop>4.625</hdop><vdop>4.5</vdop><extensions><gom:speed>0.107</gom:speed></extensions></trkpt>
   <trkpt lat="59.0690397212" lon="30.022635099"><ele>103.538</ele><time>2026-04-20T17:36:50.076Z</time><hdop>4.75</hdop><vdop>4.25</vdop><extensions><gom:speed>0.124</gom:speed></extensions></trkpt>
   <trkpt lat="59.0690394279" lon="30.0226335902"><ele>103.458</ele><time>2026-04-20T17:36:50.573Z</time><hdop>4.75</hdop><vdop>4.25</vdop><extensions><gom:speed>0.155</gom:speed></extensions></trkpt>
   <trkpt lat="59.0690388411" lon="30.0226288964"><ele>103.442</ele><time>2026-04-20T17:36:51.480Z</time><hdop>4.75</hdop><vdop>4.125</vdop><extensions><gom:speed>0.219</gom:speed></extensions></trkpt>
   <trkpt lat="59.0690396374" lon="30.0226227776"><ele>103.48</ele><time>2026-04-20T17:36:52.075Z</time><hdop>4.75</hdop><vdop>4.125</vdop><extensions><gom:speed>0.233</gom:speed></extensions></trkpt>
   <trkpt lat="59.069042152" lon="30.0226138928"><ele>103.578</ele><time>2026-04-20T17:36:53.076Z</time><hdop>4.75</hdop><vdop>3.875</vdop><extensions><gom:speed>0.321</gom:speed></extensions></trkpt>
   <trkpt lat="59.0690433255" lon="30.0226102047"><ele>103.637</ele><time>2026-04-20T17:36:53.570Z</time><hdop>4.75</hdop><vdop>3.875</vdop><extensions><gom:speed>0.332</gom:speed></extensions></trkpt>
   <trkpt lat="59.0690456305" lon="30.0226016552"><ele>103.706</ele><time>2026-04-20T17:36:54.076Z</time><hdop>4.75</hdop><vdop>3.75</vdop><extensions><gom:speed>0.343</gom:speed></extensions></trkpt>
   <trkpt lat="59.06904584" lon="30.0225939438"><ele>103.803</ele><time>2026-04-20T17:36:55.075Z</time><hdop>4.625</hdop><vdop>3.5</vdop><extensions><gom:speed>0.352</gom:speed></extensions></trkpt>
   <trkpt lat="59.0690450437" lon="30.022590172"><ele>103.86</ele><time>2026-04-20T17:36:55.776Z</time><hdop>4.625</hdop><vdop>3.5</vdop><extensions><gom:speed>0.324</gom:speed></extensions></trkpt>
   <trkpt lat="59.0690433255" lon="30.0225838855"><ele>103.925</ele><time>2026-04-20T17:36:56.861Z</time><hdop>4.625</hdop><vdop>3.5</vdop><extensions><gom:speed>0.337</gom:speed></extensions></trkpt>
   <trkpt lat="59.0690423196" lon="30.0225793593"><ele>103.976</ele><time>2026-04-20T17:36:57.699Z</time><hdop>4.5</hdop><vdop>3.375</vdop><extensions><gom:speed>0.334</gom:speed></extensions></trkpt>
   <trkpt lat="59.0690426549" lon="30.0225757551"><ele>104.022</ele><time>2026-04-20T17:36:58.578Z</time><hdop>4.5</hdop><vdop>3.375</vdop><extensions><gom:speed>0.362</gom:speed></extensions></trkpt>
   <trkpt lat="59.0690427387" lon="30.0225713127"><ele>104.549</ele><time>2026-04-20T17:36:59.075Z</time><hdop>4.5</hdop><vdop>3.0</vdop><extensions><gom:speed>0.383</gom:speed></extensions></trkpt>
   <trkpt lat="59.0690420263" lon="30.0225632661"><ele>104.864</ele><time>2026-04-20T17:36:59.730Z</time><hdop>4.625</hdop><vdop>3.0</vdop><extensions><gom:speed>0.508</gom:speed></extensions></trkpt>
   <trkpt lat="59.06904123" lon="30.0225467537"><ele>105.196</ele><time>2026-04-20T17:37:00.478Z</time><hdop>4.625</hdop><vdop>2.75</vdop><extensions><gom:speed>0.582</gom:speed></extensions></trkpt>
   <trkpt lat="59.0690422358" lon="30.0225390424"><ele>105.051</ele><time>2026-04-20T17:37:01.075Z</time><hdop>4.625</hdop><vdop>2.625</vdop><extensions><gom:speed>0.575</gom:speed></extensions></trkpt>
   <trkpt lat="59.0690465525" lon="30.0225268048"><ele>104.256</ele><time>2026-04-20T17:37:02.075Z</time><hdop>4.625</hdop><vdop>2.5</vdop><extensions><gom:speed>0.586</gom:speed></extensions></trkpt>
   <trkpt lat="59.069050031" lon="30.0225239549"><ele>103.781</ele><time>2026-04-20T17:37:02.793Z</time><hdop>4.625</hdop><vdop>2.5</vdop><extensions><gom:speed>0.523</gom:speed></extensions></trkpt>
   <trkpt lat="59.0690542219" lon="30.0225221947"><ele>103.296</ele><time>2026-04-20T17:37:03.957Z</time><hdop>4.625</hdop><vdop>2.5</vdop><extensions><gom:speed>0.37</gom:speed></extensions></trkpt>
   <trkpt lat="59.0690573232" lon="30.0225202669"><ele>102.408</ele><time>2026-04-20T17:37:05.013Z</time><hdop>4.625</hdop><vdop>2.5</vdop><extensions><gom:speed>0.362</gom:speed></extensions></trkpt>
   <trkpt lat="59.0690580357" lon="30.0225186743"><ele>102.08</ele><time>2026-04-20T17:37:05.889Z</time><hdop>4.625</hdop><vdop>4.5</vdop><extensions><gom:speed>0.321</gom:speed></extensions></trkpt>
   <trkpt lat="59.0690621428" lon="30.0225090351"><ele>102.121</ele><time>2026-04-20T17:37:07.076Z</time><hdop>4.625</hdop><vdop>4.5</vdop><extensions><gom:speed>0.277</gom:speed></extensions></trkpt>
   <trkpt lat="59.0690647412" lon="30.0225033354"><ele>102.117</ele><time>2026-04-20T17:37:08.022Z</time><hdop>4.625</hdop><vdop>4.5</vdop><extensions><gom:speed>0.32</gom:speed></extensions></trkpt>
   <trkpt lat="59.0690687226" lon="30.0224967137"><ele>102.164</ele><time>2026-04-20T17:37:09.075Z</time><hdop>4.625</hdop><vdop>4.375</vdop><extensions><gom:speed>0.36</gom:speed></extensions></trkpt>
   <trkpt lat="59.0690728298" lon="30.0224887509"><ele>102.254</ele><time>2026-04-20T17:37:10.075Z</time><hdop>4.625</hdop><vdop>4.25</vdop><extensions><gom:speed>0.396</gom:speed></extensions></trkpt>
   <trkpt lat="59.069076434" lon="30.0224796147"><ele>102.302</ele><time>2026-04-20T17:37:11.075Z</time><hdop>4.625</hdop><vdop>4.25</vdop><extensions><gom:speed>0.412</gom:speed></extensions></trkpt>
   <trkpt lat="59.069080122" lon="30.0224714004"><ele>102.465</ele><time>2026-04-20T17:37:12.075Z</time><hdop>4.625</hdop><vdop>4.375</vdop><extensions><gom:speed>0.431</gom:speed></extensions></trkpt>
   <trkpt lat="59.0690842291" lon="30.0224633538"><ele>102.606</ele><time>2026-04-20T17:37:12.996Z</time><hdop>4.75</hdop><vdop>4.25</vdop><extensions><gom:speed>0.475</gom:speed></extensions></trkpt>
   <trkpt lat="59.0690882525" lon="30.0224565644"><ele>102.691</ele><time>2026-04-20T17:37:13.996Z</time><hdop>4.75</hdop><vdop>4.25</vdop><extensions><gom:speed>0.519</gom:speed></extensions></trkpt>
   <trkpt lat="59.069092653" lon="30.0224480149"><ele>102.815</ele><time>2026-04-20T17:37:14.796Z</time><hdop>4.75</hdop><vdop>4.0</vdop><extensions><gom:speed>0.622</gom:speed></extensions></trkpt>
   <trkpt lat="59.0690974306" lon="30.0224380404"><ele>102.888</ele><time>2026-04-20T17:37:15.675Z</time><hdop>4.75</hdop><vdop>4.0</vdop><extensions><gom:speed>0.696</gom:speed></extensions></trkpt>
   <trkpt lat="59.0691016216" lon="30.0224271439"><ele>102.922</ele><time>2026-04-20T17:37:16.592Z</time><hdop>4.75</hdop><vdop>4.0</vdop><extensions><gom:speed>0.753</gom:speed></extensions></trkpt>
   <trkpt lat="59.0691036333" lon="30.0224227015"><ele>102.905</ele><time>2026-04-20T17:37:17.075Z</time><hdop>4.625</hdop><vdop>3.75</vdop><extensions><gom:speed>0.725</gom:speed></extensions></trkpt>
   <trkpt lat="59.0691060221" lon="30.0224118889"><ele>102.878</ele><time>2026-04-20T17:37:18.075Z</time><hdop>4.625</hdop><vdop>3.625</vdop><extensions><gom:speed>0.712</gom:speed></extensions></trkpt>
   <trkpt lat="59.069106525" lon="30.0224032555"><ele>102.865</ele><time>2026-04-20T17:37:19.075Z</time><hdop>4.5</hdop><vdop>3.375</vdop><extensions><gom:speed>0.649</gom:speed></extensions></trkpt>
   <trkpt lat="59.0691076566" lon="30.0223988969"><ele>102.859</ele><time>2026-04-20T17:37:20.076Z</time><hdop>4.5</hdop><vdop>3.375</vdop><extensions><gom:speed>0.605</gom:speed></extensions></trkpt>
   <trkpt lat="59.0691090396" lon="30.0223955442"><ele>102.863</ele><time>2026-04-20T17:37:21.076Z</time><hdop>4.5</hdop><vdop>3.25</vdop><extensions><gom:speed>0.541</gom:speed></extensions></trkpt>
   <trkpt lat="59.0691091234" lon="30.0223931972"><ele>102.856</ele><time>2026-04-20T17:37:22.075Z</time><hdop>4.5</hdop><vdop>3.375</vdop><extensions><gom:speed>0.529</gom:speed></extensions></trkpt>
   <trkpt lat="59.0691096263" lon="30.0223900121"><ele>102.857</ele><time>2026-04-20T17:37:23.075Z</time><hdop>4.5</hdop><vdop>3.25</vdop><extensions><gom:speed>0.485</gom:speed></extensions></trkpt>
   <trkpt lat="59.0691099197" lon="30.0223793671"><ele>102.857</ele><time>2026-04-20T17:37:24.054Z</time><hdop>4.5</hdop><vdop>3.25</vdop><extensions><gom:speed>0.582</gom:speed></extensions></trkpt>
   <trkpt lat="59.0691104226" lon="30.022368303"><ele>103.13</ele><time>2026-04-20T17:37:24.973Z</time><hdop>4.5</hdop><vdop>3.0</vdop><extensions><gom:speed>0.629</gom:speed></extensions></trkpt>
   <trkpt lat="59.0691129372" lon="30.0223610107"><ele>103.941</ele><time>2026-04-20T17:37:25.882Z</time><hdop>4.5</hdop><vdop>2.875</vdop><extensions><gom:speed>0.655</gom:speed></extensions></trkpt>
   <trkpt lat="59.0691173377" lon="30.0223515392"><ele>104.678</ele><time>2026-04-20T17:37:26.760Z</time><hdop>4.5</hdop><vdop>2.5</vdop><extensions><gom:speed>0.678</gom:speed></extensions></trkpt>
   <trkpt lat="59.0691238336" lon="30.0223372899"><ele>104.773</ele><time>2026-04-20T17:37:28.075Z</time><hdop>4.5</hdop><vdop>2.5</vdop><extensions><gom:speed>0.641</gom:speed></extensions></trkpt>
   <trkpt lat="59.0691267254" lon="30.0223254715"><ele>104.821</ele><time>2026-04-20T17:37:29.075Z</time><hdop>4.5</hdop><vdop>3.625</vdop><extensions><gom:speed>0.515</gom:speed></extensions></trkpt>
   <trkpt lat="59.0691295333" lon="30.0223165866"><ele>104.822</ele><time>2026-04-20T17:37:30.075Z</time><hdop>4.5</hdop><vdop>3.5</vdop><extensions><gom:speed>0.341</gom:speed></extensions></trkpt>
   <trkpt lat="59.0691301201" lon="30.022317341"><ele>104.823</ele><time>2026-04-20T17:37:30.764Z</time><hdop>4.5</hdop><vdop>3.5</vdop><extensions><gom:speed>0.189</gom:speed></extensions></trkpt>
   <trkpt lat="59.0691359455" lon="30.0223056064"><ele>104.441</ele><time>2026-04-20T17:37:32.075Z</time><hdop>4.25</hdop><vdop>3.25</vdop><extensions><gom:speed>0.107</gom:speed></extensions></trkpt>
   <trkpt lat="59.069138041" lon="30.0223009963"><ele>103.855</ele><time>2026-04-20T17:37:33.075Z</time><hdop>4.25</hdop><vdop>3.25</vdop><extensions><gom:speed>0.07</gom:speed></extensions></trkpt>
   <trkpt lat="59.0691404298" lon="30.0222971406"><ele>103.518</ele><time>2026-04-20T17:37:34.075Z</time><hdop>4.125</hdop><vdop>3.125</vdop><extensions><gom:speed>0.072</gom:speed></extensions></trkpt>
   <trkpt lat="59.0691424415" lon="30.0222937041"><ele>103.199</ele><time>2026-04-20T17:37:35.075Z</time><hdop>4.0</hdop><vdop>3.25</vdop><extensions><gom:speed>0.067</gom:speed></extensions></trkpt>
   <trkpt lat="59.0691453332" lon="30.0222887587"><ele>102.989</ele><time>2026-04-20T17:37:36.075Z</time><hdop>3.875</hdop><vdop>3.375</vdop><extensions><gom:speed>0.103</gom:speed></extensions></trkpt>
   <trkpt lat="59.069146339" lon="30.0222877529"><ele>102.863</ele><time>2026-04-20T17:37:36.925Z</time><hdop>4.0</hdop><vdop>3.375</vdop><extensions><gom:speed>0.088</gom:speed></extensions></trkpt>
   <trkpt lat="59.0691504462" lon="30.0222805445"><ele>102.79</ele><time>2026-04-20T17:37:38.075Z</time><hdop>3.875</hdop><vdop>3.5</vdop><extensions><gom:speed>0.068</gom:speed></extensions></trkpt>
   <trkpt lat="59.0691521226" lon="30.0222776108"><ele>102.72</ele><time>2026-04-20T17:37:39.075Z</time><hdop>3.875</hdop><vdop>3.375</vdop><extensions><gom:speed>0.095</gom:speed></extensions></trkpt>
   <trkpt lat="59.0691539247" lon="30.022275683"><ele>102.715</ele><time>2026-04-20T17:37:40.076Z</time><hdop>3.75</hdop><vdop>3.375</vdop><extensions><gom:speed>0.073</gom:speed></extensions></trkpt>
   <trkpt lat="59.06915514" lon="30.0222745933"><ele>102.637</ele><time>2026-04-20T17:37:41.075Z</time><hdop>3.75</hdop><vdop>3.5</vdop><extensions><gom:speed>0.085</gom:speed></extensions></trkpt>
   <trkpt lat="59.0691563554" lon="30.0222730008"><ele>102.556</ele><time>2026-04-20T17:37:42.075Z</time><hdop>3.625</hdop><vdop>3.5</vdop><extensions><gom:speed>0.079</gom:speed></extensions></trkpt>
   <trkpt lat="59.0691578223" lon="30.0222709053"><ele>102.521</ele><time>2026-04-20T17:37:43.076Z</time><hdop>3.625</hdop><vdop>3.375</vdop><extensions><gom:speed>0.104</gom:speed></extensions></trkpt>
   <trkpt lat="59.0691589538" lon="30.0222683907"><ele>102.508</ele><time>2026-04-20T17:37:44.075Z</time><hdop>3.625</hdop><vdop>3.5</vdop><extensions><gom:speed>0.075</gom:speed></extensions></trkpt>
   <trkpt lat="59.0691598339" lon="30.0222678878"><ele>102.511</ele><time>2026-04-20T17:37:45.075Z</time><hdop>3.625</hdop><vdop>3.625</vdop><extensions><gom:speed>0.069</gom:speed></extensions></trkpt>
   <trkpt lat="59.0691608397" lon="30.0222671334"><ele>102.504</ele><time>2026-04-20T17:37:46.076Z</time><hdop>3.625</hdop><vdop>3.75</vdop><extensions><gom:speed>0.1</gom:speed></extensions></trkpt>
   <trkpt lat="59.0691620551" lon="30.0222667981"><ele>102.496</ele><time>2026-04-20T17:37:47.075Z</time><hdop>3.5</hdop><vdop>4.0</vdop><extensions><gom:speed>0.125</gom:speed></extensions></trkpt>
   <trkpt lat="59.0691633543" lon="30.0222660438"><ele>102.489</ele><time>2026-04-20T17:37:48.075Z</time><hdop>3.5</hdop><vdop>4.125</vdop><extensions><gom:speed>0.179</gom:speed></extensions></trkpt>
   <trkpt lat="59.0691649469" lon="30.0222658761"><ele>102.484</ele><time>2026-04-20T17:37:49.075Z</time><hdop>3.5</hdop><vdop>4.125</vdop><extensions><gom:speed>0.237</gom:speed></extensions></trkpt>
   <trkpt lat="59.0691672519" lon="30.0222657085"><ele>102.479</ele><time>2026-04-20T17:37:50.075Z</time><hdop>3.5</hdop><vdop>4.125</vdop><extensions><gom:speed>0.289</gom:speed></extensions></trkpt>
   <trkpt lat="59.0691688445" lon="30.0222652894"><ele>102.476</ele><time>2026-04-20T17:37:51.075Z</time><hdop>3.5</hdop><vdop>4.125</vdop><extensions><gom:speed>0.305</gom:speed></extensions></trkpt>
   <trkpt lat="59.0691708561" lon="30.0222662952"><ele>102.475</ele><time>2026-04-20T17:37:52.075Z</time><hdop>3.5</hdop><vdop>4.125</vdop><extensions><gom:speed>0.294</gom:speed></extensions></trkpt>
   <trkpt lat="59.0691721553" lon="30.0222673849"><ele>102.481</ele><time>2026-04-20T17:37:53.075Z</time><hdop>3.5</hdop><vdop>4.375</vdop><extensions><gom:speed>0.277</gom:speed></extensions></trkpt>
   <trkpt lat="59.0691733288" lon="30.0222675525"><ele>102.49</ele><time>2026-04-20T17:37:54.075Z</time><hdop>3.625</hdop><vdop>4.375</vdop><extensions><gom:speed>0.286</gom:speed></extensions></trkpt>
   <trkpt lat="59.0691744184" lon="30.0222673849"><ele>102.499</ele><time>2026-04-20T17:37:55.075Z</time><hdop>3.75</hdop><vdop>4.5</vdop><extensions><gom:speed>0.281</gom:speed></extensions></trkpt>
   <trkpt lat="59.0691757176" lon="30.022266882"><ele>102.51</ele><time>2026-04-20T17:37:56.076Z</time><hdop>3.875</hdop><vdop>4.625</vdop><extensions><gom:speed>0.272</gom:speed></extensions></trkpt>
   <trkpt lat="59.0691763463" lon="30.0222660438"><ele>102.517</ele><time>2026-04-20T17:37:57.075Z</time><hdop>4.0</hdop><vdop>4.75</vdop><extensions><gom:speed>0.276</gom:speed></extensions></trkpt>
   <trkpt lat="59.069176933" lon="30.0222658761"><ele>102.525</ele><time>2026-04-20T17:37:58.075Z</time><hdop>4.0</hdop><vdop>4.625</vdop><extensions><gom:speed>0.295</gom:speed></extensions></trkpt>
   <trkpt lat="59.0691776455" lon="30.0222650379"><ele>102.531</ele><time>2026-04-20T17:37:59.075Z</time><hdop>4.125</hdop><vdop>4.5</vdop><extensions><gom:speed>0.303</gom:speed></extensions></trkpt>
   <trkpt lat="59.0691782322" lon="30.0222638645"><ele>102.536</ele><time>2026-04-20T17:38:00.075Z</time><hdop>4.25</hdop><vdop>4.375</vdop><extensions><gom:speed>0.34</gom:speed></extensions></trkpt>
   <trkpt lat="59.0691790285" lon="30.0222628586"><ele>102.539</ele><time>2026-04-20T17:38:01.076Z</time><hdop>4.25</hdop><vdop>4.375</vdop><extensions><gom:speed>0.359</gom:speed></extensions></trkpt>
   <trkpt lat="59.069179238" lon="30.0222626072"><ele>102.542</ele><time>2026-04-20T17:38:01.680Z</time><hdop>4.375</hdop><vdop>4.375</vdop><extensions><gom:speed>0.361</gom:speed></extensions></trkpt>
   <trkpt lat="59.0691803277" lon="30.0222598412"><ele>102.568</ele><time>2026-04-20T17:38:03.076Z</time><hdop>4.5</hdop><vdop>4.5</vdop><extensions><gom:speed>0.344</gom:speed></extensions></trkpt>
   <trkpt lat="59.069180621" lon="30.0222590868"><ele>102.602</ele><time>2026-04-20T17:38:04.076Z</time><hdop>4.625</hdop><vdop>4.375</vdop><extensions><gom:speed>0.313</gom:speed></extensions></trkpt>
   <trkpt lat="59.0691809563" lon="30.0222583324"><ele>102.626</ele><time>2026-04-20T17:38:05.075Z</time><hdop>4.75</hdop><vdop>4.375</vdop><extensions><gom:speed>0.304</gom:speed></extensions></trkpt>
   <trkpt lat="59.0691811239" lon="30.022257159"><ele>102.644</ele><time>2026-04-20T17:38:06.075Z</time><hdop>4.75</hdop><vdop>4.125</vdop><extensions><gom:speed>0.278</gom:speed></extensions></trkpt>
   <trkpt lat="59.0691812497" lon="30.0222562369"><ele>102.661</ele><time>2026-04-20T17:38:07.076Z</time><hdop>4.75</hdop><vdop>4.0</vdop><extensions><gom:speed>0.272</gom:speed></extensions></trkpt>
   <trkpt lat="59.0691812497" lon="30.0222560693"><ele>102.67</ele><time>2026-04-20T17:38:07.840Z</time><hdop>4.875</hdop><vdop>4.0</vdop><extensions><gom:speed>0.272</gom:speed></extensions></trkpt>
   <trkpt lat="59.0691816269" lon="30.0222546444"><ele>102.679</ele><time>2026-04-20T17:38:09.075Z</time><hdop>4.875</hdop><vdop>3.875</vdop><extensions><gom:speed>0.274</gom:speed></extensions></trkpt>
   <trkpt lat="59.0691818364" lon="30.0222543091"><ele>102.688</ele><time>2026-04-20T17:38:10.075Z</time><hdop>4.875</hdop><vdop>4.0</vdop><extensions><gom:speed>0.274</gom:speed></extensions></trkpt>
   <trkpt lat="59.0691823393" lon="30.0222528842"><ele>102.701</ele><time>2026-04-20T17:38:11.075Z</time><hdop>5.0</hdop><vdop>3.875</vdop><extensions><gom:speed>0.267</gom:speed></extensions></trkpt>
   <trkpt lat="59.0691826327" lon="30.0222522136"><ele>102.714</ele><time>2026-04-20T17:38:12.075Z</time><hdop>5.0</hdop><vdop>3.875</vdop><extensions><gom:speed>0.282</gom:speed></extensions></trkpt>
   <trkpt lat="59.0691828422" lon="30.0222517107"><ele>102.727</ele><time>2026-04-20T17:38:13.075Z</time><hdop>5.125</hdop><vdop>4.125</vdop><extensions><gom:speed>0.301</gom:speed></extensions></trkpt>
   <trkpt lat="59.0691830518" lon="30.0222512078"><ele>102.738</ele><time>2026-04-20T17:38:14.075Z</time><hdop>5.125</hdop><vdop>4.375</vdop><extensions><gom:speed>0.323</gom:speed></extensions></trkpt>
   <trkpt lat="59.0691833452" lon="30.0222503696"><ele>102.763</ele><time>2026-04-20T17:38:15.075Z</time><hdop>5.25</hdop><vdop>4.625</vdop><extensions><gom:speed>0.341</gom:speed></extensions></trkpt>
   <trkpt lat="59.0691835547" lon="30.0222491123"><ele>102.824</ele><time>2026-04-20T17:38:16.075Z</time><hdop>5.375</hdop><vdop>4.75</vdop><extensions><gom:speed>0.34</gom:speed></extensions></trkpt>
   <trkpt lat="59.0691835547" lon="30.022247855"><ele>102.866</ele><time>2026-04-20T17:38:17.076Z</time><hdop>5.5</hdop><vdop>4.625</vdop><extensions><gom:speed>0.323</gom:speed></extensions></trkpt>
   <trkpt lat="59.0691833452" lon="30.022246933"><ele>102.897</ele><time>2026-04-20T17:38:18.076Z</time><hdop>5.625</hdop><vdop>4.375</vdop><extensions><gom:speed>0.286</gom:speed></extensions></trkpt>
   <trkpt lat="59.0691833452" lon="30.0222471007"><ele>102.92</ele><time>2026-04-20T17:38:19.075Z</time><hdop>5.75</hdop><vdop>4.25</vdop><extensions><gom:speed>0.276</gom:speed></extensions></trkpt>
   <trkpt lat="59.0691829261" lon="30.0222466816"><ele>102.937</ele><time>2026-04-20T17:38:20.075Z</time><hdop>5.875</hdop><vdop>4.125</vdop><extensions><gom:speed>0.259</gom:speed></extensions></trkpt>
   <trkpt lat="59.0691825489" lon="30.0222460948"><ele>102.95</ele><time>2026-04-20T17:38:21.075Z</time><hdop>5.875</hdop><vdop>4.125</vdop><extensions><gom:speed>0.242</gom:speed></extensions></trkpt>
   <trkpt lat="59.069182046" lon="30.0222460948"><ele>102.959</ele><time>2026-04-20T17:38:22.076Z</time><hdop>5.875</hdop><vdop>4.125</vdop><extensions><gom:speed>0.233</gom:speed></extensions></trkpt>
   <trkpt lat="59.069181543" lon="30.0222458434"><ele>102.972</ele><time>2026-04-20T17:38:23.075Z</time><hdop>6.0</hdop><vdop>4.0</vdop><extensions><gom:speed>0.247</gom:speed></extensions></trkpt>
   <trkpt lat="59.0691810401" lon="30.0222453405"><ele>102.982</ele><time>2026-04-20T17:38:24.075Z</time><hdop>6.0</hdop><vdop>4.0</vdop><extensions><gom:speed>0.257</gom:speed></extensions></trkpt>
   <trkpt lat="59.0691809563" lon="30.0222446699"><ele>102.99</ele><time>2026-04-20T17:38:25.076Z</time><hdop>6.0</hdop><vdop>4.0</vdop><extensions><gom:speed>0.246</gom:speed></extensions></trkpt>
   <trkpt lat="59.0691808306" lon="30.0222439155"><ele>102.998</ele><time>2026-04-20T17:38:26.075Z</time><hdop>6.0</hdop><vdop>3.875</vdop><extensions><gom:speed>0.273</gom:speed></extensions></trkpt>
   <trkpt lat="59.0691811239" lon="30.0222429097"><ele>103.005</ele><time>2026-04-20T17:38:27.075Z</time><hdop>6.0</hdop><vdop>3.75</vdop><extensions><gom:speed>0.274</gom:speed></extensions></trkpt>
   <trkpt lat="59.0691812497" lon="30.0222424906"><ele>103.01</ele><time>2026-04-20T17:38:28.075Z</time><hdop>6.0</hdop><vdop>3.75</vdop><extensions><gom:speed>0.279</gom:speed></extensions></trkpt>
   <trkpt lat="59.0691813335" lon="30.0222416524"><ele>103.014</ele><time>2026-04-20T17:38:29.076Z</time><hdop>6.0</hdop><vdop>3.75</vdop><extensions><gom:speed>0.298</gom:speed></extensions></trkpt>
   <trkpt lat="59.0691812497" lon="30.0222408981"><ele>103.019</ele><time>2026-04-20T17:38:30.075Z</time><hdop>6.0</hdop><vdop>4.125</vdop><extensions><gom:speed>0.281</gom:speed></extensions></trkpt>
   <trkpt lat="59.0691810401" lon="30.0222401437"><ele>103.025</ele><time>2026-04-20T17:38:31.075Z</time><hdop>6.0</hdop><vdop>4.5</vdop><extensions><gom:speed>0.267</gom:speed></extensions></trkpt>
   <trkpt lat="59.0691808306" lon="30.0222394731"><ele>103.048</ele><time>2026-04-20T17:38:32.075Z</time><hdop>6.0</hdop><vdop>4.5</vdop><extensions><gom:speed>0.258</gom:speed></extensions></trkpt>
   <trkpt lat="59.0691805372" lon="30.0222398084"><ele>103.061</ele><time>2026-04-20T17:38:32.596Z</time><hdop>6.0</hdop><vdop>4.5</vdop><extensions><gom:speed>0.258</gom:speed></extensions></trkpt>
   <trkpt lat="59.0691805372" lon="30.022239054"><ele>103.072</ele><time>2026-04-20T17:38:33.075Z</time><hdop>6.0</hdop><vdop>4.5</vdop><extensions><gom:speed>0.287</gom:speed></extensions></trkpt>
   <trkpt lat="59.0691800343" lon="30.0222388864"><ele>103.081</ele><time>2026-04-20T17:38:34.075Z</time><hdop>6.0</hdop><vdop>4.75</vdop><extensions><gom:speed>0.292</gom:speed></extensions></trkpt>
   <trkpt lat="59.0691721553" lon="30.0222482741"><ele>103.092</ele><time>2026-04-20T17:38:35.076Z</time><hdop>6.625</hdop><vdop>5.0</vdop><extensions><gom:speed>0.0</gom:speed></extensions></trkpt>
   <trkpt lat="59.0691721553" lon="30.0222482741"><ele>103.099</ele><time>2026-04-20T17:38:36.076Z</time><hdop>7.25</hdop><vdop>5.25</vdop><extensions><gom:speed>0.0</gom:speed></extensions></trkpt>
   <trkpt lat="59.0691722391" lon="30.0222482741"><ele>103.103</ele><time>2026-04-20T17:38:37.075Z</time><hdop>8.125</hdop><vdop>5.25</vdop><extensions><gom:speed>0.0</gom:speed></extensions></trkpt>
   <trkpt lat="59.0691722391" lon="30.0222482741"><ele>103.107</ele><time>2026-04-20T17:38:38.075Z</time><hdop>8.875</hdop><vdop>5.375</vdop><extensions><gom:speed>0.0</gom:speed></extensions></trkpt>
   <trkpt lat="59.0691723229" lon="30.0222482741"><ele>103.112</ele><time>2026-04-20T17:38:39.075Z</time><hdop>9.625</hdop><vdop>5.25</vdop><extensions><gom:speed>0.0</gom:speed></extensions></trkpt>
   <trkpt lat="59.0691723229" lon="30.0222482741"><ele>103.116</ele><time>2026-04-20T17:38:40.075Z</time><hdop>10.375</hdop><vdop>5.0</vdop><extensions><gom:speed>0.0</gom:speed></extensions></trkpt>
   <trkpt lat="59.0691723229" lon="30.0222482741"><ele>103.12</ele><time>2026-04-20T17:38:41.075Z</time><hdop>10.25</hdop><vdop>4.875</vdop><extensions><gom:speed>0.0</gom:speed></extensions></trkpt>
   <trkpt lat="59.0691724487" lon="30.0222482741"><ele>103.126</ele><time>2026-04-20T17:38:42.075Z</time><hdop>10.25</hdop><vdop>4.875</vdop><extensions><gom:speed>0.0</gom:speed></extensions></trkpt>
   <trkpt lat="59.0691724487" lon="30.0222482741"><ele>103.134</ele><time>2026-04-20T17:38:43.075Z</time><hdop>10.125</hdop><vdop>4.75</vdop><extensions><gom:speed>0.0</gom:speed></extensions></trkpt>
   <trkpt lat="59.0691724487" lon="30.0222482741"><ele>103.139</ele><time>2026-04-20T17:38:44.076Z</time><hdop>10.125</hdop><vdop>4.75</vdop><extensions><gom:speed>0.0</gom:speed></extensions></trkpt>
   <trkpt lat="59.0691725325" lon="30.0222482741"><ele>103.146</ele><time>2026-04-20T17:38:45.075Z</time><hdop>10.0</hdop><vdop>4.625</vdop><extensions><gom:speed>0.0</gom:speed></extensions></trkpt>
   <trkpt lat="59.0691725325" lon="30.0222482741"><ele>103.152</ele><time>2026-04-20T17:38:46.075Z</time><hdop>10.0</hdop><vdop>4.625</vdop><extensions><gom:speed>0.0</gom:speed></extensions></trkpt>
   <trkpt lat="59.0691726163" lon="30.0222482741"><ele>103.16</ele><time>2026-04-20T17:38:47.076Z</time><hdop>10.0</hdop><vdop>4.625</vdop><extensions><gom:speed>0.0</gom:speed></extensions></trkpt>
   <trkpt lat="59.069172742" lon="30.0222482741"><ele>103.169</ele><time>2026-04-20T17:38:48.076Z</time><hdop>10.0</hdop><vdop>4.75</vdop><extensions><gom:speed>0.0</gom:speed></extensions></trkpt>
   <trkpt lat="59.0691729516" lon="30.0222481903"><ele>103.197</ele><time>2026-04-20T17:38:49.075Z</time><hdop>10.0</hdop><vdop>4.875</vdop><extensions><gom:speed>0.0</gom:speed></extensions></trkpt>
   <trkpt lat="59.0691730354" lon="30.0222481065"><ele>103.216</ele><time>2026-04-20T17:38:50.075Z</time><hdop>10.0</hdop><vdop>4.625</vdop><extensions><gom:speed>0.0</gom:speed></extensions></trkpt>
   <trkpt lat="59.0691731192" lon="30.0222481065"><ele>103.227</ele><time>2026-04-20T17:38:51.076Z</time><hdop>10.0</hdop><vdop>4.5</vdop><extensions><gom:speed>0.0</gom:speed></extensions></trkpt>
   <trkpt lat="59.0691731192" lon="30.0222479389"><ele>103.236</ele><time>2026-04-20T17:38:52.075Z</time><hdop>10.0</hdop><vdop>4.375</vdop><extensions><gom:speed>0.0</gom:speed></extensions></trkpt>
   <trkpt lat="59.069173245" lon="30.0222479389"><ele>103.244</ele><time>2026-04-20T17:38:53.075Z</time><hdop>10.0</hdop><vdop>4.5</vdop><extensions><gom:speed>0.0</gom:speed></extensions></trkpt>
   <trkpt lat="59.069173245" lon="30.022247855"><ele>103.25</ele><time>2026-04-20T17:38:54.075Z</time><hdop>10.0</hdop><vdop>4.5</vdop><extensions><gom:speed>0.0</gom:speed></extensions></trkpt>
   <trkpt lat="59.069173245" lon="30.022247855"><ele>103.257</ele><time>2026-04-20T17:38:55.075Z</time><hdop>10.0</hdop><vdop>4.5</vdop><extensions><gom:speed>0.0</gom:speed></extensions></trkpt>
   <trkpt lat="59.0691733288" lon="30.0222477712"><ele>103.264</ele><time>2026-04-20T17:38:56.075Z</time><hdop>10.0</hdop><vdop>4.625</vdop><extensions><gom:speed>0.0</gom:speed></extensions></trkpt>
   <trkpt lat="59.0691733288" lon="30.0222477712"><ele>103.271</ele><time>2026-04-20T17:38:57.076Z</time><hdop>10.0</hdop><vdop>4.5</vdop><extensions><gom:speed>0.0</gom:speed></extensions></trkpt>
   <trkpt lat="59.0691733288" lon="30.0222476874"><ele>103.278</ele><time>2026-04-20T17:38:58.075Z</time><hdop>10.0</hdop><vdop>4.25</vdop><extensions><gom:speed>0.0</gom:speed></extensions></trkpt>
   <trkpt lat="59.0691733288" lon="30.0222476874"><ele>103.285</ele><time>2026-04-20T17:38:59.076Z</time><hdop>10.0</hdop><vdop>4.0</vdop><extensions><gom:speed>0.0</gom:speed></extensions></trkpt>
   <trkpt lat="59.0691734545" lon="30.0222476036"><ele>103.291</ele><time>2026-04-20T17:39:00.075Z</time><hdop>10.0</hdop><vdop>3.875</vdop><extensions><gom:speed>0.0</gom:speed></extensions></trkpt>
   <trkpt lat="59.0691734545" lon="30.0222476036"><ele>103.298</ele><time>2026-04-20T17:39:01.075Z</time><hdop>10.0</hdop><vdop>3.75</vdop><extensions><gom:speed>0.0</gom:speed></extensions></trkpt>
   <trkpt lat="59.0691734545" lon="30.0222474359"><ele>103.303</ele><time>2026-04-20T17:39:02.075Z</time><hdop>9.875</hdop><vdop>3.875</vdop><extensions><gom:speed>0.0</gom:speed></extensions></trkpt>
   <trkpt lat="59.0691735383" lon="30.0222474359"><ele>103.312</ele><time>2026-04-20T17:39:03.075Z</time><hdop>9.875</hdop><vdop>3.875</vdop><extensions><gom:speed>0.0</gom:speed></extensions></trkpt>
   <trkpt lat="59.0691735383" lon="30.0222474359"><ele>103.319</ele><time>2026-04-20T17:39:04.075Z</time><hdop>9.875</hdop><vdop>4.0</vdop><extensions><gom:speed>0.0</gom:speed></extensions></trkpt>
   <trkpt lat="59.0691735383" lon="30.0222473521"><ele>103.325</ele><time>2026-04-20T17:39:05.075Z</time><hdop>9.875</hdop><vdop>4.0</vdop><extensions><gom:speed>0.0</gom:speed></extensions></trkpt>
   <trkpt lat="59.0691864465" lon="30.0222442508"><ele>104.867</ele><time>2026-04-20T17:39:06.075Z</time><hdop>9.875</hdop><vdop>3.625</vdop><extensions><gom:speed>0.0</gom:speed></extensions></trkpt>
   <trkpt lat="59.069195457" lon="30.0222372938"><ele>108.35</ele><time>2026-04-20T17:39:07.075Z</time><hdop>9.875</hdop><vdop>3.375</vdop><extensions><gom:speed>0.0</gom:speed></extensions></trkpt>
   <trkpt lat="59.0692126399" lon="30.0222289958"><ele>111.261</ele><time>2026-04-20T17:39:08.075Z</time><hdop>9.875</hdop><vdop>4.5</vdop><extensions><gom:speed>0.0</gom:speed></extensions></trkpt>
   <trkpt lat="59.0692234526" lon="30.0222263974"><ele>113.269</ele><time>2026-04-20T17:39:09.075Z</time><hdop>10.0</hdop><vdop>4.625</vdop><extensions><gom:speed>0.0</gom:speed></extensions></trkpt>
   <trkpt lat="59.069231122" lon="30.0222259783"><ele>114.835</ele><time>2026-04-20T17:39:10.076Z</time><hdop>10.125</hdop><vdop>4.75</vdop><extensions><gom:speed>0.0</gom:speed></extensions></trkpt>
   <trkpt lat="59.0692360254" lon="30.0222261459"><ele>115.836</ele><time>2026-04-20T17:39:11.075Z</time><hdop>10.125</hdop><vdop>4.875</vdop><extensions><gom:speed>0.0</gom:speed></extensions></trkpt>
   <trkpt lat="59.0692389172" lon="30.0222281576"><ele>116.068</ele><time>2026-04-20T17:39:12.075Z</time><hdop>10.25</hdop><vdop>4.75</vdop><extensions><gom:speed>0.0</gom:speed></extensions></trkpt>
   <trkpt lat="59.0692392524" lon="30.0222318456"><ele>115.74</ele><time>2026-04-20T17:39:13.075Z</time><hdop>10.375</hdop><vdop>4.75</vdop><extensions><gom:speed>0.0</gom:speed></extensions></trkpt>
   <trkpt lat="59.0692367379" lon="30.0222354498"><ele>114.769</ele><time>2026-04-20T17:39:14.075Z</time><hdop>10.375</hdop><vdop>4.75</vdop><extensions><gom:speed>0.0</gom:speed></extensions></trkpt>
   <trkpt lat="59.0692332175" lon="30.0222386349"><ele>113.533</ele><time>2026-04-20T17:39:15.075Z</time><hdop>10.375</hdop><vdop>4.625</vdop><extensions><gom:speed>0.0</gom:speed></extensions></trkpt>
   <trkpt lat="59.0692287332" lon="30.0222406466"><ele>112.222</ele><time>2026-04-20T17:39:16.075Z</time><hdop>10.375</hdop><vdop>4.5</vdop><extensions><gom:speed>0.0</gom:speed></extensions></trkpt>
   <trkpt lat="59.0692254223" lon="30.0222424068"><ele>111.174</ele><time>2026-04-20T17:39:17.076Z</time><hdop>10.25</hdop><vdop>4.75</vdop><extensions><gom:speed>0.0</gom:speed></extensions></trkpt>
   <trkpt lat="59.0692233268" lon="30.0222440832"><ele>110.348</ele><time>2026-04-20T17:39:18.075Z</time><hdop>10.25</hdop><vdop>5.0</vdop><extensions><gom:speed>0.0</gom:speed></extensions></trkpt>
   <trkpt lat="59.0692228239" lon="30.0222446699"><ele>109.907</ele><time>2026-04-20T17:39:19.075Z</time><hdop>10.25</hdop><vdop>4.875</vdop><extensions><gom:speed>0.0</gom:speed></extensions></trkpt>
   <trkpt lat="59.0692224467" lon="30.0222448376"><ele>109.672</ele><time>2026-04-20T17:39:20.075Z</time><hdop>10.25</hdop><vdop>4.875</vdop><extensions><gom:speed>0.0</gom:speed></extensions></trkpt>
   <trkpt lat="59.0692222372" lon="30.0222448376"><ele>109.562</ele><time>2026-04-20T17:39:21.075Z</time><hdop>10.375</hdop><vdop>5.125</vdop><extensions><gom:speed>0.0</gom:speed></extensions></trkpt>
   <trkpt lat="59.0692210218" lon="30.022246011"><ele>109.259</ele><time>2026-04-20T17:39:22.075Z</time><hdop>10.375</hdop><vdop>5.0</vdop><extensions><gom:speed>0.0</gom:speed></extensions></trkpt>
   <trkpt lat="59.0692198483" lon="30.0222471007"><ele>108.93</ele><time>2026-04-20T17:39:23.075Z</time><hdop>10.375</hdop><vdop>4.875</vdop><extensions><gom:speed>0.0</gom:speed></extensions></trkpt>
   <trkpt lat="59.0692188425" lon="30.022247855"><ele>108.633</ele><time>2026-04-20T17:39:24.075Z</time><hdop>10.375</hdop><vdop>4.875</vdop><extensions><gom:speed>0.0</gom:speed></extensions></trkpt>
   <trkpt lat="59.0692183396" lon="30.0222481903"><ele>108.46</ele><time>2026-04-20T17:39:25.075Z</time><hdop>10.25</hdop><vdop>4.875</vdop><extensions><gom:speed>0.0</gom:speed></extensions></trkpt>
   <trkpt lat="59.06921813" lon="30.0222482741"><ele>108.354</ele><time>2026-04-20T17:39:26.076Z</time><hdop>10.25</hdop><vdop>4.875</vdop><extensions><gom:speed>0.0</gom:speed></extensions></trkpt>
   <trkpt lat="59.0692182558" lon="30.0222481903"><ele>108.311</ele><time>2026-04-20T17:39:27.075Z</time><hdop>10.25</hdop><vdop>5.0</vdop><extensions><gom:speed>0.0</gom:speed></extensions></trkpt>
   <trkpt lat="59.06921813" lon="30.0222481065"><ele>108.272</ele><time>2026-04-20T17:39:28.075Z</time><hdop>10.25</hdop><vdop>5.0</vdop><extensions><gom:speed>0.0</gom:speed></extensions></trkpt>
   <trkpt lat="59.06921813" lon="30.0222481065"><ele>108.248</ele><time>2026-04-20T17:39:29.075Z</time><hdop>10.25</hdop><vdop>5.125</vdop><extensions><gom:speed>0.0</gom:speed></extensions></trkpt>
   <trkpt lat="59.06921813" lon="30.0222481065"><ele>108.233</ele><time>2026-04-20T17:39:30.075Z</time><hdop>10.25</hdop><vdop>5.25</vdop><extensions><gom:speed>0.0</gom:speed></extensions></trkpt>
   <trkpt lat="59.06921813" lon="30.0222481065"><ele>108.221</ele><time>2026-04-20T17:39:31.075Z</time><hdop>10.25</hdop><vdop>5.25</vdop><extensions><gom:speed>0.0</gom:speed></extensions></trkpt>
   <trkpt lat="59.06921813" lon="30.0222479389"><ele>108.218</ele><time>2026-04-20T17:39:32.075Z</time><hdop>10.375</hdop><vdop>5.25</vdop><extensions><gom:speed>0.0</gom:speed></extensions></trkpt>
   <trkpt lat="59.0692182558" lon="30.0222479389"><ele>108.213</ele><time>2026-04-20T17:39:33.076Z</time><hdop>10.5</hdop><vdop>5.25</vdop><extensions><gom:speed>0.0</gom:speed></extensions></trkpt>
   <trkpt lat="59.0692182558" lon="30.0222479389"><ele>108.211</ele><time>2026-04-20T17:39:34.075Z</time><hdop>10.5</hdop><vdop>5.125</vdop><extensions><gom:speed>0.0</gom:speed></extensions></trkpt>
   <trkpt lat="59.0692182558" lon="30.022247855"><ele>108.209</ele><time>2026-04-20T17:39:35.075Z</time><hdop>10.5</hdop><vdop>5.125</vdop><extensions><gom:speed>0.0</gom:speed></extensions></trkpt>
   <trkpt lat="59.0692184234" lon="30.0222477712"><ele>108.228</ele><time>2026-04-20T17:39:36.075Z</time><hdop>10.5</hdop><vdop>5.0</vdop><extensions><gom:speed>0.0</gom:speed></extensions></trkpt>
   <trkpt lat="59.0692428567" lon="30.0222298339"><ele>108.87</ele><time>2026-04-20T17:39:37.076Z</time><hdop>10.375</hdop><vdop>3.625</vdop><extensions><gom:speed>0.518</gom:speed></extensions></trkpt>
   <trkpt lat="59.0692657393" lon="30.0222103041"><ele>109.678</ele><time>2026-04-20T17:39:38.075Z</time><hdop>10.25</hdop><vdop>3.125</vdop><extensions><gom:speed>0.528</gom:speed></extensions></trkpt>
   <trkpt lat="59.0692778511" lon="30.0221947976"><ele>109.3</ele><time>2026-04-20T17:39:39.075Z</time><hdop>10.125</hdop><vdop>2.75</vdop><extensions><gom:speed>0.168</gom:speed></extensions></trkpt>
   <trkpt lat="59.0692854367" lon="30.0221828953"><ele>108.41</ele><time>2026-04-20T17:39:40.075Z</time><hdop>10.125</hdop><vdop>2.75</vdop><extensions><gom:speed>0.248</gom:speed></extensions></trkpt>
   <trkpt lat="59.069295034" lon="30.0221633655"><ele>107.486</ele><time>2026-04-20T17:39:41.075Z</time><hdop>10.0</hdop><vdop>2.875</vdop><extensions><gom:speed>0.958</gom:speed></extensions></trkpt>
   <trkpt lat="59.0693051342" lon="30.0221471046"><ele>107.108</ele><time>2026-04-20T17:39:42.075Z</time><hdop>9.875</hdop><vdop>3.0</vdop><extensions><gom:speed>0.708</gom:speed></extensions></trkpt>
   <trkpt lat="59.0693028292" lon="30.0221674726"><ele>107.142</ele><time>2026-04-20T17:39:43.075Z</time><hdop>9.125</hdop><vdop>3.125</vdop><extensions><gom:speed>0.645</gom:speed></extensions></trkpt>
   <trkpt lat="59.0693067268" lon="30.0221652095"><ele>107.163</ele><time>2026-04-20T17:39:43.681Z</time><hdop>8.375</hdop><vdop>3.125</vdop><extensions><gom:speed>0.652</gom:speed></extensions></trkpt>
   <trkpt lat="59.0693162402" lon="30.0221549836"><ele>106.835</ele><time>2026-04-20T17:39:45.075Z</time><hdop>7.25</hdop><vdop>3.125</vdop><extensions><gom:speed>0.546</gom:speed></extensions></trkpt>
   <trkpt lat="59.0693184195" lon="30.0221525528"><ele>106.639</ele><time>2026-04-20T17:39:45.794Z</time><hdop>6.625</hdop><vdop>3.125</vdop><extensions><gom:speed>0.43</gom:speed></extensions></trkpt>
   <trkpt lat="59.0693209341" lon="30.022147356"><ele>106.497</ele><time>2026-04-20T17:39:46.866Z</time><hdop>6.375</hdop><vdop>2.875</vdop><extensions><gom:speed>0.394</gom:speed></extensions></trkpt>
   <trkpt lat="59.0693273462" lon="30.0221414887"><ele>106.462</ele><time>2026-04-20T17:39:48.033Z</time><hdop>5.375</hdop><vdop>2.75</vdop><extensions><gom:speed>0.341</gom:speed></extensions></trkpt>
   <trkpt lat="59.0693311181" lon="30.022134867"><ele>106.549</ele><time>2026-04-20T17:39:48.942Z</time><hdop>5.25</hdop><vdop>2.75</vdop><extensions><gom:speed>0.342</gom:speed></extensions></trkpt>
   <trkpt lat="59.0693356443" lon="30.0221276585"><ele>106.794</ele><time>2026-04-20T17:39:50.037Z</time><hdop>5.125</hdop><vdop>6.25</vdop><extensions><gom:speed>0.341</gom:speed></extensions></trkpt>
   <trkpt lat="59.0693394162" lon="30.0221225456"><ele>106.999</ele><time>2026-04-20T17:39:51.075Z</time><hdop>5.125</hdop><vdop>6.0</vdop><extensions><gom:speed>0.334</gom:speed></extensions></trkpt>
   <trkpt lat="59.0693424337" lon="30.0221191928"><ele>106.856</ele><time>2026-04-20T17:39:51.959Z</time><hdop>5.0</hdop><vdop>5.875</vdop><extensions><gom:speed>0.365</gom:speed></extensions></trkpt>
   <trkpt lat="59.0693472533" lon="30.0221150857"><ele>107.035</ele><time>2026-04-20T17:39:53.076Z</time><hdop>5.125</hdop><vdop>5.75</vdop><extensions><gom:speed>0.375</gom:speed></extensions></trkpt>
   <trkpt lat="59.0693519471" lon="30.0221103918"><ele>107.293</ele><time>2026-04-20T17:39:54.075Z</time><hdop>5.125</hdop><vdop>5.625</vdop><extensions><gom:speed>0.395</gom:speed></extensions></trkpt>
   <trkpt lat="59.069356641" lon="30.0221046921"><ele>107.543</ele><time>2026-04-20T17:39:55.039Z</time><hdop>5.25</hdop><vdop>5.5</vdop><extensions><gom:speed>0.437</gom:speed></extensions></trkpt>
   <trkpt lat="59.0693632208" lon="30.0220989086"><ele>107.793</ele><time>2026-04-20T17:39:56.076Z</time><hdop>5.25</hdop><vdop>5.125</vdop><extensions><gom:speed>0.478</gom:speed></extensions></trkpt>
   <trkpt lat="59.0693669507" lon="30.0220960588"><ele>108.037</ele><time>2026-04-20T17:39:56.935Z</time><hdop>5.375</hdop><vdop>4.875</vdop><extensions><gom:speed>0.442</gom:speed></extensions></trkpt>
   <trkpt lat="59.0693693396" lon="30.0220939633"><ele>108.183</ele><time>2026-04-20T17:39:57.619Z</time><hdop>5.375</hdop><vdop>4.875</vdop><extensions><gom:speed>0.449</gom:speed></extensions></trkpt>
   <trkpt lat="59.0693723571" lon="30.0220932927"><ele>108.095</ele><time>2026-04-20T17:39:58.075Z</time><hdop>5.375</hdop><vdop>4.875</vdop><extensions><gom:speed>0.437</gom:speed></extensions></trkpt>
   <trkpt lat="59.0693783501" lon="30.0220927898"><ele>108.334</ele><time>2026-04-20T17:39:59.075Z</time><hdop>5.375</hdop><vdop>5.0</vdop><extensions><gom:speed>0.442</gom:speed></extensions></trkpt>
   <trkpt lat="59.0693814514" lon="30.0220934604"><ele>108.478</ele><time>2026-04-20T17:39:59.748Z</time><hdop>5.375</hdop><vdop>5.0</vdop><extensions><gom:speed>0.339</gom:speed></extensions></trkpt>
   <trkpt lat="59.0693852233" lon="30.0220927898"><ele>108.669</ele><time>2026-04-20T17:40:01.054Z</time><hdop>5.375</hdop><vdop>5.125</vdop><extensions><gom:speed>0.292</gom:speed></extensions></trkpt>
   <trkpt lat="59.0693885341" lon="30.0220920355"><ele>108.827</ele><time>2026-04-20T17:40:02.002Z</time><hdop>5.5</hdop><vdop>5.375</vdop><extensions><gom:speed>0.36</gom:speed></extensions></trkpt>
   <trkpt lat="59.0693936471" lon="30.0220939633"><ele>108.983</ele><time>2026-04-20T17:40:02.821Z</time><hdop>5.5</hdop><vdop>5.375</vdop><extensions><gom:speed>0.392</gom:speed></extensions></trkpt>
   <trkpt lat="59.0693978381" lon="30.0220950529"><ele>108.941</ele><time>2026-04-20T17:40:03.741Z</time><hdop>5.625</hdop><vdop>5.25</vdop><extensions><gom:speed>0.434</gom:speed></extensions></trkpt>
   <trkpt lat="59.0694028253" lon="30.0220948853"><ele>109.017</ele><time>2026-04-20T17:40:04.775Z</time><hdop>5.75</hdop><vdop>5.125</vdop><extensions><gom:speed>0.462</gom:speed></extensions></trkpt>
   <trkpt lat="59.0694050465" lon="30.0220951368"><ele>108.887</ele><time>2026-04-20T17:40:05.351Z</time><hdop>5.75</hdop><vdop>5.25</vdop><extensions><gom:speed>0.454</gom:speed></extensions></trkpt>
   <trkpt lat="59.0694099499" lon="30.0220935442"><ele>108.819</ele><time>2026-04-20T17:40:05.937Z</time><hdop>5.875</hdop><vdop>5.625</vdop><extensions><gom:speed>0.457</gom:speed></extensions></trkpt>
   <trkpt lat="59.0694129255" lon="30.0220924546"><ele>108.778</ele><time>2026-04-20T17:40:06.686Z</time><hdop>6.0</hdop><vdop>5.625</vdop><extensions><gom:speed>0.511</gom:speed></extensions></trkpt>
   <trkpt lat="59.0694179546" lon="30.0220923707"><ele>108.674</ele><time>2026-04-20T17:40:07.699Z</time><hdop>6.125</hdop><vdop>5.875</vdop><extensions><gom:speed>0.517</gom:speed></extensions></trkpt>
   <trkpt lat="59.0694232352" lon="30.0220937957"><ele>108.428</ele><time>2026-04-20T17:40:08.843Z</time><hdop>6.375</hdop><vdop>6.0</vdop><extensions><gom:speed>0.507</gom:speed></extensions></trkpt>
   <trkpt lat="59.0694256241" lon="30.0220975675"><ele>108.14</ele><time>2026-04-20T17:40:09.883Z</time><hdop>6.5</hdop><vdop>6.125</vdop><extensions><gom:speed>0.503</gom:speed></extensions></trkpt>
   <trkpt lat="59.0694328325" lon="30.0220999983"><ele>108.437</ele><time>2026-04-20T17:40:11.033Z</time><hdop>6.5</hdop><vdop>4.75</vdop><extensions><gom:speed>0.507</gom:speed></extensions></trkpt>
   <trkpt lat="59.0694388256" lon="30.0221030158"><ele>110.628</ele><time>2026-04-20T17:40:11.623Z</time><hdop>6.375</hdop><vdop>3.625</vdop><extensions><gom:speed>0.499</gom:speed></extensions></trkpt>
   <trkpt lat="59.0694498478" lon="30.0221039378"><ele>112.594</ele><time>2026-04-20T17:40:12.075Z</time><hdop>6.25</hdop><vdop>3.25</vdop><extensions><gom:speed>0.499</gom:speed></extensions></trkpt>
   <trkpt lat="59.0694570562" lon="30.0221026805"><ele>113.768</ele><time>2026-04-20T17:40:12.999Z</time><hdop>6.125</hdop><vdop>3.25</vdop><extensions><gom:speed>0.554</gom:speed></extensions></trkpt>
   <trkpt lat="59.0694709282" lon="30.0221027643"><ele>114.847</ele><time>2026-04-20T17:40:13.838Z</time><hdop>6.0</hdop><vdop>3.125</vdop><extensions><gom:speed>0.651</gom:speed></extensions></trkpt>
   <trkpt lat="59.0694866443" lon="30.0221039378"><ele>114.557</ele><time>2026-04-20T17:40:14.755Z</time><hdop>5.625</hdop><vdop>3.125</vdop><extensions><gom:speed>0.725</gom:speed></extensions></trkpt>
   <trkpt lat="59.0695016479" lon="30.0221068714"><ele>114.565</ele><time>2026-04-20T17:40:15.750Z</time><hdop>5.5</hdop><vdop>6.875</vdop><extensions><gom:speed>0.686</gom:speed></extensions></trkpt>
   <trkpt lat="59.0695149332" lon="30.0221093022"><ele>114.429</ele><time>2026-04-20T17:40:16.740Z</time><hdop>5.25</hdop><vdop>6.75</vdop><extensions><gom:speed>0.67</gom:speed></extensions></trkpt>
   <trkpt lat="59.0695267517" lon="30.0221090507"><ele>114.119</ele><time>2026-04-20T17:40:17.601Z</time><hdop>5.125</hdop><vdop>6.375</vdop><extensions><gom:speed>0.69</gom:speed></extensions></trkpt>
   <trkpt lat="59.0695359299" lon="30.0221082125"><ele>113.257</ele><time>2026-04-20T17:40:18.634Z</time><hdop>5.125</hdop><vdop>6.125</vdop><extensions><gom:speed>0.673</gom:speed></extensions></trkpt>
   <trkpt lat="59.0695461558" lon="30.0221096375"><ele>112.699</ele><time>2026-04-20T17:40:19.661Z</time><hdop>5.0</hdop><vdop>5.75</vdop><extensions><gom:speed>0.662</gom:speed></extensions></trkpt>
   <trkpt lat="59.0695534481" lon="30.0221087993"><ele>112.084</ele><time>2026-04-20T17:40:20.660Z</time><hdop>5.125</hdop><vdop>5.5</vdop><extensions><gom:speed>0.669</gom:speed></extensions></trkpt>
   <trkpt lat="59.0695622491" lon="30.022110308"><ele>111.834</ele><time>2026-04-20T17:40:21.556Z</time><hdop>5.125</hdop><vdop>5.25</vdop><extensions><gom:speed>0.648</gom:speed></extensions></trkpt>
   <trkpt lat="59.0695658533" lon="30.0221091345"><ele>111.19</ele><time>2026-04-20T17:40:22.047Z</time><hdop>5.125</hdop><vdop>5.375</vdop><extensions><gom:speed>0.663</gom:speed></extensions></trkpt>
   <trkpt lat="59.0695686193" lon="30.0221072067"><ele>110.805</ele><time>2026-04-20T17:40:22.516Z</time><hdop>5.25</hdop><vdop>5.375</vdop><extensions><gom:speed>0.656</gom:speed></extensions></trkpt>
   <trkpt lat="59.0695717206" lon="30.0221043569"><ele>110.272</ele><time>2026-04-20T17:40:22.994Z</time><hdop>5.25</hdop><vdop>5.25</vdop><extensions><gom:speed>0.654</gom:speed></extensions></trkpt>
   <trkpt lat="59.0695751572" lon="30.0221006688"><ele>109.953</ele><time>2026-04-20T17:40:23.859Z</time><hdop>5.375</hdop><vdop>5.25</vdop><extensions><gom:speed>0.561</gom:speed></extensions></trkpt>
   <trkpt lat="59.0695812341" lon="30.0221036025"><ele>109.448</ele><time>2026-04-20T17:40:25.075Z</time><hdop>5.5</hdop><vdop>5.25</vdop><extensions><gom:speed>0.467</gom:speed></extensions></trkpt>
   <trkpt lat="59.0695846288" lon="30.0221062847"><ele>108.922</ele><time>2026-04-20T17:40:25.957Z</time><hdop>5.5</hdop><vdop>5.25</vdop><extensions><gom:speed>0.448</gom:speed></extensions></trkpt>
   <trkpt lat="59.0695884425" lon="30.0221056141"><ele>108.527</ele><time>2026-04-20T17:40:27.022Z</time><hdop>5.625</hdop><vdop>4.875</vdop><extensions><gom:speed>0.427</gom:speed></extensions></trkpt>
   <trkpt lat="59.0695899513" lon="30.0221041892"><ele>108.29</ele><time>2026-04-20T17:40:27.577Z</time><hdop>5.75</hdop><vdop>4.875</vdop><extensions><gom:speed>0.389</gom:speed></extensions></trkpt>
   <trkpt lat="59.0695938489" lon="30.0220989086"><ele>107.999</ele><time>2026-04-20T17:40:28.860Z</time><hdop>5.875</hdop><vdop>4.875</vdop><extensions><gom:speed>0.413</gom:speed></extensions></trkpt>
   <trkpt lat="59.0695961539" lon="30.0220950529"><ele>107.747</ele><time>2026-04-20T17:40:29.983Z</time><hdop>6.0</hdop><vdop>4.75</vdop><extensions><gom:speed>0.293</gom:speed></extensions></trkpt>
   <trkpt lat="59.0695950223" lon="30.0221021776"><ele>107.572</ele><time>2026-04-20T17:40:31.075Z</time><hdop>6.25</hdop><vdop>4.625</vdop><extensions><gom:speed>0.233</gom:speed></extensions></trkpt>
   <trkpt lat="59.0695954414" lon="30.0221064523"><ele>107.491</ele><time>2026-04-20T17:40:31.997Z</time><hdop>6.25</hdop><vdop>4.625</vdop><extensions><gom:speed>0.236</gom:speed></extensions></trkpt>
   <trkpt lat="59.0695964472" lon="30.0221082964"><ele>107.435</ele><time>2026-04-20T17:40:32.944Z</time><hdop>6.375</hdop><vdop>4.5</vdop><extensions><gom:speed>0.233</gom:speed></extensions></trkpt>
   <trkpt lat="59.0695964472" lon="30.0221137446"><ele>107.401</ele><time>2026-04-20T17:40:34.075Z</time><hdop>6.25</hdop><vdop>4.5</vdop><extensions><gom:speed>0.223</gom:speed></extensions></trkpt>
   <trkpt lat="59.069597956" lon="30.0221177679"><ele>107.387</ele><time>2026-04-20T17:40:35.076Z</time><hdop>6.125</hdop><vdop>4.375</vdop><extensions><gom:speed>0.305</gom:speed></extensions></trkpt>
   <trkpt lat="59.0695986265" lon="30.0221176003"><ele>107.378</ele><time>2026-04-20T17:40:35.534Z</time><hdop>5.875</hdop><vdop>4.375</vdop><extensions><gom:speed>0.279</gom:speed></extensions></trkpt>
   <trkpt lat="59.0696001353" lon="30.0221188576"><ele>107.362</ele><time>2026-04-20T17:40:36.075Z</time><hdop>5.875</hdop><vdop>3.625</vdop><extensions><gom:speed>0.312</gom:speed></extensions></trkpt>
   <trkpt lat="59.0696043262" lon="30.0221160077"><ele>107.101</ele><time>2026-04-20T17:40:37.075Z</time><hdop>5.625</hdop><vdop>3.125</vdop><extensions><gom:speed>0.353</gom:speed></extensions></trkpt>
   <trkpt lat="59.069609523" lon="30.0221082125"><ele>107.296</ele><time>2026-04-20T17:40:38.076Z</time><hdop>5.375</hdop><vdop>3.0</vdop><extensions><gom:speed>0.495</gom:speed></extensions></trkpt>
   <trkpt lat="59.0696166476" lon="30.0220968131"><ele>106.884</ele><time>2026-04-20T17:40:39.076Z</time><hdop>5.25</hdop><vdop>2.75</vdop><extensions><gom:speed>0.551</gom:speed></extensions></trkpt>
   <trkpt lat="59.06962482" lon="30.0220837374"><ele>106.518</ele><time>2026-04-20T17:40:40.075Z</time><hdop>5.125</hdop><vdop>4.5</vdop><extensions><gom:speed>0.578</gom:speed></extensions></trkpt>
   <trkpt lat="59.0696329504" lon="30.0220704102"><ele>106.012</ele><time>2026-04-20T17:40:41.076Z</time><hdop>5.0</hdop><vdop>4.625</vdop><extensions><gom:speed>0.572</gom:speed></extensions></trkpt>
   <trkpt lat="59.0696394464" lon="30.0220567476"><ele>105.785</ele><time>2026-04-20T17:40:42.075Z</time><hdop>5.0</hdop><vdop>4.625</vdop><extensions><gom:speed>0.545</gom:speed></extensions></trkpt>
   <trkpt lat="59.0696411228" lon="30.0220538978"><ele>105.65</ele><time>2026-04-20T17:40:42.539Z</time><hdop>5.0</hdop><vdop>4.625</vdop><extensions><gom:speed>0.512</gom:speed></extensions></trkpt>
   <trkpt lat="59.0696449366" lon="30.0220443424"><ele>105.569</ele><time>2026-04-20T17:40:43.088Z</time><hdop>4.875</hdop><vdop>4.625</vdop><extensions><gom:speed>0.509</gom:speed></extensions></trkpt>
   <trkpt lat="59.0696507201" lon="30.022038978"><ele>105.816</ele><time>2026-04-20T17:40:44.076Z</time><hdop>4.875</hdop><vdop>4.75</vdop><extensions><gom:speed>0.477</gom:speed></extensions></trkpt>
   <trkpt lat="59.0696543243" lon="30.0220332783"><ele>105.963</ele><time>2026-04-20T17:40:45.020Z</time><hdop>4.875</hdop><vdop>4.75</vdop><extensions><gom:speed>0.47</gom:speed></extensions></trkpt>
   <trkpt lat="59.0696571322" lon="30.0220243935"><ele>106.247</ele><time>2026-04-20T17:40:46.075Z</time><hdop>4.75</hdop><vdop>4.75</vdop><extensions><gom:speed>0.44</gom:speed></extensions></trkpt>
   <trkpt lat="59.0696604431" lon="30.0220171851"><ele>106.402</ele><time>2026-04-20T17:40:47.040Z</time><hdop>4.75</hdop><vdop>4.875</vdop><extensions><gom:speed>0.483</gom:speed></extensions></trkpt>
   <trkpt lat="59.0696650531" lon="30.0220124074"><ele>106.434</ele><time>2026-04-20T17:40:48.075Z</time><hdop>4.75</hdop><vdop>5.0</vdop><extensions><gom:speed>0.447</gom:speed></extensions></trkpt>
   <trkpt lat="59.06966652" lon="30.0220108986"><ele>106.453</ele><time>2026-04-20T17:40:48.700Z</time><hdop>4.75</hdop><vdop>5.0</vdop><extensions><gom:speed>0.394</gom:speed></extensions></trkpt>
   <trkpt lat="59.0696695374" lon="30.0220101443"><ele>106.473</ele><time>2026-04-20T17:40:49.639Z</time><hdop>4.875</hdop><vdop>5.0</vdop><extensions><gom:speed>0.336</gom:speed></extensions></trkpt>
   <trkpt lat="59.0696722197" lon="30.0220131618"><ele>106.323</ele><time>2026-04-20T17:40:50.775Z</time><hdop>4.875</hdop><vdop>5.0</vdop><extensions><gom:speed>0.247</gom:speed></extensions></trkpt>
   <trkpt lat="59.0696721358" lon="30.0220150896"><ele>106.104</ele><time>2026-04-20T17:40:51.577Z</time><hdop>4.875</hdop><vdop>4.875</vdop><extensions><gom:speed>0.145</gom:speed></extensions></trkpt>
   <trkpt lat="59.0696705433" lon="30.0220179394"><ele>105.913</ele><time>2026-04-20T17:40:52.963Z</time><hdop>5.0</hdop><vdop>4.625</vdop><extensions><gom:speed>0.127</gom:speed></extensions></trkpt>
   <trkpt lat="59.0696695374" lon="30.0220186938"><ele>105.705</ele><time>2026-04-20T17:40:54.029Z</time><hdop>5.0</hdop><vdop>4.5</vdop><extensions><gom:speed>0.119</gom:speed></extensions></trkpt>
   <trkpt lat="59.0696695374" lon="30.0220192805"><ele>105.58</ele><time>2026-04-20T17:40:54.556Z</time><hdop>5.125</hdop><vdop>4.5</vdop><extensions><gom:speed>0.062</gom:speed></extensions></trkpt>
   <trkpt lat="59.0696702499" lon="30.0220208731"><ele>105.395</ele><time>2026-04-20T17:40:55.075Z</time><hdop>5.125</hdop><vdop>4.5</vdop><extensions><gom:speed>0.105</gom:speed></extensions></trkpt>
   <trkpt lat="59.0696704175" lon="30.022022298"><ele>105.286</ele><time>2026-04-20T17:40:56.043Z</time><hdop>5.125</hdop><vdop>4.5</vdop><extensions><gom:speed>0.126</gom:speed></extensions></trkpt>
   <trkpt lat="59.0696710462" lon="30.0220233877"><ele>105.157</ele><time>2026-04-20T17:40:56.990Z</time><hdop>5.25</hdop><vdop>4.375</vdop><extensions><gom:speed>0.093</gom:speed></extensions></trkpt>
   <trkpt lat="59.06967113" lon="30.022022298"><ele>105.08</ele><time>2026-04-20T17:40:57.500Z</time><hdop>5.25</hdop><vdop>4.375</vdop><extensions><gom:speed>0.082</gom:speed></extensions></trkpt>
   <trkpt lat="59.0696715491" lon="30.0220222142"><ele>105.051</ele><time>2026-04-20T17:40:59.005Z</time><hdop>5.375</hdop><vdop>4.25</vdop><extensions><gom:speed>0.175</gom:speed></extensions></trkpt>
   <trkpt lat="59.0696721358" lon="30.0220217113"><ele>105.057</ele><time>2026-04-20T17:40:59.953Z</time><hdop>5.375</hdop><vdop>4.375</vdop><extensions><gom:speed>0.168</gom:speed></extensions></trkpt>
   <trkpt lat="59.0696728483" lon="30.0220209569"><ele>105.028</ele><time>2026-04-20T17:41:01.075Z</time><hdop>5.375</hdop><vdop>4.5</vdop><extensions><gom:speed>0.115</gom:speed></extensions></trkpt>
   <trkpt lat="59.0696729321" lon="30.022020454"><ele>104.993</ele><time>2026-04-20T17:41:01.966Z</time><hdop>5.5</hdop><vdop>4.5</vdop><extensions><gom:speed>0.092</gom:speed></extensions></trkpt>
   <trkpt lat="59.0696735188" lon="30.0220210407"><ele>104.991</ele><time>2026-04-20T17:41:03.031Z</time><hdop>5.625</hdop><vdop>4.375</vdop><extensions><gom:speed>0.081</gom:speed></extensions></trkpt>
   <trkpt lat="59.0696742313" lon="30.0220217113"><ele>104.99</ele><time>2026-04-20T17:41:03.676Z</time><hdop>5.625</hdop><vdop>4.375</vdop><extensions><gom:speed>0.079</gom:speed></extensions></trkpt>
   <trkpt lat="59.0696752371" lon="30.0220233877"><ele>105.016</ele><time>2026-04-20T17:41:04.802Z</time><hdop>5.75</hdop><vdop>4.25</vdop><extensions><gom:speed>0.1</gom:speed></extensions></trkpt>
   <trkpt lat="59.0696759496" lon="30.0220230524"><ele>105.032</ele><time>2026-04-20T17:41:06.015Z</time><hdop>5.875</hdop><vdop>4.25</vdop><extensions><gom:speed>0.12</gom:speed></extensions></trkpt>
   <trkpt lat="59.0696816493" lon="30.02201861"><ele>105.988</ele><time>2026-04-20T17:41:07.062Z</time><hdop>5.875</hdop><vdop>3.375</vdop><extensions><gom:speed>0.174</gom:speed></extensions></trkpt>
   <trkpt lat="59.0696914561" lon="30.0220060371"><ele>106.2</ele><time>2026-04-20T17:41:08.001Z</time><hdop>5.875</hdop><vdop>2.625</vdop><extensions><gom:speed>0.262</gom:speed></extensions></trkpt>
   <trkpt lat="59.0697027298" lon="30.0219849147"><ele>106.113</ele><time>2026-04-20T17:41:09.075Z</time><hdop>5.625</hdop><vdop>2.5</vdop><extensions><gom:speed>0.322</gom:speed></extensions></trkpt>
   <trkpt lat="59.0697088486" lon="30.0219689053"><ele>105.478</ele><time>2026-04-20T17:41:10.075Z</time><hdop>5.375</hdop><vdop>2.5</vdop><extensions><gom:speed>0.352</gom:speed></extensions></trkpt>
   <trkpt lat="59.0697133329" lon="30.0219550752"><ele>105.489</ele><time>2026-04-20T17:41:11.075Z</time><hdop>5.125</hdop><vdop>2.5</vdop><extensions><gom:speed>0.343</gom:speed></extensions></trkpt>
   <trkpt lat="59.0697150512" lon="30.0219490402"><ele>105.496</ele><time>2026-04-20T17:41:11.939Z</time><hdop>5.0</hdop><vdop>2.5</vdop><extensions><gom:speed>0.293</gom:speed></extensions></trkpt>
   <trkpt lat="59.0697208347" lon="30.021936635"><ele>105.002</ele><time>2026-04-20T17:41:13.076Z</time><hdop>4.625</hdop><vdop>2.5</vdop><extensions><gom:speed>0.232</gom:speed></extensions></trkpt>
   <trkpt lat="59.0697257381" lon="30.0219276663"><ele>105.054</ele><time>2026-04-20T17:41:14.076Z</time><hdop>4.375</hdop><vdop>2.5</vdop><extensions><gom:speed>0.224</gom:speed></extensions></trkpt>
   <trkpt lat="59.0697306415" lon="30.0219197874"><ele>105.105</ele><time>2026-04-20T17:41:15.076Z</time><hdop>4.25</hdop><vdop>2.5</vdop><extensions><gom:speed>0.202</gom:speed></extensions></trkpt>
   <trkpt lat="59.0697368441" lon="30.021911154"><ele>105.185</ele><time>2026-04-20T17:41:16.075Z</time><hdop>4.25</hdop><vdop>2.5</vdop><extensions><gom:speed>0.259</gom:speed></extensions></trkpt>
   <trkpt lat="59.0697414542" lon="30.0219067116"><ele>105.233</ele><time>2026-04-20T17:41:17.003Z</time><hdop>4.25</hdop><vdop>2.5</vdop><extensions><gom:speed>0.329</gom:speed></extensions></trkpt>
   <trkpt lat="59.069754027" lon="30.0218961504"><ele>104.995</ele><time>2026-04-20T17:41:17.861Z</time><hdop>4.375</hdop><vdop>2.5</vdop><extensions><gom:speed>0.493</gom:speed></extensions></trkpt>
   <trkpt lat="59.0697776221" lon="30.0218778778"><ele>104.227</ele><time>2026-04-20T17:41:19.075Z</time><hdop>4.625</hdop><vdop>2.5</vdop><extensions><gom:speed>0.604</gom:speed></extensions></trkpt>
   <trkpt lat="59.0697814359" lon="30.0218747765"><ele>103.768</ele><time>2026-04-20T17:41:19.615Z</time><hdop>4.75</hdop><vdop>2.5</vdop><extensions><gom:speed>0.576</gom:speed></extensions></trkpt>
   <trkpt lat="59.0697930448" lon="30.0218646344"><ele>103.484</ele><time>2026-04-20T17:41:20.076Z</time><hdop>4.875</hdop><vdop>2.5</vdop><extensions><gom:speed>0.563</gom:speed></extensions></trkpt>
   <trkpt lat="59.0698021392" lon="30.0218566716"><ele>103.385</ele><time>2026-04-20T17:41:21.075Z</time><hdop>5.0</hdop><vdop>2.5</vdop><extensions><gom:speed>0.528</gom:speed></extensions></trkpt>
   <trkpt lat="59.0698122393" lon="30.0218492955"><ele>103.395</ele><time>2026-04-20T17:41:22.075Z</time><hdop>5.0</hdop><vdop>5.25</vdop><extensions><gom:speed>0.51</gom:speed></extensions></trkpt>
   <trkpt lat="59.069820747" lon="30.0218452722"><ele>103.429</ele><time>2026-04-20T17:41:23.075Z</time><hdop>4.875</hdop><vdop>5.5</vdop><extensions><gom:speed>0.471</gom:speed></extensions></trkpt>
   <trkpt lat="59.0698263209" lon="30.0218447693"><ele>103.62</ele><time>2026-04-20T17:41:23.999Z</time><hdop>4.625</hdop><vdop>5.25</vdop><extensions><gom:speed>0.479</gom:speed></extensions></trkpt>
   <trkpt lat="59.0698328169" lon="30.0218479544"><ele>103.827</ele><time>2026-04-20T17:41:25.076Z</time><hdop>4.375</hdop><vdop>5.0</vdop><extensions><gom:speed>0.476</gom:speed></extensions></trkpt>
   <trkpt lat="59.0698350381" lon="30.0218492955"><ele>103.95</ele><time>2026-04-20T17:41:25.775Z</time><hdop>4.25</hdop><vdop>5.0</vdop><extensions><gom:speed>0.49</gom:speed></extensions></trkpt>
   <trkpt lat="59.0698445516" lon="30.0218565878"><ele>104.076</ele><time>2026-04-20T17:41:27.076Z</time><hdop>4.125</hdop><vdop>4.75</vdop><extensions><gom:speed>0.51</gom:speed></extensions></trkpt>
   <trkpt lat="59.069848533" lon="30.0218589347"><ele>104.152</ele><time>2026-04-20T17:41:28.020Z</time><hdop>4.125</hdop><vdop>4.75</vdop><extensions><gom:speed>0.482</gom:speed></extensions></trkpt>
   <trkpt lat="59.0698541489" lon="30.0218576774"><ele>104.192</ele><time>2026-04-20T17:41:28.956Z</time><hdop>4.25</hdop><vdop>4.5</vdop><extensions><gom:speed>0.532</gom:speed></extensions></trkpt>
   <trkpt lat="59.0698602257" lon="30.0218542409"><ele>104.071</ele><time>2026-04-20T17:41:29.913Z</time><hdop>4.25</hdop><vdop>4.375</vdop><extensions><gom:speed>0.558</gom:speed></extensions></trkpt>
   <trkpt lat="59.0698656321" lon="30.0218516425"><ele>103.32</ele><time>2026-04-20T17:41:31.076Z</time><hdop>4.25</hdop><vdop>3.375</vdop><extensions><gom:speed>0.444</gom:speed></extensions></trkpt>
   <trkpt lat="59.0698699488" lon="30.0218469486"><ele>103.492</ele><time>2026-04-20T17:41:32.076Z</time><hdop>4.25</hdop><vdop>2.625</vdop><extensions><gom:speed>0.43</gom:speed></extensions></trkpt>
   <trkpt lat="59.0698751455" lon="30.0218422547"><ele>103.605</ele><time>2026-04-20T17:41:33.075Z</time><hdop>4.25</hdop><vdop>2.5</vdop><extensions><gom:speed>0.425</gom:speed></extensions></trkpt>
   <trkpt lat="59.0698812224" lon="30.0218401593"><ele>103.245</ele><time>2026-04-20T17:41:34.075Z</time><hdop>4.125</hdop><vdop>2.5</vdop><extensions><gom:speed>0.462</gom:speed></extensions></trkpt>
   <trkpt lat="59.0698846171" lon="30.0218390696"><ele>103.434</ele><time>2026-04-20T17:41:35.075Z</time><hdop>4.125</hdop><vdop>2.5</vdop><extensions><gom:speed>0.335</gom:speed></extensions></trkpt>
   <trkpt lat="59.0698859163" lon="30.0218380638"><ele>103.829</ele><time>2026-04-20T17:41:36.075Z</time><hdop>4.125</hdop><vdop>2.5</vdop><extensions><gom:speed>0.233</gom:speed></extensions></trkpt>
   <trkpt lat="59.0698870478" lon="30.0218384829"><ele>104.384</ele><time>2026-04-20T17:41:37.075Z</time><hdop>4.125</hdop><vdop>2.5</vdop><extensions><gom:speed>0.124</gom:speed></extensions></trkpt>
   <trkpt lat="59.0698886404" lon="30.0218390696"><ele>105.046</ele><time>2026-04-20T17:41:38.075Z</time><hdop>4.125</hdop><vdop>5.125</vdop><extensions><gom:speed>0.071</gom:speed></extensions></trkpt>
   <trkpt lat="59.0698915322" lon="30.021838902"><ele>105.606</ele><time>2026-04-20T17:41:39.075Z</time><hdop>4.125</hdop><vdop>5.0</vdop><extensions><gom:speed>0.091</gom:speed></extensions></trkpt>
   <trkpt lat="59.0698922446" lon="30.0218385667"><ele>106.08</ele><time>2026-04-20T17:41:39.990Z</time><hdop>4.125</hdop><vdop>5.0</vdop><extensions><gom:speed>0.069</gom:speed></extensions></trkpt>
   <trkpt lat="59.0698956393" lon="30.0218371418"><ele>106.457</ele><time>2026-04-20T17:41:41.075Z</time><hdop>4.125</hdop><vdop>4.875</vdop><extensions><gom:speed>0.066</gom:speed></extensions></trkpt>
   <trkpt lat="59.0698970223" lon="30.0218368903"><ele>106.962</ele><time>2026-04-20T17:41:42.003Z</time><hdop>4.125</hdop><vdop>4.875</vdop><extensions><gom:speed>0.064</gom:speed></extensions></trkpt>
   <trkpt lat="59.0698979443" lon="30.0218359683"><ele>107.57</ele><time>2026-04-20T17:41:42.950Z</time><hdop>4.25</hdop><vdop>5.0</vdop><extensions><gom:speed>0.06</gom:speed></extensions></trkpt>
   <trkpt lat="59.0698980281" lon="30.0218349625"><ele>107.984</ele><time>2026-04-20T17:41:44.016Z</time><hdop>4.375</hdop><vdop>5.0</vdop><extensions><gom:speed>0.074</gom:speed></extensions></trkpt>
   <trkpt lat="59.069899453" lon="30.0218348787"><ele>108.332</ele><time>2026-04-20T17:41:44.964Z</time><hdop>4.5</hdop><vdop>5.25</vdop><extensions><gom:speed>0.064</gom:speed></extensions></trkpt>
   <trkpt lat="59.0699037278" lon="30.021834711"><ele>108.661</ele><time>2026-04-20T17:41:46.075Z</time><hdop>4.625</hdop><vdop>5.125</vdop><extensions><gom:speed>0.063</gom:speed></extensions></trkpt>
   <trkpt lat="59.0699045241" lon="30.0218345434"><ele>109.089</ele><time>2026-04-20T17:41:46.978Z</time><hdop>4.75</hdop><vdop>5.125</vdop><extensions><gom:speed>0.056</gom:speed></extensions></trkpt>
   <trkpt lat="59.0699047336" lon="30.0218368065"><ele>109.366</ele><time>2026-04-20T17:41:48.044Z</time><hdop>4.75</hdop><vdop>5.0</vdop><extensions><gom:speed>0.062</gom:speed></extensions></trkpt>
   <trkpt lat="59.0699042307" lon="30.021836136"><ele>109.566</ele><time>2026-04-20T17:41:48.992Z</time><hdop>4.875</hdop><vdop>4.875</vdop><extensions><gom:speed>0.067</gom:speed></extensions></trkpt>
   <trkpt lat="59.0699038535" lon="30.021836136"><ele>109.716</ele><time>2026-04-20T17:41:49.939Z</time><hdop>5.0</hdop><vdop>5.0</vdop><extensions><gom:speed>0.063</gom:speed></extensions></trkpt>
   <trkpt lat="59.069905027" lon="30.0218366389"><ele>109.806</ele><time>2026-04-20T17:41:50.531Z</time><hdop>5.0</hdop><vdop>5.0</vdop><extensions><gom:speed>0.019</gom:speed></extensions></trkpt>
   <trkpt lat="59.069907835" lon="30.0218373094"><ele>109.86</ele><time>2026-04-20T17:41:51.076Z</time><hdop>5.0</hdop><vdop>5.0</vdop><extensions><gom:speed>0.161</gom:speed></extensions></trkpt>
   <trkpt lat="59.0699110201" lon="30.0218376447"><ele>109.912</ele><time>2026-04-20T17:41:52.075Z</time><hdop>5.125</hdop><vdop>5.0</vdop><extensions><gom:speed>0.284</gom:speed></extensions></trkpt>
   <trkpt lat="59.0699148338" lon="30.0218380638"><ele>109.892</ele><time>2026-04-20T17:41:53.076Z</time><hdop>5.125</hdop><vdop>5.0</vdop><extensions><gom:speed>0.302</gom:speed></extensions></trkpt>
   <trkpt lat="59.0699181447" lon="30.0218385667"><ele>109.873</ele><time>2026-04-20T17:41:54.075Z</time><hdop>5.125</hdop><vdop>5.125</vdop><extensions><gom:speed>0.312</gom:speed></extensions></trkpt>
   <trkpt lat="59.0699211203" lon="30.0218390696"><ele>109.865</ele><time>2026-04-20T17:41:55.076Z</time><hdop>5.125</hdop><vdop>5.25</vdop><extensions><gom:speed>0.337</gom:speed></extensions></trkpt>
   <trkpt lat="59.0699237187" lon="30.0218394887"><ele>109.863</ele><time>2026-04-20T17:41:56.075Z</time><hdop>5.0</hdop><vdop>5.375</vdop><extensions><gom:speed>0.358</gom:speed></extensions></trkpt>
   <trkpt lat="59.0699245568" lon="30.0218396564"><ele>109.863</ele><time>2026-04-20T17:41:56.809Z</time><hdop>5.0</hdop><vdop>5.375</vdop><extensions><gom:speed>0.358</gom:speed></extensions></trkpt>
   <trkpt lat="59.0699287478" lon="30.0218404107"><ele>109.823</ele><time>2026-04-20T17:41:58.075Z</time><hdop>5.0</hdop><vdop>5.25</vdop><extensions><gom:speed>0.364</gom:speed></extensions></trkpt>
   <trkpt lat="59.0699304242" lon="30.021840746"><ele>109.75</ele><time>2026-04-20T17:41:59.075Z</time><hdop>5.125</hdop><vdop>5.125</vdop><extensions><gom:speed>0.358</gom:speed></extensions></trkpt>
   <trkpt lat="59.0699317234" lon="30.0218409975"><ele>109.675</ele><time>2026-04-20T17:42:00.075Z</time><hdop>5.125</hdop><vdop>5.0</vdop><extensions><gom:speed>0.365</gom:speed></extensions></trkpt>
   <trkpt lat="59.0699326454" lon="30.0218405784"><ele>109.631</ele><time>2026-04-20T17:42:01.075Z</time><hdop>5.125</hdop><vdop>4.875</vdop><extensions><gom:speed>0.368</gom:speed></extensions></trkpt>
   <trkpt lat="59.069933735" lon="30.0218406622"><ele>109.587</ele><time>2026-04-20T17:42:02.075Z</time><hdop>5.25</hdop><vdop>4.875</vdop><extensions><gom:speed>0.359</gom:speed></extensions></trkpt>
   <trkpt lat="59.0699342379" lon="30.0218406622"><ele>109.561</ele><time>2026-04-20T17:42:02.969Z</time><hdop>5.25</hdop><vdop>4.875</vdop><extensions><gom:speed>0.359</gom:speed></extensions></trkpt>
   <trkpt lat="59.0699357467" lon="30.0218413327"><ele>109.502</ele><time>2026-04-20T17:42:04.075Z</time><hdop>5.375</hdop><vdop>4.625</vdop><extensions><gom:speed>0.347</gom:speed></extensions></trkpt>
   <trkpt lat="59.0699364172" lon="30.0218420871"><ele>109.457</ele><time>2026-04-20T17:42:05.075Z</time><hdop>5.375</hdop><vdop>4.5</vdop><extensions><gom:speed>0.353</gom:speed></extensions></trkpt>
   <trkpt lat="59.0699375488" lon="30.02184259"><ele>109.431</ele><time>2026-04-20T17:42:06.075Z</time><hdop>5.375</hdop><vdop>4.625</vdop><extensions><gom:speed>0.353</gom:speed></extensions></trkpt>
   <trkpt lat="59.0699380517" lon="30.0218430929"><ele>109.416</ele><time>2026-04-20T17:42:07.075Z</time><hdop>5.5</hdop><vdop>4.625</vdop><extensions><gom:speed>0.356</gom:speed></extensions></trkpt>
   <trkpt lat="59.0699385546" lon="30.0218435959"><ele>109.407</ele><time>2026-04-20T17:42:08.075Z</time><hdop>5.5</hdop><vdop>4.5</vdop><extensions><gom:speed>0.333</gom:speed></extensions></trkpt>
   <trkpt lat="59.0699391414" lon="30.0218438473"><ele>109.402</ele><time>2026-04-20T17:42:09.075Z</time><hdop>5.5</hdop><vdop>4.5</vdop><extensions><gom:speed>0.314</gom:speed></extensions></trkpt>
   <trkpt lat="59.0699396443" lon="30.0218440149"><ele>109.396</ele><time>2026-04-20T17:42:10.076Z</time><hdop>5.5</hdop><vdop>4.5</vdop><extensions><gom:speed>0.323</gom:speed></extensions></trkpt>
   <trkpt lat="59.0699397281" lon="30.0218443502"><ele>109.414</ele><time>2026-04-20T17:42:11.075Z</time><hdop>5.625</hdop><vdop>4.375</vdop><extensions><gom:speed>0.36</gom:speed></extensions></trkpt>
   <trkpt lat="59.0699394347" lon="30.021844937"><ele>109.453</ele><time>2026-04-20T17:42:12.075Z</time><hdop>5.625</hdop><vdop>4.0</vdop><extensions><gom:speed>0.353</gom:speed></extensions></trkpt>
   <trkpt lat="59.0699399376" lon="30.0218451884"><ele>109.48</ele><time>2026-04-20T17:42:13.075Z</time><hdop>5.625</hdop><vdop>3.75</vdop><extensions><gom:speed>0.332</gom:speed></extensions></trkpt>
   <trkpt lat="59.0699399376" lon="30.021845859"><ele>109.499</ele><time>2026-04-20T17:42:14.075Z</time><hdop>5.625</hdop><vdop>3.5</vdop><extensions><gom:speed>0.295</gom:speed></extensions></trkpt>
   <trkpt lat="59.0699397281" lon="30.0218469486"><ele>109.513</ele><time>2026-04-20T17:42:15.075Z</time><hdop>5.625</hdop><vdop>3.375</vdop><extensions><gom:speed>0.28</gom:speed></extensions></trkpt>
   <trkpt lat="59.0699399376" lon="30.0218479544"><ele>109.523</ele><time>2026-04-20T17:42:16.076Z</time><hdop>5.625</hdop><vdop>3.375</vdop><extensions><gom:speed>0.265</gom:speed></extensions></trkpt>
   <trkpt lat="59.0699399376" lon="30.0218482897"><ele>109.531</ele><time>2026-04-20T17:42:17.076Z</time><hdop>5.625</hdop><vdop>3.5</vdop><extensions><gom:speed>0.271</gom:speed></extensions></trkpt>
   <trkpt lat="59.0699401472" lon="30.0218492117"><ele>109.538</ele><time>2026-04-20T17:42:18.075Z</time><hdop>5.625</hdop><vdop>3.5</vdop><extensions><gom:speed>0.267</gom:speed></extensions></trkpt>
   <trkpt lat="59.0699403567" lon="30.0218500499"><ele>109.538</ele><time>2026-04-20T17:42:19.075Z</time><hdop>5.625</hdop><vdop>3.5</vdop><extensions><gom:speed>0.256</gom:speed></extensions></trkpt>
   <trkpt lat="59.0699405244" lon="30.0218505528"><ele>109.538</ele><time>2026-04-20T17:42:20.075Z</time><hdop>5.625</hdop><vdop>3.5</vdop><extensions><gom:speed>0.252</gom:speed></extensions></trkpt>
   <trkpt lat="59.0699407339" lon="30.0218508043"><ele>109.554</ele><time>2026-04-20T17:42:21.075Z</time><hdop>5.625</hdop><vdop>3.5</vdop><extensions><gom:speed>0.263</gom:speed></extensions></trkpt>
   <trkpt lat="59.0699408177" lon="30.0218508043"><ele>109.563</ele><time>2026-04-20T17:42:21.566Z</time><hdop>5.625</hdop><vdop>3.5</vdop><extensions><gom:speed>0.263</gom:speed></extensions></trkpt>
   <trkpt lat="59.0699409435" lon="30.0218509719"><ele>109.569</ele><time>2026-04-20T17:42:22.075Z</time><hdop>5.625</hdop><vdop>3.5</vdop><extensions><gom:speed>0.261</gom:speed></extensions></trkpt>
   <trkpt lat="59.0699409435" lon="30.0218510557"><ele>109.603</ele><time>2026-04-20T17:42:23.075Z</time><hdop>5.625</hdop><vdop>3.625</vdop><extensions><gom:speed>0.275</gom:speed></extensions></trkpt>
   <trkpt lat="59.0699410273" lon="30.021851391"><ele>109.628</ele><time>2026-04-20T17:42:24.075Z</time><hdop>5.625</hdop><vdop>3.375</vdop><extensions><gom:speed>0.287</gom:speed></extensions></trkpt>
   <trkpt lat="59.0699412368" lon="30.0218506366"><ele>109.643</ele><time>2026-04-20T17:42:25.075Z</time><hdop>5.625</hdop><vdop>3.5</vdop><extensions><gom:speed>0.264</gom:speed></extensions></trkpt>
   <trkpt lat="59.069941153" lon="30.0218514748"><ele>109.647</ele><time>2026-04-20T17:42:26.075Z</time><hdop>5.5</hdop><vdop>3.75</vdop><extensions><gom:speed>0.264</gom:speed></extensions></trkpt>
   <trkpt lat="59.0699410273" lon="30.0218525645"><ele>109.653</ele><time>2026-04-20T17:42:27.075Z</time><hdop>5.5</hdop><vdop>3.75</vdop><extensions><gom:speed>0.251</gom:speed></extensions></trkpt>
   <trkpt lat="59.069941153" lon="30.0218528998"><ele>109.657</ele><time>2026-04-20T17:42:27.726Z</time><hdop>5.625</hdop><vdop>3.75</vdop><extensions><gom:speed>0.251</gom:speed></extensions></trkpt>
   <trkpt lat="59.0699413207" lon="30.0218540732"><ele>109.66</ele><time>2026-04-20T17:42:29.075Z</time><hdop>5.625</hdop><vdop>3.75</vdop><extensions><gom:speed>0.381</gom:speed></extensions></trkpt>
   <trkpt lat="59.0699420331" lon="30.0218552467"><ele>109.663</ele><time>2026-04-20T17:42:29.713Z</time><hdop>5.625</hdop><vdop>3.75</vdop><extensions><gom:speed>0.382</gom:speed></extensions></trkpt>
   <trkpt lat="59.0699422427" lon="30.0218566716"><ele>109.664</ele><time>2026-04-20T17:42:30.699Z</time><hdop>5.75</hdop><vdop>3.875</vdop><extensions><gom:speed>0.387</gom:speed></extensions></trkpt>
   <trkpt lat="59.0699420331" lon="30.0218575936"><ele>109.666</ele><time>2026-04-20T17:42:31.598Z</time><hdop>5.875</hdop><vdop>3.875</vdop><extensions><gom:speed>0.373</gom:speed></extensions></trkpt>
   <trkpt lat="59.0699412368" lon="30.0218567554"><ele>109.666</ele><time>2026-04-20T17:42:32.076Z</time><hdop>6.0</hdop><vdop>3.875</vdop><extensions><gom:speed>0.377</gom:speed></extensions></trkpt>
   <trkpt lat="59.0699413207" lon="30.0218571745"><ele>109.667</ele><time>2026-04-20T17:42:32.536Z</time><hdop>6.0</hdop><vdop>3.875</vdop><extensions><gom:speed>0.377</gom:speed></extensions></trkpt>
   <trkpt lat="59.0699414464" lon="30.0218580127"><ele>109.667</ele><time>2026-04-20T17:42:33.076Z</time><hdop>6.125</hdop><vdop>3.875</vdop><extensions><gom:speed>0.463</gom:speed></extensions></trkpt>
   <trkpt lat="59.0699415302" lon="30.02185927"><ele>109.667</ele><time>2026-04-20T17:42:33.885Z</time><hdop>6.375</hdop><vdop>3.875</vdop><extensions><gom:speed>0.475</gom:speed></extensions></trkpt>
   <trkpt lat="59.0699440448" lon="30.0218598567"><ele>109.667</ele><time>2026-04-20T17:42:34.421Z</time><hdop>6.625</hdop><vdop>3.875</vdop><extensions><gom:speed>0.571</gom:speed></extensions></trkpt>
   <trkpt lat="59.0699458469" lon="30.0218604435"><ele>109.668</ele><time>2026-04-20T17:42:34.951Z</time><hdop>6.75</hdop><vdop>3.875</vdop><extensions><gom:speed>0.571</gom:speed></extensions></trkpt>
   <trkpt lat="59.0699503312" lon="30.0218566716"><ele>109.669</ele><time>2026-04-20T17:42:36.017Z</time><hdop>7.25</hdop><vdop>3.875</vdop><extensions><gom:speed>0.557</gom:speed></extensions></trkpt>
   <trkpt lat="59.0699573301" lon="30.0218518101"><ele>109.67</ele><time>2026-04-20T17:42:36.899Z</time><hdop>7.75</hdop><vdop>3.875</vdop><extensions><gom:speed>0.647</gom:speed></extensions></trkpt>
   <trkpt lat="59.0699668436" lon="30.0218469486"><ele>109.671</ele><time>2026-04-20T17:42:37.797Z</time><hdop>8.375</hdop><vdop>4.0</vdop><extensions><gom:speed>0.762</gom:speed></extensions></trkpt>
   <trkpt lat="59.0699765246" lon="30.0218430929"><ele>109.672</ele><time>2026-04-20T17:42:38.537Z</time><hdop>9.125</hdop><vdop>4.0</vdop><extensions><gom:speed>0.867</gom:speed></extensions></trkpt>
   <trkpt lat="59.0699877564" lon="30.0218376447"><ele>109.674</ele><time>2026-04-20T17:42:39.456Z</time><hdop>9.75</hdop><vdop>4.125</vdop><extensions><gom:speed>0.871</gom:speed></extensions></trkpt>
   <trkpt lat="59.0699934561" lon="30.0218338728"><ele>109.675</ele><time>2026-04-20T17:42:40.045Z</time><hdop>9.875</hdop><vdop>4.125</vdop><extensions><gom:speed>0.879</gom:speed></extensions></trkpt>
   <trkpt lat="59.0700045202" lon="30.0218256586"><ele>109.676</ele><time>2026-04-20T17:42:40.996Z</time><hdop>10.375</hdop><vdop>4.125</vdop><extensions><gom:speed>0.881</gom:speed></extensions></trkpt>
   <trkpt lat="59.0700127345" lon="30.0218219705"><ele>109.678</ele><time>2026-04-20T17:42:41.940Z</time><hdop>10.875</hdop><vdop>4.25</vdop><extensions><gom:speed>0.85</gom:speed></extensions></trkpt>
   <trkpt lat="59.0700197334" lon="30.021816187"><ele>109.679</ele><time>2026-04-20T17:42:42.901Z</time><hdop>11.125</hdop><vdop>4.25</vdop><extensions><gom:speed>0.797</gom:speed></extensions></trkpt>
   <trkpt lat="59.0700278219" lon="30.0218085595"><ele>109.681</ele><time>2026-04-20T17:42:44.036Z</time><hdop>11.375</hdop><vdop>4.25</vdop><extensions><gom:speed>0.778</gom:speed></extensions></trkpt>
   <trkpt lat="59.0700352399" lon="30.0218017702"><ele>109.682</ele><time>2026-04-20T17:42:44.994Z</time><hdop>11.625</hdop><vdop>4.25</vdop><extensions><gom:speed>0.787</gom:speed></extensions></trkpt>
   <trkpt lat="59.0700422388" lon="30.0217953999"><ele>109.682</ele><time>2026-04-20T17:42:45.793Z</time><hdop>11.75</hdop><vdop>4.25</vdop><extensions><gom:speed>0.765</gom:speed></extensions></trkpt>
   <trkpt lat="59.0700455496" lon="30.0217925501"><ele>109.682</ele><time>2026-04-20T17:42:46.352Z</time><hdop>11.875</hdop><vdop>4.25</vdop><extensions><gom:speed>0.754</gom:speed></extensions></trkpt>
   <trkpt lat="59.0700553564" lon="30.0217845873"><ele>109.682</ele><time>2026-04-20T17:42:47.033Z</time><hdop>11.75</hdop><vdop>4.25</vdop><extensions><gom:speed>0.75</gom:speed></extensions></trkpt>
   <trkpt lat="59.0700586254" lon="30.0217808992"><ele>109.682</ele><time>2026-04-20T17:42:47.601Z</time><hdop>11.875</hdop><vdop>4.25</vdop><extensions><gom:speed>0.766</gom:speed></extensions></trkpt>
   <trkpt lat="59.0700645346" lon="30.021773607"><ele>109.681</ele><time>2026-04-20T17:42:48.458Z</time><hdop>11.875</hdop><vdop>4.25</vdop><extensions><gom:speed>0.815</gom:speed></extensions></trkpt>
   <trkpt lat="59.0700691447" lon="30.0217686616"><ele>109.682</ele><time>2026-04-20T17:42:49.047Z</time><hdop>11.875</hdop><vdop>4.25</vdop><extensions><gom:speed>0.806</gom:speed></extensions></trkpt>
   <trkpt lat="59.070076856" lon="30.0217620399"><ele>109.682</ele><time>2026-04-20T17:42:49.996Z</time><hdop>11.875</hdop><vdop>4.375</vdop><extensions><gom:speed>0.794</gom:speed></extensions></trkpt>
   <trkpt lat="59.070084735" lon="30.0217570946"><ele>109.682</ele><time>2026-04-20T17:42:51.015Z</time><hdop>12.0</hdop><vdop>4.375</vdop><extensions><gom:speed>0.813</gom:speed></extensions></trkpt>
   <trkpt lat="59.0700934522" lon="30.0217534066"><ele>109.682</ele><time>2026-04-20T17:42:52.044Z</time><hdop>12.125</hdop><vdop>4.5</vdop><extensions><gom:speed>0.865</gom:speed></extensions></trkpt>
   <trkpt lat="59.0701054383" lon="30.021747204"><ele>109.68</ele><time>2026-04-20T17:42:52.956Z</time><hdop>12.375</hdop><vdop>4.5</vdop><extensions><gom:speed>0.822</gom:speed></extensions></trkpt>
   <trkpt lat="59.0701105513" lon="30.0217431807"><ele>109.679</ele><time>2026-04-20T17:42:53.939Z</time><hdop>12.625</hdop><vdop>4.5</vdop><extensions><gom:speed>0.79</gom:speed></extensions></trkpt>
   <trkpt lat="59.0701165443" lon="30.0217373971"><ele>109.677</ele><time>2026-04-20T17:42:54.834Z</time><hdop>12.75</hdop><vdop>4.375</vdop><extensions><gom:speed>0.781</gom:speed></extensions></trkpt>
   <trkpt lat="59.0701232499" lon="30.0217278418"><ele>109.675</ele><time>2026-04-20T17:42:55.842Z</time><hdop>12.875</hdop><vdop>4.375</vdop><extensions><gom:speed>0.768</gom:speed></extensions></trkpt>
   <trkpt lat="59.0701280275" lon="30.0217178673"><ele>109.673</ele><time>2026-04-20T17:42:56.664Z</time><hdop>13.0</hdop><vdop>4.375</vdop><extensions><gom:speed>0.715</gom:speed></extensions></trkpt>
   <trkpt lat="59.0701315479" lon="30.0217076414"><ele>109.675</ele><time>2026-04-20T17:42:57.461Z</time><hdop>13.125</hdop><vdop>4.375</vdop><extensions><gom:speed>0.699</gom:speed></extensions></trkpt>
   <trkpt lat="59.0701331405" lon="30.0216995109"><ele>109.677</ele><time>2026-04-20T17:42:58.050Z</time><hdop>13.125</hdop><vdop>4.375</vdop><extensions><gom:speed>0.703</gom:speed></extensions></trkpt>
   <trkpt lat="59.0701334339" lon="30.0216944818"><ele>109.678</ele><time>2026-04-20T17:42:58.760Z</time><hdop>13.125</hdop><vdop>4.375</vdop><extensions><gom:speed>0.696</gom:speed></extensions></trkpt>
   <trkpt lat="59.0701377506" lon="30.0216705934"><ele>109.679</ele><time>2026-04-20T17:42:59.946Z</time><hdop>13.25</hdop><vdop>4.375</vdop><extensions><gom:speed>0.796</gom:speed></extensions></trkpt>
   <trkpt lat="59.0701433245" lon="30.021660116"><ele>109.679</ele><time>2026-04-20T17:43:01.011Z</time><hdop>13.375</hdop><vdop>4.25</vdop><extensions><gom:speed>0.881</gom:speed></extensions></trkpt>
   <trkpt lat="59.0701507425" lon="30.0216519017"><ele>109.679</ele><time>2026-04-20T17:43:01.962Z</time><hdop>13.625</hdop><vdop>4.25</vdop><extensions><gom:speed>0.925</gom:speed></extensions></trkpt>
   <trkpt lat="59.0701812526" lon="30.0217622076"><ele>111.644</ele><time>2026-04-20T17:43:02.823Z</time><hdop>12.75</hdop><vdop>3.125</vdop><extensions><gom:speed>0.905</gom:speed></extensions></trkpt>
   <trkpt lat="59.0701999443" lon="30.0218275864"><ele>112.271</ele><time>2026-04-20T17:43:03.878Z</time><hdop>11.625</hdop><vdop>2.5</vdop><extensions><gom:speed>0.862</gom:speed></extensions></trkpt>
   <trkpt lat="59.0702132296" lon="30.0218633771"><ele>112.284</ele><time>2026-04-20T17:43:04.957Z</time><hdop>10.75</hdop><vdop>2.5</vdop><extensions><gom:speed>0.758</gom:speed></extensions></trkpt>
   <trkpt lat="59.0702238327" lon="30.021884751"><ele>111.052</ele><time>2026-04-20T17:43:06.075Z</time><hdop>9.5</hdop><vdop>2.5</vdop><extensions><gom:speed>0.64</gom:speed></extensions></trkpt>
   <trkpt lat="59.0702302449" lon="30.0218909536"><ele>110.316</ele><time>2026-04-20T17:43:06.996Z</time><hdop>7.5</hdop><vdop>2.5</vdop><extensions><gom:speed>0.61</gom:speed></extensions></trkpt>
   <trkpt lat="59.0702354416" lon="30.0218915403"><ele>109.792</ele><time>2026-04-20T17:43:07.835Z</time><hdop>7.125</hdop><vdop>2.625</vdop><extensions><gom:speed>0.591</gom:speed></extensions></trkpt>
   <trkpt lat="59.0702410575" lon="30.0218877685"><ele>109.342</ele><time>2026-04-20T17:43:08.773Z</time><hdop>6.875</hdop><vdop>2.5</vdop><extensions><gom:speed>0.612</gom:speed></extensions></trkpt>
   <trkpt lat="59.0702470506" lon="30.021876872"><ele>108.943</ele><time>2026-04-20T17:43:09.780Z</time><hdop>6.625</hdop><vdop>2.5</vdop><extensions><gom:speed>0.656</gom:speed></extensions></trkpt>
   <trkpt lat="59.0702532532" lon="30.0218644668"><ele>107.942</ele><time>2026-04-20T17:43:10.835Z</time><hdop>6.375</hdop><vdop>2.5</vdop><extensions><gom:speed>0.634</gom:speed></extensions></trkpt>
   <trkpt lat="59.0702604197" lon="30.0218540732"><ele>107.011</ele><time>2026-04-20T17:43:11.813Z</time><hdop>6.125</hdop><vdop>2.5</vdop><extensions><gom:speed>0.614</gom:speed></extensions></trkpt>
   <trkpt lat="59.0702662451" lon="30.0218544923"><ele>106.658</ele><time>2026-04-20T17:43:12.613Z</time><hdop>5.875</hdop><vdop>2.625</vdop><extensions><gom:speed>0.714</gom:speed></extensions></trkpt>
   <trkpt lat="59.0702708552" lon="30.0218565878"><ele>106.71</ele><time>2026-04-20T17:43:13.075Z</time><hdop>5.75</hdop><vdop>2.625</vdop><extensions><gom:speed>0.738</gom:speed></extensions></trkpt>
   <trkpt lat="59.0702812487" lon="30.0218597729"><ele>106.974</ele><time>2026-04-20T17:43:14.075Z</time><hdop>5.5</hdop><vdop>2.875</vdop><extensions><gom:speed>0.793</gom:speed></extensions></trkpt>
   <trkpt lat="59.0702907203" lon="30.0218627904"><ele>107.454</ele><time>2026-04-20T17:43:15.075Z</time><hdop>5.375</hdop><vdop>3.0</vdop><extensions><gom:speed>0.755</gom:speed></extensions></trkpt>
   <trkpt lat="59.0702997308" lon="30.0218660594"><ele>108.078</ele><time>2026-04-20T17:43:16.076Z</time><hdop>5.125</hdop><vdop>2.75</vdop><extensions><gom:speed>0.727</gom:speed></extensions></trkpt>
   <trkpt lat="59.0703067297" lon="30.0218654726"><ele>108.451</ele><time>2026-04-20T17:43:16.937Z</time><hdop>5.125</hdop><vdop>2.75</vdop><extensions><gom:speed>0.74</gom:speed></extensions></trkpt>
   <trkpt lat="59.0703175424" lon="30.021868071"><ele>109.436</ele><time>2026-04-20T17:43:17.874Z</time><hdop>5.0</hdop><vdop>2.75</vdop><extensions><gom:speed>0.77</gom:speed></extensions></trkpt>
   <trkpt lat="59.0703247508" lon="30.0218729325"><ele>109.627</ele><time>2026-04-20T17:43:18.753Z</time><hdop>5.0</hdop><vdop>2.625</vdop><extensions><gom:speed>0.795</gom:speed></extensions></trkpt>
   <trkpt lat="59.0703345576" lon="30.0218779617"><ele>110.277</ele><time>2026-04-20T17:43:19.839Z</time><hdop>4.875</hdop><vdop>2.625</vdop><extensions><gom:speed>0.793</gom:speed></extensions></trkpt>
   <trkpt lat="59.0703444483" lon="30.0218809791"><ele>110.396</ele><time>2026-04-20T17:43:20.855Z</time><hdop>5.0</hdop><vdop>2.5</vdop><extensions><gom:speed>0.776</gom:speed></extensions></trkpt>
   <trkpt lat="59.0703510281" lon="30.0218844157"><ele>109.472</ele><time>2026-04-20T17:43:21.575Z</time><hdop>5.0</hdop><vdop>2.5</vdop><extensions><gom:speed>0.746</gom:speed></extensions></trkpt>
   <trkpt lat="59.0703553448" lon="30.0218886067"><ele>108.506</ele><time>2026-04-20T17:43:22.076Z</time><hdop>5.0</hdop><vdop>2.5</vdop><extensions><gom:speed>0.731</gom:speed></extensions></trkpt>
   <trkpt lat="59.0703633495" lon="30.0218970724"><ele>108.317</ele><time>2026-04-20T17:43:23.075Z</time><hdop>5.0</hdop><vdop>2.5</vdop><extensions><gom:speed>0.751</gom:speed></extensions></trkpt>
   <trkpt lat="59.0703729468" lon="30.0219021015"><ele>107.924</ele><time>2026-04-20T17:43:24.075Z</time><hdop>5.0</hdop><vdop>2.5</vdop><extensions><gom:speed>0.696</gom:speed></extensions></trkpt>
   <trkpt lat="59.0703781435" lon="30.0219015986"><ele>108.078</ele><time>2026-04-20T17:43:25.075Z</time><hdop>5.0</hdop><vdop>2.5</vdop><extensions><gom:speed>0.646</gom:speed></extensions></trkpt>
   <trkpt lat="59.0703850167" lon="30.0219005928"><ele>108.169</ele><time>2026-04-20T17:43:26.057Z</time><hdop>5.0</hdop><vdop>2.5</vdop><extensions><gom:speed>0.685</gom:speed></extensions></trkpt>
   <trkpt lat="59.0703924347" lon="30.0218995031"><ele>106.996</ele><time>2026-04-20T17:43:27.075Z</time><hdop>4.875</hdop><vdop>2.5</vdop><extensions><gom:speed>0.661</gom:speed></extensions></trkpt>
   <trkpt lat="59.0703989307" lon="30.0218965695"><ele>106.565</ele><time>2026-04-20T17:43:28.076Z</time><hdop>4.875</hdop><vdop>2.5</vdop><extensions><gom:speed>0.646</gom:speed></extensions></trkpt>
   <trkpt lat="59.0704048399" lon="30.0218965695"><ele>105.924</ele><time>2026-04-20T17:43:29.075Z</time><hdop>4.75</hdop><vdop>2.5</vdop><extensions><gom:speed>0.628</gom:speed></extensions></trkpt>
   <trkpt lat="59.070406642" lon="30.0218964857"><ele>105.54</ele><time>2026-04-20T17:43:29.677Z</time><hdop>4.625</hdop><vdop>2.5</vdop><extensions><gom:speed>0.621</gom:speed></extensions></trkpt>
   <trkpt lat="59.0704121322" lon="30.0218954798"><ele>105.129</ele><time>2026-04-20T17:43:30.500Z</time><hdop>4.5</hdop><vdop>2.5</vdop><extensions><gom:speed>0.592</gom:speed></extensions></trkpt>
   <trkpt lat="59.0704141438" lon="30.021895396"><ele>104.742</ele><time>2026-04-20T17:43:31.075Z</time><hdop>4.5</hdop><vdop>2.5</vdop><extensions><gom:speed>0.565</gom:speed></extensions></trkpt>
   <trkpt lat="59.0704186281" lon="30.021894474"><ele>104.537</ele><time>2026-04-20T17:43:32.075Z</time><hdop>4.375</hdop><vdop>2.5</vdop><extensions><gom:speed>0.555</gom:speed></extensions></trkpt>
   <trkpt lat="59.0704215199" lon="30.0218936358"><ele>104.414</ele><time>2026-04-20T17:43:32.642Z</time><hdop>4.375</hdop><vdop>2.5</vdop><extensions><gom:speed>0.579</gom:speed></extensions></trkpt>
   <trkpt lat="59.0704264233" lon="30.0218922109"><ele>104.501</ele><time>2026-04-20T17:43:33.638Z</time><hdop>4.25</hdop><vdop>2.5</vdop><extensions><gom:speed>0.595</gom:speed></extensions></trkpt>
   <trkpt lat="59.0704296503" lon="30.0218891096"><ele>104.427</ele><time>2026-04-20T17:43:34.595Z</time><hdop>4.25</hdop><vdop>2.5</vdop><extensions><gom:speed>0.545</gom:speed></extensions></trkpt>
   <trkpt lat="59.07043074" lon="30.0218868465"><ele>104.594</ele><time>2026-04-20T17:43:35.075Z</time><hdop>4.25</hdop><vdop>2.5</vdop><extensions><gom:speed>0.536</gom:speed></extensions></trkpt>
   <trkpt lat="59.0704325421" lon="30.0218835775"><ele>104.693</ele><time>2026-04-20T17:43:35.533Z</time><hdop>4.25</hdop><vdop>2.5</vdop><extensions><gom:speed>0.576</gom:speed></extensions></trkpt>
   <trkpt lat="59.0704345537" lon="30.0218765367"><ele>104.873</ele><time>2026-04-20T17:43:36.076Z</time><hdop>4.25</hdop><vdop>2.5</vdop><extensions><gom:speed>0.565</gom:speed></extensions></trkpt>
   <trkpt lat="59.0704361463" lon="30.0218702503"><ele>105.034</ele><time>2026-04-20T17:43:37.075Z</time><hdop>4.25</hdop><vdop>2.5</vdop><extensions><gom:speed>0.507</gom:speed></extensions></trkpt>
   <trkpt lat="59.0704388285" lon="30.0218638801"><ele>105.033</ele><time>2026-04-20T17:43:38.075Z</time><hdop>4.25</hdop><vdop>2.5</vdop><extensions><gom:speed>0.505</gom:speed></extensions></trkpt>
   <trkpt lat="59.0704428518" lon="30.0218578451"><ele>104.981</ele><time>2026-04-20T17:43:39.075Z</time><hdop>4.125</hdop><vdop>2.5</vdop><extensions><gom:speed>0.512</gom:speed></extensions></trkpt>
   <trkpt lat="59.0704477552" lon="30.0218535703"><ele>104.658</ele><time>2026-04-20T17:43:40.075Z</time><hdop>4.125</hdop><vdop>2.5</vdop><extensions><gom:speed>0.521</gom:speed></extensions></trkpt>
   <trkpt lat="59.0704524491" lon="30.0218520616"><ele>104.686</ele><time>2026-04-20T17:43:41.075Z</time><hdop>4.125</hdop><vdop>2.5</vdop><extensions><gom:speed>0.486</gom:speed></extensions></trkpt>
   <trkpt lat="59.070457143" lon="30.0218510557"><ele>104.711</ele><time>2026-04-20T17:43:42.075Z</time><hdop>4.125</hdop><vdop>2.5</vdop><extensions><gom:speed>0.468</gom:speed></extensions></trkpt>
   <trkpt lat="59.0704628427" lon="30.0218463619"><ele>104.951</ele><time>2026-04-20T17:43:43.075Z</time><hdop>4.125</hdop><vdop>2.5</vdop><extensions><gom:speed>0.503</gom:speed></extensions></trkpt>
   <trkpt lat="59.0704679556" lon="30.0218400755"><ele>104.926</ele><time>2026-04-20T17:43:44.075Z</time><hdop>4.125</hdop><vdop>2.5</vdop><extensions><gom:speed>0.531</gom:speed></extensions></trkpt>
   <trkpt lat="59.0704734458" lon="30.0218352978"><ele>104.929</ele><time>2026-04-20T17:43:45.075Z</time><hdop>4.125</hdop><vdop>2.5</vdop><extensions><gom:speed>0.501</gom:speed></extensions></trkpt>
   <trkpt lat="59.0704778463" lon="30.0218266644"><ele>104.742</ele><time>2026-04-20T17:43:46.075Z</time><hdop>4.125</hdop><vdop>2.5</vdop><extensions><gom:speed>0.55</gom:speed></extensions></trkpt>
   <trkpt lat="59.0704813248" lon="30.0218159356"><ele>105.028</ele><time>2026-04-20T17:43:47.075Z</time><hdop>4.25</hdop><vdop>2.5</vdop><extensions><gom:speed>0.536</gom:speed></extensions></trkpt>
   <trkpt lat="59.0704847194" lon="30.0218084757"><ele>105.254</ele><time>2026-04-20T17:43:48.075Z</time><hdop>4.25</hdop><vdop>2.5</vdop><extensions><gom:speed>0.465</gom:speed></extensions></trkpt>
   <trkpt lat="59.0704879465" lon="30.0218038656"><ele>105.39</ele><time>2026-04-20T17:43:48.819Z</time><hdop>4.25</hdop><vdop>2.5</vdop><extensions><gom:speed>0.431</gom:speed></extensions></trkpt>
   <trkpt lat="59.0704921374" lon="30.0218010158"><ele>105.608</ele><time>2026-04-20T17:43:49.817Z</time><hdop>4.375</hdop><vdop>5.5</vdop><extensions><gom:speed>0.452</gom:speed></extensions></trkpt>
   <trkpt lat="59.0704942329" lon="30.0218021054"><ele>105.591</ele><time>2026-04-20T17:43:50.797Z</time><hdop>4.5</hdop><vdop>5.25</vdop><extensions><gom:speed>0.31</gom:speed></extensions></trkpt>
   <trkpt lat="59.0704949454" lon="30.0218029436"><ele>105.56</ele><time>2026-04-20T17:43:51.499Z</time><hdop>4.625</hdop><vdop>5.125</vdop><extensions><gom:speed>0.23</gom:speed></extensions></trkpt>
   <trkpt lat="59.0704965379" lon="30.0218039494"><ele>105.664</ele><time>2026-04-20T17:43:52.543Z</time><hdop>4.75</hdop><vdop>5.125</vdop><extensions><gom:speed>0.238</gom:speed></extensions></trkpt>
   <trkpt lat="59.0704986334" lon="30.0218039494"><ele>105.882</ele><time>2026-04-20T17:43:53.075Z</time><hdop>4.75</hdop><vdop>5.0</vdop><extensions><gom:speed>0.239</gom:speed></extensions></trkpt>
   <trkpt lat="59.0705032434" lon="30.021803698"><ele>106.031</ele><time>2026-04-20T17:43:54.076Z</time><hdop>4.875</hdop><vdop>5.0</vdop><extensions><gom:speed>0.266</gom:speed></extensions></trkpt>
   <trkpt lat="59.0705064286" lon="30.0218026083"><ele>106.12</ele><time>2026-04-20T17:43:54.861Z</time><hdop>5.0</hdop><vdop>5.0</vdop><extensions><gom:speed>0.283</gom:speed></extensions></trkpt>
   <trkpt lat="59.0705101166" lon="30.0218008481"><ele>106.053</ele><time>2026-04-20T17:43:55.701Z</time><hdop>5.0</hdop><vdop>4.75</vdop><extensions><gom:speed>0.417</gom:speed></extensions></trkpt>
   <trkpt lat="59.0705165288" lon="30.0218002614"><ele>105.912</ele><time>2026-04-20T17:43:56.638Z</time><hdop>5.125</hdop><vdop>4.625</vdop><extensions><gom:speed>0.473</gom:speed></extensions></trkpt>
   <trkpt lat="59.0705223542" lon="30.0218010158"><ele>105.769</ele><time>2026-04-20T17:43:57.517Z</time><hdop>5.25</hdop><vdop>4.5</vdop><extensions><gom:speed>0.575</gom:speed></extensions></trkpt>
   <trkpt lat="59.0705255393" lon="30.0218040333"><ele>105.681</ele><time>2026-04-20T17:43:58.076Z</time><hdop>5.25</hdop><vdop>4.375</vdop><extensions><gom:speed>0.55</gom:speed></extensions></trkpt>
   <trkpt lat="59.070528934" lon="30.0218059611"><ele>105.628</ele><time>2026-04-20T17:43:58.553Z</time><hdop>5.375</hdop><vdop>4.375</vdop><extensions><gom:speed>0.6</gom:speed></extensions></trkpt>
   <trkpt lat="59.0705351366" lon="30.0218076375"><ele>105.529</ele><time>2026-04-20T17:43:59.520Z</time><hdop>5.5</hdop><vdop>4.375</vdop><extensions><gom:speed>0.61</gom:speed></extensions></trkpt>
   <trkpt lat="59.0705384474" lon="30.0218075537"><ele>105.505</ele><time>2026-04-20T17:44:00.002Z</time><hdop>5.625</hdop><vdop>4.375</vdop><extensions><gom:speed>0.614</gom:speed></extensions></trkpt>
   <trkpt lat="59.0705412554" lon="30.0218060449"><ele>105.491</ele><time>2026-04-20T17:44:00.593Z</time><hdop>5.75</hdop><vdop>4.375</vdop><extensions><gom:speed>0.618</gom:speed></extensions></trkpt>
   <trkpt lat="59.070544231" lon="30.0218045362"><ele>105.444</ele><time>2026-04-20T17:44:01.075Z</time><hdop>5.75</hdop><vdop>4.5</vdop><extensions><gom:speed>0.58</gom:speed></extensions></trkpt>
   <trkpt lat="59.0705470389" lon="30.0218010996"><ele>105.422</ele><time>2026-04-20T17:44:02.015Z</time><hdop>5.875</hdop><vdop>4.625</vdop><extensions><gom:speed>0.592</gom:speed></extensions></trkpt>
   <trkpt lat="59.0705520261" lon="30.0217933044"><ele>105.409</ele><time>2026-04-20T17:44:03.055Z</time><hdop>6.0</hdop><vdop>4.625</vdop><extensions><gom:speed>0.67</gom:speed></extensions></trkpt>
   <trkpt lat="59.0705581449" lon="30.0217829947"><ele>105.447</ele><time>2026-04-20T17:44:04.022Z</time><hdop>6.25</hdop><vdop>4.625</vdop><extensions><gom:speed>0.742</gom:speed></extensions></trkpt>
   <trkpt lat="59.0705637189" lon="30.0217734393"><ele>105.447</ele><time>2026-04-20T17:44:04.841Z</time><hdop>6.375</hdop><vdop>4.625</vdop><extensions><gom:speed>0.757</gom:speed></extensions></trkpt>
   <trkpt lat="59.0705705501" lon="30.0217653089"><ele>105.415</ele><time>2026-04-20T17:44:05.896Z</time><hdop>6.625</hdop><vdop>4.375</vdop><extensions><gom:speed>0.735</gom:speed></extensions></trkpt>
   <trkpt lat="59.0705771299" lon="30.0217618723"><ele>105.378</ele><time>2026-04-20T17:44:06.797Z</time><hdop>7.0</hdop><vdop>4.25</vdop><extensions><gom:speed>0.713</gom:speed></extensions></trkpt>
   <trkpt lat="59.0705823267" lon="30.0217565917"><ele>105.361</ele><time>2026-04-20T17:44:07.635Z</time><hdop>7.375</hdop><vdop>4.125</vdop><extensions><gom:speed>0.656</gom:speed></extensions></trkpt>
   <trkpt lat="59.0705869367" lon="30.0217482936"><ele>105.361</ele><time>2026-04-20T17:44:08.743Z</time><hdop>7.5</hdop><vdop>4.125</vdop><extensions><gom:speed>0.618</gom:speed></extensions></trkpt>
   <trkpt lat="59.0705835421" lon="30.0217589386"><ele>105.363</ele><time>2026-04-20T17:44:09.776Z</time><hdop>7.625</hdop><vdop>4.0</vdop><extensions><gom:speed>0.531</gom:speed></extensions></trkpt>
   <trkpt lat="59.0705856376" lon="30.0217576813"><ele>105.364</ele><time>2026-04-20T17:44:10.716Z</time><hdop>7.625</hdop><vdop>4.0</vdop><extensions><gom:speed>0.595</gom:speed></extensions></trkpt>
   <trkpt lat="59.0705902476" lon="30.0217518978"><ele>105.363</ele><time>2026-04-20T17:44:11.593Z</time><hdop>7.75</hdop><vdop>3.875</vdop><extensions><gom:speed>0.652</gom:speed></extensions></trkpt>
   <trkpt lat="59.070587733" lon="30.0217582681"><ele>105.361</ele><time>2026-04-20T17:44:12.076Z</time><hdop>7.625</hdop><vdop>3.75</vdop><extensions><gom:speed>0.606</gom:speed></extensions></trkpt>
   <trkpt lat="59.0705881521" lon="30.0217618723"><ele>105.36</ele><time>2026-04-20T17:44:13.031Z</time><hdop>7.5</hdop><vdop>3.75</vdop><extensions><gom:speed>0.639</gom:speed></extensions></trkpt>
   <trkpt lat="59.0705870206" lon="30.0217729364"><ele>105.365</ele><time>2026-04-20T17:44:14.061Z</time><hdop>7.125</hdop><vdop>3.625</vdop><extensions><gom:speed>0.54</gom:speed></extensions></trkpt>
   <trkpt lat="59.070576627" lon="30.0217881915"><ele>105.349</ele><time>2026-04-20T17:44:15.075Z</time><hdop>6.875</hdop><vdop>3.75</vdop><extensions><gom:speed>0.407</gom:speed></extensions></trkpt>
   <trkpt lat="59.0705746573" lon="30.0217897002"><ele>105.34</ele><time>2026-04-20T17:44:15.778Z</time><hdop>6.625</hdop><vdop>3.75</vdop><extensions><gom:speed>0.364</gom:speed></extensions></trkpt>
   <trkpt lat="59.0705699215" lon="30.0217931368"><ele>105.334</ele><time>2026-04-20T17:44:16.738Z</time><hdop>6.25</hdop><vdop>3.75</vdop><extensions><gom:speed>0.366</gom:speed></extensions></trkpt>
   <trkpt lat="59.0705694186" lon="30.0217922986"><ele>105.329</ele><time>2026-04-20T17:44:17.764Z</time><hdop>5.75</hdop><vdop>3.125</vdop><extensions><gom:speed>0.364</gom:speed></extensions></trkpt>
   <trkpt lat="59.0705733162" lon="30.0217892811"><ele>104.227</ele><time>2026-04-20T17:44:18.454Z</time><hdop>5.5</hdop><vdop>3.0</vdop><extensions><gom:speed>0.417</gom:speed></extensions></trkpt>
   <trkpt lat="59.0705790578" lon="30.0217872695"><ele>103.323</ele><time>2026-04-20T17:44:19.075Z</time><hdop>5.375</hdop><vdop>2.75</vdop><extensions><gom:speed>0.429</gom:speed></extensions></trkpt>
   <trkpt lat="59.0705860566" lon="30.0217817374"><ele>102.782</ele><time>2026-04-20T17:44:19.993Z</time><hdop>5.125</hdop><vdop>2.75</vdop><extensions><gom:speed>0.508</gom:speed></extensions></trkpt>
   <trkpt lat="59.0705966178" lon="30.0217762892"><ele>103.073</ele><time>2026-04-20T17:44:20.941Z</time><hdop>5.0</hdop><vdop>2.625</vdop><extensions><gom:speed>0.651</gom:speed></extensions></trkpt>
   <trkpt lat="59.0706176564" lon="30.0217753672"><ele>103.066</ele><time>2026-04-20T17:44:22.075Z</time><hdop>4.875</hdop><vdop>4.5</vdop><extensions><gom:speed>0.687</gom:speed></extensions></trkpt>
   <trkpt lat="59.0706279243" lon="30.0217774626"><ele>103.063</ele><time>2026-04-20T17:44:23.014Z</time><hdop>4.625</hdop><vdop>4.5</vdop><extensions><gom:speed>0.743</gom:speed></extensions></trkpt>
   <trkpt lat="59.0706435565" lon="30.021784252"><ele>102.852</ele><time>2026-04-20T17:44:24.075Z</time><hdop>4.5</hdop><vdop>4.25</vdop><extensions><gom:speed>0.65</gom:speed></extensions></trkpt>
   <trkpt lat="59.0706508488" lon="30.0217840005"><ele>102.726</ele><time>2026-04-20T17:44:24.978Z</time><hdop>4.375</hdop><vdop>4.25</vdop><extensions><gom:speed>0.628</gom:speed></extensions></trkpt>
   <trkpt lat="59.0706619548" lon="30.021780061"><ele>102.619</ele><time>2026-04-20T17:44:25.837Z</time><hdop>4.25</hdop><vdop>4.375</vdop><extensions><gom:speed>0.663</gom:speed></extensions></trkpt>
   <trkpt lat="59.0706700433" lon="30.0217777979"><ele>102.347</ele><time>2026-04-20T17:44:26.696Z</time><hdop>4.25</hdop><vdop>4.375</vdop><extensions><gom:speed>0.7</gom:speed></extensions></trkpt>
   <trkpt lat="59.0706756173" lon="30.0217705895"><ele>102.173</ele><time>2026-04-20T17:44:27.615Z</time><hdop>4.375</hdop><vdop>4.25</vdop><extensions><gom:speed>0.699</gom:speed></extensions></trkpt>
   <trkpt lat="59.0706806464" lon="30.0217698351"><ele>101.877</ele><time>2026-04-20T17:44:28.075Z</time><hdop>4.375</hdop><vdop>4.25</vdop><extensions><gom:speed>0.702</gom:speed></extensions></trkpt>
   <trkpt lat="59.0706860528" lon="30.02176665"><ele>101.701</ele><time>2026-04-20T17:44:28.720Z</time><hdop>4.5</hdop><vdop>4.25</vdop><extensions><gom:speed>0.71</gom:speed></extensions></trkpt>
   <trkpt lat="59.0706944347" lon="30.0217684102"><ele>101.808</ele><time>2026-04-20T17:44:29.381Z</time><hdop>4.625</hdop><vdop>4.125</vdop><extensions><gom:speed>0.703</gom:speed></extensions></trkpt>
   <trkpt lat="59.0707027327" lon="30.0217689131"><ele>101.888</ele><time>2026-04-20T17:44:30.075Z</time><hdop>4.75</hdop><vdop>4.125</vdop><extensions><gom:speed>0.738</gom:speed></extensions></trkpt>
   <trkpt lat="59.0707113242" lon="30.0217684102"><ele>101.935</ele><time>2026-04-20T17:44:31.059Z</time><hdop>4.875</hdop><vdop>4.125</vdop><extensions><gom:speed>0.729</gom:speed></extensions></trkpt>
   <trkpt lat="59.0707144255" lon="30.0217710924"><ele>101.941</ele><time>2026-04-20T17:44:31.510Z</time><hdop>4.875</hdop><vdop>4.125</vdop><extensions><gom:speed>0.718</gom:speed></extensions></trkpt>
   <trkpt lat="59.0707226398" lon="30.021775451"><ele>101.945</ele><time>2026-04-20T17:44:32.018Z</time><hdop>5.0</hdop><vdop>4.125</vdop><extensions><gom:speed>0.738</gom:speed></extensions></trkpt>
   <trkpt lat="59.070729932" lon="30.0217810669"><ele>102.001</ele><time>2026-04-20T17:44:33.072Z</time><hdop>5.0</hdop><vdop>4.0</vdop><extensions><gom:speed>0.718</gom:speed></extensions></trkpt>
   <trkpt lat="59.0707362184" lon="30.0217848387"><ele>101.945</ele><time>2026-04-20T17:44:33.997Z</time><hdop>5.125</hdop><vdop>4.375</vdop><extensions><gom:speed>0.649</gom:speed></extensions></trkpt>
   <trkpt lat="59.0707400322" lon="30.0217887782"><ele>101.98</ele><time>2026-04-20T17:44:34.945Z</time><hdop>5.125</hdop><vdop>4.375</vdop><extensions><gom:speed>0.577</gom:speed></extensions></trkpt>
   <trkpt lat="59.0707431335" lon="30.0217902869"><ele>102.001</ele><time>2026-04-20T17:44:35.639Z</time><hdop>5.25</hdop><vdop>4.375</vdop><extensions><gom:speed>0.559</gom:speed></extensions></trkpt>
   <trkpt lat="59.0707474502" lon="30.021789784"><ele>101.979</ele><time>2026-04-20T17:44:36.597Z</time><hdop>5.25</hdop><vdop>4.25</vdop><extensions><gom:speed>0.553</gom:speed></extensions></trkpt>
   <trkpt lat="59.0707490428" lon="30.0217891973"><ele>101.988</ele><time>2026-04-20T17:44:37.075Z</time><hdop>5.25</hdop><vdop>4.25</vdop><extensions><gom:speed>0.524</gom:speed></extensions></trkpt>
   <trkpt lat="59.070751725" lon="30.021788862"><ele>101.994</ele><time>2026-04-20T17:44:37.633Z</time><hdop>5.375</hdop><vdop>4.25</vdop><extensions><gom:speed>0.538</gom:speed></extensions></trkpt>
   <trkpt lat="59.0707555387" lon="30.0217866827"><ele>102.012</ele><time>2026-04-20T17:44:38.972Z</time><hdop>5.375</hdop><vdop>4.5</vdop><extensions><gom:speed>0.381</gom:speed></extensions></trkpt>
   <trkpt lat="59.0707558321" lon="30.021786096"><ele>102.019</ele><time>2026-04-20T17:44:40.038Z</time><hdop>5.375</hdop><vdop>4.625</vdop><extensions><gom:speed>0.305</gom:speed></extensions></trkpt>
   <trkpt lat="59.0707556225" lon="30.021785174"><ele>102.023</ele><time>2026-04-20T17:44:40.762Z</time><hdop>5.375</hdop><vdop>4.625</vdop><extensions><gom:speed>0.238</gom:speed></extensions></trkpt>
   <trkpt lat="59.0707551196" lon="30.0217838329"><ele>102.024</ele><time>2026-04-20T17:44:41.472Z</time><hdop>5.5</hdop><vdop>4.625</vdop><extensions><gom:speed>0.163</gom:speed></extensions></trkpt>
   <trkpt lat="59.0707555387" lon="30.0217836652"><ele>102.021</ele><time>2026-04-20T17:44:42.052Z</time><hdop>5.5</hdop><vdop>4.5</vdop><extensions><gom:speed>0.191</gom:speed></extensions></trkpt>
   <trkpt lat="59.0707550358" lon="30.0217830785"><ele>102.019</ele><time>2026-04-20T17:44:42.579Z</time><hdop>5.625</hdop><vdop>4.5</vdop><extensions><gom:speed>0.131</gom:speed></extensions></trkpt>
   <trkpt lat="59.0707545329" lon="30.0217829947"><ele>102.01</ele><time>2026-04-20T17:44:43.947Z</time><hdop>5.75</hdop><vdop>4.5</vdop><extensions><gom:speed>0.147</gom:speed></extensions></trkpt>
   <trkpt lat="59.0707548263" lon="30.0217845034"><ele>102.001</ele><time>2026-04-20T17:44:44.552Z</time><hdop>5.875</hdop><vdop>4.5</vdop><extensions><gom:speed>0.155</gom:speed></extensions></trkpt>
   <trkpt lat="59.0707553292" lon="30.0217848387"><ele>101.985</ele><time>2026-04-20T17:44:45.013Z</time><hdop>5.875</hdop><vdop>4.5</vdop><extensions><gom:speed>0.17</gom:speed></extensions></trkpt>
   <trkpt lat="59.0707564188" lon="30.021784252"><ele>101.976</ele><time>2026-04-20T17:44:45.915Z</time><hdop>6.0</hdop><vdop>4.5</vdop><extensions><gom:speed>0.2</gom:speed></extensions></trkpt>
   <trkpt lat="59.0707578438" lon="30.0217794743"><ele>101.572</ele><time>2026-04-20T17:44:46.852Z</time><hdop>6.0</hdop><vdop>3.875</vdop><extensions><gom:speed>0.267</gom:speed></extensions></trkpt>
   <trkpt lat="59.0707606517" lon="30.021773104"><ele>101.616</ele><time>2026-04-20T17:44:47.721Z</time><hdop>5.875</hdop><vdop>3.25</vdop><extensions><gom:speed>0.282</gom:speed></extensions></trkpt>
   <trkpt lat="59.0707694527" lon="30.0217612856"><ele>102.759</ele><time>2026-04-20T17:44:49.075Z</time><hdop>5.625</hdop><vdop>2.875</vdop><extensions><gom:speed>0.327</gom:speed></extensions></trkpt>
   <trkpt lat="59.0707729312" lon="30.0217575975"><ele>103.442</ele><time>2026-04-20T17:44:49.696Z</time><hdop>5.5</hdop><vdop>2.875</vdop><extensions><gom:speed>0.36</gom:speed></extensions></trkpt>
   <trkpt lat="59.0707832409" lon="30.0217526522"><ele>103.604</ele><time>2026-04-20T17:44:50.555Z</time><hdop>5.125</hdop><vdop>2.875</vdop><extensions><gom:speed>0.416</gom:speed></extensions></trkpt>
   <trkpt lat="59.0707879348" lon="30.0217506405"><ele>103.941</ele><time>2026-04-20T17:44:51.075Z</time><hdop>5.0</hdop><vdop>2.75</vdop><extensions><gom:speed>0.433</gom:speed></extensions></trkpt>
   <trkpt lat="59.0707941374" lon="30.0217487965"><ele>104.142</ele><time>2026-04-20T17:44:52.015Z</time><hdop>4.75</hdop><vdop>2.75</vdop><extensions><gom:speed>0.471</gom:speed></extensions></trkpt>
   <trkpt lat="59.0708014296" lon="30.0217433483"><ele>103.675</ele><time>2026-04-20T17:44:52.503Z</time><hdop>4.75</hdop><vdop>2.75</vdop><extensions><gom:speed>0.559</gom:speed></extensions></trkpt>
   <trkpt lat="59.0708079256" lon="30.0217354693"><ele>103.435</ele><time>2026-04-20T17:44:53.075Z</time><hdop>4.625</hdop><vdop>2.75</vdop><extensions><gom:speed>0.557</gom:speed></extensions></trkpt>
   <trkpt lat="59.0708180258" lon="30.0217215553"><ele>103.192</ele><time>2026-04-20T17:44:54.075Z</time><hdop>4.625</hdop><vdop>2.625</vdop><extensions><gom:speed>0.634</gom:speed></extensions></trkpt>
   <trkpt lat="59.0708249409" lon="30.0217094016"><ele>103.152</ele><time>2026-04-20T17:44:55.075Z</time><hdop>4.5</hdop><vdop>2.5</vdop><extensions><gom:speed>0.563</gom:speed></extensions></trkpt>
   <trkpt lat="59.0708317302" lon="30.0217006844"><ele>103.085</ele><time>2026-04-20T17:44:56.075Z</time><hdop>4.375</hdop><vdop>2.5</vdop><extensions><gom:speed>0.463</gom:speed></extensions></trkpt>
   <trkpt lat="59.0708384358" lon="30.0216966611"><ele>103.045</ele><time>2026-04-20T17:44:56.961Z</time><hdop>4.375</hdop><vdop>2.5</vdop><extensions><gom:speed>0.522</gom:speed></extensions></trkpt>
   <trkpt lat="59.0708452251" lon="30.0216966611"><ele>102.786</ele><time>2026-04-20T17:44:57.860Z</time><hdop>4.375</hdop><vdop>4.625</vdop><extensions><gom:speed>0.51</gom:speed></extensions></trkpt>
   <trkpt lat="59.0708528526" lon="30.0216985889"><ele>102.445</ele><time>2026-04-20T17:44:58.876Z</time><hdop>4.25</hdop><vdop>4.5</vdop><extensions><gom:speed>0.473</gom:speed></extensions></trkpt>
   <trkpt lat="59.0708591391" lon="30.0217011873"><ele>102.007</ele><time>2026-04-20T17:44:59.656Z</time><hdop>4.25</hdop><vdop>4.125</vdop><extensions><gom:speed>0.488</gom:speed></extensions></trkpt>
   <trkpt lat="59.0708668504" lon="30.021700852"><ele>101.916</ele><time>2026-04-20T17:45:00.593Z</time><hdop>4.25</hdop><vdop>4.0</vdop><extensions><gom:speed>0.518</gom:speed></extensions></trkpt>
   <trkpt lat="59.0708706223" lon="30.0216997624"><ele>101.736</ele><time>2026-04-20T17:45:01.076Z</time><hdop>4.25</hdop><vdop>3.875</vdop><extensions><gom:speed>0.509</gom:speed></extensions></trkpt>
   <trkpt lat="59.0708756514" lon="30.0216957391"><ele>101.548</ele><time>2026-04-20T17:45:02.076Z</time><hdop>4.25</hdop><vdop>3.875</vdop><extensions><gom:speed>0.462</gom:speed></extensions></trkpt>
   <trkpt lat="59.0708787527" lon="30.0216924701"><ele>101.607</ele><time>2026-04-20T17:45:03.075Z</time><hdop>4.125</hdop><vdop>3.75</vdop><extensions><gom:speed>0.361</gom:speed></extensions></trkpt>
   <trkpt lat="59.0708793394" lon="30.0216908776"><ele>101.643</ele><time>2026-04-20T17:45:03.554Z</time><hdop>4.125</hdop><vdop>3.75</vdop><extensions><gom:speed>0.352</gom:speed></extensions></trkpt>
   <trkpt lat="59.0708811415" lon="30.021690207"><ele>101.672</ele><time>2026-04-20T17:45:04.075Z</time><hdop>4.125</hdop><vdop>3.625</vdop><extensions><gom:speed>0.346</gom:speed></extensions></trkpt>
   <trkpt lat="59.0708826503" lon="30.0216873572"><ele>101.689</ele><time>2026-04-20T17:45:04.720Z</time><hdop>4.125</hdop><vdop>3.625</vdop><extensions><gom:speed>0.375</gom:speed></extensions></trkpt>
   <trkpt lat="59.0708858354" lon="30.0216847588"><ele>101.611</ele><time>2026-04-20T17:45:05.834Z</time><hdop>4.25</hdop><vdop>3.625</vdop><extensions><gom:speed>0.306</gom:speed></extensions></trkpt>
   <trkpt lat="59.0708893558" lon="30.0216853455"><ele>101.51</ele><time>2026-04-20T17:45:07.075Z</time><hdop>4.25</hdop><vdop>3.5</vdop><extensions><gom:speed>0.25</gom:speed></extensions></trkpt>
   <trkpt lat="59.0708926248" lon="30.0216888659"><ele>101.477</ele><time>2026-04-20T17:45:08.075Z</time><hdop>4.25</hdop><vdop>3.5</vdop><extensions><gom:speed>0.215</gom:speed></extensions></trkpt>
   <trkpt lat="59.0708928343" lon="30.0216907938"><ele>101.457</ele><time>2026-04-20T17:45:08.704Z</time><hdop>4.25</hdop><vdop>3.5</vdop><extensions><gom:speed>0.179</gom:speed></extensions></trkpt>
   <trkpt lat="59.0708951393" lon="30.0216959905"><ele>101.468</ele><time>2026-04-20T17:45:10.075Z</time><hdop>4.25</hdop><vdop>3.5</vdop><extensions><gom:speed>0.096</gom:speed></extensions></trkpt>
   <trkpt lat="59.0708946364" lon="30.0216972478"><ele>101.483</ele><time>2026-04-20T17:45:11.076Z</time><hdop>4.25</hdop><vdop>3.5</vdop><extensions><gom:speed>0.081</gom:speed></extensions></trkpt>
   <trkpt lat="59.0708959356" lon="30.0216982536"><ele>101.495</ele><time>2026-04-20T17:45:12.075Z</time><hdop>4.125</hdop><vdop>3.375</vdop><extensions><gom:speed>0.103</gom:speed></extensions></trkpt>
   <trkpt lat="59.0708973186" lon="30.0216985051"><ele>101.518</ele><time>2026-04-20T17:45:13.076Z</time><hdop>4.125</hdop><vdop>3.25</vdop><extensions><gom:speed>0.062</gom:speed></extensions></trkpt>
   <trkpt lat="59.0708993303" lon="30.0216986727"><ele>101.559</ele><time>2026-04-20T17:45:14.075Z</time><hdop>4.0</hdop><vdop>3.375</vdop><extensions><gom:speed>0.073</gom:speed></extensions></trkpt>
   <trkpt lat="59.0708995398" lon="30.021698086"><ele>101.583</ele><time>2026-04-20T17:45:14.864Z</time><hdop>4.0</hdop><vdop>3.375</vdop><extensions><gom:speed>0.064</gom:speed></extensions></trkpt>
   <trkpt lat="59.0709017191" lon="30.0216996786"><ele>101.61</ele><time>2026-04-20T17:45:16.075Z</time><hdop>3.875</hdop><vdop>3.625</vdop><extensions><gom:speed>0.103</gom:speed></extensions></trkpt>
   <trkpt lat="59.070902222" lon="30.0216991757"><ele>101.649</ele><time>2026-04-20T17:45:17.076Z</time><hdop>3.875</hdop><vdop>3.5</vdop><extensions><gom:speed>0.072</gom:speed></extensions></trkpt>
   <trkpt lat="59.0709024316" lon="30.0217000138"><ele>101.674</ele><time>2026-04-20T17:45:18.075Z</time><hdop>3.75</hdop><vdop>3.375</vdop><extensions><gom:speed>0.059</gom:speed></extensions></trkpt>
   <trkpt lat="59.070903144" lon="30.021700852"><ele>101.697</ele><time>2026-04-20T17:45:19.075Z</time><hdop>3.625</hdop><vdop>3.375</vdop><extensions><gom:speed>0.062</gom:speed></extensions></trkpt>
   <trkpt lat="59.0709037308" lon="30.0217018579"><ele>101.729</ele><time>2026-04-20T17:45:20.075Z</time><hdop>3.625</hdop><vdop>3.25</vdop><extensions><gom:speed>0.109</gom:speed></extensions></trkpt>
   <trkpt lat="59.0709051557" lon="30.0217033666"><ele>101.761</ele><time>2026-04-20T17:45:21.075Z</time><hdop>3.625</hdop><vdop>3.25</vdop><extensions><gom:speed>0.077</gom:speed></extensions></trkpt>
   <trkpt lat="59.0709065387" lon="30.0217054621"><ele>101.792</ele><time>2026-04-20T17:45:22.075Z</time><hdop>3.5</hdop><vdop>3.125</vdop><extensions><gom:speed>0.078</gom:speed></extensions></trkpt>
   <trkpt lat="59.0709069578" lon="30.0217063003"><ele>101.816</ele><time>2026-04-20T17:45:23.076Z</time><hdop>3.5</hdop><vdop>3.125</vdop><extensions><gom:speed>0.144</gom:speed></extensions></trkpt>
   <trkpt lat="59.0709081313" lon="30.0217066356"><ele>101.832</ele><time>2026-04-20T17:45:24.075Z</time><hdop>3.625</hdop><vdop>3.25</vdop><extensions><gom:speed>0.214</gom:speed></extensions></trkpt>
   <trkpt lat="59.0709100172" lon="30.0217069708"><ele>101.847</ele><time>2026-04-20T17:45:25.075Z</time><hdop>3.625</hdop><vdop>3.375</vdop><extensions><gom:speed>0.239</gom:speed></extensions></trkpt>
   <trkpt lat="59.0709115259" lon="30.0217088987"><ele>101.874</ele><time>2026-04-20T17:45:26.075Z</time><hdop>3.625</hdop><vdop>3.25</vdop><extensions><gom:speed>0.26</gom:speed></extensions></trkpt>
   <trkpt lat="59.0709131185" lon="30.021710575"><ele>101.892</ele><time>2026-04-20T17:45:27.075Z</time><hdop>3.625</hdop><vdop>3.25</vdop><extensions><gom:speed>0.297</gom:speed></extensions></trkpt>
   <trkpt lat="59.0709153397" lon="30.0217120838"><ele>101.917</ele><time>2026-04-20T17:45:28.075Z</time><hdop>3.625</hdop><vdop>3.375</vdop><extensions><gom:speed>0.315</gom:speed></extensions></trkpt>
   <trkpt lat="59.0709167227" lon="30.0217130058"><ele>101.935</ele><time>2026-04-20T17:45:29.075Z</time><hdop>3.75</hdop><vdop>3.5</vdop><extensions><gom:speed>0.347</gom:speed></extensions></trkpt>
   <trkpt lat="59.070918441" lon="30.0217136764"><ele>101.949</ele><time>2026-04-20T17:45:30.075Z</time><hdop>3.75</hdop><vdop>3.625</vdop><extensions><gom:speed>0.374</gom:speed></extensions></trkpt>
   <trkpt lat="59.0709201174" lon="30.0217143469"><ele>101.961</ele><time>2026-04-20T17:45:31.076Z</time><hdop>3.875</hdop><vdop>3.875</vdop><extensions><gom:speed>0.375</gom:speed></extensions></trkpt>
   <trkpt lat="59.0709213328" lon="30.0217159395"><ele>101.98</ele><time>2026-04-20T17:45:32.075Z</time><hdop>4.0</hdop><vdop>3.75</vdop><extensions><gom:speed>0.342</gom:speed></extensions></trkpt>
   <trkpt lat="59.0709221291" lon="30.0217168615"><ele>102.011</ele><time>2026-04-20T17:45:33.075Z</time><hdop>4.125</hdop><vdop>4.0</vdop><extensions><gom:speed>0.299</gom:speed></extensions></trkpt>
   <trkpt lat="59.0709227577" lon="30.0217183702"><ele>102.027</ele><time>2026-04-20T17:45:34.076Z</time><hdop>4.25</hdop><vdop>4.125</vdop><extensions><gom:speed>0.29</gom:speed></extensions></trkpt>
   <trkpt lat="59.0709232187" lon="30.021718957"><ele>102.04</ele><time>2026-04-20T17:45:35.075Z</time><hdop>4.375</hdop><vdop>4.0</vdop><extensions><gom:speed>0.294</gom:speed></extensions></trkpt>
   <trkpt lat="59.0709240569" lon="30.0217178673"><ele>102.051</ele><time>2026-04-20T17:45:36.075Z</time><hdop>4.5</hdop><vdop>4.125</vdop><extensions><gom:speed>0.314</gom:speed></extensions></trkpt>
   <trkpt lat="59.070924937" lon="30.0217174482"><ele>102.061</ele><time>2026-04-20T17:45:37.075Z</time><hdop>4.5</hdop><vdop>4.25</vdop><extensions><gom:speed>0.315</gom:speed></extensions></trkpt>
   <trkpt lat="59.0709256495" lon="30.0217187055"><ele>102.072</ele><time>2026-04-20T17:45:38.075Z</time><hdop>4.625</hdop><vdop>4.375</vdop><extensions><gom:speed>0.313</gom:speed></extensions></trkpt>
   <trkpt lat="59.0709262362" lon="30.0217203819"><ele>102.082</ele><time>2026-04-20T17:45:39.075Z</time><hdop>4.625</hdop><vdop>4.625</vdop><extensions><gom:speed>0.347</gom:speed></extensions></trkpt>
   <trkpt lat="59.0709264457" lon="30.0217204657"><ele>102.088</ele><time>2026-04-20T17:45:39.621Z</time><hdop>4.625</hdop><vdop>4.625</vdop><extensions><gom:speed>0.349</gom:speed></extensions></trkpt>
   <trkpt lat="59.0709281221" lon="30.0217213039"><ele>102.958</ele><time>2026-04-20T17:45:40.075Z</time><hdop>4.75</hdop><vdop>4.0</vdop><extensions><gom:speed>0.478</gom:speed></extensions></trkpt>
   <trkpt lat="59.0709308462" lon="30.0217221421"><ele>104.342</ele><time>2026-04-20T17:45:41.075Z</time><hdop>4.75</hdop><vdop>3.5</vdop><extensions><gom:speed>0.379</gom:speed></extensions></trkpt>
   <trkpt lat="59.0709335284" lon="30.0217223097"><ele>105.199</ele><time>2026-04-20T17:45:42.075Z</time><hdop>4.875</hdop><vdop>3.125</vdop><extensions><gom:speed>0.371</gom:speed></extensions></trkpt>
   <trkpt lat="59.0709366297" lon="30.0217230641"><ele>105.596</ele><time>2026-04-20T17:45:43.075Z</time><hdop>5.0</hdop><vdop>2.875</vdop><extensions><gom:speed>0.367</gom:speed></extensions></trkpt>
   <trkpt lat="59.0709404435" lon="30.0217233155"><ele>105.86</ele><time>2026-04-20T17:45:44.075Z</time><hdop>5.125</hdop><vdop>2.625</vdop><extensions><gom:speed>0.387</gom:speed></extensions></trkpt>
   <trkpt lat="59.0709446345" lon="30.0217244052"><ele>106.049</ele><time>2026-04-20T17:45:45.075Z</time><hdop>5.25</hdop><vdop>2.5</vdop><extensions><gom:speed>0.384</gom:speed></extensions></trkpt>
   <trkpt lat="59.0709454307" lon="30.021724489"><ele>106.162</ele><time>2026-04-20T17:45:45.780Z</time><hdop>5.375</hdop><vdop>2.5</vdop><extensions><gom:speed>0.384</gom:speed></extensions></trkpt>
   <trkpt lat="59.0709534355" lon="30.0217268359"><ele>105.863</ele><time>2026-04-20T17:45:47.075Z</time><hdop>5.5</hdop><vdop>2.5</vdop><extensions><gom:speed>0.356</gom:speed></extensions></trkpt>
   <trkpt lat="59.0709571235" lon="30.0217280094"><ele>105.717</ele><time>2026-04-20T17:45:48.075Z</time><hdop>5.625</hdop><vdop>2.5</vdop><extensions><gom:speed>0.347</gom:speed></extensions></trkpt>
   <trkpt lat="59.0709609373" lon="30.0217293505"><ele>105.666</ele><time>2026-04-20T17:45:49.075Z</time><hdop>5.625</hdop><vdop>4.875</vdop><extensions><gom:speed>0.308</gom:speed></extensions></trkpt>
   <trkpt lat="59.0709648349" lon="30.0217301887"><ele>105.5</ele><time>2026-04-20T17:45:50.076Z</time><hdop>5.625</hdop><vdop>4.625</vdop><extensions><gom:speed>0.287</gom:speed></extensions></trkpt>
   <trkpt lat="59.0709682295" lon="30.021731446"><ele>105.26</ele><time>2026-04-20T17:45:51.075Z</time><hdop>5.625</hdop><vdop>4.625</vdop><extensions><gom:speed>0.29</gom:speed></extensions></trkpt>
   <trkpt lat="59.0709690258" lon="30.0217318651"><ele>105.116</ele><time>2026-04-20T17:45:51.940Z</time><hdop>5.625</hdop><vdop>4.625</vdop><extensions><gom:speed>0.29</gom:speed></extensions></trkpt>
   <trkpt lat="59.0709750189" lon="30.0217347987"><ele>105.166</ele><time>2026-04-20T17:45:53.075Z</time><hdop>5.625</hdop><vdop>4.5</vdop><extensions><gom:speed>0.306</gom:speed></extensions></trkpt>
   <trkpt lat="59.0709776173" lon="30.021736978"><ele>105.136</ele><time>2026-04-20T17:45:54.075Z</time><hdop>5.625</hdop><vdop>4.375</vdop><extensions><gom:speed>0.293</gom:speed></extensions></trkpt>
   <trkpt lat="59.0709803414" lon="30.0217386544"><ele>104.984</ele><time>2026-04-20T17:45:55.075Z</time><hdop>5.5</hdop><vdop>4.125</vdop><extensions><gom:speed>0.297</gom:speed></extensions></trkpt>
   <trkpt lat="59.0709831493" lon="30.0217396603"><ele>104.742</ele><time>2026-04-20T17:45:56.075Z</time><hdop>5.5</hdop><vdop>3.75</vdop><extensions><gom:speed>0.295</gom:speed></extensions></trkpt>
   <trkpt lat="59.070985622" lon="30.0217404146"><ele>104.636</ele><time>2026-04-20T17:45:57.075Z</time><hdop>5.5</hdop><vdop>3.75</vdop><extensions><gom:speed>0.299</gom:speed></extensions></trkpt>
   <trkpt lat="59.0709878432" lon="30.0217406661"><ele>104.421</ele><time>2026-04-20T17:45:58.075Z</time><hdop>5.5</hdop><vdop>4.0</vdop><extensions><gom:speed>0.321</gom:speed></extensions></trkpt>
   <trkpt lat="59.0709904416" lon="30.0217396603"><ele>104.314</ele><time>2026-04-20T17:45:59.075Z</time><hdop>5.5</hdop><vdop>4.125</vdop><extensions><gom:speed>0.337</gom:speed></extensions></trkpt>
   <trkpt lat="59.0709922437" lon="30.0217401632"><ele>104.29</ele><time>2026-04-20T17:46:00.075Z</time><hdop>5.5</hdop><vdop>4.0</vdop><extensions><gom:speed>0.331</gom:speed></extensions></trkpt>
   <trkpt lat="59.0709940458" lon="30.0217415881"><ele>104.275</ele><time>2026-04-20T17:46:01.075Z</time><hdop>5.625</hdop><vdop>4.0</vdop><extensions><gom:speed>0.324</gom:speed></extensions></trkpt>
   <trkpt lat="59.0709969375" lon="30.0217437674"><ele>104.266</ele><time>2026-04-20T17:46:02.045Z</time><hdop>5.625</hdop><vdop>4.0</vdop><extensions><gom:speed>0.406</gom:speed></extensions></trkpt>
   <trkpt lat="59.0710008351" lon="30.0217458629"><ele>104.315</ele><time>2026-04-20T17:46:02.956Z</time><hdop>5.875</hdop><vdop>4.25</vdop><extensions><gom:speed>0.443</gom:speed></extensions></trkpt>
   <trkpt lat="59.0710025534" lon="30.0217461143"><ele>104.344</ele><time>2026-04-20T17:46:03.411Z</time><hdop>6.0</hdop><vdop>4.25</vdop><extensions><gom:speed>0.418</gom:speed></extensions></trkpt>
   <trkpt lat="59.0710051518" lon="30.021746282"><ele>104.36</ele><time>2026-04-20T17:46:04.022Z</time><hdop>6.125</hdop><vdop>4.375</vdop><extensions><gom:speed>0.415</gom:speed></extensions></trkpt>
   <trkpt lat="59.0710105162" lon="30.0217428454"><ele>104.369</ele><time>2026-04-20T17:46:05.012Z</time><hdop>6.625</hdop><vdop>4.375</vdop><extensions><gom:speed>0.467</gom:speed></extensions></trkpt>
   <trkpt lat="59.0710148329" lon="30.0217379839"><ele>104.372</ele><time>2026-04-20T17:46:06.019Z</time><hdop>7.0</hdop><vdop>4.5</vdop><extensions><gom:speed>0.529</gom:speed></extensions></trkpt>
   <trkpt lat="59.0710186467" lon="30.0217290152"><ele>104.383</ele><time>2026-04-20T17:46:06.977Z</time><hdop>7.5</hdop><vdop>4.5</vdop><extensions><gom:speed>0.567</gom:speed></extensions></trkpt>
   <trkpt lat="59.0710224185" lon="30.0217194599"><ele>104.393</ele><time>2026-04-20T17:46:08.013Z</time><hdop>7.875</hdop><vdop>4.25</vdop><extensions><gom:speed>0.567</gom:speed></extensions></trkpt>
   <trkpt lat="59.0710233405" lon="30.0217192084"><ele>104.377</ele><time>2026-04-20T17:46:09.075Z</time><hdop>8.25</hdop><vdop>4.125</vdop><extensions><gom:speed>0.54</gom:speed></extensions></trkpt>
   <trkpt lat="59.0710257294" lon="30.0217166938"><ele>104.367</ele><time>2026-04-20T17:46:10.058Z</time><hdop>8.375</hdop><vdop>4.125</vdop><extensions><gom:speed>0.554</gom:speed></extensions></trkpt>
   <trkpt lat="59.0710220413" lon="30.0217197951"><ele>104.341</ele><time>2026-04-20T17:46:10.537Z</time><hdop>8.125</hdop><vdop>4.0</vdop><extensions><gom:speed>0.531</gom:speed></extensions></trkpt>
   <trkpt lat="59.0710212451" lon="30.0217154366"><ele>102.773</ele><time>2026-04-20T17:46:11.075Z</time><hdop>7.875</hdop><vdop>3.125</vdop><extensions><gom:speed>0.532</gom:speed></extensions></trkpt>
   <trkpt lat="59.0710221252" lon="30.0217092339"><ele>101.836</ele><time>2026-04-20T17:46:11.833Z</time><hdop>7.75</hdop><vdop>3.125</vdop><extensions><gom:speed>0.62</gom:speed></extensions></trkpt>
   <trkpt lat="59.0710224185" lon="30.0217007682"><ele>101.172</ele><time>2026-04-20T17:46:12.593Z</time><hdop>7.25</hdop><vdop>2.5</vdop><extensions><gom:speed>0.648</gom:speed></extensions></trkpt>
   <trkpt lat="59.071024053" lon="30.0216949847"><ele>101.152</ele><time>2026-04-20T17:46:13.075Z</time><hdop>7.0</hdop><vdop>2.5</vdop><extensions><gom:speed>0.656</gom:speed></extensions></trkpt>
   <trkpt lat="59.0710302556" lon="30.0216888659"><ele>100.8</ele><time>2026-04-20T17:46:14.075Z</time><hdop>6.625</hdop><vdop>2.5</vdop><extensions><gom:speed>0.668</gom:speed></extensions></trkpt>
   <trkpt lat="59.0710373383" lon="30.0216886983"><ele>100.282</ele><time>2026-04-20T17:46:15.076Z</time><hdop>6.125</hdop><vdop>2.5</vdop><extensions><gom:speed>0.712</gom:speed></extensions></trkpt>
   <trkpt lat="59.0710450497" lon="30.021690207"><ele>99.973</ele><time>2026-04-20T17:46:15.921Z</time><hdop>5.875</hdop><vdop>2.5</vdop><extensions><gom:speed>0.821</gom:speed></extensions></trkpt>
   <trkpt lat="59.0710516295" lon="30.0216905423"><ele>99.454</ele><time>2026-04-20T17:46:16.601Z</time><hdop>5.75</hdop><vdop>2.5</vdop><extensions><gom:speed>0.869</gom:speed></extensions></trkpt>
   <trkpt lat="59.0710582512" lon="30.0216907099"><ele>98.85</ele><time>2026-04-20T17:46:17.075Z</time><hdop>5.75</hdop><vdop>2.5</vdop><extensions><gom:speed>0.848</gom:speed></extensions></trkpt>
   <trkpt lat="59.0710652501" lon="30.0216931407"><ele>98.368</ele><time>2026-04-20T17:46:18.075Z</time><hdop>5.625</hdop><vdop>2.5</vdop><extensions><gom:speed>0.879</gom:speed></extensions></trkpt>
   <trkpt lat="59.0710732548" lon="30.0216983375"><ele>98.268</ele><time>2026-04-20T17:46:19.075Z</time><hdop>5.5</hdop><vdop>2.5</vdop><extensions><gom:speed>0.866</gom:speed></extensions></trkpt>
   <trkpt lat="59.0710795412" lon="30.0217021093"><ele>97.926</ele><time>2026-04-20T17:46:20.075Z</time><hdop>5.5</hdop><vdop>2.5</vdop><extensions><gom:speed>0.743</gom:speed></extensions></trkpt>
   <trkpt lat="59.0710840255" lon="30.0217014388"><ele>97.752</ele><time>2026-04-20T17:46:21.075Z</time><hdop>5.25</hdop><vdop>4.75</vdop><extensions><gom:speed>0.634</gom:speed></extensions></trkpt>
   <trkpt lat="59.0710891385" lon="30.0216976669"><ele>97.649</ele><time>2026-04-20T17:46:21.982Z</time><hdop>5.25</hdop><vdop>4.75</vdop><extensions><gom:speed>0.669</gom:speed></extensions></trkpt>
   <trkpt lat="59.071093539" lon="30.0216997624"><ele>97.541</ele><time>2026-04-20T17:46:22.655Z</time><hdop>5.125</hdop><vdop>4.625</vdop><extensions><gom:speed>0.711</gom:speed></extensions></trkpt>
   <trkpt lat="59.0711016275" lon="30.0216996786"><ele>97.444</ele><time>2026-04-20T17:46:23.659Z</time><hdop>5.125</hdop><vdop>4.75</vdop><extensions><gom:speed>0.728</gom:speed></extensions></trkpt>
   <trkpt lat="59.0711063214" lon="30.0217016064"><ele>97.149</ele><time>2026-04-20T17:46:24.538Z</time><hdop>5.125</hdop><vdop>4.625</vdop><extensions><gom:speed>0.72</gom:speed></extensions></trkpt>
   <trkpt lat="59.0711095484" lon="30.0217012711"><ele>97.021</ele><time>2026-04-20T17:46:24.989Z</time><hdop>5.125</hdop><vdop>4.5</vdop><extensions><gom:speed>0.713</gom:speed></extensions></trkpt>
   <trkpt lat="59.071114829" lon="30.0217009359"><ele>96.944</ele><time>2026-04-20T17:46:25.921Z</time><hdop>5.125</hdop><vdop>4.5</vdop><extensions><gom:speed>0.666</gom:speed></extensions></trkpt>
   <trkpt lat="59.0711182237" lon="30.0217035342"><ele>96.99</ele><time>2026-04-20T17:46:26.878Z</time><hdop>5.25</hdop><vdop>4.125</vdop><extensions><gom:speed>0.614</gom:speed></extensions></trkpt>
   <trkpt lat="59.0711200258" lon="30.021705043"><ele>97.096</ele><time>2026-04-20T17:46:27.755Z</time><hdop>5.375</hdop><vdop>4.0</vdop><extensions><gom:speed>0.568</gom:speed></extensions></trkpt>
   <trkpt lat="59.0711219536" lon="30.0217049592"><ele>97.04</ele><time>2026-04-20T17:46:28.638Z</time><hdop>5.375</hdop><vdop>4.0</vdop><extensions><gom:speed>0.547</gom:speed></extensions></trkpt>
   <trkpt lat="59.0711238396" lon="30.0217026961"><ele>97.013</ele><time>2026-04-20T17:46:29.135Z</time><hdop>5.25</hdop><vdop>4.125</vdop><extensions><gom:speed>0.549</gom:speed></extensions></trkpt>
   <trkpt lat="59.0711283239" lon="30.0216949009"><ele>96.997</ele><time>2026-04-20T17:46:29.839Z</time><hdop>5.375</hdop><vdop>4.125</vdop><extensions><gom:speed>0.561</gom:speed></extensions></trkpt>
   <trkpt lat="59.0711292459" lon="30.0216938112"><ele>97.031</ele><time>2026-04-20T17:46:30.697Z</time><hdop>5.25</hdop><vdop>3.875</vdop><extensions><gom:speed>0.593</gom:speed></extensions></trkpt>
   <trkpt lat="59.0711311318" lon="30.0216886983"><ele>97.058</ele><time>2026-04-20T17:46:31.754Z</time><hdop>5.125</hdop><vdop>3.75</vdop><extensions><gom:speed>0.581</gom:speed></extensions></trkpt>
   <trkpt lat="59.071131048" lon="30.0216856808"><ele>97.131</ele><time>2026-04-20T17:46:32.514Z</time><hdop>5.0</hdop><vdop>3.625</vdop><extensions><gom:speed>0.595</gom:speed></extensions></trkpt>
   <trkpt lat="59.0711304193" lon="30.0216822442"><ele>97.166</ele><time>2026-04-20T17:46:33.075Z</time><hdop>5.0</hdop><vdop>3.375</vdop><extensions><gom:speed>0.571</gom:speed></extensions></trkpt>
   <trkpt lat="59.0711306289" lon="30.0216769636"><ele>97.192</ele><time>2026-04-20T17:46:34.076Z</time><hdop>4.875</hdop><vdop>3.5</vdop><extensions><gom:speed>0.52</gom:speed></extensions></trkpt>
   <trkpt lat="59.0711334368" lon="30.0216687494"><ele>97.208</ele><time>2026-04-20T17:46:35.060Z</time><hdop>4.75</hdop><vdop>3.5</vdop><extensions><gom:speed>0.582</gom:speed></extensions></trkpt>
   <trkpt lat="59.0711340236" lon="30.0216680788"><ele>98.311</ele><time>2026-04-20T17:46:35.650Z</time><hdop>4.75</hdop><vdop>2.875</vdop><extensions><gom:speed>0.592</gom:speed></extensions></trkpt>
   <trkpt lat="59.0711434532" lon="30.021656847"><ele>98.616</ele><time>2026-04-20T17:46:36.877Z</time><hdop>4.75</hdop><vdop>2.625</vdop><extensions><gom:speed>0.679</gom:speed></extensions></trkpt>
   <trkpt lat="59.0711488176" lon="30.0216548354"><ele>99.36</ele><time>2026-04-20T17:46:37.559Z</time><hdop>4.75</hdop><vdop>2.5</vdop><extensions><gom:speed>0.635</gom:speed></extensions></trkpt>
   <trkpt lat="59.0711536372" lon="30.021653159"><ele>100.559</ele><time>2026-04-20T17:46:38.075Z</time><hdop>4.75</hdop><vdop>2.5</vdop><extensions><gom:speed>0.637</gom:speed></extensions></trkpt>
   <trkpt lat="59.0711617258" lon="30.021648046"><ele>101.627</ele><time>2026-04-20T17:46:39.075Z</time><hdop>4.75</hdop><vdop>2.625</vdop><extensions><gom:speed>0.615</gom:speed></extensions></trkpt>
   <trkpt lat="59.0711705268" lon="30.0216375687"><ele>102.196</ele><time>2026-04-20T17:46:40.076Z</time><hdop>4.75</hdop><vdop>2.5</vdop><extensions><gom:speed>0.632</gom:speed></extensions></trkpt>
   <trkpt lat="59.0711775256" lon="30.0216280133"><ele>102.536</ele><time>2026-04-20T17:46:41.032Z</time><hdop>4.75</hdop><vdop>2.5</vdop><extensions><gom:speed>0.685</gom:speed></extensions></trkpt>
   <trkpt lat="59.0711872487" lon="30.0216182065"><ele>102.823</ele><time>2026-04-20T17:46:41.861Z</time><hdop>4.75</hdop><vdop>4.375</vdop><extensions><gom:speed>0.69</gom:speed></extensions></trkpt>
   <trkpt lat="59.0712008273" lon="30.0216097408"><ele>103.097</ele><time>2026-04-20T17:46:42.720Z</time><hdop>4.625</hdop><vdop>4.375</vdop><extensions><gom:speed>0.738</gom:speed></extensions></trkpt>
   <trkpt lat="59.0712103408" lon="30.0216092378"><ele>103.165</ele><time>2026-04-20T17:46:43.480Z</time><hdop>4.625</hdop><vdop>4.25</vdop><extensions><gom:speed>0.781</gom:speed></extensions></trkpt>
   <trkpt lat="59.0712174235" lon="30.0216117524"><ele>103.02</ele><time>2026-04-20T17:46:44.076Z</time><hdop>4.625</hdop><vdop>4.125</vdop><extensions><gom:speed>0.753</gom:speed></extensions></trkpt>
   <trkpt lat="59.0712266436" lon="30.0216174521"><ele>102.899</ele><time>2026-04-20T17:46:45.075Z</time><hdop>4.625</hdop><vdop>4.125</vdop><extensions><gom:speed>0.658</gom:speed></extensions></trkpt>
   <trkpt lat="59.07123293" lon="30.0216244091"><ele>102.631</ele><time>2026-04-20T17:46:46.075Z</time><hdop>4.5</hdop><vdop>4.0</vdop><extensions><gom:speed>0.569</gom:speed></extensions></trkpt>
   <trkpt lat="59.071238043" lon="30.0216283486"><ele>102.513</ele><time>2026-04-20T17:46:47.075Z</time><hdop>4.375</hdop><vdop>3.875</vdop><extensions><gom:speed>0.462</gom:speed></extensions></trkpt>
   <trkpt lat="59.0712429464" lon="30.0216297735"><ele>102.443</ele><time>2026-04-20T17:46:47.963Z</time><hdop>4.375</hdop><vdop>3.875</vdop><extensions><gom:speed>0.502</gom:speed></extensions></trkpt>
   <trkpt lat="59.0712509511" lon="30.0216299411"><ele>102.523</ele><time>2026-04-20T17:46:48.840Z</time><hdop>4.25</hdop><vdop>3.875</vdop><extensions><gom:speed>0.546</gom:speed></extensions></trkpt>
   <trkpt lat="59.0712561479" lon="30.0216280133"><ele>102.689</ele><time>2026-04-20T17:46:49.641Z</time><hdop>4.25</hdop><vdop>3.875</vdop><extensions><gom:speed>0.591</gom:speed></extensions></trkpt>
   <trkpt lat="59.0712620571" lon="30.02162399"><ele>102.949</ele><time>2026-04-20T17:46:50.459Z</time><hdop>4.125</hdop><vdop>3.875</vdop><extensions><gom:speed>0.631</gom:speed></extensions></trkpt>
   <trkpt lat="59.0712659547" lon="30.0216209725"><ele>103.002</ele><time>2026-04-20T17:46:51.075Z</time><hdop>4.25</hdop><vdop>4.0</vdop><extensions><gom:speed>0.602</gom:speed></extensions></trkpt>
   <trkpt lat="59.0712727441" lon="30.0216174521"><ele>103.113</ele><time>2026-04-20T17:46:52.075Z</time><hdop>4.25</hdop><vdop>4.125</vdop><extensions><gom:speed>0.631</gom:speed></extensions></trkpt>
   <trkpt lat="59.0712796172" lon="30.0216146861"><ele>103.145</ele><time>2026-04-20T17:46:53.075Z</time><hdop>4.25</hdop><vdop>4.25</vdop><extensions><gom:speed>0.665</gom:speed></extensions></trkpt>
   <trkpt lat="59.0712854426" lon="30.0216095731"><ele>103.165</ele><time>2026-04-20T17:46:53.974Z</time><hdop>4.375</hdop><vdop>4.25</vdop><extensions><gom:speed>0.679</gom:speed></extensions></trkpt>
   <trkpt lat="59.0712911423" lon="30.0216056336"><ele>103.204</ele><time>2026-04-20T17:46:54.793Z</time><hdop>4.375</hdop><vdop>4.25</vdop><extensions><gom:speed>0.672</gom:speed></extensions></trkpt>
   <trkpt lat="59.0712951237" lon="30.0216085673"><ele>103.198</ele><time>2026-04-20T17:46:55.707Z</time><hdop>4.5</hdop><vdop>4.125</vdop><extensions><gom:speed>0.713</gom:speed></extensions></trkpt>
   <trkpt lat="59.0712989375" lon="30.0216149375"><ele>103.163</ele><time>2026-04-20T17:46:56.520Z</time><hdop>4.5</hdop><vdop>4.0</vdop><extensions><gom:speed>0.726</gom:speed></extensions></trkpt>
   <trkpt lat="59.071301033" lon="30.0216187094"><ele>103.127</ele><time>2026-04-20T17:46:57.075Z</time><hdop>4.5</hdop><vdop>4.125</vdop><extensions><gom:speed>0.691</gom:speed></extensions></trkpt>
   <trkpt lat="59.0713041343" lon="30.0216203858"><ele>103.105</ele><time>2026-04-20T17:46:57.600Z</time><hdop>4.5</hdop><vdop>4.125</vdop><extensions><gom:speed>0.724</gom:speed></extensions></trkpt>
   <trkpt lat="59.0713055173" lon="30.0216213916"><ele>103.088</ele><time>2026-04-20T17:46:58.075Z</time><hdop>4.5</hdop><vdop>4.25</vdop><extensions><gom:speed>0.684</gom:speed></extensions></trkpt>
   <trkpt lat="59.0713108398" lon="30.0216214754"><ele>103.101</ele><time>2026-04-20T17:46:58.985Z</time><hdop>4.5</hdop><vdop>4.375</vdop><extensions><gom:speed>0.675</gom:speed></extensions></trkpt>
   <trkpt lat="59.0713156175" lon="30.0216198829"><ele>103.106</ele><time>2026-04-20T17:47:00.075Z</time><hdop>4.625</hdop><vdop>4.25</vdop><extensions><gom:speed>0.684</gom:speed></extensions></trkpt>
   <trkpt lat="59.0713168329" lon="30.0216194638"><ele>103.109</ele><time>2026-04-20T17:47:00.525Z</time><hdop>4.625</hdop><vdop>4.25</vdop><extensions><gom:speed>0.689</gom:speed></extensions></trkpt>
   <trkpt lat="59.0713191379" lon="30.0216184579"><ele>103.118</ele><time>2026-04-20T17:47:01.076Z</time><hdop>4.625</hdop><vdop>4.125</vdop><extensions><gom:speed>0.643</gom:speed></extensions></trkpt>
   <trkpt lat="59.0713197246" lon="30.0216187094"><ele>103.124</ele><time>2026-04-20T17:47:02.075Z</time><hdop>4.75</hdop><vdop>4.125</vdop><extensions><gom:speed>0.624</gom:speed></extensions></trkpt>
   <trkpt lat="59.0713210238" lon="30.0216190447"><ele>103.132</ele><time>2026-04-20T17:47:03.075Z</time><hdop>4.75</hdop><vdop>4.25</vdop><extensions><gom:speed>0.585</gom:speed></extensions></trkpt>
   <trkpt lat="59.0713258434" lon="30.0216200505"><ele>103.137</ele><time>2026-04-20T17:47:04.083Z</time><hdop>4.75</hdop><vdop>4.25</vdop><extensions><gom:speed>0.602</gom:speed></extensions></trkpt>
   <trkpt lat="59.0713284418" lon="30.0216240738"><ele>103.141</ele><time>2026-04-20T17:47:04.922Z</time><hdop>4.75</hdop><vdop>4.25</vdop><extensions><gom:speed>0.656</gom:speed></extensions></trkpt>
   <trkpt lat="59.0713286514" lon="30.0216291029"><ele>103.152</ele><time>2026-04-20T17:47:05.839Z</time><hdop>4.625</hdop><vdop>4.25</vdop><extensions><gom:speed>0.604</gom:speed></extensions></trkpt>
   <trkpt lat="59.0713268493" lon="30.0216313661"><ele>103.166</ele><time>2026-04-20T17:47:06.685Z</time><hdop>4.625</hdop><vdop>4.25</vdop><extensions><gom:speed>0.556</gom:speed></extensions></trkpt>
   <trkpt lat="59.0713294476" lon="30.0216348865"><ele>103.179</ele><time>2026-04-20T17:47:07.793Z</time><hdop>4.375</hdop><vdop>4.125</vdop><extensions><gom:speed>0.567</gom:speed></extensions></trkpt>
   <trkpt lat="59.0713299506" lon="30.021633713"><ele>100.69</ele><time>2026-04-20T17:47:09.075Z</time><hdop>4.25</hdop><vdop>3.5</vdop><extensions><gom:speed>0.54</gom:speed></extensions></trkpt>
   <trkpt lat="59.0713338481" lon="30.0216327072"><ele>99.203</ele><time>2026-04-20T17:47:10.015Z</time><hdop>4.125</hdop><vdop>3.5</vdop><extensions><gom:speed>0.513</gom:speed></extensions></trkpt>
   <trkpt lat="59.0713359436" lon="30.021632791"><ele>96.474</ele><time>2026-04-20T17:47:11.076Z</time><hdop>4.125</hdop><vdop>2.875</vdop><extensions><gom:speed>0.449</gom:speed></extensions></trkpt>
   <trkpt lat="59.0713389192" lon="30.0216342159"><ele>94.712</ele><time>2026-04-20T17:47:12.075Z</time><hdop>4.0</hdop><vdop>2.625</vdop><extensions><gom:speed>0.468</gom:speed></extensions></trkpt>
   <trkpt lat="59.0713410566" lon="30.0216342997"><ele>93.659</ele><time>2026-04-20T17:47:12.844Z</time><hdop>4.125</hdop><vdop>2.625</vdop><extensions><gom:speed>0.485</gom:speed></extensions></trkpt>
   <trkpt lat="59.0713469239" lon="30.0216356408"><ele>93.022</ele><time>2026-04-20T17:47:13.578Z</time><hdop>4.125</hdop><vdop>4.125</vdop><extensions><gom:speed>0.5</gom:speed></extensions></trkpt>
   <trkpt lat="59.0713503186" lon="30.0216365628"><ele>93.1</ele><time>2026-04-20T17:47:14.075Z</time><hdop>4.125</hdop><vdop>4.375</vdop><extensions><gom:speed>0.49</gom:speed></extensions></trkpt>
   <trkpt lat="59.0713543419" lon="30.0216354732"><ele>93.146</ele><time>2026-04-20T17:47:14.675Z</time><hdop>4.125</hdop><vdop>4.375</vdop><extensions><gom:speed>0.542</gom:speed></extensions></trkpt>
   <trkpt lat="59.07136264" lon="30.0216345512"><ele>93.294</ele><time>2026-04-20T17:47:15.641Z</time><hdop>4.25</hdop><vdop>4.5</vdop><extensions><gom:speed>0.516</gom:speed></extensions></trkpt>
   <trkpt lat="59.0713713572" lon="30.0216322043"><ele>93.533</ele><time>2026-04-20T17:47:16.698Z</time><hdop>4.25</hdop><vdop>4.5</vdop><extensions><gom:speed>0.511</gom:speed></extensions></trkpt>
   <trkpt lat="59.0713803258" lon="30.0216261693"><ele>93.987</ele><time>2026-04-20T17:47:17.813Z</time><hdop>4.25</hdop><vdop>4.375</vdop><extensions><gom:speed>0.529</gom:speed></extensions></trkpt>
   <trkpt lat="59.0713879533" lon="30.0216205534"><ele>94.523</ele><time>2026-04-20T17:47:18.781Z</time><hdop>4.375</hdop><vdop>4.25</vdop><extensions><gom:speed>0.567</gom:speed></extensions></trkpt>
   <trkpt lat="59.0713965448" lon="30.0216167816"><ele>95.226</ele><time>2026-04-20T17:47:19.737Z</time><hdop>4.375</hdop><vdop>4.125</vdop><extensions><gom:speed>0.583</gom:speed></extensions></trkpt>
   <trkpt lat="59.0714060163" lon="30.0216141832"><ele>95.859</ele><time>2026-04-20T17:47:20.902Z</time><hdop>4.375</hdop><vdop>4.125</vdop><extensions><gom:speed>0.555</gom:speed></extensions></trkpt>
   <trkpt lat="59.0714150269" lon="30.0216140155"><ele>96.185</ele><time>2026-04-20T17:47:22.075Z</time><hdop>4.375</hdop><vdop>4.125</vdop><extensions><gom:speed>0.471</gom:speed></extensions></trkpt>
   <trkpt lat="59.0714202237" lon="30.0216161948"><ele>96.38</ele><time>2026-04-20T17:47:23.014Z</time><hdop>4.375</hdop><vdop>4.125</vdop><extensions><gom:speed>0.463</gom:speed></extensions></trkpt>
   <trkpt lat="59.0714283541" lon="30.0216232356"><ele>96.47</ele><time>2026-04-20T17:47:24.075Z</time><hdop>4.5</hdop><vdop>3.875</vdop><extensions><gom:speed>0.441</gom:speed></extensions></trkpt>
   <trkpt lat="59.071433048" lon="30.0216262531"><ele>96.524</ele><time>2026-04-20T17:47:25.089Z</time><hdop>4.5</hdop><vdop>3.875</vdop><extensions><gom:speed>0.449</gom:speed></extensions></trkpt>
   <trkpt lat="59.0714399211" lon="30.0216297735"><ele>96.639</ele><time>2026-04-20T17:47:26.075Z</time><hdop>4.5</hdop><vdop>4.0</vdop><extensions><gom:speed>0.352</gom:speed></extensions></trkpt>
   <trkpt lat="59.0714436511" lon="30.0216288515"><ele>96.751</ele><time>2026-04-20T17:47:27.075Z</time><hdop>4.5</hdop><vdop>4.0</vdop><extensions><gom:speed>0.31</gom:speed></extensions></trkpt>
   <trkpt lat="59.0714467524" lon="30.021626756"><ele>96.797</ele><time>2026-04-20T17:47:28.075Z</time><hdop>4.625</hdop><vdop>4.125</vdop><extensions><gom:speed>0.313</gom:speed></extensions></trkpt>
   <trkpt lat="59.0714489317" lon="30.0216225651"><ele>96.826</ele><time>2026-04-20T17:47:28.954Z</time><hdop>4.625</hdop><vdop>4.125</vdop><extensions><gom:speed>0.32</gom:speed></extensions></trkpt>
   <trkpt lat="59.0714499375" lon="30.0216208049"><ele>96.843</ele><time>2026-04-20T17:47:29.441Z</time><hdop>4.625</hdop><vdop>4.125</vdop><extensions><gom:speed>0.341</gom:speed></extensions></trkpt>
   <trkpt lat="59.0714515301" lon="30.0216182065"><ele>96.855</ele><time>2026-04-20T17:47:30.020Z</time><hdop>4.75</hdop><vdop>4.25</vdop><extensions><gom:speed>0.346</gom:speed></extensions></trkpt>
   <trkpt lat="59.0714549247" lon="30.0216159434"><ele>96.865</ele><time>2026-04-20T17:47:31.075Z</time><hdop>4.75</hdop><vdop>4.125</vdop><extensions><gom:speed>0.371</gom:speed></extensions></trkpt>
   <trkpt lat="59.0714632228" lon="30.0216172845"><ele>96.539</ele><time>2026-04-20T17:47:32.076Z</time><hdop>4.875</hdop><vdop>3.375</vdop><extensions><gom:speed>0.43</gom:speed></extensions></trkpt>
   <trkpt lat="59.0714700541" lon="30.0216208887"><ele>97.345</ele><time>2026-04-20T17:47:33.075Z</time><hdop>5.0</hdop><vdop>3.125</vdop><extensions><gom:speed>0.454</gom:speed></extensions></trkpt>
   <trkpt lat="59.0714735326" lon="30.021622146"><ele>97.826</ele><time>2026-04-20T17:47:33.716Z</time><hdop>5.0</hdop><vdop>3.125</vdop><extensions><gom:speed>0.445</gom:speed></extensions></trkpt>
   <trkpt lat="59.0714799447" lon="30.0216235709"><ele>98.064</ele><time>2026-04-20T17:47:34.675Z</time><hdop>5.0</hdop><vdop>3.0</vdop><extensions><gom:speed>0.399</gom:speed></extensions></trkpt>
   <trkpt lat="59.0714877399" lon="30.0216229842"><ele>98.137</ele><time>2026-04-20T17:47:35.761Z</time><hdop>4.875</hdop><vdop>3.0</vdop><extensions><gom:speed>0.431</gom:speed></extensions></trkpt>
   <trkpt lat="59.0714976305" lon="30.0216218945"><ele>98.069</ele><time>2026-04-20T17:47:36.952Z</time><hdop>4.875</hdop><vdop>4.875</vdop><extensions><gom:speed>0.47</gom:speed></extensions></trkpt>
   <trkpt lat="59.0715028273" lon="30.0216198829"><ele>98.034</ele><time>2026-04-20T17:47:37.601Z</time><hdop>4.875</hdop><vdop>4.625</vdop><extensions><gom:speed>0.484</gom:speed></extensions></trkpt>
   <trkpt lat="59.071511754" lon="30.0216167816"><ele>98.018</ele><time>2026-04-20T17:47:38.075Z</time><hdop>4.75</hdop><vdop>4.625</vdop><extensions><gom:speed>0.508</gom:speed></extensions></trkpt>
   <trkpt lat="59.0715207227" lon="30.0216132612"><ele>98.254</ele><time>2026-04-20T17:47:39.075Z</time><hdop>4.75</hdop><vdop>4.625</vdop><extensions><gom:speed>0.481</gom:speed></extensions></trkpt>
   <trkpt lat="59.0715250394" lon="30.0216128421"><ele>98.356</ele><time>2026-04-20T17:47:39.970Z</time><hdop>4.625</hdop><vdop>4.625</vdop><extensions><gom:speed>0.392</gom:speed></extensions></trkpt>
   <trkpt lat="59.071531242" lon="30.0216094055"><ele>98.529</ele><time>2026-04-20T17:47:41.075Z</time><hdop>4.625</hdop><vdop>4.625</vdop><extensions><gom:speed>0.396</gom:speed></extensions></trkpt>
   <trkpt lat="59.0715376541" lon="30.0216034543"><ele>98.495</ele><time>2026-04-20T17:47:42.075Z</time><hdop>4.625</hdop><vdop>4.5</vdop><extensions><gom:speed>0.369</gom:speed></extensions></trkpt>
   <trkpt lat="59.0715402525" lon="30.0216001854"><ele>98.474</ele><time>2026-04-20T17:47:42.658Z</time><hdop>4.75</hdop><vdop>4.5</vdop><extensions><gom:speed>0.371</gom:speed></extensions></trkpt>
   <trkpt lat="59.0715462456" lon="30.0215947371"><ele>98.437</ele><time>2026-04-20T17:47:43.457Z</time><hdop>4.75</hdop><vdop>4.625</vdop><extensions><gom:speed>0.374</gom:speed></extensions></trkpt>
   <trkpt lat="59.0715493469" lon="30.0215921388"><ele>98.6</ele><time>2026-04-20T17:47:43.998Z</time><hdop>4.75</hdop><vdop>4.75</vdop><extensions><gom:speed>0.374</gom:speed></extensions></trkpt>
   <trkpt lat="59.0715550466" lon="30.0215892051"><ele>98.845</ele><time>2026-04-20T17:47:45.075Z</time><hdop>4.75</hdop><vdop>4.75</vdop><extensions><gom:speed>0.387</gom:speed></extensions></trkpt>
   <trkpt lat="59.0715574354" lon="30.021589708"><ele>98.991</ele><time>2026-04-20T17:47:45.837Z</time><hdop>4.875</hdop><vdop>4.75</vdop><extensions><gom:speed>0.316</gom:speed></extensions></trkpt>
   <trkpt lat="59.0715615425" lon="30.0215907138"><ele>98.821</ele><time>2026-04-20T17:47:47.075Z</time><hdop>4.875</hdop><vdop>5.0</vdop><extensions><gom:speed>0.27</gom:speed></extensions></trkpt>
   <trkpt lat="59.0715632189" lon="30.0215914682"><ele>98.7</ele><time>2026-04-20T17:47:48.026Z</time><hdop>5.0</hdop><vdop>4.875</vdop><extensions><gom:speed>0.262</gom:speed></extensions></trkpt>
   <trkpt lat="59.0715641409" lon="30.0215926417"><ele>98.633</ele><time>2026-04-20T17:47:48.973Z</time><hdop>5.125</hdop><vdop>4.75</vdop><extensions><gom:speed>0.246</gom:speed></extensions></trkpt>
   <trkpt lat="59.0715686252" lon="30.0215921388"><ele>98.604</ele><time>2026-04-20T17:47:50.076Z</time><hdop>5.125</hdop><vdop>4.625</vdop><extensions><gom:speed>0.269</gom:speed></extensions></trkpt>
   <trkpt lat="59.0715717266" lon="30.0215920549"><ele>98.607</ele><time>2026-04-20T17:47:50.986Z</time><hdop>5.25</hdop><vdop>4.75</vdop><extensions><gom:speed>0.259</gom:speed></extensions></trkpt>
   <trkpt lat="59.0715741573" lon="30.0215913006"><ele>98.639</ele><time>2026-04-20T17:47:51.934Z</time><hdop>5.25</hdop><vdop>4.625</vdop><extensions><gom:speed>0.296</gom:speed></extensions></trkpt>
   <trkpt lat="59.0715776358" lon="30.0215908815"><ele>98.674</ele><time>2026-04-20T17:47:53.000Z</time><hdop>5.375</hdop><vdop>4.5</vdop><extensions><gom:speed>0.331</gom:speed></extensions></trkpt>
   <trkpt lat="59.0715815334" lon="30.0215907138"><ele>98.712</ele><time>2026-04-20T17:47:53.949Z</time><hdop>5.5</hdop><vdop>4.5</vdop><extensions><gom:speed>0.365</gom:speed></extensions></trkpt>
   <trkpt lat="59.071585431" lon="30.0215907138"><ele>98.73</ele><time>2026-04-20T17:47:55.015Z</time><hdop>5.625</hdop><vdop>4.5</vdop><extensions><gom:speed>0.363</gom:speed></extensions></trkpt>
   <trkpt lat="59.0715873169" lon="30.0215892051"><ele>98.741</ele><time>2026-04-20T17:47:55.482Z</time><hdop>5.875</hdop><vdop>4.5</vdop><extensions><gom:speed>0.39</gom:speed></extensions></trkpt>
   <trkpt lat="59.0715906277" lon="30.0215847627"><ele>98.755</ele><time>2026-04-20T17:47:56.075Z</time><hdop>5.875</hdop><vdop>4.375</vdop><extensions><gom:speed>0.381</gom:speed></extensions></trkpt>
   <trkpt lat="59.0715959503" lon="30.0215826672"><ele>98.764</ele><time>2026-04-20T17:47:57.082Z</time><hdop>6.0</hdop><vdop>4.375</vdop><extensions><gom:speed>0.417</gom:speed></extensions></trkpt>
   <trkpt lat="59.0715994287" lon="30.0215812423"><ele>98.775</ele><time>2026-04-20T17:47:58.076Z</time><hdop>6.0</hdop><vdop>4.0</vdop><extensions><gom:speed>0.339</gom:speed></extensions></trkpt>
   <trkpt lat="59.0716018176" lon="30.0215801526"><ele>98.767</ele><time>2026-04-20T17:47:59.076Z</time><hdop>5.875</hdop><vdop>3.875</vdop><extensions><gom:speed>0.296</gom:speed></extensions></trkpt>
   <trkpt lat="59.0716043322" lon="30.0215793983"><ele>98.772</ele><time>2026-04-20T17:48:00.075Z</time><hdop>5.5</hdop><vdop>3.875</vdop><extensions><gom:speed>0.323</gom:speed></extensions></trkpt>
   <trkpt lat="59.0716064276" lon="30.0215811585"><ele>98.775</ele><time>2026-04-20T17:48:00.862Z</time><hdop>5.25</hdop><vdop>3.875</vdop><extensions><gom:speed>0.326</gom:speed></extensions></trkpt>
   <trkpt lat="59.0716081459" lon="30.0215841759"><ele>98.777</ele><time>2026-04-20T17:48:01.762Z</time><hdop>4.875</hdop><vdop>4.0</vdop><extensions><gom:speed>0.339</gom:speed></extensions></trkpt>
   <trkpt lat="59.0716083555" lon="30.0215842598"><ele>98.78</ele><time>2026-04-20T17:48:02.359Z</time><hdop>4.875</hdop><vdop>4.125</vdop><extensions><gom:speed>0.325</gom:speed></extensions></trkpt>
   <trkpt lat="59.0716103252" lon="30.0215887022"><ele>98.782</ele><time>2026-04-20T17:48:03.032Z</time><hdop>4.75</hdop><vdop>4.125</vdop><extensions><gom:speed>0.331</gom:speed></extensions></trkpt>
   <trkpt lat="59.0716111215" lon="30.0215879478"><ele>98.789</ele><time>2026-04-20T17:48:03.960Z</time><hdop>4.625</hdop><vdop>4.125</vdop><extensions><gom:speed>0.308</gom:speed></extensions></trkpt>
   <trkpt lat="59.0716122531" lon="30.0215881154"><ele>98.802</ele><time>2026-04-20T17:48:05.057Z</time><hdop>4.625</hdop><vdop>4.0</vdop><extensions><gom:speed>0.306</gom:speed></extensions></trkpt>
   <trkpt lat="59.0716151448" lon="30.0215900433"><ele>96.634</ele><time>2026-04-20T17:48:05.837Z</time><hdop>4.625</hdop><vdop>3.375</vdop><extensions><gom:speed>0.35</gom:speed></extensions></trkpt>
   <trkpt lat="59.0716204254" lon="30.0215895404"><ele>94.826</ele><time>2026-04-20T17:48:06.981Z</time><hdop>4.5</hdop><vdop>3.25</vdop><extensions><gom:speed>0.326</gom:speed></extensions></trkpt>
   <trkpt lat="59.0716269214" lon="30.0215879478"><ele>93.312</ele><time>2026-04-20T17:48:08.075Z</time><hdop>4.5</hdop><vdop>2.875</vdop><extensions><gom:speed>0.324</gom:speed></extensions></trkpt>
   <trkpt lat="59.0716332497" lon="30.0215868582"><ele>91.829</ele><time>2026-04-20T17:48:09.075Z</time><hdop>4.375</hdop><vdop>2.875</vdop><extensions><gom:speed>0.313</gom:speed></extensions></trkpt>
   <trkpt lat="59.0716364348" lon="30.021586942"><ele>90.944</ele><time>2026-04-20T17:48:10.021Z</time><hdop>4.375</hdop><vdop>2.875</vdop><extensions><gom:speed>0.319</gom:speed></extensions></trkpt>
   <trkpt lat="59.0716436433" lon="30.0215877802"><ele>90.746</ele><time>2026-04-20T17:48:11.075Z</time><hdop>4.375</hdop><vdop>2.625</vdop><extensions><gom:speed>0.269</gom:speed></extensions></trkpt>
   <trkpt lat="59.0716476247" lon="30.021589708"><ele>90.899</ele><time>2026-04-20T17:48:12.075Z</time><hdop>4.25</hdop><vdop>2.5</vdop><extensions><gom:speed>0.168</gom:speed></extensions></trkpt>
   <trkpt lat="59.071650726" lon="30.0215911329"><ele>91.04</ele><time>2026-04-20T17:48:13.076Z</time><hdop>4.25</hdop><vdop>2.5</vdop><extensions><gom:speed>0.127</gom:speed></extensions></trkpt>
   <trkpt lat="59.0716554199" lon="30.0215931446"><ele>91.464</ele><time>2026-04-20T17:48:14.075Z</time><hdop>4.25</hdop><vdop>2.5</vdop><extensions><gom:speed>0.11</gom:speed></extensions></trkpt>
   <trkpt lat="59.0716558389" lon="30.021593396"><ele>91.717</ele><time>2026-04-20T17:48:14.796Z</time><hdop>4.25</hdop><vdop>2.5</vdop><extensions><gom:speed>0.096</gom:speed></extensions></trkpt>
   <trkpt lat="59.0716661487" lon="30.0215983414"><ele>92.759</ele><time>2026-04-20T17:48:16.075Z</time><hdop>4.125</hdop><vdop>2.5</vdop><extensions><gom:speed>0.083</gom:speed></extensions></trkpt>
   <trkpt lat="59.0716670288" lon="30.0215990119"><ele>93.382</ele><time>2026-04-20T17:48:16.674Z</time><hdop>4.125</hdop><vdop>2.5</vdop><extensions><gom:speed>0.053</gom:speed></extensions></trkpt>
   <trkpt lat="59.0716734409" lon="30.0216016941"><ele>94.123</ele><time>2026-04-20T17:48:17.977Z</time><hdop>4.0</hdop><vdop>2.5</vdop><extensions><gom:speed>0.107</gom:speed></extensions></trkpt>
   <trkpt lat="59.0716798531" lon="30.0216039572"><ele>94.7</ele><time>2026-04-20T17:48:18.482Z</time><hdop>3.875</hdop><vdop>4.625</vdop><extensions><gom:speed>0.085</gom:speed></extensions></trkpt>
   <trkpt lat="59.0716856366" lon="30.0216061365"><ele>95.131</ele><time>2026-04-20T17:48:19.075Z</time><hdop>3.875</hdop><vdop>4.375</vdop><extensions><gom:speed>0.117</gom:speed></extensions></trkpt>
   <trkpt lat="59.0716927193" lon="30.0216094055"><ele>95.559</ele><time>2026-04-20T17:48:20.075Z</time><hdop>3.75</hdop><vdop>4.375</vdop><extensions><gom:speed>0.092</gom:speed></extensions></trkpt>
   <trkpt lat="59.0716940185" lon="30.0216101598"><ele>95.815</ele><time>2026-04-20T17:48:20.955Z</time><hdop>3.75</hdop><vdop>4.375</vdop><extensions><gom:speed>0.094</gom:speed></extensions></trkpt>
   <trkpt lat="59.0717049569" lon="30.0216147699"><ele>96.021</ele><time>2026-04-20T17:48:22.075Z</time><hdop>3.5</hdop><vdop>4.375</vdop><extensions><gom:speed>0.091</gom:speed></extensions></trkpt>
   <trkpt lat="59.071710447" lon="30.0216167816"><ele>96.199</ele><time>2026-04-20T17:48:23.075Z</time><hdop>3.375</hdop><vdop>4.25</vdop><extensions><gom:speed>0.114</gom:speed></extensions></trkpt>
   <trkpt lat="59.0717118301" lon="30.0216167816"><ele>96.219</ele><time>2026-04-20T17:48:24.035Z</time><hdop>3.375</hdop><vdop>4.25</vdop><extensions><gom:speed>0.072</gom:speed></extensions></trkpt>
   <trkpt lat="59.0717116205" lon="30.0216172006"><ele>96.221</ele><time>2026-04-20T17:48:24.984Z</time><hdop>3.375</hdop><vdop>4.25</vdop><extensions><gom:speed>0.071</gom:speed></extensions></trkpt>
   <trkpt lat="59.0717108242" lon="30.0216166977"><ele>96.487</ele><time>2026-04-20T17:48:26.050Z</time><hdop>3.5</hdop><vdop>4.25</vdop><extensions><gom:speed>0.102</gom:speed></extensions></trkpt>
   <trkpt lat="59.0717163563" lon="30.0216197152"><ele>96.886</ele><time>2026-04-20T17:48:27.076Z</time><hdop>3.625</hdop><vdop>4.25</vdop><extensions><gom:speed>0.072</gom:speed></extensions></trkpt>
   <trkpt lat="59.0717201281" lon="30.0216215592"><ele>97.277</ele><time>2026-04-20T17:48:27.944Z</time><hdop>3.75</hdop><vdop>4.25</vdop><extensions><gom:speed>0.069</gom:speed></extensions></trkpt>
   <trkpt lat="59.0717203377" lon="30.0216218945"><ele>97.546</ele><time>2026-04-20T17:48:29.010Z</time><hdop>4.0</hdop><vdop>4.25</vdop><extensions><gom:speed>0.073</gom:speed></extensions></trkpt>
   <trkpt lat="59.0717193319" lon="30.0216210563"><ele>97.707</ele><time>2026-04-20T17:48:29.505Z</time><hdop>4.125</hdop><vdop>4.25</vdop><extensions><gom:speed>0.072</gom:speed></extensions></trkpt>
   <trkpt lat="59.0717246544" lon="30.0216244091"><ele>97.852</ele><time>2026-04-20T17:48:30.075Z</time><hdop>4.125</hdop><vdop>4.5</vdop><extensions><gom:speed>0.103</gom:speed></extensions></trkpt>
   <trkpt lat="59.0717259536" lon="30.0216257502"><ele>97.933</ele><time>2026-04-20T17:48:31.025Z</time><hdop>4.25</hdop><vdop>4.5</vdop><extensions><gom:speed>0.105</gom:speed></extensions></trkpt>
   <trkpt lat="59.0717253249" lon="30.021625834"><ele>97.984</ele><time>2026-04-20T17:48:31.973Z</time><hdop>4.25</hdop><vdop>4.5</vdop><extensions><gom:speed>0.088</gom:speed></extensions></trkpt>
   <trkpt lat="59.0717253249" lon="30.0216256664"><ele>98.014</ele><time>2026-04-20T17:48:32.696Z</time><hdop>4.375</hdop><vdop>4.5</vdop><extensions><gom:speed>0.071</gom:speed></extensions></trkpt>
   <trkpt lat="59.0717254507" lon="30.0216260855"><ele>98.041</ele><time>2026-04-20T17:48:33.393Z</time><hdop>4.375</hdop><vdop>4.625</vdop><extensions><gom:speed>0.074</gom:speed></extensions></trkpt>
   <trkpt lat="59.0717262469" lon="30.0216270913"><ele>98.059</ele><time>2026-04-20T17:48:33.985Z</time><hdop>4.375</hdop><vdop>5.0</vdop><extensions><gom:speed>0.104</gom:speed></extensions></trkpt>
   <trkpt lat="59.0717262469" lon="30.0216270075"><ele>98.07</ele><time>2026-04-20T17:48:34.503Z</time><hdop>4.375</hdop><vdop>5.0</vdop><extensions><gom:speed>0.086</gom:speed></extensions></trkpt>
   <trkpt lat="59.0717267499" lon="30.021627678"><ele>98.08</ele><time>2026-04-20T17:48:35.051Z</time><hdop>4.375</hdop><vdop>5.125</vdop><extensions><gom:speed>0.124</gom:speed></extensions></trkpt>
   <trkpt lat="59.0717268337" lon="30.0216275104"><ele>98.085</ele><time>2026-04-20T17:48:35.717Z</time><hdop>4.5</hdop><vdop>5.125</vdop><extensions><gom:speed>0.108</gom:speed></extensions></trkpt>
   <trkpt lat="59.0717270432" lon="30.0216273427"><ele>98.107</ele><time>2026-04-20T17:48:36.947Z</time><hdop>4.625</hdop><vdop>4.625</vdop><extensions><gom:speed>0.134</gom:speed></extensions></trkpt>
   <trkpt lat="59.0717281329" lon="30.0216270075"><ele>98.123</ele><time>2026-04-20T17:48:38.014Z</time><hdop>4.625</hdop><vdop>4.625</vdop><extensions><gom:speed>0.133</gom:speed></extensions></trkpt>
   <trkpt lat="59.0717287196" lon="30.021626756"><ele>98.136</ele><time>2026-04-20T17:48:38.960Z</time><hdop>4.75</hdop><vdop>4.625</vdop><extensions><gom:speed>0.12</gom:speed></extensions></trkpt>
   <trkpt lat="59.0717288453" lon="30.0216265884"><ele>98.143</ele><time>2026-04-20T17:48:39.553Z</time><hdop>4.875</hdop><vdop>4.625</vdop><extensions><gom:speed>0.084</gom:speed></extensions></trkpt>
   <trkpt lat="59.0717298512" lon="30.0216265884"><ele>98.145</ele><time>2026-04-20T17:48:40.026Z</time><hdop>5.0</hdop><vdop>4.625</vdop><extensions><gom:speed>0.109</gom:speed></extensions></trkpt>
   <trkpt lat="59.0717294321" lon="30.0216257502"><ele>98.133</ele><time>2026-04-20T17:48:40.974Z</time><hdop>5.125</hdop><vdop>4.625</vdop><extensions><gom:speed>0.095</gom:speed></extensions></trkpt>
   <trkpt lat="59.0717294321" lon="30.0216255825"><ele>98.126</ele><time>2026-04-20T17:48:41.620Z</time><hdop>5.25</hdop><vdop>4.625</vdop><extensions><gom:speed>0.104</gom:speed></extensions></trkpt>
   <trkpt lat="59.0717303541" lon="30.0216244929"><ele>98.114</ele><time>2026-04-20T17:48:42.556Z</time><hdop>5.375</hdop><vdop>4.375</vdop><extensions><gom:speed>0.09</gom:speed></extensions></trkpt>
   <trkpt lat="59.0717311503" lon="30.02162399"><ele>98.112</ele><time>2026-04-20T17:48:44.054Z</time><hdop>5.5</hdop><vdop>4.125</vdop><extensions><gom:speed>0.127</gom:speed></extensions></trkpt>
   <trkpt lat="59.0717382331" lon="30.0216312822"><ele>98.11</ele><time>2026-04-20T17:48:45.075Z</time><hdop>5.5</hdop><vdop>3.875</vdop><extensions><gom:speed>0.148</gom:speed></extensions></trkpt>
   <trkpt lat="59.071738736" lon="30.021631869"><ele>98.109</ele><time>2026-04-20T17:48:45.713Z</time><hdop>5.5</hdop><vdop>3.875</vdop><extensions><gom:speed>0.141</gom:speed></extensions></trkpt>
   <trkpt lat="59.0717524404" lon="30.0216453638"><ele>98.043</ele><time>2026-04-20T17:48:47.075Z</time><hdop>5.375</hdop><vdop>2.75</vdop><extensions><gom:speed>0.122</gom:speed></extensions></trkpt>
   <trkpt lat="59.0717567571" lon="30.0216500577"><ele>97.694</ele><time>2026-04-20T17:48:48.075Z</time><hdop>5.125</hdop><vdop>2.5</vdop><extensions><gom:speed>0.093</gom:speed></extensions></trkpt>
   <trkpt lat="59.0717574276" lon="30.0216516503"><ele>97.485</ele><time>2026-04-20T17:48:48.737Z</time><hdop>4.875</hdop><vdop>2.5</vdop><extensions><gom:speed>0.087</gom:speed></extensions></trkpt>
   <trkpt lat="59.071764217" lon="30.0216563441"><ele>96.981</ele><time>2026-04-20T17:48:50.075Z</time><hdop>4.375</hdop><vdop>2.625</vdop><extensions><gom:speed>0.111</gom:speed></extensions></trkpt>
   <trkpt lat="59.0717685336" lon="30.021659194"><ele>97.269</ele><time>2026-04-20T17:48:51.076Z</time><hdop>4.25</hdop><vdop>5.25</vdop><extensions><gom:speed>0.112</gom:speed></extensions></trkpt>
   <trkpt lat="59.0717686175" lon="30.0216597807"><ele>97.441</ele><time>2026-04-20T17:48:51.991Z</time><hdop>4.125</hdop><vdop>5.25</vdop><extensions><gom:speed>0.103</gom:speed></extensions></trkpt>
   <trkpt lat="59.0717763288" lon="30.0216682464"><ele>98.586</ele><time>2026-04-20T17:48:53.075Z</time><hdop>4.0</hdop><vdop>5.25</vdop><extensions><gom:speed>0.117</gom:speed></extensions></trkpt>
   <trkpt lat="59.0717805198" lon="30.0216742814"><ele>99.583</ele><time>2026-04-20T17:48:54.075Z</time><hdop>3.875</hdop><vdop>5.25</vdop><extensions><gom:speed>0.081</gom:speed></extensions></trkpt>
   <trkpt lat="59.071782238" lon="30.0216767122"><ele>100.527</ele><time>2026-04-20T17:48:54.952Z</time><hdop>3.875</hdop><vdop>5.0</vdop><extensions><gom:speed>0.076</gom:speed></extensions></trkpt>
   <trkpt lat="59.0717871415" lon="30.0216817413"><ele>101.358</ele><time>2026-04-20T17:48:56.075Z</time><hdop>3.875</hdop><vdop>4.75</vdop><extensions><gom:speed>0.071</gom:speed></extensions></trkpt>
   <trkpt lat="59.071790117" lon="30.0216851779"><ele>102.078</ele><time>2026-04-20T17:48:57.075Z</time><hdop>3.875</hdop><vdop>4.625</vdop><extensions><gom:speed>0.118</gom:speed></extensions></trkpt>
   <trkpt lat="59.0717934279" lon="30.0216877763"><ele>102.682</ele><time>2026-04-20T17:48:58.075Z</time><hdop>3.75</hdop><vdop>4.5</vdop><extensions><gom:speed>0.145</gom:speed></extensions></trkpt>
   <trkpt lat="59.0717973255" lon="30.0216902908"><ele>103.19</ele><time>2026-04-20T17:48:59.076Z</time><hdop>3.75</hdop><vdop>4.25</vdop><extensions><gom:speed>0.166</gom:speed></extensions></trkpt>
   <trkpt lat="59.0718000496" lon="30.0216915481"><ele>103.573</ele><time>2026-04-20T17:49:00.075Z</time><hdop>3.625</hdop><vdop>4.25</vdop><extensions><gom:speed>0.179</gom:speed></extensions></trkpt>
   <trkpt lat="59.0718030252" lon="30.0216929731"><ele>103.857</ele><time>2026-04-20T17:49:01.075Z</time><hdop>3.625</hdop><vdop>4.125</vdop><extensions><gom:speed>0.189</gom:speed></extensions></trkpt>
   <trkpt lat="59.0718059169" lon="30.0216947333"><ele>104.07</ele><time>2026-04-20T17:49:02.075Z</time><hdop>3.5</hdop><vdop>3.875</vdop><extensions><gom:speed>0.211</gom:speed></extensions></trkpt>
   <trkpt lat="59.0718089344" lon="30.0216966611"><ele>104.228</ele><time>2026-04-20T17:49:03.076Z</time><hdop>3.5</hdop><vdop>3.75</vdop><extensions><gom:speed>0.227</gom:speed></extensions></trkpt>
   <trkpt lat="59.0718118262" lon="30.0216983375"><ele>104.341</ele><time>2026-04-20T17:49:04.075Z</time><hdop>3.5</hdop><vdop>3.75</vdop><extensions><gom:speed>0.242</gom:speed></extensions></trkpt>
   <trkpt lat="59.0718152208" lon="30.0217001815"><ele>104.461</ele><time>2026-04-20T17:49:05.075Z</time><hdop>3.5</hdop><vdop>3.625</vdop><extensions><gom:speed>0.262</gom:speed></extensions></trkpt>
   <trkpt lat="59.0718177354" lon="30.0217016902"><ele>104.482</ele><time>2026-04-20T17:49:06.076Z</time><hdop>3.625</hdop><vdop>3.75</vdop><extensions><gom:speed>0.269</gom:speed></extensions></trkpt>
   <trkpt lat="59.0718204176" lon="30.021703199"><ele>104.502</ele><time>2026-04-20T17:49:07.075Z</time><hdop>3.625</hdop><vdop>3.75</vdop><extensions><gom:speed>0.27</gom:speed></extensions></trkpt>
   <trkpt lat="59.0718230579" lon="30.021705043"><ele>104.46</ele><time>2026-04-20T17:49:08.075Z</time><hdop>3.75</hdop><vdop>3.875</vdop><extensions><gom:speed>0.278</gom:speed></extensions></trkpt>
   <trkpt lat="59.0718252372" lon="30.0217083119"><ele>104.346</ele><time>2026-04-20T17:49:09.075Z</time><hdop>3.875</hdop><vdop>3.875</vdop><extensions><gom:speed>0.3</gom:speed></extensions></trkpt>
   <trkpt lat="59.0718268298" lon="30.0217107427"><ele>104.277</ele><time>2026-04-20T17:49:09.880Z</time><hdop>4.125</hdop><vdop>3.875</vdop><extensions><gom:speed>0.303</gom:speed></extensions></trkpt>
   <trkpt lat="59.0718277518" lon="30.0217122514"><ele>104.143</ele><time>2026-04-20T17:49:10.588Z</time><hdop>4.25</hdop><vdop>3.75</vdop><extensions><gom:speed>0.309</gom:speed></extensions></trkpt>
   <trkpt lat="59.0718300568" lon="30.0217154366"><ele>103.992</ele><time>2026-04-20T17:49:11.075Z</time><hdop>4.25</hdop><vdop>3.75</vdop><extensions><gom:speed>0.305</gom:speed></extensions></trkpt>
   <trkpt lat="59.0718307274" lon="30.0217176997"><ele>103.902</ele><time>2026-04-20T17:49:11.814Z</time><hdop>4.375</hdop><vdop>3.75</vdop><extensions><gom:speed>0.298</gom:speed></extensions></trkpt>
   <trkpt lat="59.0718312303" lon="30.0217233994"><ele>103.792</ele><time>2026-04-20T17:49:13.075Z</time><hdop>4.5</hdop><vdop>3.625</vdop><extensions><gom:speed>0.282</gom:speed></extensions></trkpt>
   <trkpt lat="59.071831356" lon="30.0217271712"><ele>103.709</ele><time>2026-04-20T17:49:14.075Z</time><hdop>4.5</hdop><vdop>3.5</vdop><extensions><gom:speed>0.262</gom:speed></extensions></trkpt>
   <trkpt lat="59.0718322361" lon="30.0217306078"><ele>103.639</ele><time>2026-04-20T17:49:15.075Z</time><hdop>4.625</hdop><vdop>3.5</vdop><extensions><gom:speed>0.255</gom:speed></extensions></trkpt>
   <trkpt lat="59.0718332419" lon="30.0217334576"><ele>103.591</ele><time>2026-04-20T17:49:16.076Z</time><hdop>4.625</hdop><vdop>3.5</vdop><extensions><gom:speed>0.269</gom:speed></extensions></trkpt>
   <trkpt lat="59.0718335353" lon="30.0217340444"><ele>103.563</ele><time>2026-04-20T17:49:16.747Z</time><hdop>4.625</hdop><vdop>3.5</vdop><extensions><gom:speed>0.27</gom:speed></extensions></trkpt>
   <trkpt lat="59.071835547" lon="30.0217391573"><ele>103.531</ele><time>2026-04-20T17:49:18.075Z</time><hdop>4.75</hdop><vdop>3.75</vdop><extensions><gom:speed>0.26</gom:speed></extensions></trkpt>
   <trkpt lat="59.0718364271" lon="30.0217413366"><ele>103.501</ele><time>2026-04-20T17:49:19.075Z</time><hdop>4.75</hdop><vdop>3.875</vdop><extensions><gom:speed>0.254</gom:speed></extensions></trkpt>
   <trkpt lat="59.0718375167" lon="30.0217435997"><ele>103.479</ele><time>2026-04-20T17:49:20.076Z</time><hdop>4.75</hdop><vdop>3.875</vdop><extensions><gom:speed>0.252</gom:speed></extensions></trkpt>
   <trkpt lat="59.0718385225" lon="30.0217454438"><ele>103.458</ele><time>2026-04-20T17:49:21.075Z</time><hdop>4.875</hdop><vdop>3.875</vdop><extensions><gom:speed>0.255</gom:speed></extensions></trkpt>
   <trkpt lat="59.0718391512" lon="30.0217474554"><ele>103.44</ele><time>2026-04-20T17:49:22.075Z</time><hdop>4.875</hdop><vdop>3.875</vdop><extensions><gom:speed>0.262</gom:speed></extensions></trkpt>
   <trkpt lat="59.0718391512" lon="30.0217480422"><ele>103.428</ele><time>2026-04-20T17:49:22.907Z</time><hdop>4.875</hdop><vdop>3.875</vdop><extensions><gom:speed>0.263</gom:speed></extensions></trkpt>
   <trkpt lat="59.0718394445" lon="30.0217518978"><ele>103.415</ele><time>2026-04-20T17:49:24.075Z</time><hdop>5.0</hdop><vdop>3.875</vdop><extensions><gom:speed>0.319</gom:speed></extensions></trkpt>
   <trkpt lat="59.0718390254" lon="30.0217541609"><ele>103.407</ele><time>2026-04-20T17:49:24.855Z</time><hdop>5.0</hdop><vdop>3.875</vdop><extensions><gom:speed>0.324</gom:speed></extensions></trkpt>
   <trkpt lat="59.0718374329" lon="30.0217558373"><ele>103.402</ele><time>2026-04-20T17:49:26.039Z</time><hdop>5.125</hdop><vdop>3.875</vdop><extensions><gom:speed>0.335</gom:speed></extensions></trkpt>
   <trkpt lat="59.071837852" lon="30.0217557535"><ele>103.402</ele><time>2026-04-20T17:49:26.858Z</time><hdop>5.125</hdop><vdop>4.0</vdop><extensions><gom:speed>0.199</gom:speed></extensions></trkpt>
   <trkpt lat="59.0718389416" lon="30.0217553344"><ele>103.389</ele><time>2026-04-20T17:49:27.954Z</time><hdop>5.25</hdop><vdop>4.0</vdop><extensions><gom:speed>0.18</gom:speed></extensions></trkpt>
   <trkpt lat="59.071840618" lon="30.0217555859"><ele>103.387</ele><time>2026-04-20T17:49:28.948Z</time><hdop>5.375</hdop><vdop>3.875</vdop><extensions><gom:speed>0.18</gom:speed></extensions></trkpt>
   <trkpt lat="59.0718419172" lon="30.0217570108"><ele>103.386</ele><time>2026-04-20T17:49:29.957Z</time><hdop>5.625</hdop><vdop>3.875</vdop><extensions><gom:speed>0.243</gom:speed></extensions></trkpt>
   <trkpt lat="59.0718437193" lon="30.0217562564"><ele>103.386</ele><time>2026-04-20T17:49:30.857Z</time><hdop>5.875</hdop><vdop>4.0</vdop><extensions><gom:speed>0.25</gom:speed></extensions></trkpt>
   <trkpt lat="59.0718450185" lon="30.0217503891"><ele>103.385</ele><time>2026-04-20T17:49:32.067Z</time><hdop>6.25</hdop><vdop>4.0</vdop><extensions><gom:speed>0.206</gom:speed></extensions></trkpt>
   <trkpt lat="59.0718460243" lon="30.021747204"><ele>103.384</ele><time>2026-04-20T17:49:32.978Z</time><hdop>6.375</hdop><vdop>3.875</vdop><extensions><gom:speed>0.198</gom:speed></extensions></trkpt>
   <trkpt lat="59.0718477426" lon="30.0217467849"><ele>103.383</ele><time>2026-04-20T17:49:34.035Z</time><hdop>6.5</hdop><vdop>3.875</vdop><extensions><gom:speed>0.228</gom:speed></extensions></trkpt>
   <trkpt lat="59.0718478264" lon="30.0217487127"><ele>103.388</ele><time>2026-04-20T17:49:35.075Z</time><hdop>6.375</hdop><vdop>3.875</vdop><extensions><gom:speed>0.163</gom:speed></extensions></trkpt>
   <trkpt lat="59.0718478264" lon="30.0217495509"><ele>103.397</ele><time>2026-04-20T17:49:36.075Z</time><hdop>6.0</hdop><vdop>3.875</vdop><extensions><gom:speed>0.156</gom:speed></extensions></trkpt>
   <trkpt lat="59.0718491256" lon="30.0217473716"><ele>103.401</ele><time>2026-04-20T17:49:37.078Z</time><hdop>5.625</hdop><vdop>3.875</vdop><extensions><gom:speed>0.261</gom:speed></extensions></trkpt>
   <trkpt lat="59.0718502572" lon="30.0217451923"><ele>103.437</ele><time>2026-04-20T17:49:38.075Z</time><hdop>5.5</hdop><vdop>3.875</vdop><extensions><gom:speed>0.357</gom:speed></extensions></trkpt>
   <trkpt lat="59.0718504248" lon="30.0217422586"><ele>103.458</ele><time>2026-04-20T17:49:39.016Z</time><hdop>5.375</hdop><vdop>4.125</vdop><extensions><gom:speed>0.37</gom:speed></extensions></trkpt>
   <trkpt lat="59.0718516402" lon="30.0217390735"><ele>103.469</ele><time>2026-04-20T17:49:39.964Z</time><hdop>5.375</hdop><vdop>4.25</vdop><extensions><gom:speed>0.346</gom:speed></extensions></trkpt>
   <trkpt lat="59.0718523527" lon="30.0217385706"><ele>103.478</ele><time>2026-04-20T17:49:41.031Z</time><hdop>5.375</hdop><vdop>4.125</vdop><extensions><gom:speed>0.233</gom:speed></extensions></trkpt>
   <trkpt lat="59.0718523527" lon="30.0217401632"><ele>103.483</ele><time>2026-04-20T17:49:41.504Z</time><hdop>5.5</hdop><vdop>4.125</vdop><extensions><gom:speed>0.173</gom:speed></extensions></trkpt>
   <trkpt lat="59.0718533166" lon="30.0217415881"><ele>103.469</ele><time>2026-04-20T17:49:41.978Z</time><hdop>5.625</hdop><vdop>4.125</vdop><extensions><gom:speed>0.161</gom:speed></extensions></trkpt>
   <trkpt lat="59.0718536519" lon="30.021742091"><ele>103.461</ele><time>2026-04-20T17:49:42.435Z</time><hdop>5.625</hdop><vdop>4.125</vdop><extensions><gom:speed>0.178</gom:speed></extensions></trkpt>
   <trkpt lat="59.0718542386" lon="30.0217425939"><ele>103.429</ele><time>2026-04-20T17:49:43.044Z</time><hdop>5.75</hdop><vdop>4.0</vdop><extensions><gom:speed>0.205</gom:speed></extensions></trkpt>
   <trkpt lat="59.071855454" lon="30.0217425939"><ele>103.41</ele><time>2026-04-20T17:49:43.797Z</time><hdop>5.875</hdop><vdop>4.0</vdop><extensions><gom:speed>0.217</gom:speed></extensions></trkpt>
   <trkpt lat="59.0718544481" lon="30.0217453599"><ele>103.403</ele><time>2026-04-20T17:49:45.075Z</time><hdop>5.875</hdop><vdop>3.875</vdop><extensions><gom:speed>0.2</gom:speed></extensions></trkpt>
   <trkpt lat="59.0718539452" lon="30.0217468687"><ele>103.384</ele><time>2026-04-20T17:49:46.075Z</time><hdop>5.875</hdop><vdop>3.875</vdop><extensions><gom:speed>0.206</gom:speed></extensions></trkpt>
   <trkpt lat="59.0718534423" lon="30.0217505567"><ele>103.345</ele><time>2026-04-20T17:49:47.075Z</time><hdop>5.625</hdop><vdop>3.875</vdop><extensions><gom:speed>0.185</gom:speed></extensions></trkpt>
   <trkpt lat="59.0718532328" lon="30.0217521493"><ele>103.322</ele><time>2026-04-20T17:49:47.665Z</time><hdop>5.375</hdop><vdop>3.875</vdop><extensions><gom:speed>0.138</gom:speed></extensions></trkpt>
   <trkpt lat="59.0718528556" lon="30.0217547477"><ele>103.303</ele><time>2026-04-20T17:49:48.919Z</time><hdop>5.0</hdop><vdop>3.875</vdop><extensions><gom:speed>0.141</gom:speed></extensions></trkpt>
   <trkpt lat="59.0718542386" lon="30.0217610341"><ele>102.579</ele><time>2026-04-20T17:49:50.075Z</time><hdop>4.875</hdop><vdop>2.75</vdop><extensions><gom:speed>0.127</gom:speed></extensions></trkpt>
   <trkpt lat="59.0718546577" lon="30.0217696675"><ele>101.708</ele><time>2026-04-20T17:49:51.075Z</time><hdop>4.75</hdop><vdop>2.625</vdop><extensions><gom:speed>0.151</gom:speed></extensions></trkpt>
   <trkpt lat="59.0718547415" lon="30.0217811507"><ele>100.464</ele><time>2026-04-20T17:49:52.075Z</time><hdop>4.625</hdop><vdop>2.5</vdop><extensions><gom:speed>0.124</gom:speed></extensions></trkpt>
   <trkpt lat="59.0718542386" lon="30.0217829947"><ele>99.72</ele><time>2026-04-20T17:49:52.761Z</time><hdop>4.625</hdop><vdop>2.5</vdop><extensions><gom:speed>0.095</gom:speed></extensions></trkpt>
   <trkpt lat="59.071852646" lon="30.0217986689"><ele>99.317</ele><time>2026-04-20T17:49:53.718Z</time><hdop>4.5</hdop><vdop>4.0</vdop><extensions><gom:speed>0.139</gom:speed></extensions></trkpt>
   <trkpt lat="59.0718502572" lon="30.0218193722"><ele>99.194</ele><time>2026-04-20T17:49:54.596Z</time><hdop>4.375</hdop><vdop>4.0</vdop><extensions><gom:speed>0.172</gom:speed></extensions></trkpt>
   <trkpt lat="59.0718490418" lon="30.0218306877"><ele>99.053</ele><time>2026-04-20T17:49:55.075Z</time><hdop>4.375</hdop><vdop>4.0</vdop><extensions><gom:speed>0.179</gom:speed></extensions></trkpt>
   <trkpt lat="59.0718467368" lon="30.0218469486"><ele>98.852</ele><time>2026-04-20T17:49:56.076Z</time><hdop>4.375</hdop><vdop>4.0</vdop><extensions><gom:speed>0.177</gom:speed></extensions></trkpt>
   <trkpt lat="59.0718460243" lon="30.0218611978"><ele>98.826</ele><time>2026-04-20T17:49:57.075Z</time><hdop>4.25</hdop><vdop>4.0</vdop><extensions><gom:speed>0.163</gom:speed></extensions></trkpt>
   <trkpt lat="59.0718468206" lon="30.0218654726"><ele>98.811</ele><time>2026-04-20T17:49:58.061Z</time><hdop>4.25</hdop><vdop>4.0</vdop><extensions><gom:speed>0.178</gom:speed></extensions></trkpt>
   <trkpt lat="59.0718475331" lon="30.0218752794"><ele>98.679</ele><time>2026-04-20T17:49:58.961Z</time><hdop>4.25</hdop><vdop>4.0</vdop><extensions><gom:speed>0.139</gom:speed></extensions></trkpt>
   <trkpt lat="59.0718509277" lon="30.0218958989"><ele>98.521</ele><time>2026-04-20T17:49:59.997Z</time><hdop>4.375</hdop><vdop>3.875</vdop><extensions><gom:speed>0.3</gom:speed></extensions></trkpt>
   <trkpt lat="59.0718553282" lon="30.0219124113"><ele>98.3</ele><time>2026-04-20T17:50:00.914Z</time><hdop>4.625</hdop><vdop>4.0</vdop><extensions><gom:speed>0.486</gom:speed></extensions></trkpt>
   <trkpt lat="59.0718634168" lon="30.0219479505"><ele>98.211</ele><time>2026-04-20T17:50:01.996Z</time><hdop>5.125</hdop><vdop>4.125</vdop><extensions><gom:speed>0.712</gom:speed></extensions></trkpt>
   <trkpt lat="59.0718715472" lon="30.021959769"><ele>98.158</ele><time>2026-04-20T17:50:02.997Z</time><hdop>5.625</hdop><vdop>4.125</vdop><extensions><gom:speed>0.714</gom:speed></extensions></trkpt>
   <trkpt lat="59.0718752353" lon="30.0219751079"><ele>98.073</ele><time>2026-04-20T17:50:03.757Z</time><hdop>5.875</hdop><vdop>4.125</vdop><extensions><gom:speed>0.739</gom:speed></extensions></trkpt>
   <trkpt lat="59.0718829466" lon="30.0219865073"><ele>98.025</ele><time>2026-04-20T17:50:04.715Z</time><hdop>6.375</hdop><vdop>4.25</vdop><extensions><gom:speed>0.825</gom:speed></extensions></trkpt>
   <trkpt lat="59.0718884368" lon="30.021998242"><ele>97.979</ele><time>2026-04-20T17:50:05.497Z</time><hdop>6.5</hdop><vdop>4.375</vdop><extensions><gom:speed>0.871</gom:speed></extensions></trkpt>
   <trkpt lat="59.0718908256" lon="30.0220078812"><ele>97.943</ele><time>2026-04-20T17:50:06.024Z</time><hdop>6.625</hdop><vdop>4.25</vdop><extensions><gom:speed>0.87</gom:speed></extensions></trkpt>
   <trkpt lat="59.0718921248" lon="30.022024645"><ele>97.921</ele><time>2026-04-20T17:50:06.738Z</time><hdop>6.75</hdop><vdop>4.25</vdop><extensions><gom:speed>0.819</gom:speed></extensions></trkpt>
   <trkpt lat="59.0718912447" lon="30.0220324401"><ele>97.903</ele><time>2026-04-20T17:50:07.538Z</time><hdop>6.875</hdop><vdop>4.125</vdop><extensions><gom:speed>0.784</gom:speed></extensions></trkpt>
   <trkpt lat="59.0718835333" lon="30.0220432528"><ele>97.858</ele><time>2026-04-20T17:50:08.075Z</time><hdop>6.875</hdop><vdop>4.0</vdop><extensions><gom:speed>0.75</gom:speed></extensions></trkpt>
   <trkpt lat="59.0718797196" lon="30.022059849"><ele>97.817</ele><time>2026-04-20T17:50:08.985Z</time><hdop>7.0</hdop><vdop>3.875</vdop><extensions><gom:speed>0.799</gom:speed></extensions></trkpt>
   <trkpt lat="59.0718844554" lon="30.0220711645"><ele>97.79</ele><time>2026-04-20T17:50:10.051Z</time><hdop>7.125</hdop><vdop>4.0</vdop><extensions><gom:speed>0.813</gom:speed></extensions></trkpt>
   <trkpt lat="59.071891119" lon="30.02207787"><ele>97.767</ele><time>2026-04-20T17:50:11.000Z</time><hdop>7.25</hdop><vdop>4.0</vdop><extensions><gom:speed>0.805</gom:speed></extensions></trkpt>
   <trkpt lat="59.0718996266" lon="30.0220889342"><ele>97.746</ele><time>2026-04-20T17:50:11.947Z</time><hdop>7.25</hdop><vdop>4.125</vdop><extensions><gom:speed>0.912</gom:speed></extensions></trkpt>
   <trkpt lat="59.071903147" lon="30.0220950529"><ele>97.732</ele><time>2026-04-20T17:50:12.423Z</time><hdop>7.375</hdop><vdop>4.125</vdop><extensions><gom:speed>1.001</gom:speed></extensions></trkpt>
   <trkpt lat="59.0719076313" lon="30.022105698"><ele>97.735</ele><time>2026-04-20T17:50:13.013Z</time><hdop>7.5</hdop><vdop>4.125</vdop><extensions><gom:speed>1.013</gom:speed></extensions></trkpt>
   <trkpt lat="59.0719122414" lon="30.0221155886"><ele>97.736</ele><time>2026-04-20T17:50:13.698Z</time><hdop>7.875</hdop><vdop>4.125</vdop><extensions><gom:speed>1.026</gom:speed></extensions></trkpt>
   <trkpt lat="59.0719202461" lon="30.0221372977"><ele>97.734</ele><time>2026-04-20T17:50:15.026Z</time><hdop>8.625</hdop><vdop>4.125</vdop><extensions><gom:speed>1.021</gom:speed></extensions></trkpt>
   <trkpt lat="59.0719245209" lon="30.0221559056"><ele>97.722</ele><time>2026-04-20T17:50:15.974Z</time><hdop>9.375</hdop><vdop>4.125</vdop><extensions><gom:speed>1.049</gom:speed></extensions></trkpt>
   <trkpt lat="59.0719258201" lon="30.0221647904"><ele>97.715</ele><time>2026-04-20T17:50:16.441Z</time><hdop>10.0</hdop><vdop>4.125</vdop><extensions><gom:speed>1.129</gom:speed></extensions></trkpt>
   <trkpt lat="59.0719269516" lon="30.0221790396"><ele>97.695</ele><time>2026-04-20T17:50:17.040Z</time><hdop>10.25</hdop><vdop>4.0</vdop><extensions><gom:speed>1.135</gom:speed></extensions></trkpt>
   <trkpt lat="59.0719300529" lon="30.022193205"><ele>97.684</ele><time>2026-04-20T17:50:17.675Z</time><hdop>11.0</hdop><vdop>4.0</vdop><extensions><gom:speed>1.196</gom:speed></extensions></trkpt>
   <trkpt lat="59.0719102297" lon="30.0221999944"><ele>97.679</ele><time>2026-04-20T17:50:18.435Z</time><hdop>10.625</hdop><vdop>3.75</vdop><extensions><gom:speed>0.893</gom:speed></extensions></trkpt>
   <trkpt lat="59.0718953518" lon="30.0221944623"><ele>97.674</ele><time>2026-04-20T17:50:19.075Z</time><hdop>10.25</hdop><vdop>3.5</vdop><extensions><gom:speed>0.799</gom:speed></extensions></trkpt>
   <trkpt lat="59.0718866347" lon="30.0221901037"><ele>96.88</ele><time>2026-04-20T17:50:20.075Z</time><hdop>9.625</hdop><vdop>3.0</vdop><extensions><gom:speed>0.635</gom:speed></extensions></trkpt>
   <trkpt lat="59.0718815217" lon="30.0221947138"><ele>95.953</ele><time>2026-04-20T17:50:21.075Z</time><hdop>8.875</hdop><vdop>2.75</vdop><extensions><gom:speed>0.607</gom:speed></extensions></trkpt>
   <trkpt lat="59.0718814379" lon="30.0222049397"><ele>95.4</ele><time>2026-04-20T17:50:22.077Z</time><hdop>7.5</hdop><vdop>2.75</vdop><extensions><gom:speed>0.642</gom:speed></extensions></trkpt>
   <trkpt lat="59.0718801387" lon="30.022214998"><ele>95.288</ele><time>2026-04-20T17:50:22.779Z</time><hdop>6.625</hdop><vdop>2.5</vdop><extensions><gom:speed>0.682</gom:speed></extensions></trkpt>
   <trkpt lat="59.0718755286" lon="30.0222326838"><ele>95.629</ele><time>2026-04-20T17:50:23.756Z</time><hdop>6.125</hdop><vdop>2.5</vdop><extensions><gom:speed>0.772</gom:speed></extensions></trkpt>
   <trkpt lat="59.0718720501" lon="30.0222525489"><ele>96.211</ele><time>2026-04-20T17:50:24.635Z</time><hdop>5.875</hdop><vdop>2.5</vdop><extensions><gom:speed>0.826</gom:speed></extensions></trkpt>
   <trkpt lat="59.0718705414" lon="30.0222847354"><ele>96.533</ele><time>2026-04-20T17:50:26.075Z</time><hdop>5.75</hdop><vdop>2.5</vdop><extensions><gom:speed>0.864</gom:speed></extensions></trkpt>
   <trkpt lat="59.0718764506" lon="30.0222885911"><ele>96.725</ele><time>2026-04-20T17:50:26.914Z</time><hdop>5.625</hdop><vdop>2.5</vdop><extensions><gom:speed>0.779</gom:speed></extensions></trkpt>
   <trkpt lat="59.071878127" lon="30.0222968054"><ele>96.778</ele><time>2026-04-20T17:50:28.075Z</time><hdop>5.375</hdop><vdop>2.5</vdop><extensions><gom:speed>0.565</gom:speed></extensions></trkpt>
   <trkpt lat="59.0718786299" lon="30.0223044329"><ele>96.985</ele><time>2026-04-20T17:50:29.075Z</time><hdop>5.125</hdop><vdop>3.75</vdop><extensions><gom:speed>0.37</gom:speed></extensions></trkpt>
   <trkpt lat="59.0718776241" lon="30.0223118928"><ele>97.052</ele><time>2026-04-20T17:50:30.075Z</time><hdop>5.0</hdop><vdop>3.75</vdop><extensions><gom:speed>0.242</gom:speed></extensions></trkpt>
   <trkpt lat="59.0718768278" lon="30.022313653"><ele>97.091</ele><time>2026-04-20T17:50:30.899Z</time><hdop>4.875</hdop><vdop>3.75</vdop><extensions><gom:speed>0.206</gom:speed></extensions></trkpt>
   <trkpt lat="59.071876744" lon="30.0223201909"><ele>97.051</ele><time>2026-04-20T17:50:31.455Z</time><hdop>4.625</hdop><vdop>3.75</vdop><extensions><gom:speed>0.101</gom:speed></extensions></trkpt>
   <trkpt lat="59.0718769536" lon="30.0223237951"><ele>97.177</ele><time>2026-04-20T17:50:32.075Z</time><hdop>4.5</hdop><vdop>3.75</vdop><extensions><gom:speed>0.121</gom:speed></extensions></trkpt>
   <trkpt lat="59.0718770374" lon="30.0223299977"><ele>97.379</ele><time>2026-04-20T17:50:33.075Z</time><hdop>4.375</hdop><vdop>3.875</vdop><extensions><gom:speed>0.116</gom:speed></extensions></trkpt>
   <trkpt lat="59.0718765345" lon="30.0223328475"><ele>97.5</ele><time>2026-04-20T17:50:33.954Z</time><hdop>4.375</hdop><vdop>3.875</vdop><extensions><gom:speed>0.113</gom:speed></extensions></trkpt>
   <trkpt lat="59.0718769536" lon="30.0223436602"><ele>97.693</ele><time>2026-04-20T17:50:35.076Z</time><hdop>4.25</hdop><vdop>3.75</vdop><extensions><gom:speed>0.15</gom:speed></extensions></trkpt>
   <trkpt lat="59.0718772469" lon="30.0223522936"><ele>97.831</ele><time>2026-04-20T17:50:36.075Z</time><hdop>4.125</hdop><vdop>3.75</vdop><extensions><gom:speed>0.19</gom:speed></extensions></trkpt>
   <trkpt lat="59.0718784204" lon="30.0223593344"><ele>97.837</ele><time>2026-04-20T17:50:37.075Z</time><hdop>4.125</hdop><vdop>3.75</vdop><extensions><gom:speed>0.197</gom:speed></extensions></trkpt>
   <trkpt lat="59.071880432" lon="30.0223675486"><ele>97.912</ele><time>2026-04-20T17:50:38.075Z</time><hdop>4.125</hdop><vdop>3.75</vdop><extensions><gom:speed>0.212</gom:speed></extensions></trkpt>
   <trkpt lat="59.0718811445" lon="30.0223735836"><ele>97.957</ele><time>2026-04-20T17:50:38.641Z</time><hdop>4.25</hdop><vdop>3.75</vdop><extensions><gom:speed>0.309</gom:speed></extensions></trkpt>
   <trkpt lat="59.0718817312" lon="30.0223908503"><ele>98.179</ele><time>2026-04-20T17:50:40.075Z</time><hdop>4.375</hdop><vdop>3.625</vdop><extensions><gom:speed>0.35</gom:speed></extensions></trkpt>
   <trkpt lat="59.0718813541" lon="30.0224030041"><ele>98.4</ele><time>2026-04-20T17:50:41.076Z</time><hdop>4.5</hdop><vdop>3.75</vdop><extensions><gom:speed>0.406</gom:speed></extensions></trkpt>
   <trkpt lat="59.0718820246" lon="30.0224217795"><ele>98.532</ele><time>2026-04-20T17:50:41.781Z</time><hdop>4.75</hdop><vdop>3.75</vdop><extensions><gom:speed>0.641</gom:speed></extensions></trkpt>
   <trkpt lat="59.0718860479" lon="30.0224426505"><ele>98.65</ele><time>2026-04-20T17:50:43.075Z</time><hdop>5.125</hdop><vdop>3.75</vdop><extensions><gom:speed>0.729</gom:speed></extensions></trkpt>
   <trkpt lat="59.07188785" lon="30.0224647787"><ele>98.723</ele><time>2026-04-20T17:50:44.076Z</time><hdop>5.375</hdop><vdop>3.75</vdop><extensions><gom:speed>0.791</gom:speed></extensions></trkpt>
   <trkpt lat="59.0718851259" lon="30.0224783574"><ele>98.748</ele><time>2026-04-20T17:50:45.075Z</time><hdop>5.5</hdop><vdop>3.625</vdop><extensions><gom:speed>0.821</gom:speed></extensions></trkpt>
   <trkpt lat="59.0718813541" lon="30.0224825483"><ele>98.758</ele><time>2026-04-20T17:50:46.075Z</time><hdop>5.625</hdop><vdop>3.5</vdop><extensions><gom:speed>0.661</gom:speed></extensions></trkpt>
   <trkpt lat="59.0718798453" lon="30.0224693887"><ele>98.757</ele><time>2026-04-20T17:50:47.076Z</time><hdop>5.625</hdop><vdop>3.375</vdop><extensions><gom:speed>0.363</gom:speed></extensions></trkpt>
   <trkpt lat="59.0718829466" lon="30.0224532117"><ele>98.768</ele><time>2026-04-20T17:50:48.076Z</time><hdop>5.5</hdop><vdop>3.5</vdop><extensions><gom:speed>0.168</gom:speed></extensions></trkpt>
   <trkpt lat="59.0718850421" lon="30.022447512"><ele>98.775</ele><time>2026-04-20T17:50:48.620Z</time><hdop>5.5</hdop><vdop>3.5</vdop><extensions><gom:speed>0.12</gom:speed></extensions></trkpt>
   <trkpt lat="59.0718857546" lon="30.0224441592"><ele>98.783</ele><time>2026-04-20T17:50:49.075Z</time><hdop>5.375</hdop><vdop>3.75</vdop><extensions><gom:speed>0.112</gom:speed></extensions></trkpt>
   <trkpt lat="59.0718860479" lon="30.0224403035"><ele>98.787</ele><time>2026-04-20T17:50:50.076Z</time><hdop>5.25</hdop><vdop>3.875</vdop><extensions><gom:speed>0.09</gom:speed></extensions></trkpt>
   <trkpt lat="59.0718860479" lon="30.0224392977"><ele>98.784</ele><time>2026-04-20T17:50:51.075Z</time><hdop>5.25</hdop><vdop>3.875</vdop><extensions><gom:speed>0.105</gom:speed></extensions></trkpt>
   <trkpt lat="59.0718854193" lon="30.0224385433"><ele>98.776</ele><time>2026-04-20T17:50:52.076Z</time><hdop>5.125</hdop><vdop>3.75</vdop><extensions><gom:speed>0.127</gom:speed></extensions></trkpt>
   <trkpt lat="59.0718850421" lon="30.0224390463"><ele>98.777</ele><time>2026-04-20T17:50:53.076Z</time><hdop>5.0</hdop><vdop>3.75</vdop><extensions><gom:speed>0.092</gom:speed></extensions></trkpt>
   <trkpt lat="59.0718840363" lon="30.0224389624"><ele>98.781</ele><time>2026-04-20T17:50:54.075Z</time><hdop>4.875</hdop><vdop>3.75</vdop><extensions><gom:speed>0.09</gom:speed></extensions></trkpt>
   <trkpt lat="59.0718834495" lon="30.0224380404"><ele>98.783</ele><time>2026-04-20T17:50:54.612Z</time><hdop>4.875</hdop><vdop>3.75</vdop><extensions><gom:speed>0.07</gom:speed></extensions></trkpt>
   <trkpt lat="59.0718826532" lon="30.0224375375"><ele>98.781</ele><time>2026-04-20T17:50:55.076Z</time><hdop>4.875</hdop><vdop>3.75</vdop><extensions><gom:speed>0.102</gom:speed></extensions></trkpt>
   <trkpt lat="59.0718816474" lon="30.0224373699"><ele>98.78</ele><time>2026-04-20T17:50:55.657Z</time><hdop>4.75</hdop><vdop>3.75</vdop><extensions><gom:speed>0.107</gom:speed></extensions></trkpt>
   <trkpt lat="59.0718810188" lon="30.0224384595"><ele>98.792</ele><time>2026-04-20T17:50:56.960Z</time><hdop>4.75</hdop><vdop>4.0</vdop><extensions><gom:speed>0.104</gom:speed></extensions></trkpt>
   <trkpt lat="59.0718811445" lon="30.0224384595"><ele>98.799</ele><time>2026-04-20T17:50:58.025Z</time><hdop>4.75</hdop><vdop>3.875</vdop><extensions><gom:speed>0.12</gom:speed></extensions></trkpt>
   <trkpt lat="59.0718805578" lon="30.0224403035"><ele>98.812</ele><time>2026-04-20T17:50:58.973Z</time><hdop>4.875</hdop><vdop>3.875</vdop><extensions><gom:speed>0.116</gom:speed></extensions></trkpt>
   <trkpt lat="59.0718803482" lon="30.0224423152"><ele>98.821</ele><time>2026-04-20T17:51:00.039Z</time><hdop>5.0</hdop><vdop>4.0</vdop><extensions><gom:speed>0.116</gom:speed></extensions></trkpt>
   <trkpt lat="59.0718801387" lon="30.0224434048"><ele>98.856</ele><time>2026-04-20T17:51:00.986Z</time><hdop>5.125</hdop><vdop>3.875</vdop><extensions><gom:speed>0.088</gom:speed></extensions></trkpt>
   <trkpt lat="59.0718798453" lon="30.0224435725"><ele>98.876</ele><time>2026-04-20T17:51:01.934Z</time><hdop>5.125</hdop><vdop>3.875</vdop><extensions><gom:speed>0.086</gom:speed></extensions></trkpt>
   <trkpt lat="59.0718794262" lon="30.022445165"><ele>98.918</ele><time>2026-04-20T17:51:03.000Z</time><hdop>5.375</hdop><vdop>3.5</vdop><extensions><gom:speed>0.079</gom:speed></extensions></trkpt>
   <trkpt lat="59.0718793424" lon="30.0224462547"><ele>98.943</ele><time>2026-04-20T17:51:03.635Z</time><hdop>5.5</hdop><vdop>3.5</vdop><extensions><gom:speed>0.072</gom:speed></extensions></trkpt>
   <trkpt lat="59.0718799291" lon="30.0224492722"><ele>98.961</ele><time>2026-04-20T17:51:04.762Z</time><hdop>5.625</hdop><vdop>3.375</vdop><extensions><gom:speed>0.086</gom:speed></extensions></trkpt>
   <trkpt lat="59.0718807254" lon="30.0224529602"><ele>98.984</ele><time>2026-04-20T17:51:05.961Z</time><hdop>5.75</hdop><vdop>3.125</vdop><extensions><gom:speed>0.092</gom:speed></extensions></trkpt>
   <trkpt lat="59.0718816474" lon="30.0224555586"><ele>98.987</ele><time>2026-04-20T17:51:07.028Z</time><hdop>5.875</hdop><vdop>3.125</vdop><extensions><gom:speed>0.098</gom:speed></extensions></trkpt>
   <trkpt lat="59.071881857" lon="30.0224568997"><ele>98.974</ele><time>2026-04-20T17:51:07.975Z</time><hdop>6.0</hdop><vdop>3.125</vdop><extensions><gom:speed>0.102</gom:speed></extensions></trkpt>
   <trkpt lat="59.0718812283" lon="30.022456313"><ele>98.951</ele><time>2026-04-20T17:51:09.041Z</time><hdop>6.125</hdop><vdop>3.125</vdop><extensions><gom:speed>0.102</gom:speed></extensions></trkpt>
   <trkpt lat="59.0718810188" lon="30.0224541337"><ele>98.93</ele><time>2026-04-20T17:51:09.989Z</time><hdop>6.375</hdop><vdop>3.125</vdop><extensions><gom:speed>0.108</gom:speed></extensions></trkpt>
   <trkpt lat="59.0718798453" lon="30.0224525411"><ele>98.91</ele><time>2026-04-20T17:51:11.055Z</time><hdop>6.375</hdop><vdop>3.0</vdop><extensions><gom:speed>0.123</gom:speed></extensions></trkpt>
   <trkpt lat="59.0718785461" lon="30.0224501104"><ele>98.892</ele><time>2026-04-20T17:51:12.076Z</time><hdop>6.5</hdop><vdop>3.0</vdop><extensions><gom:speed>0.089</gom:speed></extensions></trkpt>
   <trkpt lat="59.0718787557" lon="30.0224491045"><ele>98.879</ele><time>2026-04-20T17:51:13.075Z</time><hdop>6.25</hdop><vdop>2.875</vdop><extensions><gom:speed>0.077</gom:speed></extensions></trkpt>
   <trkpt lat="59.0718791329" lon="30.0224476796"><ele>98.868</ele><time>2026-04-20T17:51:14.075Z</time><hdop>6.125</hdop><vdop>3.0</vdop><extensions><gom:speed>0.086</gom:speed></extensions></trkpt>
   <trkpt lat="59.0718788395" lon="30.0224466738"><ele>98.872</ele><time>2026-04-20T17:51:15.075Z</time><hdop>5.625</hdop><vdop>3.125</vdop><extensions><gom:speed>0.111</gom:speed></extensions></trkpt>
   <trkpt lat="59.0718788395" lon="30.0224453327"><ele>98.876</ele><time>2026-04-20T17:51:16.075Z</time><hdop>5.375</hdop><vdop>3.25</vdop><extensions><gom:speed>0.106</gom:speed></extensions></trkpt>
   <trkpt lat="59.0718792167" lon="30.0224453327"><ele>99.231</ele><time>2026-04-20T17:51:17.075Z</time><hdop>5.125</hdop><vdop>2.625</vdop><extensions><gom:speed>0.291</gom:speed></extensions></trkpt>
   <trkpt lat="59.071878127" lon="30.0224453327"><ele>99.443</ele><time>2026-04-20T17:51:17.553Z</time><hdop>4.875</hdop><vdop>2.625</vdop><extensions><gom:speed>0.314</gom:speed></extensions></trkpt>
   <trkpt lat="59.0718765345" lon="30.0224462547"><ele>100.112</ele><time>2026-04-20T17:51:18.075Z</time><hdop>4.875</hdop><vdop>2.5</vdop><extensions><gom:speed>0.351</gom:speed></extensions></trkpt>
   <trkpt lat="59.0718722178" lon="30.0224488531"><ele>100.27</ele><time>2026-04-20T17:51:19.075Z</time><hdop>4.625</hdop><vdop>2.5</vdop><extensions><gom:speed>0.362</gom:speed></extensions></trkpt>
   <trkpt lat="59.071871631" lon="30.0224508647"><ele>100.364</ele><time>2026-04-20T17:51:19.893Z</time><hdop>4.625</hdop><vdop>2.5</vdop><extensions><gom:speed>0.221</gom:speed></extensions></trkpt>
   <trkpt lat="59.071870248" lon="30.0224537146"><ele>100.575</ele><time>2026-04-20T17:51:20.413Z</time><hdop>4.5</hdop><vdop>2.5</vdop><extensions><gom:speed>0.214</gom:speed></extensions></trkpt>
   <trkpt lat="59.0718667276" lon="30.022457235"><ele>100.626</ele><time>2026-04-20T17:51:21.075Z</time><hdop>4.5</hdop><vdop>2.5</vdop><extensions><gom:speed>0.218</gom:speed></extensions></trkpt>
   <trkpt lat="59.0718640454" lon="30.0224595819"><ele>100.657</ele><time>2026-04-20T17:51:21.719Z</time><hdop>4.5</hdop><vdop>2.5</vdop><extensions><gom:speed>0.288</gom:speed></extensions></trkpt>
   <trkpt lat="59.0718584295" lon="30.0224655331"><ele>100.552</ele><time>2026-04-20T17:51:22.676Z</time><hdop>4.5</hdop><vdop>2.5</vdop><extensions><gom:speed>0.347</gom:speed></extensions></trkpt>
   <trkpt lat="59.0718537357" lon="30.022470646"><ele>100.467</ele><time>2026-04-20T17:51:23.298Z</time><hdop>4.5</hdop><vdop>2.5</vdop><extensions><gom:speed>0.381</gom:speed></extensions></trkpt>
   <trkpt lat="59.0718493352" lon="30.0224760943"><ele>100.341</ele><time>2026-04-20T17:51:24.075Z</time><hdop>4.5</hdop><vdop>2.5</vdop><extensions><gom:speed>0.411</gom:speed></extensions></trkpt>
   <trkpt lat="59.0718449347" lon="30.0224860687"><ele>100.274</ele><time>2026-04-20T17:51:25.075Z</time><hdop>4.5</hdop><vdop>2.5</vdop><extensions><gom:speed>0.411</gom:speed></extensions></trkpt>
   <trkpt lat="59.0718439289" lon="30.022497971"><ele>100.046</ele><time>2026-04-20T17:51:26.075Z</time><hdop>4.5</hdop><vdop>2.5</vdop><extensions><gom:speed>0.422</gom:speed></extensions></trkpt>
   <trkpt lat="59.071843845" lon="30.0225016591"><ele>99.91</ele><time>2026-04-20T17:51:26.691Z</time><hdop>4.5</hdop><vdop>2.5</vdop><extensions><gom:speed>0.418</gom:speed></extensions></trkpt>
   <trkpt lat="59.0718419172" lon="30.0225125555"><ele>99.999</ele><time>2026-04-20T17:51:27.475Z</time><hdop>4.5</hdop><vdop>2.5</vdop><extensions><gom:speed>0.346</gom:speed></extensions></trkpt>
   <trkpt lat="59.071840157" lon="30.0225208536"><ele>100.169</ele><time>2026-04-20T17:51:28.075Z</time><hdop>4.5</hdop><vdop>2.5</vdop><extensions><gom:speed>0.377</gom:speed></extensions></trkpt>
   <trkpt lat="59.0718384387" lon="30.0225249608"><ele>100.096</ele><time>2026-04-20T17:51:29.075Z</time><hdop>4.5</hdop><vdop>4.5</vdop><extensions><gom:speed>0.251</gom:speed></extensions></trkpt>
   <trkpt lat="59.0718384387" lon="30.0225213565"><ele>100.052</ele><time>2026-04-20T17:51:29.961Z</time><hdop>4.5</hdop><vdop>4.5</vdop><extensions><gom:speed>0.172</gom:speed></extensions></trkpt>
   <trkpt lat="59.0718366366" lon="30.0225291517"><ele>99.988</ele><time>2026-04-20T17:51:30.919Z</time><hdop>4.5</hdop><vdop>4.25</vdop><extensions><gom:speed>0.178</gom:speed></extensions></trkpt>
   <trkpt lat="59.071834122" lon="30.0225428142"><ele>99.843</ele><time>2026-04-20T17:51:31.838Z</time><hdop>4.625</hdop><vdop>4.0</vdop><extensions><gom:speed>0.238</gom:speed></extensions></trkpt>
   <trkpt lat="59.0718340382" lon="30.0225504417"><ele>99.629</ele><time>2026-04-20T17:51:32.850Z</time><hdop>4.75</hdop><vdop>3.875</vdop><extensions><gom:speed>0.275</gom:speed></extensions></trkpt>
   <trkpt lat="59.0718309369" lon="30.0225853105"><ele>99.485</ele><time>2026-04-20T17:51:33.959Z</time><hdop>5.25</hdop><vdop>3.75</vdop><extensions><gom:speed>0.478</gom:speed></extensions></trkpt>
   <trkpt lat="59.0718287576" lon="30.0226024934"><ele>99.505</ele><time>2026-04-20T17:51:35.076Z</time><hdop>5.875</hdop><vdop>3.875</vdop><extensions><gom:speed>0.503</gom:speed></extensions></trkpt>
   <trkpt lat="59.0718306435" lon="30.0226060976"><ele>99.366</ele><time>2026-04-20T17:51:36.049Z</time><hdop>6.25</hdop><vdop>4.0</vdop><extensions><gom:speed>0.379</gom:speed></extensions></trkpt>
   <trkpt lat="59.0718295539" lon="30.0225936085"><ele>99.344</ele><time>2026-04-20T17:51:37.075Z</time><hdop>6.5</hdop><vdop>4.0</vdop><extensions><gom:speed>0.176</gom:speed></extensions></trkpt>
   <trkpt lat="59.0718288414" lon="30.0225862325"><ele>99.331</ele><time>2026-04-20T17:51:37.799Z</time><hdop>6.375</hdop><vdop>4.0</vdop><extensions><gom:speed>0.162</gom:speed></extensions></trkpt>
   <trkpt lat="59.0718289253" lon="30.0225848914"><ele>99.277</ele><time>2026-04-20T17:51:38.619Z</time><hdop>6.125</hdop><vdop>4.0</vdop><extensions><gom:speed>0.198</gom:speed></extensions></trkpt>
   <trkpt lat="59.0718279194" lon="30.0225910102"><ele>99.228</ele><time>2026-04-20T17:51:39.076Z</time><hdop>6.0</hdop><vdop>4.0</vdop><extensions><gom:speed>0.193</gom:speed></extensions></trkpt>
   <trkpt lat="59.0718269555" lon="30.0225949497"><ele>99.199</ele><time>2026-04-20T17:51:39.675Z</time><hdop>5.75</hdop><vdop>4.0</vdop><extensions><gom:speed>0.157</gom:speed></extensions></trkpt>
   <trkpt lat="59.0718258239" lon="30.0225985539"><ele>99.239</ele><time>2026-04-20T17:51:40.723Z</time><hdop>5.375</hdop><vdop>3.875</vdop><extensions><gom:speed>0.14</gom:speed></extensions></trkpt>
   <trkpt lat="59.071826243" lon="30.0226030801"><ele>99.247</ele><time>2026-04-20T17:51:41.895Z</time><hdop>5.25</hdop><vdop>3.75</vdop><extensions><gom:speed>0.224</gom:speed></extensions></trkpt>
   <trkpt lat="59.0718265364" lon="30.0226047565"><ele>99.233</ele><time>2026-04-20T17:51:42.698Z</time><hdop>5.25</hdop><vdop>3.75</vdop><extensions><gom:speed>0.18</gom:speed></extensions></trkpt>
   <trkpt lat="59.0718273327" lon="30.0226155691"><ele>99.223</ele><time>2026-04-20T17:51:43.985Z</time><hdop>5.5</hdop><vdop>3.625</vdop><extensions><gom:speed>0.372</gom:speed></extensions></trkpt>
   <trkpt lat="59.0718297215" lon="30.0226392061"><ele>99.215</ele><time>2026-04-20T17:51:45.075Z</time><hdop>5.75</hdop><vdop>3.5</vdop><extensions><gom:speed>0.61</gom:speed></extensions></trkpt>
   <trkpt lat="59.0718374329" lon="30.022664268"><ele>99.21</ele><time>2026-04-20T17:51:45.982Z</time><hdop>6.375</hdop><vdop>3.5</vdop><extensions><gom:speed>0.697</gom:speed></extensions></trkpt>
   <trkpt lat="59.0718346249" lon="30.0226667826"><ele>99.214</ele><time>2026-04-20T17:51:47.075Z</time><hdop>6.625</hdop><vdop>3.25</vdop><extensions><gom:speed>0.482</gom:speed></extensions></trkpt>
   <trkpt lat="59.0718358403" lon="30.0226666987"><ele>99.217</ele><time>2026-04-20T17:51:48.055Z</time><hdop>6.875</hdop><vdop>3.25</vdop><extensions><gom:speed>0.416</gom:speed></extensions></trkpt>
   <trkpt lat="59.0718308531" lon="30.0226604123"><ele>99.206</ele><time>2026-04-20T17:51:49.075Z</time><hdop>6.75</hdop><vdop>3.25</vdop><extensions><gom:speed>0.23</gom:speed></extensions></trkpt>
   <trkpt lat="59.0718287576" lon="30.0226553832"><ele>99.2</ele><time>2026-04-20T17:51:49.674Z</time><hdop>6.375</hdop><vdop>3.25</vdop><extensions><gom:speed>0.163</gom:speed></extensions></trkpt>
   <trkpt lat="59.0718264526" lon="30.0226553832"><ele>99.197</ele><time>2026-04-20T17:51:51.075Z</time><hdop>5.75</hdop><vdop>3.25</vdop><extensions><gom:speed>0.161</gom:speed></extensions></trkpt>
   <trkpt lat="59.0718251534" lon="30.0226560537"><ele>99.195</ele><time>2026-04-20T17:51:52.075Z</time><hdop>5.375</hdop><vdop>3.375</vdop><extensions><gom:speed>0.102</gom:speed></extensions></trkpt>
   <trkpt lat="59.0718246505" lon="30.0226586521"><ele>99.216</ele><time>2026-04-20T17:51:53.075Z</time><hdop>5.0</hdop><vdop>3.375</vdop><extensions><gom:speed>0.083</gom:speed></extensions></trkpt>
   <trkpt lat="59.0718241476" lon="30.0226622563"><ele>99.249</ele><time>2026-04-20T17:51:54.075Z</time><hdop>4.75</hdop><vdop>3.375</vdop><extensions><gom:speed>0.143</gom:speed></extensions></trkpt>
   <trkpt lat="59.0718234351" lon="30.0226666987"><ele>99.303</ele><time>2026-04-20T17:51:55.075Z</time><hdop>4.375</hdop><vdop>3.25</vdop><extensions><gom:speed>0.163</gom:speed></extensions></trkpt>
   <trkpt lat="59.0718223455" lon="30.0226678722"><ele>99.339</ele><time>2026-04-20T17:51:56.075Z</time><hdop>4.125</hdop><vdop>3.25</vdop><extensions><gom:speed>0.097</gom:speed></extensions></trkpt>
   <trkpt lat="59.0718220521" lon="30.0226685428"><ele>99.37</ele><time>2026-04-20T17:51:57.075Z</time><hdop>4.0</hdop><vdop>3.125</vdop><extensions><gom:speed>0.085</gom:speed></extensions></trkpt>
   <trkpt lat="59.0718221359" lon="30.0226687104"><ele>99.389</ele><time>2026-04-20T17:51:57.607Z</time><hdop>3.875</hdop><vdop>3.125</vdop><extensions><gom:speed>0.079</gom:speed></extensions></trkpt>
   <trkpt lat="59.0718219264" lon="30.0226706382"><ele>99.404</ele><time>2026-04-20T17:51:58.076Z</time><hdop>3.875</hdop><vdop>3.0</vdop><extensions><gom:speed>0.113</gom:speed></extensions></trkpt>
   <trkpt lat="59.0718218425" lon="30.0226720632"><ele>99.412</ele><time>2026-04-20T17:51:59.075Z</time><hdop>3.875</hdop><vdop>3.25</vdop><extensions><gom:speed>0.09</gom:speed></extensions></trkpt>
   <trkpt lat="59.0718217168" lon="30.0226724823"><ele>99.418</ele><time>2026-04-20T17:52:00.075Z</time><hdop>3.75</hdop><vdop>3.25</vdop><extensions><gom:speed>0.095</gom:speed></extensions></trkpt>
   <trkpt lat="59.0718214234" lon="30.0226725661"><ele>99.423</ele><time>2026-04-20T17:52:00.662Z</time><hdop>3.75</hdop><vdop>3.25</vdop><extensions><gom:speed>0.103</gom:speed></extensions></trkpt>
   <trkpt lat="59.0718208367" lon="30.0226765056"><ele>99.154</ele><time>2026-04-20T17:52:01.539Z</time><hdop>3.75</hdop><vdop>2.875</vdop><extensions><gom:speed>0.109</gom:speed></extensions></trkpt>
   <trkpt lat="59.0718204176" lon="30.0226772599"><ele>98.994</ele><time>2026-04-20T17:52:01.994Z</time><hdop>3.75</hdop><vdop>2.875</vdop><extensions><gom:speed>0.141</gom:speed></extensions></trkpt>
   <trkpt lat="59.0718195375" lon="30.0226850551"><ele>98.821</ele><time>2026-04-20T17:52:03.075Z</time><hdop>3.75</hdop><vdop>2.5</vdop><extensions><gom:speed>0.126</gom:speed></extensions></trkpt>
   <trkpt lat="59.0718197471" lon="30.0226868153"><ele>98.719</ele><time>2026-04-20T17:52:03.768Z</time><hdop>3.875</hdop><vdop>2.5</vdop><extensions><gom:speed>0.089</gom:speed></extensions></trkpt>
   <trkpt lat="59.0718187412" lon="30.022696706"><ele>99.098</ele><time>2026-04-20T17:52:04.419Z</time><hdop>3.875</hdop><vdop>3.625</vdop><extensions><gom:speed>0.144</gom:speed></extensions></trkpt>
   <trkpt lat="59.0718181545" lon="30.0227055908"><ele>98.897</ele><time>2026-04-20T17:52:05.075Z</time><hdop>3.875</hdop><vdop>3.5</vdop><extensions><gom:speed>0.176</gom:speed></extensions></trkpt>
   <trkpt lat="59.071817945" lon="30.0227165711"><ele>98.492</ele><time>2026-04-20T17:52:06.075Z</time><hdop>3.875</hdop><vdop>3.25</vdop><extensions><gom:speed>0.161</gom:speed></extensions></trkpt>
   <trkpt lat="59.0718176516" lon="30.0227219355"><ele>98.096</ele><time>2026-04-20T17:52:07.075Z</time><hdop>3.75</hdop><vdop>3.25</vdop><extensions><gom:speed>0.099</gom:speed></extensions></trkpt>
   <trkpt lat="59.0718166458" lon="30.0227320776"><ele>97.879</ele><time>2026-04-20T17:52:08.075Z</time><hdop>3.75</hdop><vdop>3.125</vdop><extensions><gom:speed>0.169</gom:speed></extensions></trkpt>
   <trkpt lat="59.0718153466" lon="30.022743477"><ele>97.88</ele><time>2026-04-20T17:52:09.075Z</time><hdop>3.75</hdop><vdop>3.125</vdop><extensions><gom:speed>0.193</gom:speed></extensions></trkpt>
   <trkpt lat="59.071815137" lon="30.0227466621"><ele>97.88</ele><time>2026-04-20T17:52:09.927Z</time><hdop>3.75</hdop><vdop>3.125</vdop><extensions><gom:speed>0.184</gom:speed></extensions></trkpt>
   <trkpt lat="59.0718171487" lon="30.0227688741"><ele>97.929</ele><time>2026-04-20T17:52:10.621Z</time><hdop>4.0</hdop><vdop>3.125</vdop><extensions><gom:speed>0.34</gom:speed></extensions></trkpt>
   <trkpt lat="59.0718197471" lon="30.0227837101"><ele>97.94</ele><time>2026-04-20T17:52:11.076Z</time><hdop>4.125</hdop><vdop>3.0</vdop><extensions><gom:speed>0.409</gom:speed></extensions></trkpt>
   <trkpt lat="59.0718223455" lon="30.0227963668"><ele>97.947</ele><time>2026-04-20T17:52:11.598Z</time><hdop>4.375</hdop><vdop>3.0</vdop><extensions><gom:speed>0.483</gom:speed></extensions></trkpt>
   <trkpt lat="59.0718255306" lon="30.0228138011"><ele>98.01</ele><time>2026-04-20T17:52:12.075Z</time><hdop>4.5</hdop><vdop>2.875</vdop><extensions><gom:speed>0.526</gom:speed></extensions></trkpt>
   <trkpt lat="59.0718285481" lon="30.0228397012"><ele>98.048</ele><time>2026-04-20T17:52:12.653Z</time><hdop>4.875</hdop><vdop>2.875</vdop><extensions><gom:speed>0.777</gom:speed></extensions></trkpt>
   <trkpt lat="59.0718286319" lon="30.0228707143"><ele>98.081</ele><time>2026-04-20T17:52:13.512Z</time><hdop>5.25</hdop><vdop>2.875</vdop><extensions><gom:speed>0.799</gom:speed></extensions></trkpt>
   <trkpt lat="59.0718280452" lon="30.0228837062"><ele>98.169</ele><time>2026-04-20T17:52:14.075Z</time><hdop>5.25</hdop><vdop>2.875</vdop><extensions><gom:speed>0.776</gom:speed></extensions></trkpt>
   <trkpt lat="59.071826243" lon="30.0229015597"><ele>98.247</ele><time>2026-04-20T17:52:15.076Z</time><hdop>5.5</hdop><vdop>3.0</vdop><extensions><gom:speed>0.758</gom:speed></extensions></trkpt>
   <trkpt lat="59.071823938" lon="30.0229148031"><ele>98.3</ele><time>2026-04-20T17:52:16.075Z</time><hdop>5.5</hdop><vdop>3.125</vdop><extensions><gom:speed>0.706</gom:speed></extensions></trkpt>
   <trkpt lat="59.0718190346" lon="30.0229196646"><ele>98.332</ele><time>2026-04-20T17:52:17.076Z</time><hdop>5.25</hdop><vdop>3.125</vdop><extensions><gom:speed>0.584</gom:speed></extensions></trkpt>
   <trkpt lat="59.0718162267" lon="30.0229225982"><ele>98.342</ele><time>2026-04-20T17:52:17.955Z</time><hdop>5.125</hdop><vdop>3.0</vdop><extensions><gom:speed>0.614</gom:speed></extensions></trkpt>
   <trkpt lat="59.0718133349" lon="30.022930142"><ele>98.344</ele><time>2026-04-20T17:52:18.943Z</time><hdop>4.875</hdop><vdop>3.0</vdop><extensions><gom:speed>0.638</gom:speed></extensions></trkpt>
   <trkpt lat="59.071809144" lon="30.0229358417"><ele>98.348</ele><time>2026-04-20T17:52:19.995Z</time><hdop>4.75</hdop><vdop>3.125</vdop><extensions><gom:speed>0.528</gom:speed></extensions></trkpt>
   <trkpt lat="59.0718059169" lon="30.02293844"><ele>98.32</ele><time>2026-04-20T17:52:20.942Z</time><hdop>4.75</hdop><vdop>3.125</vdop><extensions><gom:speed>0.471</gom:speed></extensions></trkpt>
   <trkpt lat="59.0718004268" lon="30.0229415413"><ele>98.303</ele><time>2026-04-20T17:52:22.083Z</time><hdop>4.875</hdop><vdop>3.125</vdop><extensions><gom:speed>0.507</gom:speed></extensions></trkpt>
   <trkpt lat="59.0717924221" lon="30.0229434692"><ele>98.293</ele><time>2026-04-20T17:52:23.078Z</time><hdop>5.125</hdop><vdop>3.25</vdop><extensions><gom:speed>0.541</gom:speed></extensions></trkpt>
   <trkpt lat="59.0717878539" lon="30.0229448941"><ele>98.302</ele><time>2026-04-20T17:52:23.976Z</time><hdop>5.375</hdop><vdop>3.25</vdop><extensions><gom:speed>0.564</gom:speed></extensions></trkpt>
   <trkpt lat="59.0717866385" lon="30.0229449779"><ele>98.307</ele><time>2026-04-20T17:52:24.440Z</time><hdop>5.625</hdop><vdop>3.25</vdop><extensions><gom:speed>0.476</gom:speed></extensions></trkpt>
   <trkpt lat="59.0717847526" lon="30.0229448103"><ele>98.309</ele><time>2026-04-20T17:52:24.970Z</time><hdop>5.625</hdop><vdop>3.25</vdop><extensions><gom:speed>0.468</gom:speed></extensions></trkpt>
   <trkpt lat="59.0717837468" lon="30.0229438883"><ele>98.31</ele><time>2026-04-20T17:52:25.476Z</time><hdop>5.875</hdop><vdop>3.25</vdop><extensions><gom:speed>0.445</gom:speed></extensions></trkpt>
   <trkpt lat="59.0717816513" lon="30.0229427148"><ele>98.31</ele><time>2026-04-20T17:52:26.037Z</time><hdop>5.875</hdop><vdop>3.375</vdop><extensions><gom:speed>0.438</gom:speed></extensions></trkpt>
   <trkpt lat="59.0717767479" lon="30.0229418766"><ele>98.305</ele><time>2026-04-20T17:52:26.984Z</time><hdop>6.25</hdop><vdop>3.375</vdop><extensions><gom:speed>0.494</gom:speed></extensions></trkpt>
   <trkpt lat="59.0717751553" lon="30.0229425472"><ele>98.302</ele><time>2026-04-20T17:52:27.677Z</time><hdop>6.375</hdop><vdop>3.375</vdop><extensions><gom:speed>0.417</gom:speed></extensions></trkpt>
   <trkpt lat="59.071773018" lon="30.0229441397"><ele>98.301</ele><time>2026-04-20T17:52:28.398Z</time><hdop>6.5</hdop><vdop>3.5</vdop><extensions><gom:speed>0.405</gom:speed></extensions></trkpt>
   <trkpt lat="59.0717686175" lon="30.0229485821"><ele>98.296</ele><time>2026-04-20T17:52:28.997Z</time><hdop>6.75</hdop><vdop>3.5</vdop><extensions><gom:speed>0.432</gom:speed></extensions></trkpt>
   <trkpt lat="59.0717662286" lon="30.0229505938"><ele>98.293</ele><time>2026-04-20T17:52:29.495Z</time><hdop>6.875</hdop><vdop>3.5</vdop><extensions><gom:speed>0.474</gom:speed></extensions></trkpt>
   <trkpt lat="59.0717635464" lon="30.0229518511"><ele>98.291</ele><time>2026-04-20T17:52:29.946Z</time><hdop>7.0</hdop><vdop>3.625</vdop><extensions><gom:speed>0.491</gom:speed></extensions></trkpt>
   <trkpt lat="59.0717592297" lon="30.0229534437"><ele>98.289</ele><time>2026-04-20T17:52:30.579Z</time><hdop>7.25</hdop><vdop>3.625</vdop><extensions><gom:speed>0.557</gom:speed></extensions></trkpt>
   <trkpt lat="59.0717511412" lon="30.0229538627"><ele>98.286</ele><time>2026-04-20T17:52:31.556Z</time><hdop>7.5</hdop><vdop>3.5</vdop><extensions><gom:speed>0.618</gom:speed></extensions></trkpt>
   <trkpt lat="59.0717442261" lon="30.0229527731"><ele>98.282</ele><time>2026-04-20T17:52:32.395Z</time><hdop>7.75</hdop><vdop>3.375</vdop><extensions><gom:speed>0.659</gom:speed></extensions></trkpt>
   <trkpt lat="59.0717394484" lon="30.0229507614"><ele>98.28</ele><time>2026-04-20T17:52:33.025Z</time><hdop>7.875</hdop><vdop>3.5</vdop><extensions><gom:speed>0.655</gom:speed></extensions></trkpt>
   <trkpt lat="59.0717334554" lon="30.0229481631"><ele>98.277</ele><time>2026-04-20T17:52:33.973Z</time><hdop>8.25</hdop><vdop>3.625</vdop><extensions><gom:speed>0.622</gom:speed></extensions></trkpt>
   <trkpt lat="59.0717317371" lon="30.022947744"><ele>98.276</ele><time>2026-04-20T17:52:34.802Z</time><hdop>8.375</hdop><vdop>3.625</vdop><extensions><gom:speed>0.633</gom:speed></extensions></trkpt>
   <trkpt lat="59.071719248" lon="30.0229510967"><ele>98.272</ele><time>2026-04-20T17:52:36.018Z</time><hdop>8.625</hdop><vdop>3.625</vdop><extensions><gom:speed>0.688</gom:speed></extensions></trkpt>
   <trkpt lat="59.0717131293" lon="30.0229519349"><ele>98.255</ele><time>2026-04-20T17:52:36.956Z</time><hdop>8.875</hdop><vdop>3.625</vdop><extensions><gom:speed>0.657</gom:speed></extensions></trkpt>
   <trkpt lat="59.0717259536" lon="30.0229538627"><ele>98.567</ele><time>2026-04-20T17:52:37.973Z</time><hdop>8.75</hdop><vdop>2.625</vdop><extensions><gom:speed>0.575</gom:speed></extensions></trkpt>
   <trkpt lat="59.0717351318" lon="30.0229725544"><ele>98.471</ele><time>2026-04-20T17:52:39.075Z</time><hdop>8.375</hdop><vdop>2.5</vdop><extensions><gom:speed>0.524</gom:speed></extensions></trkpt>
   <trkpt lat="59.0717374368" lon="30.0229854625"><ele>98.413</ele><time>2026-04-20T17:52:40.037Z</time><hdop>7.875</hdop><vdop>2.5</vdop><extensions><gom:speed>0.499</gom:speed></extensions></trkpt>
   <trkpt lat="59.071735928" lon="30.0229947664"><ele>98.479</ele><time>2026-04-20T17:52:40.963Z</time><hdop>7.375</hdop><vdop>4.25</vdop><extensions><gom:speed>0.477</gom:speed></extensions></trkpt>
   <trkpt lat="59.0717290549" lon="30.0230207503"><ele>98.287</ele><time>2026-04-20T17:52:41.923Z</time><hdop>6.875</hdop><vdop>4.75</vdop><extensions><gom:speed>0.492</gom:speed></extensions></trkpt>
   <trkpt lat="59.0717170268" lon="30.0230427947"><ele>98.752</ele><time>2026-04-20T17:52:43.076Z</time><hdop>6.25</hdop><vdop>4.75</vdop><extensions><gom:speed>0.415</gom:speed></extensions></trkpt>
   <trkpt lat="59.0717079325" lon="30.0230575469"><ele>98.98</ele><time>2026-04-20T17:52:44.075Z</time><hdop>6.125</hdop><vdop>4.875</vdop><extensions><gom:speed>0.377</gom:speed></extensions></trkpt>
   <trkpt lat="59.0716989219" lon="30.0230719638"><ele>98.947</ele><time>2026-04-20T17:52:45.075Z</time><hdop>6.0</hdop><vdop>4.75</vdop><extensions><gom:speed>0.334</gom:speed></extensions></trkpt>
   <trkpt lat="59.0716906238" lon="30.0230847881"><ele>98.741</ele><time>2026-04-20T17:52:46.076Z</time><hdop>6.0</hdop><vdop>4.75</vdop><extensions><gom:speed>0.313</gom:speed></extensions></trkpt>
   <trkpt lat="59.0716838345" lon="30.0230982829"><ele>98.532</ele><time>2026-04-20T17:52:47.075Z</time><hdop>6.0</hdop><vdop>4.75</vdop><extensions><gom:speed>0.28</gom:speed></extensions></trkpt>
   <trkpt lat="59.0716786377" lon="30.023107503"><ele>98.408</ele><time>2026-04-20T17:52:48.054Z</time><hdop>6.0</hdop><vdop>4.75</vdop><extensions><gom:speed>0.356</gom:speed></extensions></trkpt>
   <trkpt lat="59.0716724351" lon="30.0231183995"><ele>98.542</ele><time>2026-04-20T17:52:48.881Z</time><hdop>6.0</hdop><vdop>4.875</vdop><extensions><gom:speed>0.419</gom:speed></extensions></trkpt>
   <trkpt lat="59.0716657296" lon="30.0231349119"><ele>98.505</ele><time>2026-04-20T17:52:50.075Z</time><hdop>5.875</hdop><vdop>5.25</vdop><extensions><gom:speed>0.333</gom:speed></extensions></trkpt>
   <trkpt lat="59.0716658553" lon="30.0231387675"><ele>98.615</ele><time>2026-04-20T17:52:51.032Z</time><hdop>5.75</hdop><vdop>5.5</vdop><extensions><gom:speed>0.185</gom:speed></extensions></trkpt>
   <trkpt lat="59.0716675317" lon="30.0231370911"><ele>98.815</ele><time>2026-04-20T17:52:52.098Z</time><hdop>5.625</hdop><vdop>5.5</vdop><extensions><gom:speed>0.129</gom:speed></extensions></trkpt>
   <trkpt lat="59.0716671545" lon="30.0231403601"><ele>98.941</ele><time>2026-04-20T17:52:53.045Z</time><hdop>5.375</hdop><vdop>5.75</vdop><extensions><gom:speed>0.081</gom:speed></extensions></trkpt>
   <trkpt lat="59.0716667354" lon="30.0231429585"><ele>99.011</ele><time>2026-04-20T17:52:53.993Z</time><hdop>5.25</hdop><vdop>5.75</vdop><extensions><gom:speed>0.076</gom:speed></extensions></trkpt>
   <trkpt lat="59.0716663163" lon="30.023142707"><ele>99.067</ele><time>2026-04-20T17:52:54.940Z</time><hdop>5.25</hdop><vdop>5.625</vdop><extensions><gom:speed>0.068</gom:speed></extensions></trkpt>
   <trkpt lat="59.071666023" lon="30.0231430423"><ele>99.12</ele><time>2026-04-20T17:52:56.006Z</time><hdop>5.25</hdop><vdop>5.25</vdop><extensions><gom:speed>0.099</gom:speed></extensions></trkpt>
   <trkpt lat="59.0716659391" lon="30.0231437967"><ele>99.151</ele><time>2026-04-20T17:52:56.621Z</time><hdop>5.25</hdop><vdop>5.25</vdop><extensions><gom:speed>0.07</gom:speed></extensions></trkpt>
   <trkpt lat="59.0716657296" lon="30.0231456407"><ele>99.065</ele><time>2026-04-20T17:52:57.599Z</time><hdop>5.375</hdop><vdop>5.5</vdop><extensions><gom:speed>0.069</gom:speed></extensions></trkpt>
   <trkpt lat="59.0716643466" lon="30.0231526815"><ele>99.195</ele><time>2026-04-20T17:52:58.075Z</time><hdop>5.375</hdop><vdop>3.5</vdop><extensions><gom:speed>0.114</gom:speed></extensions></trkpt>
   <trkpt lat="59.0716637179" lon="30.0231567886"><ele>99.273</ele><time>2026-04-20T17:52:58.615Z</time><hdop>5.375</hdop><vdop>3.5</vdop><extensions><gom:speed>0.118</gom:speed></extensions></trkpt>
   <trkpt lat="59.071661832" lon="30.0231646676"><ele>99.163</ele><time>2026-04-20T17:52:59.075Z</time><hdop>5.25</hdop><vdop>2.875</vdop><extensions><gom:speed>0.153</gom:speed></extensions></trkpt>
   <trkpt lat="59.0716606166" lon="30.0231694453"><ele>99.097</ele><time>2026-04-20T17:52:59.553Z</time><hdop>5.25</hdop><vdop>2.875</vdop><extensions><gom:speed>0.167</gom:speed></extensions></trkpt>
   <trkpt lat="59.0716583535" lon="30.0231771566"><ele>99.165</ele><time>2026-04-20T17:53:00.075Z</time><hdop>5.25</hdop><vdop>2.625</vdop><extensions><gom:speed>0.18</gom:speed></extensions></trkpt>
   <trkpt lat="59.0716543302" lon="30.0231905677"><ele>99.193</ele><time>2026-04-20T17:53:01.075Z</time><hdop>5.125</hdop><vdop>2.5</vdop><extensions><gom:speed>0.277</gom:speed></extensions></trkpt>
   <trkpt lat="59.0716517318" lon="30.0231976085"><ele>99.21</ele><time>2026-04-20T17:53:01.734Z</time><hdop>5.0</hdop><vdop>2.5</vdop><extensions><gom:speed>0.338</gom:speed></extensions></trkpt>
   <trkpt lat="59.0716456549" lon="30.0232104328"><ele>99.085</ele><time>2026-04-20T17:53:02.634Z</time><hdop>4.75</hdop><vdop>2.5</vdop><extensions><gom:speed>0.413</gom:speed></extensions></trkpt>
   <trkpt lat="59.0716399552" lon="30.0232216646"><ele>98.796</ele><time>2026-04-20T17:53:03.393Z</time><hdop>4.625</hdop><vdop>2.5</vdop><extensions><gom:speed>0.453</gom:speed></extensions></trkpt>
   <trkpt lat="59.071635429" lon="30.0232323096"><ele>98.704</ele><time>2026-04-20T17:53:04.075Z</time><hdop>4.625</hdop><vdop>2.5</vdop><extensions><gom:speed>0.522</gom:speed></extensions></trkpt>
   <trkpt lat="59.0716295198" lon="30.0232496601"><ele>98.566</ele><time>2026-04-20T17:53:05.075Z</time><hdop>4.5</hdop><vdop>2.5</vdop><extensions><gom:speed>0.591</gom:speed></extensions></trkpt>
   <trkpt lat="59.07162755" lon="30.0232551922"><ele>98.483</ele><time>2026-04-20T17:53:05.720Z</time><hdop>4.5</hdop><vdop>2.5</vdop><extensions><gom:speed>0.606</gom:speed></extensions></trkpt>
   <trkpt lat="59.0716203416" lon="30.0232724589"><ele>98.229</ele><time>2026-04-20T17:53:06.296Z</time><hdop>4.5</hdop><vdop>2.5</vdop><extensions><gom:speed>0.665</gom:speed></extensions></trkpt>
   <trkpt lat="59.0716144323" lon="30.0232794997"><ele>98.025</ele><time>2026-04-20T17:53:07.075Z</time><hdop>4.375</hdop><vdop>2.5</vdop><extensions><gom:speed>0.626</gom:speed></extensions></trkpt>
   <trkpt lat="59.0716062181" lon="30.0232857023"><ele>97.826</ele><time>2026-04-20T17:53:08.075Z</time><hdop>4.375</hdop><vdop>5.0</vdop><extensions><gom:speed>0.626</gom:speed></extensions></trkpt>
   <trkpt lat="59.0716005184" lon="30.0232894741"><ele>97.812</ele><time>2026-04-20T17:53:09.038Z</time><hdop>4.5</hdop><vdop>4.875</vdop><extensions><gom:speed>0.57</gom:speed></extensions></trkpt>
   <trkpt lat="59.0715949444" lon="30.0232951738"><ele>97.797</ele><time>2026-04-20T17:53:10.076Z</time><hdop>4.625</hdop><vdop>4.875</vdop><extensions><gom:speed>0.527</gom:speed></extensions></trkpt>
   <trkpt lat="59.0715903344" lon="30.0232984428"><ele>97.801</ele><time>2026-04-20T17:53:10.933Z</time><hdop>4.75</hdop><vdop>5.125</vdop><extensions><gom:speed>0.5</gom:speed></extensions></trkpt>
   <trkpt lat="59.0715897476" lon="30.0232987781"><ele>97.804</ele><time>2026-04-20T17:53:11.880Z</time><hdop>4.75</hdop><vdop>5.125</vdop><extensions><gom:speed>0.437</gom:speed></extensions></trkpt>
   <trkpt lat="59.0715845509" lon="30.023298359"><ele>97.737</ele><time>2026-04-20T17:53:13.075Z</time><hdop>5.0</hdop><vdop>4.875</vdop><extensions><gom:speed>0.252</gom:speed></extensions></trkpt>
   <trkpt lat="59.0715857243" lon="30.023296012"><ele>97.603</ele><time>2026-04-20T17:53:14.012Z</time><hdop>5.0</hdop><vdop>4.75</vdop><extensions><gom:speed>0.133</gom:speed></extensions></trkpt>
   <trkpt lat="59.0715833355" lon="30.0232948386"><ele>97.599</ele><time>2026-04-20T17:53:15.075Z</time><hdop>5.0</hdop><vdop>4.625</vdop><extensions><gom:speed>0.126</gom:speed></extensions></trkpt>
   <trkpt lat="59.0715827488" lon="30.0232955929"><ele>97.596</ele><time>2026-04-20T17:53:15.900Z</time><hdop>5.125</hdop><vdop>4.625</vdop><extensions><gom:speed>0.142</gom:speed></extensions></trkpt>
   <trkpt lat="59.0715824554" lon="30.0232968502"><ele>97.558</ele><time>2026-04-20T17:53:16.779Z</time><hdop>5.125</hdop><vdop>4.5</vdop><extensions><gom:speed>0.152</gom:speed></extensions></trkpt>
   <trkpt lat="59.0715820363" lon="30.0232991972"><ele>97.587</ele><time>2026-04-20T17:53:17.777Z</time><hdop>5.125</hdop><vdop>4.125</vdop><extensions><gom:speed>0.197</gom:speed></extensions></trkpt>
   <trkpt lat="59.0715773424" lon="30.0233019632"><ele>97.621</ele><time>2026-04-20T17:53:18.988Z</time><hdop>5.125</hdop><vdop>3.5</vdop><extensions><gom:speed>0.222</gom:speed></extensions></trkpt>
   <trkpt lat="59.0715743249" lon="30.0233026337"><ele>97.675</ele><time>2026-04-20T17:53:20.075Z</time><hdop>5.125</hdop><vdop>3.375</vdop><extensions><gom:speed>0.185</gom:speed></extensions></trkpt>
   <trkpt lat="59.0715712236" lon="30.0233028852"><ele>97.722</ele><time>2026-04-20T17:53:21.075Z</time><hdop>5.125</hdop><vdop>3.125</vdop><extensions><gom:speed>0.132</gom:speed></extensions></trkpt>
   <trkpt lat="59.0715686252" lon="30.023302969"><ele>97.752</ele><time>2026-04-20T17:53:22.075Z</time><hdop>5.125</hdop><vdop>2.875</vdop><extensions><gom:speed>0.107</gom:speed></extensions></trkpt>
   <trkpt lat="59.0715662364" lon="30.0233031367"><ele>97.774</ele><time>2026-04-20T17:53:23.075Z</time><hdop>4.875</hdop><vdop>2.875</vdop><extensions><gom:speed>0.094</gom:speed></extensions></trkpt>
   <trkpt lat="59.0715648534" lon="30.023304813"><ele>97.809</ele><time>2026-04-20T17:53:24.075Z</time><hdop>4.75</hdop><vdop>2.875</vdop><extensions><gom:speed>0.125</gom:speed></extensions></trkpt>
   <trkpt lat="59.0715639314" lon="30.0233049807"><ele>97.83</ele><time>2026-04-20T17:53:24.715Z</time><hdop>4.625</hdop><vdop>2.875</vdop><extensions><gom:speed>0.112</gom:speed></extensions></trkpt>
   <trkpt lat="59.0715634285" lon="30.0233040587"><ele>97.848</ele><time>2026-04-20T17:53:25.861Z</time><hdop>4.625</hdop><vdop>2.875</vdop><extensions><gom:speed>0.112</gom:speed></extensions></trkpt>
   <trkpt lat="59.0715628417" lon="30.0233035557"><ele>97.843</ele><time>2026-04-20T17:53:26.841Z</time><hdop>4.5</hdop><vdop>3.125</vdop><extensions><gom:speed>0.112</gom:speed></extensions></trkpt>
   <trkpt lat="59.0715609558" lon="30.0233035557"><ele>97.839</ele><time>2026-04-20T17:53:28.012Z</time><hdop>4.375</hdop><vdop>3.125</vdop><extensions><gom:speed>0.137</gom:speed></extensions></trkpt>
   <trkpt lat="59.0715565553" lon="30.0233082496"><ele>98.077</ele><time>2026-04-20T17:53:29.020Z</time><hdop>4.375</hdop><vdop>2.625</vdop><extensions><gom:speed>0.191</gom:speed></extensions></trkpt>
   <trkpt lat="59.0715503527" lon="30.0233144522"><ele>98.29</ele><time>2026-04-20T17:53:30.098Z</time><hdop>4.25</hdop><vdop>2.5</vdop><extensions><gom:speed>0.222</gom:speed></extensions></trkpt>
   <trkpt lat="59.0715385342" lon="30.0233230856"><ele>98.228</ele><time>2026-04-20T17:53:31.075Z</time><hdop>4.25</hdop><vdop>2.5</vdop><extensions><gom:speed>0.314</gom:speed></extensions></trkpt>
   <trkpt lat="59.071531242" lon="30.0233250972"><ele>97.801</ele><time>2026-04-20T17:53:32.075Z</time><hdop>4.25</hdop><vdop>2.5</vdop><extensions><gom:speed>0.357</gom:speed></extensions></trkpt>
   <trkpt lat="59.0715272186" lon="30.0233252649"><ele>97.546</ele><time>2026-04-20T17:53:32.722Z</time><hdop>4.25</hdop><vdop>2.5</vdop><extensions><gom:speed>0.376</gom:speed></extensions></trkpt>
   <trkpt lat="59.0715201359" lon="30.0233283662"><ele>96.999</ele><time>2026-04-20T17:53:33.936Z</time><hdop>4.25</hdop><vdop>2.5</vdop><extensions><gom:speed>0.319</gom:speed></extensions></trkpt>
   <trkpt lat="59.0715133466" lon="30.0233345688"><ele>96.544</ele><time>2026-04-20T17:53:34.874Z</time><hdop>4.25</hdop><vdop>2.5</vdop><extensions><gom:speed>0.294</gom:speed></extensions></trkpt>
   <trkpt lat="59.0715076469" lon="30.0233402685"><ele>95.932</ele><time>2026-04-20T17:53:35.941Z</time><hdop>4.25</hdop><vdop>2.5</vdop><extensions><gom:speed>0.267</gom:speed></extensions></trkpt>
   <trkpt lat="59.0715037493" lon="30.0233447109"><ele>95.609</ele><time>2026-04-20T17:53:36.638Z</time><hdop>4.25</hdop><vdop>2.5</vdop><extensions><gom:speed>0.284</gom:speed></extensions></trkpt>
   <trkpt lat="59.0714949483" lon="30.0233563617"><ele>95.527</ele><time>2026-04-20T17:53:38.062Z</time><hdop>4.375</hdop><vdop>2.5</vdop><extensions><gom:speed>0.317</gom:speed></extensions></trkpt>
   <trkpt lat="59.0714846386" lon="30.0233692699"><ele>95.431</ele><time>2026-04-20T17:53:39.075Z</time><hdop>4.375</hdop><vdop>2.5</vdop><extensions><gom:speed>0.349</gom:speed></extensions></trkpt>
   <trkpt lat="59.0714769272" lon="30.0233789929"><ele>95.389</ele><time>2026-04-20T17:53:40.075Z</time><hdop>4.375</hdop><vdop>4.125</vdop><extensions><gom:speed>0.348</gom:speed></extensions></trkpt>
   <trkpt lat="59.0714721495" lon="30.0233836029"><ele>95.489</ele><time>2026-04-20T17:53:41.021Z</time><hdop>4.5</hdop><vdop>4.125</vdop><extensions><gom:speed>0.395</gom:speed></extensions></trkpt>
   <trkpt lat="59.0714642286" lon="30.0233917334"><ele>95.617</ele><time>2026-04-20T17:53:42.075Z</time><hdop>4.625</hdop><vdop>4.25</vdop><extensions><gom:speed>0.465</gom:speed></extensions></trkpt>
   <trkpt lat="59.071461756" lon="30.0233951699"><ele>95.694</ele><time>2026-04-20T17:53:42.915Z</time><hdop>4.75</hdop><vdop>4.25</vdop><extensions><gom:speed>0.47</gom:speed></extensions></trkpt>
   <trkpt lat="59.0714544218" lon="30.0234079104"><ele>95.759</ele><time>2026-04-20T17:53:43.996Z</time><hdop>4.875</hdop><vdop>4.25</vdop><extensions><gom:speed>0.507</gom:speed></extensions></trkpt>
   <trkpt lat="59.0714483449" lon="30.0234221597"><ele>95.764</ele><time>2026-04-20T17:53:45.004Z</time><hdop>5.125</hdop><vdop>4.125</vdop><extensions><gom:speed>0.548</gom:speed></extensions></trkpt>
   <trkpt lat="59.0714451179" lon="30.0234343134"><ele>95.789</ele><time>2026-04-20T17:53:46.019Z</time><hdop>5.375</hdop><vdop>4.125</vdop><extensions><gom:speed>0.593</gom:speed></extensions></trkpt>
   <trkpt lat="59.0714375323" lon="30.0234551844"><ele>96.211</ele><time>2026-04-20T17:53:47.075Z</time><hdop>5.5</hdop><vdop>2.75</vdop><extensions><gom:speed>0.554</gom:speed></extensions></trkpt>
   <trkpt lat="59.071433048" lon="30.0234723673"><ele>96.88</ele><time>2026-04-20T17:53:48.075Z</time><hdop>5.625</hdop><vdop>2.5</vdop><extensions><gom:speed>0.506</gom:speed></extensions></trkpt>
   <trkpt lat="59.0714289408" lon="30.0234888796"><ele>96.945</ele><time>2026-04-20T17:53:49.075Z</time><hdop>5.625</hdop><vdop>2.5</vdop><extensions><gom:speed>0.497</gom:speed></extensions></trkpt>
   <trkpt lat="59.0714234507" lon="30.0235075713"><ele>96.902</ele><time>2026-04-20T17:53:50.075Z</time><hdop>5.5</hdop><vdop>2.5</vdop><extensions><gom:speed>0.459</gom:speed></extensions></trkpt>
   <trkpt lat="59.0714208523" lon="30.0235251733"><ele>96.847</ele><time>2026-04-20T17:53:51.075Z</time><hdop>5.375</hdop><vdop>2.5</vdop><extensions><gom:speed>0.481</gom:speed></extensions></trkpt>
   <trkpt lat="59.0714182539" lon="30.0235421885"><ele>96.42</ele><time>2026-04-20T17:53:52.075Z</time><hdop>5.375</hdop><vdop>2.5</vdop><extensions><gom:speed>0.461</gom:speed></extensions></trkpt>
   <trkpt lat="59.0714137277" lon="30.023556773"><ele>96.173</ele><time>2026-04-20T17:53:53.075Z</time><hdop>5.25</hdop><vdop>2.5</vdop><extensions><gom:speed>0.419</gom:speed></extensions></trkpt>
   <trkpt lat="59.07140895" lon="30.0235683401"><ele>95.855</ele><time>2026-04-20T17:53:54.075Z</time><hdop>5.125</hdop><vdop>2.5</vdop><extensions><gom:speed>0.485</gom:speed></extensions></trkpt>
   <trkpt lat="59.0714035437" lon="30.0235780631"><ele>95.744</ele><time>2026-04-20T17:53:55.075Z</time><hdop>5.0</hdop><vdop>2.5</vdop><extensions><gom:speed>0.499</gom:speed></extensions></trkpt>
   <trkpt lat="59.0713970477" lon="30.0235875346"><ele>95.599</ele><time>2026-04-20T17:53:56.075Z</time><hdop>4.875</hdop><vdop>4.625</vdop><extensions><gom:speed>0.496</gom:speed></extensions></trkpt>
   <trkpt lat="59.0713970477" lon="30.0235966709"><ele>95.513</ele><time>2026-04-20T17:53:56.680Z</time><hdop>4.75</hdop><vdop>4.625</vdop><extensions><gom:speed>0.698</gom:speed></extensions></trkpt>
   <trkpt lat="59.0714045495" lon="30.0236084056"><ele>95.62</ele><time>2026-04-20T17:53:57.959Z</time><hdop>4.75</hdop><vdop>4.75</vdop><extensions><gom:speed>0.65</gom:speed></extensions></trkpt>
   <trkpt lat="59.0714067288" lon="30.0236106687"><ele>95.878</ele><time>2026-04-20T17:53:59.026Z</time><hdop>4.75</hdop><vdop>4.625</vdop><extensions><gom:speed>0.441</gom:speed></extensions></trkpt>
   <trkpt lat="59.0714049267" lon="30.0236084056"><ele>96.127</ele><time>2026-04-20T17:53:59.974Z</time><hdop>4.75</hdop><vdop>4.5</vdop><extensions><gom:speed>0.234</gom:speed></extensions></trkpt>
   <trkpt lat="59.0714019511" lon="30.0236037955"><ele>96.279</ele><time>2026-04-20T17:54:01.040Z</time><hdop>4.875</hdop><vdop>4.5</vdop><extensions><gom:speed>0.132</gom:speed></extensions></trkpt>
   <trkpt lat="59.0713995204" lon="30.0236001913"><ele>96.325</ele><time>2026-04-20T17:54:01.988Z</time><hdop>5.0</hdop><vdop>4.625</vdop><extensions><gom:speed>0.087</gom:speed></extensions></trkpt>
   <trkpt lat="59.0713986403" lon="30.0236009457"><ele>96.419</ele><time>2026-04-20T17:54:03.053Z</time><hdop>5.125</hdop><vdop>4.75</vdop><extensions><gom:speed>0.069</gom:speed></extensions></trkpt>
   <trkpt lat="59.0713991432" lon="30.0235996046"><ele>96.483</ele><time>2026-04-20T17:54:04.001Z</time><hdop>5.125</hdop><vdop>4.875</vdop><extensions><gom:speed>0.072</gom:speed></extensions></trkpt>
   <trkpt lat="59.0713996461" lon="30.0236006104"><ele>96.544</ele><time>2026-04-20T17:54:04.949Z</time><hdop>5.25</hdop><vdop>5.0</vdop><extensions><gom:speed>0.067</gom:speed></extensions></trkpt>
   <trkpt lat="59.0713995204" lon="30.0236012809"><ele>96.652</ele><time>2026-04-20T17:54:06.014Z</time><hdop>5.25</hdop><vdop>5.125</vdop><extensions><gom:speed>0.065</gom:speed></extensions></trkpt>
   <trkpt lat="59.0713994365" lon="30.0236015324"><ele>96.738</ele><time>2026-04-20T17:54:06.962Z</time><hdop>5.375</hdop><vdop>5.0</vdop><extensions><gom:speed>0.082</gom:speed></extensions></trkpt>
   <trkpt lat="59.071399227" lon="30.0236014486"><ele>96.789</ele><time>2026-04-20T17:54:07.674Z</time><hdop>5.5</hdop><vdop>5.0</vdop><extensions><gom:speed>0.07</gom:speed></extensions></trkpt>
   <trkpt lat="59.0713983469" lon="30.0236028735"><ele>96.797</ele><time>2026-04-20T17:54:09.037Z</time><hdop>5.625</hdop><vdop>4.875</vdop><extensions><gom:speed>0.13</gom:speed></extensions></trkpt>
   <trkpt lat="59.0713966286" lon="30.0236094114"><ele>96.575</ele><time>2026-04-20T17:54:09.897Z</time><hdop>5.625</hdop><vdop>3.75</vdop><extensions><gom:speed>0.144</gom:speed></extensions></trkpt>
   <trkpt lat="59.0713935273" lon="30.023619805"><ele>96.36</ele><time>2026-04-20T17:54:10.953Z</time><hdop>5.625</hdop><vdop>3.125</vdop><extensions><gom:speed>0.203</gom:speed></extensions></trkpt>
   <trkpt lat="59.0713897554" lon="30.0236367364"><ele>96.266</ele><time>2026-04-20T17:54:12.075Z</time><hdop>5.375</hdop><vdop>2.5</vdop><extensions><gom:speed>0.237</gom:speed></extensions></trkpt>
   <trkpt lat="59.0713863189" lon="30.0236490578"><ele>96.113</ele><time>2026-04-20T17:54:13.075Z</time><hdop>5.125</hdop><vdop>2.5</vdop><extensions><gom:speed>0.296</gom:speed></extensions></trkpt>
   <trkpt lat="59.0713853549" lon="30.0236522429"><ele>96.021</ele><time>2026-04-20T17:54:13.833Z</time><hdop>5.0</hdop><vdop>2.5</vdop><extensions><gom:speed>0.306</gom:speed></extensions></trkpt>
   <trkpt lat="59.0713804515" lon="30.0236657378"><ele>95.941</ele><time>2026-04-20T17:54:14.615Z</time><hdop>4.875</hdop><vdop>2.5</vdop><extensions><gom:speed>0.39</gom:speed></extensions></trkpt>
   <trkpt lat="59.0713781465" lon="30.0236724433"><ele>95.771</ele><time>2026-04-20T17:54:15.075Z</time><hdop>4.75</hdop><vdop>2.5</vdop><extensions><gom:speed>0.404</gom:speed></extensions></trkpt>
   <trkpt lat="59.0713726564" lon="30.0236835074"><ele>95.263</ele><time>2026-04-20T17:54:16.075Z</time><hdop>4.625</hdop><vdop>2.5</vdop><extensions><gom:speed>0.467</gom:speed></extensions></trkpt>
   <trkpt lat="59.0713662442" lon="30.0236946553"><ele>94.854</ele><time>2026-04-20T17:54:17.075Z</time><hdop>4.625</hdop><vdop>2.5</vdop><extensions><gom:speed>0.602</gom:speed></extensions></trkpt>
   <trkpt lat="59.0713585328" lon="30.0237039593"><ele>94.857</ele><time>2026-04-20T17:54:18.075Z</time><hdop>4.625</hdop><vdop>2.5</vdop><extensions><gom:speed>0.661</gom:speed></extensions></trkpt>
   <trkpt lat="59.0713512406" lon="30.0237132632"><ele>94.977</ele><time>2026-04-20T17:54:19.075Z</time><hdop>4.75</hdop><vdop>2.5</vdop><extensions><gom:speed>0.683</gom:speed></extensions></trkpt>
   <trkpt lat="59.0713434454" lon="30.0237218965"><ele>95.247</ele><time>2026-04-20T17:54:20.075Z</time><hdop>4.75</hdop><vdop>2.5</vdop><extensions><gom:speed>0.688</gom:speed></extensions></trkpt>
   <trkpt lat="59.0713368237" lon="30.0237319548"><ele>95.554</ele><time>2026-04-20T17:54:21.075Z</time><hdop>4.75</hdop><vdop>2.5</vdop><extensions><gom:speed>0.628</gom:speed></extensions></trkpt>
   <trkpt lat="59.0713313336" lon="30.0237432704"><ele>95.668</ele><time>2026-04-20T17:54:22.075Z</time><hdop>4.625</hdop><vdop>2.5</vdop><extensions><gom:speed>0.606</gom:speed></extensions></trkpt>
   <trkpt lat="59.0713262206" lon="30.0237537478"><ele>95.641</ele><time>2026-04-20T17:54:23.075Z</time><hdop>4.625</hdop><vdop>2.5</vdop><extensions><gom:speed>0.627</gom:speed></extensions></trkpt>
   <trkpt lat="59.0713231193" lon="30.0237576873"><ele>95.624</ele><time>2026-04-20T17:54:23.637Z</time><hdop>4.625</hdop><vdop>2.5</vdop><extensions><gom:speed>0.617</gom:speed></extensions></trkpt>
   <trkpt lat="59.0713173358" lon="30.023764309"><ele>95.545</ele><time>2026-04-20T17:54:24.773Z</time><hdop>4.625</hdop><vdop>2.5</vdop><extensions><gom:speed>0.558</gom:speed></extensions></trkpt>
   <trkpt lat="59.0713136478" lon="30.0237662368"><ele>95.365</ele><time>2026-04-20T17:54:25.681Z</time><hdop>4.5</hdop><vdop>2.5</vdop><extensions><gom:speed>0.5</gom:speed></extensions></trkpt>
   <trkpt lat="59.0713117199" lon="30.0237653148"><ele>95.364</ele><time>2026-04-20T17:54:26.152Z</time><hdop>4.5</hdop><vdop>2.5</vdop><extensions><gom:speed>0.504</gom:speed></extensions></trkpt>
   <trkpt lat="59.0713069422" lon="30.0237635546"><ele>95.585</ele><time>2026-04-20T17:54:27.076Z</time><hdop>4.5</hdop><vdop>2.5</vdop><extensions><gom:speed>0.48</gom:speed></extensions></trkpt>
   <trkpt lat="59.0713053497" lon="30.0237641413"><ele>95.716</ele><time>2026-04-20T17:54:27.655Z</time><hdop>4.375</hdop><vdop>2.5</vdop><extensions><gom:speed>0.411</gom:speed></extensions></trkpt>
   <trkpt lat="59.0713040505" lon="30.0237654824"><ele>95.65</ele><time>2026-04-20T17:54:28.320Z</time><hdop>4.375</hdop><vdop>2.5</vdop><extensions><gom:speed>0.397</gom:speed></extensions></trkpt>
   <trkpt lat="59.0713025417" lon="30.0237674941"><ele>95.601</ele><time>2026-04-20T17:54:29.075Z</time><hdop>4.375</hdop><vdop>2.5</vdop><extensions><gom:speed>0.359</gom:speed></extensions></trkpt>
   <trkpt lat="59.0713006558" lon="30.0237705954"><ele>95.808</ele><time>2026-04-20T17:54:30.075Z</time><hdop>4.375</hdop><vdop>2.5</vdop><extensions><gom:speed>0.355</gom:speed></extensions></trkpt>
   <trkpt lat="59.0712981412" lon="30.0237747025"><ele>95.929</ele><time>2026-04-20T17:54:31.075Z</time><hdop>4.375</hdop><vdop>2.5</vdop><extensions><gom:speed>0.422</gom:speed></extensions></trkpt>
   <trkpt lat="59.0712948304" lon="30.0237815757"><ele>96.177</ele><time>2026-04-20T17:54:32.075Z</time><hdop>4.375</hdop><vdop>2.5</vdop><extensions><gom:speed>0.495</gom:speed></extensions></trkpt>
   <trkpt lat="59.0712918548" lon="30.023792556"><ele>96.118</ele><time>2026-04-20T17:54:33.075Z</time><hdop>4.375</hdop><vdop>2.5</vdop><extensions><gom:speed>0.484</gom:speed></extensions></trkpt>
   <trkpt lat="59.0712900527" lon="30.0237997644"><ele>96.213</ele><time>2026-04-20T17:54:34.075Z</time><hdop>4.375</hdop><vdop>2.5</vdop><extensions><gom:speed>0.499</gom:speed></extensions></trkpt>
   <trkpt lat="59.0712887535" lon="30.0238109962"><ele>96.516</ele><time>2026-04-20T17:54:35.075Z</time><hdop>4.375</hdop><vdop>2.5</vdop><extensions><gom:speed>0.509</gom:speed></extensions></trkpt>
   <trkpt lat="59.071288041" lon="30.023824491"><ele>96.836</ele><time>2026-04-20T17:54:36.075Z</time><hdop>4.375</hdop><vdop>2.5</vdop><extensions><gom:speed>0.559</gom:speed></extensions></trkpt>
   <trkpt lat="59.0712877477" lon="30.0238375668"><ele>96.851</ele><time>2026-04-20T17:54:37.076Z</time><hdop>4.5</hdop><vdop>2.5</vdop><extensions><gom:speed>0.551</gom:speed></extensions></trkpt>
   <trkpt lat="59.0712868257" lon="30.0238483795"><ele>96.994</ele><time>2026-04-20T17:54:38.075Z</time><hdop>4.5</hdop><vdop>2.5</vdop><extensions><gom:speed>0.49</gom:speed></extensions></trkpt>
   <trkpt lat="59.0712862389" lon="30.0238535762"><ele>97.079</ele><time>2026-04-20T17:54:38.590Z</time><hdop>4.5</hdop><vdop>2.5</vdop><extensions><gom:speed>0.478</gom:speed></extensions></trkpt>
   <trkpt lat="59.0712850236" lon="30.0238654785"><ele>97.337</ele><time>2026-04-20T17:54:39.075Z</time><hdop>4.5</hdop><vdop>2.5</vdop><extensions><gom:speed>0.492</gom:speed></extensions></trkpt>
   <trkpt lat="59.0712848559" lon="30.0238772132"><ele>97.348</ele><time>2026-04-20T17:54:40.075Z</time><hdop>4.625</hdop><vdop>2.5</vdop><extensions><gom:speed>0.502</gom:speed></extensions></trkpt>
   <trkpt lat="59.0712849397" lon="30.0238910433"><ele>97.196</ele><time>2026-04-20T17:54:41.075Z</time><hdop>4.625</hdop><vdop>2.5</vdop><extensions><gom:speed>0.519</gom:speed></extensions></trkpt>
   <trkpt lat="59.0712851493" lon="30.0239063822"><ele>97.132</ele><time>2026-04-20T17:54:42.076Z</time><hdop>4.625</hdop><vdop>2.5</vdop><extensions><gom:speed>0.533</gom:speed></extensions></trkpt>
   <trkpt lat="59.0712844368" lon="30.0239223917"><ele>97.164</ele><time>2026-04-20T17:54:43.075Z</time><hdop>4.625</hdop><vdop>2.5</vdop><extensions><gom:speed>0.533</gom:speed></extensions></trkpt>
   <trkpt lat="59.0712819222" lon="30.0239380658"><ele>97.221</ele><time>2026-04-20T17:54:44.076Z</time><hdop>4.625</hdop><vdop>2.5</vdop><extensions><gom:speed>0.514</gom:speed></extensions></trkpt>
   <trkpt lat="59.0712808326" lon="30.0239425082"><ele>97.254</ele><time>2026-04-20T17:54:44.750Z</time><hdop>4.625</hdop><vdop>2.5</vdop><extensions><gom:speed>0.488</gom:speed></extensions></trkpt>
   <trkpt lat="59.0712765578" lon="30.0239560031"><ele>97.352</ele><time>2026-04-20T17:54:45.334Z</time><hdop>4.625</hdop><vdop>2.5</vdop><extensions><gom:speed>0.505</gom:speed></extensions></trkpt>
   <trkpt lat="59.0712733308" lon="30.0239645526"><ele>97.464</ele><time>2026-04-20T17:54:46.075Z</time><hdop>4.625</hdop><vdop>2.5</vdop><extensions><gom:speed>0.505</gom:speed></extensions></trkpt>
   <trkpt lat="59.071270439" lon="30.0239716772"><ele>97.53</ele><time>2026-04-20T17:54:47.013Z</time><hdop>4.5</hdop><vdop>2.5</vdop><extensions><gom:speed>0.457</gom:speed></extensions></trkpt>
   <trkpt lat="59.0712666253" lon="30.023985675"><ele>97.423</ele><time>2026-04-20T17:54:48.075Z</time><hdop>4.375</hdop><vdop>2.5</vdop><extensions><gom:speed>0.427</gom:speed></extensions></trkpt>
   <trkpt lat="59.0712631468" lon="30.0239949789"><ele>97.293</ele><time>2026-04-20T17:54:49.075Z</time><hdop>4.375</hdop><vdop>2.5</vdop><extensions><gom:speed>0.395</gom:speed></extensions></trkpt>
   <trkpt lat="59.0712612189" lon="30.0239987508"><ele>97.216</ele><time>2026-04-20T17:54:49.817Z</time><hdop>4.25</hdop><vdop>2.5</vdop><extensions><gom:speed>0.355</gom:speed></extensions></trkpt>
   <trkpt lat="59.0712592492" lon="30.0240018521"><ele>97.088</ele><time>2026-04-20T17:54:50.909Z</time><hdop>4.25</hdop><vdop>2.5</vdop><extensions><gom:speed>0.323</gom:speed></extensions></trkpt>
   <trkpt lat="59.0712542201" lon="30.0240054563"><ele>96.733</ele><time>2026-04-20T17:54:52.038Z</time><hdop>4.25</hdop><vdop>2.5</vdop><extensions><gom:speed>0.227</gom:speed></extensions></trkpt>
   <trkpt lat="59.0712500291" lon="30.0240135868"><ele>96.573</ele><time>2026-04-20T17:54:53.076Z</time><hdop>4.25</hdop><vdop>4.25</vdop><extensions><gom:speed>0.251</gom:speed></extensions></trkpt>
   <trkpt lat="59.0712490233" lon="30.0240226392"><ele>96.596</ele><time>2026-04-20T17:54:54.075Z</time><hdop>4.25</hdop><vdop>4.25</vdop><extensions><gom:speed>0.29</gom:speed></extensions></trkpt>
   <trkpt lat="59.0712475564" lon="30.0240390677"><ele>96.721</ele><time>2026-04-20T17:54:55.055Z</time><hdop>4.375</hdop><vdop>4.25</vdop><extensions><gom:speed>0.525</gom:speed></extensions></trkpt>
   <trkpt lat="59.0712437427" lon="30.0240452704"><ele>96.685</ele><time>2026-04-20T17:54:56.075Z</time><hdop>4.375</hdop><vdop>4.125</vdop><extensions><gom:speed>0.388</gom:speed></extensions></trkpt>
   <trkpt lat="59.0712408509" lon="30.0240492937"><ele>96.664</ele><time>2026-04-20T17:54:57.042Z</time><hdop>4.625</hdop><vdop>4.125</vdop><extensions><gom:speed>0.397</gom:speed></extensions></trkpt>
   <trkpt lat="59.0712375401" lon="30.0240565021"><ele>96.655</ele><time>2026-04-20T17:54:58.039Z</time><hdop>5.0</hdop><vdop>4.0</vdop><extensions><gom:speed>0.404</gom:speed></extensions></trkpt>
   <trkpt lat="59.0712336425" lon="30.0240632076"><ele>96.713</ele><time>2026-04-20T17:54:58.899Z</time><hdop>5.25</hdop><vdop>3.375</vdop><extensions><gom:speed>0.422</gom:speed></extensions></trkpt>
   <trkpt lat="59.0712270208" lon="30.0240739365"><ele>96.001</ele><time>2026-04-20T17:55:00.034Z</time><hdop>5.375</hdop><vdop>3.0</vdop><extensions><gom:speed>0.459</gom:speed></extensions></trkpt>
   <trkpt lat="59.0712189322" lon="30.0240892753"><ele>95.417</ele><time>2026-04-20T17:55:00.923Z</time><hdop>5.375</hdop><vdop>2.75</vdop><extensions><gom:speed>0.607</gom:speed></extensions></trkpt>
   <trkpt lat="59.0712111371" lon="30.0241033569"><ele>95.083</ele><time>2026-04-20T17:55:02.076Z</time><hdop>5.375</hdop><vdop>2.5</vdop><extensions><gom:speed>0.553</gom:speed></extensions></trkpt>
   <trkpt lat="59.0712066528" lon="30.0241142534"><ele>94.681</ele><time>2026-04-20T17:55:03.075Z</time><hdop>5.25</hdop><vdop>2.5</vdop><extensions><gom:speed>0.497</gom:speed></extensions></trkpt>
   <trkpt lat="59.0712021265" lon="30.024122803"><ele>94.288</ele><time>2026-04-20T17:55:04.076Z</time><hdop>5.0</hdop><vdop>2.5</vdop><extensions><gom:speed>0.405</gom:speed></extensions></trkpt>
   <trkpt lat="59.071199151" lon="30.0241236412"><ele>94.053</ele><time>2026-04-20T17:55:05.057Z</time><hdop>4.875</hdop><vdop>2.5</vdop><extensions><gom:speed>0.413</gom:speed></extensions></trkpt>
   <trkpt lat="59.0711937446" lon="30.0241256528"><ele>93.659</ele><time>2026-04-20T17:55:06.075Z</time><hdop>4.75</hdop><vdop>3.375</vdop><extensions><gom:speed>0.411</gom:speed></extensions></trkpt>
   <trkpt lat="59.0711911462" lon="30.0241233059"><ele>93.413</ele><time>2026-04-20T17:55:07.075Z</time><hdop>4.625</hdop><vdop>3.25</vdop><extensions><gom:speed>0.287</gom:speed></extensions></trkpt>
   <trkpt lat="59.0711912301" lon="30.0241208751"><ele>93.376</ele><time>2026-04-20T17:55:08.076Z</time><hdop>4.5</hdop><vdop>3.25</vdop><extensions><gom:speed>0.197</gom:speed></extensions></trkpt>
   <trkpt lat="59.0711918168" lon="30.024118612"><ele>93.439</ele><time>2026-04-20T17:55:09.075Z</time><hdop>4.375</hdop><vdop>3.375</vdop><extensions><gom:speed>0.149</gom:speed></extensions></trkpt>
   <trkpt lat="59.0711927388" lon="30.0241179415"><ele>93.521</ele><time>2026-04-20T17:55:09.980Z</time><hdop>4.125</hdop><vdop>3.5</vdop><extensions><gom:speed>0.094</gom:speed></extensions></trkpt>
   <trkpt lat="59.0711930322" lon="30.0241168518"><ele>93.573</ele><time>2026-04-20T17:55:11.075Z</time><hdop>4.125</hdop><vdop>3.75</vdop><extensions><gom:speed>0.065</gom:speed></extensions></trkpt>
   <trkpt lat="59.0711930322" lon="30.0241171871"><ele>93.53</ele><time>2026-04-20T17:55:11.994Z</time><hdop>4.125</hdop><vdop>3.875</vdop><extensions><gom:speed>0.08</gom:speed></extensions></trkpt>
   <trkpt lat="59.0711930322" lon="30.0241174385"><ele>93.483</ele><time>2026-04-20T17:55:12.942Z</time><hdop>4.125</hdop><vdop>4.0</vdop><extensions><gom:speed>0.073</gom:speed></extensions></trkpt>
   <trkpt lat="59.0711928226" lon="30.0241181091"><ele>93.46</ele><time>2026-04-20T17:55:14.008Z</time><hdop>4.125</hdop><vdop>4.0</vdop><extensions><gom:speed>0.072</gom:speed></extensions></trkpt>
   <trkpt lat="59.0711928226" lon="30.0241168518"><ele>93.422</ele><time>2026-04-20T17:55:15.075Z</time><hdop>4.25</hdop><vdop>4.125</vdop><extensions><gom:speed>0.071</gom:speed></extensions></trkpt>
   <trkpt lat="59.071192655" lon="30.0241178576"><ele>93.4</ele><time>2026-04-20T17:55:15.666Z</time><hdop>4.25</hdop><vdop>4.125</vdop><extensions><gom:speed>0.031</gom:speed></extensions></trkpt>
   <trkpt lat="59.0711924454" lon="30.0241189473"><ele>93.389</ele><time>2026-04-20T17:55:16.969Z</time><hdop>4.5</hdop><vdop>4.0</vdop><extensions><gom:speed>0.064</gom:speed></extensions></trkpt>
   <trkpt lat="59.0711922359" lon="30.0241197017"><ele>93.45</ele><time>2026-04-20T17:55:18.036Z</time><hdop>4.625</hdop><vdop>4.125</vdop><extensions><gom:speed>0.07</gom:speed></extensions></trkpt>
   <trkpt lat="59.071192655" lon="30.0241181091"><ele>93.488</ele><time>2026-04-20T17:55:18.984Z</time><hdop>4.75</hdop><vdop>4.125</vdop><extensions><gom:speed>0.06</gom:speed></extensions></trkpt>
   <trkpt lat="59.0711929483" lon="30.0241171033"><ele>93.528</ele><time>2026-04-20T17:55:20.050Z</time><hdop>4.875</hdop><vdop>4.375</vdop><extensions><gom:speed>0.097</gom:speed></extensions></trkpt>
   <trkpt lat="59.0711930322" lon="30.0241184444"><ele>93.609</ele><time>2026-04-20T17:55:20.997Z</time><hdop>5.0</hdop><vdop>4.375</vdop><extensions><gom:speed>0.085</gom:speed></extensions></trkpt>
   <trkpt lat="59.0711925293" lon="30.0241197855"><ele>93.657</ele><time>2026-04-20T17:55:21.944Z</time><hdop>5.125</hdop><vdop>4.375</vdop><extensions><gom:speed>0.081</gom:speed></extensions></trkpt>
   <trkpt lat="59.071191733" lon="30.0241192826"><ele>93.712</ele><time>2026-04-20T17:55:23.075Z</time><hdop>5.125</hdop><vdop>4.25</vdop><extensions><gom:speed>0.036</gom:speed></extensions></trkpt>
   <trkpt lat="59.0711919425" lon="30.0241176062"><ele>93.76</ele><time>2026-04-20T17:55:24.075Z</time><hdop>5.125</hdop><vdop>4.375</vdop><extensions><gom:speed>0.114</gom:speed></extensions></trkpt>
   <trkpt lat="59.0711919425" lon="30.0241141696"><ele>93.776</ele><time>2026-04-20T17:55:25.075Z</time><hdop>5.125</hdop><vdop>4.625</vdop><extensions><gom:speed>0.157</gom:speed></extensions></trkpt>
   <trkpt lat="59.0711915234" lon="30.0241105654"><ele>93.789</ele><time>2026-04-20T17:55:26.075Z</time><hdop>5.0</hdop><vdop>4.5</vdop><extensions><gom:speed>0.192</gom:speed></extensions></trkpt>
   <trkpt lat="59.07119035" lon="30.0241080508"><ele>93.805</ele><time>2026-04-20T17:55:27.075Z</time><hdop>4.875</hdop><vdop>4.5</vdop><extensions><gom:speed>0.206</gom:speed></extensions></trkpt>
   <trkpt lat="59.0711890508" lon="30.0241072964"><ele>93.829</ele><time>2026-04-20T17:55:28.075Z</time><hdop>4.875</hdop><vdop>4.625</vdop><extensions><gom:speed>0.246</gom:speed></extensions></trkpt>
   <trkpt lat="59.0711880449" lon="30.0241094757"><ele>93.898</ele><time>2026-04-20T17:55:29.075Z</time><hdop>4.625</hdop><vdop>4.75</vdop><extensions><gom:speed>0.304</gom:speed></extensions></trkpt>
   <trkpt lat="59.0711878354" lon="30.0241120741"><ele>93.957</ele><time>2026-04-20T17:55:30.076Z</time><hdop>4.625</hdop><vdop>4.875</vdop><extensions><gom:speed>0.372</gom:speed></extensions></trkpt>
   <trkpt lat="59.0711872487" lon="30.0241148402"><ele>94.013</ele><time>2026-04-20T17:55:31.075Z</time><hdop>4.5</hdop><vdop>4.875</vdop><extensions><gom:speed>0.416</gom:speed></extensions></trkpt>
   <trkpt lat="59.0711859495" lon="30.0241184444"><ele>94.069</ele><time>2026-04-20T17:55:32.075Z</time><hdop>4.5</hdop><vdop>4.875</vdop><extensions><gom:speed>0.548</gom:speed></extensions></trkpt>
   <trkpt lat="59.071183854" lon="30.0241238088"><ele>94.128</ele><time>2026-04-20T17:55:33.075Z</time><hdop>4.625</hdop><vdop>5.125</vdop><extensions><gom:speed>0.635</gom:speed></extensions></trkpt>
   <trkpt lat="59.0711814232" lon="30.024130179"><ele>94.194</ele><time>2026-04-20T17:55:34.075Z</time><hdop>4.875</hdop><vdop>5.0</vdop><extensions><gom:speed>0.724</gom:speed></extensions></trkpt>
   <trkpt lat="59.0711803336" lon="30.0241300114"><ele>94.955</ele><time>2026-04-20T17:55:35.075Z</time><hdop>5.125</hdop><vdop>3.625</vdop><extensions><gom:speed>0.51</gom:speed></extensions></trkpt>
   <trkpt lat="59.0711799564" lon="30.0241262395"><ele>96.404</ele><time>2026-04-20T17:55:36.075Z</time><hdop>5.25</hdop><vdop>3.125</vdop><extensions><gom:speed>0.387</gom:speed></extensions></trkpt>
   <trkpt lat="59.0711790344" lon="30.0241245632"><ele>97.445</ele><time>2026-04-20T17:55:37.075Z</time><hdop>5.25</hdop><vdop>2.75</vdop><extensions><gom:speed>0.347</gom:speed></extensions></trkpt>
   <trkpt lat="59.071177819" lon="30.0241238926"><ele>98.468</ele><time>2026-04-20T17:55:38.075Z</time><hdop>5.375</hdop><vdop>2.625</vdop><extensions><gom:speed>0.338</gom:speed></extensions></trkpt>
   <trkpt lat="59.0711763522" lon="30.0241239764"><ele>99.007</ele><time>2026-04-20T17:55:39.075Z</time><hdop>5.25</hdop><vdop>2.5</vdop><extensions><gom:speed>0.322</gom:speed></extensions></trkpt>
   <trkpt lat="59.0711745501" lon="30.0241240602"><ele>99.218</ele><time>2026-04-20T17:55:40.075Z</time><hdop>5.125</hdop><vdop>2.5</vdop><extensions><gom:speed>0.329</gom:speed></extensions></trkpt>
   <trkpt lat="59.0711724546" lon="30.0241254852"><ele>99.427</ele><time>2026-04-20T17:55:41.075Z</time><hdop>5.125</hdop><vdop>6.125</vdop><extensions><gom:speed>0.306</gom:speed></extensions></trkpt>
   <trkpt lat="59.0711710297" lon="30.0241262395"><ele>99.617</ele><time>2026-04-20T17:55:42.075Z</time><hdop>5.25</hdop><vdop>6.0</vdop><extensions><gom:speed>0.315</gom:speed></extensions></trkpt>
   <trkpt lat="59.071169018" lon="30.0241266586"><ele>99.469</ele><time>2026-04-20T17:55:43.075Z</time><hdop>5.25</hdop><vdop>6.0</vdop><extensions><gom:speed>0.349</gom:speed></extensions></trkpt>
   <trkpt lat="59.0711667549" lon="30.024127413"><ele>99.352</ele><time>2026-04-20T17:55:44.075Z</time><hdop>5.375</hdop><vdop>6.25</vdop><extensions><gom:speed>0.357</gom:speed></extensions></trkpt>
   <trkpt lat="59.0711649528" lon="30.0241287541"><ele>99.288</ele><time>2026-04-20T17:55:45.075Z</time><hdop>5.5</hdop><vdop>6.125</vdop><extensions><gom:speed>0.338</gom:speed></extensions></trkpt>
   <trkpt lat="59.0711637374" lon="30.024130682"><ele>99.142</ele><time>2026-04-20T17:55:46.075Z</time><hdop>5.625</hdop><vdop>6.125</vdop><extensions><gom:speed>0.319</gom:speed></extensions></trkpt>
   <trkpt lat="59.071163444" lon="30.0241305143"><ele>99.054</ele><time>2026-04-20T17:55:46.701Z</time><hdop>5.625</hdop><vdop>6.125</vdop><extensions><gom:speed>0.318</gom:speed></extensions></trkpt>
   <trkpt lat="59.0711606361" lon="30.0241324422"><ele>98.843</ele><time>2026-04-20T17:55:48.075Z</time><hdop>5.75</hdop><vdop>6.0</vdop><extensions><gom:speed>0.336</gom:speed></extensions></trkpt>
   <trkpt lat="59.0711591274" lon="30.0241328612"><ele>98.683</ele><time>2026-04-20T17:55:49.075Z</time><hdop>5.875</hdop><vdop>5.75</vdop><extensions><gom:speed>0.296</gom:speed></extensions></trkpt>
   <trkpt lat="59.0711578282" lon="30.0241329451"><ele>98.488</ele><time>2026-04-20T17:55:50.076Z</time><hdop>5.875</hdop><vdop>5.75</vdop><extensions><gom:speed>0.269</gom:speed></extensions></trkpt>
   <trkpt lat="59.0711569481" lon="30.0241342862"><ele>98.422</ele><time>2026-04-20T17:55:51.075Z</time><hdop>5.75</hdop><vdop>5.5</vdop><extensions><gom:speed>0.248</gom:speed></extensions></trkpt>
   <trkpt lat="59.0711559422" lon="30.0241348729"><ele>98.412</ele><time>2026-04-20T17:55:52.075Z</time><hdop>5.75</hdop><vdop>5.5</vdop><extensions><gom:speed>0.229</gom:speed></extensions></trkpt>
   <trkpt lat="59.0711558165" lon="30.0241347891"><ele>98.407</ele><time>2026-04-20T17:55:52.861Z</time><hdop>5.875</hdop><vdop>5.5</vdop><extensions><gom:speed>0.228</gom:speed></extensions></trkpt>
   <trkpt lat="59.0711525476" lon="30.0241366331"><ele>98.192</ele><time>2026-04-20T17:55:54.075Z</time><hdop>5.75</hdop><vdop>5.25</vdop><extensions><gom:speed>0.263</gom:speed></extensions></trkpt>
   <trkpt lat="59.0711517513" lon="30.0241385609"><ele>97.928</ele><time>2026-04-20T17:55:55.075Z</time><hdop>5.75</hdop><vdop>5.125</vdop><extensions><gom:speed>0.257</gom:speed></extensions></trkpt>
   <trkpt lat="59.0711503264" lon="30.024140405"><ele>97.728</ele><time>2026-04-20T17:55:56.075Z</time><hdop>5.75</hdop><vdop>5.125</vdop><extensions><gom:speed>0.332</gom:speed></extensions></trkpt>
   <trkpt lat="59.0711493205" lon="30.0241426681"><ele>97.585</ele><time>2026-04-20T17:55:57.075Z</time><hdop>5.75</hdop><vdop>5.25</vdop><extensions><gom:speed>0.342</gom:speed></extensions></trkpt>
   <trkpt lat="59.0711485243" lon="30.0241442606"><ele>97.397</ele><time>2026-04-20T17:55:58.075Z</time><hdop>5.75</hdop><vdop>5.25</vdop><extensions><gom:speed>0.334</gom:speed></extensions></trkpt>
   <trkpt lat="59.0711478537" lon="30.0241461047"><ele>97.253</ele><time>2026-04-20T17:55:59.075Z</time><hdop>5.75</hdop><vdop>5.375</vdop><extensions><gom:speed>0.308</gom:speed></extensions></trkpt>
   <trkpt lat="59.0711476442" lon="30.0241485354"><ele>97.046</ele><time>2026-04-20T17:56:00.076Z</time><hdop>5.75</hdop><vdop>5.375</vdop><extensions><gom:speed>0.327</gom:speed></extensions></trkpt>
   <trkpt lat="59.0711480213" lon="30.02415105"><ele>96.891</ele><time>2026-04-20T17:56:01.075Z</time><hdop>5.75</hdop><vdop>5.25</vdop><extensions><gom:speed>0.346</gom:speed></extensions></trkpt>
   <trkpt lat="59.0711498235" lon="30.0241520558"><ele>96.768</ele><time>2026-04-20T17:56:02.075Z</time><hdop>5.625</hdop><vdop>5.375</vdop><extensions><gom:speed>0.329</gom:speed></extensions></trkpt>
   <trkpt lat="59.0711512484" lon="30.0241511338"><ele>96.657</ele><time>2026-04-20T17:56:03.075Z</time><hdop>5.625</hdop><vdop>5.25</vdop><extensions><gom:speed>0.368</gom:speed></extensions></trkpt>
   <trkpt lat="59.0711524218" lon="30.0241513014"><ele>96.672</ele><time>2026-04-20T17:56:04.075Z</time><hdop>5.5</hdop><vdop>5.25</vdop><extensions><gom:speed>0.365</gom:speed></extensions></trkpt>
   <trkpt lat="59.0711536372" lon="30.0241502956"><ele>96.696</ele><time>2026-04-20T17:56:05.075Z</time><hdop>5.375</hdop><vdop>5.125</vdop><extensions><gom:speed>0.345</gom:speed></extensions></trkpt>
   <trkpt lat="59.0711548526" lon="30.0241484516"><ele>96.727</ele><time>2026-04-20T17:56:06.075Z</time><hdop>5.375</hdop><vdop>5.125</vdop><extensions><gom:speed>0.362</gom:speed></extensions></trkpt>
   <trkpt lat="59.0711562356" lon="30.0241479487"><ele>96.751</ele><time>2026-04-20T17:56:07.075Z</time><hdop>5.25</hdop><vdop>5.125</vdop><extensions><gom:speed>0.401</gom:speed></extensions></trkpt>
   <trkpt lat="59.0711577444" lon="30.0241471943"><ele>96.786</ele><time>2026-04-20T17:56:08.076Z</time><hdop>5.125</hdop><vdop>5.25</vdop><extensions><gom:speed>0.369</gom:speed></extensions></trkpt>
   <trkpt lat="59.0711591274" lon="30.0241464399"><ele>96.807</ele><time>2026-04-20T17:56:09.075Z</time><hdop>5.125</hdop><vdop>5.25</vdop><extensions><gom:speed>0.366</gom:speed></extensions></trkpt>
   <trkpt lat="59.0711606361" lon="30.0241452665"><ele>96.829</ele><time>2026-04-20T17:56:10.075Z</time><hdop>5.25</hdop><vdop>5.375</vdop><extensions><gom:speed>0.349</gom:speed></extensions></trkpt>
   <trkpt lat="59.0711621449" lon="30.024143171"><ele>96.84</ele><time>2026-04-20T17:56:11.075Z</time><hdop>5.25</hdop><vdop>5.5</vdop><extensions><gom:speed>0.364</gom:speed></extensions></trkpt>
   <trkpt lat="59.0711636536" lon="30.0241420813"><ele>96.858</ele><time>2026-04-20T17:56:12.075Z</time><hdop>5.375</hdop><vdop>5.625</vdop><extensions><gom:speed>0.371</gom:speed></extensions></trkpt>
   <trkpt lat="59.0711647432" lon="30.0241414108"><ele>96.877</ele><time>2026-04-20T17:56:13.075Z</time><hdop>5.5</hdop><vdop>5.625</vdop><extensions><gom:speed>0.37</gom:speed></extensions></trkpt>
   <trkpt lat="59.071166252" lon="30.0241409917"><ele>96.902</ele><time>2026-04-20T17:56:14.075Z</time><hdop>5.625</hdop><vdop>5.375</vdop><extensions><gom:speed>0.343</gom:speed></extensions></trkpt>
   <trkpt lat="59.0711674255" lon="30.0241397344"><ele>96.919</ele><time>2026-04-20T17:56:15.075Z</time><hdop>5.625</hdop><vdop>5.25</vdop><extensions><gom:speed>0.317</gom:speed></extensions></trkpt>
   <trkpt lat="59.0711686408" lon="30.0241379742"><ele>96.978</ele><time>2026-04-20T17:56:16.076Z</time><hdop>5.75</hdop><vdop>5.125</vdop><extensions><gom:speed>0.301</gom:speed></extensions></trkpt>
   <trkpt lat="59.0711696467" lon="30.0241363816"><ele>97.009</ele><time>2026-04-20T17:56:17.075Z</time><hdop>5.875</hdop><vdop>5.0</vdop><extensions><gom:speed>0.283</gom:speed></extensions></trkpt>
   <trkpt lat="59.0711695209" lon="30.024136214"><ele>97.027</ele><time>2026-04-20T17:56:17.618Z</time><hdop>5.875</hdop><vdop>5.0</vdop><extensions><gom:speed>0.283</gom:speed></extensions></trkpt>
   <trkpt lat="59.0711706525" lon="30.0241347053"><ele>97.074</ele><time>2026-04-20T17:56:18.076Z</time><hdop>5.875</hdop><vdop>5.0</vdop><extensions><gom:speed>0.26</gom:speed></extensions></trkpt>
   <trkpt lat="59.0711709459" lon="30.0241331965"><ele>97.096</ele><time>2026-04-20T17:56:19.076Z</time><hdop>5.875</hdop><vdop>4.875</vdop><extensions><gom:speed>0.245</gom:speed></extensions></trkpt>
   <trkpt lat="59.0711710297" lon="30.0241319392"><ele>97.129</ele><time>2026-04-20T17:56:20.076Z</time><hdop>5.875</hdop><vdop>4.75</vdop><extensions><gom:speed>0.246</gom:speed></extensions></trkpt>
   <trkpt lat="59.0711714488" lon="30.024131101"><ele>97.158</ele><time>2026-04-20T17:56:21.075Z</time><hdop>5.875</hdop><vdop>4.875</vdop><extensions><gom:speed>0.242</gom:speed></extensions></trkpt>
   <trkpt lat="59.071171826" lon="30.0241305143"><ele>97.176</ele><time>2026-04-20T17:56:22.075Z</time><hdop>5.75</hdop><vdop>4.875</vdop><extensions><gom:speed>0.234</gom:speed></extensions></trkpt>
   <trkpt lat="59.0711720355" lon="30.0241309334"><ele>97.192</ele><time>2026-04-20T17:56:23.075Z</time><hdop>5.75</hdop><vdop>4.75</vdop><extensions><gom:speed>0.24</gom:speed></extensions></trkpt>
   <trkpt lat="59.0711719517" lon="30.0241311849"><ele>97.201</ele><time>2026-04-20T17:56:23.779Z</time><hdop>5.75</hdop><vdop>4.75</vdop><extensions><gom:speed>0.242</gom:speed></extensions></trkpt>
   <trkpt lat="59.0711724546" lon="30.0241322745"><ele>97.222</ele><time>2026-04-20T17:56:25.075Z</time><hdop>5.625</hdop><vdop>4.875</vdop><extensions><gom:speed>0.254</gom:speed></extensions></trkpt>
   <trkpt lat="59.0711726222" lon="30.0241317716"><ele>97.272</ele><time>2026-04-20T17:56:26.075Z</time><hdop>5.625</hdop><vdop>5.0</vdop><extensions><gom:speed>0.279</gom:speed></extensions></trkpt>
   <trkpt lat="59.0711730413" lon="30.024131604"><ele>97.309</ele><time>2026-04-20T17:56:27.075Z</time><hdop>5.625</hdop><vdop>5.25</vdop><extensions><gom:speed>0.323</gom:speed></extensions></trkpt>
   <trkpt lat="59.0711737538" lon="30.0241308496"><ele>97.305</ele><time>2026-04-20T17:56:28.075Z</time><hdop>5.625</hdop><vdop>5.25</vdop><extensions><gom:speed>0.315</gom:speed></extensions></trkpt>
   <trkpt lat="59.0711742567" lon="30.0241300114"><ele>97.318</ele><time>2026-04-20T17:56:29.075Z</time><hdop>5.625</hdop><vdop>5.5</vdop><extensions><gom:speed>0.316</gom:speed></extensions></trkpt>
   <trkpt lat="59.0711745501" lon="30.0241293408"><ele>97.309</ele><time>2026-04-20T17:56:30.075Z</time><hdop>5.75</hdop><vdop>5.5</vdop><extensions><gom:speed>0.309</gom:speed></extensions></trkpt>
   <trkpt lat="59.071175053" lon="30.0241285865"><ele>97.312</ele><time>2026-04-20T17:56:31.076Z</time><hdop>5.875</hdop><vdop>5.625</vdop><extensions><gom:speed>0.328</gom:speed></extensions></trkpt>
   <trkpt lat="59.0711756397" lon="30.0241280836"><ele>97.294</ele><time>2026-04-20T17:56:32.075Z</time><hdop>6.0</hdop><vdop>5.75</vdop><extensions><gom:speed>0.317</gom:speed></extensions></trkpt>
   <trkpt lat="59.0711754302" lon="30.0241270777"><ele>97.283</ele><time>2026-04-20T17:56:33.075Z</time><hdop>6.125</hdop><vdop>5.625</vdop><extensions><gom:speed>0.29</gom:speed></extensions></trkpt>
   <trkpt lat="59.0711757235" lon="30.0241248984"><ele>97.282</ele><time>2026-04-20T17:56:34.075Z</time><hdop>6.125</hdop><vdop>5.375</vdop><extensions><gom:speed>0.285</gom:speed></extensions></trkpt>
   <trkpt lat="59.0711760169" lon="30.0241243117"><ele>97.282</ele><time>2026-04-20T17:56:35.075Z</time><hdop>6.25</hdop><vdop>5.25</vdop><extensions><gom:speed>0.283</gom:speed></extensions></trkpt>
   <trkpt lat="59.0711760169" lon="30.0241239764"><ele>97.284</ele><time>2026-04-20T17:56:36.075Z</time><hdop>6.25</hdop><vdop>5.125</vdop><extensions><gom:speed>0.302</gom:speed></extensions></trkpt>
   <trkpt lat="59.0711759331" lon="30.0241238926"><ele>97.285</ele><time>2026-04-20T17:56:36.571Z</time><hdop>6.25</hdop><vdop>5.125</vdop><extensions><gom:speed>0.302</gom:speed></extensions></trkpt>
   <trkpt lat="59.071176436" lon="30.0241239764"><ele>97.291</ele><time>2026-04-20T17:56:37.075Z</time><hdop>6.25</hdop><vdop>5.125</vdop><extensions><gom:speed>0.306</gom:speed></extensions></trkpt>
   <trkpt lat="59.0711771485" lon="30.0241231382"><ele>97.267</ele><time>2026-04-20T17:56:38.075Z</time><hdop>6.25</hdop><vdop>5.125</vdop><extensions><gom:speed>0.288</gom:speed></extensions></trkpt>
   <trkpt lat="59.0711770227" lon="30.0241229706"><ele>97.252</ele><time>2026-04-20T17:56:39.075Z</time><hdop>6.25</hdop><vdop>5.125</vdop><extensions><gom:speed>0.269</gom:speed></extensions></trkpt>
   <trkpt lat="59.0711767294" lon="30.0241228868"><ele>97.23</ele><time>2026-04-20T17:56:40.075Z</time><hdop>6.25</hdop><vdop>5.375</vdop><extensions><gom:speed>0.277</gom:speed></extensions></trkpt>
   <trkpt lat="59.0711763522" lon="30.0241233059"><ele>97.218</ele><time>2026-04-20T17:56:41.075Z</time><hdop>6.25</hdop><vdop>5.25</vdop><extensions><gom:speed>0.279</gom:speed></extensions></trkpt>
   <trkpt lat="59.0711758493" lon="30.0241238088"><ele>97.211</ele><time>2026-04-20T17:56:42.075Z</time><hdop>6.25</hdop><vdop>5.125</vdop><extensions><gom:speed>0.256</gom:speed></extensions></trkpt>
   <trkpt lat="59.0711756397" lon="30.0241235573"><ele>97.207</ele><time>2026-04-20T17:56:42.731Z</time><hdop>6.25</hdop><vdop>5.125</vdop><extensions><gom:speed>0.256</gom:speed></extensions></trkpt>
   <trkpt lat="59.071175053" lon="30.024124647"><ele>97.211</ele><time>2026-04-20T17:56:44.075Z</time><hdop>6.25</hdop><vdop>5.0</vdop><extensions><gom:speed>0.237</gom:speed></extensions></trkpt>
   <trkpt lat="59.0711751368" lon="30.0241238926"><ele>97.213</ele><time>2026-04-20T17:56:45.075Z</time><hdop>6.25</hdop><vdop>5.0</vdop><extensions><gom:speed>0.249</gom:speed></extensions></trkpt>
   <trkpt lat="59.0711751368" lon="30.0241231382"><ele>97.214</ele><time>2026-04-20T17:56:46.075Z</time><hdop>6.125</hdop><vdop>5.125</vdop><extensions><gom:speed>0.251</gom:speed></extensions></trkpt>
   <trkpt lat="59.071175053" lon="30.0241231382"><ele>97.214</ele><time>2026-04-20T17:56:47.075Z</time><hdop>6.125</hdop><vdop>5.375</vdop><extensions><gom:speed>0.262</gom:speed></extensions></trkpt>
   <trkpt lat="59.0711761426" lon="30.0241238926"><ele>97.213</ele><time>2026-04-20T17:56:48.075Z</time><hdop>6.125</hdop><vdop>5.625</vdop><extensions><gom:speed>0.284</gom:speed></extensions></trkpt>
   <trkpt lat="59.0711762265" lon="30.0241238088"><ele>97.213</ele><time>2026-04-20T17:56:49.009Z</time><hdop>6.25</hdop><vdop>5.625</vdop><extensions><gom:speed>0.284</gom:speed></extensions></trkpt>
   <trkpt lat="59.0711761426" lon="30.0241235573"><ele>97.211</ele><time>2026-04-20T17:56:50.075Z</time><hdop>6.25</hdop><vdop>6.0</vdop><extensions><gom:speed>0.312</gom:speed></extensions></trkpt>
   <trkpt lat="59.0711759331" lon="30.0241233897"><ele>97.211</ele><time>2026-04-20T17:56:51.076Z</time><hdop>6.375</hdop><vdop>5.875</vdop><extensions><gom:speed>0.29</gom:speed></extensions></trkpt>
   <trkpt lat="59.0711756397" lon="30.0241229706"><ele>97.213</ele><time>2026-04-20T17:56:52.076Z</time><hdop>6.375</hdop><vdop>5.75</vdop><extensions><gom:speed>0.288</gom:speed></extensions></trkpt>
   <trkpt lat="59.0711755559" lon="30.0241223839"><ele>97.215</ele><time>2026-04-20T17:56:53.075Z</time><hdop>6.5</hdop><vdop>5.625</vdop><extensions><gom:speed>0.299</gom:speed></extensions></trkpt>
   <trkpt lat="59.0711751368" lon="30.0241223"><ele>97.218</ele><time>2026-04-20T17:56:54.075Z</time><hdop>6.5</hdop><vdop>5.5</vdop><extensions><gom:speed>0.3</gom:speed></extensions></trkpt>
   <trkpt lat="59.0711748434" lon="30.0241221324"><ele>97.224</ele><time>2026-04-20T17:56:55.075Z</time><hdop>6.5</hdop><vdop>5.25</vdop><extensions><gom:speed>0.278</gom:speed></extensions></trkpt>
   <trkpt lat="59.0711746339" lon="30.0241219648"><ele>97.229</ele><time>2026-04-20T17:56:56.075Z</time><hdop>6.5</hdop><vdop>5.125</vdop><extensions><gom:speed>0.274</gom:speed></extensions></trkpt>
   <trkpt lat="59.0711747177" lon="30.024121378"><ele>97.232</ele><time>2026-04-20T17:56:57.075Z</time><hdop>6.5</hdop><vdop>5.0</vdop><extensions><gom:speed>0.266</gom:speed></extensions></trkpt>
   <trkpt lat="59.0711742567" lon="30.0241212104"><ele>97.234</ele><time>2026-04-20T17:56:58.075Z</time><hdop>6.5</hdop><vdop>4.75</vdop><extensions><gom:speed>0.255</gom:speed></extensions></trkpt>
   <trkpt lat="59.071174131" lon="30.024120456"><ele>97.238</ele><time>2026-04-20T17:56:59.075Z</time><hdop>6.5</hdop><vdop>4.625</vdop><extensions><gom:speed>0.249</gom:speed></extensions></trkpt>
   <trkpt lat="59.0711740472" lon="30.0241198693"><ele>97.239</ele><time>2026-04-20T17:57:00.075Z</time><hdop>6.375</hdop><vdop>4.375</vdop><extensions><gom:speed>0.255</gom:speed></extensions></trkpt>
   <trkpt lat="59.0711739214" lon="30.0241191149"><ele>97.249</ele><time>2026-04-20T17:57:01.075Z</time><hdop>6.375</hdop><vdop>4.25</vdop><extensions><gom:speed>0.261</gom:speed></extensions></trkpt>
   <trkpt lat="59.0711736281" lon="30.0241191987"><ele>97.255</ele><time>2026-04-20T17:57:02.075Z</time><hdop>6.375</hdop><vdop>4.125</vdop><extensions><gom:speed>0.251</gom:speed></extensions></trkpt>
   <trkpt lat="59.0711734185" lon="30.0241183606"><ele>97.258</ele><time>2026-04-20T17:57:03.075Z</time><hdop>6.375</hdop><vdop>4.25</vdop><extensions><gom:speed>0.249</gom:speed></extensions></trkpt>
   <trkpt lat="59.0711733347" lon="30.02411769"><ele>97.262</ele><time>2026-04-20T17:57:04.075Z</time><hdop>6.375</hdop><vdop>4.375</vdop><extensions><gom:speed>0.238</gom:speed></extensions></trkpt>
   <trkpt lat="59.0711731251" lon="30.0241171033"><ele>97.263</ele><time>2026-04-20T17:57:05.075Z</time><hdop>6.375</hdop><vdop>4.5</vdop><extensions><gom:speed>0.262</gom:speed></extensions></trkpt>
   <trkpt lat="59.0711730413" lon="30.0241169356"><ele>97.268</ele><time>2026-04-20T17:57:06.075Z</time><hdop>6.375</hdop><vdop>4.75</vdop><extensions><gom:speed>0.259</gom:speed></extensions></trkpt>
   <trkpt lat="59.0711728318" lon="30.0241160136"><ele>97.271</ele><time>2026-04-20T17:57:07.075Z</time><hdop>6.375</hdop><vdop>4.875</vdop><extensions><gom:speed>0.262</gom:speed></extensions></trkpt>
   <trkpt lat="59.0711726222" lon="30.0241160136"><ele>97.274</ele><time>2026-04-20T17:57:08.076Z</time><hdop>6.375</hdop><vdop>5.125</vdop><extensions><gom:speed>0.267</gom:speed></extensions></trkpt>
   <trkpt lat="59.0711724546" lon="30.0241160974"><ele>97.278</ele><time>2026-04-20T17:57:09.075Z</time><hdop>6.375</hdop><vdop>5.125</vdop><extensions><gom:speed>0.28</gom:speed></extensions></trkpt>
   <trkpt lat="59.071172245" lon="30.0241168518"><ele>97.282</ele><time>2026-04-20T17:57:10.075Z</time><hdop>6.375</hdop><vdop>5.0</vdop><extensions><gom:speed>0.296</gom:speed></extensions></trkpt>
   <trkpt lat="59.0711721193" lon="30.024116768"><ele>97.287</ele><time>2026-04-20T17:57:11.075Z</time><hdop>6.375</hdop><vdop>4.875</vdop><extensions><gom:speed>0.29</gom:speed></extensions></trkpt>
   <trkpt lat="59.0711720355" lon="30.0241171871"><ele>97.292</ele><time>2026-04-20T17:57:12.075Z</time><hdop>6.375</hdop><vdop>4.625</vdop><extensions><gom:speed>0.303</gom:speed></extensions></trkpt>
   <trkpt lat="59.0711719517" lon="30.0241174385"><ele>97.294</ele><time>2026-04-20T17:57:13.075Z</time><hdop>6.375</hdop><vdop>4.5</vdop><extensions><gom:speed>0.32</gom:speed></extensions></trkpt>
   <trkpt lat="59.0711720355" lon="30.0241164327"><ele>97.296</ele><time>2026-04-20T17:57:13.766Z</time><hdop>6.375</hdop><vdop>4.5</vdop><extensions><gom:speed>0.322</gom:speed></extensions></trkpt>
   <trkpt lat="59.0711719517" lon="30.0241177738"><ele>97.295</ele><time>2026-04-20T17:57:15.075Z</time><hdop>6.5</hdop><vdop>4.375</vdop><extensions><gom:speed>0.361</gom:speed></extensions></trkpt>
   <trkpt lat="59.071171826" lon="30.0241179415"><ele>97.297</ele><time>2026-04-20T17:57:16.075Z</time><hdop>6.5</hdop><vdop>4.5</vdop><extensions><gom:speed>0.368</gom:speed></extensions></trkpt>
   <trkpt lat="59.0711715326" lon="30.0241177738"><ele>97.301</ele><time>2026-04-20T17:57:17.075Z</time><hdop>6.5</hdop><vdop>4.375</vdop><extensions><gom:speed>0.367</gom:speed></extensions></trkpt>
   <trkpt lat="59.071171323" lon="30.0241176062"><ele>97.306</ele><time>2026-04-20T17:57:18.076Z</time><hdop>6.625</hdop><vdop>4.625</vdop><extensions><gom:speed>0.335</gom:speed></extensions></trkpt>
   <trkpt lat="59.0711709459" lon="30.024116768"><ele>97.311</ele><time>2026-04-20T17:57:19.075Z</time><hdop>6.625</hdop><vdop>4.5</vdop><extensions><gom:speed>0.33</gom:speed></extensions></trkpt>
   <trkpt lat="59.0711708201" lon="30.0241152592"><ele>97.314</ele><time>2026-04-20T17:57:19.926Z</time><hdop>6.75</hdop><vdop>4.5</vdop><extensions><gom:speed>0.33</gom:speed></extensions></trkpt>
   <trkpt lat="59.0711708201" lon="30.0241164327"><ele>97.317</ele><time>2026-04-20T17:57:21.075Z</time><hdop>7.0</hdop><vdop>4.5</vdop><extensions><gom:speed>0.282</gom:speed></extensions></trkpt>
   <trkpt lat="59.0711707363" lon="30.0241161813"><ele>97.322</ele><time>2026-04-20T17:57:22.075Z</time><hdop>7.0</hdop><vdop>4.625</vdop><extensions><gom:speed>0.282</gom:speed></extensions></trkpt>
   <trkpt lat="59.0711708201" lon="30.0241168518"><ele>97.332</ele><time>2026-04-20T17:57:23.075Z</time><hdop>7.0</hdop><vdop>4.75</vdop><extensions><gom:speed>0.304</gom:speed></extensions></trkpt>
   <trkpt lat="59.0711705268" lon="30.0241174385"><ele>97.337</ele><time>2026-04-20T17:57:24.075Z</time><hdop>7.0</hdop><vdop>4.875</vdop><extensions><gom:speed>0.307</gom:speed></extensions></trkpt>
   <trkpt lat="59.0711702334" lon="30.0241178576"><ele>97.34</ele><time>2026-04-20T17:57:25.075Z</time><hdop>7.0</hdop><vdop>5.0</vdop><extensions><gom:speed>0.331</gom:speed></extensions></trkpt>
   <trkpt lat="59.0711698562" lon="30.0241182767"><ele>97.34</ele><time>2026-04-20T17:57:26.075Z</time><hdop>7.0</hdop><vdop>5.0</vdop><extensions><gom:speed>0.328</gom:speed></extensions></trkpt>
   <trkpt lat="59.0711688504" lon="30.0241188635"><ele>97.341</ele><time>2026-04-20T17:57:27.075Z</time><hdop>7.125</hdop><vdop>5.0</vdop><extensions><gom:speed>0.31</gom:speed></extensions></trkpt>
   <trkpt lat="59.0711678445" lon="30.02411769"><ele>97.341</ele><time>2026-04-20T17:57:28.075Z</time><hdop>7.125</hdop><vdop>5.0</vdop><extensions><gom:speed>0.31</gom:speed></extensions></trkpt>
   <trkpt lat="59.071167635" lon="30.0241166004"><ele>97.341</ele><time>2026-04-20T17:57:29.076Z</time><hdop>7.125</hdop><vdop>5.0</vdop><extensions><gom:speed>0.302</gom:speed></extensions></trkpt>
   <trkpt lat="59.0711675512" lon="30.0241166004"><ele>97.342</ele><time>2026-04-20T17:57:30.075Z</time><hdop>7.25</hdop><vdop>4.875</vdop><extensions><gom:speed>0.289</gom:speed></extensions></trkpt>
   <trkpt lat="59.0711678445" lon="30.0241169356"><ele>97.346</ele><time>2026-04-20T17:57:31.075Z</time><hdop>7.25</hdop><vdop>4.875</vdop><extensions><gom:speed>0.294</gom:speed></extensions></trkpt>
   <trkpt lat="59.071167635" lon="30.0241174385"><ele>97.347</ele><time>2026-04-20T17:57:32.075Z</time><hdop>7.25</hdop><vdop>5.25</vdop><extensions><gom:speed>0.328</gom:speed></extensions></trkpt>
   <trkpt lat="59.0711672578" lon="30.0241186958"><ele>97.348</ele><time>2026-04-20T17:57:33.076Z</time><hdop>7.25</hdop><vdop>5.375</vdop><extensions><gom:speed>0.303</gom:speed></extensions></trkpt>
   <trkpt lat="59.0711671321" lon="30.0241188635"><ele>97.351</ele><time>2026-04-20T17:57:34.075Z</time><hdop>7.25</hdop><vdop>5.625</vdop><extensions><gom:speed>0.303</gom:speed></extensions></trkpt>
   <trkpt lat="59.0711666292" lon="30.0241181929"><ele>97.354</ele><time>2026-04-20T17:57:35.075Z</time><hdop>7.25</hdop><vdop>5.375</vdop><extensions><gom:speed>0.314</gom:speed></extensions></trkpt>
   <trkpt lat="59.0711657491" lon="30.0241183606"><ele>97.358</ele><time>2026-04-20T17:57:36.075Z</time><hdop>7.375</hdop><vdop>5.25</vdop><extensions><gom:speed>0.315</gom:speed></extensions></trkpt>
   <trkpt lat="59.0711650366" lon="30.0241181929"><ele>97.362</ele><time>2026-04-20T17:57:37.075Z</time><hdop>7.375</hdop><vdop>5.125</vdop><extensions><gom:speed>0.347</gom:speed></extensions></trkpt>
   <trkpt lat="59.0711643241" lon="30.0241173547"><ele>97.367</ele><time>2026-04-20T17:57:38.075Z</time><hdop>7.375</hdop><vdop>5.0</vdop><extensions><gom:speed>0.388</gom:speed></extensions></trkpt>
   <trkpt lat="59.0711633183" lon="30.024118612"><ele>97.37</ele><time>2026-04-20T17:57:39.075Z</time><hdop>7.375</hdop><vdop>4.75</vdop><extensions><gom:speed>0.357</gom:speed></extensions></trkpt>
   <trkpt lat="59.0711633183" lon="30.0241189473"><ele>97.373</ele><time>2026-04-20T17:57:40.076Z</time><hdop>7.375</hdop><vdop>4.625</vdop><extensions><gom:speed>0.356</gom:speed></extensions></trkpt>
   <trkpt lat="59.0711631507" lon="30.0241198693"><ele>97.374</ele><time>2026-04-20T17:57:41.075Z</time><hdop>7.375</hdop><vdop>4.625</vdop><extensions><gom:speed>0.329</gom:speed></extensions></trkpt>
   <trkpt lat="59.0711632345" lon="30.0241200369"><ele>97.375</ele><time>2026-04-20T17:57:42.075Z</time><hdop>7.375</hdop><vdop>4.75</vdop><extensions><gom:speed>0.312</gom:speed></extensions></trkpt>
   <trkpt lat="59.071163444" lon="30.0241194502"><ele>97.376</ele><time>2026-04-20T17:57:43.075Z</time><hdop>7.375</hdop><vdop>4.625</vdop><extensions><gom:speed>0.314</gom:speed></extensions></trkpt>
   <trkpt lat="59.0711637374" lon="30.0241189473"><ele>97.377</ele><time>2026-04-20T17:57:44.075Z</time><hdop>7.375</hdop><vdop>4.625</vdop><extensions><gom:speed>0.33</gom:speed></extensions></trkpt>
   <trkpt lat="59.0711640308" lon="30.024118612"><ele>97.377</ele><time>2026-04-20T17:57:44.683Z</time><hdop>7.375</hdop><vdop>4.625</vdop><extensions><gom:speed>0.331</gom:speed></extensions></trkpt>
   <trkpt lat="59.0711645337" lon="30.0241171871"><ele>97.381</ele><time>2026-04-20T17:57:46.075Z</time><hdop>7.375</hdop><vdop>4.5</vdop><extensions><gom:speed>0.343</gom:speed></extensions></trkpt>
   <trkpt lat="59.0711647432" lon="30.0241166842"><ele>97.384</ele><time>2026-04-20T17:57:47.075Z</time><hdop>7.375</hdop><vdop>4.375</vdop><extensions><gom:speed>0.352</gom:speed></extensions></trkpt>
   <trkpt lat="59.0711646175" lon="30.0241194502"><ele>98.416</ele><time>2026-04-20T17:57:48.076Z</time><hdop>7.375</hdop><vdop>3.25</vdop><extensions><gom:speed>0.346</gom:speed></extensions></trkpt>
   <trkpt lat="59.0711645337" lon="30.0241240602"><ele>99.815</ele><time>2026-04-20T17:57:49.075Z</time><hdop>7.375</hdop><vdop>2.75</vdop><extensions><gom:speed>0.337</gom:speed></extensions></trkpt>
   <trkpt lat="59.0711646175" lon="30.0241296761"><ele>101.058</ele><time>2026-04-20T17:57:50.075Z</time><hdop>7.375</hdop><vdop>2.5</vdop><extensions><gom:speed>0.328</gom:speed></extensions></trkpt>
   <trkpt lat="59.0711647432" lon="30.024130179"><ele>101.801</ele><time>2026-04-20T17:57:50.844Z</time><hdop>7.375</hdop><vdop>2.5</vdop><extensions><gom:speed>0.328</gom:speed></extensions></trkpt>
   <trkpt lat="59.0711650366" lon="30.0241428357"><ele>102.588</ele><time>2026-04-20T17:57:52.076Z</time><hdop>7.25</hdop><vdop>4.5</vdop><extensions><gom:speed>0.324</gom:speed></extensions></trkpt>
   <trkpt lat="59.0711651204" lon="30.0241497089"><ele>103.01</ele><time>2026-04-20T17:57:53.076Z</time><hdop>7.25</hdop><vdop>4.375</vdop><extensions><gom:speed>0.318</gom:speed></extensions></trkpt>
   <trkpt lat="59.0711654557" lon="30.0241566659"><ele>103.259</ele><time>2026-04-20T17:57:54.075Z</time><hdop>7.25</hdop><vdop>4.375</vdop><extensions><gom:speed>0.314</gom:speed></extensions></trkpt>
   <trkpt lat="59.0711655395" lon="30.0241633714"><ele>103.273</ele><time>2026-04-20T17:57:55.075Z</time><hdop>7.125</hdop><vdop>4.25</vdop><extensions><gom:speed>0.301</gom:speed></extensions></trkpt>
   <trkpt lat="59.0711655395" lon="30.024169574"><ele>103.288</ele><time>2026-04-20T17:57:56.076Z</time><hdop>7.125</hdop><vdop>4.125</vdop><extensions><gom:speed>0.296</gom:speed></extensions></trkpt>
   <trkpt lat="59.0711654557" lon="30.0241751899"><ele>103.217</ele><time>2026-04-20T17:57:57.075Z</time><hdop>7.0</hdop><vdop>4.0</vdop><extensions><gom:speed>0.291</gom:speed></extensions></trkpt>
   <trkpt lat="59.0711647432" lon="30.0241818116"><ele>102.257</ele><time>2026-04-20T17:57:58.076Z</time><hdop>6.875</hdop><vdop>3.375</vdop><extensions><gom:speed>0.294</gom:speed></extensions></trkpt>
   <trkpt lat="59.0711642403" lon="30.02418441"><ele>101.245</ele><time>2026-04-20T17:57:59.075Z</time><hdop>6.75</hdop><vdop>2.75</vdop><extensions><gom:speed>0.314</gom:speed></extensions></trkpt>
   <trkpt lat="59.071163444" lon="30.0241865892"><ele>99.75</ele><time>2026-04-20T17:58:00.075Z</time><hdop>6.75</hdop><vdop>2.625</vdop><extensions><gom:speed>0.329</gom:speed></extensions></trkpt>
   <trkpt lat="59.0711626478" lon="30.0241875951"><ele>98.648</ele><time>2026-04-20T17:58:01.075Z</time><hdop>6.625</hdop><vdop>2.625</vdop><extensions><gom:speed>0.355</gom:speed></extensions></trkpt>
   <trkpt lat="59.0711624382" lon="30.0241886009"><ele>97.977</ele><time>2026-04-20T17:58:02.075Z</time><hdop>6.625</hdop><vdop>2.5</vdop><extensions><gom:speed>0.348</gom:speed></extensions></trkpt>
   <trkpt lat="59.0711624382" lon="30.0241881818"><ele>97.821</ele><time>2026-04-20T17:58:03.075Z</time><hdop>6.625</hdop><vdop>2.5</vdop><extensions><gom:speed>0.345</gom:speed></extensions></trkpt>
   <trkpt lat="59.0711633183" lon="30.0241876789"><ele>97.97</ele><time>2026-04-20T17:58:04.075Z</time><hdop>6.625</hdop><vdop>2.5</vdop><extensions><gom:speed>0.35</gom:speed></extensions></trkpt>
   <trkpt lat="59.0711642403" lon="30.0241854996"><ele>98.262</ele><time>2026-04-20T17:58:05.075Z</time><hdop>6.75</hdop><vdop>5.0</vdop><extensions><gom:speed>0.313</gom:speed></extensions></trkpt>
   <trkpt lat="59.07116533" lon="30.0241825659"><ele>98.668</ele><time>2026-04-20T17:58:06.075Z</time><hdop>6.75</hdop><vdop>4.375</vdop><extensions><gom:speed>0.33</gom:speed></extensions></trkpt>
   <trkpt lat="59.0711660424" lon="30.0241813086"><ele>99.61</ele><time>2026-04-20T17:58:07.075Z</time><hdop>6.875</hdop><vdop>5.125</vdop><extensions><gom:speed>0.303</gom:speed></extensions></trkpt>
   <trkpt lat="59.0711671321" lon="30.0241798837"><ele>100.333</ele><time>2026-04-20T17:58:08.075Z</time><hdop>6.875</hdop><vdop>5.0</vdop><extensions><gom:speed>0.298</gom:speed></extensions></trkpt>
   <trkpt lat="59.0711678445" lon="30.0241795484"><ele>100.698</ele><time>2026-04-20T17:58:09.075Z</time><hdop>6.875</hdop><vdop>5.0</vdop><extensions><gom:speed>0.324</gom:speed></extensions></trkpt>
   <trkpt lat="59.0711677188" lon="30.0241794646"><ele>100.691</ele><time>2026-04-20T17:58:10.075Z</time><hdop>6.875</hdop><vdop>4.875</vdop><extensions><gom:speed>0.355</gom:speed></extensions></trkpt>
   <trkpt lat="59.0711678445" lon="30.0241797161"><ele>100.672</ele><time>2026-04-20T17:58:11.075Z</time><hdop>6.875</hdop><vdop>4.875</vdop><extensions><gom:speed>0.362</gom:speed></extensions></trkpt>
   <trkpt lat="59.0711683475" lon="30.0241800514"><ele>100.686</ele><time>2026-04-20T17:58:12.076Z</time><hdop>6.875</hdop><vdop>4.75</vdop><extensions><gom:speed>0.38</gom:speed></extensions></trkpt>
   <trkpt lat="59.0711688504" lon="30.024181141"><ele>100.698</ele><time>2026-04-20T17:58:13.076Z</time><hdop>6.875</hdop><vdop>4.75</vdop><extensions><gom:speed>0.353</gom:speed></extensions></trkpt>
   <trkpt lat="59.0711689342" lon="30.0241797999"><ele>100.801</ele><time>2026-04-20T17:58:14.075Z</time><hdop>6.75</hdop><vdop>4.625</vdop><extensions><gom:speed>0.35</gom:speed></extensions></trkpt>
   <trkpt lat="59.071169018" lon="30.0241778721"><ele>100.867</ele><time>2026-04-20T17:58:15.075Z</time><hdop>6.75</hdop><vdop>4.625</vdop><extensions><gom:speed>0.374</gom:speed></extensions></trkpt>
   <trkpt lat="59.0711691437" lon="30.0241772015"><ele>100.906</ele><time>2026-04-20T17:58:15.600Z</time><hdop>6.875</hdop><vdop>4.625</vdop><extensions><gom:speed>0.374</gom:speed></extensions></trkpt>
   <trkpt lat="59.0711688504" lon="30.0241761957"><ele>100.969</ele><time>2026-04-20T17:58:16.076Z</time><hdop>6.875</hdop><vdop>4.625</vdop><extensions><gom:speed>0.375</gom:speed></extensions></trkpt>
   <trkpt lat="59.0711688504" lon="30.0241730944"><ele>101.02</ele><time>2026-04-20T17:58:17.075Z</time><hdop>6.875</hdop><vdop>4.5</vdop><extensions><gom:speed>0.402</gom:speed></extensions></trkpt>
   <trkpt lat="59.0711683475" lon="30.024170496"><ele>101.165</ele><time>2026-04-20T17:58:18.076Z</time><hdop>7.0</hdop><vdop>4.625</vdop><extensions><gom:speed>0.508</gom:speed></extensions></trkpt>
   <trkpt lat="59.071167635" lon="30.0241684005"><ele>101.255</ele><time>2026-04-20T17:58:19.075Z</time><hdop>7.125</hdop><vdop>4.75</vdop><extensions><gom:speed>0.582</gom:speed></extensions></trkpt>
   <trkpt lat="59.0711679284" lon="30.0241654668"><ele>101.316</ele><time>2026-04-20T17:58:20.075Z</time><hdop>7.375</hdop><vdop>4.75</vdop><extensions><gom:speed>0.663</gom:speed></extensions></trkpt>
   <trkpt lat="59.071167635" lon="30.0241628685"><ele>101.308</ele><time>2026-04-20T17:58:21.075Z</time><hdop>7.75</hdop><vdop>4.875</vdop><extensions><gom:speed>0.765</gom:speed></extensions></trkpt>
   <trkpt lat="59.0711675512" lon="30.0241601024"><ele>101.304</ele><time>2026-04-20T17:58:21.879Z</time><hdop>8.0</hdop><vdop>4.875</vdop><extensions><gom:speed>0.766</gom:speed></extensions></trkpt>
   <trkpt lat="59.0711683475" lon="30.0241595995"><ele>101.289</ele><time>2026-04-20T17:58:23.076Z</time><hdop>8.875</hdop><vdop>4.875</vdop><extensions><gom:speed>0.913</gom:speed></extensions></trkpt>
   <trkpt lat="59.071169018" lon="30.0241576717"><ele>101.282</ele><time>2026-04-20T17:58:24.076Z</time><hdop>9.375</hdop><vdop>4.875</vdop><extensions><gom:speed>0.846</gom:speed></extensions></trkpt>
   <trkpt lat="59.0711689342" lon="30.0241428357"><ele>101.279</ele><time>2026-04-20T17:58:25.075Z</time><hdop>10.0</hdop><vdop>4.875</vdop><extensions><gom:speed>0.893</gom:speed></extensions></trkpt>
   <trkpt lat="59.071169018" lon="30.024133448"><ele>101.308</ele><time>2026-04-20T17:58:26.075Z</time><hdop>10.625</hdop><vdop>4.875</vdop><extensions><gom:speed>0.914</gom:speed></extensions></trkpt>
   <trkpt lat="59.0711692276" lon="30.0241264072"><ele>101.347</ele><time>2026-04-20T17:58:27.075Z</time><hdop>11.125</hdop><vdop>4.875</vdop><extensions><gom:speed>0.791</gom:speed></extensions></trkpt>
   <trkpt lat="59.0711689342" lon="30.0241223839"><ele>101.409</ele><time>2026-04-20T17:58:28.075Z</time><hdop>11.5</hdop><vdop>5.0</vdop><extensions><gom:speed>0.731</gom:speed></extensions></trkpt>
   <trkpt lat="59.0711684313" lon="30.0241199531"><ele>101.451</ele><time>2026-04-20T17:58:29.076Z</time><hdop>11.75</hdop><vdop>5.125</vdop><extensions><gom:speed>0.695</gom:speed></extensions></trkpt>
   <trkpt lat="59.0711680541" lon="30.0241181091"><ele>101.496</ele><time>2026-04-20T17:58:30.075Z</time><hdop>11.625</hdop><vdop>5.125</vdop><extensions><gom:speed>0.663</gom:speed></extensions></trkpt>
   <trkpt lat="59.0711678445" lon="30.0241135829"><ele>101.537</ele><time>2026-04-20T17:58:31.076Z</time><hdop>11.5</hdop><vdop>5.25</vdop><extensions><gom:speed>0.675</gom:speed></extensions></trkpt>
   <trkpt lat="59.0711678445" lon="30.0241088052"><ele>101.565</ele><time>2026-04-20T17:58:32.075Z</time><hdop>11.375</hdop><vdop>5.25</vdop><extensions><gom:speed>0.704</gom:speed></extensions></trkpt>
   <trkpt lat="59.0711681379" lon="30.0241046142"><ele>101.569</ele><time>2026-04-20T17:58:33.076Z</time><hdop>11.125</hdop><vdop>5.375</vdop><extensions><gom:speed>0.75</gom:speed></extensions></trkpt>
   <trkpt lat="59.071169018" lon="30.0241001718"><ele>101.566</ele><time>2026-04-20T17:58:34.075Z</time><hdop>11.0</hdop><vdop>5.5</vdop><extensions><gom:speed>0.775</gom:speed></extensions></trkpt>
   <trkpt lat="59.0711704429" lon="30.0240923767"><ele>101.562</ele><time>2026-04-20T17:58:35.075Z</time><hdop>10.875</hdop><vdop>5.5</vdop><extensions><gom:speed>0.798</gom:speed></extensions></trkpt>
   <trkpt lat="59.0711714488" lon="30.0240904488"><ele>101.556</ele><time>2026-04-20T17:58:36.075Z</time><hdop>11.0</hdop><vdop>5.625</vdop><extensions><gom:speed>0.829</gom:speed></extensions></trkpt>
   <trkpt lat="59.0711726222" lon="30.0240867608"><ele>101.551</ele><time>2026-04-20T17:58:37.076Z</time><hdop>11.125</hdop><vdop>5.625</vdop><extensions><gom:speed>0.861</gom:speed></extensions></trkpt>
   <trkpt lat="59.0711739214" lon="30.0240824022"><ele>101.547</ele><time>2026-04-20T17:58:38.075Z</time><hdop>11.25</hdop><vdop>5.75</vdop><extensions><gom:speed>0.874</gom:speed></extensions></trkpt>
   <trkpt lat="59.0711752206" lon="30.024077373"><ele>101.55</ele><time>2026-04-20T17:58:39.075Z</time><hdop>11.5</hdop><vdop>5.875</vdop><extensions><gom:speed>0.887</gom:speed></extensions></trkpt>
   <trkpt lat="59.0711760169" lon="30.0240720924"><ele>101.551</ele><time>2026-04-20T17:58:40.075Z</time><hdop>11.625</hdop><vdop>6.125</vdop><extensions><gom:speed>0.902</gom:speed></extensions></trkpt>
   <trkpt lat="59.0711759331" lon="30.0240613636"><ele>101.513</ele><time>2026-04-20T17:58:41.076Z</time><hdop>12.125</hdop><vdop>6.375</vdop><extensions><gom:speed>0.934</gom:speed></extensions></trkpt>
   <trkpt lat="59.0711759331" lon="30.0240580947"><ele>101.483</ele><time>2026-04-20T17:58:42.076Z</time><hdop>12.375</hdop><vdop>6.375</vdop><extensions><gom:speed>0.933</gom:speed></extensions></trkpt>
   <trkpt lat="59.0711759331" lon="30.024056083"><ele>101.443</ele><time>2026-04-20T17:58:43.076Z</time><hdop>12.625</hdop><vdop>6.625</vdop><extensions><gom:speed>0.895</gom:speed></extensions></trkpt>
   <trkpt lat="59.071176436" lon="30.0240580109"><ele>101.409</ele><time>2026-04-20T17:58:44.076Z</time><hdop>12.875</hdop><vdop>7.0</vdop><extensions><gom:speed>0.823</gom:speed></extensions></trkpt>
   <trkpt lat="59.0711772323" lon="30.0240596034"><ele>101.349</ele><time>2026-04-20T17:58:45.075Z</time><hdop>13.125</hdop><vdop>7.0</vdop><extensions><gom:speed>0.728</gom:speed></extensions></trkpt>
   <trkpt lat="59.0711785315" lon="30.0240620342"><ele>101.332</ele><time>2026-04-20T17:58:46.076Z</time><hdop>13.125</hdop><vdop>7.0</vdop><extensions><gom:speed>0.645</gom:speed></extensions></trkpt>
   <trkpt lat="59.0711790344" lon="30.0240673148"><ele>101.322</ele><time>2026-04-20T17:58:46.635Z</time><hdop>13.25</hdop><vdop>7.0</vdop><extensions><gom:speed>0.633</gom:speed></extensions></trkpt>
   <trkpt lat="59.0711816328" lon="30.0240694941"><ele>101.32</ele><time>2026-04-20T17:58:48.075Z</time><hdop>12.75</hdop><vdop>7.125</vdop><extensions><gom:speed>0.497</gom:speed></extensions></trkpt>
   <trkpt lat="59.0711824291" lon="30.0240737688"><ele>101.326</ele><time>2026-04-20T17:58:49.075Z</time><hdop>12.5</hdop><vdop>6.875</vdop><extensions><gom:speed>0.445</gom:speed></extensions></trkpt>
   <trkpt lat="59.0711828482" lon="30.0240788818"><ele>101.329</ele><time>2026-04-20T17:58:50.075Z</time><hdop>12.0</hdop><vdop>6.5</vdop><extensions><gom:speed>0.42</gom:speed></extensions></trkpt>
   <trkpt lat="59.071182932" lon="30.0240824022"><ele>101.329</ele><time>2026-04-20T17:58:51.075Z</time><hdop>11.25</hdop><vdop>6.125</vdop><extensions><gom:speed>0.397</gom:speed></extensions></trkpt>
   <trkpt lat="59.0711830577" lon="30.0240848329"><ele>101.328</ele><time>2026-04-20T17:58:52.076Z</time><hdop>10.75</hdop><vdop>6.75</vdop><extensions><gom:speed>0.409</gom:speed></extensions></trkpt>
   <trkpt lat="59.071182932" lon="30.024087599"><ele>101.328</ele><time>2026-04-20T17:58:52.795Z</time><hdop>10.625</hdop><vdop>6.75</vdop><extensions><gom:speed>0.411</gom:speed></extensions></trkpt>
   <trkpt lat="59.0711835187" lon="30.0240889401"><ele>101.325</ele><time>2026-04-20T17:58:54.076Z</time><hdop>9.875</hdop><vdop>6.375</vdop><extensions><gom:speed>0.432</gom:speed></extensions></trkpt>
   <trkpt lat="59.0711836444" lon="30.0240901974"><ele>101.321</ele><time>2026-04-20T17:58:55.075Z</time><hdop>9.625</hdop><vdop>6.125</vdop><extensions><gom:speed>0.455</gom:speed></extensions></trkpt>
   <trkpt lat="59.0711834349" lon="30.0240909517"><ele>101.317</ele><time>2026-04-20T17:58:56.075Z</time><hdop>9.375</hdop><vdop>6.0</vdop><extensions><gom:speed>0.487</gom:speed></extensions></trkpt>
   <trkpt lat="59.0711830577" lon="30.0240914546"><ele>101.317</ele><time>2026-04-20T17:58:57.075Z</time><hdop>9.0</hdop><vdop>5.75</vdop><extensions><gom:speed>0.462</gom:speed></extensions></trkpt>
   <trkpt lat="59.071182932" lon="30.0240920414"><ele>101.317</ele><time>2026-04-20T17:58:58.075Z</time><hdop>8.75</hdop><vdop>5.5</vdop><extensions><gom:speed>0.406</gom:speed></extensions></trkpt>
   <trkpt lat="59.0711827224" lon="30.024094053"><ele>101.318</ele><time>2026-04-20T17:58:58.955Z</time><hdop>8.75</hdop><vdop>5.5</vdop><extensions><gom:speed>0.4</gom:speed></extensions></trkpt>
   <trkpt lat="59.0711822195" lon="30.0240944721"><ele>101.317</ele><time>2026-04-20T17:59:00.076Z</time><hdop>8.5</hdop><vdop>5.75</vdop><extensions><gom:speed>0.347</gom:speed></extensions></trkpt>
   <trkpt lat="59.0711819261" lon="30.0240955618"><ele>101.316</ele><time>2026-04-20T17:59:01.075Z</time><hdop>8.375</hdop><vdop>6.0</vdop><extensions><gom:speed>0.401</gom:speed></extensions></trkpt>
   <trkpt lat="59.071181549" lon="30.0240979925"><ele>101.323</ele><time>2026-04-20T17:59:02.075Z</time><hdop>8.25</hdop><vdop>6.25</vdop><extensions><gom:speed>0.442</gom:speed></extensions></trkpt>
   <trkpt lat="59.0711808365" lon="30.0240981602"><ele>101.329</ele><time>2026-04-20T17:59:03.075Z</time><hdop>8.125</hdop><vdop>6.0</vdop><extensions><gom:speed>0.371</gom:speed></extensions></trkpt>
   <trkpt lat="59.0711793278" lon="30.0240984116"><ele>101.336</ele><time>2026-04-20T17:59:04.075Z</time><hdop>8.0</hdop><vdop>5.75</vdop><extensions><gom:speed>0.366</gom:speed></extensions></trkpt>
   <trkpt lat="59.0711786572" lon="30.024099166"><ele>101.358</ele><time>2026-04-20T17:59:05.075Z</time><hdop>8.0</hdop><vdop>5.5</vdop><extensions><gom:speed>0.382</gom:speed></extensions></trkpt>
   <trkpt lat="59.0711784477" lon="30.0241044466"><ele>101.371</ele><time>2026-04-20T17:59:06.075Z</time><hdop>7.875</hdop><vdop>5.25</vdop><extensions><gom:speed>0.359</gom:speed></extensions></trkpt>
   <trkpt lat="59.071177819" lon="30.0241015129"><ele>101.387</ele><time>2026-04-20T17:59:07.075Z</time><hdop>7.875</hdop><vdop>5.625</vdop><extensions><gom:speed>0.44</gom:speed></extensions></trkpt>
   <trkpt lat="59.0711776514" lon="30.0241005909"><ele>101.393</ele><time>2026-04-20T17:59:08.075Z</time><hdop>7.875</hdop><vdop>5.875</vdop><extensions><gom:speed>0.543</gom:speed></extensions></trkpt>
   <trkpt lat="59.0711769389" lon="30.0240995013"><ele>101.408</ele><time>2026-04-20T17:59:09.075Z</time><hdop>8.0</hdop><vdop>6.375</vdop><extensions><gom:speed>0.555</gom:speed></extensions></trkpt>
   <trkpt lat="59.0711760169" lon="30.0240986631"><ele>101.415</ele><time>2026-04-20T17:59:10.075Z</time><hdop>8.25</hdop><vdop>6.875</vdop><extensions><gom:speed>0.596</gom:speed></extensions></trkpt>
   <trkpt lat="59.0711752206" lon="30.0240977411"><ele>101.443</ele><time>2026-04-20T17:59:11.075Z</time><hdop>8.625</hdop><vdop>7.375</vdop><extensions><gom:speed>0.643</gom:speed></extensions></trkpt>
   <trkpt lat="59.0711734185" lon="30.0240969867"><ele>101.454</ele><time>2026-04-20T17:59:12.076Z</time><hdop>9.125</hdop><vdop>7.875</vdop><extensions><gom:speed>0.639</gom:speed></extensions></trkpt>
   <trkpt lat="59.0711728318" lon="30.0240955618"><ele>101.456</ele><time>2026-04-20T17:59:13.075Z</time><hdop>9.5</hdop><vdop>8.0</vdop><extensions><gom:speed>0.642</gom:speed></extensions></trkpt>
   <trkpt lat="59.0711724546" lon="30.0240945559"><ele>101.456</ele><time>2026-04-20T17:59:14.076Z</time><hdop>9.75</hdop><vdop>8.125</vdop><extensions><gom:speed>0.595</gom:speed></extensions></trkpt>
   <trkpt lat="59.0711721193" lon="30.024094975"><ele>101.456</ele><time>2026-04-20T17:59:15.075Z</time><hdop>10.0</hdop><vdop>7.75</vdop><extensions><gom:speed>0.556</gom:speed></extensions></trkpt>
   <trkpt lat="59.0711720355" lon="30.0240951427"><ele>101.456</ele><time>2026-04-20T17:59:16.075Z</time><hdop>10.125</hdop><vdop>7.375</vdop><extensions><gom:speed>0.515</gom:speed></extensions></trkpt>
   <trkpt lat="59.071172245" lon="30.0240960647"><ele>101.456</ele><time>2026-04-20T17:59:17.075Z</time><hdop>10.25</hdop><vdop>6.875</vdop><extensions><gom:speed>0.485</gom:speed></extensions></trkpt>
   <trkpt lat="59.0711728318" lon="30.0240977411"><ele>101.455</ele><time>2026-04-20T17:59:17.553Z</time><hdop>10.375</hdop><vdop>6.875</vdop><extensions><gom:speed>0.485</gom:speed></extensions></trkpt>
   <trkpt lat="59.0711721193" lon="30.0240964838"><ele>101.44</ele><time>2026-04-20T17:59:18.075Z</time><hdop>10.375</hdop><vdop>6.625</vdop><extensions><gom:speed>0.45</gom:speed></extensions></trkpt>
   <trkpt lat="59.0711726222" lon="30.0240969867"><ele>101.426</ele><time>2026-04-20T17:59:19.075Z</time><hdop>10.25</hdop><vdop>6.5</vdop><extensions><gom:speed>0.422</gom:speed></extensions></trkpt>
   <trkpt lat="59.0711726222" lon="30.0240961485"><ele>101.411</ele><time>2026-04-20T17:59:20.075Z</time><hdop>10.25</hdop><vdop>6.5</vdop><extensions><gom:speed>0.41</gom:speed></extensions></trkpt>
   <trkpt lat="59.071172748" lon="30.0240958971"><ele>101.395</ele><time>2026-04-20T17:59:21.075Z</time><hdop>10.125</hdop><vdop>6.5</vdop><extensions><gom:speed>0.392</gom:speed></extensions></trkpt>
   <trkpt lat="59.0711730413" lon="30.024095478"><ele>101.381</ele><time>2026-04-20T17:59:22.075Z</time><hdop>9.875</hdop><vdop>6.625</vdop><extensions><gom:speed>0.381</gom:speed></extensions></trkpt>
   <trkpt lat="59.0711734185" lon="30.0240951427"><ele>101.371</ele><time>2026-04-20T17:59:23.075Z</time><hdop>9.75</hdop><vdop>6.75</vdop><extensions><gom:speed>0.364</gom:speed></extensions></trkpt>
   <trkpt lat="59.071174131" lon="30.0240974058"><ele>101.366</ele><time>2026-04-20T17:59:23.712Z</time><hdop>9.75</hdop><vdop>6.75</vdop><extensions><gom:speed>0.146</gom:speed></extensions></trkpt>
   <trkpt lat="59.0711747177" lon="30.0241031893"><ele>101.359</ele><time>2026-04-20T17:59:25.075Z</time><hdop>9.5</hdop><vdop>7.125</vdop><extensions><gom:speed>0.349</gom:speed></extensions></trkpt>
   <trkpt lat="59.0711754302" lon="30.0241050333"><ele>101.352</ele><time>2026-04-20T17:59:26.075Z</time><hdop>9.5</hdop><vdop>7.25</vdop><extensions><gom:speed>0.361</gom:speed></extensions></trkpt>
   <trkpt lat="59.0711756397" lon="30.0241065421"><ele>101.345</ele><time>2026-04-20T17:59:27.076Z</time><hdop>9.5</hdop><vdop>7.25</vdop><extensions><gom:speed>0.366</gom:speed></extensions></trkpt>
   <trkpt lat="59.0711754302" lon="30.0241081346"><ele>101.337</ele><time>2026-04-20T17:59:28.075Z</time><hdop>9.375</hdop><vdop>7.375</vdop><extensions><gom:speed>0.403</gom:speed></extensions></trkpt>
   <trkpt lat="59.071175053" lon="30.0241103139"><ele>101.332</ele><time>2026-04-20T17:59:29.075Z</time><hdop>9.375</hdop><vdop>7.375</vdop><extensions><gom:speed>0.431</gom:speed></extensions></trkpt>
   <trkpt lat="59.0711748434" lon="30.024108889"><ele>101.328</ele><time>2026-04-20T17:59:29.991Z</time><hdop>9.375</hdop><vdop>7.375</vdop><extensions><gom:speed>0.434</gom:speed></extensions></trkpt>
   <trkpt lat="59.0711745501" lon="30.0241136667"><ele>101.325</ele><time>2026-04-20T17:59:31.075Z</time><hdop>9.375</hdop><vdop>7.625</vdop><extensions><gom:speed>0.424</gom:speed></extensions></trkpt>
   <trkpt lat="59.0711744243" lon="30.0241153431"><ele>101.324</ele><time>2026-04-20T17:59:32.076Z</time><hdop>9.5</hdop><vdop>7.75</vdop><extensions><gom:speed>0.415</gom:speed></extensions></trkpt>
   <trkpt lat="59.0711744243" lon="30.0241171033"><ele>101.322</ele><time>2026-04-20T17:59:33.076Z</time><hdop>9.5</hdop><vdop>8.0</vdop><extensions><gom:speed>0.417</gom:speed></extensions></trkpt>
   <trkpt lat="59.0711746339" lon="30.0241182767"><ele>101.321</ele><time>2026-04-20T17:59:34.075Z</time><hdop>9.5</hdop><vdop>8.0</vdop><extensions><gom:speed>0.438</gom:speed></extensions></trkpt>
   <trkpt lat="59.0711751368" lon="30.0241191149"><ele>101.319</ele><time>2026-04-20T17:59:35.075Z</time><hdop>9.625</hdop><vdop>8.25</vdop><extensions><gom:speed>0.449</gom:speed></extensions></trkpt>
   <trkpt lat="59.0711753464" lon="30.0241200369"><ele>101.318</ele><time>2026-04-20T17:59:36.075Z</time><hdop>9.75</hdop><vdop>8.25</vdop><extensions><gom:speed>0.475</gom:speed></extensions></trkpt>
   <trkpt lat="59.0711760169" lon="30.024121378"><ele>101.315</ele><time>2026-04-20T17:59:37.075Z</time><hdop>9.875</hdop><vdop>7.75</vdop><extensions><gom:speed>0.496</gom:speed></extensions></trkpt>
   <trkpt lat="59.0711765198" lon="30.0241198693"><ele>101.313</ele><time>2026-04-20T17:59:38.076Z</time><hdop>10.0</hdop><vdop>7.375</vdop><extensions><gom:speed>0.497</gom:speed></extensions></trkpt>
   <trkpt lat="59.0711771485" lon="30.024116768"><ele>101.312</ele><time>2026-04-20T17:59:39.075Z</time><hdop>10.0</hdop><vdop>7.0</vdop><extensions><gom:speed>0.502</gom:speed></extensions></trkpt>
   <trkpt lat="59.0711777352" lon="30.0241173547"><ele>101.31</ele><time>2026-04-20T17:59:40.076Z</time><hdop>10.0</hdop><vdop>6.625</vdop><extensions><gom:speed>0.514</gom:speed></extensions></trkpt>
   <trkpt lat="59.0711780286" lon="30.0241176062"><ele>101.308</ele><time>2026-04-20T17:59:41.075Z</time><hdop>10.0</hdop><vdop>6.625</vdop><extensions><gom:speed>0.511</gom:speed></extensions></trkpt>
   <trkpt lat="59.0711780286" lon="30.0241177738"><ele>101.307</ele><time>2026-04-20T17:59:42.076Z</time><hdop>9.875</hdop><vdop>6.5</vdop><extensions><gom:speed>0.499</gom:speed></extensions></trkpt>
   <trkpt lat="59.0711782381" lon="30.0241184444"><ele>101.31</ele><time>2026-04-20T17:59:43.075Z</time><hdop>9.875</hdop><vdop>6.625</vdop><extensions><gom:speed>0.55</gom:speed></extensions></trkpt>
   <trkpt lat="59.0711779447" lon="30.0241179415"><ele>101.311</ele><time>2026-04-20T17:59:44.075Z</time><hdop>9.875</hdop><vdop>6.75</vdop><extensions><gom:speed>0.608</gom:speed></extensions></trkpt>
   <trkpt lat="59.0711780286" lon="30.0241181091"><ele>101.309</ele><time>2026-04-20T17:59:45.075Z</time><hdop>9.875</hdop><vdop>7.125</vdop><extensions><gom:speed>0.604</gom:speed></extensions></trkpt>
   <trkpt lat="59.0711782381" lon="30.0241179415"><ele>101.308</ele><time>2026-04-20T17:59:46.076Z</time><hdop>9.875</hdop><vdop>7.375</vdop><extensions><gom:speed>0.612</gom:speed></extensions></trkpt>
   <trkpt lat="59.0711785315" lon="30.02411769"><ele>101.306</ele><time>2026-04-20T17:59:47.076Z</time><hdop>10.0</hdop><vdop>7.5</vdop><extensions><gom:speed>0.64</gom:speed></extensions></trkpt>
   <trkpt lat="59.0711791182" lon="30.0241168518"><ele>101.306</ele><time>2026-04-20T17:59:48.075Z</time><hdop>10.125</hdop><vdop>7.5</vdop><extensions><gom:speed>0.641</gom:speed></extensions></trkpt>
   <trkpt lat="59.0711798307" lon="30.0241171033"><ele>101.302</ele><time>2026-04-20T17:59:49.075Z</time><hdop>10.375</hdop><vdop>7.0</vdop><extensions><gom:speed>0.64</gom:speed></extensions></trkpt>
   <trkpt lat="59.0711827224" lon="30.0241111521"><ele>101.302</ele><time>2026-04-20T17:59:50.075Z</time><hdop>10.5</hdop><vdop>6.5</vdop><extensions><gom:speed>0.668</gom:speed></extensions></trkpt>
   <trkpt lat="59.0711844407" lon="30.0241074641"><ele>101.3</ele><time>2026-04-20T17:59:51.075Z</time><hdop>10.625</hdop><vdop>6.125</vdop><extensions><gom:speed>0.665</gom:speed></extensions></trkpt>
   <trkpt lat="59.0711853208" lon="30.0241068773"><ele>101.298</ele><time>2026-04-20T17:59:52.075Z</time><hdop>10.625</hdop><vdop>6.0</vdop><extensions><gom:speed>0.677</gom:speed></extensions></trkpt>
   <trkpt lat="59.0711862428" lon="30.0241068773"><ele>101.294</ele><time>2026-04-20T17:59:53.075Z</time><hdop>10.625</hdop><vdop>5.875</vdop><extensions><gom:speed>0.747</gom:speed></extensions></trkpt>
   <trkpt lat="59.0711873325" lon="30.0241080508"><ele>101.292</ele><time>2026-04-20T17:59:54.075Z</time><hdop>10.625</hdop><vdop>5.625</vdop><extensions><gom:speed>0.754</gom:speed></extensions></trkpt>
   <trkpt lat="59.0711863266" lon="30.0241077994"><ele>101.29</ele><time>2026-04-20T17:59:54.630Z</time><hdop>10.75</hdop><vdop>5.625</vdop><extensions><gom:speed>0.755</gom:speed></extensions></trkpt>
   <trkpt lat="59.0711885478" lon="30.0241114036"><ele>101.289</ele><time>2026-04-20T17:59:56.075Z</time><hdop>10.875</hdop><vdop>5.75</vdop><extensions><gom:speed>0.716</gom:speed></extensions></trkpt>
   <trkpt lat="59.0711884221" lon="30.0241127447"><ele>101.288</ele><time>2026-04-20T17:59:57.075Z</time><hdop>10.875</hdop><vdop>5.75</vdop><extensions><gom:speed>0.744</gom:speed></extensions></trkpt>
   <trkpt lat="59.0711880449" lon="30.0241150078"><ele>101.287</ele><time>2026-04-20T17:59:58.075Z</time><hdop>11.0</hdop><vdop>5.75</vdop><extensions><gom:speed>0.721</gom:speed></extensions></trkpt>
   <trkpt lat="59.0711881288" lon="30.0241155107"><ele>101.287</ele><time>2026-04-20T17:59:59.076Z</time><hdop>11.0</hdop><vdop>5.75</vdop><extensions><gom:speed>0.725</gom:speed></extensions></trkpt>
   <trkpt lat="59.0711885478" lon="30.0241155945"><ele>101.287</ele><time>2026-04-20T18:00:00.075Z</time><hdop>11.125</hdop><vdop>6.125</vdop><extensions><gom:speed>0.711</gom:speed></extensions></trkpt>
   <trkpt lat="59.0711874163" lon="30.0241150078"><ele>101.287</ele><time>2026-04-20T18:00:00.789Z</time><hdop>11.25</hdop><vdop>6.125</vdop><extensions><gom:speed>0.711</gom:speed></extensions></trkpt>
   <trkpt lat="59.0711895537" lon="30.0241147563"><ele>101.295</ele><time>2026-04-20T18:00:02.075Z</time><hdop>11.375</hdop><vdop>6.125</vdop><extensions><gom:speed>0.658</gom:speed></extensions></trkpt>
   <trkpt lat="59.0711896375" lon="30.0241142534"><ele>101.3</ele><time>2026-04-20T18:00:03.075Z</time><hdop>11.375</hdop><vdop>6.5</vdop><extensions><gom:speed>0.613</gom:speed></extensions></trkpt>
   <trkpt lat="59.0711897213" lon="30.0241121579"><ele>101.301</ele><time>2026-04-20T18:00:04.075Z</time><hdop>11.375</hdop><vdop>6.625</vdop><extensions><gom:speed>0.537</gom:speed></extensions></trkpt>
   <trkpt lat="59.0711896375" lon="30.0241117388"><ele>101.305</ele><time>2026-04-20T18:00:05.075Z</time><hdop>11.25</hdop><vdop>6.625</vdop><extensions><gom:speed>0.502</gom:speed></extensions></trkpt>
   <trkpt lat="59.0711894279" lon="30.0241124932"><ele>101.307</ele><time>2026-04-20T18:00:06.075Z</time><hdop>11.125</hdop><vdop>7.125</vdop><extensions><gom:speed>0.474</gom:speed></extensions></trkpt>
   <trkpt lat="59.0711891346" lon="30.0241137505"><ele>101.311</ele><time>2026-04-20T18:00:07.075Z</time><hdop>10.875</hdop><vdop>7.0</vdop><extensions><gom:speed>0.478</gom:speed></extensions></trkpt>
   <trkpt lat="59.0711888412" lon="30.0241150916"><ele>101.312</ele><time>2026-04-20T18:00:08.075Z</time><hdop>10.75</hdop><vdop>7.375</vdop><extensions><gom:speed>0.48</gom:speed></extensions></trkpt>
   <trkpt lat="59.0711888412" lon="30.0241164327"><ele>101.311</ele><time>2026-04-20T18:00:09.075Z</time><hdop>10.5</hdop><vdop>7.5</vdop><extensions><gom:speed>0.497</gom:speed></extensions></trkpt>
   <trkpt lat="59.071188925" lon="30.0241183606"><ele>101.309</ele><time>2026-04-20T18:00:10.075Z</time><hdop>10.375</hdop><vdop>7.625</vdop><extensions><gom:speed>0.494</gom:speed></extensions></trkpt>
   <trkpt lat="59.0711886317" lon="30.0241200369"><ele>101.306</ele><time>2026-04-20T18:00:11.075Z</time><hdop>10.375</hdop><vdop>8.25</vdop><extensions><gom:speed>0.522</gom:speed></extensions></trkpt>
   <trkpt lat="59.0711884221" lon="30.0241217133"><ele>101.306</ele><time>2026-04-20T18:00:12.076Z</time><hdop>10.375</hdop><vdop>8.75</vdop><extensions><gom:speed>0.536</gom:speed></extensions></trkpt>
   <trkpt lat="59.0711883383" lon="30.0241221324"><ele>101.305</ele><time>2026-04-20T18:00:12.677Z</time><hdop>10.5</hdop><vdop>8.75</vdop><extensions><gom:speed>0.536</gom:speed></extensions></trkpt>
   <trkpt lat="59.0711869553" lon="30.0241220486"><ele>101.308</ele><time>2026-04-20T18:00:13.162Z</time><hdop>10.625</hdop><vdop>9.25</vdop><extensions><gom:speed>0.537</gom:speed></extensions></trkpt>
   <trkpt lat="59.0711877516" lon="30.0241248146"><ele>101.31</ele><time>2026-04-20T18:00:14.075Z</time><hdop>10.625</hdop><vdop>9.375</vdop><extensions><gom:speed>0.513</gom:speed></extensions></trkpt>
   <trkpt lat="59.0711869553" lon="30.0241257366"><ele>101.313</ele><time>2026-04-20T18:00:15.075Z</time><hdop>10.625</hdop><vdop>9.375</vdop><extensions><gom:speed>0.508</gom:speed></extensions></trkpt>
   <trkpt lat="59.0711863266" lon="30.0241267425"><ele>101.314</ele><time>2026-04-20T18:00:16.076Z</time><hdop>10.625</hdop><vdop>8.625</vdop><extensions><gom:speed>0.488</gom:speed></extensions></trkpt>
   <trkpt lat="59.0711858237" lon="30.0241270777"><ele>101.314</ele><time>2026-04-20T18:00:17.075Z</time><hdop>10.625</hdop><vdop>8.375</vdop><extensions><gom:speed>0.472</gom:speed></extensions></trkpt>
   <trkpt lat="59.0711858237" lon="30.0241282512"><ele>101.315</ele><time>2026-04-20T18:00:18.075Z</time><hdop>10.5</hdop><vdop>8.5</vdop><extensions><gom:speed>0.472</gom:speed></extensions></trkpt>
   <trkpt lat="59.0711861171" lon="30.0241303467"><ele>101.315</ele><time>2026-04-20T18:00:19.075Z</time><hdop>10.375</hdop><vdop>7.875</vdop><extensions><gom:speed>0.454</gom:speed></extensions></trkpt>
   <trkpt lat="59.0711870391" lon="30.0241326936"><ele>101.316</ele><time>2026-04-20T18:00:20.076Z</time><hdop>10.25</hdop><vdop>7.75</vdop><extensions><gom:speed>0.453</gom:speed></extensions></trkpt>
   <trkpt lat="59.0711877516" lon="30.0241336994"><ele>101.328</ele><time>2026-04-20T18:00:21.075Z</time><hdop>10.125</hdop><vdop>7.75</vdop><extensions><gom:speed>0.421</gom:speed></extensions></trkpt>
   <trkpt lat="59.0711882545" lon="30.0241347891"><ele>101.344</ele><time>2026-04-20T18:00:22.075Z</time><hdop>10.0</hdop><vdop>7.5</vdop><extensions><gom:speed>0.4</gom:speed></extensions></trkpt>
   <trkpt lat="59.0711887574" lon="30.0241352082"><ele>101.359</ele><time>2026-04-20T18:00:23.075Z</time><hdop>9.875</hdop><vdop>7.5</vdop><extensions><gom:speed>0.377</gom:speed></extensions></trkpt>
   <trkpt lat="59.0711891346" lon="30.024135292"><ele>101.367</ele><time>2026-04-20T18:00:24.075Z</time><hdop>9.625</hdop><vdop>7.375</vdop><extensions><gom:speed>0.365</gom:speed></extensions></trkpt>
   <trkpt lat="59.071188925" lon="30.0241353758"><ele>101.37</ele><time>2026-04-20T18:00:25.075Z</time><hdop>9.5</hdop><vdop>7.0</vdop><extensions><gom:speed>0.359</gom:speed></extensions></trkpt>
   <trkpt lat="59.0711885478" lon="30.0241348729"><ele>101.372</ele><time>2026-04-20T18:00:25.547Z</time><hdop>9.375</hdop><vdop>7.0</vdop><extensions><gom:speed>0.359</gom:speed></extensions></trkpt>
   <trkpt lat="59.071188925" lon="30.0241357111"><ele>101.374</ele><time>2026-04-20T18:00:26.075Z</time><hdop>9.25</hdop><vdop>7.0</vdop><extensions><gom:speed>0.353</gom:speed></extensions></trkpt>
   <trkpt lat="59.0711887574" lon="30.0241348729"><ele>101.375</ele><time>2026-04-20T18:00:27.075Z</time><hdop>9.125</hdop><vdop>6.75</vdop><extensions><gom:speed>0.342</gom:speed></extensions></trkpt>
   <trkpt lat="59.0711890508" lon="30.0241345376"><ele>101.378</ele><time>2026-04-20T18:00:28.075Z</time><hdop>9.0</hdop><vdop>6.75</vdop><extensions><gom:speed>0.353</gom:speed></extensions></trkpt>
   <trkpt lat="59.0711892184" lon="30.0241339509"><ele>101.381</ele><time>2026-04-20T18:00:29.075Z</time><hdop>8.875</hdop><vdop>7.0</vdop><extensions><gom:speed>0.368</gom:speed></extensions></trkpt>
   <trkpt lat="59.0711888412" lon="30.0241329451"><ele>101.378</ele><time>2026-04-20T18:00:30.075Z</time><hdop>8.75</hdop><vdop>6.875</vdop><extensions><gom:speed>0.388</gom:speed></extensions></trkpt>
   <trkpt lat="59.0711887574" lon="30.0241327774"><ele>101.376</ele><time>2026-04-20T18:00:31.075Z</time><hdop>8.75</hdop><vdop>6.75</vdop><extensions><gom:speed>0.399</gom:speed></extensions></trkpt>
   <trkpt lat="59.0711879192" lon="30.0241317716"><ele>101.375</ele><time>2026-04-20T18:00:31.827Z</time><hdop>8.75</hdop><vdop>6.75</vdop><extensions><gom:speed>0.402</gom:speed></extensions></trkpt>
   <trkpt lat="59.0711891346" lon="30.0241322745"><ele>101.375</ele><time>2026-04-20T18:00:33.076Z</time><hdop>8.75</hdop><vdop>6.5</vdop><extensions><gom:speed>0.379</gom:speed></extensions></trkpt>
   <trkpt lat="59.0711891346" lon="30.0241319392"><ele>101.374</ele><time>2026-04-20T18:00:34.075Z</time><hdop>8.75</hdop><vdop>6.375</vdop><extensions><gom:speed>0.355</gom:speed></extensions></trkpt>
   <trkpt lat="59.0711887574" lon="30.024131604"><ele>101.373</ele><time>2026-04-20T18:00:35.075Z</time><hdop>8.75</hdop><vdop>6.25</vdop><extensions><gom:speed>0.344</gom:speed></extensions></trkpt>
   <trkpt lat="59.0711884221" lon="30.0241312687"><ele>101.373</ele><time>2026-04-20T18:00:36.075Z</time><hdop>8.75</hdop><vdop>6.0</vdop><extensions><gom:speed>0.372</gom:speed></extensions></trkpt>
   <trkpt lat="59.0711876258" lon="30.024131101"><ele>101.367</ele><time>2026-04-20T18:00:37.075Z</time><hdop>8.625</hdop><vdop>5.75</vdop><extensions><gom:speed>0.342</gom:speed></extensions></trkpt>
   <trkpt lat="59.0711871229" lon="30.0241295923"><ele>101.364</ele><time>2026-04-20T18:00:37.985Z</time><hdop>8.625</hdop><vdop>5.75</vdop><extensions><gom:speed>0.336</gom:speed></extensions></trkpt>
   <trkpt lat="59.071185237" lon="30.0241290056"><ele>101.362</ele><time>2026-04-20T18:00:39.075Z</time><hdop>8.5</hdop><vdop>5.625</vdop><extensions><gom:speed>0.289</gom:speed></extensions></trkpt>
   <trkpt lat="59.0711844407" lon="30.0241272454"><ele>101.362</ele><time>2026-04-20T18:00:40.075Z</time><hdop>8.375</hdop><vdop>5.5</vdop><extensions><gom:speed>0.286</gom:speed></extensions></trkpt>
   <trkpt lat="59.071183854" lon="30.0241256528"><ele>101.361</ele><time>2026-04-20T18:00:41.075Z</time><hdop>8.125</hdop><vdop>5.5</vdop><extensions><gom:speed>0.285</gom:speed></extensions></trkpt>
   <trkpt lat="59.0711832253" lon="30.0241243117"><ele>101.359</ele><time>2026-04-20T18:00:42.075Z</time><hdop>7.875</hdop><vdop>5.625</vdop><extensions><gom:speed>0.298</gom:speed></extensions></trkpt>
   <trkpt lat="59.0711827224" lon="30.0241231382"><ele>101.357</ele><time>2026-04-20T18:00:43.076Z</time><hdop>7.75</hdop><vdop>5.375</vdop><extensions><gom:speed>0.315</gom:speed></extensions></trkpt>
   <trkpt lat="59.0711822195" lon="30.0241226353"><ele>101.356</ele><time>2026-04-20T18:00:44.076Z</time><hdop>7.625</hdop><vdop>5.125</vdop><extensions><gom:speed>0.324</gom:speed></extensions></trkpt>
   <trkpt lat="59.0711817166" lon="30.0241229706"><ele>101.363</ele><time>2026-04-20T18:00:45.076Z</time><hdop>7.625</hdop><vdop>5.25</vdop><extensions><gom:speed>0.313</gom:speed></extensions></trkpt>
   <trkpt lat="59.0711816328" lon="30.0241221324"><ele>101.366</ele><time>2026-04-20T18:00:46.075Z</time><hdop>7.625</hdop><vdop>5.5</vdop><extensions><gom:speed>0.311</gom:speed></extensions></trkpt>
   <trkpt lat="59.0711814232" lon="30.0241217133"><ele>101.368</ele><time>2026-04-20T18:00:47.075Z</time><hdop>7.625</hdop><vdop>5.75</vdop><extensions><gom:speed>0.323</gom:speed></extensions></trkpt>
   <trkpt lat="59.0711809203" lon="30.0241210428"><ele>101.369</ele><time>2026-04-20T18:00:48.075Z</time><hdop>7.625</hdop><vdop>6.0</vdop><extensions><gom:speed>0.32</gom:speed></extensions></trkpt>
   <trkpt lat="59.0711809203" lon="30.0241207075"><ele>101.368</ele><time>2026-04-20T18:00:49.075Z</time><hdop>7.75</hdop><vdop>6.0</vdop><extensions><gom:speed>0.335</gom:speed></extensions></trkpt>
   <trkpt lat="59.0711811299" lon="30.0241205398"><ele>101.369</ele><time>2026-04-20T18:00:50.075Z</time><hdop>7.75</hdop><vdop>6.0</vdop><extensions><gom:speed>0.352</gom:speed></extensions></trkpt>
   <trkpt lat="59.071181549" lon="30.0241212942"><ele>101.368</ele><time>2026-04-20T18:00:51.076Z</time><hdop>8.0</hdop><vdop>6.125</vdop><extensions><gom:speed>0.351</gom:speed></extensions></trkpt>
   <trkpt lat="59.0711817166" lon="30.0241207075"><ele>101.367</ele><time>2026-04-20T18:00:52.076Z</time><hdop>8.0</hdop><vdop>6.25</vdop><extensions><gom:speed>0.341</gom:speed></extensions></trkpt>
   <trkpt lat="59.0711819261" lon="30.0241203722"><ele>101.366</ele><time>2026-04-20T18:00:53.075Z</time><hdop>8.125</hdop><vdop>6.125</vdop><extensions><gom:speed>0.325</gom:speed></extensions></trkpt>
   <trkpt lat="59.0711818423" lon="30.0241197855"><ele>101.365</ele><time>2026-04-20T18:00:54.076Z</time><hdop>8.125</hdop><vdop>6.125</vdop><extensions><gom:speed>0.313</gom:speed></extensions></trkpt>
   <trkpt lat="59.071181549" lon="30.0241191987"><ele>101.364</ele><time>2026-04-20T18:00:55.075Z</time><hdop>8.125</hdop><vdop>6.0</vdop><extensions><gom:speed>0.317</gom:speed></extensions></trkpt>
   <trkpt lat="59.0711813394" lon="30.0241184444"><ele>101.363</ele><time>2026-04-20T18:00:56.075Z</time><hdop>8.0</hdop><vdop>5.75</vdop><extensions><gom:speed>0.321</gom:speed></extensions></trkpt>
   <trkpt lat="59.0711811299" lon="30.0241181929"><ele>101.363</ele><time>2026-04-20T18:00:57.076Z</time><hdop>8.0</hdop><vdop>5.875</vdop><extensions><gom:speed>0.31</gom:speed></extensions></trkpt>
   <trkpt lat="59.0711811299" lon="30.0241173547"><ele>101.364</ele><time>2026-04-20T18:00:58.075Z</time><hdop>8.0</hdop><vdop>5.875</vdop><extensions><gom:speed>0.32</gom:speed></extensions></trkpt>
   <trkpt lat="59.0711817166" lon="30.0241169356"><ele>101.365</ele><time>2026-04-20T18:00:59.076Z</time><hdop>8.0</hdop><vdop>5.25</vdop><extensions><gom:speed>0.341</gom:speed></extensions></trkpt>
   <trkpt lat="59.0711818423" lon="30.0241163489"><ele>101.367</ele><time>2026-04-20T18:01:00.075Z</time><hdop>8.0</hdop><vdop>5.0</vdop><extensions><gom:speed>0.37</gom:speed></extensions></trkpt>
   <trkpt lat="59.0711816328" lon="30.0241160136"><ele>101.37</ele><time>2026-04-20T18:01:01.075Z</time><hdop>7.875</hdop><vdop>5.0</vdop><extensions><gom:speed>0.388</gom:speed></extensions></trkpt>
   <trkpt lat="59.071181046" lon="30.0241148402"><ele>101.372</ele><time>2026-04-20T18:01:02.075Z</time><hdop>7.875</hdop><vdop>4.75</vdop><extensions><gom:speed>0.264</gom:speed></extensions></trkpt>
   <trkpt lat="59.0711808365" lon="30.02411308"><ele>101.373</ele><time>2026-04-20T18:01:02.743Z</time><hdop>7.875</hdop><vdop>4.75</vdop><extensions><gom:speed>0.304</gom:speed></extensions></trkpt>
   <trkpt lat="59.0711791182" lon="30.024111655"><ele>101.38</ele><time>2026-04-20T18:01:04.075Z</time><hdop>7.875</hdop><vdop>5.0</vdop><extensions><gom:speed>0.271</gom:speed></extensions></trkpt>
   <trkpt lat="59.0711785315" lon="30.0241121579"><ele>101.383</ele><time>2026-04-20T18:01:05.075Z</time><hdop>8.375</hdop><vdop>5.375</vdop><extensions><gom:speed>0.0</gom:speed></extensions></trkpt>
   <trkpt lat="59.0711786572" lon="30.0241121579"><ele>101.388</ele><time>2026-04-20T18:01:06.076Z</time><hdop>8.875</hdop><vdop>5.625</vdop><extensions><gom:speed>0.0</gom:speed></extensions></trkpt>
   <trkpt lat="59.0711786572" lon="30.0241121579"><ele>101.394</ele><time>2026-04-20T18:01:07.076Z</time><hdop>9.625</hdop><vdop>5.5</vdop><extensions><gom:speed>0.0</gom:speed></extensions></trkpt>
   <trkpt lat="59.0711786572" lon="30.0241121579"><ele>101.401</ele><time>2026-04-20T18:01:08.075Z</time><hdop>10.125</hdop><vdop>5.25</vdop><extensions><gom:speed>0.0</gom:speed></extensions></trkpt>
   <trkpt lat="59.0711786572" lon="30.0241121579"><ele>101.405</ele><time>2026-04-20T18:01:09.075Z</time><hdop>10.75</hdop><vdop>5.25</vdop><extensions><gom:speed>0.0</gom:speed></extensions></trkpt>
   <trkpt lat="59.0711786572" lon="30.0241121579"><ele>101.41</ele><time>2026-04-20T18:01:10.075Z</time><hdop>11.25</hdop><vdop>5.125</vdop><extensions><gom:speed>0.0</gom:speed></extensions></trkpt>
   <trkpt lat="59.0711786572" lon="30.0241121579"><ele>101.414</ele><time>2026-04-20T18:01:11.075Z</time><hdop>11.125</hdop><vdop>5.125</vdop><extensions><gom:speed>0.0</gom:speed></extensions></trkpt>
   <trkpt lat="59.0711786572" lon="30.0241121579"><ele>101.417</ele><time>2026-04-20T18:01:12.076Z</time><hdop>11.125</hdop><vdop>4.875</vdop><extensions><gom:speed>0.0</gom:speed></extensions></trkpt>
   <trkpt lat="59.0711786572" lon="30.0241121579"><ele>101.42</ele><time>2026-04-20T18:01:13.075Z</time><hdop>11.0</hdop><vdop>4.625</vdop><extensions><gom:speed>0.0</gom:speed></extensions></trkpt>
   <trkpt lat="59.0711786572" lon="30.0241121579"><ele>101.421</ele><time>2026-04-20T18:01:14.075Z</time><hdop>10.875</hdop><vdop>4.75</vdop><extensions><gom:speed>0.0</gom:speed></extensions></trkpt>
   <trkpt lat="59.0711786572" lon="30.0241121579"><ele>101.421</ele><time>2026-04-20T18:01:15.076Z</time><hdop>10.875</hdop><vdop>4.75</vdop><extensions><gom:speed>0.0</gom:speed></extensions></trkpt>
   <trkpt lat="59.0711786572" lon="30.0241121579"><ele>101.424</ele><time>2026-04-20T18:01:16.076Z</time><hdop>10.75</hdop><vdop>4.875</vdop><extensions><gom:speed>0.0</gom:speed></extensions></trkpt>
   <trkpt lat="59.0711786572" lon="30.0241120741"><ele>101.43</ele><time>2026-04-20T18:01:17.075Z</time><hdop>10.75</hdop><vdop>5.125</vdop><extensions><gom:speed>0.0</gom:speed></extensions></trkpt>
   <trkpt lat="59.0711785315" lon="30.0241120741"><ele>101.432</ele><time>2026-04-20T18:01:18.075Z</time><hdop>10.75</hdop><vdop>5.0</vdop><extensions><gom:speed>0.0</gom:speed></extensions></trkpt>
   <trkpt lat="59.0711785315" lon="30.0241120741"><ele>101.433</ele><time>2026-04-20T18:01:19.075Z</time><hdop>10.75</hdop><vdop>5.0</vdop><extensions><gom:speed>0.0</gom:speed></extensions></trkpt>
   <trkpt lat="59.0711785315" lon="30.0241120741"><ele>101.434</ele><time>2026-04-20T18:01:20.075Z</time><hdop>10.75</hdop><vdop>5.0</vdop><extensions><gom:speed>0.0</gom:speed></extensions></trkpt>
   <trkpt lat="59.0711785315" lon="30.0241120741"><ele>101.434</ele><time>2026-04-20T18:01:21.075Z</time><hdop>10.75</hdop><vdop>5.125</vdop><extensions><gom:speed>0.0</gom:speed></extensions></trkpt>
   <trkpt lat="59.0711785315" lon="30.0241120741"><ele>101.433</ele><time>2026-04-20T18:01:22.076Z</time><hdop>10.75</hdop><vdop>5.125</vdop><extensions><gom:speed>0.0</gom:speed></extensions></trkpt>
   <trkpt lat="59.0711785315" lon="30.0241120741"><ele>101.432</ele><time>2026-04-20T18:01:23.075Z</time><hdop>10.75</hdop><vdop>5.125</vdop><extensions><gom:speed>0.0</gom:speed></extensions></trkpt>
   <trkpt lat="59.0711785315" lon="30.0241120741"><ele>101.431</ele><time>2026-04-20T18:01:24.075Z</time><hdop>10.75</hdop><vdop>5.0</vdop><extensions><gom:speed>0.0</gom:speed></extensions></trkpt>
   <trkpt lat="59.0711784477" lon="30.0241120741"><ele>101.429</ele><time>2026-04-20T18:01:25.075Z</time><hdop>10.875</hdop><vdop>5.25</vdop><extensions><gom:speed>0.0</gom:speed></extensions></trkpt>
   <trkpt lat="59.0711784477" lon="30.0241121579"><ele>101.427</ele><time>2026-04-20T18:01:26.076Z</time><hdop>10.75</hdop><vdop>5.375</vdop><extensions><gom:speed>0.0</gom:speed></extensions></trkpt>
   <trkpt lat="59.0711784477" lon="30.0241121579"><ele>101.424</ele><time>2026-04-20T18:01:27.075Z</time><hdop>10.75</hdop><vdop>5.5</vdop><extensions><gom:speed>0.0</gom:speed></extensions></trkpt>
   <trkpt lat="59.0711783219" lon="30.0241120741"><ele>101.413</ele><time>2026-04-20T18:01:28.075Z</time><hdop>10.75</hdop><vdop>5.375</vdop><extensions><gom:speed>0.0</gom:speed></extensions></trkpt>
   <trkpt lat="59.0711783219" lon="30.0241119903"><ele>101.405</ele><time>2026-04-20T18:01:29.075Z</time><hdop>10.75</hdop><vdop>5.375</vdop><extensions><gom:speed>0.0</gom:speed></extensions></trkpt>
   <trkpt lat="59.0711783219" lon="30.0241119903"><ele>101.397</ele><time>2026-04-20T18:01:30.075Z</time><hdop>10.75</hdop><vdop>5.5</vdop><extensions><gom:speed>0.0</gom:speed></extensions></trkpt>
   <trkpt lat="59.0711782381" lon="30.0241119065"><ele>101.392</ele><time>2026-04-20T18:01:31.075Z</time><hdop>10.625</hdop><vdop>5.625</vdop><extensions><gom:speed>0.0</gom:speed></extensions></trkpt>
   <trkpt lat="59.0711782381" lon="30.0241119903"><ele>101.405</ele><time>2026-04-20T18:01:32.075Z</time><hdop>10.625</hdop><vdop>5.5</vdop><extensions><gom:speed>0.0</gom:speed></extensions></trkpt>
   <trkpt lat="59.0711781543" lon="30.0241120741"><ele>101.413</ele><time>2026-04-20T18:01:33.075Z</time><hdop>10.625</hdop><vdop>5.25</vdop><extensions><gom:speed>0.0</gom:speed></extensions></trkpt>
   <trkpt lat="59.0711781543" lon="30.0241120741"><ele>101.433</ele><time>2026-04-20T18:01:34.075Z</time><hdop>10.625</hdop><vdop>5.25</vdop><extensions><gom:speed>0.0</gom:speed></extensions></trkpt>
   <trkpt lat="59.0711782381" lon="30.0241120741"><ele>101.459</ele><time>2026-04-20T18:01:35.075Z</time><hdop>10.625</hdop><vdop>5.375</vdop><extensions><gom:speed>0.0</gom:speed></extensions></trkpt>
   <trkpt lat="59.0711782381" lon="30.0241120741"><ele>101.48</ele><time>2026-04-20T18:01:36.075Z</time><hdop>10.625</hdop><vdop>5.25</vdop><extensions><gom:speed>0.0</gom:speed></extensions></trkpt>
   <trkpt lat="59.0711782381" lon="30.0241121579"><ele>101.517</ele><time>2026-04-20T18:01:37.075Z</time><hdop>10.625</hdop><vdop>5.125</vdop><extensions><gom:speed>0.0</gom:speed></extensions></trkpt>
   <trkpt lat="59.0711782381" lon="30.0241124094"><ele>101.538</ele><time>2026-04-20T18:01:38.075Z</time><hdop>10.5</hdop><vdop>5.125</vdop><extensions><gom:speed>0.0</gom:speed></extensions></trkpt>
   <trkpt lat="59.0711782381" lon="30.0241122418"><ele>101.544</ele><time>2026-04-20T18:01:39.075Z</time><hdop>10.5</hdop><vdop>5.125</vdop><extensions><gom:speed>0.0</gom:speed></extensions></trkpt>
   <trkpt lat="59.0711782381" lon="30.0241122418"><ele>101.542</ele><time>2026-04-20T18:01:40.075Z</time><hdop>10.5</hdop><vdop>5.0</vdop><extensions><gom:speed>0.0</gom:speed></extensions></trkpt>
   <trkpt lat="59.0711783219" lon="30.0241121579"><ele>101.553</ele><time>2026-04-20T18:01:41.075Z</time><hdop>10.5</hdop><vdop>5.125</vdop><extensions><gom:speed>0.0</gom:speed></extensions></trkpt>
   <trkpt lat="59.0711784477" lon="30.0241120741"><ele>101.56</ele><time>2026-04-20T18:01:42.075Z</time><hdop>10.5</hdop><vdop>5.25</vdop><extensions><gom:speed>0.0</gom:speed></extensions></trkpt>
   <trkpt lat="59.0711784477" lon="30.0241120741"><ele>101.567</ele><time>2026-04-20T18:01:43.076Z</time><hdop>10.75</hdop><vdop>5.5</vdop><extensions><gom:speed>0.0</gom:speed></extensions></trkpt>
   <trkpt lat="59.0711785315" lon="30.0241121579"><ele>101.572</ele><time>2026-04-20T18:01:44.075Z</time><hdop>11.0</hdop><vdop>5.75</vdop><extensions><gom:speed>0.0</gom:speed></extensions></trkpt>
   <trkpt lat="59.0711785315" lon="30.0241121579"><ele>101.579</ele><time>2026-04-20T18:01:45.075Z</time><hdop>11.375</hdop><vdop>5.75</vdop><extensions><gom:speed>0.0</gom:speed></extensions></trkpt>
   <trkpt lat="59.0711785315" lon="30.0241122418"><ele>101.584</ele><time>2026-04-20T18:01:46.075Z</time><hdop>11.75</hdop><vdop>6.0</vdop><extensions><gom:speed>0.0</gom:speed></extensions></trkpt>
   <trkpt lat="59.0711785315" lon="30.0241122418"><ele>101.588</ele><time>2026-04-20T18:01:47.076Z</time><hdop>12.25</hdop><vdop>6.125</vdop><extensions><gom:speed>0.0</gom:speed></extensions></trkpt>
   <trkpt lat="59.0711785315" lon="30.0241122418"><ele>101.593</ele><time>2026-04-20T18:01:48.075Z</time><hdop>12.625</hdop><vdop>5.875</vdop><extensions><gom:speed>0.0</gom:speed></extensions></trkpt>
   <trkpt lat="59.0711785315" lon="30.0241122418"><ele>101.596</ele><time>2026-04-20T18:01:49.075Z</time><hdop>12.75</hdop><vdop>5.75</vdop><extensions><gom:speed>0.0</gom:speed></extensions></trkpt>
   <trkpt lat="59.0711785315" lon="30.0241122418"><ele>101.598</ele><time>2026-04-20T18:01:50.075Z</time><hdop>12.75</hdop><vdop>5.5</vdop><extensions><gom:speed>0.0</gom:speed></extensions></trkpt>
   <trkpt lat="59.0711785315" lon="30.0241122418"><ele>101.599</ele><time>2026-04-20T18:01:51.075Z</time><hdop>12.625</hdop><vdop>5.25</vdop><extensions><gom:speed>0.0</gom:speed></extensions></trkpt>
   <trkpt lat="59.0711785315" lon="30.0241122418"><ele>101.597</ele><time>2026-04-20T18:01:52.075Z</time><hdop>12.375</hdop><vdop>5.125</vdop><extensions><gom:speed>0.0</gom:speed></extensions></trkpt>
   <trkpt lat="59.0711785315" lon="30.0241122418"><ele>101.595</ele><time>2026-04-20T18:01:53.075Z</time><hdop>12.125</hdop><vdop>5.0</vdop><extensions><gom:speed>0.0</gom:speed></extensions></trkpt>
   <trkpt lat="59.0711785315" lon="30.0241122418"><ele>101.594</ele><time>2026-04-20T18:01:54.075Z</time><hdop>11.75</hdop><vdop>4.75</vdop><extensions><gom:speed>0.0</gom:speed></extensions></trkpt>
   <trkpt lat="59.0711785315" lon="30.0241122418"><ele>101.594</ele><time>2026-04-20T18:01:55.075Z</time><hdop>11.5</hdop><vdop>4.75</vdop><extensions><gom:speed>0.0</gom:speed></extensions></trkpt>
   <trkpt lat="59.0711785315" lon="30.0241122418"><ele>101.595</ele><time>2026-04-20T18:01:56.076Z</time><hdop>11.375</hdop><vdop>4.875</vdop><extensions><gom:speed>0.0</gom:speed></extensions></trkpt>
   <trkpt lat="59.0711785315" lon="30.0241122418"><ele>101.597</ele><time>2026-04-20T18:01:57.075Z</time><hdop>11.25</hdop><vdop>5.0</vdop><extensions><gom:speed>0.0</gom:speed></extensions></trkpt>
   <trkpt lat="59.0711785315" lon="30.0241122418"><ele>101.596</ele><time>2026-04-20T18:01:58.075Z</time><hdop>11.125</hdop><vdop>5.0</vdop><extensions><gom:speed>0.0</gom:speed></extensions></trkpt>
   <trkpt lat="59.0711785315" lon="30.0241124094"><ele>101.604</ele><time>2026-04-20T18:01:59.075Z</time><hdop>11.0</hdop><vdop>5.25</vdop><extensions><gom:speed>0.0</gom:speed></extensions></trkpt>
   <trkpt lat="59.0711785315" lon="30.0241124094"><ele>101.608</ele><time>2026-04-20T18:02:00.076Z</time><hdop>11.0</hdop><vdop>5.25</vdop><extensions><gom:speed>0.0</gom:speed></extensions></trkpt>
   <trkpt lat="59.0711786572" lon="30.0241124932"><ele>101.613</ele><time>2026-04-20T18:02:01.075Z</time><hdop>11.0</hdop><vdop>5.375</vdop><extensions><gom:speed>0.0</gom:speed></extensions></trkpt>
   <trkpt lat="59.0711786572" lon="30.0241124932"><ele>101.615</ele><time>2026-04-20T18:02:02.075Z</time><hdop>11.0</hdop><vdop>5.375</vdop><extensions><gom:speed>0.0</gom:speed></extensions></trkpt>
   <trkpt lat="59.0711786572" lon="30.0241124932"><ele>101.614</ele><time>2026-04-20T18:02:03.075Z</time><hdop>11.0</hdop><vdop>5.375</vdop><extensions><gom:speed>0.0</gom:speed></extensions></trkpt>
   <trkpt lat="59.0711786572" lon="30.0241124932"><ele>101.615</ele><time>2026-04-20T18:02:04.075Z</time><hdop>11.0</hdop><vdop>5.375</vdop><extensions><gom:speed>0.0</gom:speed></extensions></trkpt>
   <trkpt lat="59.071178741" lon="30.0241124932"><ele>101.615</ele><time>2026-04-20T18:02:05.075Z</time><hdop>11.0</hdop><vdop>5.625</vdop><extensions><gom:speed>0.0</gom:speed></extensions></trkpt>
   <trkpt lat="59.071178741" lon="30.0241124932"><ele>101.626</ele><time>2026-04-20T18:02:06.075Z</time><hdop>11.125</hdop><vdop>5.5</vdop><extensions><gom:speed>0.0</gom:speed></extensions></trkpt>
   <trkpt lat="59.0711788248" lon="30.024112577"><ele>101.637</ele><time>2026-04-20T18:02:07.076Z</time><hdop>11.125</hdop><vdop>5.625</vdop><extensions><gom:speed>0.0</gom:speed></extensions></trkpt>
   <trkpt lat="59.0711788248" lon="30.024112577"><ele>101.645</ele><time>2026-04-20T18:02:08.075Z</time><hdop>11.25</hdop><vdop>5.5</vdop><extensions><gom:speed>0.0</gom:speed></extensions></trkpt>
   <trkpt lat="59.0711789506" lon="30.0241126609"><ele>101.66</ele><time>2026-04-20T18:02:09.075Z</time><hdop>11.25</hdop><vdop>5.375</vdop><extensions><gom:speed>0.0</gom:speed></extensions></trkpt>
   <trkpt lat="59.0711790344" lon="30.0241127447"><ele>101.682</ele><time>2026-04-20T18:02:10.076Z</time><hdop>11.25</hdop><vdop>5.625</vdop><extensions><gom:speed>0.0</gom:speed></extensions></trkpt>
   <trkpt lat="59.0711790344" lon="30.0241129123"><ele>101.697</ele><time>2026-04-20T18:02:11.075Z</time><hdop>11.25</hdop><vdop>5.625</vdop><extensions><gom:speed>0.0</gom:speed></extensions></trkpt>
   <trkpt lat="59.0711791182" lon="30.0241129123"><ele>101.707</ele><time>2026-04-20T18:02:12.075Z</time><hdop>11.25</hdop><vdop>5.5</vdop><extensions><gom:speed>0.0</gom:speed></extensions></trkpt>
   <trkpt lat="59.0711791182" lon="30.0241129123"><ele>101.716</ele><time>2026-04-20T18:02:13.075Z</time><hdop>11.125</hdop><vdop>5.375</vdop><extensions><gom:speed>0.0</gom:speed></extensions></trkpt>
   <trkpt lat="59.0711792439" lon="30.0241129123"><ele>101.723</ele><time>2026-04-20T18:02:14.075Z</time><hdop>11.125</hdop><vdop>5.375</vdop><extensions><gom:speed>0.0</gom:speed></extensions></trkpt>
   <trkpt lat="59.0711792439" lon="30.0241129123"><ele>101.728</ele><time>2026-04-20T18:02:15.075Z</time><hdop>11.0</hdop><vdop>5.25</vdop><extensions><gom:speed>0.0</gom:speed></extensions></trkpt>
   <trkpt lat="59.0711793278" lon="30.0241127447"><ele>101.73</ele><time>2026-04-20T18:02:16.075Z</time><hdop>11.0</hdop><vdop>5.25</vdop><extensions><gom:speed>0.0</gom:speed></extensions></trkpt>
   <trkpt lat="59.0711793278" lon="30.0241127447"><ele>101.736</ele><time>2026-04-20T18:02:17.075Z</time><hdop>10.875</hdop><vdop>5.125</vdop><extensions><gom:speed>0.0</gom:speed></extensions></trkpt>
   <trkpt lat="59.0711794535" lon="30.0241126609"><ele>101.744</ele><time>2026-04-20T18:02:18.075Z</time><hdop>10.75</hdop><vdop>5.125</vdop><extensions><gom:speed>0.0</gom:speed></extensions></trkpt>
   <trkpt lat="59.0711794535" lon="30.0241126609"><ele>101.752</ele><time>2026-04-20T18:02:19.075Z</time><hdop>10.75</hdop><vdop>5.125</vdop><extensions><gom:speed>0.0</gom:speed></extensions></trkpt>
   <trkpt lat="59.0711795373" lon="30.0241126609"><ele>101.76</ele><time>2026-04-20T18:02:20.075Z</time><hdop>10.75</hdop><vdop>5.25</vdop><extensions><gom:speed>0.0</gom:speed></extensions></trkpt>
   <trkpt lat="59.0711795373" lon="30.024112577"><ele>101.764</ele><time>2026-04-20T18:02:21.075Z</time><hdop>10.625</hdop><vdop>5.25</vdop><extensions><gom:speed>0.0</gom:speed></extensions></trkpt>
   <trkpt lat="59.0711795373" lon="30.024112577"><ele>101.765</ele><time>2026-04-20T18:02:22.076Z</time><hdop>10.625</hdop><vdop>5.25</vdop><extensions><gom:speed>0.0</gom:speed></extensions></trkpt>
   <trkpt lat="59.0711796211" lon="30.024112577"><ele>101.766</ele><time>2026-04-20T18:02:23.076Z</time><hdop>10.625</hdop><vdop>5.25</vdop><extensions><gom:speed>0.0</gom:speed></extensions></trkpt>
   <trkpt lat="59.0711796211" lon="30.0241124932"><ele>101.77</ele><time>2026-04-20T18:02:24.075Z</time><hdop>10.625</hdop><vdop>5.375</vdop><extensions><gom:speed>0.0</gom:speed></extensions></trkpt>
   <trkpt lat="59.0711796211" lon="30.0241124932"><ele>101.778</ele><time>2026-04-20T18:02:25.075Z</time><hdop>10.625</hdop><vdop>5.5</vdop><extensions><gom:speed>0.0</gom:speed></extensions></trkpt>
   <trkpt lat="59.0711797468" lon="30.0241124932"><ele>101.786</ele><time>2026-04-20T18:02:26.076Z</time><hdop>10.625</hdop><vdop>5.5</vdop><extensions><gom:speed>0.0</gom:speed></extensions></trkpt>
   <trkpt lat="59.0711797468" lon="30.0241124932"><ele>101.793</ele><time>2026-04-20T18:02:27.075Z</time><hdop>10.625</hdop><vdop>5.5</vdop><extensions><gom:speed>0.0</gom:speed></extensions></trkpt>
   <trkpt lat="59.0711798307" lon="30.0241124094"><ele>101.802</ele><time>2026-04-20T18:02:28.075Z</time><hdop>10.625</hdop><vdop>5.375</vdop><extensions><gom:speed>0.0</gom:speed></extensions></trkpt>
   <trkpt lat="59.0711798307" lon="30.0241124094"><ele>101.811</ele><time>2026-04-20T18:02:29.076Z</time><hdop>10.625</hdop><vdop>5.25</vdop><extensions><gom:speed>0.0</gom:speed></extensions></trkpt>
   <trkpt lat="59.0711798307" lon="30.0241122418"><ele>101.82</ele><time>2026-04-20T18:02:30.075Z</time><hdop>10.625</hdop><vdop>5.375</vdop><extensions><gom:speed>0.0</gom:speed></extensions></trkpt>
   <trkpt lat="59.0711799564" lon="30.0241122418"><ele>101.829</ele><time>2026-04-20T18:02:31.075Z</time><hdop>10.625</hdop><vdop>5.375</vdop><extensions><gom:speed>0.0</gom:speed></extensions></trkpt>
   <trkpt lat="59.0711799564" lon="30.0241121579"><ele>101.836</ele><time>2026-04-20T18:02:32.075Z</time><hdop>10.625</hdop><vdop>5.25</vdop><extensions><gom:speed>0.0</gom:speed></extensions></trkpt>
   <trkpt lat="59.0711799564" lon="30.0241120741"><ele>101.84</ele><time>2026-04-20T18:02:33.076Z</time><hdop>10.625</hdop><vdop>5.125</vdop><extensions><gom:speed>0.0</gom:speed></extensions></trkpt>
   <trkpt lat="59.0711800402" lon="30.0241120741"><ele>101.843</ele><time>2026-04-20T18:02:34.075Z</time><hdop>10.625</hdop><vdop>5.375</vdop><extensions><gom:speed>0.0</gom:speed></extensions></trkpt>
   <trkpt lat="59.0711800402" lon="30.0241119903"><ele>101.846</ele><time>2026-04-20T18:02:35.075Z</time><hdop>10.5</hdop><vdop>5.375</vdop><extensions><gom:speed>0.0</gom:speed></extensions></trkpt>
   <trkpt lat="59.0711800402" lon="30.0241119065"><ele>101.847</ele><time>2026-04-20T18:02:36.076Z</time><hdop>10.5</hdop><vdop>5.375</vdop><extensions><gom:speed>0.0</gom:speed></extensions></trkpt>
   <trkpt lat="59.0711800402" lon="30.0241117388"><ele>101.852</ele><time>2026-04-20T18:02:37.075Z</time><hdop>10.5</hdop><vdop>5.25</vdop><extensions><gom:speed>0.0</gom:speed></extensions></trkpt>
   <trkpt lat="59.071180124" lon="30.024111655"><ele>101.857</ele><time>2026-04-20T18:02:38.076Z</time><hdop>10.5</hdop><vdop>5.5</vdop><extensions><gom:speed>0.0</gom:speed></extensions></trkpt>
   <trkpt lat="59.071180124" lon="30.024111655"><ele>101.861</ele><time>2026-04-20T18:02:39.076Z</time><hdop>10.5</hdop><vdop>5.25</vdop><extensions><gom:speed>0.0</gom:speed></extensions></trkpt>
   <trkpt lat="59.071180124" lon="30.024111655"><ele>101.862</ele><time>2026-04-20T18:02:40.076Z</time><hdop>10.5</hdop><vdop>5.0</vdop><extensions><gom:speed>0.0</gom:speed></extensions></trkpt>
   <trkpt lat="59.071180124" lon="30.0241115712"><ele>101.862</ele><time>2026-04-20T18:02:41.076Z</time><hdop>10.5</hdop><vdop>5.0</vdop><extensions><gom:speed>0.0</gom:speed></extensions></trkpt>
   <trkpt lat="59.071180124" lon="30.024111655"><ele>101.861</ele><time>2026-04-20T18:02:42.075Z</time><hdop>10.5</hdop><vdop>5.0</vdop><extensions><gom:speed>0.0</gom:speed></extensions></trkpt>
   <trkpt lat="59.071180124" lon="30.0241115712"><ele>101.857</ele><time>2026-04-20T18:02:43.075Z</time><hdop>10.5</hdop><vdop>5.25</vdop><extensions><gom:speed>0.0</gom:speed></extensions></trkpt>
   <trkpt lat="59.0711800402" lon="30.0241115712"><ele>101.853</ele><time>2026-04-20T18:02:44.075Z</time><hdop>10.5</hdop><vdop>5.5</vdop><extensions><gom:speed>0.0</gom:speed></extensions></trkpt>
   <trkpt lat="59.071180124" lon="30.0241115712"><ele>101.853</ele><time>2026-04-20T18:02:45.075Z</time><hdop>10.5</hdop><vdop>5.375</vdop><extensions><gom:speed>0.0</gom:speed></extensions></trkpt>
   <trkpt lat="59.071180124" lon="30.0241115712"><ele>101.854</ele><time>2026-04-20T18:02:46.075Z</time><hdop>10.375</hdop><vdop>5.25</vdop><extensions><gom:speed>0.0</gom:speed></extensions></trkpt>
   <trkpt lat="59.071180124" lon="30.0241115712"><ele>101.85</ele><time>2026-04-20T18:02:47.075Z</time><hdop>10.375</hdop><vdop>5.25</vdop><extensions><gom:speed>0.0</gom:speed></extensions></trkpt>
   <trkpt lat="59.0711802498" lon="30.0241115712"><ele>101.848</ele><time>2026-04-20T18:02:48.075Z</time><hdop>10.25</hdop><vdop>5.25</vdop><extensions><gom:speed>0.0</gom:speed></extensions></trkpt>
   <trkpt lat="59.0711802498" lon="30.0241115712"><ele>101.849</ele><time>2026-04-20T18:02:49.075Z</time><hdop>10.25</hdop><vdop>5.375</vdop><extensions><gom:speed>0.0</gom:speed></extensions></trkpt>
   <trkpt lat="59.0711802498" lon="30.0241115712"><ele>101.849</ele><time>2026-04-20T18:02:50.076Z</time><hdop>10.25</hdop><vdop>5.375</vdop><extensions><gom:speed>0.0</gom:speed></extensions></trkpt>
   <trkpt lat="59.0711803336" lon="30.0241115712"><ele>101.848</ele><time>2026-04-20T18:02:51.076Z</time><hdop>10.25</hdop><vdop>5.375</vdop><extensions><gom:speed>0.0</gom:speed></extensions></trkpt>
   <trkpt lat="59.0711803336" lon="30.0241115712"><ele>101.846</ele><time>2026-04-20T18:02:52.076Z</time><hdop>10.25</hdop><vdop>5.375</vdop><extensions><gom:speed>0.0</gom:speed></extensions></trkpt>
   <trkpt lat="59.0711803336" lon="30.0241115712"><ele>101.844</ele><time>2026-04-20T18:02:53.075Z</time><hdop>10.25</hdop><vdop>5.375</vdop><extensions><gom:speed>0.0</gom:speed></extensions></trkpt>
   <trkpt lat="59.0711803336" lon="30.0241115712"><ele>101.843</ele><time>2026-04-20T18:02:54.075Z</time><hdop>10.375</hdop><vdop>5.5</vdop><extensions><gom:speed>0.0</gom:speed></extensions></trkpt>
   <trkpt lat="59.0711804174" lon="30.0241115712"><ele>101.845</ele><time>2026-04-20T18:02:55.075Z</time><hdop>10.375</hdop><vdop>5.375</vdop><extensions><gom:speed>0.0</gom:speed></extensions></trkpt>
   <trkpt lat="59.0711804174" lon="30.0241115712"><ele>101.847</ele><time>2026-04-20T18:02:56.075Z</time><hdop>10.375</hdop><vdop>5.375</vdop><extensions><gom:speed>0.0</gom:speed></extensions></trkpt>
   <trkpt lat="59.0711804174" lon="30.0241114874"><ele>101.85</ele><time>2026-04-20T18:02:57.075Z</time><hdop>10.375</hdop><vdop>5.25</vdop><extensions><gom:speed>0.0</gom:speed></extensions></trkpt>
   <trkpt lat="59.0711804174" lon="30.0241114874"><ele>101.854</ele><time>2026-04-20T18:02:58.075Z</time><hdop>10.25</hdop><vdop>5.5</vdop><extensions><gom:speed>0.0</gom:speed></extensions></trkpt>
   <trkpt lat="59.0711805431" lon="30.0241114874"><ele>101.858</ele><time>2026-04-20T18:02:59.075Z</time><hdop>10.25</hdop><vdop>5.375</vdop><extensions><gom:speed>0.0</gom:speed></extensions></trkpt>
   <trkpt lat="59.0711805431" lon="30.0241114874"><ele>101.864</ele><time>2026-04-20T18:03:00.076Z</time><hdop>10.25</hdop><vdop>5.625</vdop><extensions><gom:speed>0.0</gom:speed></extensions></trkpt>
   <trkpt lat="59.0711806269" lon="30.0241114874"><ele>101.868</ele><time>2026-04-20T18:03:01.075Z</time><hdop>10.25</hdop><vdop>5.5</vdop><extensions><gom:speed>0.0</gom:speed></extensions></trkpt>
   <trkpt lat="59.0711806269" lon="30.0241114874"><ele>101.869</ele><time>2026-04-20T18:03:02.075Z</time><hdop>10.25</hdop><vdop>5.5</vdop><extensions><gom:speed>0.0</gom:speed></extensions></trkpt>
   <trkpt lat="59.0711806269" lon="30.0241114874"><ele>101.874</ele><time>2026-04-20T18:03:03.075Z</time><hdop>10.25</hdop><vdop>5.5</vdop><extensions><gom:speed>0.0</gom:speed></extensions></trkpt>
   <trkpt lat="59.0711806269" lon="30.0241114874"><ele>101.876</ele><time>2026-04-20T18:03:04.075Z</time><hdop>10.375</hdop><vdop>5.5</vdop><extensions><gom:speed>0.0</gom:speed></extensions></trkpt>
   <trkpt lat="59.0711806269" lon="30.0241114874"><ele>101.874</ele><time>2026-04-20T18:03:05.075Z</time><hdop>10.375</hdop><vdop>5.5</vdop><extensions><gom:speed>0.0</gom:speed></extensions></trkpt>
   <trkpt lat="59.0711806269" lon="30.0241114036"><ele>101.885</ele><time>2026-04-20T18:03:06.075Z</time><hdop>10.5</hdop><vdop>5.625</vdop><extensions><gom:speed>0.0</gom:speed></extensions></trkpt>
   <trkpt lat="59.0711807527" lon="30.0241112359"><ele>101.89</ele><time>2026-04-20T18:03:07.075Z</time><hdop>10.5</hdop><vdop>5.75</vdop><extensions><gom:speed>0.0</gom:speed></extensions></trkpt>
   <trkpt lat="59.0711807527" lon="30.0241111521"><ele>101.893</ele><time>2026-04-20T18:03:08.075Z</time><hdop>10.5</hdop><vdop>5.875</vdop><extensions><gom:speed>0.0</gom:speed></extensions></trkpt>
   <trkpt lat="59.0711807527" lon="30.0241111521"><ele>101.895</ele><time>2026-04-20T18:03:09.076Z</time><hdop>10.5</hdop><vdop>6.125</vdop><extensions><gom:speed>0.0</gom:speed></extensions></trkpt>
   <trkpt lat="59.0711807527" lon="30.0241110683"><ele>101.895</ele><time>2026-04-20T18:03:10.076Z</time><hdop>10.625</hdop><vdop>6.25</vdop><extensions><gom:speed>0.0</gom:speed></extensions></trkpt>
   <trkpt lat="59.0711806269" lon="30.0241110683"><ele>101.894</ele><time>2026-04-20T18:03:11.076Z</time><hdop>10.75</hdop><vdop>6.25</vdop><extensions><gom:speed>0.0</gom:speed></extensions></trkpt>
   <trkpt lat="59.0711806269" lon="30.0241109845"><ele>101.891</ele><time>2026-04-20T18:03:12.075Z</time><hdop>10.875</hdop><vdop>6.375</vdop><extensions><gom:speed>0.0</gom:speed></extensions></trkpt>
   <trkpt lat="59.0711806269" lon="30.0241109007"><ele>101.888</ele><time>2026-04-20T18:03:13.075Z</time><hdop>11.0</hdop><vdop>6.125</vdop><extensions><gom:speed>0.0</gom:speed></extensions></trkpt>
   <trkpt lat="59.0711806269" lon="30.024110733"><ele>101.885</ele><time>2026-04-20T18:03:14.076Z</time><hdop>11.125</hdop><vdop>5.875</vdop><extensions><gom:speed>0.0</gom:speed></extensions></trkpt>
   <trkpt lat="59.0711806269" lon="30.024110733"><ele>101.881</ele><time>2026-04-20T18:03:15.075Z</time><hdop>11.125</hdop><vdop>5.625</vdop><extensions><gom:speed>0.0</gom:speed></extensions></trkpt>
   <trkpt lat="59.0711806269" lon="30.0241106492"><ele>101.876</ele><time>2026-04-20T18:03:16.075Z</time><hdop>11.125</hdop><vdop>5.5</vdop><extensions><gom:speed>0.0</gom:speed></extensions></trkpt>
   <trkpt lat="59.0711806269" lon="30.0241105654"><ele>101.87</ele><time>2026-04-20T18:03:17.075Z</time><hdop>11.125</hdop><vdop>5.25</vdop><extensions><gom:speed>0.0</gom:speed></extensions></trkpt>
   <trkpt lat="59.0711805431" lon="30.0241105654"><ele>101.863</ele><time>2026-04-20T18:03:18.075Z</time><hdop>11.0</hdop><vdop>5.0</vdop><extensions><gom:speed>0.0</gom:speed></extensions></trkpt>
   <trkpt lat="59.0711805431" lon="30.0241104816"><ele>101.857</ele><time>2026-04-20T18:03:19.075Z</time><hdop>10.75</hdop><vdop>4.875</vdop><extensions><gom:speed>0.0</gom:speed></extensions></trkpt>
   <trkpt lat="59.0711805431" lon="30.0241103977"><ele>101.85</ele><time>2026-04-20T18:03:20.076Z</time><hdop>10.625</hdop><vdop>4.625</vdop><extensions><gom:speed>0.0</gom:speed></extensions></trkpt>
   <trkpt lat="59.0711804174" lon="30.0241103139"><ele>101.844</ele><time>2026-04-20T18:03:21.075Z</time><hdop>10.5</hdop><vdop>4.625</vdop><extensions><gom:speed>0.0</gom:speed></extensions></trkpt>
   <trkpt lat="59.0711804174" lon="30.0241101463"><ele>101.837</ele><time>2026-04-20T18:03:22.075Z</time><hdop>10.5</hdop><vdop>4.75</vdop><extensions><gom:speed>0.0</gom:speed></extensions></trkpt>
   <trkpt lat="59.0711804174" lon="30.0241100625"><ele>101.831</ele><time>2026-04-20T18:03:23.075Z</time><hdop>10.375</hdop><vdop>5.125</vdop><extensions><gom:speed>0.0</gom:speed></extensions></trkpt>
   <trkpt lat="59.0711803336" lon="30.0241099787"><ele>101.823</ele><time>2026-04-20T18:03:24.075Z</time><hdop>10.375</hdop><vdop>5.25</vdop><extensions><gom:speed>0.0</gom:speed></extensions></trkpt>
   <trkpt lat="59.0711802498" lon="30.0241099787"><ele>101.813</ele><time>2026-04-20T18:03:25.075Z</time><hdop>10.375</hdop><vdop>5.0</vdop><extensions><gom:speed>0.0</gom:speed></extensions></trkpt>
   <trkpt lat="59.0711802498" lon="30.0241098948"><ele>101.803</ele><time>2026-04-20T18:03:26.075Z</time><hdop>10.375</hdop><vdop>4.875</vdop><extensions><gom:speed>0.0</gom:speed></extensions></trkpt>
   <trkpt lat="59.071180124" lon="30.0241098948"><ele>101.797</ele><time>2026-04-20T18:03:27.076Z</time><hdop>10.375</hdop><vdop>4.625</vdop><extensions><gom:speed>0.0</gom:speed></extensions></trkpt>
   <trkpt lat="59.0711800402" lon="30.024109811"><ele>101.79</ele><time>2026-04-20T18:03:28.075Z</time><hdop>10.25</hdop><vdop>4.625</vdop><extensions><gom:speed>0.0</gom:speed></extensions></trkpt>
   <trkpt lat="59.0711799564" lon="30.024109811"><ele>101.787</ele><time>2026-04-20T18:03:29.075Z</time><hdop>10.25</hdop><vdop>4.625</vdop><extensions><gom:speed>0.0</gom:speed></extensions></trkpt>
   <trkpt lat="59.0711798307" lon="30.0241096434"><ele>101.783</ele><time>2026-04-20T18:03:30.075Z</time><hdop>10.25</hdop><vdop>4.75</vdop><extensions><gom:speed>0.0</gom:speed></extensions></trkpt>
   <trkpt lat="59.0711797468" lon="30.0241096434"><ele>101.778</ele><time>2026-04-20T18:03:31.075Z</time><hdop>10.25</hdop><vdop>4.5</vdop><extensions><gom:speed>0.0</gom:speed></extensions></trkpt>
   <trkpt lat="59.0711796211" lon="30.0241095596"><ele>101.773</ele><time>2026-04-20T18:03:32.075Z</time><hdop>10.25</hdop><vdop>4.375</vdop><extensions><gom:speed>0.0</gom:speed></extensions></trkpt>
   <trkpt lat="59.0711795373" lon="30.0241095596"><ele>101.768</ele><time>2026-04-20T18:03:33.075Z</time><hdop>10.25</hdop><vdop>4.25</vdop><extensions><gom:speed>0.0</gom:speed></extensions></trkpt>
   <trkpt lat="59.0711794535" lon="30.0241094757"><ele>101.763</ele><time>2026-04-20T18:03:34.076Z</time><hdop>10.25</hdop><vdop>4.0</vdop><extensions><gom:speed>0.0</gom:speed></extensions></trkpt>
   <trkpt lat="59.0711793278" lon="30.0241094757"><ele>101.757</ele><time>2026-04-20T18:03:35.076Z</time><hdop>10.125</hdop><vdop>3.875</vdop><extensions><gom:speed>0.0</gom:speed></extensions></trkpt>
   <trkpt lat="59.0711792439" lon="30.0241093919"><ele>101.75</ele><time>2026-04-20T18:03:36.075Z</time><hdop>10.125</hdop><vdop>3.75</vdop><extensions><gom:speed>0.0</gom:speed></extensions></trkpt>
   <trkpt lat="59.0711791182" lon="30.0241093919"><ele>101.746</ele><time>2026-04-20T18:03:37.075Z</time><hdop>10.125</hdop><vdop>3.625</vdop><extensions><gom:speed>0.0</gom:speed></extensions></trkpt>
   <trkpt lat="59.0711790344" lon="30.0241094757"><ele>101.748</ele><time>2026-04-20T18:03:38.075Z</time><hdop>10.125</hdop><vdop>3.625</vdop><extensions><gom:speed>0.0</gom:speed></extensions></trkpt>
   <trkpt lat="59.0711788248" lon="30.0241094757"><ele>101.75</ele><time>2026-04-20T18:03:39.075Z</time><hdop>10.125</hdop><vdop>3.75</vdop><extensions><gom:speed>0.0</gom:speed></extensions></trkpt>
   <trkpt lat="59.071178741" lon="30.0241094757"><ele>101.752</ele><time>2026-04-20T18:03:40.075Z</time><hdop>10.125</hdop><vdop>3.625</vdop><extensions><gom:speed>0.0</gom:speed></extensions></trkpt>
   <trkpt lat="59.0711786572" lon="30.0241094757"><ele>101.753</ele><time>2026-04-20T18:03:41.075Z</time><hdop>10.125</hdop><vdop>3.75</vdop><extensions><gom:speed>0.0</gom:speed></extensions></trkpt>
   <trkpt lat="59.0711785315" lon="30.0241094757"><ele>101.753</ele><time>2026-04-20T18:03:42.075Z</time><hdop>10.125</hdop><vdop>3.5</vdop><extensions><gom:speed>0.0</gom:speed></extensions></trkpt>
   <trkpt lat="59.0711784477" lon="30.0241093919"><ele>101.754</ele><time>2026-04-20T18:03:43.075Z</time><hdop>10.125</hdop><vdop>3.5</vdop><extensions><gom:speed>0.0</gom:speed></extensions></trkpt>
   <trkpt lat="59.0711783219" lon="30.0241093919"><ele>101.755</ele><time>2026-04-20T18:03:44.075Z</time><hdop>10.0</hdop><vdop>3.5</vdop><extensions><gom:speed>0.0</gom:speed></extensions></trkpt>
   <trkpt lat="59.0711782381" lon="30.0241093919"><ele>101.756</ele><time>2026-04-20T18:03:45.075Z</time><hdop>10.0</hdop><vdop>3.625</vdop><extensions><gom:speed>0.0</gom:speed></extensions></trkpt>
   <trkpt lat="59.0711781543" lon="30.0241093081"><ele>101.755</ele><time>2026-04-20T18:03:46.075Z</time><hdop>10.0</hdop><vdop>3.75</vdop><extensions><gom:speed>0.0</gom:speed></extensions></trkpt>
   <trkpt lat="59.0711780286" lon="30.0241093081"><ele>101.753</ele><time>2026-04-20T18:03:47.075Z</time><hdop>10.0</hdop><vdop>3.75</vdop><extensions><gom:speed>0.0</gom:speed></extensions></trkpt>
   <trkpt lat="59.0711779447" lon="30.0241093081"><ele>101.748</ele><time>2026-04-20T18:03:48.075Z</time><hdop>10.0</hdop><vdop>4.125</vdop><extensions><gom:speed>0.0</gom:speed></extensions></trkpt>
   <trkpt lat="59.0711545173" lon="30.0241161813"><ele>102.783</ele><time>2026-04-20T18:03:49.075Z</time><hdop>10.0</hdop><vdop>3.0</vdop><extensions><gom:speed>0.0</gom:speed></extensions></trkpt>
   <trkpt lat="59.0711343169" lon="30.0241251499"><ele>103.687</ele><time>2026-04-20T18:03:50.075Z</time><hdop>10.0</hdop><vdop>2.625</vdop><extensions><gom:speed>0.0</gom:speed></extensions></trkpt>
   <trkpt lat="59.0710989453" lon="30.0241415784"><ele>104.533</ele><time>2026-04-20T18:03:51.075Z</time><hdop>10.0</hdop><vdop>4.25</vdop><extensions><gom:speed>0.0</gom:speed></extensions></trkpt>
   <trkpt lat="59.0710813433" lon="30.0241550733"><ele>104.522</ele><time>2026-04-20T18:03:52.075Z</time><hdop>10.0</hdop><vdop>3.625</vdop><extensions><gom:speed>0.158</gom:speed></extensions></trkpt>
   <trkpt lat="59.0710605562" lon="30.0241694063"><ele>104.207</ele><time>2026-04-20T18:03:53.075Z</time><hdop>10.0</hdop><vdop>4.25</vdop><extensions><gom:speed>0.0</gom:speed></extensions></trkpt>
   <trkpt lat="59.071050917" lon="30.0241773692"><ele>103.67</ele><time>2026-04-20T18:03:54.075Z</time><hdop>10.0</hdop><vdop>4.25</vdop><extensions><gom:speed>0.0</gom:speed></extensions></trkpt>
   <trkpt lat="59.0710411521" lon="30.0241875113"><ele>103.309</ele><time>2026-04-20T18:03:55.075Z</time><hdop>10.0</hdop><vdop>4.125</vdop><extensions><gom:speed>0.0</gom:speed></extensions></trkpt>
   <trkpt lat="59.0710369192" lon="30.0241872598"><ele>102.468</ele><time>2026-04-20T18:03:56.075Z</time><hdop>10.125</hdop><vdop>4.125</vdop><extensions><gom:speed>0.0</gom:speed></extensions></trkpt>
   <trkpt lat="59.0710358296" lon="30.0241813925"><ele>102.006</ele><time>2026-04-20T18:03:57.075Z</time><hdop>10.125</hdop><vdop>4.25</vdop><extensions><gom:speed>0.0</gom:speed></extensions></trkpt>
   <trkpt lat="59.0710335245" lon="30.0241813086"><ele>101.549</ele><time>2026-04-20T18:03:58.075Z</time><hdop>10.125</hdop><vdop>4.125</vdop><extensions><gom:speed>0.0</gom:speed></extensions></trkpt>
   <trkpt lat="59.0710300461" lon="30.0241841585"><ele>101.471</ele><time>2026-04-20T18:03:59.075Z</time><hdop>10.125</hdop><vdop>4.0</vdop><extensions><gom:speed>0.0</gom:speed></extensions></trkpt>
   <trkpt lat="59.0710164255" lon="30.0241924566"><ele>100.937</ele><time>2026-04-20T18:04:00.075Z</time><hdop>10.125</hdop><vdop>3.125</vdop><extensions><gom:speed>0.0</gom:speed></extensions></trkpt>
   <trkpt lat="59.0710118573" lon="30.0241985754"><ele>99.838</ele><time>2026-04-20T18:04:01.075Z</time><hdop>10.0</hdop><vdop>2.875</vdop><extensions><gom:speed>0.0</gom:speed></extensions></trkpt>
   <trkpt lat="59.0710079178" lon="30.0242026825"><ele>98.614</ele><time>2026-04-20T18:04:02.076Z</time><hdop>10.0</hdop><vdop>2.625</vdop><extensions><gom:speed>0.0</gom:speed></extensions></trkpt>
   <trkpt lat="59.0710037269" lon="30.0242079631"><ele>97.44</ele><time>2026-04-20T18:04:03.075Z</time><hdop>10.0</hdop><vdop>2.5</vdop><extensions><gom:speed>0.0</gom:speed></extensions></trkpt>
   <trkpt lat="59.0710014219" lon="30.0242137466"><ele>96.625</ele><time>2026-04-20T18:04:04.075Z</time><hdop>9.875</hdop><vdop>2.5</vdop><extensions><gom:speed>0.0</gom:speed></extensions></trkpt>
   <trkpt lat="59.0709936267" lon="30.0242257327"><ele>96.065</ele><time>2026-04-20T18:04:05.075Z</time><hdop>9.875</hdop><vdop>4.375</vdop><extensions><gom:speed>0.0</gom:speed></extensions></trkpt>
   <trkpt lat="59.0709904416" lon="30.0242306781"><ele>95.638</ele><time>2026-04-20T18:04:06.075Z</time><hdop>10.0</hdop><vdop>4.375</vdop><extensions><gom:speed>0.0</gom:speed></extensions></trkpt>
   <trkpt lat="59.0709898548" lon="30.0242222123"><ele>95.185</ele><time>2026-04-20T18:04:07.075Z</time><hdop>10.0</hdop><vdop>3.625</vdop><extensions><gom:speed>0.378</gom:speed></extensions></trkpt>
   <trkpt lat="59.0709893519" lon="30.0242171832"><ele>95.463</ele><time>2026-04-20T18:04:08.076Z</time><hdop>10.0</hdop><vdop>3.125</vdop><extensions><gom:speed>0.0</gom:speed></extensions></trkpt>
   <trkpt lat="59.070988849" lon="30.0242170156"><ele>94.29</ele><time>2026-04-20T18:04:09.075Z</time><hdop>10.0</hdop><vdop>2.75</vdop><extensions><gom:speed>0.208</gom:speed></extensions></trkpt>
   <trkpt lat="59.0709905254" lon="30.024213579"><ele>93.985</ele><time>2026-04-20T18:04:10.075Z</time><hdop>10.0</hdop><vdop>2.625</vdop><extensions><gom:speed>0.158</gom:speed></extensions></trkpt>
   <trkpt lat="59.0709905254" lon="30.0242101424"><ele>93.793</ele><time>2026-04-20T18:04:11.076Z</time><hdop>9.875</hdop><vdop>2.5</vdop><extensions><gom:speed>0.0</gom:speed></extensions></trkpt>
   <trkpt lat="59.0709890166" lon="30.0241995812"><ele>93.795</ele><time>2026-04-20T18:04:12.076Z</time><hdop>10.0</hdop><vdop>4.375</vdop><extensions><gom:speed>0.0</gom:speed></extensions></trkpt>
   <trkpt lat="59.0709867535" lon="30.024196899"><ele>94.288</ele><time>2026-04-20T18:04:13.075Z</time><hdop>10.0</hdop><vdop>3.75</vdop><extensions><gom:speed>0.608</gom:speed></extensions></trkpt>
   <trkpt lat="59.0709836522" lon="30.0242031016"><ele>95.344</ele><time>2026-04-20T18:04:14.075Z</time><hdop>10.0</hdop><vdop>3.125</vdop><extensions><gom:speed>0.418</gom:speed></extensions></trkpt>
   <trkpt lat="59.0709796289" lon="30.0242143333"><ele>95.827</ele><time>2026-04-20T18:04:15.075Z</time><hdop>10.0</hdop><vdop>2.875</vdop><extensions><gom:speed>0.638</gom:speed></extensions></trkpt>
   <trkpt lat="59.0709761504" lon="30.0242255651"><ele>96.273</ele><time>2026-04-20T18:04:16.075Z</time><hdop>10.0</hdop><vdop>2.75</vdop><extensions><gom:speed>0.408</gom:speed></extensions></trkpt>
   <trkpt lat="59.0709729234" lon="30.0242327735"><ele>96.401</ele><time>2026-04-20T18:04:17.075Z</time><hdop>10.0</hdop><vdop>2.625</vdop><extensions><gom:speed>0.718</gom:speed></extensions></trkpt>
   <trkpt lat="59.0709699478" lon="30.0242406525"><ele>96.582</ele><time>2026-04-20T18:04:18.075Z</time><hdop>9.875</hdop><vdop>2.5</vdop><extensions><gom:speed>0.598</gom:speed></extensions></trkpt>
   <trkpt lat="59.0709738454" lon="30.0242463522"><ele>96.732</ele><time>2026-04-20T18:04:19.075Z</time><hdop>10.0</hdop><vdop>4.625</vdop><extensions><gom:speed>0.0</gom:speed></extensions></trkpt>
   <trkpt lat="59.0709722528" lon="30.0242509623"><ele>96.836</ele><time>2026-04-20T18:04:20.076Z</time><hdop>10.0</hdop><vdop>4.0</vdop><extensions><gom:speed>0.0</gom:speed></extensions></trkpt>
   <trkpt lat="59.0709708279" lon="30.0242582545"><ele>97.116</ele><time>2026-04-20T18:04:21.076Z</time><hdop>10.0</hdop><vdop>3.5</vdop><extensions><gom:speed>0.168</gom:speed></extensions></trkpt>
   <trkpt lat="59.0709696544" lon="30.0242669717"><ele>97.884</ele><time>2026-04-20T18:04:22.075Z</time><hdop>10.0</hdop><vdop>3.0</vdop><extensions><gom:speed>0.448</gom:speed></extensions></trkpt>
   <trkpt lat="59.0709699478" lon="30.0242749345"><ele>98.902</ele><time>2026-04-20T18:04:23.075Z</time><hdop>10.0</hdop><vdop>2.625</vdop><extensions><gom:speed>0.228</gom:speed></extensions></trkpt>
   <trkpt lat="59.0709718337" lon="30.0242818077"><ele>99.318</ele><time>2026-04-20T18:04:24.075Z</time><hdop>10.0</hdop><vdop>2.5</vdop><extensions><gom:speed>0.338</gom:speed></extensions></trkpt>
   <trkpt lat="59.0709736359" lon="30.0242890161"><ele>99.116</ele><time>2026-04-20T18:04:25.076Z</time><hdop>9.875</hdop><vdop>2.5</vdop><extensions><gom:speed>0.218</gom:speed></extensions></trkpt>
   <trkpt lat="59.0709780363" lon="30.0242956378"><ele>99.01</ele><time>2026-04-20T18:04:26.075Z</time><hdop>10.0</hdop><vdop>4.75</vdop><extensions><gom:speed>0.0</gom:speed></extensions></trkpt>
   <trkpt lat="59.0709790422" lon="30.0242991582"><ele>98.951</ele><time>2026-04-20T18:04:27.075Z</time><hdop>10.125</hdop><vdop>4.875</vdop><extensions><gom:speed>0.0</gom:speed></extensions></trkpt>
   <trkpt lat="59.0709779525" lon="30.024301589"><ele>98.936</ele><time>2026-04-20T18:04:28.076Z</time><hdop>10.25</hdop><vdop>4.625</vdop><extensions><gom:speed>0.0</gom:speed></extensions></trkpt>
   <trkpt lat="59.0709758571" lon="30.0243022595"><ele>98.838</ele><time>2026-04-20T18:04:29.075Z</time><hdop>10.375</hdop><vdop>4.5</vdop><extensions><gom:speed>0.0</gom:speed></extensions></trkpt>
   <trkpt lat="59.0709742226" lon="30.0243021757"><ele>98.878</ele><time>2026-04-20T18:04:30.075Z</time><hdop>10.625</hdop><vdop>4.5</vdop><extensions><gom:speed>0.0</gom:speed></extensions></trkpt>
   <trkpt lat="59.0709729234" lon="30.0243022595"><ele>98.883</ele><time>2026-04-20T18:04:31.075Z</time><hdop>10.75</hdop><vdop>4.5</vdop><extensions><gom:speed>0.0</gom:speed></extensions></trkpt>
   <trkpt lat="59.0709723367" lon="30.0243023433"><ele>98.912</ele><time>2026-04-20T18:04:32.075Z</time><hdop>10.75</hdop><vdop>4.625</vdop><extensions><gom:speed>0.0</gom:speed></extensions></trkpt>
   <trkpt lat="59.0709713308" lon="30.0243022595"><ele>98.96</ele><time>2026-04-20T18:04:33.076Z</time><hdop>10.875</hdop><vdop>4.625</vdop><extensions><gom:speed>0.0</gom:speed></extensions></trkpt>
   <trkpt lat="59.0709709536" lon="30.0243030139"><ele>98.998</ele><time>2026-04-20T18:04:34.075Z</time><hdop>10.75</hdop><vdop>4.375</vdop><extensions><gom:speed>0.0</gom:speed></extensions></trkpt>
   <trkpt lat="59.0709724205" lon="30.0243031815"><ele>99.191</ele><time>2026-04-20T18:04:35.076Z</time><hdop>10.75</hdop><vdop>4.25</vdop><extensions><gom:speed>0.0</gom:speed></extensions></trkpt>
   <trkpt lat="59.0709737197" lon="30.024303433"><ele>99.381</ele><time>2026-04-20T18:04:36.075Z</time><hdop>10.75</hdop><vdop>4.25</vdop><extensions><gom:speed>0.0</gom:speed></extensions></trkpt>
   <trkpt lat="59.0709748512" lon="30.024303433"><ele>99.561</ele><time>2026-04-20T18:04:37.075Z</time><hdop>10.625</hdop><vdop>4.25</vdop><extensions><gom:speed>0.0</gom:speed></extensions></trkpt>
   <trkpt lat="59.0709753541" lon="30.0243030139"><ele>99.632</ele><time>2026-04-20T18:04:38.075Z</time><hdop>10.625</hdop><vdop>4.0</vdop><extensions><gom:speed>0.0</gom:speed></extensions></trkpt>
   <trkpt lat="59.0709755218" lon="30.0243027624"><ele>99.685</ele><time>2026-04-20T18:04:39.075Z</time><hdop>10.625</hdop><vdop>3.875</vdop><extensions><gom:speed>0.0</gom:speed></extensions></trkpt>
   <trkpt lat="59.0709755218" lon="30.0243023433"><ele>99.754</ele><time>2026-04-20T18:04:40.075Z</time><hdop>10.625</hdop><vdop>3.75</vdop><extensions><gom:speed>0.0</gom:speed></extensions></trkpt>
   <trkpt lat="59.0709755218" lon="30.0243021757"><ele>99.823</ele><time>2026-04-20T18:04:41.075Z</time><hdop>10.5</hdop><vdop>3.625</vdop><extensions><gom:speed>0.0</gom:speed></extensions></trkpt>
   <trkpt lat="59.0709753541" lon="30.0243020919"><ele>99.844</ele><time>2026-04-20T18:04:42.075Z</time><hdop>10.5</hdop><vdop>3.625</vdop><extensions><gom:speed>0.0</gom:speed></extensions></trkpt>
   <trkpt lat="59.0709753541" lon="30.0243020919"><ele>99.853</ele><time>2026-04-20T18:04:43.076Z</time><hdop>10.375</hdop><vdop>3.5</vdop><extensions><gom:speed>0.0</gom:speed></extensions></trkpt>
   <trkpt lat="59.0709778268" lon="30.0243114796"><ele>99.763</ele><time>2026-04-20T18:04:44.075Z</time><hdop>10.25</hdop><vdop>2.875</vdop><extensions><gom:speed>0.458</gom:speed></extensions></trkpt>
   <trkpt lat="59.0709810538" lon="30.0243223761"><ele>99.541</ele><time>2026-04-20T18:04:45.075Z</time><hdop>10.125</hdop><vdop>2.5</vdop><extensions><gom:speed>0.368</gom:speed></extensions></trkpt>
   <trkpt lat="59.0709859572" lon="30.0243282434"><ele>99.125</ele><time>2026-04-20T18:04:46.076Z</time><hdop>10.0</hdop><vdop>2.5</vdop><extensions><gom:speed>0.618</gom:speed></extensions></trkpt>
   <trkpt lat="59.0709884299" lon="30.0243341107"><ele>98.917</ele><time>2026-04-20T18:04:47.075Z</time><hdop>10.0</hdop><vdop>2.5</vdop><extensions><gom:speed>0.198</gom:speed></extensions></trkpt>
   <trkpt lat="59.0709889328" lon="30.0243388884"><ele>99.125</ele><time>2026-04-20T18:04:48.075Z</time><hdop>9.875</hdop><vdop>2.5</vdop><extensions><gom:speed>0.298</gom:speed></extensions></trkpt>
   <trkpt lat="59.0709862506" lon="30.0243465998"><ele>99.518</ele><time>2026-04-20T18:04:49.075Z</time><hdop>9.875</hdop><vdop>2.5</vdop><extensions><gom:speed>0.458</gom:speed></extensions></trkpt>
   <trkpt lat="59.0709797546" lon="30.0243576639"><ele>99.692</ele><time>2026-04-20T18:04:50.076Z</time><hdop>9.875</hdop><vdop>2.5</vdop><extensions><gom:speed>0.508</gom:speed></extensions></trkpt>
   <trkpt lat="59.0709723367" lon="30.0243652914"><ele>99.825</ele><time>2026-04-20T18:04:51.076Z</time><hdop>9.875</hdop><vdop>2.5</vdop><extensions><gom:speed>0.458</gom:speed></extensions></trkpt>
   <trkpt lat="59.0709641224" lon="30.0243695662"><ele>99.893</ele><time>2026-04-20T18:04:52.076Z</time><hdop>9.875</hdop><vdop>2.5</vdop><extensions><gom:speed>0.598</gom:speed></extensions></trkpt>
   <trkpt lat="59.0709546508" lon="30.0243754335"><ele>99.921</ele><time>2026-04-20T18:04:53.075Z</time><hdop>9.875</hdop><vdop>2.5</vdop><extensions><gom:speed>0.818</gom:speed></extensions></trkpt>
   <trkpt lat="59.0709483225" lon="30.0243814685"><ele>99.776</ele><time>2026-04-20T18:04:54.076Z</time><hdop>9.875</hdop><vdop>2.5</vdop><extensions><gom:speed>0.328</gom:speed></extensions></trkpt>
   <trkpt lat="59.0709437544" lon="30.0243868329"><ele>99.566</ele><time>2026-04-20T18:04:55.075Z</time><hdop>9.875</hdop><vdop>2.5</vdop><extensions><gom:speed>0.358</gom:speed></extensions></trkpt>
   <trkpt lat="59.0709392281" lon="30.0243959692"><ele>99.152</ele><time>2026-04-20T18:04:56.075Z</time><hdop>9.875</hdop><vdop>2.5</vdop><extensions><gom:speed>0.698</gom:speed></extensions></trkpt>
   <trkpt lat="59.0709356239" lon="30.0244035967"><ele>98.863</ele><time>2026-04-20T18:04:57.076Z</time><hdop>9.875</hdop><vdop>2.5</vdop><extensions><gom:speed>0.258</gom:speed></extensions></trkpt>
   <trkpt lat="59.0709343247" lon="30.0244126492"><ele>98.763</ele><time>2026-04-20T18:04:58.075Z</time><hdop>9.875</hdop><vdop>2.5</vdop><extensions><gom:speed>0.708</gom:speed></extensions></trkpt>
   <trkpt lat="59.0709349534" lon="30.0244263955"><ele>98.51</ele><time>2026-04-20T18:04:59.075Z</time><hdop>9.875</hdop><vdop>2.5</vdop><extensions><gom:speed>0.718</gom:speed></extensions></trkpt>
   <trkpt lat="59.0709353306" lon="30.0244341907"><ele>98.366</ele><time>2026-04-20T18:05:00.076Z</time><hdop>9.875</hdop><vdop>2.5</vdop><extensions><gom:speed>0.0</gom:speed></extensions></trkpt>
   <trkpt lat="59.0709342409" lon="30.0244362861"><ele>98.199</ele><time>2026-04-20T18:05:01.076Z</time><hdop>9.875</hdop><vdop>2.5</vdop><extensions><gom:speed>0.0</gom:speed></extensions></trkpt>
   <trkpt lat="59.0709335284" lon="30.0244367052"><ele>98.192</ele><time>2026-04-20T18:05:02.075Z</time><hdop>9.875</hdop><vdop>2.5</vdop><extensions><gom:speed>0.0</gom:speed></extensions></trkpt>
   <trkpt lat="59.0709332351" lon="30.0244385493"><ele>98.172</ele><time>2026-04-20T18:05:03.075Z</time><hdop>9.875</hdop><vdop>2.5</vdop><extensions><gom:speed>0.188</gom:speed></extensions></trkpt>
   <trkpt lat="59.0709317263" lon="30.0244416506"><ele>98.161</ele><time>2026-04-20T18:05:04.075Z</time><hdop>9.875</hdop><vdop>2.5</vdop><extensions><gom:speed>0.318</gom:speed></extensions></trkpt>
   <trkpt lat="59.0709332351" lon="30.0244455901"><ele>97.984</ele><time>2026-04-20T18:05:05.075Z</time><hdop>9.875</hdop><vdop>2.5</vdop><extensions><gom:speed>0.508</gom:speed></extensions></trkpt>
   <trkpt lat="59.0709363364" lon="30.0244500325"><ele>97.792</ele><time>2026-04-20T18:05:06.075Z</time><hdop>9.875</hdop><vdop>2.5</vdop><extensions><gom:speed>0.298</gom:speed></extensions></trkpt>
   <trkpt lat="59.070936043" lon="30.0244608451"><ele>97.554</ele><time>2026-04-20T18:05:07.075Z</time><hdop>9.875</hdop><vdop>2.5</vdop><extensions><gom:speed>0.808</gom:speed></extensions></trkpt>
   <trkpt lat="59.0709346181" lon="30.0244751782"><ele>97.286</ele><time>2026-04-20T18:05:08.075Z</time><hdop>9.875</hdop><vdop>2.5</vdop><extensions><gom:speed>0.588</gom:speed></extensions></trkpt>
   <trkpt lat="59.070929547" lon="30.0244885054"><ele>97.187</ele><time>2026-04-20T18:05:09.076Z</time><hdop>9.875</hdop><vdop>2.5</vdop><extensions><gom:speed>0.698</gom:speed></extensions></trkpt>
   <trkpt lat="59.0709231349" lon="30.0245018326"><ele>97.051</ele><time>2026-04-20T18:05:10.075Z</time><hdop>9.875</hdop><vdop>2.5</vdop><extensions><gom:speed>0.578</gom:speed></extensions></trkpt>
   <trkpt lat="59.0709190278" lon="30.0245083705"><ele>96.955</ele><time>2026-04-20T18:05:11.075Z</time><hdop>9.875</hdop><vdop>2.5</vdop><extensions><gom:speed>0.0</gom:speed></extensions></trkpt>
   <trkpt lat="59.0709156331" lon="30.0245116395"><ele>96.84</ele><time>2026-04-20T18:05:12.075Z</time><hdop>9.875</hdop><vdop>2.5</vdop><extensions><gom:speed>0.0</gom:speed></extensions></trkpt>
   <trkpt lat="59.07090964" lon="30.0245201052"><ele>96.772</ele><time>2026-04-20T18:05:13.075Z</time><hdop>9.875</hdop><vdop>2.5</vdop><extensions><gom:speed>0.848</gom:speed></extensions></trkpt>
   <trkpt lat="59.0709019287" lon="30.024530834"><ele>96.748</ele><time>2026-04-20T18:05:14.075Z</time><hdop>9.875</hdop><vdop>2.5</vdop><extensions><gom:speed>0.568</gom:speed></extensions></trkpt>
   <trkpt lat="59.0708968576" lon="30.0245389645"><ele>96.84</ele><time>2026-04-20T18:05:15.075Z</time><hdop>9.875</hdop><vdop>2.5</vdop><extensions><gom:speed>0.358</gom:speed></extensions></trkpt>
   <trkpt lat="59.0708937563" lon="30.0245525431"><ele>97.015</ele><time>2026-04-20T18:05:16.075Z</time><hdop>9.875</hdop><vdop>2.5</vdop><extensions><gom:speed>0.758</gom:speed></extensions></trkpt>
   <trkpt lat="59.0708935468" lon="30.0245708157"><ele>97.126</ele><time>2026-04-20T18:05:17.075Z</time><hdop>9.875</hdop><vdop>2.5</vdop><extensions><gom:speed>0.878</gom:speed></extensions></trkpt>
   <trkpt lat="59.0708942173" lon="30.024590597"><ele>97.249</ele><time>2026-04-20T18:05:18.075Z</time><hdop>9.875</hdop><vdop>2.5</vdop><extensions><gom:speed>0.908</gom:speed></extensions></trkpt>
   <trkpt lat="59.0708944269" lon="30.0246099592"><ele>97.459</ele><time>2026-04-20T18:05:19.075Z</time><hdop>9.875</hdop><vdop>2.5</vdop><extensions><gom:speed>0.718</gom:speed></extensions></trkpt>
   <trkpt lat="59.0708935468" lon="30.0246228673"><ele>97.505</ele><time>2026-04-20T18:05:20.075Z</time><hdop>9.875</hdop><vdop>2.5</vdop><extensions><gom:speed>0.288</gom:speed></extensions></trkpt>
   <trkpt lat="59.070892038" lon="30.0246348534"><ele>97.635</ele><time>2026-04-20T18:05:21.075Z</time><hdop>9.875</hdop><vdop>2.5</vdop><extensions><gom:speed>0.578</gom:speed></extensions></trkpt>
   <trkpt lat="59.0708910322" lon="30.0246451632"><ele>97.233</ele><time>2026-04-20T18:05:22.075Z</time><hdop>9.875</hdop><vdop>2.5</vdop><extensions><gom:speed>0.0</gom:speed></extensions></trkpt>
   <trkpt lat="59.0708910322" lon="30.0246539642"><ele>96.979</ele><time>2026-04-20T18:05:23.076Z</time><hdop>9.875</hdop><vdop>2.5</vdop><extensions><gom:speed>0.418</gom:speed></extensions></trkpt>
   <trkpt lat="59.0708915351" lon="30.0246634357"><ele>96.687</ele><time>2026-04-20T18:05:24.075Z</time><hdop>9.875</hdop><vdop>2.5</vdop><extensions><gom:speed>0.388</gom:speed></extensions></trkpt>
   <trkpt lat="59.0708951393" lon="30.0246337638"><ele>96.368</ele><time>2026-04-20T18:05:25.075Z</time><hdop>8.875</hdop><vdop>2.625</vdop><extensions><gom:speed>0.605</gom:speed></extensions></trkpt>
   <trkpt lat="59.0708926248" lon="30.0246411399"><ele>96.177</ele><time>2026-04-20T18:05:25.977Z</time><hdop>8.0</hdop><vdop>2.625</vdop><extensions><gom:speed>0.556</gom:speed></extensions></trkpt>
   <trkpt lat="59.0708898168" lon="30.0246543833"><ele>95.887</ele><time>2026-04-20T18:05:26.914Z</time><hdop>6.75</hdop><vdop>2.625</vdop><extensions><gom:speed>0.6</gom:speed></extensions></trkpt>
   <trkpt lat="59.0708899425" lon="30.0246721529"><ele>95.582</ele><time>2026-04-20T18:05:27.793Z</time><hdop>5.75</hdop><vdop>2.5</vdop><extensions><gom:speed>0.729</gom:speed></extensions></trkpt>
   <trkpt lat="59.070890655" lon="30.0246955384"><ele>95.445</ele><time>2026-04-20T18:05:28.859Z</time><hdop>5.0</hdop><vdop>2.5</vdop><extensions><gom:speed>0.829</gom:speed></extensions></trkpt>
   <trkpt lat="59.0708862545" lon="30.0247171637"><ele>95.476</ele><time>2026-04-20T18:05:29.797Z</time><hdop>4.5</hdop><vdop>2.5</vdop><extensions><gom:speed>0.851</gom:speed></extensions></trkpt>
   <trkpt lat="59.0708817283" lon="30.0247321673"><ele>95.599</ele><time>2026-04-20T18:05:30.814Z</time><hdop>4.625</hdop><vdop>2.625</vdop><extensions><gom:speed>0.844</gom:speed></extensions></trkpt>
   <trkpt lat="59.0708777469" lon="30.0247418903"><ele>95.85</ele><time>2026-04-20T18:05:31.593Z</time><hdop>4.625</hdop><vdop>2.625</vdop><extensions><gom:speed>0.764</gom:speed></extensions></trkpt>
   <trkpt lat="59.0708754419" lon="30.0247467518"><ele>96.265</ele><time>2026-04-20T18:05:32.075Z</time><hdop>4.75</hdop><vdop>2.625</vdop><extensions><gom:speed>0.735</gom:speed></extensions></trkpt>
   <trkpt lat="59.0708724244" lon="30.024758235"><ele>96.671</ele><time>2026-04-20T18:05:33.075Z</time><hdop>4.75</hdop><vdop>2.625</vdop><extensions><gom:speed>0.685</gom:speed></extensions></trkpt>
   <trkpt lat="59.0708720472" lon="30.0247745798"><ele>97.29</ele><time>2026-04-20T18:05:34.019Z</time><hdop>4.875</hdop><vdop>6.25</vdop><extensions><gom:speed>0.809</gom:speed></extensions></trkpt>
   <trkpt lat="59.070868443" lon="30.0247834646"><ele>97.768</ele><time>2026-04-20T18:05:35.075Z</time><hdop>5.0</hdop><vdop>6.125</vdop><extensions><gom:speed>0.681</gom:speed></extensions></trkpt>
   <trkpt lat="59.070861947" lon="30.0247820396"><ele>98.128</ele><time>2026-04-20T18:05:36.033Z</time><hdop>5.125</hdop><vdop>6.0</vdop><extensions><gom:speed>0.526</gom:speed></extensions></trkpt>
   <trkpt lat="59.0708620308" lon="30.0247775972"><ele>98.347</ele><time>2026-04-20T18:05:37.075Z</time><hdop>5.25</hdop><vdop>5.875</vdop><extensions><gom:speed>0.386</gom:speed></extensions></trkpt>
   <trkpt lat="59.0708637491" lon="30.0247713946"><ele>98.552</ele><time>2026-04-20T18:05:38.046Z</time><hdop>5.375</hdop><vdop>5.625</vdop><extensions><gom:speed>0.257</gom:speed></extensions></trkpt>
   <trkpt lat="59.0708646292" lon="30.0247705564"><ele>98.752</ele><time>2026-04-20T18:05:39.075Z</time><hdop>5.375</hdop><vdop>5.375</vdop><extensions><gom:speed>0.204</gom:speed></extensions></trkpt>
   <trkpt lat="59.0708655512" lon="30.0247701373"><ele>98.886</ele><time>2026-04-20T18:05:39.942Z</time><hdop>5.375</hdop><vdop>5.25</vdop><extensions><gom:speed>0.163</gom:speed></extensions></trkpt>
   <trkpt lat="59.070865635" lon="30.0247685448"><ele>99.018</ele><time>2026-04-20T18:05:41.008Z</time><hdop>5.375</hdop><vdop>5.125</vdop><extensions><gom:speed>0.109</gom:speed></extensions></trkpt>
   <trkpt lat="59.0708658446" lon="30.024767958"><ele>99.134</ele><time>2026-04-20T18:05:41.957Z</time><hdop>5.25</hdop><vdop>5.125</vdop><extensions><gom:speed>0.082</gom:speed></extensions></trkpt>
   <trkpt lat="59.0708657188" lon="30.0247689639"><ele>99.246</ele><time>2026-04-20T18:05:43.076Z</time><hdop>5.25</hdop><vdop>4.875</vdop><extensions><gom:speed>0.072</gom:speed></extensions></trkpt>
   <trkpt lat="59.0708652578" lon="30.0247699697"><ele>99.353</ele><time>2026-04-20T18:05:43.970Z</time><hdop>5.125</hdop><vdop>4.75</vdop><extensions><gom:speed>0.059</gom:speed></extensions></trkpt>
   <trkpt lat="59.0708648387" lon="30.0247718975"><ele>99.49</ele><time>2026-04-20T18:05:45.036Z</time><hdop>5.125</hdop><vdop>4.625</vdop><extensions><gom:speed>0.065</gom:speed></extensions></trkpt>
   <trkpt lat="59.0708645454" lon="30.0247708079"><ele>99.595</ele><time>2026-04-20T18:05:45.983Z</time><hdop>5.25</hdop><vdop>4.5</vdop><extensions><gom:speed>0.069</gom:speed></extensions></trkpt>
   <trkpt lat="59.0708641263" lon="30.0247688801"><ele>99.659</ele><time>2026-04-20T18:05:46.540Z</time><hdop>5.375</hdop><vdop>4.5</vdop><extensions><gom:speed>0.065</gom:speed></extensions></trkpt>
   <trkpt lat="59.0708636234" lon="30.0247682095"><ele>99.72</ele><time>2026-04-20T18:05:47.050Z</time><hdop>5.5</hdop><vdop>4.375</vdop><extensions><gom:speed>0.108</gom:speed></extensions></trkpt>
   <trkpt lat="59.0708636234" lon="30.0247678742"><ele>99.757</ele><time>2026-04-20T18:05:47.523Z</time><hdop>5.5</hdop><vdop>4.375</vdop><extensions><gom:speed>0.066</gom:speed></extensions></trkpt>
   <trkpt lat="59.07086333" lon="30.0247678742"><ele>99.811</ele><time>2026-04-20T18:05:47.998Z</time><hdop>5.625</hdop><vdop>4.25</vdop><extensions><gom:speed>0.092</gom:speed></extensions></trkpt>
   <trkpt lat="59.0708639167" lon="30.0247694668"><ele>99.842</ele><time>2026-04-20T18:05:48.958Z</time><hdop>5.75</hdop><vdop>4.25</vdop><extensions><gom:speed>0.111</gom:speed></extensions></trkpt>
   <trkpt lat="59.0708643358" lon="30.0247710594"><ele>99.912</ele><time>2026-04-20T18:05:50.011Z</time><hdop>5.75</hdop><vdop>4.25</vdop><extensions><gom:speed>0.128</gom:speed></extensions></trkpt>
   <trkpt lat="59.070864252" lon="30.024772149"><ele>99.946</ele><time>2026-04-20T18:05:50.959Z</time><hdop>5.875</hdop><vdop>4.125</vdop><extensions><gom:speed>0.14</gom:speed></extensions></trkpt>
   <trkpt lat="59.0708640425" lon="30.0247741607"><ele>99.986</ele><time>2026-04-20T18:05:52.025Z</time><hdop>6.0</hdop><vdop>4.125</vdop><extensions><gom:speed>0.193</gom:speed></extensions></trkpt>
   <trkpt lat="59.0708635396" lon="30.0247750827"><ele>100.011</ele><time>2026-04-20T18:05:52.973Z</time><hdop>6.125</hdop><vdop>4.0</vdop><extensions><gom:speed>0.205</gom:speed></extensions></trkpt>
   <trkpt lat="59.0708650483" lon="30.0247752503"><ele>100.025</ele><time>2026-04-20T18:05:53.683Z</time><hdop>6.125</hdop><vdop>4.0</vdop><extensions><gom:speed>0.134</gom:speed></extensions></trkpt>
   <trkpt lat="59.0708666409" lon="30.0247773458"><ele>100.032</ele><time>2026-04-20T18:05:54.986Z</time><hdop>6.125</hdop><vdop>4.0</vdop><extensions><gom:speed>0.1</gom:speed></extensions></trkpt>
   <trkpt lat="59.0708669342" lon="30.0247778487"><ele>100.036</ele><time>2026-04-20T18:05:55.473Z</time><hdop>6.0</hdop><vdop>4.0</vdop><extensions><gom:speed>0.062</gom:speed></extensions></trkpt>
   <trkpt lat="59.070867018" lon="30.0247794413"><ele>100.033</ele><time>2026-04-20T18:05:56.053Z</time><hdop>6.0</hdop><vdop>3.875</vdop><extensions><gom:speed>0.104</gom:speed></extensions></trkpt>
   <trkpt lat="59.0708676467" lon="30.0247796089"><ele>100.052</ele><time>2026-04-20T18:05:57.000Z</time><hdop>6.0</hdop><vdop>3.75</vdop><extensions><gom:speed>0.1</gom:speed></extensions></trkpt>
   <trkpt lat="59.0708694488" lon="30.0247777649"><ele>100.069</ele><time>2026-04-20T18:05:57.948Z</time><hdop>5.875</hdop><vdop>3.75</vdop><extensions><gom:speed>0.085</gom:speed></extensions></trkpt>
   <trkpt lat="59.0708711252" lon="30.0247760885"><ele>100.082</ele><time>2026-04-20T18:05:59.014Z</time><hdop>5.75</hdop><vdop>3.75</vdop><extensions><gom:speed>0.086</gom:speed></extensions></trkpt>
   <trkpt lat="59.0708715443" lon="30.0247760047"><ele>100.09</ele><time>2026-04-20T18:05:59.844Z</time><hdop>5.75</hdop><vdop>3.75</vdop><extensions><gom:speed>0.095</gom:speed></extensions></trkpt>
   <trkpt lat="59.0708737236" lon="30.0247766752"><ele>100.087</ele><time>2026-04-20T18:06:01.029Z</time><hdop>5.625</hdop><vdop>4.125</vdop><extensions><gom:speed>0.09</gom:speed></extensions></trkpt>
   <trkpt lat="59.0708740169" lon="30.0247755856"><ele>100.083</ele><time>2026-04-20T18:06:01.976Z</time><hdop>5.625</hdop><vdop>4.125</vdop><extensions><gom:speed>0.068</gom:speed></extensions></trkpt>
   <trkpt lat="59.0708747294" lon="30.0247734063"><ele>100.077</ele><time>2026-04-20T18:06:03.042Z</time><hdop>5.625</hdop><vdop>4.125</vdop><extensions><gom:speed>0.07</gom:speed></extensions></trkpt>
   <trkpt lat="59.0708745198" lon="30.0247727357"><ele>100.074</ele><time>2026-04-20T18:06:03.989Z</time><hdop>5.5</hdop><vdop>4.25</vdop><extensions><gom:speed>0.076</gom:speed></extensions></trkpt>
   <trkpt lat="59.0708745198" lon="30.0247740768"><ele>100.077</ele><time>2026-04-20T18:06:05.056Z</time><hdop>5.5</hdop><vdop>4.25</vdop><extensions><gom:speed>0.102</gom:speed></extensions></trkpt>
   <trkpt lat="59.0708751485" lon="30.0247753341"><ele>100.075</ele><time>2026-04-20T18:06:06.003Z</time><hdop>5.5</hdop><vdop>4.375</vdop><extensions><gom:speed>0.069</gom:speed></extensions></trkpt>
   <trkpt lat="59.0708745198" lon="30.0247762561"><ele>100.079</ele><time>2026-04-20T18:06:06.951Z</time><hdop>5.625</hdop><vdop>4.5</vdop><extensions><gom:speed>0.07</gom:speed></extensions></trkpt>
   <trkpt lat="59.0708750228" lon="30.0247771781"><ele>100.083</ele><time>2026-04-20T18:06:08.018Z</time><hdop>5.75</hdop><vdop>4.625</vdop><extensions><gom:speed>0.084</gom:speed></extensions></trkpt>
   <trkpt lat="59.0708754419" lon="30.0247770943"><ele>100.087</ele><time>2026-04-20T18:06:08.966Z</time><hdop>5.875</hdop><vdop>4.375</vdop><extensions><gom:speed>0.071</gom:speed></extensions></trkpt>
   <trkpt lat="59.0708761543" lon="30.0247765076"><ele>100.101</ele><time>2026-04-20T18:06:10.075Z</time><hdop>5.875</hdop><vdop>4.25</vdop><extensions><gom:speed>0.109</gom:speed></extensions></trkpt>
   <trkpt lat="59.0708766572" lon="30.0247765914"><ele>100.108</ele><time>2026-04-20T18:06:11.076Z</time><hdop>5.875</hdop><vdop>4.5</vdop><extensions><gom:speed>0.138</gom:speed></extensions></trkpt>
   <trkpt lat="59.0708770344" lon="30.0247768429"><ele>100.118</ele><time>2026-04-20T18:06:12.075Z</time><hdop>5.75</hdop><vdop>4.625</vdop><extensions><gom:speed>0.175</gom:speed></extensions></trkpt>
   <trkpt lat="59.0708777469" lon="30.0247768429"><ele>100.12</ele><time>2026-04-20T18:06:13.075Z</time><hdop>5.5</hdop><vdop>4.5</vdop><extensions><gom:speed>0.202</gom:speed></extensions></trkpt>
   <trkpt lat="59.0708780402" lon="30.0247765076"><ele>100.122</ele><time>2026-04-20T18:06:14.075Z</time><hdop>5.375</hdop><vdop>4.625</vdop><extensions><gom:speed>0.223</gom:speed></extensions></trkpt>
   <trkpt lat="59.0708787527" lon="30.0247762561"><ele>100.126</ele><time>2026-04-20T18:06:15.076Z</time><hdop>5.125</hdop><vdop>4.5</vdop><extensions><gom:speed>0.235</gom:speed></extensions></trkpt>
   <trkpt lat="59.0708791299" lon="30.024776759"><ele>100.099</ele><time>2026-04-20T18:06:16.075Z</time><hdop>5.0</hdop><vdop>4.5</vdop><extensions><gom:speed>0.239</gom:speed></extensions></trkpt>
   <trkpt lat="59.0708796328" lon="30.0247765914"><ele>100.067</ele><time>2026-04-20T18:06:17.076Z</time><hdop>4.75</hdop><vdop>4.5</vdop><extensions><gom:speed>0.255</gom:speed></extensions></trkpt>
   <trkpt lat="59.0708800519" lon="30.0247760047"><ele>100.039</ele><time>2026-04-20T18:06:18.075Z</time><hdop>4.75</hdop><vdop>4.375</vdop><extensions><gom:speed>0.276</gom:speed></extensions></trkpt>
   <trkpt lat="59.0708806386" lon="30.0247750827"><ele>100.014</ele><time>2026-04-20T18:06:19.075Z</time><hdop>4.625</hdop><vdop>4.625</vdop><extensions><gom:speed>0.301</gom:speed></extensions></trkpt>
   <trkpt lat="59.070880932" lon="30.0247744959"><ele>99.994</ele><time>2026-04-20T18:06:20.075Z</time><hdop>4.625</hdop><vdop>4.75</vdop><extensions><gom:speed>0.31</gom:speed></extensions></trkpt>
   <trkpt lat="59.0708813511" lon="30.0247736577"><ele>99.978</ele><time>2026-04-20T18:06:21.075Z</time><hdop>4.625</hdop><vdop>4.625</vdop><extensions><gom:speed>0.338</gom:speed></extensions></trkpt>
   <trkpt lat="59.0708817283" lon="30.024772149"><ele>99.965</ele><time>2026-04-20T18:06:22.075Z</time><hdop>4.75</hdop><vdop>4.625</vdop><extensions><gom:speed>0.382</gom:speed></extensions></trkpt>
   <trkpt lat="59.0708823569" lon="30.0247706403"><ele>99.955</ele><time>2026-04-20T18:06:23.076Z</time><hdop>4.75</hdop><vdop>4.625</vdop><extensions><gom:speed>0.388</gom:speed></extensions></trkpt>
   <trkpt lat="59.0708823569" lon="30.0247701373"><ele>99.947</ele><time>2026-04-20T18:06:24.075Z</time><hdop>4.875</hdop><vdop>4.625</vdop><extensions><gom:speed>0.382</gom:speed></extensions></trkpt>
   <trkpt lat="59.0708822312" lon="30.024770305"><ele>99.943</ele><time>2026-04-20T18:06:24.602Z</time><hdop>4.875</hdop><vdop>4.625</vdop><extensions><gom:speed>0.381</gom:speed></extensions></trkpt>
   <trkpt lat="59.0708833208" lon="30.0247690477"><ele>99.939</ele><time>2026-04-20T18:06:25.075Z</time><hdop>5.0</hdop><vdop>4.875</vdop><extensions><gom:speed>0.433</gom:speed></extensions></trkpt>
   <trkpt lat="59.0708843267" lon="30.024767539"><ele>99.937</ele><time>2026-04-20T18:06:26.075Z</time><hdop>5.125</hdop><vdop>5.625</vdop><extensions><gom:speed>0.512</gom:speed></extensions></trkpt>
   <trkpt lat="59.0708858354" lon="30.0247654435"><ele>99.938</ele><time>2026-04-20T18:06:27.076Z</time><hdop>5.375</hdop><vdop>6.0</vdop><extensions><gom:speed>0.564</gom:speed></extensions></trkpt>
   <trkpt lat="59.0708873442" lon="30.0247635156"><ele>99.938</ele><time>2026-04-20T18:06:28.076Z</time><hdop>5.625</hdop><vdop>5.875</vdop><extensions><gom:speed>0.581</gom:speed></extensions></trkpt>
   <trkpt lat="59.07088835" lon="30.0247625098"><ele>99.939</ele><time>2026-04-20T18:06:29.076Z</time><hdop>6.0</hdop><vdop>5.75</vdop><extensions><gom:speed>0.557</gom:speed></extensions></trkpt>
   <trkpt lat="59.0708890205" lon="30.0247630965"><ele>99.94</ele><time>2026-04-20T18:06:30.075Z</time><hdop>6.5</hdop><vdop>5.875</vdop><extensions><gom:speed>0.52</gom:speed></extensions></trkpt>
   <trkpt lat="59.0708885176" lon="30.0247638509"><ele>99.941</ele><time>2026-04-20T18:06:30.763Z</time><hdop>6.75</hdop><vdop>5.875</vdop><extensions><gom:speed>0.515</gom:speed></extensions></trkpt>
   <trkpt lat="59.0708887272" lon="30.02476427"><ele>99.955</ele><time>2026-04-20T18:06:32.075Z</time><hdop>7.375</hdop><vdop>6.125</vdop><extensions><gom:speed>0.466</gom:speed></extensions></trkpt>
   <trkpt lat="59.0708882243" lon="30.024765192"><ele>99.974</ele><time>2026-04-20T18:06:33.075Z</time><hdop>7.625</hdop><vdop>6.125</vdop><extensions><gom:speed>0.501</gom:speed></extensions></trkpt>
   <trkpt lat="59.07088835" lon="30.0247665331"><ele>99.987</ele><time>2026-04-20T18:06:34.076Z</time><hdop>7.75</hdop><vdop>5.875</vdop><extensions><gom:speed>0.541</gom:speed></extensions></trkpt>
   <trkpt lat="59.0708890205" lon="30.0247663655"><ele>100.001</ele><time>2026-04-20T18:06:35.075Z</time><hdop>7.75</hdop><vdop>5.875</vdop><extensions><gom:speed>0.616</gom:speed></extensions></trkpt>
   <trkpt lat="59.0708903197" lon="30.0247653597"><ele>100.015</ele><time>2026-04-20T18:06:36.076Z</time><hdop>8.0</hdop><vdop>5.625</vdop><extensions><gom:speed>0.673</gom:speed></extensions></trkpt>
   <trkpt lat="59.0708914513" lon="30.02476427"><ele>100.025</ele><time>2026-04-20T18:06:37.076Z</time><hdop>8.125</hdop><vdop>5.375</vdop><extensions><gom:speed>0.719</gom:speed></extensions></trkpt>
   <trkpt lat="59.0708932534" lon="30.0247635995"><ele>100.034</ele><time>2026-04-20T18:06:38.075Z</time><hdop>8.5</hdop><vdop>5.25</vdop><extensions><gom:speed>0.757</gom:speed></extensions></trkpt>
   <trkpt lat="59.070892038" lon="30.0247647729"><ele>100.042</ele><time>2026-04-20T18:06:39.075Z</time><hdop>8.75</hdop><vdop>5.25</vdop><extensions><gom:speed>0.722</gom:speed></extensions></trkpt>
   <trkpt lat="59.0708894396" lon="30.0247668684"><ele>100.047</ele><time>2026-04-20T18:06:40.076Z</time><hdop>9.0</hdop><vdop>5.375</vdop><extensions><gom:speed>0.707</gom:speed></extensions></trkpt>
   <trkpt lat="59.0708875537" lon="30.024768461"><ele>100.051</ele><time>2026-04-20T18:06:41.075Z</time><hdop>9.125</hdop><vdop>5.375</vdop><extensions><gom:speed>0.705</gom:speed></extensions></trkpt>
   <trkpt lat="59.0708868412" lon="30.0247706403"><ele>100.054</ele><time>2026-04-20T18:06:42.075Z</time><hdop>9.375</hdop><vdop>5.375</vdop><extensions><gom:speed>0.743</gom:speed></extensions></trkpt>
   <trkpt lat="59.0708867574" lon="30.0247729034"><ele>100.056</ele><time>2026-04-20T18:06:43.075Z</time><hdop>9.5</hdop><vdop>5.25</vdop><extensions><gom:speed>0.711</gom:speed></extensions></trkpt>
   <trkpt lat="59.0708856259" lon="30.0247732386"><ele>100.057</ele><time>2026-04-20T18:06:43.556Z</time><hdop>9.625</hdop><vdop>5.25</vdop><extensions><gom:speed>0.711</gom:speed></extensions></trkpt>
   <trkpt lat="59.0708861288" lon="30.0247755856"><ele>100.058</ele><time>2026-04-20T18:06:44.075Z</time><hdop>9.625</hdop><vdop>5.0</vdop><extensions><gom:speed>0.504</gom:speed></extensions></trkpt>
   <trkpt lat="59.0708844524" lon="30.0247762561"><ele>100.06</ele><time>2026-04-20T18:06:45.075Z</time><hdop>9.5</hdop><vdop>5.0</vdop><extensions><gom:speed>0.419</gom:speed></extensions></trkpt>
   <trkpt lat="59.070883237" lon="30.024777262"><ele>100.061</ele><time>2026-04-20T18:06:46.076Z</time><hdop>9.25</hdop><vdop>5.125</vdop><extensions><gom:speed>0.375</gom:speed></extensions></trkpt>
   <trkpt lat="59.0708825246" lon="30.0247786031"><ele>100.062</ele><time>2026-04-20T18:06:47.075Z</time><hdop>9.0</hdop><vdop>5.375</vdop><extensions><gom:speed>0.342</gom:speed></extensions></trkpt>
   <trkpt lat="59.0708816445" lon="30.0247797765"><ele>100.062</ele><time>2026-04-20T18:06:48.076Z</time><hdop>8.5</hdop><vdop>5.25</vdop><extensions><gom:speed>0.323</gom:speed></extensions></trkpt>
   <trkpt lat="59.0708817283" lon="30.0247803633"><ele>100.061</ele><time>2026-04-20T18:06:48.768Z</time><hdop>8.25</hdop><vdop>5.25</vdop><extensions><gom:speed>0.323</gom:speed></extensions></trkpt>
   <trkpt lat="59.0708799262" lon="30.0247812015"><ele>100.061</ele><time>2026-04-20T18:06:50.076Z</time><hdop>8.0</hdop><vdop>5.0</vdop><extensions><gom:speed>0.311</gom:speed></extensions></trkpt>
   <trkpt lat="59.0708789203" lon="30.0247812853"><ele>100.061</ele><time>2026-04-20T18:06:51.075Z</time><hdop>7.875</hdop><vdop>5.0</vdop><extensions><gom:speed>0.331</gom:speed></extensions></trkpt>
   <trkpt lat="59.0708783336" lon="30.0247812015"><ele>100.06</ele><time>2026-04-20T18:06:52.075Z</time><hdop>7.75</hdop><vdop>5.0</vdop><extensions><gom:speed>0.334</gom:speed></extensions></trkpt>
   <trkpt lat="59.0708779564" lon="30.02478095"><ele>100.059</ele><time>2026-04-20T18:06:53.075Z</time><hdop>7.625</hdop><vdop>4.875</vdop><extensions><gom:speed>0.35</gom:speed></extensions></trkpt>
   <trkpt lat="59.070877244" lon="30.0247823749"><ele>100.058</ele><time>2026-04-20T18:06:54.075Z</time><hdop>7.5</hdop><vdop>4.75</vdop><extensions><gom:speed>0.337</gom:speed></extensions></trkpt>
   <trkpt lat="59.070876741" lon="30.0247825426"><ele>100.057</ele><time>2026-04-20T18:06:54.928Z</time><hdop>7.375</hdop><vdop>4.75</vdop><extensions><gom:speed>0.316</gom:speed></extensions></trkpt>
   <trkpt lat="59.0708751485" lon="30.0247858115"><ele>100.058</ele><time>2026-04-20T18:06:56.075Z</time><hdop>7.125</hdop><vdop>4.5</vdop><extensions><gom:speed>0.347</gom:speed></extensions></trkpt>
   <trkpt lat="59.070874436" lon="30.0247864821"><ele>100.06</ele><time>2026-04-20T18:06:57.075Z</time><hdop>7.0</hdop><vdop>4.25</vdop><extensions><gom:speed>0.325</gom:speed></extensions></trkpt>
   <trkpt lat="59.0708731368" lon="30.024786063"><ele>100.061</ele><time>2026-04-20T18:06:58.075Z</time><hdop>6.875</hdop><vdop>4.25</vdop><extensions><gom:speed>0.319</gom:speed></extensions></trkpt>
   <trkpt lat="59.0708724244" lon="30.0247844704"><ele>100.061</ele><time>2026-04-20T18:06:58.998Z</time><hdop>6.5</hdop><vdop>4.25</vdop><extensions><gom:speed>0.32</gom:speed></extensions></trkpt>
   <trkpt lat="59.0708716281" lon="30.0247832969"><ele>100.061</ele><time>2026-04-20T18:06:59.838Z</time><hdop>6.25</hdop><vdop>4.0</vdop><extensions><gom:speed>0.346</gom:speed></extensions></trkpt>
   <trkpt lat="59.0708703289" lon="30.0247825426"><ele>100.062</ele><time>2026-04-20T18:07:00.914Z</time><hdop>6.0</hdop><vdop>4.125</vdop><extensions><gom:speed>0.399</gom:speed></extensions></trkpt>
   <trkpt lat="59.0708689459" lon="30.0247820396"><ele>100.062</ele><time>2026-04-20T18:07:01.881Z</time><hdop>5.75</hdop><vdop>4.125</vdop><extensions><gom:speed>0.424</gom:speed></extensions></trkpt>
   <trkpt lat="59.0708673533" lon="30.0247813691"><ele>100.061</ele><time>2026-04-20T18:07:02.739Z</time><hdop>5.75</hdop><vdop>4.125</vdop><extensions><gom:speed>0.5</gom:speed></extensions></trkpt>
   <trkpt lat="59.0708636234" lon="30.0247817882"><ele>100.06</ele><time>2026-04-20T18:07:03.854Z</time><hdop>5.75</hdop><vdop>4.125</vdop><extensions><gom:speed>0.53</gom:speed></extensions></trkpt>
   <trkpt lat="59.0708595162" lon="30.0247824587"><ele>100.059</ele><time>2026-04-20T18:07:04.960Z</time><hdop>5.875</hdop><vdop>4.25</vdop><extensions><gom:speed>0.521</gom:speed></extensions></trkpt>
   <trkpt lat="59.0708562473" lon="30.0247863144"><ele>100.058</ele><time>2026-04-20T18:07:05.945Z</time><hdop>6.25</hdop><vdop>4.25</vdop><extensions><gom:speed>0.46</gom:speed></extensions></trkpt>
   <trkpt lat="59.0708541518" lon="30.0247910921"><ele>100.057</ele><time>2026-04-20T18:07:07.011Z</time><hdop>6.75</hdop><vdop>4.25</vdop><extensions><gom:speed>0.455</gom:speed></extensions></trkpt>
   <trkpt lat="59.0708500447" lon="30.0247963727"><ele>100.056</ele><time>2026-04-20T18:07:07.959Z</time><hdop>7.375</hdop><vdop>4.25</vdop><extensions><gom:speed>0.464</gom:speed></extensions></trkpt>
   <trkpt lat="59.0708474463" lon="30.0247972947"><ele>100.054</ele><time>2026-04-20T18:07:09.025Z</time><hdop>7.875</hdop><vdop>4.25</vdop><extensions><gom:speed>0.42</gom:speed></extensions></trkpt>
   <trkpt lat="59.0708440516" lon="30.0247984682"><ele>100.053</ele><time>2026-04-20T18:07:09.973Z</time><hdop>8.25</hdop><vdop>4.25</vdop><extensions><gom:speed>0.442</gom:speed></extensions></trkpt>
   <trkpt lat="59.0708421238" lon="30.0248000607"><ele>100.052</ele><time>2026-04-20T18:07:10.795Z</time><hdop>8.375</hdop><vdop>4.25</vdop><extensions><gom:speed>0.391</gom:speed></extensions></trkpt>
   <trkpt lat="59.0708396511" lon="30.0248026591"><ele>100.052</ele><time>2026-04-20T18:07:11.987Z</time><hdop>8.875</hdop><vdop>4.25</vdop><extensions><gom:speed>0.321</gom:speed></extensions></trkpt>
   <trkpt lat="59.0708390225" lon="30.0248048384"><ele>100.052</ele><time>2026-04-20T18:07:13.054Z</time><hdop>9.125</hdop><vdop>4.25</vdop><extensions><gom:speed>0.227</gom:speed></extensions></trkpt>
   <trkpt lat="59.0708410341" lon="30.0248068501"><ele>100.052</ele><time>2026-04-20T18:07:13.527Z</time><hdop>9.0</hdop><vdop>4.25</vdop><extensions><gom:speed>0.096</gom:speed></extensions></trkpt>
   <trkpt lat="59.07084204" lon="30.0248092808"><ele>100.053</ele><time>2026-04-20T18:07:14.000Z</time><hdop>9.125</hdop><vdop>4.375</vdop><extensions><gom:speed>0.1</gom:speed></extensions></trkpt>
   <trkpt lat="59.0708426267" lon="30.0248109572"><ele>100.053</ele><time>2026-04-20T18:07:14.948Z</time><hdop>9.0</hdop><vdop>4.5</vdop><extensions><gom:speed>0.069</gom:speed></extensions></trkpt>
   <trkpt lat="59.0708422495" lon="30.0248107896"><ele>100.053</ele><time>2026-04-20T18:07:16.014Z</time><hdop>8.875</hdop><vdop>4.75</vdop><extensions><gom:speed>0.07</gom:speed></extensions></trkpt>
   <trkpt lat="59.0708405312" lon="30.0248122983"><ele>100.053</ele><time>2026-04-20T18:07:16.962Z</time><hdop>8.875</hdop><vdop>4.875</vdop><extensions><gom:speed>0.084</gom:speed></extensions></trkpt>
   <trkpt lat="59.0708399445" lon="30.0248126336"><ele>100.053</ele><time>2026-04-20T18:07:18.002Z</time><hdop>8.75</hdop><vdop>4.875</vdop><extensions><gom:speed>0.095</gom:speed></extensions></trkpt>
   <trkpt lat="59.0708390225" lon="30.0248128012"><ele>100.052</ele><time>2026-04-20T18:07:18.840Z</time><hdop>8.625</hdop><vdop>5.0</vdop><extensions><gom:speed>0.093</gom:speed></extensions></trkpt>
   <trkpt lat="59.0708386453" lon="30.0248129689"><ele>100.051</ele><time>2026-04-20T18:07:19.687Z</time><hdop>8.75</hdop><vdop>5.0</vdop><extensions><gom:speed>0.11</gom:speed></extensions></trkpt>
   <trkpt lat="59.0708365498" lon="30.0248131365"><ele>100.049</ele><time>2026-04-20T18:07:20.990Z</time><hdop>8.875</hdop><vdop>5.0</vdop><extensions><gom:speed>0.179</gom:speed></extensions></trkpt>
   <trkpt lat="59.0708350411" lon="30.0248128012"><ele>100.048</ele><time>2026-04-20T18:07:21.937Z</time><hdop>9.0</hdop><vdop>4.75</vdop><extensions><gom:speed>0.21</gom:speed></extensions></trkpt>
   <trkpt lat="59.0708322331" lon="30.0248138071"><ele>100.046</ele><time>2026-04-20T18:07:23.005Z</time><hdop>9.125</hdop><vdop>4.625</vdop><extensions><gom:speed>0.299</gom:speed></extensions></trkpt>
   <trkpt lat="59.0708282517" lon="30.0248159864"><ele>100.044</ele><time>2026-04-20T18:07:23.951Z</time><hdop>9.25</hdop><vdop>4.5</vdop><extensions><gom:speed>0.345</gom:speed></extensions></trkpt>
   <trkpt lat="59.0708246475" lon="30.0248186686"><ele>100.043</ele><time>2026-04-20T18:07:25.017Z</time><hdop>9.375</hdop><vdop>4.375</vdop><extensions><gom:speed>0.358</gom:speed></extensions></trkpt>
   <trkpt lat="59.070823055" lon="30.0248206802"><ele>100.043</ele><time>2026-04-20T18:07:25.847Z</time><hdop>9.5</hdop><vdop>4.375</vdop><extensions><gom:speed>0.369</gom:speed></extensions></trkpt>
   <trkpt lat="59.0708184449" lon="30.0248218537"><ele>100.042</ele><time>2026-04-20T18:07:26.354Z</time><hdop>9.625</hdop><vdop>4.625</vdop><extensions><gom:speed>0.386</gom:speed></extensions></trkpt>
   <trkpt lat="59.0708162237" lon="30.0248226081"><ele>100.042</ele><time>2026-04-20T18:07:27.031Z</time><hdop>9.75</hdop><vdop>4.875</vdop><extensions><gom:speed>0.365</gom:speed></extensions></trkpt>
   <trkpt lat="59.0708130386" lon="30.0248248712"><ele>100.041</ele><time>2026-04-20T18:07:27.979Z</time><hdop>10.0</hdop><vdop>5.125</vdop><extensions><gom:speed>0.378</gom:speed></extensions></trkpt>
   <trkpt lat="59.0708115298" lon="30.0248273857"><ele>100.041</ele><time>2026-04-20T18:07:28.518Z</time><hdop>10.125</hdop><vdop>5.125</vdop><extensions><gom:speed>0.378</gom:speed></extensions></trkpt>
   <trkpt lat="59.0708101468" lon="30.0248306547"><ele>100.041</ele><time>2026-04-20T18:07:29.045Z</time><hdop>10.25</hdop><vdop>5.25</vdop><extensions><gom:speed>0.38</gom:speed></extensions></trkpt>
   <trkpt lat="59.0708095182" lon="30.0248348456"><ele>100.041</ele><time>2026-04-20T18:07:29.581Z</time><hdop>10.375</hdop><vdop>5.25</vdop><extensions><gom:speed>0.39</gom:speed></extensions></trkpt>
   <trkpt lat="59.0708098535" lon="30.024844401"><ele>100.041</ele><time>2026-04-20T18:07:30.775Z</time><hdop>10.625</hdop><vdop>5.375</vdop><extensions><gom:speed>0.386</gom:speed></extensions></trkpt>
   <trkpt lat="59.0708109431" lon="30.0248503522"><ele>100.041</ele><time>2026-04-20T18:07:31.615Z</time><hdop>10.875</hdop><vdop>5.5</vdop><extensions><gom:speed>0.366</gom:speed></extensions></trkpt>
   <trkpt lat="59.0708115298" lon="30.0248579797"><ele>100.041</ele><time>2026-04-20T18:07:32.681Z</time><hdop>11.0</hdop><vdop>5.625</vdop><extensions><gom:speed>0.396</gom:speed></extensions></trkpt>
   <trkpt lat="59.0708103564" lon="30.0248641823"><ele>100.041</ele><time>2026-04-20T18:07:33.443Z</time><hdop>11.125</hdop><vdop>5.625</vdop><extensions><gom:speed>0.439</gom:speed></extensions></trkpt>
   <trkpt lat="59.0708089315" lon="30.0248690438"><ele>100.042</ele><time>2026-04-20T18:07:34.021Z</time><hdop>11.125</hdop><vdop>5.75</vdop><extensions><gom:speed>0.439</gom:speed></extensions></trkpt>
   <trkpt lat="59.0708055368" lon="30.024874492"><ele>100.042</ele><time>2026-04-20T18:07:34.969Z</time><hdop>11.375</hdop><vdop>5.75</vdop><extensions><gom:speed>0.401</gom:speed></extensions></trkpt>
   <trkpt lat="59.0708020164" lon="30.0248750788"><ele>100.041</ele><time>2026-04-20T18:07:36.034Z</time><hdop>11.625</hdop><vdop>5.75</vdop><extensions><gom:speed>0.377</gom:speed></extensions></trkpt>
   <trkpt lat="59.0708007172" lon="30.0248767552"><ele>100.04</ele><time>2026-04-20T18:07:36.521Z</time><hdop>11.75</hdop><vdop>5.75</vdop><extensions><gom:speed>0.411</gom:speed></extensions></trkpt>
   <trkpt lat="59.0707991246" lon="30.0248793535"><ele>100.04</ele><time>2026-04-20T18:07:36.982Z</time><hdop>11.875</hdop><vdop>5.75</vdop><extensions><gom:speed>0.412</gom:speed></extensions></trkpt>
   <trkpt lat="59.0707964424" lon="30.024884215"><ele>100.039</ele><time>2026-04-20T18:07:38.048Z</time><hdop>12.125</hdop><vdop>5.875</vdop><extensions><gom:speed>0.43</gom:speed></extensions></trkpt>
   <trkpt lat="59.070792922" lon="30.0248912558"><ele>100.038</ele><time>2026-04-20T18:07:38.515Z</time><hdop>12.375</hdop><vdop>5.875</vdop><extensions><gom:speed>0.491</gom:speed></extensions></trkpt>
   <trkpt lat="59.0707916228" lon="30.0248943571"><ele>100.039</ele><time>2026-04-20T18:07:38.996Z</time><hdop>12.5</hdop><vdop>5.875</vdop><extensions><gom:speed>0.512</gom:speed></extensions></trkpt>
   <trkpt lat="59.0707890244" lon="30.0249003083"><ele>100.039</ele><time>2026-04-20T18:07:39.944Z</time><hdop>12.75</hdop><vdop>5.75</vdop><extensions><gom:speed>0.476</gom:speed></extensions></trkpt>
   <trkpt lat="59.0707895273" lon="30.024881449"><ele>101.822</ele><time>2026-04-20T18:07:41.075Z</time><hdop>12.5</hdop><vdop>3.875</vdop><extensions><gom:speed>0.477</gom:speed></extensions></trkpt>
   <trkpt lat="59.0707849173" lon="30.0248586502"><ele>102.781</ele><time>2026-04-20T18:07:42.075Z</time><hdop>12.125</hdop><vdop>2.875</vdop><extensions><gom:speed>0.456</gom:speed></extensions></trkpt>
   <trkpt lat="59.070778128" lon="30.0248445686"><ele>102.19</ele><time>2026-04-20T18:07:43.076Z</time><hdop>11.0</hdop><vdop>2.5</vdop><extensions><gom:speed>0.449</gom:speed></extensions></trkpt>
   <trkpt lat="59.0707685307" lon="30.0248419703"><ele>101.987</ele><time>2026-04-20T18:07:44.075Z</time><hdop>9.75</hdop><vdop>2.5</vdop><extensions><gom:speed>0.464</gom:speed></extensions></trkpt>
   <trkpt lat="59.0707582209" lon="30.0248451554"><ele>101.725</ele><time>2026-04-20T18:07:45.075Z</time><hdop>8.375</hdop><vdop>2.5</vdop><extensions><gom:speed>0.421</gom:speed></extensions></trkpt>
   <trkpt lat="59.0707531499" lon="30.0248465803"><ele>101.569</ele><time>2026-04-20T18:07:45.860Z</time><hdop>7.0</hdop><vdop>2.5</vdop><extensions><gom:speed>0.342</gom:speed></extensions></trkpt>
   <trkpt lat="59.0707453547" lon="30.0248517771"><ele>101.266</ele><time>2026-04-20T18:07:46.454Z</time><hdop>6.625</hdop><vdop>6.75</vdop><extensions><gom:speed>0.306</gom:speed></extensions></trkpt>
   <trkpt lat="59.0707385235" lon="30.024858315"><ele>101.508</ele><time>2026-04-20T18:07:47.075Z</time><hdop>6.5</hdop><vdop>6.625</vdop><extensions><gom:speed>0.336</gom:speed></extensions></trkpt>
   <trkpt lat="59.0707325304" lon="30.0248635117"><ele>101.653</ele><time>2026-04-20T18:07:48.082Z</time><hdop>6.0</hdop><vdop>6.625</vdop><extensions><gom:speed>0.33</gom:speed></extensions></trkpt>
   <trkpt lat="59.0707249448" lon="30.0248694629"><ele>101.592</ele><time>2026-04-20T18:07:48.960Z</time><hdop>5.875</hdop><vdop>6.375</vdop><extensions><gom:speed>0.37</gom:speed></extensions></trkpt>
   <trkpt lat="59.0707179459" lon="30.0248723127"><ele>101.574</ele><time>2026-04-20T18:07:49.996Z</time><hdop>5.75</hdop><vdop>6.25</vdop><extensions><gom:speed>0.48</gom:speed></extensions></trkpt>
   <trkpt lat="59.0707108213" lon="30.0248787668"><ele>101.314</ele><time>2026-04-20T18:07:50.605Z</time><hdop>5.625</hdop><vdop>6.125</vdop><extensions><gom:speed>0.558</gom:speed></extensions></trkpt>
   <trkpt lat="59.070697033" lon="30.0248915911"><ele>101.187</ele><time>2026-04-20T18:07:51.832Z</time><hdop>5.5</hdop><vdop>5.875</vdop><extensions><gom:speed>0.659</gom:speed></extensions></trkpt>
   <trkpt lat="59.0706892379" lon="30.0249040802"><ele>100.887</ele><time>2026-04-20T18:07:52.975Z</time><hdop>5.5</hdop><vdop>5.5</vdop><extensions><gom:speed>0.528</gom:speed></extensions></trkpt>
   <trkpt lat="59.0706861366" lon="30.0249093608"><ele>100.708</ele><time>2026-04-20T18:07:54.054Z</time><hdop>5.5</hdop><vdop>5.5</vdop><extensions><gom:speed>0.453</gom:speed></extensions></trkpt>
   <trkpt lat="59.0706795568" lon="30.0249134679"><ele>100.45</ele><time>2026-04-20T18:07:54.912Z</time><hdop>5.5</hdop><vdop>5.5</vdop><extensions><gom:speed>0.506</gom:speed></extensions></trkpt>
   <trkpt lat="59.0706741505" lon="30.0249134679"><ele>100.132</ele><time>2026-04-20T18:07:55.820Z</time><hdop>5.375</hdop><vdop>5.375</vdop><extensions><gom:speed>0.522</gom:speed></extensions></trkpt>
   <trkpt lat="59.070671133" lon="30.0249143899"><ele>99.92</ele><time>2026-04-20T18:07:56.767Z</time><hdop>5.375</hdop><vdop>5.5</vdop><extensions><gom:speed>0.48</gom:speed></extensions></trkpt>
   <trkpt lat="59.0706677383" lon="30.0249093608"><ele>100.169</ele><time>2026-04-20T18:07:57.950Z</time><hdop>5.5</hdop><vdop>6.25</vdop><extensions><gom:speed>0.306</gom:speed></extensions></trkpt>
   <trkpt lat="59.0706667325" lon="30.0249092769"><ele>100.355</ele><time>2026-04-20T18:07:59.075Z</time><hdop>5.375</hdop><vdop>6.125</vdop><extensions><gom:speed>0.19</gom:speed></extensions></trkpt>
   <trkpt lat="59.0706677383" lon="30.0249097799"><ele>100.503</ele><time>2026-04-20T18:07:59.964Z</time><hdop>5.5</hdop><vdop>6.0</vdop><extensions><gom:speed>0.096</gom:speed></extensions></trkpt>
   <trkpt lat="59.0706679478" lon="30.0249109533"><ele>100.56</ele><time>2026-04-20T18:08:01.030Z</time><hdop>5.375</hdop><vdop>6.0</vdop><extensions><gom:speed>0.075</gom:speed></extensions></trkpt>
   <trkpt lat="59.0706682412" lon="30.0249112886"><ele>100.624</ele><time>2026-04-20T18:08:01.978Z</time><hdop>5.375</hdop><vdop>6.0</vdop><extensions><gom:speed>0.074</gom:speed></extensions></trkpt>
   <trkpt lat="59.0706682412" lon="30.0249115401"><ele>100.663</ele><time>2026-04-20T18:08:02.926Z</time><hdop>5.375</hdop><vdop>6.0</vdop><extensions><gom:speed>0.07</gom:speed></extensions></trkpt>
   <trkpt lat="59.0706642179" lon="30.0249153119"><ele>100.803</ele><time>2026-04-20T18:08:03.992Z</time><hdop>5.375</hdop><vdop>5.625</vdop><extensions><gom:speed>0.074</gom:speed></extensions></trkpt>
   <trkpt lat="59.0706629187" lon="30.0249155634"><ele>100.932</ele><time>2026-04-20T18:08:04.940Z</time><hdop>5.375</hdop><vdop>5.625</vdop><extensions><gom:speed>0.068</gom:speed></extensions></trkpt>
   <trkpt lat="59.0706620386" lon="30.0249155634"><ele>101.04</ele><time>2026-04-20T18:08:06.006Z</time><hdop>5.5</hdop><vdop>5.375</vdop><extensions><gom:speed>0.064</gom:speed></extensions></trkpt>
   <trkpt lat="59.0706616195" lon="30.0249164854"><ele>101.102</ele><time>2026-04-20T18:08:06.953Z</time><hdop>5.5</hdop><vdop>5.125</vdop><extensions><gom:speed>0.057</gom:speed></extensions></trkpt>
   <trkpt lat="59.0706577219" lon="30.0249190838"><ele>101.183</ele><time>2026-04-20T18:08:08.076Z</time><hdop>5.5</hdop><vdop>4.875</vdop><extensions><gom:speed>0.069</gom:speed></extensions></trkpt>
   <trkpt lat="59.0706566323" lon="30.0249174912"><ele>101.231</ele><time>2026-04-20T18:08:08.967Z</time><hdop>5.625</hdop><vdop>4.75</vdop><extensions><gom:speed>0.075</gom:speed></extensions></trkpt>
   <trkpt lat="59.0706566323" lon="30.0249154795"><ele>101.284</ele><time>2026-04-20T18:08:10.034Z</time><hdop>5.625</hdop><vdop>4.75</vdop><extensions><gom:speed>0.068</gom:speed></extensions></trkpt>
   <trkpt lat="59.0706565485" lon="30.0249160663"><ele>101.337</ele><time>2026-04-20T18:08:10.981Z</time><hdop>5.625</hdop><vdop>4.75</vdop><extensions><gom:speed>0.067</gom:speed></extensions></trkpt>
   <trkpt lat="59.0706528185" lon="30.0249182456"><ele>102.928</ele><time>2026-04-20T18:08:12.075Z</time><hdop>5.625</hdop><vdop>3.375</vdop><extensions><gom:speed>0.093</gom:speed></extensions></trkpt>
   <trkpt lat="59.0706499267" lon="30.024920844"><ele>102.454</ele><time>2026-04-20T18:08:13.076Z</time><hdop>5.5</hdop><vdop>2.625</vdop><extensions><gom:speed>0.5</gom:speed></extensions></trkpt>
   <trkpt lat="59.0706441432" lon="30.0249169045"><ele>102.86</ele><time>2026-04-20T18:08:14.076Z</time><hdop>5.5</hdop><vdop>2.5</vdop><extensions><gom:speed>0.462</gom:speed></extensions></trkpt>
   <trkpt lat="59.0706398266" lon="30.0249130488"><ele>103.214</ele><time>2026-04-20T18:08:15.075Z</time><hdop>5.375</hdop><vdop>2.5</vdop><extensions><gom:speed>0.258</gom:speed></extensions></trkpt>
   <trkpt lat="59.0706378568" lon="30.0249107019"><ele>103.425</ele><time>2026-04-20T18:08:15.754Z</time><hdop>5.375</hdop><vdop>2.5</vdop><extensions><gom:speed>0.24</gom:speed></extensions></trkpt>
   <trkpt lat="59.0706335401" lon="30.0249056727"><ele>103.786</ele><time>2026-04-20T18:08:16.819Z</time><hdop>5.25</hdop><vdop>2.5</vdop><extensions><gom:speed>0.713</gom:speed></extensions></trkpt>
   <trkpt lat="59.0706277566" lon="30.0248969555"><ele>103.906</ele><time>2026-04-20T18:08:17.836Z</time><hdop>5.375</hdop><vdop>2.5</vdop><extensions><gom:speed>0.772</gom:speed></extensions></trkpt>
   <trkpt lat="59.0706213445" lon="30.0248916749"><ele>103.822</ele><time>2026-04-20T18:08:18.773Z</time><hdop>5.5</hdop><vdop>2.5</vdop><extensions><gom:speed>0.777</gom:speed></extensions></trkpt>
   <trkpt lat="59.0706131302" lon="30.0248934351"><ele>103.436</ele><time>2026-04-20T18:08:19.860Z</time><hdop>5.625</hdop><vdop>2.5</vdop><extensions><gom:speed>0.756</gom:speed></extensions></trkpt>
   <trkpt lat="59.0706060475" lon="30.0248998054"><ele>102.806</ele><time>2026-04-20T18:08:20.717Z</time><hdop>5.625</hdop><vdop>2.5</vdop><extensions><gom:speed>0.642</gom:speed></extensions></trkpt>
   <trkpt lat="59.0706012279" lon="30.0249025714"><ele>102.384</ele><time>2026-04-20T18:08:21.406Z</time><hdop>5.625</hdop><vdop>2.5</vdop><extensions><gom:speed>0.644</gom:speed></extensions></trkpt>
   <trkpt lat="59.0705930555" lon="30.0249071815"><ele>102.06</ele><time>2026-04-20T18:08:22.075Z</time><hdop>5.625</hdop><vdop>2.5</vdop><extensions><gom:speed>0.651</gom:speed></extensions></trkpt>
   <trkpt lat="59.0705887389" lon="30.0249086064"><ele>101.866</ele><time>2026-04-20T18:08:22.782Z</time><hdop>5.625</hdop><vdop>2.5</vdop><extensions><gom:speed>0.645</gom:speed></extensions></trkpt>
   <trkpt lat="59.0705809437" lon="30.0249138032"><ele>101.55</ele><time>2026-04-20T18:08:23.680Z</time><hdop>5.5</hdop><vdop>2.5</vdop><extensions><gom:speed>0.635</gom:speed></extensions></trkpt>
   <trkpt lat="59.0705717236" lon="30.0249303993"><ele>101.326</ele><time>2026-04-20T18:08:24.796Z</time><hdop>5.375</hdop><vdop>2.5</vdop><extensions><gom:speed>0.698</gom:speed></extensions></trkpt>
   <trkpt lat="59.0705639284" lon="30.0249449838"><ele>100.599</ele><time>2026-04-20T18:08:25.693Z</time><hdop>5.25</hdop><vdop>2.5</vdop><extensions><gom:speed>0.648</gom:speed></extensions></trkpt>
   <trkpt lat="59.0705574324" lon="30.0249592331"><ele>99.956</ele><time>2026-04-20T18:08:26.700Z</time><hdop>5.25</hdop><vdop>2.5</vdop><extensions><gom:speed>0.648</gom:speed></extensions></trkpt>
   <trkpt lat="59.0705522357" lon="30.0249682017"><ele>99.47</ele><time>2026-04-20T18:08:27.685Z</time><hdop>5.25</hdop><vdop>2.5</vdop><extensions><gom:speed>0.657</gom:speed></extensions></trkpt>
   <trkpt lat="59.0705460331" lon="30.0249863066"><ele>99.423</ele><time>2026-04-20T18:08:28.635Z</time><hdop>5.375</hdop><vdop>2.5</vdop><extensions><gom:speed>0.554</gom:speed></extensions></trkpt>
   <trkpt lat="59.070542345" lon="30.0250055012"><ele>99.304</ele><time>2026-04-20T18:08:30.075Z</time><hdop>5.5</hdop><vdop>2.5</vdop><extensions><gom:speed>0.445</gom:speed></extensions></trkpt>
   <trkpt lat="59.0705396209" lon="30.0250174035"><ele>99.071</ele><time>2026-04-20T18:08:31.075Z</time><hdop>5.5</hdop><vdop>2.5</vdop><extensions><gom:speed>0.433</gom:speed></extensions></trkpt>
   <trkpt lat="59.0705355557" lon="30.025027378"><ele>99.135</ele><time>2026-04-20T18:08:32.075Z</time><hdop>5.5</hdop><vdop>2.5</vdop><extensions><gom:speed>0.459</gom:speed></extensions></trkpt>
   <trkpt lat="59.0705334183" lon="30.025030144"><ele>99.174</ele><time>2026-04-20T18:08:32.743Z</time><hdop>5.5</hdop><vdop>2.5</vdop><extensions><gom:speed>0.376</gom:speed></extensions></trkpt>
   <trkpt lat="59.0705302332" lon="30.0250374362"><ele>99.347</ele><time>2026-04-20T18:08:33.621Z</time><hdop>5.375</hdop><vdop>2.5</vdop><extensions><gom:speed>0.384</gom:speed></extensions></trkpt>
   <trkpt lat="59.0705271319" lon="30.0250451476"><ele>99.727</ele><time>2026-04-20T18:08:34.075Z</time><hdop>5.25</hdop><vdop>2.5</vdop><extensions><gom:speed>0.399</gom:speed></extensions></trkpt>
   <trkpt lat="59.0705254555" lon="30.0250492547"><ele>99.954</ele><time>2026-04-20T18:08:34.815Z</time><hdop>5.25</hdop><vdop>2.5</vdop><extensions><gom:speed>0.405</gom:speed></extensions></trkpt>
   <trkpt lat="59.0705233181" lon="30.0250595645"><ele>100.104</ele><time>2026-04-20T18:08:35.821Z</time><hdop>5.0</hdop><vdop>2.5</vdop><extensions><gom:speed>0.404</gom:speed></extensions></trkpt>
   <trkpt lat="59.0705191272" lon="30.0250669405"><ele>100.153</ele><time>2026-04-20T18:08:36.937Z</time><hdop>4.875</hdop><vdop>2.5</vdop><extensions><gom:speed>0.352</gom:speed></extensions></trkpt>
   <trkpt lat="59.0705162354" lon="30.0250747357"><ele>100.01</ele><time>2026-04-20T18:08:38.075Z</time><hdop>4.75</hdop><vdop>2.5</vdop><extensions><gom:speed>0.319</gom:speed></extensions></trkpt>
   <trkpt lat="59.0705141399" lon="30.0250775856"><ele>99.926</ele><time>2026-04-20T18:08:39.059Z</time><hdop>4.625</hdop><vdop>2.5</vdop><extensions><gom:speed>0.33</gom:speed></extensions></trkpt>
   <trkpt lat="59.0705109548" lon="30.0250853807"><ele>99.984</ele><time>2026-04-20T18:08:39.998Z</time><hdop>4.625</hdop><vdop>2.5</vdop><extensions><gom:speed>0.34</gom:speed></extensions></trkpt>
   <trkpt lat="59.0705078535" lon="30.0250983727"><ele>99.942</ele><time>2026-04-20T18:08:40.857Z</time><hdop>4.5</hdop><vdop>2.5</vdop><extensions><gom:speed>0.453</gom:speed></extensions></trkpt>
   <trkpt lat="59.0705053389" lon="30.0251108617"><ele>99.83</ele><time>2026-04-20T18:08:41.755Z</time><hdop>4.625</hdop><vdop>2.5</vdop><extensions><gom:speed>0.494</gom:speed></extensions></trkpt>
   <trkpt lat="59.0705012318" lon="30.025123686"><ele>99.495</ele><time>2026-04-20T18:08:42.654Z</time><hdop>4.625</hdop><vdop>2.5</vdop><extensions><gom:speed>0.587</gom:speed></extensions></trkpt>
   <trkpt lat="59.0704943167" lon="30.025135253"><ele>99.2</ele><time>2026-04-20T18:08:43.778Z</time><hdop>4.625</hdop><vdop>2.5</vdop><extensions><gom:speed>0.573</gom:speed></extensions></trkpt>
   <trkpt lat="59.0704877369" lon="30.0251417909"><ele>98.911</ele><time>2026-04-20T18:08:44.599Z</time><hdop>4.625</hdop><vdop>2.5</vdop><extensions><gom:speed>0.649</gom:speed></extensions></trkpt>
   <trkpt lat="59.070483546" lon="30.025146401"><ele>98.83</ele><time>2026-04-20T18:08:45.075Z</time><hdop>4.625</hdop><vdop>2.5</vdop><extensions><gom:speed>0.678</gom:speed></extensions></trkpt>
   <trkpt lat="59.0704754574" lon="30.0251558725"><ele>98.763</ele><time>2026-04-20T18:08:46.075Z</time><hdop>4.75</hdop><vdop>2.5</vdop><extensions><gom:speed>0.72</gom:speed></extensions></trkpt>
   <trkpt lat="59.0704670336" lon="30.0251688645"><ele>98.789</ele><time>2026-04-20T18:08:47.075Z</time><hdop>4.875</hdop><vdop>2.5</vdop><extensions><gom:speed>0.743</gom:speed></extensions></trkpt>
   <trkpt lat="59.0704606215" lon="30.02518018"><ele>98.684</ele><time>2026-04-20T18:08:48.075Z</time><hdop>4.875</hdop><vdop>2.5</vdop><extensions><gom:speed>0.762</gom:speed></extensions></trkpt>
   <trkpt lat="59.0704535388" lon="30.0251894001"><ele>98.588</ele><time>2026-04-20T18:08:49.076Z</time><hdop>5.0</hdop><vdop>2.5</vdop><extensions><gom:speed>0.709</gom:speed></extensions></trkpt>
   <trkpt lat="59.0704454502" lon="30.0251940102"><ele>98.362</ele><time>2026-04-20T18:08:50.075Z</time><hdop>5.0</hdop><vdop>2.5</vdop><extensions><gom:speed>0.722</gom:speed></extensions></trkpt>
   <trkpt lat="59.0704382418" lon="30.0251958542"><ele>98.143</ele><time>2026-04-20T18:08:51.075Z</time><hdop>5.0</hdop><vdop>2.5</vdop><extensions><gom:speed>0.646</gom:speed></extensions></trkpt>
   <trkpt lat="59.0704334222" lon="30.0251916633"><ele>97.742</ele><time>2026-04-20T18:08:52.075Z</time><hdop>5.0</hdop><vdop>2.5</vdop><extensions><gom:speed>0.532</gom:speed></extensions></trkpt>
   <trkpt lat="59.0704269262" lon="30.0251930882"><ele>97.607</ele><time>2026-04-20T18:08:53.075Z</time><hdop>5.0</hdop><vdop>2.5</vdop><extensions><gom:speed>0.502</gom:speed></extensions></trkpt>
   <trkpt lat="59.0704228191" lon="30.025195938"><ele>97.526</ele><time>2026-04-20T18:08:54.077Z</time><hdop>5.0</hdop><vdop>2.5</vdop><extensions><gom:speed>0.471</gom:speed></extensions></trkpt>
   <trkpt lat="59.0704167422" lon="30.025201051"><ele>97.608</ele><time>2026-04-20T18:08:54.975Z</time><hdop>5.0</hdop><vdop>2.5</vdop><extensions><gom:speed>0.542</gom:speed></extensions></trkpt>
   <trkpt lat="59.0704087375" lon="30.0252101034"><ele>97.604</ele><time>2026-04-20T18:08:56.001Z</time><hdop>4.875</hdop><vdop>2.5</vdop><extensions><gom:speed>0.565</gom:speed></extensions></trkpt>
   <trkpt lat="59.0704011519" lon="30.0252181501"><ele>97.641</ele><time>2026-04-20T18:08:57.017Z</time><hdop>4.875</hdop><vdop>2.5</vdop><extensions><gom:speed>0.597</gom:speed></extensions></trkpt>
   <trkpt lat="59.070394153" lon="30.0252272863"><ele>97.8</ele><time>2026-04-20T18:08:57.935Z</time><hdop>4.875</hdop><vdop>2.5</vdop><extensions><gom:speed>0.65</gom:speed></extensions></trkpt>
   <trkpt lat="59.0703912193" lon="30.0252314773"><ele>97.989</ele><time>2026-04-20T18:08:58.604Z</time><hdop>4.875</hdop><vdop>2.5</vdop><extensions><gom:speed>0.678</gom:speed></extensions></trkpt>
   <trkpt lat="59.0703842204" lon="30.0252396077"><ele>98.173</ele><time>2026-04-20T18:08:59.075Z</time><hdop>4.875</hdop><vdop>2.5</vdop><extensions><gom:speed>0.713</gom:speed></extensions></trkpt>
   <trkpt lat="59.070379317" lon="30.0252438825"><ele>98.283</ele><time>2026-04-20T18:08:59.823Z</time><hdop>4.875</hdop><vdop>2.5</vdop><extensions><gom:speed>0.681</gom:speed></extensions></trkpt>
   <trkpt lat="59.070372821" lon="30.0252521806"><ele>98.431</ele><time>2026-04-20T18:09:00.701Z</time><hdop>4.75</hdop><vdop>2.5</vdop><extensions><gom:speed>0.71</gom:speed></extensions></trkpt>
   <trkpt lat="59.0703673309" lon="30.0252599758"><ele>98.586</ele><time>2026-04-20T18:09:01.539Z</time><hdop>4.75</hdop><vdop>2.5</vdop><extensions><gom:speed>0.672</gom:speed></extensions></trkpt>
   <trkpt lat="59.0703637267" lon="30.0252647535"><ele>98.464</ele><time>2026-04-20T18:09:02.076Z</time><hdop>4.75</hdop><vdop>2.5</vdop><extensions><gom:speed>0.675</gom:speed></extensions></trkpt>
   <trkpt lat="59.0703578174" lon="30.0252753985"><ele>98.521</ele><time>2026-04-20T18:09:03.076Z</time><hdop>4.75</hdop><vdop>2.5</vdop><extensions><gom:speed>0.669</gom:speed></extensions></trkpt>
   <trkpt lat="59.0703546323" lon="30.0252891448"><ele>98.818</ele><time>2026-04-20T18:09:04.075Z</time><hdop>4.625</hdop><vdop>2.5</vdop><extensions><gom:speed>0.618</gom:speed></extensions></trkpt>
   <trkpt lat="59.0703536265" lon="30.0252945092"><ele>98.995</ele><time>2026-04-20T18:09:04.764Z</time><hdop>4.625</hdop><vdop>2.5</vdop><extensions><gom:speed>0.635</gom:speed></extensions></trkpt>
   <trkpt lat="59.0703485554" lon="30.0253150449"><ele>99.41</ele><time>2026-04-20T18:09:05.921Z</time><hdop>4.625</hdop><vdop>2.5</vdop><extensions><gom:speed>0.699</gom:speed></extensions></trkpt>
   <trkpt lat="59.070345035" lon="30.0253294617"><ele>99.528</ele><time>2026-04-20T18:09:06.844Z</time><hdop>4.75</hdop><vdop>2.5</vdop><extensions><gom:speed>0.727</gom:speed></extensions></trkpt>
   <trkpt lat="59.0703409279" lon="30.0253419508"><ele>99.689</ele><time>2026-04-20T18:09:07.765Z</time><hdop>4.75</hdop><vdop>2.5</vdop><extensions><gom:speed>0.705</gom:speed></extensions></trkpt>
   <trkpt lat="59.0703353539" lon="30.0253518414"><ele>100.037</ele><time>2026-04-20T18:09:08.735Z</time><hdop>4.75</hdop><vdop>2.5</vdop><extensions><gom:speed>0.679</gom:speed></extensions></trkpt>
   <trkpt lat="59.0703300314" lon="30.025360391"><ele>100.372</ele><time>2026-04-20T18:09:09.615Z</time><hdop>4.75</hdop><vdop>2.5</vdop><extensions><gom:speed>0.67</gom:speed></extensions></trkpt>
   <trkpt lat="59.0703275168" lon="30.0253661745"><ele>100.539</ele><time>2026-04-20T18:09:10.075Z</time><hdop>4.75</hdop><vdop>2.5</vdop><extensions><gom:speed>0.686</gom:speed></extensions></trkpt>
   <trkpt lat="59.0703238288" lon="30.0253715389"><ele>100.639</ele><time>2026-04-20T18:09:10.542Z</time><hdop>4.75</hdop><vdop>2.5</vdop><extensions><gom:speed>0.757</gom:speed></extensions></trkpt>
   <trkpt lat="59.0703184225" lon="30.0253838603"><ele>100.759</ele><time>2026-04-20T18:09:11.076Z</time><hdop>4.75</hdop><vdop>2.5</vdop><extensions><gom:speed>0.799</gom:speed></extensions></trkpt>
   <trkpt lat="59.0703134352" lon="30.0253951759"><ele>100.789</ele><time>2026-04-20T18:09:12.076Z</time><hdop>4.75</hdop><vdop>2.5</vdop><extensions><gom:speed>0.769</gom:speed></extensions></trkpt>
   <trkpt lat="59.0703068555" lon="30.0254025519"><ele>100.807</ele><time>2026-04-20T18:09:13.020Z</time><hdop>4.875</hdop><vdop>2.5</vdop><extensions><gom:speed>0.789</gom:speed></extensions></trkpt>
   <trkpt lat="59.0702997308" lon="30.02541085"><ele>100.964</ele><time>2026-04-20T18:09:13.819Z</time><hdop>4.875</hdop><vdop>2.5</vdop><extensions><gom:speed>0.865</gom:speed></extensions></trkpt>
   <trkpt lat="59.0702921452" lon="30.025421998"><ele>100.776</ele><time>2026-04-20T18:09:14.915Z</time><hdop>4.875</hdop><vdop>2.5</vdop><extensions><gom:speed>0.833</gom:speed></extensions></trkpt>
   <trkpt lat="59.070288541" lon="30.0254298769"><ele>100.858</ele><time>2026-04-20T18:09:15.596Z</time><hdop>4.875</hdop><vdop>2.5</vdop><extensions><gom:speed>0.805</gom:speed></extensions></trkpt>
   <trkpt lat="59.070286236" lon="30.0254359119"><ele>100.913</ele><time>2026-04-20T18:09:16.075Z</time><hdop>4.875</hdop><vdop>2.5</vdop><extensions><gom:speed>0.792</gom:speed></extensions></trkpt>
   <trkpt lat="59.0702835538" lon="30.0254409411"><ele>100.946</ele><time>2026-04-20T18:09:16.533Z</time><hdop>4.875</hdop><vdop>2.5</vdop><extensions><gom:speed>0.812</gom:speed></extensions></trkpt>
   <trkpt lat="59.0702799495" lon="30.0254466407"><ele>101.092</ele><time>2026-04-20T18:09:17.075Z</time><hdop>4.875</hdop><vdop>6.625</vdop><extensions><gom:speed>0.816</gom:speed></extensions></trkpt>
   <trkpt lat="59.0702721544" lon="30.0254523404"><ele>101.088</ele><time>2026-04-20T18:09:18.032Z</time><hdop>4.75</hdop><vdop>6.875</vdop><extensions><gom:speed>0.772</gom:speed></extensions></trkpt>
   <trkpt lat="59.0702691369" lon="30.025452089"><ele>101.085</ele><time>2026-04-20T18:09:18.521Z</time><hdop>4.875</hdop><vdop>6.875</vdop><extensions><gom:speed>0.719</gom:speed></extensions></trkpt>
   <trkpt lat="59.0702661194" lon="30.0254523404"><ele>101.167</ele><time>2026-04-20T18:09:19.075Z</time><hdop>4.75</hdop><vdop>6.75</vdop><extensions><gom:speed>0.718</gom:speed></extensions></trkpt>
   <trkpt lat="59.0702631438" lon="30.0254535139"><ele>101.216</ele><time>2026-04-20T18:09:19.693Z</time><hdop>4.875</hdop><vdop>6.75</vdop><extensions><gom:speed>0.611</gom:speed></extensions></trkpt>
   <trkpt lat="59.0702588271" lon="30.0254542683"><ele>101.347</ele><time>2026-04-20T18:09:20.562Z</time><hdop>5.0</hdop><vdop>6.625</vdop><extensions><gom:speed>0.585</gom:speed></extensions></trkpt>
   <trkpt lat="59.0702539237" lon="30.0254551065"><ele>101.552</ele><time>2026-04-20T18:09:21.463Z</time><hdop>5.125</hdop><vdop>6.5</vdop><extensions><gom:speed>0.582</gom:speed></extensions></trkpt>
   <trkpt lat="59.070251954" lon="30.0254561961"><ele>101.711</ele><time>2026-04-20T18:09:22.075Z</time><hdop>5.25</hdop><vdop>6.25</vdop><extensions><gom:speed>0.584</gom:speed></extensions></trkpt>
   <trkpt lat="59.0702475535" lon="30.0254575372"><ele>101.789</ele><time>2026-04-20T18:09:23.007Z</time><hdop>5.375</hdop><vdop>6.0</vdop><extensions><gom:speed>0.545</gom:speed></extensions></trkpt>
   <trkpt lat="59.0702432368" lon="30.0254563638"><ele>101.836</ele><time>2026-04-20T18:09:23.592Z</time><hdop>5.5</hdop><vdop>6.0</vdop><extensions><gom:speed>0.534</gom:speed></extensions></trkpt>
   <trkpt lat="59.0702385429" lon="30.025453933"><ele>101.818</ele><time>2026-04-20T18:09:24.877Z</time><hdop>5.75</hdop><vdop>5.875</vdop><extensions><gom:speed>0.49</gom:speed></extensions></trkpt>
   <trkpt lat="59.0702387525" lon="30.0254523404"><ele>101.79</ele><time>2026-04-20T18:09:25.853Z</time><hdop>5.75</hdop><vdop>5.875</vdop><extensions><gom:speed>0.425</gom:speed></extensions></trkpt>
   <trkpt lat="59.0702363217" lon="30.0254537654"><ele>101.758</ele><time>2026-04-20T18:09:26.614Z</time><hdop>5.75</hdop><vdop>5.625</vdop><extensions><gom:speed>0.468</gom:speed></extensions></trkpt>
   <trkpt lat="59.0702365313" lon="30.0254537654"><ele>101.755</ele><time>2026-04-20T18:09:27.075Z</time><hdop>5.75</hdop><vdop>5.625</vdop><extensions><gom:speed>0.434</gom:speed></extensions></trkpt>
   <trkpt lat="59.0702327175" lon="30.0254547712"><ele>101.827</ele><time>2026-04-20T18:09:27.983Z</time><hdop>5.875</hdop><vdop>5.625</vdop><extensions><gom:speed>0.521</gom:speed></extensions></trkpt>
   <trkpt lat="59.0702258444" lon="30.025456699"><ele>101.89</ele><time>2026-04-20T18:09:29.049Z</time><hdop>5.875</hdop><vdop>5.625</vdop><extensions><gom:speed>0.636</gom:speed></extensions></trkpt>
   <trkpt lat="59.0702231202" lon="30.0254566152"><ele>101.927</ele><time>2026-04-20T18:09:29.523Z</time><hdop>5.875</hdop><vdop>5.625</vdop><extensions><gom:speed>0.67</gom:speed></extensions></trkpt>
   <trkpt lat="59.0702149479" lon="30.0254575372"><ele>101.956</ele><time>2026-04-20T18:09:29.997Z</time><hdop>6.0</hdop><vdop>5.625</vdop><extensions><gom:speed>0.702</gom:speed></extensions></trkpt>
   <trkpt lat="59.0702122238" lon="30.0254582916"><ele>101.973</ele><time>2026-04-20T18:09:30.518Z</time><hdop>6.0</hdop><vdop>5.625</vdop><extensions><gom:speed>0.673</gom:speed></extensions></trkpt>
   <trkpt lat="59.0702071527" lon="30.02546089"><ele>101.997</ele><time>2026-04-20T18:09:31.422Z</time><hdop>6.125</hdop><vdop>5.625</vdop><extensions><gom:speed>0.656</gom:speed></extensions></trkpt>
   <trkpt lat="59.0702033389" lon="30.0254629855"><ele>102.02</ele><time>2026-04-20T18:09:32.011Z</time><hdop>6.25</hdop><vdop>5.5</vdop><extensions><gom:speed>0.645</gom:speed></extensions></trkpt>
   <trkpt lat="59.0701972202" lon="30.0254650809"><ele>101.991</ele><time>2026-04-20T18:09:32.958Z</time><hdop>6.5</hdop><vdop>5.625</vdop><extensions><gom:speed>0.635</gom:speed></extensions></trkpt>
   <trkpt lat="59.070198226" lon="30.0254650809"><ele>101.963</ele><time>2026-04-20T18:09:34.075Z</time><hdop>6.625</hdop><vdop>5.75</vdop><extensions><gom:speed>0.553</gom:speed></extensions></trkpt>
   <trkpt lat="59.0701973459" lon="30.0254639075"><ele>101.964</ele><time>2026-04-20T18:09:34.973Z</time><hdop>6.75</hdop><vdop>5.75</vdop><extensions><gom:speed>0.569</gom:speed></extensions></trkpt>
   <trkpt lat="59.0701966334" lon="30.0254625664"><ele>101.965</ele><time>2026-04-20T18:09:35.684Z</time><hdop>6.75</hdop><vdop>5.75</vdop><extensions><gom:speed>0.575</gom:speed></extensions></trkpt>
   <trkpt lat="59.0701862399" lon="30.0254640751"><ele>101.966</ele><time>2026-04-20T18:09:36.960Z</time><hdop>7.0</hdop><vdop>5.75</vdop><extensions><gom:speed>0.605</gom:speed></extensions></trkpt>
   <trkpt lat="59.0701885449" lon="30.0254668411"><ele>102.638</ele><time>2026-04-20T18:09:37.763Z</time><hdop>6.875</hdop><vdop>4.125</vdop><extensions><gom:speed>0.637</gom:speed></extensions></trkpt>
   <trkpt lat="59.07018712" lon="30.0254691881"><ele>103.023</ele><time>2026-04-20T18:09:38.638Z</time><hdop>6.625</hdop><vdop>3.375</vdop><extensions><gom:speed>0.712</gom:speed></extensions></trkpt>
   <trkpt lat="59.0701802468" lon="30.0254717026"><ele>103.453</ele><time>2026-04-20T18:09:39.476Z</time><hdop>6.5</hdop><vdop>6.125</vdop><extensions><gom:speed>0.778</gom:speed></extensions></trkpt>
   <trkpt lat="59.0701737508" lon="30.0254749716"><ele>103.659</ele><time>2026-04-20T18:09:40.075Z</time><hdop>6.375</hdop><vdop>6.375</vdop><extensions><gom:speed>0.79</gom:speed></extensions></trkpt>
   <trkpt lat="59.070163944" lon="30.0254811742"><ele>103.906</ele><time>2026-04-20T18:09:41.076Z</time><hdop>6.25</hdop><vdop>6.25</vdop><extensions><gom:speed>0.746</gom:speed></extensions></trkpt>
   <trkpt lat="59.0701595435" lon="30.0254860357"><ele>104.054</ele><time>2026-04-20T18:09:41.843Z</time><hdop>6.0</hdop><vdop>6.25</vdop><extensions><gom:speed>0.73</gom:speed></extensions></trkpt>
   <trkpt lat="59.0701507425" lon="30.0254955072"><ele>103.93</ele><time>2026-04-20T18:09:42.379Z</time><hdop>5.875</hdop><vdop>6.125</vdop><extensions><gom:speed>0.737</gom:speed></extensions></trkpt>
   <trkpt lat="59.0701453362" lon="30.0255014584"><ele>103.635</ele><time>2026-04-20T18:09:43.075Z</time><hdop>5.875</hdop><vdop>5.875</vdop><extensions><gom:speed>0.736</gom:speed></extensions></trkpt>
   <trkpt lat="59.070137541" lon="30.0255103432"><ele>103.321</ele><time>2026-04-20T18:09:44.075Z</time><hdop>5.875</hdop><vdop>5.75</vdop><extensions><gom:speed>0.681</gom:speed></extensions></trkpt>
   <trkpt lat="59.0701314222" lon="30.0255198148"><ele>103.11</ele><time>2026-04-20T18:09:45.075Z</time><hdop>5.875</hdop><vdop>6.0</vdop><extensions><gom:speed>0.582</gom:speed></extensions></trkpt>
   <trkpt lat="59.0701285305" lon="30.0255256821"><ele>102.984</ele><time>2026-04-20T18:09:45.678Z</time><hdop>5.75</hdop><vdop>6.0</vdop><extensions><gom:speed>0.587</gom:speed></extensions></trkpt>
   <trkpt lat="59.0701246329" lon="30.0255330582"><ele>103.05</ele><time>2026-04-20T18:09:46.495Z</time><hdop>5.75</hdop><vdop>6.25</vdop><extensions><gom:speed>0.614</gom:speed></extensions></trkpt>
   <trkpt lat="59.0701207353" lon="30.0255381711"><ele>103.129</ele><time>2026-04-20T18:09:47.075Z</time><hdop>5.75</hdop><vdop>6.5</vdop><extensions><gom:speed>0.615</gom:speed></extensions></trkpt>
   <trkpt lat="59.0701148261" lon="30.0255458825"><ele>103.187</ele><time>2026-04-20T18:09:48.004Z</time><hdop>5.625</hdop><vdop>6.5</vdop><extensions><gom:speed>0.629</gom:speed></extensions></trkpt>
   <trkpt lat="59.0701113476" lon="30.0255494867"><ele>103.221</ele><time>2026-04-20T18:09:48.598Z</time><hdop>5.625</hdop><vdop>6.5</vdop><extensions><gom:speed>0.648</gom:speed></extensions></trkpt>
   <trkpt lat="59.0701060251" lon="30.0255540967"><ele>103.2</ele><time>2026-04-20T18:09:49.418Z</time><hdop>5.75</hdop><vdop>6.5</vdop><extensions><gom:speed>0.68</gom:speed></extensions></trkpt>
   <trkpt lat="59.0701015407" lon="30.025556276"><ele>103.264</ele><time>2026-04-20T18:09:50.076Z</time><hdop>5.75</hdop><vdop>6.375</vdop><extensions><gom:speed>0.667</gom:speed></extensions></trkpt>
   <trkpt lat="59.0700948352" lon="30.025560467"><ele>103.334</ele><time>2026-04-20T18:09:50.965Z</time><hdop>5.75</hdop><vdop>6.125</vdop><extensions><gom:speed>0.689</gom:speed></extensions></trkpt>
   <trkpt lat="59.070092153" lon="30.0255628139"><ele>103.377</ele><time>2026-04-20T18:09:51.422Z</time><hdop>5.75</hdop><vdop>6.125</vdop><extensions><gom:speed>0.701</gom:speed></extensions></trkpt>
   <trkpt lat="59.0700880459" lon="30.0255666696"><ele>103.444</ele><time>2026-04-20T18:09:52.032Z</time><hdop>5.875</hdop><vdop>5.875</vdop><extensions><gom:speed>0.688</gom:speed></extensions></trkpt>
   <trkpt lat="59.0700819271" lon="30.025572956"><ele>103.465</ele><time>2026-04-20T18:09:52.980Z</time><hdop>6.0</hdop><vdop>5.5</vdop><extensions><gom:speed>0.686</gom:speed></extensions></trkpt>
   <trkpt lat="59.0700797478" lon="30.0255761412"><ele>103.478</ele><time>2026-04-20T18:09:53.455Z</time><hdop>6.125</hdop><vdop>5.5</vdop><extensions><gom:speed>0.649</gom:speed></extensions></trkpt>
   <trkpt lat="59.0700767303" lon="30.0255801645"><ele>103.477</ele><time>2026-04-20T18:09:54.046Z</time><hdop>6.25</hdop><vdop>5.5</vdop><extensions><gom:speed>0.647</gom:speed></extensions></trkpt>
   <trkpt lat="59.0700715335" lon="30.0255820085"><ele>103.477</ele><time>2026-04-20T18:09:55.016Z</time><hdop>6.375</hdop><vdop>5.5</vdop><extensions><gom:speed>0.564</gom:speed></extensions></trkpt>
   <trkpt lat="59.0700688513" lon="30.0255799968"><ele>103.542</ele><time>2026-04-20T18:09:55.941Z</time><hdop>6.625</hdop><vdop>5.5</vdop><extensions><gom:speed>0.417</gom:speed></extensions></trkpt>
   <trkpt lat="59.0700726232" lon="30.0255754706"><ele>103.672</ele><time>2026-04-20T18:09:57.075Z</time><hdop>6.75</hdop><vdop>5.5</vdop><extensions><gom:speed>0.278</gom:speed></extensions></trkpt>
   <trkpt lat="59.0700742576" lon="30.0255761412"><ele>103.75</ele><time>2026-04-20T18:09:58.078Z</time><hdop>6.875</hdop><vdop>5.5</vdop><extensions><gom:speed>0.174</gom:speed></extensions></trkpt>
   <trkpt lat="59.0700753473" lon="30.0255768955"><ele>103.817</ele><time>2026-04-20T18:09:59.021Z</time><hdop>6.875</hdop><vdop>5.5</vdop><extensions><gom:speed>0.126</gom:speed></extensions></trkpt>
   <trkpt lat="59.0700758502" lon="30.0255784881"><ele>103.856</ele><time>2026-04-20T18:09:59.942Z</time><hdop>6.875</hdop><vdop>5.5</vdop><extensions><gom:speed>0.124</gom:speed></extensions></trkpt>
   <trkpt lat="59.0700765208" lon="30.0255794101"><ele>103.88</ele><time>2026-04-20T18:10:00.443Z</time><hdop>6.875</hdop><vdop>5.625</vdop><extensions><gom:speed>0.121</gom:speed></extensions></trkpt>
   <trkpt lat="59.0700756407" lon="30.0255806674"><ele>103.894</ele><time>2026-04-20T18:10:01.078Z</time><hdop>6.875</hdop><vdop>5.625</vdop><extensions><gom:speed>0.151</gom:speed></extensions></trkpt>
   <trkpt lat="59.0700751377" lon="30.0255818408"><ele>103.898</ele><time>2026-04-20T18:10:01.982Z</time><hdop>6.875</hdop><vdop>5.875</vdop><extensions><gom:speed>0.157</gom:speed></extensions></trkpt>
   <trkpt lat="59.0700737547" lon="30.0255834334"><ele>103.904</ele><time>2026-04-20T18:10:03.048Z</time><hdop>7.0</hdop><vdop>5.875</vdop><extensions><gom:speed>0.214</gom:speed></extensions></trkpt>
   <trkpt lat="59.0700727489" lon="30.0255851098"><ele>103.908</ele><time>2026-04-20T18:10:03.713Z</time><hdop>7.0</hdop><vdop>5.875</vdop><extensions><gom:speed>0.235</gom:speed></extensions></trkpt>
   <trkpt lat="59.0700705277" lon="30.0255853612"><ele>103.91</ele><time>2026-04-20T18:10:04.944Z</time><hdop>7.25</hdop><vdop>6.125</vdop><extensions><gom:speed>0.222</gom:speed></extensions></trkpt>
   <trkpt lat="59.0700709468" lon="30.0255853612"><ele>103.911</ele><time>2026-04-20T18:10:05.835Z</time><hdop>7.375</hdop><vdop>6.125</vdop><extensions><gom:speed>0.179</gom:speed></extensions></trkpt>
   <trkpt lat="59.0700715335" lon="30.0255853612"><ele>103.912</ele><time>2026-04-20T18:10:06.655Z</time><hdop>7.5</hdop><vdop>6.125</vdop><extensions><gom:speed>0.161</gom:speed></extensions></trkpt>
   <trkpt lat="59.0700709468" lon="30.0255854451"><ele>103.903</ele><time>2026-04-20T18:10:07.642Z</time><hdop>7.625</hdop><vdop>6.125</vdop><extensions><gom:speed>0.209</gom:speed></extensions></trkpt>
   <trkpt lat="59.0700686418" lon="30.0255853612"><ele>103.9</ele><time>2026-04-20T18:10:08.619Z</time><hdop>7.75</hdop><vdop>6.0</vdop><extensions><gom:speed>0.284</gom:speed></extensions></trkpt>
   <trkpt lat="59.0700640317" lon="30.0255894684"><ele>103.914</ele><time>2026-04-20T18:10:10.039Z</time><hdop>7.875</hdop><vdop>5.375</vdop><extensions><gom:speed>0.334</gom:speed></extensions></trkpt>
   <trkpt lat="59.0700608466" lon="30.0255913124"><ele>103.923</ele><time>2026-04-20T18:10:10.692Z</time><hdop>8.0</hdop><vdop>5.375</vdop><extensions><gom:speed>0.393</gom:speed></extensions></trkpt>
   <trkpt lat="59.0700580387" lon="30.0255942461"><ele>104.096</ele><time>2026-04-20T18:10:12.075Z</time><hdop>7.875</hdop><vdop>2.875</vdop><extensions><gom:speed>0.395</gom:speed></extensions></trkpt>
   <trkpt lat="59.0700576196" lon="30.0255942461"><ele>104.2</ele><time>2026-04-20T18:10:12.763Z</time><hdop>7.75</hdop><vdop>2.875</vdop><extensions><gom:speed>0.365</gom:speed></extensions></trkpt>
   <trkpt lat="59.0700506207" lon="30.0255999458"><ele>104.371</ele><time>2026-04-20T18:10:13.882Z</time><hdop>7.25</hdop><vdop>2.5</vdop><extensions><gom:speed>0.332</gom:speed></extensions></trkpt>
   <trkpt lat="59.0700440409" lon="30.0256077409"><ele>103.645</ele><time>2026-04-20T18:10:14.838Z</time><hdop>6.75</hdop><vdop>2.5</vdop><extensions><gom:speed>0.391</gom:speed></extensions></trkpt>
   <trkpt lat="59.0700352399" lon="30.0256172125"><ele>102.92</ele><time>2026-04-20T18:10:15.856Z</time><hdop>6.0</hdop><vdop>2.5</vdop><extensions><gom:speed>0.47</gom:speed></extensions></trkpt>
   <trkpt lat="59.0700257264" lon="30.0256241695"><ele>102.231</ele><time>2026-04-20T18:10:16.813Z</time><hdop>5.625</hdop><vdop>2.5</vdop><extensions><gom:speed>0.495</gom:speed></extensions></trkpt>
   <trkpt lat="59.0700154167" lon="30.0256325514"><ele>101.569</ele><time>2026-04-20T18:10:17.781Z</time><hdop>5.5</hdop><vdop>5.5</vdop><extensions><gom:speed>0.578</gom:speed></extensions></trkpt>
   <trkpt lat="59.0700058194" lon="30.0256419391"><ele>101.075</ele><time>2026-04-20T18:10:18.699Z</time><hdop>5.375</hdop><vdop>5.375</vdop><extensions><gom:speed>0.594</gom:speed></extensions></trkpt>
   <trkpt lat="59.0699956354" lon="30.0256528356"><ele>100.79</ele><time>2026-04-20T18:10:19.695Z</time><hdop>5.25</hdop><vdop>5.375</vdop><extensions><gom:speed>0.595</gom:speed></extensions></trkpt>
   <trkpt lat="59.0699880498" lon="30.0256654084"><ele>100.465</ele><time>2026-04-20T18:10:20.860Z</time><hdop>5.125</hdop><vdop>5.375</vdop><extensions><gom:speed>0.608</gom:speed></extensions></trkpt>
   <trkpt lat="59.0699827273" lon="30.0256752152"><ele>100.213</ele><time>2026-04-20T18:10:21.996Z</time><hdop>5.125</hdop><vdop>5.125</vdop><extensions><gom:speed>0.593</gom:speed></extensions></trkpt>
   <trkpt lat="59.0699769437" lon="30.0256826751"><ele>100.05</ele><time>2026-04-20T18:10:22.756Z</time><hdop>5.25</hdop><vdop>5.0</vdop><extensions><gom:speed>0.616</gom:speed></extensions></trkpt>
   <trkpt lat="59.0699723337" lon="30.025695248"><ele>99.875</ele><time>2026-04-20T18:10:23.772Z</time><hdop>5.375</hdop><vdop>5.0</vdop><extensions><gom:speed>0.695</gom:speed></extensions></trkpt>
   <trkpt lat="59.0699671369" lon="30.0257097487"><ele>99.782</ele><time>2026-04-20T18:10:24.999Z</time><hdop>5.5</hdop><vdop>5.0</vdop><extensions><gom:speed>0.681</gom:speed></extensions></trkpt>
   <trkpt lat="59.0699588388" lon="30.0257148617"><ele>99.668</ele><time>2026-04-20T18:10:25.934Z</time><hdop>5.75</hdop><vdop>4.875</vdop><extensions><gom:speed>0.625</gom:speed></extensions></trkpt>
   <trkpt lat="59.0699534325" lon="30.0257153646"><ele>99.665</ele><time>2026-04-20T18:10:27.060Z</time><hdop>5.875</hdop><vdop>4.875</vdop><extensions><gom:speed>0.597</gom:speed></extensions></trkpt>
   <trkpt lat="59.0699486548" lon="30.0257123471"><ele>99.708</ele><time>2026-04-20T18:10:27.941Z</time><hdop>6.0</hdop><vdop>5.0</vdop><extensions><gom:speed>0.516</gom:speed></extensions></trkpt>
   <trkpt lat="59.0699440448" lon="30.0257100001"><ele>99.787</ele><time>2026-04-20T18:10:28.992Z</time><hdop>6.0</hdop><vdop>5.25</vdop><extensions><gom:speed>0.469</gom:speed></extensions></trkpt>
   <trkpt lat="59.0699396443" lon="30.0257072341"><ele>99.834</ele><time>2026-04-20T18:10:29.953Z</time><hdop>6.125</hdop><vdop>5.25</vdop><extensions><gom:speed>0.5</gom:speed></extensions></trkpt>
   <trkpt lat="59.0699350342" lon="30.0257038814"><ele>99.854</ele><time>2026-04-20T18:10:31.041Z</time><hdop>6.125</hdop><vdop>5.625</vdop><extensions><gom:speed>0.469</gom:speed></extensions></trkpt>
   <trkpt lat="59.0699290412" lon="30.0256991037"><ele>99.852</ele><time>2026-04-20T18:10:32.055Z</time><hdop>6.125</hdop><vdop>5.75</vdop><extensions><gom:speed>0.49</gom:speed></extensions></trkpt>
   <trkpt lat="59.0699262332" lon="30.0256982655"><ele>99.868</ele><time>2026-04-20T18:10:32.777Z</time><hdop>6.25</hdop><vdop>5.875</vdop><extensions><gom:speed>0.503</gom:speed></extensions></trkpt>
   <trkpt lat="59.0699219165" lon="30.0256984331"><ele>99.88</ele><time>2026-04-20T18:10:33.595Z</time><hdop>6.375</hdop><vdop>6.0</vdop><extensions><gom:speed>0.559</gom:speed></extensions></trkpt>
   <trkpt lat="59.06991475" lon="30.0257015344"><ele>99.88</ele><time>2026-04-20T18:10:35.034Z</time><hdop>6.625</hdop><vdop>6.0</vdop><extensions><gom:speed>0.497</gom:speed></extensions></trkpt>
   <trkpt lat="59.0699132413" lon="30.025706815"><ele>99.88</ele><time>2026-04-20T18:10:35.982Z</time><hdop>7.0</hdop><vdop>6.125</vdop><extensions><gom:speed>0.373</gom:speed></extensions></trkpt>
   <trkpt lat="59.0699134508" lon="30.0257115927"><ele>99.879</ele><time>2026-04-20T18:10:37.048Z</time><hdop>7.125</hdop><vdop>6.125</vdop><extensions><gom:speed>0.287</gom:speed></extensions></trkpt>
   <trkpt lat="59.0699150434" lon="30.0257116765"><ele>99.878</ele><time>2026-04-20T18:10:37.522Z</time><hdop>7.25</hdop><vdop>6.125</vdop><extensions><gom:speed>0.254</gom:speed></extensions></trkpt>
   <trkpt lat="59.0699152529" lon="30.0257147778"><ele>99.877</ele><time>2026-04-20T18:10:37.996Z</time><hdop>7.375</hdop><vdop>6.25</vdop><extensions><gom:speed>0.222</gom:speed></extensions></trkpt>
   <trkpt lat="59.0699173484" lon="30.0257141073"><ele>99.875</ele><time>2026-04-20T18:10:38.943Z</time><hdop>7.625</hdop><vdop>6.25</vdop><extensions><gom:speed>0.155</gom:speed></extensions></trkpt>
   <trkpt lat="59.0699185219" lon="30.0257149455"><ele>100.975</ele><time>2026-04-20T18:10:40.075Z</time><hdop>7.5</hdop><vdop>4.375</vdop><extensions><gom:speed>0.14</gom:speed></extensions></trkpt>
   <trkpt lat="59.0699157559" lon="30.0257206452"><ele>101.665</ele><time>2026-04-20T18:10:41.075Z</time><hdop>7.25</hdop><vdop>3.75</vdop><extensions><gom:speed>0.179</gom:speed></extensions></trkpt>
   <trkpt lat="59.0699085474" lon="30.0257317093"><ele>102.645</ele><time>2026-04-20T18:10:42.076Z</time><hdop>7.0</hdop><vdop>3.25</vdop><extensions><gom:speed>0.27</gom:speed></extensions></trkpt>
   <trkpt lat="59.0698976509" lon="30.0257485569"><ele>103.318</ele><time>2026-04-20T18:10:43.076Z</time><hdop>6.625</hdop><vdop>3.0</vdop><extensions><gom:speed>0.34</gom:speed></extensions></trkpt>
   <trkpt lat="59.0698928313" lon="30.0257555139"><ele>103.72</ele><time>2026-04-20T18:10:43.682Z</time><hdop>6.375</hdop><vdop>3.0</vdop><extensions><gom:speed>0.369</gom:speed></extensions></trkpt>
   <trkpt lat="59.0698765285" lon="30.025781414"><ele>103.521</ele><time>2026-04-20T18:10:44.415Z</time><hdop>6.0</hdop><vdop>2.75</vdop><extensions><gom:speed>0.54</gom:speed></extensions></trkpt>
   <trkpt lat="59.0698668474" lon="30.0257959147"><ele>103.245</ele><time>2026-04-20T18:10:45.076Z</time><hdop>6.0</hdop><vdop>2.5</vdop><extensions><gom:speed>0.58</gom:speed></extensions></trkpt>
   <trkpt lat="59.0698517181" lon="30.0258136843"><ele>102.713</ele><time>2026-04-20T18:10:46.076Z</time><hdop>5.75</hdop><vdop>2.5</vdop><extensions><gom:speed>0.656</gom:speed></extensions></trkpt>
   <trkpt lat="59.0698390195" lon="30.0258234911"><ele>101.951</ele><time>2026-04-20T18:10:47.075Z</time><hdop>5.5</hdop><vdop>2.5</vdop><extensions><gom:speed>0.643</gom:speed></extensions></trkpt>
   <trkpt lat="59.0698338227" lon="30.0258267601"><ele>101.496</ele><time>2026-04-20T18:10:47.594Z</time><hdop>5.375</hdop><vdop>2.5</vdop><extensions><gom:speed>0.662</gom:speed></extensions></trkpt>
   <trkpt lat="59.0698279554" lon="30.0258317892"><ele>101.087</ele><time>2026-04-20T18:10:48.075Z</time><hdop>5.25</hdop><vdop>2.5</vdop><extensions><gom:speed>0.68</gom:speed></extensions></trkpt>
   <trkpt lat="59.0698175199" lon="30.0258432724"><ele>100.617</ele><time>2026-04-20T18:10:49.076Z</time><hdop>5.0</hdop><vdop>2.5</vdop><extensions><gom:speed>0.704</gom:speed></extensions></trkpt>
   <trkpt lat="59.0698131194" lon="30.0258489721"><ele>100.336</ele><time>2026-04-20T18:10:49.737Z</time><hdop>4.875</hdop><vdop>2.5</vdop><extensions><gom:speed>0.655</gom:speed></extensions></trkpt>
   <trkpt lat="59.0698044442" lon="30.0258622993"><ele>100.084</ele><time>2026-04-20T18:10:50.576Z</time><hdop>4.75</hdop><vdop>2.5</vdop><extensions><gom:speed>0.707</gom:speed></extensions></trkpt>
   <trkpt lat="59.0698004209" lon="30.0258695916"><ele>99.982</ele><time>2026-04-20T18:10:51.075Z</time><hdop>4.75</hdop><vdop>2.5</vdop><extensions><gom:speed>0.703</gom:speed></extensions></trkpt>
   <trkpt lat="59.0697973196" lon="30.0258753751"><ele>99.922</ele><time>2026-04-20T18:10:51.536Z</time><hdop>4.75</hdop><vdop>2.5</vdop><extensions><gom:speed>0.729</gom:speed></extensions></trkpt>
   <trkpt lat="59.0697931286" lon="30.0258847628"><ele>99.823</ele><time>2026-04-20T18:10:52.075Z</time><hdop>4.75</hdop><vdop>2.5</vdop><extensions><gom:speed>0.728</gom:speed></extensions></trkpt>
   <trkpt lat="59.0697843276" lon="30.0259006884"><ele>99.331</ele><time>2026-04-20T18:10:53.075Z</time><hdop>4.75</hdop><vdop>2.5</vdop><extensions><gom:speed>0.817</gom:speed></extensions></trkpt>
   <trkpt lat="59.0697805558" lon="30.0259087351"><ele>99.038</ele><time>2026-04-20T18:10:53.615Z</time><hdop>4.75</hdop><vdop>2.5</vdop><extensions><gom:speed>0.75</gom:speed></extensions></trkpt>
   <trkpt lat="59.0697753171" lon="30.0259174523"><ele>98.798</ele><time>2026-04-20T18:10:54.076Z</time><hdop>4.75</hdop><vdop>2.5</vdop><extensions><gom:speed>0.784</gom:speed></extensions></trkpt>
   <trkpt lat="59.0697719224" lon="30.0259257503"><ele>98.654</ele><time>2026-04-20T18:10:54.653Z</time><hdop>4.75</hdop><vdop>2.5</vdop><extensions><gom:speed>0.684</gom:speed></extensions></trkpt>
   <trkpt lat="59.0697612355" lon="30.0259482138"><ele>98.556</ele><time>2026-04-20T18:10:56.075Z</time><hdop>4.625</hdop><vdop>2.5</vdop><extensions><gom:speed>0.578</gom:speed></extensions></trkpt>
   <trkpt lat="59.0697550329" lon="30.0259576854"><ele>98.082</ele><time>2026-04-20T18:10:57.075Z</time><hdop>4.625</hdop><vdop>2.5</vdop><extensions><gom:speed>0.465</gom:speed></extensions></trkpt>
   <trkpt lat="59.0697476568" lon="30.0259615411"><ele>97.681</ele><time>2026-04-20T18:10:58.075Z</time><hdop>4.5</hdop><vdop>2.5</vdop><extensions><gom:speed>0.442</gom:speed></extensions></trkpt>
   <trkpt lat="59.0697409513" lon="30.0259643071"><ele>97.299</ele><time>2026-04-20T18:10:59.075Z</time><hdop>4.375</hdop><vdop>2.5</vdop><extensions><gom:speed>0.455</gom:speed></extensions></trkpt>
   <trkpt lat="59.0697314378" lon="30.0259697553"><ele>96.785</ele><time>2026-04-20T18:11:00.076Z</time><hdop>4.25</hdop><vdop>2.5</vdop><extensions><gom:speed>0.48</gom:speed></extensions></trkpt>
   <trkpt lat="59.0697283365" lon="30.0259705935"><ele>96.478</ele><time>2026-04-20T18:11:00.558Z</time><hdop>4.25</hdop><vdop>2.5</vdop><extensions><gom:speed>0.42</gom:speed></extensions></trkpt>
   <trkpt lat="59.0697209185" lon="30.0259726052"><ele>96.062</ele><time>2026-04-20T18:11:01.076Z</time><hdop>4.25</hdop><vdop>2.5</vdop><extensions><gom:speed>0.508</gom:speed></extensions></trkpt>
   <trkpt lat="59.0697163504" lon="30.0259721023"><ele>95.814</ele><time>2026-04-20T18:11:01.682Z</time><hdop>4.25</hdop><vdop>2.5</vdop><extensions><gom:speed>0.431</gom:speed></extensions></trkpt>
   <trkpt lat="59.0697033165" lon="30.0259744492"><ele>95.757</ele><time>2026-04-20T18:11:02.737Z</time><hdop>4.25</hdop><vdop>2.625</vdop><extensions><gom:speed>0.475</gom:speed></extensions></trkpt>
   <trkpt lat="59.0696875166" lon="30.0259747845"><ele>94.663</ele><time>2026-04-20T18:11:04.076Z</time><hdop>4.375</hdop><vdop>2.5</vdop><extensions><gom:speed>0.431</gom:speed></extensions></trkpt>
   <trkpt lat="59.0696810207" lon="30.0259742816"><ele>94.009</ele><time>2026-04-20T18:11:04.881Z</time><hdop>4.5</hdop><vdop>2.5</vdop><extensions><gom:speed>0.404</gom:speed></extensions></trkpt>
   <trkpt lat="59.0696689507" lon="30.0259752036"><ele>93.571</ele><time>2026-04-20T18:11:06.076Z</time><hdop>4.5</hdop><vdop>2.5</vdop><extensions><gom:speed>0.469</gom:speed></extensions></trkpt>
   <trkpt lat="59.0696614489" lon="30.0259772152"><ele>93.189</ele><time>2026-04-20T18:11:07.075Z</time><hdop>4.5</hdop><vdop>2.5</vdop><extensions><gom:speed>0.431</gom:speed></extensions></trkpt>
   <trkpt lat="59.0696538214" lon="30.0259804003"><ele>92.827</ele><time>2026-04-20T18:11:08.076Z</time><hdop>4.5</hdop><vdop>2.5</vdop><extensions><gom:speed>0.45</gom:speed></extensions></trkpt>
   <trkpt lat="59.0696469482" lon="30.025986603"><ele>92.655</ele><time>2026-04-20T18:11:09.076Z</time><hdop>4.5</hdop><vdop>2.5</vdop><extensions><gom:speed>0.468</gom:speed></extensions></trkpt>
   <trkpt lat="59.0696415419" lon="30.0259933085"><ele>92.534</ele><time>2026-04-20T18:11:10.075Z</time><hdop>4.5</hdop><vdop>2.5</vdop><extensions><gom:speed>0.393</gom:speed></extensions></trkpt>
   <trkpt lat="59.0696366385" lon="30.0259980023"><ele>92.722</ele><time>2026-04-20T18:11:11.075Z</time><hdop>4.5</hdop><vdop>2.5</vdop><extensions><gom:speed>0.335</gom:speed></extensions></trkpt>
   <trkpt lat="59.0696335372" lon="30.0260013551"><ele>92.941</ele><time>2026-04-20T18:11:12.075Z</time><hdop>4.5</hdop><vdop>2.5</vdop><extensions><gom:speed>0.275</gom:speed></extensions></trkpt>
   <trkpt lat="59.0696314417" lon="30.0260039535"><ele>93.072</ele><time>2026-04-20T18:11:13.035Z</time><hdop>4.625</hdop><vdop>2.5</vdop><extensions><gom:speed>0.255</gom:speed></extensions></trkpt>
   <trkpt lat="59.0696274184" lon="30.026009737"><ele>93.082</ele><time>2026-04-20T18:11:13.932Z</time><hdop>4.625</hdop><vdop>2.5</vdop><extensions><gom:speed>0.345</gom:speed></extensions></trkpt>
   <trkpt lat="59.0696224311" lon="30.0260218908"><ele>93.123</ele><time>2026-04-20T18:11:15.079Z</time><hdop>4.625</hdop><vdop>2.5</vdop><extensions><gom:speed>0.416</gom:speed></extensions></trkpt>
   <trkpt lat="59.0696173182" lon="30.0260353018"><ele>92.813</ele><time>2026-04-20T18:11:16.075Z</time><hdop>4.625</hdop><vdop>2.5</vdop><extensions><gom:speed>0.409</gom:speed></extensions></trkpt>
   <trkpt lat="59.0696159352" lon="30.0260394089"><ele>92.627</ele><time>2026-04-20T18:11:16.615Z</time><hdop>4.75</hdop><vdop>2.5</vdop><extensions><gom:speed>0.426</gom:speed></extensions></trkpt>
   <trkpt lat="59.0696125405" lon="30.0260487967"><ele>92.71</ele><time>2026-04-20T18:11:17.075Z</time><hdop>4.75</hdop><vdop>2.5</vdop><extensions><gom:speed>0.436</gom:speed></extensions></trkpt>
   <trkpt lat="59.0696101517" lon="30.0260520656"><ele>92.673</ele><time>2026-04-20T18:11:18.075Z</time><hdop>4.875</hdop><vdop>2.5</vdop><extensions><gom:speed>0.314</gom:speed></extensions></trkpt>
   <trkpt lat="59.069609523" lon="30.0260505569"><ele>92.65</ele><time>2026-04-20T18:11:18.859Z</time><hdop>4.875</hdop><vdop>2.5</vdop><extensions><gom:speed>0.237</gom:speed></extensions></trkpt>
   <trkpt lat="59.0696085172" lon="30.026051898"><ele>92.645</ele><time>2026-04-20T18:11:19.639Z</time><hdop>5.0</hdop><vdop>2.5</vdop><extensions><gom:speed>0.192</gom:speed></extensions></trkpt>
   <trkpt lat="59.0696064217" lon="30.026056508"><ele>92.427</ele><time>2026-04-20T18:11:20.459Z</time><hdop>4.875</hdop><vdop>2.5</vdop><extensions><gom:speed>0.236</gom:speed></extensions></trkpt>
   <trkpt lat="59.069604452" lon="30.0260610343"><ele>92.121</ele><time>2026-04-20T18:11:21.076Z</time><hdop>4.875</hdop><vdop>2.5</vdop><extensions><gom:speed>0.27</gom:speed></extensions></trkpt>
   <trkpt lat="59.0696046196" lon="30.0260629621"><ele>91.938</ele><time>2026-04-20T18:11:21.841Z</time><hdop>4.875</hdop><vdop>2.5</vdop><extensions><gom:speed>0.195</gom:speed></extensions></trkpt>
   <trkpt lat="59.0696029432" lon="30.0260677398"><ele>91.799</ele><time>2026-04-20T18:11:22.412Z</time><hdop>4.875</hdop><vdop>2.5</vdop><extensions><gom:speed>0.259</gom:speed></extensions></trkpt>
   <trkpt lat="59.0696003448" lon="30.0260746129"><ele>91.646</ele><time>2026-04-20T18:11:23.075Z</time><hdop>4.75</hdop><vdop>2.5</vdop><extensions><gom:speed>0.271</gom:speed></extensions></trkpt>
   <trkpt lat="59.0695990456" lon="30.0260780495"><ele>91.45</ele><time>2026-04-20T18:11:24.075Z</time><hdop>4.75</hdop><vdop>2.5</vdop><extensions><gom:speed>0.221</gom:speed></extensions></trkpt>
   <trkpt lat="59.0695986265" lon="30.0260794744"><ele>91.333</ele><time>2026-04-20T18:11:24.841Z</time><hdop>4.75</hdop><vdop>2.5</vdop><extensions><gom:speed>0.145</gom:speed></extensions></trkpt>
   <trkpt lat="59.0695969502" lon="30.0260840845"><ele>91.218</ele><time>2026-04-20T18:11:25.740Z</time><hdop>4.625</hdop><vdop>2.5</vdop><extensions><gom:speed>0.139</gom:speed></extensions></trkpt>
   <trkpt lat="59.0695941422" lon="30.0260886107"><ele>91.17</ele><time>2026-04-20T18:11:26.777Z</time><hdop>4.5</hdop><vdop>2.5</vdop><extensions><gom:speed>0.152</gom:speed></extensions></trkpt>
   <trkpt lat="59.0695908314" lon="30.0260922988"><ele>91.216</ele><time>2026-04-20T18:11:27.595Z</time><hdop>4.5</hdop><vdop>2.5</vdop><extensions><gom:speed>0.185</gom:speed></extensions></trkpt>
   <trkpt lat="59.0695879396" lon="30.0260954839"><ele>91.367</ele><time>2026-04-20T18:11:28.076Z</time><hdop>4.5</hdop><vdop>2.5</vdop><extensions><gom:speed>0.239</gom:speed></extensions></trkpt>
   <trkpt lat="59.069584042" lon="30.0261007645"><ele>91.457</ele><time>2026-04-20T18:11:28.936Z</time><hdop>4.5</hdop><vdop>2.5</vdop><extensions><gom:speed>0.362</gom:speed></extensions></trkpt>
   <trkpt lat="59.0695684517" lon="30.0261220545"><ele>91.738</ele><time>2026-04-20T18:11:30.075Z</time><hdop>4.625</hdop><vdop>2.5</vdop><extensions><gom:speed>0.671</gom:speed></extensions></trkpt>
   <trkpt lat="59.0695626263" lon="30.0261344597"><ele>91.906</ele><time>2026-04-20T18:11:30.971Z</time><hdop>4.625</hdop><vdop>2.5</vdop><extensions><gom:speed>0.673</gom:speed></extensions></trkpt>
   <trkpt lat="59.0695560465" lon="30.0261498824"><ele>91.882</ele><time>2026-04-20T18:11:31.900Z</time><hdop>4.625</hdop><vdop>2.5</vdop><extensions><gom:speed>0.673</gom:speed></extensions></trkpt>
   <trkpt lat="59.0695509335" lon="30.0261651375"><ele>91.542</ele><time>2026-04-20T18:11:32.720Z</time><hdop>4.625</hdop><vdop>2.5</vdop><extensions><gom:speed>0.673</gom:speed></extensions></trkpt>
   <trkpt lat="59.0695453176" lon="30.0261770398"><ele>91.209</ele><time>2026-04-20T18:11:33.459Z</time><hdop>4.5</hdop><vdop>2.5</vdop><extensions><gom:speed>0.619</gom:speed></extensions></trkpt>
   <trkpt lat="59.0695413362" lon="30.0261861761"><ele>90.851</ele><time>2026-04-20T18:11:34.075Z</time><hdop>4.5</hdop><vdop>2.5</vdop><extensions><gom:speed>0.637</gom:speed></extensions></trkpt>
   <trkpt lat="59.0695389474" lon="30.0261907861"><ele>90.636</ele><time>2026-04-20T18:11:34.576Z</time><hdop>4.375</hdop><vdop>2.5</vdop><extensions><gom:speed>0.566</gom:speed></extensions></trkpt>
   <trkpt lat="59.0695357204" lon="30.0261971564"><ele>90.45</ele><time>2026-04-20T18:11:35.075Z</time><hdop>4.375</hdop><vdop>2.5</vdop><extensions><gom:speed>0.574</gom:speed></extensions></trkpt>
   <trkpt lat="59.0695288472" lon="30.026209813"><ele>90.036</ele><time>2026-04-20T18:11:36.075Z</time><hdop>4.25</hdop><vdop>2.5</vdop><extensions><gom:speed>0.574</gom:speed></extensions></trkpt>
   <trkpt lat="59.0695239438" lon="30.026217692"><ele>89.513</ele><time>2026-04-20T18:11:37.075Z</time><hdop>4.25</hdop><vdop>2.75</vdop><extensions><gom:speed>0.5</gom:speed></extensions></trkpt>
   <trkpt lat="59.0695191242" lon="30.026227415"><ele>89.052</ele><time>2026-04-20T18:11:38.075Z</time><hdop>4.25</hdop><vdop>2.625</vdop><extensions><gom:speed>0.491</gom:speed></extensions></trkpt>
   <trkpt lat="59.0695154362" lon="30.0262373895"><ele>88.719</ele><time>2026-04-20T18:11:39.075Z</time><hdop>4.25</hdop><vdop>2.625</vdop><extensions><gom:speed>0.405</gom:speed></extensions></trkpt>
   <trkpt lat="59.0695146399" lon="30.0262414966"><ele>88.52</ele><time>2026-04-20T18:11:39.719Z</time><hdop>4.25</hdop><vdop>2.625</vdop><extensions><gom:speed>0.347</gom:speed></extensions></trkpt>
   <trkpt lat="59.0695133407" lon="30.0262509682"><ele>88.169</ele><time>2026-04-20T18:11:40.558Z</time><hdop>4.25</hdop><vdop>7.875</vdop><extensions><gom:speed>0.371</gom:speed></extensions></trkpt>
   <trkpt lat="59.0695131311" lon="30.0262551591"><ele>88.024</ele><time>2026-04-20T18:11:41.019Z</time><hdop>4.375</hdop><vdop>7.875</vdop><extensions><gom:speed>0.375</gom:speed></extensions></trkpt>
   <trkpt lat="59.0695131311" lon="30.0262577575"><ele>87.937</ele><time>2026-04-20T18:11:41.495Z</time><hdop>4.375</hdop><vdop>7.875</vdop><extensions><gom:speed>0.297</gom:speed></extensions></trkpt>
   <trkpt lat="59.069512251" lon="30.0262612779"><ele>87.785</ele><time>2026-04-20T18:11:42.075Z</time><hdop>4.5</hdop><vdop>8.0</vdop><extensions><gom:speed>0.31</gom:speed></extensions></trkpt>
   <trkpt lat="59.0695100298" lon="30.0262663071"><ele>87.63</ele><time>2026-04-20T18:11:43.033Z</time><hdop>4.5</hdop><vdop>7.875</vdop><extensions><gom:speed>0.323</gom:speed></extensions></trkpt>
   <trkpt lat="59.0695093174" lon="30.0262685702"><ele>87.537</ele><time>2026-04-20T18:11:43.521Z</time><hdop>4.625</hdop><vdop>7.875</vdop><extensions><gom:speed>0.328</gom:speed></extensions></trkpt>
   <trkpt lat="59.0695084373" lon="30.0262712524"><ele>87.543</ele><time>2026-04-20T18:11:43.981Z</time><hdop>4.625</hdop><vdop>8.0</vdop><extensions><gom:speed>0.328</gom:speed></extensions></trkpt>
   <trkpt lat="59.0695060484" lon="30.0262792152"><ele>87.553</ele><time>2026-04-20T18:11:45.047Z</time><hdop>4.875</hdop><vdop>8.0</vdop><extensions><gom:speed>0.405</gom:speed></extensions></trkpt>
   <trkpt lat="59.069506258" lon="30.0262886029"><ele>87.489</ele><time>2026-04-20T18:11:46.075Z</time><hdop>5.0</hdop><vdop>7.625</vdop><extensions><gom:speed>0.449</gom:speed></extensions></trkpt>
   <trkpt lat="59.0695079344" lon="30.0262953084"><ele>87.476</ele><time>2026-04-20T18:11:46.942Z</time><hdop>5.25</hdop><vdop>7.125</vdop><extensions><gom:speed>0.457</gom:speed></extensions></trkpt>
   <trkpt lat="59.0695075572" lon="30.0263010081"><ele>87.469</ele><time>2026-04-20T18:11:47.416Z</time><hdop>5.25</hdop><vdop>7.125</vdop><extensions><gom:speed>0.493</gom:speed></extensions></trkpt>
   <trkpt lat="59.0695058389" lon="30.0263157603"><ele>87.369</ele><time>2026-04-20T18:11:48.010Z</time><hdop>5.5</hdop><vdop>6.875</vdop><extensions><gom:speed>0.579</gom:speed></extensions></trkpt>
   <trkpt lat="59.06949884" lon="30.0263228849"><ele>87.306</ele><time>2026-04-20T18:11:48.956Z</time><hdop>5.875</hdop><vdop>6.625</vdop><extensions><gom:speed>0.669</gom:speed></extensions></trkpt>
   <trkpt lat="59.0694944395" lon="30.0263200351"><ele>87.268</ele><time>2026-04-20T18:11:49.681Z</time><hdop>6.125</hdop><vdop>6.625</vdop><extensions><gom:speed>0.649</gom:speed></extensions></trkpt>
   <trkpt lat="59.0694910448" lon="30.0263098091"><ele>87.304</ele><time>2026-04-20T18:11:50.756Z</time><hdop>6.25</hdop><vdop>6.5</vdop><extensions><gom:speed>0.605</gom:speed></extensions></trkpt>
   <trkpt lat="59.0694874406" lon="30.0263015111"><ele>87.427</ele><time>2026-04-20T18:11:52.000Z</time><hdop>6.375</hdop><vdop>6.25</vdop><extensions><gom:speed>0.469</gom:speed></extensions></trkpt>
   <trkpt lat="59.0694916316" lon="30.0262930453"><ele>87.492</ele><time>2026-04-20T18:11:52.762Z</time><hdop>6.375</hdop><vdop>6.0</vdop><extensions><gom:speed>0.389</gom:speed></extensions></trkpt>
   <trkpt lat="59.069489117" lon="30.0262898602"><ele>87.507</ele><time>2026-04-20T18:11:53.717Z</time><hdop>6.25</hdop><vdop>6.0</vdop><extensions><gom:speed>0.497</gom:speed></extensions></trkpt>
   <trkpt lat="59.0694833335" lon="30.0262888544"><ele>87.49</ele><time>2026-04-20T18:11:54.695Z</time><hdop>6.125</hdop><vdop>6.125</vdop><extensions><gom:speed>0.55</gom:speed></extensions></trkpt>
   <trkpt lat="59.0694829563" lon="30.0262851663"><ele>87.471</ele><time>2026-04-20T18:11:55.743Z</time><hdop>6.125</hdop><vdop>6.0</vdop><extensions><gom:speed>0.542</gom:speed></extensions></trkpt>
   <trkpt lat="59.0694793521" lon="30.026282568"><ele>87.456</ele><time>2026-04-20T18:11:56.525Z</time><hdop>6.0</hdop><vdop>6.0</vdop><extensions><gom:speed>0.606</gom:speed></extensions></trkpt>
   <trkpt lat="59.0694763346" lon="30.0262806401"><ele>87.444</ele><time>2026-04-20T18:11:57.012Z</time><hdop>5.875</hdop><vdop>6.125</vdop><extensions><gom:speed>0.619</gom:speed></extensions></trkpt>
   <trkpt lat="59.0694732333" lon="30.0262796343"><ele>87.436</ele><time>2026-04-20T18:11:57.521Z</time><hdop>5.875</hdop><vdop>6.125</vdop><extensions><gom:speed>0.633</gom:speed></extensions></trkpt>
   <trkpt lat="59.0694677431" lon="30.0262785446"><ele>87.427</ele><time>2026-04-20T18:11:58.377Z</time><hdop>6.0</hdop><vdop>6.125</vdop><extensions><gom:speed>0.638</gom:speed></extensions></trkpt>
   <trkpt lat="59.0694629235" lon="30.026278377"><ele>87.425</ele><time>2026-04-20T18:11:59.026Z</time><hdop>6.0</hdop><vdop>6.25</vdop><extensions><gom:speed>0.655</gom:speed></extensions></trkpt>
   <trkpt lat="59.0694586488" lon="30.026278377"><ele>87.424</ele><time>2026-04-20T18:11:59.855Z</time><hdop>6.0</hdop><vdop>6.25</vdop><extensions><gom:speed>0.729</gom:speed></extensions></trkpt>
   <trkpt lat="59.0694475427" lon="30.0262788799"><ele>87.438</ele><time>2026-04-20T18:12:00.974Z</time><hdop>6.125</hdop><vdop>6.25</vdop><extensions><gom:speed>0.738</gom:speed></extensions></trkpt>
   <trkpt lat="59.0694504345" lon="30.0262675643"><ele>88.959</ele><time>2026-04-20T18:12:01.922Z</time><hdop>6.125</hdop><vdop>5.25</vdop><extensions><gom:speed>0.695</gom:speed></extensions></trkpt>
   <trkpt lat="59.0694605347" lon="30.0262565002"><ele>91.783</ele><time>2026-04-20T18:12:03.075Z</time><hdop>6.125</hdop><vdop>3.5</vdop><extensions><gom:speed>0.542</gom:speed></extensions></trkpt>
   <trkpt lat="59.0694610376" lon="30.0262542371"><ele>93.47</ele><time>2026-04-20T18:12:03.738Z</time><hdop>6.0</hdop><vdop>3.5</vdop><extensions><gom:speed>0.486</gom:speed></extensions></trkpt>
   <trkpt lat="59.0694647256" lon="30.0262464419"><ele>94.518</ele><time>2026-04-20T18:12:04.912Z</time><hdop>5.75</hdop><vdop>3.375</vdop><extensions><gom:speed>0.394</gom:speed></extensions></trkpt>
   <trkpt lat="59.0694686232" lon="30.0262388982"><ele>95.212</ele><time>2026-04-20T18:12:05.919Z</time><hdop>5.5</hdop><vdop>3.25</vdop><extensions><gom:speed>0.338</gom:speed></extensions></trkpt>
   <trkpt lat="59.0694736524" lon="30.0262308516"><ele>95.403</ele><time>2026-04-20T18:12:07.075Z</time><hdop>4.875</hdop><vdop>3.375</vdop><extensions><gom:speed>0.3</gom:speed></extensions></trkpt>
   <trkpt lat="59.0694748258" lon="30.0262269121"><ele>95.702</ele><time>2026-04-20T18:12:08.075Z</time><hdop>4.75</hdop><vdop>8.75</vdop><extensions><gom:speed>0.26</gom:speed></extensions></trkpt>
   <trkpt lat="59.0694746163" lon="30.0262265768"><ele>95.799</ele><time>2026-04-20T18:12:08.977Z</time><hdop>4.5</hdop><vdop>8.75</vdop><extensions><gom:speed>0.229</gom:speed></extensions></trkpt>
   <trkpt lat="59.0694744486" lon="30.0262282532"><ele>95.857</ele><time>2026-04-20T18:12:09.552Z</time><hdop>4.5</hdop><vdop>8.75</vdop><extensions><gom:speed>0.21</gom:speed></extensions></trkpt>
   <trkpt lat="59.06947382" lon="30.0262295105"><ele>95.789</ele><time>2026-04-20T18:12:10.043Z</time><hdop>4.5</hdop><vdop>8.25</vdop><extensions><gom:speed>0.238</gom:speed></extensions></trkpt>
   <trkpt lat="59.0694743229" lon="30.0262290914"><ele>95.647</ele><time>2026-04-20T18:12:11.075Z</time><hdop>4.5</hdop><vdop>8.125</vdop><extensions><gom:speed>0.201</gom:speed></extensions></trkpt>
   <trkpt lat="59.0694745325" lon="30.0262240623"><ele>95.562</ele><time>2026-04-20T18:12:12.080Z</time><hdop>4.625</hdop><vdop>8.125</vdop><extensions><gom:speed>0.255</gom:speed></extensions></trkpt>
   <trkpt lat="59.0694749516" lon="30.0262176082"><ele>95.683</ele><time>2026-04-20T18:12:12.978Z</time><hdop>4.625</hdop><vdop>8.125</vdop><extensions><gom:speed>0.319</gom:speed></extensions></trkpt>
   <trkpt lat="59.0694755383" lon="30.0262093101"><ele>95.958</ele><time>2026-04-20T18:12:13.778Z</time><hdop>4.875</hdop><vdop>8.25</vdop><extensions><gom:speed>0.394</gom:speed></extensions></trkpt>
   <trkpt lat="59.0694730237" lon="30.0262022693"><ele>96.256</ele><time>2026-04-20T18:12:14.538Z</time><hdop>4.875</hdop><vdop>8.25</vdop><extensions><gom:speed>0.518</gom:speed></extensions></trkpt>
   <trkpt lat="59.0694712216" lon="30.0261966534"><ele>96.547</ele><time>2026-04-20T18:12:15.076Z</time><hdop>5.0</hdop><vdop>8.375</vdop><extensions><gom:speed>0.522</gom:speed></extensions></trkpt>
   <trkpt lat="59.0694691261" lon="30.0261940551"><ele>96.721</ele><time>2026-04-20T18:12:15.534Z</time><hdop>5.0</hdop><vdop>8.375</vdop><extensions><gom:speed>0.512</gom:speed></extensions></trkpt>
   <trkpt lat="59.0694641389" lon="30.0261908699"><ele>96.784</ele><time>2026-04-20T18:12:16.453Z</time><hdop>5.25</hdop><vdop>8.375</vdop><extensions><gom:speed>0.555</gom:speed></extensions></trkpt>
   <trkpt lat="59.0694618339" lon="30.0261881039"><ele>96.646</ele><time>2026-04-20T18:12:17.076Z</time><hdop>5.25</hdop><vdop>8.5</vdop><extensions><gom:speed>0.553</gom:speed></extensions></trkpt>
   <trkpt lat="59.0694597384" lon="30.0261855055"><ele>96.563</ele><time>2026-04-20T18:12:17.599Z</time><hdop>5.25</hdop><vdop>8.5</vdop><extensions><gom:speed>0.536</gom:speed></extensions></trkpt>
   <trkpt lat="59.0694574334" lon="30.0261805602"><ele>96.611</ele><time>2026-04-20T18:12:18.402Z</time><hdop>5.375</hdop><vdop>8.125</vdop><extensions><gom:speed>0.484</gom:speed></extensions></trkpt>
   <trkpt lat="59.0694541225" lon="30.0261756149"><ele>96.593</ele><time>2026-04-20T18:12:19.047Z</time><hdop>5.5</hdop><vdop>7.75</vdop><extensions><gom:speed>0.492</gom:speed></extensions></trkpt>
   <trkpt lat="59.0694530329" lon="30.026174609"><ele>96.409</ele><time>2026-04-20T18:12:20.075Z</time><hdop>5.625</hdop><vdop>7.25</vdop><extensions><gom:speed>0.449</gom:speed></extensions></trkpt>
   <trkpt lat="59.0694521528" lon="30.0261748605"><ele>96.299</ele><time>2026-04-20T18:12:20.579Z</time><hdop>5.625</hdop><vdop>7.25</vdop><extensions><gom:speed>0.417</gom:speed></extensions></trkpt>
   <trkpt lat="59.0694522366" lon="30.0261746929"><ele>94.553</ele><time>2026-04-20T18:12:21.075Z</time><hdop>5.625</hdop><vdop>5.5</vdop><extensions><gom:speed>0.416</gom:speed></extensions></trkpt>
   <trkpt lat="59.0694501411" lon="30.0261743576"><ele>93.533</ele><time>2026-04-20T18:12:22.075Z</time><hdop>5.625</hdop><vdop>4.375</vdop><extensions><gom:speed>0.412</gom:speed></extensions></trkpt>
   <trkpt lat="59.0694480457" lon="30.0261739385"><ele>92.923</ele><time>2026-04-20T18:12:22.741Z</time><hdop>5.625</hdop><vdop>4.375</vdop><extensions><gom:speed>0.387</gom:speed></extensions></trkpt>
   <trkpt lat="59.0694453215" lon="30.0261744414"><ele>92.546</ele><time>2026-04-20T18:12:23.898Z</time><hdop>5.5</hdop><vdop>3.625</vdop><extensions><gom:speed>0.324</gom:speed></extensions></trkpt>
   <trkpt lat="59.0694440223" lon="30.0261759501"><ele>92.563</ele><time>2026-04-20T18:12:24.615Z</time><hdop>5.375</hdop><vdop>3.375</vdop><extensions><gom:speed>0.336</gom:speed></extensions></trkpt>
   <trkpt lat="59.069439538" lon="30.0261775427"><ele>92.943</ele><time>2026-04-20T18:12:25.075Z</time><hdop>5.25</hdop><vdop>3.0</vdop><extensions><gom:speed>0.36</gom:speed></extensions></trkpt>
   <trkpt lat="59.0694362272" lon="30.0261775427"><ele>93.171</ele><time>2026-04-20T18:12:25.635Z</time><hdop>5.125</hdop><vdop>3.0</vdop><extensions><gom:speed>0.452</gom:speed></extensions></trkpt>
   <trkpt lat="59.0694289349" lon="30.0261765369"><ele>93.285</ele><time>2026-04-20T18:12:26.494Z</time><hdop>5.125</hdop><vdop>3.0</vdop><extensions><gom:speed>0.564</gom:speed></extensions></trkpt>
   <trkpt lat="59.069424241" lon="30.0261754472"><ele>93.22</ele><time>2026-04-20T18:12:27.075Z</time><hdop>5.125</hdop><vdop>3.125</vdop><extensions><gom:speed>0.565</gom:speed></extensions></trkpt>
   <trkpt lat="59.0694128417" lon="30.0261754472"><ele>93.443</ele><time>2026-04-20T18:12:28.076Z</time><hdop>5.0</hdop><vdop>3.0</vdop><extensions><gom:speed>0.735</gom:speed></extensions></trkpt>
   <trkpt lat="59.0694016518" lon="30.0261837453"><ele>93.07</ele><time>2026-04-20T18:12:29.075Z</time><hdop>5.0</hdop><vdop>2.875</vdop><extensions><gom:speed>0.745</gom:speed></extensions></trkpt>
   <trkpt lat="59.0693936471" lon="30.026192211"><ele>92.847</ele><time>2026-04-20T18:12:29.958Z</time><hdop>4.875</hdop><vdop>2.875</vdop><extensions><gom:speed>0.802</gom:speed></extensions></trkpt>
   <trkpt lat="59.0693846366" lon="30.0262041972"><ele>92.605</ele><time>2026-04-20T18:12:30.857Z</time><hdop>4.875</hdop><vdop>2.875</vdop><extensions><gom:speed>0.794</gom:speed></extensions></trkpt>
   <trkpt lat="59.0693769252" lon="30.0262178597"><ele>92.726</ele><time>2026-04-20T18:12:31.716Z</time><hdop>4.875</hdop><vdop>2.875</vdop><extensions><gom:speed>0.744</gom:speed></extensions></trkpt>
   <trkpt lat="59.069370555" lon="30.0262312707"><ele>93.333</ele><time>2026-04-20T18:12:32.456Z</time><hdop>4.875</hdop><vdop>2.875</vdop><extensions><gom:speed>0.772</gom:speed></extensions></trkpt>
   <trkpt lat="59.0693648553" lon="30.0262432568"><ele>93.556</ele><time>2026-04-20T18:12:33.075Z</time><hdop>4.75</hdop><vdop>3.0</vdop><extensions><gom:speed>0.835</gom:speed></extensions></trkpt>
   <trkpt lat="59.0693602452" lon="30.0262523931"><ele>93.689</ele><time>2026-04-20T18:12:33.763Z</time><hdop>4.75</hdop><vdop>3.0</vdop><extensions><gom:speed>0.715</gom:speed></extensions></trkpt>
   <trkpt lat="59.0693526177" lon="30.0262647983"><ele>93.543</ele><time>2026-04-20T18:12:34.757Z</time><hdop>4.75</hdop><vdop>3.125</vdop><extensions><gom:speed>0.674</gom:speed></extensions></trkpt>
   <trkpt lat="59.069345535" lon="30.0262718391"><ele>93.016</ele><time>2026-04-20T18:12:35.536Z</time><hdop>4.625</hdop><vdop>2.75</vdop><extensions><gom:speed>0.653</gom:speed></extensions></trkpt>
   <trkpt lat="59.0693403382" lon="30.0262754433"><ele>92.5</ele><time>2026-04-20T18:12:36.075Z</time><hdop>4.625</hdop><vdop>2.625</vdop><extensions><gom:speed>0.67</gom:speed></extensions></trkpt>
   <trkpt lat="59.069335351" lon="30.026277455"><ele>92.192</ele><time>2026-04-20T18:12:36.935Z</time><hdop>4.625</hdop><vdop>2.625</vdop><extensions><gom:speed>0.707</gom:speed></extensions></trkpt>
   <trkpt lat="59.0693261309" lon="30.0262813107"><ele>92.152</ele><time>2026-04-20T18:12:37.520Z</time><hdop>4.625</hdop><vdop>2.5</vdop><extensions><gom:speed>0.666</gom:speed></extensions></trkpt>
   <trkpt lat="59.0693208503" lon="30.0262834061"><ele>91.737</ele><time>2026-04-20T18:12:38.075Z</time><hdop>4.625</hdop><vdop>2.5</vdop><extensions><gom:speed>0.696</gom:speed></extensions></trkpt>
   <trkpt lat="59.0693172461" lon="30.0262845796"><ele>91.489</ele><time>2026-04-20T18:12:38.556Z</time><hdop>4.625</hdop><vdop>2.5</vdop><extensions><gom:speed>0.652</gom:speed></extensions></trkpt>
   <trkpt lat="59.0693109177" lon="30.0262881"><ele>91.022</ele><time>2026-04-20T18:12:39.075Z</time><hdop>4.625</hdop><vdop>2.5</vdop><extensions><gom:speed>0.736</gom:speed></extensions></trkpt>
   <trkpt lat="59.0693068525" lon="30.0262924586"><ele>90.743</ele><time>2026-04-20T18:12:39.653Z</time><hdop>4.625</hdop><vdop>2.5</vdop><extensions><gom:speed>0.619</gom:speed></extensions></trkpt>
   <trkpt lat="59.0693000212" lon="30.0263012596"><ele>90.353</ele><time>2026-04-20T18:12:40.417Z</time><hdop>4.625</hdop><vdop>2.5</vdop><extensions><gom:speed>0.6</gom:speed></extensions></trkpt>
   <trkpt lat="59.0692937348" lon="30.0263086357"><ele>89.647</ele><time>2026-04-20T18:12:41.076Z</time><hdop>4.5</hdop><vdop>2.625</vdop><extensions><gom:speed>0.644</gom:speed></extensions></trkpt>
   <trkpt lat="59.0692853529" lon="30.0263217953"><ele>89.164</ele><time>2026-04-20T18:12:42.076Z</time><hdop>4.625</hdop><vdop>2.5</vdop><extensions><gom:speed>0.654</gom:speed></extensions></trkpt>
   <trkpt lat="59.069276049" lon="30.0263362121"><ele>88.881</ele><time>2026-04-20T18:12:43.075Z</time><hdop>4.625</hdop><vdop>2.5</vdop><extensions><gom:speed>0.738</gom:speed></extensions></trkpt>
   <trkpt lat="59.0692661164" lon="30.0263519701"><ele>88.675</ele><time>2026-04-20T18:12:44.075Z</time><hdop>4.625</hdop><vdop>2.5</vdop><extensions><gom:speed>0.754</gom:speed></extensions></trkpt>
   <trkpt lat="59.0692611292" lon="30.0263647944"><ele>88.783</ele><time>2026-04-20T18:12:45.075Z</time><hdop>4.625</hdop><vdop>2.5</vdop><extensions><gom:speed>0.638</gom:speed></extensions></trkpt>
   <trkpt lat="59.0692583213" lon="30.0263757747"><ele>88.856</ele><time>2026-04-20T18:12:46.075Z</time><hdop>4.625</hdop><vdop>2.5</vdop><extensions><gom:speed>0.56</gom:speed></extensions></trkpt>
   <trkpt lat="59.0692557229" lon="30.0263841566"><ele>88.899</ele><time>2026-04-20T18:12:47.077Z</time><hdop>4.625</hdop><vdop>2.5</vdop><extensions><gom:speed>0.547</gom:speed></extensions></trkpt>
   <trkpt lat="59.0692505261" lon="30.026393712"><ele>89.005</ele><time>2026-04-20T18:12:47.916Z</time><hdop>4.625</hdop><vdop>2.5</vdop><extensions><gom:speed>0.635</gom:speed></extensions></trkpt>
   <trkpt lat="59.069242228" lon="30.0264048599"><ele>89.406</ele><time>2026-04-20T18:12:49.002Z</time><hdop>4.625</hdop><vdop>7.375</vdop><extensions><gom:speed>0.644</gom:speed></extensions></trkpt>
   <trkpt lat="59.0692344329" lon="30.0264101405"><ele>89.586</ele><time>2026-04-20T18:12:49.980Z</time><hdop>4.75</hdop><vdop>7.625</vdop><extensions><gom:speed>0.617</gom:speed></extensions></trkpt>
   <trkpt lat="59.0692284398" lon="30.0264093023"><ele>89.605</ele><time>2026-04-20T18:12:50.897Z</time><hdop>4.875</hdop><vdop>7.5</vdop><extensions><gom:speed>0.629</gom:speed></extensions></trkpt>
   <trkpt lat="59.0692229496" lon="30.0264120684"><ele>89.504</ele><time>2026-04-20T18:12:51.896Z</time><hdop>5.0</hdop><vdop>7.375</vdop><extensions><gom:speed>0.603</gom:speed></extensions></trkpt>
   <trkpt lat="59.069218633" lon="30.026412236"><ele>89.373</ele><time>2026-04-20T18:12:52.713Z</time><hdop>5.125</hdop><vdop>7.375</vdop><extensions><gom:speed>0.582</gom:speed></extensions></trkpt>
   <trkpt lat="59.0692126399" lon="30.0264135771"><ele>89.191</ele><time>2026-04-20T18:12:53.701Z</time><hdop>5.25</hdop><vdop>7.375</vdop><extensions><gom:speed>0.615</gom:speed></extensions></trkpt>
   <trkpt lat="59.0692053476" lon="30.0264165108"><ele>89.136</ele><time>2026-04-20T18:12:54.896Z</time><hdop>5.5</hdop><vdop>7.0</vdop><extensions><gom:speed>0.603</gom:speed></extensions></trkpt>
   <trkpt lat="59.0692030426" lon="30.0264170137"><ele>88.982</ele><time>2026-04-20T18:12:55.534Z</time><hdop>5.625</hdop><vdop>6.875</vdop><extensions><gom:speed>0.627</gom:speed></extensions></trkpt>
   <trkpt lat="59.0691970496" lon="30.0264188577"><ele>88.875</ele><time>2026-04-20T18:12:56.075Z</time><hdop>5.75</hdop><vdop>6.875</vdop><extensions><gom:speed>0.637</gom:speed></extensions></trkpt>
   <trkpt lat="59.0691930262" lon="30.0264204503"><ele>88.811</ele><time>2026-04-20T18:12:56.800Z</time><hdop>5.75</hdop><vdop>6.875</vdop><extensions><gom:speed>0.682</gom:speed></extensions></trkpt>
   <trkpt lat="59.0691879552" lon="30.0264231325"><ele>88.681</ele><time>2026-04-20T18:12:57.601Z</time><hdop>6.0</hdop><vdop>6.375</vdop><extensions><gom:speed>0.736</gom:speed></extensions></trkpt>
   <trkpt lat="59.0691830518" lon="30.026426569"><ele>88.819</ele><time>2026-04-20T18:12:58.281Z</time><hdop>6.125</hdop><vdop>6.125</vdop><extensions><gom:speed>0.73</gom:speed></extensions></trkpt>
   <trkpt lat="59.0691774359" lon="30.0264303409"><ele>88.907</ele><time>2026-04-20T18:12:58.970Z</time><hdop>6.25</hdop><vdop>5.875</vdop><extensions><gom:speed>0.763</gom:speed></extensions></trkpt>
   <trkpt lat="59.0691713171" lon="30.026434448"><ele>88.959</ele><time>2026-04-20T18:12:59.801Z</time><hdop>6.375</hdop><vdop>5.875</vdop><extensions><gom:speed>0.811</gom:speed></extensions></trkpt>
   <trkpt lat="59.0691693474" lon="30.0264348671"><ele>89.103</ele><time>2026-04-20T18:13:00.663Z</time><hdop>6.5</hdop><vdop>5.625</vdop><extensions><gom:speed>0.806</gom:speed></extensions></trkpt>
   <trkpt lat="59.0691642344" lon="30.0264357053"><ele>89.188</ele><time>2026-04-20T18:13:01.481Z</time><hdop>6.5</hdop><vdop>5.5</vdop><extensions><gom:speed>0.766</gom:speed></extensions></trkpt>
   <trkpt lat="59.0691574451" lon="30.0264346995"><ele>89.265</ele><time>2026-04-20T18:13:02.050Z</time><hdop>6.625</hdop><vdop>5.5</vdop><extensions><gom:speed>0.761</gom:speed></extensions></trkpt>
   <trkpt lat="59.0691523321" lon="30.0264324364"><ele>89.284</ele><time>2026-04-20T18:13:02.999Z</time><hdop>6.75</hdop><vdop>5.625</vdop><extensions><gom:speed>0.72</gom:speed></extensions></trkpt>
   <trkpt lat="59.0691472191" lon="30.0264284969"><ele>89.289</ele><time>2026-04-20T18:13:03.945Z</time><hdop>6.75</hdop><vdop>6.0</vdop><extensions><gom:speed>0.655</gom:speed></extensions></trkpt>
   <trkpt lat="59.0691423576" lon="30.0264260661"><ele>89.307</ele><time>2026-04-20T18:13:05.012Z</time><hdop>6.875</hdop><vdop>6.125</vdop><extensions><gom:speed>0.624</gom:speed></extensions></trkpt>
   <trkpt lat="59.0691372447" lon="30.0264241383"><ele>89.314</ele><time>2026-04-20T18:13:05.959Z</time><hdop>7.125</hdop><vdop>6.375</vdop><extensions><gom:speed>0.602</gom:speed></extensions></trkpt>
   <trkpt lat="59.0691314193" lon="30.0264246412"><ele>89.323</ele><time>2026-04-20T18:13:07.026Z</time><hdop>7.5</hdop><vdop>6.5</vdop><extensions><gom:speed>0.565</gom:speed></extensions></trkpt>
   <trkpt lat="59.06912924" lon="30.0264255632"><ele>89.329</ele><time>2026-04-20T18:13:07.855Z</time><hdop>7.625</hdop><vdop>6.5</vdop><extensions><gom:speed>0.547</gom:speed></extensions></trkpt>
   <trkpt lat="59.0691225344" lon="30.0264310115"><ele>89.339</ele><time>2026-04-20T18:13:08.599Z</time><hdop>8.125</hdop><vdop>6.625</vdop><extensions><gom:speed>0.569</gom:speed></extensions></trkpt>
   <trkpt lat="59.0691208162" lon="30.0264348671"><ele>89.374</ele><time>2026-04-20T18:13:09.162Z</time><hdop>8.25</hdop><vdop>6.75</vdop><extensions><gom:speed>0.574</gom:speed></extensions></trkpt>
   <trkpt lat="59.0691173377" lon="30.0264405668"><ele>89.395</ele><time>2026-04-20T18:13:09.987Z</time><hdop>8.375</hdop><vdop>6.625</vdop><extensions><gom:speed>0.552</gom:speed></extensions></trkpt>
   <trkpt lat="59.0691125181" lon="30.0264436681"><ele>89.46</ele><time>2026-04-20T18:13:10.935Z</time><hdop>8.625</hdop><vdop>6.375</vdop><extensions><gom:speed>0.523</gom:speed></extensions></trkpt>
   <trkpt lat="59.0691079499" lon="30.0264455122"><ele>89.518</ele><time>2026-04-20T18:13:12.001Z</time><hdop>9.0</hdop><vdop>6.25</vdop><extensions><gom:speed>0.51</gom:speed></extensions></trkpt>
   <trkpt lat="59.0691059383" lon="30.0264452607"><ele>89.553</ele><time>2026-04-20T18:13:12.458Z</time><hdop>9.25</hdop><vdop>6.25</vdop><extensions><gom:speed>0.492</gom:speed></extensions></trkpt>
   <trkpt lat="59.0691032561" lon="30.0264450931"><ele>89.589</ele><time>2026-04-20T18:13:12.949Z</time><hdop>9.25</hdop><vdop>6.0</vdop><extensions><gom:speed>0.491</gom:speed></extensions></trkpt>
   <trkpt lat="59.0690985203" lon="30.0264460151"><ele>89.614</ele><time>2026-04-20T18:13:14.015Z</time><hdop>9.625</hdop><vdop>5.875</vdop><extensions><gom:speed>0.491</gom:speed></extensions></trkpt>
   <trkpt lat="59.0691036333" lon="30.0264436681"><ele>89.949</ele><time>2026-04-20T18:13:15.075Z</time><hdop>9.875</hdop><vdop>4.625</vdop><extensions><gom:speed>0.5</gom:speed></extensions></trkpt>
   <trkpt lat="59.0691070279" lon="30.0264419079"><ele>90.149</ele><time>2026-04-20T18:13:15.541Z</time><hdop>9.875</hdop><vdop>4.625</vdop><extensions><gom:speed>0.515</gom:speed></extensions></trkpt>
   <trkpt lat="59.0691142364" lon="30.0264403154"><ele>90.3</ele><time>2026-04-20T18:13:16.075Z</time><hdop>9.75</hdop><vdop>4.125</vdop><extensions><gom:speed>0.463</gom:speed></extensions></trkpt>
   <trkpt lat="59.0691216543" lon="30.0264405668"><ele>91.263</ele><time>2026-04-20T18:13:17.075Z</time><hdop>9.5</hdop><vdop>3.625</vdop><extensions><gom:speed>0.401</gom:speed></extensions></trkpt>
   <trkpt lat="59.0691268511" lon="30.0264457636"><ele>92.594</ele><time>2026-04-20T18:13:18.076Z</time><hdop>9.125</hdop><vdop>3.125</vdop><extensions><gom:speed>0.282</gom:speed></extensions></trkpt>
   <trkpt lat="59.0691301201" lon="30.0264484458"><ele>93.017</ele><time>2026-04-20T18:13:19.075Z</time><hdop>8.5</hdop><vdop>2.875</vdop><extensions><gom:speed>0.161</gom:speed></extensions></trkpt>
   <trkpt lat="59.0691299524" lon="30.0264455122"><ele>93.376</ele><time>2026-04-20T18:13:20.075Z</time><hdop>7.625</hdop><vdop>5.375</vdop><extensions><gom:speed>0.133</gom:speed></extensions></trkpt>
   <trkpt lat="59.0691275217" lon="30.0264430814"><ele>93.811</ele><time>2026-04-20T18:13:21.075Z</time><hdop>6.625</hdop><vdop>5.375</vdop><extensions><gom:speed>0.076</gom:speed></extensions></trkpt>
   <trkpt lat="59.0691247556" lon="30.0264415727"><ele>94.223</ele><time>2026-04-20T18:13:22.075Z</time><hdop>6.125</hdop><vdop>5.5</vdop><extensions><gom:speed>0.079</gom:speed></extensions></trkpt>
   <trkpt lat="59.0691215286" lon="30.0264419918"><ele>94.682</ele><time>2026-04-20T18:13:23.075Z</time><hdop>5.75</hdop><vdop>5.625</vdop><extensions><gom:speed>0.074</gom:speed></extensions></trkpt>
   <trkpt lat="59.0691205228" lon="30.0264420756"><ele>95.059</ele><time>2026-04-20T18:13:23.966Z</time><hdop>5.375</hdop><vdop>5.375</vdop><extensions><gom:speed>0.06</gom:speed></extensions></trkpt>
   <trkpt lat="59.0691172538" lon="30.0264425785"><ele>95.327</ele><time>2026-04-20T18:13:25.075Z</time><hdop>5.0</hdop><vdop>5.25</vdop><extensions><gom:speed>0.088</gom:speed></extensions></trkpt>
   <trkpt lat="59.0691157451" lon="30.0264420756"><ele>95.49</ele><time>2026-04-20T18:13:25.980Z</time><hdop>4.875</hdop><vdop>5.25</vdop><extensions><gom:speed>0.119</gom:speed></extensions></trkpt>
   <trkpt lat="59.0691157451" lon="30.0264424947"><ele>95.587</ele><time>2026-04-20T18:13:26.454Z</time><hdop>4.875</hdop><vdop>5.25</vdop><extensions><gom:speed>0.114</gom:speed></extensions></trkpt>
   <trkpt lat="59.0691149488" lon="30.0264426623"><ele>95.79</ele><time>2026-04-20T18:13:27.046Z</time><hdop>4.875</hdop><vdop>5.25</vdop><extensions><gom:speed>0.138</gom:speed></extensions></trkpt>
   <trkpt lat="59.069111638" lon="30.0264440034"><ele>95.931</ele><time>2026-04-20T18:13:28.075Z</time><hdop>4.875</hdop><vdop>5.25</vdop><extensions><gom:speed>0.156</gom:speed></extensions></trkpt>
   <trkpt lat="59.0691091234" lon="30.0264448416"><ele>95.837</ele><time>2026-04-20T18:13:28.942Z</time><hdop>4.875</hdop><vdop>5.375</vdop><extensions><gom:speed>0.198</gom:speed></extensions></trkpt>
   <trkpt lat="59.069107447" lon="30.0264453445"><ele>95.602</ele><time>2026-04-20T18:13:30.009Z</time><hdop>4.875</hdop><vdop>5.625</vdop><extensions><gom:speed>0.204</gom:speed></extensions></trkpt>
   <trkpt lat="59.0691071537" lon="30.0264452607"><ele>95.461</ele><time>2026-04-20T18:13:30.517Z</time><hdop>5.0</hdop><vdop>5.625</vdop><extensions><gom:speed>0.203</gom:speed></extensions></trkpt>
   <trkpt lat="59.0691050163" lon="30.0264461827"><ele>95.175</ele><time>2026-04-20T18:13:31.075Z</time><hdop>5.0</hdop><vdop>5.625</vdop><extensions><gom:speed>0.22</gom:speed></extensions></trkpt>
   <trkpt lat="59.0691023341" lon="30.0264471885"><ele>95.054</ele><time>2026-04-20T18:13:32.022Z</time><hdop>5.0</hdop><vdop>5.625</vdop><extensions><gom:speed>0.232</gom:speed></extensions></trkpt>
   <trkpt lat="59.0691012444" lon="30.0264476076"><ele>94.982</ele><time>2026-04-20T18:13:32.615Z</time><hdop>5.0</hdop><vdop>5.625</vdop><extensions><gom:speed>0.253</gom:speed></extensions></trkpt>
   <trkpt lat="59.069096341" lon="30.0264477753"><ele>94.885</ele><time>2026-04-20T18:13:33.715Z</time><hdop>5.125</hdop><vdop>5.75</vdop><extensions><gom:speed>0.328</gom:speed></extensions></trkpt>
   <trkpt lat="59.0690910185" lon="30.0264495355"><ele>94.682</ele><time>2026-04-20T18:13:34.701Z</time><hdop>5.25</hdop><vdop>5.875</vdop><extensions><gom:speed>0.386</gom:speed></extensions></trkpt>
   <trkpt lat="59.0690867437" lon="30.026452972"><ele>94.431</ele><time>2026-04-20T18:13:35.776Z</time><hdop>5.375</hdop><vdop>6.0</vdop><extensions><gom:speed>0.435</gom:speed></extensions></trkpt>
   <trkpt lat="59.0690822175" lon="30.0264554866"><ele>94.303</ele><time>2026-04-20T18:13:36.872Z</time><hdop>5.625</hdop><vdop>6.0</vdop><extensions><gom:speed>0.402</gom:speed></extensions></trkpt>
   <trkpt lat="59.0690791162" lon="30.0264552352"><ele>94.243</ele><time>2026-04-20T18:13:37.573Z</time><hdop>5.875</hdop><vdop>6.0</vdop><extensions><gom:speed>0.425</gom:speed></extensions></trkpt>
   <trkpt lat="59.0690746319" lon="30.0264513795"><ele>94.16</ele><time>2026-04-20T18:13:38.758Z</time><hdop>6.125</hdop><vdop>6.0</vdop><extensions><gom:speed>0.447</gom:speed></extensions></trkpt>
   <trkpt lat="59.0690708181" lon="30.0264467694"><ele>94.147</ele><time>2026-04-20T18:13:39.618Z</time><hdop>6.375</hdop><vdop>6.0</vdop><extensions><gom:speed>0.47</gom:speed></extensions></trkpt>
   <trkpt lat="59.0690678425" lon="30.0264455122"><ele>94.16</ele><time>2026-04-20T18:13:40.459Z</time><hdop>6.625</hdop><vdop>6.375</vdop><extensions><gom:speed>0.47</gom:speed></extensions></trkpt>
   <trkpt lat="59.0690650346" lon="30.0264445901"><ele>94.205</ele><time>2026-04-20T18:13:41.026Z</time><hdop>6.75</hdop><vdop>6.25</vdop><extensions><gom:speed>0.477</gom:speed></extensions></trkpt>
   <trkpt lat="59.0690609275" lon="30.0264416565"><ele>94.231</ele><time>2026-04-20T18:13:41.916Z</time><hdop>7.0</hdop><vdop>6.25</vdop><extensions><gom:speed>0.479</gom:speed></extensions></trkpt>
   <trkpt lat="59.0690596283" lon="30.0264421594"><ele>95.631</ele><time>2026-04-20T18:13:43.075Z</time><hdop>7.125</hdop><vdop>5.25</vdop><extensions><gom:speed>0.455</gom:speed></extensions></trkpt>
   <trkpt lat="59.0690551439" lon="30.0264430814"><ele>94.765</ele><time>2026-04-20T18:13:44.075Z</time><hdop>7.0</hdop><vdop>4.5</vdop><extensions><gom:speed>0.428</gom:speed></extensions></trkpt>
   <trkpt lat="59.0690510368" lon="30.0264450931"><ele>94.248</ele><time>2026-04-20T18:13:44.957Z</time><hdop>6.875</hdop><vdop>4.5</vdop><extensions><gom:speed>0.439</gom:speed></extensions></trkpt>
   <trkpt lat="59.0690454209" lon="30.0264462665"><ele>94.581</ele><time>2026-04-20T18:13:45.758Z</time><hdop>6.625</hdop><vdop>4.125</vdop><extensions><gom:speed>0.441</gom:speed></extensions></trkpt>
   <trkpt lat="59.069038422" lon="30.0264471047"><ele>93.769</ele><time>2026-04-20T18:13:46.656Z</time><hdop>6.25</hdop><vdop>4.0</vdop><extensions><gom:speed>0.463</gom:speed></extensions></trkpt>
   <trkpt lat="59.0690287409" lon="30.0264493678"><ele>94.012</ele><time>2026-04-20T18:13:47.742Z</time><hdop>5.875</hdop><vdop>3.75</vdop><extensions><gom:speed>0.553</gom:speed></extensions></trkpt>
   <trkpt lat="59.0690188503" lon="30.0264538102"><ele>93.469</ele><time>2026-04-20T18:13:48.642Z</time><hdop>5.625</hdop><vdop>3.5</vdop><extensions><gom:speed>0.667</gom:speed></extensions></trkpt>
   <trkpt lat="59.0690101331" lon="30.026458085"><ele>93.357</ele><time>2026-04-20T18:13:49.499Z</time><hdop>5.5</hdop><vdop>7.25</vdop><extensions><gom:speed>0.714</gom:speed></extensions></trkpt>
   <trkpt lat="59.0690056488" lon="30.0264583365"><ele>93.56</ele><time>2026-04-20T18:13:50.030Z</time><hdop>5.375</hdop><vdop>7.25</vdop><extensions><gom:speed>0.707</gom:speed></extensions></trkpt>
   <trkpt lat="59.0689977279" lon="30.0264570792"><ele>94.177</ele><time>2026-04-20T18:13:51.075Z</time><hdop>5.375</hdop><vdop>7.25</vdop><extensions><gom:speed>0.722</gom:speed></extensions></trkpt>
   <trkpt lat="59.0689903518" lon="30.0264525529"><ele>94.337</ele><time>2026-04-20T18:13:52.043Z</time><hdop>5.375</hdop><vdop>7.5</vdop><extensions><gom:speed>0.712</gom:speed></extensions></trkpt>
   <trkpt lat="59.0689853227" lon="30.0264448416"><ele>94.432</ele><time>2026-04-20T18:13:53.033Z</time><hdop>5.375</hdop><vdop>7.5</vdop><extensions><gom:speed>0.718</gom:speed></extensions></trkpt>
   <trkpt lat="59.068981928" lon="30.0264370464"><ele>94.828</ele><time>2026-04-20T18:13:53.921Z</time><hdop>5.5</hdop><vdop>7.375</vdop><extensions><gom:speed>0.71</gom:speed></extensions></trkpt>
   <trkpt lat="59.0689787429" lon="30.0264291674"><ele>95.35</ele><time>2026-04-20T18:13:54.801Z</time><hdop>5.5</hdop><vdop>7.25</vdop><extensions><gom:speed>0.708</gom:speed></extensions></trkpt>
   <trkpt lat="59.0689753482" lon="30.0264213723"><ele>95.714</ele><time>2026-04-20T18:13:55.738Z</time><hdop>5.375</hdop><vdop>7.125</vdop><extensions><gom:speed>0.705</gom:speed></extensions></trkpt>
   <trkpt lat="59.0689714506" lon="30.0264142477"><ele>96.143</ele><time>2026-04-20T18:13:56.559Z</time><hdop>5.375</hdop><vdop>7.375</vdop><extensions><gom:speed>0.736</gom:speed></extensions></trkpt>
   <trkpt lat="59.0689688522" lon="30.0264088832"><ele>96.401</ele><time>2026-04-20T18:13:57.019Z</time><hdop>5.375</hdop><vdop>7.125</vdop><extensions><gom:speed>0.742</gom:speed></extensions></trkpt>
   <trkpt lat="59.0689656252" lon="30.0263999146"><ele>96.556</ele><time>2026-04-20T18:13:57.515Z</time><hdop>5.25</hdop><vdop>7.125</vdop><extensions><gom:speed>0.732</gom:speed></extensions></trkpt>
   <trkpt lat="59.0689642422" lon="30.0263982382"><ele>96.661</ele><time>2026-04-20T18:13:58.075Z</time><hdop>5.25</hdop><vdop>7.375</vdop><extensions><gom:speed>0.704</gom:speed></extensions></trkpt>
   <trkpt lat="59.0689622305" lon="30.0263948016"><ele>96.724</ele><time>2026-04-20T18:13:58.581Z</time><hdop>5.25</hdop><vdop>7.375</vdop><extensions><gom:speed>0.658</gom:speed></extensions></trkpt>
   <trkpt lat="59.0689600513" lon="30.0263915327"><ele>96.594</ele><time>2026-04-20T18:13:59.033Z</time><hdop>5.25</hdop><vdop>7.0</vdop><extensions><gom:speed>0.653</gom:speed></extensions></trkpt>
   <trkpt lat="59.0689542258" lon="30.0263854139"><ele>96.152</ele><time>2026-04-20T18:14:00.075Z</time><hdop>5.25</hdop><vdop>5.5</vdop><extensions><gom:speed>0.71</gom:speed></extensions></trkpt>
   <trkpt lat="59.0689484423" lon="30.0263771996"><ele>95.888</ele><time>2026-04-20T18:14:01.000Z</time><hdop>5.25</hdop><vdop>5.5</vdop><extensions><gom:speed>0.73</gom:speed></extensions></trkpt>
   <trkpt lat="59.0689434551" lon="30.0263701588"><ele>96.601</ele><time>2026-04-20T18:14:01.997Z</time><hdop>5.25</hdop><vdop>4.625</vdop><extensions><gom:speed>0.675</gom:speed></extensions></trkpt>
   <trkpt lat="59.068938845" lon="30.0263619446"><ele>96.773</ele><time>2026-04-20T18:14:02.976Z</time><hdop>5.25</hdop><vdop>4.75</vdop><extensions><gom:speed>0.671</gom:speed></extensions></trkpt>
   <trkpt lat="59.068937923" lon="30.0263593462"><ele>96.934</ele><time>2026-04-20T18:14:03.534Z</time><hdop>5.125</hdop><vdop>4.375</vdop><extensions><gom:speed>0.605</gom:speed></extensions></trkpt>
   <trkpt lat="59.0689346541" lon="30.0263492041"><ele>96.625</ele><time>2026-04-20T18:14:04.075Z</time><hdop>5.125</hdop><vdop>4.375</vdop><extensions><gom:speed>0.552</gom:speed></extensions></trkpt>
   <trkpt lat="59.0689331453" lon="30.026344594"><ele>95.523</ele><time>2026-04-20T18:14:04.956Z</time><hdop>5.0</hdop><vdop>4.5</vdop><extensions><gom:speed>0.421</gom:speed></extensions></trkpt>
   <trkpt lat="59.0689313432" lon="30.02634275"><ele>94.245</ele><time>2026-04-20T18:14:06.022Z</time><hdop>4.875</hdop><vdop>4.625</vdop><extensions><gom:speed>0.284</gom:speed></extensions></trkpt>
   <trkpt lat="59.0689299183" lon="30.0263430015"><ele>93.476</ele><time>2026-04-20T18:14:07.075Z</time><hdop>4.75</hdop><vdop>4.75</vdop><extensions><gom:speed>0.166</gom:speed></extensions></trkpt>
   <trkpt lat="59.068929122" lon="30.0263445102"><ele>92.205</ele><time>2026-04-20T18:14:08.075Z</time><hdop>4.75</hdop><vdop>4.75</vdop><extensions><gom:speed>0.121</gom:speed></extensions></trkpt>
   <trkpt lat="59.0689272361" lon="30.0263468571"><ele>90.407</ele><time>2026-04-20T18:14:09.075Z</time><hdop>4.75</hdop><vdop>4.75</vdop><extensions><gom:speed>0.14</gom:speed></extensions></trkpt>
   <trkpt lat="59.0689265236" lon="30.0263476115"><ele>89.332</ele><time>2026-04-20T18:14:09.695Z</time><hdop>4.75</hdop><vdop>4.75</vdop><extensions><gom:speed>0.118</gom:speed></extensions></trkpt>
   <trkpt lat="59.0689229194" lon="30.0263514672"><ele>88.384</ele><time>2026-04-20T18:14:10.203Z</time><hdop>4.625</hdop><vdop>4.875</vdop><extensions><gom:speed>0.14</gom:speed></extensions></trkpt>
   <trkpt lat="59.0689204468" lon="30.0263559096"><ele>87.302</ele><time>2026-04-20T18:14:11.075Z</time><hdop>4.625</hdop><vdop>5.0</vdop><extensions><gom:speed>0.126</gom:speed></extensions></trkpt>
   <trkpt lat="59.0689173455" lon="30.0263611902"><ele>86.46</ele><time>2026-04-20T18:14:12.075Z</time><hdop>4.625</hdop><vdop>5.0</vdop><extensions><gom:speed>0.163</gom:speed></extensions></trkpt>
   <trkpt lat="59.0689154176" lon="30.0263626151"><ele>85.608</ele><time>2026-04-20T18:14:13.012Z</time><hdop>4.625</hdop><vdop>4.875</vdop><extensions><gom:speed>0.191</gom:speed></extensions></trkpt>
   <trkpt lat="59.0689108495" lon="30.0263643753"><ele>85.359</ele><time>2026-04-20T18:14:14.075Z</time><hdop>4.625</hdop><vdop>4.75</vdop><extensions><gom:speed>0.282</gom:speed></extensions></trkpt>
   <trkpt lat="59.068905527" lon="30.0263638724"><ele>85.323</ele><time>2026-04-20T18:14:15.075Z</time><hdop>4.625</hdop><vdop>8.5</vdop><extensions><gom:speed>0.324</gom:speed></extensions></trkpt>
   <trkpt lat="59.068903641" lon="30.0263626989"><ele>85.301</ele><time>2026-04-20T18:14:15.855Z</time><hdop>4.75</hdop><vdop>8.5</vdop><extensions><gom:speed>0.325</gom:speed></extensions></trkpt>
   <trkpt lat="59.0688996177" lon="30.0263616093"><ele>85.357</ele><time>2026-04-20T18:14:16.400Z</time><hdop>4.75</hdop><vdop>8.375</vdop><extensions><gom:speed>0.328</gom:speed></extensions></trkpt>
   <trkpt lat="59.0688965164" lon="30.0263595138"><ele>85.736</ele><time>2026-04-20T18:14:17.075Z</time><hdop>4.75</hdop><vdop>7.875</vdop><extensions><gom:speed>0.356</gom:speed></extensions></trkpt>
   <trkpt lat="59.0688915292" lon="30.0263546523"><ele>86.207</ele><time>2026-04-20T18:14:17.987Z</time><hdop>4.875</hdop><vdop>7.75</vdop><extensions><gom:speed>0.413</gom:speed></extensions></trkpt>
   <trkpt lat="59.0688868353" lon="30.0263542332"><ele>86.02</ele><time>2026-04-20T18:14:18.935Z</time><hdop>5.0</hdop><vdop>7.5</vdop><extensions><gom:speed>0.435</gom:speed></extensions></trkpt>
   <trkpt lat="59.0688828539" lon="30.0263590947"><ele>85.444</ele><time>2026-04-20T18:14:20.001Z</time><hdop>5.125</hdop><vdop>7.125</vdop><extensions><gom:speed>0.421</gom:speed></extensions></trkpt>
   <trkpt lat="59.068880046" lon="30.0263655488"><ele>85.039</ele><time>2026-04-20T18:14:20.949Z</time><hdop>5.25</hdop><vdop>6.875</vdop><extensions><gom:speed>0.454</gom:speed></extensions></trkpt>
   <trkpt lat="59.0688782439" lon="30.0263687339"><ele>84.796</ele><time>2026-04-20T18:14:21.536Z</time><hdop>5.375</hdop><vdop>6.875</vdop><extensions><gom:speed>0.492</gom:speed></extensions></trkpt>
   <trkpt lat="59.068875855" lon="30.0263715838"><ele>84.673</ele><time>2026-04-20T18:14:22.075Z</time><hdop>5.375</hdop><vdop>6.5</vdop><extensions><gom:speed>0.467</gom:speed></extensions></trkpt>
   <trkpt lat="59.0688728375" lon="30.026372841"><ele>84.599</ele><time>2026-04-20T18:14:22.779Z</time><hdop>5.5</hdop><vdop>6.5</vdop><extensions><gom:speed>0.447</gom:speed></extensions></trkpt>
   <trkpt lat="59.0688676408" lon="30.0263730087"><ele>84.226</ele><time>2026-04-20T18:14:23.795Z</time><hdop>5.625</hdop><vdop>6.375</vdop><extensions><gom:speed>0.517</gom:speed></extensions></trkpt>
   <trkpt lat="59.068862444" lon="30.0263736792"><ele>84.153</ele><time>2026-04-20T18:14:24.861Z</time><hdop>5.75</hdop><vdop>6.375</vdop><extensions><gom:speed>0.478</gom:speed></extensions></trkpt>
   <trkpt lat="59.068857331" lon="30.0263773673"><ele>83.665</ele><time>2026-04-20T18:14:26.075Z</time><hdop>5.75</hdop><vdop>5.875</vdop><extensions><gom:speed>0.447</gom:speed></extensions></trkpt>
   <trkpt lat="59.0688529305" lon="30.0263820611"><ele>82.361</ele><time>2026-04-20T18:14:27.076Z</time><hdop>5.625</hdop><vdop>6.125</vdop><extensions><gom:speed>0.407</gom:speed></extensions></trkpt>
   <trkpt lat="59.0688493263" lon="30.0263855815"><ele>81.507</ele><time>2026-04-20T18:14:28.076Z</time><hdop>5.625</hdop><vdop>6.0</vdop><extensions><gom:speed>0.323</gom:speed></extensions></trkpt>
   <trkpt lat="59.0688449258" lon="30.0263852463"><ele>80.925</ele><time>2026-04-20T18:14:29.075Z</time><hdop>5.375</hdop><vdop>5.625</vdop><extensions><gom:speed>0.351</gom:speed></extensions></trkpt>
   <trkpt lat="59.0688390166" lon="30.0263850786"><ele>80.949</ele><time>2026-04-20T18:14:30.075Z</time><hdop>5.25</hdop><vdop>5.375</vdop><extensions><gom:speed>0.349</gom:speed></extensions></trkpt>
   <trkpt lat="59.06883185" lon="30.0263862521"><ele>80.41</ele><time>2026-04-20T18:14:31.075Z</time><hdop>5.125</hdop><vdop>5.125</vdop><extensions><gom:speed>0.407</gom:speed></extensions></trkpt>
   <trkpt lat="59.0688234262" lon="30.0263906945"><ele>79.342</ele><time>2026-04-20T18:14:32.075Z</time><hdop>5.0</hdop><vdop>5.0</vdop><extensions><gom:speed>0.479</gom:speed></extensions></trkpt>
   <trkpt lat="59.0688152539" lon="30.0263999146"><ele>77.469</ele><time>2026-04-20T18:14:33.076Z</time><hdop>5.0</hdop><vdop>5.125</vdop><extensions><gom:speed>0.575</gom:speed></extensions></trkpt>
   <trkpt lat="59.0688076263" lon="30.0264098052"><ele>76.211</ele><time>2026-04-20T18:14:34.076Z</time><hdop>4.875</hdop><vdop>4.75</vdop><extensions><gom:speed>0.545</gom:speed></extensions></trkpt>
   <trkpt lat="59.0687999569" lon="30.026415002"><ele>75.459</ele><time>2026-04-20T18:14:35.081Z</time><hdop>4.875</hdop><vdop>4.75</vdop><extensions><gom:speed>0.57</gom:speed></extensions></trkpt>
   <trkpt lat="59.0687926227" lon="30.0264152535"><ele>75.369</ele><time>2026-04-20T18:14:36.075Z</time><hdop>4.75</hdop><vdop>4.625</vdop><extensions><gom:speed>0.556</gom:speed></extensions></trkpt>
   <trkpt lat="59.0687879289" lon="30.026412236"><ele>75.511</ele><time>2026-04-20T18:14:37.075Z</time><hdop>4.75</hdop><vdop>4.625</vdop><extensions><gom:speed>0.469</gom:speed></extensions></trkpt>
   <trkpt lat="59.0687854562" lon="30.0264090509"><ele>76.029</ele><time>2026-04-20T18:14:38.075Z</time><hdop>4.625</hdop><vdop>4.5</vdop><extensions><gom:speed>0.283</gom:speed></extensions></trkpt>
   <trkpt lat="59.0687839475" lon="30.0264070392"><ele>76.612</ele><time>2026-04-20T18:14:39.075Z</time><hdop>4.5</hdop><vdop>6.375</vdop><extensions><gom:speed>0.142</gom:speed></extensions></trkpt>
   <trkpt lat="59.0687821454" lon="30.0264058657"><ele>77.285</ele><time>2026-04-20T18:14:40.075Z</time><hdop>4.375</hdop><vdop>6.125</vdop><extensions><gom:speed>0.09</gom:speed></extensions></trkpt>
   <trkpt lat="59.0687819358" lon="30.026406201"><ele>77.687</ele><time>2026-04-20T18:14:40.615Z</time><hdop>4.25</hdop><vdop>6.125</vdop><extensions><gom:speed>0.083</gom:speed></extensions></trkpt>
   <trkpt lat="59.06878093" lon="30.0264062848"><ele>78.086</ele><time>2026-04-20T18:14:41.181Z</time><hdop>4.125</hdop><vdop>6.0</vdop><extensions><gom:speed>0.115</gom:speed></extensions></trkpt>
   <trkpt lat="59.0687783316" lon="30.026404357"><ele>78.123</ele><time>2026-04-20T18:14:42.075Z</time><hdop>4.125</hdop><vdop>5.75</vdop><extensions><gom:speed>0.111</gom:speed></extensions></trkpt>
   <trkpt lat="59.0687752303" lon="30.0264030159"><ele>77.507</ele><time>2026-04-20T18:14:43.075Z</time><hdop>4.0</hdop><vdop>5.5</vdop><extensions><gom:speed>0.122</gom:speed></extensions></trkpt>
   <trkpt lat="59.0687724223" lon="30.0264022615"><ele>76.877</ele><time>2026-04-20T18:14:44.075Z</time><hdop>4.0</hdop><vdop>5.375</vdop><extensions><gom:speed>0.149</gom:speed></extensions></trkpt>
   <trkpt lat="59.0687690277" lon="30.0264033512"><ele>77.369</ele><time>2026-04-20T18:14:45.075Z</time><hdop>4.0</hdop><vdop>5.0</vdop><extensions><gom:speed>0.205</gom:speed></extensions></trkpt>
   <trkpt lat="59.0687644176" lon="30.0264070392"><ele>78.173</ele><time>2026-04-20T18:14:46.075Z</time><hdop>4.0</hdop><vdop>4.75</vdop><extensions><gom:speed>0.27</gom:speed></extensions></trkpt>
   <trkpt lat="59.0687626574" lon="30.0264093023"><ele>78.653</ele><time>2026-04-20T18:14:46.776Z</time><hdop>4.0</hdop><vdop>4.75</vdop><extensions><gom:speed>0.321</gom:speed></extensions></trkpt>
   <trkpt lat="59.068752222" lon="30.0264209532"><ele>78.875</ele><time>2026-04-20T18:14:47.855Z</time><hdop>4.0</hdop><vdop>4.5</vdop><extensions><gom:speed>0.539</gom:speed></extensions></trkpt>
   <trkpt lat="59.0687413255" lon="30.0264269043"><ele>79.071</ele><time>2026-04-20T18:14:48.793Z</time><hdop>4.0</hdop><vdop>4.25</vdop><extensions><gom:speed>0.641</gom:speed></extensions></trkpt>
   <trkpt lat="59.0687310577" lon="30.0264312629"><ele>78.721</ele><time>2026-04-20T18:14:49.641Z</time><hdop>4.0</hdop><vdop>4.25</vdop><extensions><gom:speed>0.703</gom:speed></extensions></trkpt>
   <trkpt lat="59.0687210413" lon="30.0264350348"><ele>78.501</ele><time>2026-04-20T18:14:50.502Z</time><hdop>4.125</hdop><vdop>4.125</vdop><extensions><gom:speed>0.673</gom:speed></extensions></trkpt>
   <trkpt lat="59.0687149225" lon="30.0264367112"><ele>78.082</ele><time>2026-04-20T18:14:51.075Z</time><hdop>4.125</hdop><vdop>4.125</vdop><extensions><gom:speed>0.652</gom:speed></extensions></trkpt>
   <trkpt lat="59.0687099353" lon="30.0264364597"><ele>77.832</ele><time>2026-04-20T18:14:51.696Z</time><hdop>4.125</hdop><vdop>4.125</vdop><extensions><gom:speed>0.617</gom:speed></extensions></trkpt>
   <trkpt lat="59.0687046547" lon="30.0264328555"><ele>77.777</ele><time>2026-04-20T18:14:52.936Z</time><hdop>4.125</hdop><vdop>4.25</vdop><extensions><gom:speed>0.579</gom:speed></extensions></trkpt>
   <trkpt lat="59.0686939258" lon="30.0264248927"><ele>77.822</ele><time>2026-04-20T18:14:54.075Z</time><hdop>4.25</hdop><vdop>4.375</vdop><extensions><gom:speed>0.472</gom:speed></extensions></trkpt>
   <trkpt lat="59.0686880166" lon="30.0264239707"><ele>77.949</ele><time>2026-04-20T18:14:55.075Z</time><hdop>4.25</hdop><vdop>4.5</vdop><extensions><gom:speed>0.421</gom:speed></extensions></trkpt>
   <trkpt lat="59.0686820235" lon="30.0264214561"><ele>77.567</ele><time>2026-04-20T18:14:56.076Z</time><hdop>4.25</hdop><vdop>4.625</vdop><extensions><gom:speed>0.411</gom:speed></extensions></trkpt>
   <trkpt lat="59.0686766172" lon="30.0264196959"><ele>77.339</ele><time>2026-04-20T18:14:57.057Z</time><hdop>4.25</hdop><vdop>4.625</vdop><extensions><gom:speed>0.469</gom:speed></extensions></trkpt>
   <trkpt lat="59.0686687382" lon="30.0264205341"><ele>76.751</ele><time>2026-04-20T18:14:58.014Z</time><hdop>4.25</hdop><vdop>4.5</vdop><extensions><gom:speed>0.526</gom:speed></extensions></trkpt>
   <trkpt lat="59.0686607335" lon="30.0264198635"><ele>76.322</ele><time>2026-04-20T18:14:59.060Z</time><hdop>4.375</hdop><vdop>4.375</vdop><extensions><gom:speed>0.52</gom:speed></extensions></trkpt>
   <trkpt lat="59.0686508428" lon="30.0264147506"><ele>76.542</ele><time>2026-04-20T18:15:00.075Z</time><hdop>4.375</hdop><vdop>4.375</vdop><extensions><gom:speed>0.498</gom:speed></extensions></trkpt>
   <trkpt lat="59.0686455203" lon="30.0264093861"><ele>76.681</ele><time>2026-04-20T18:15:01.075Z</time><hdop>4.375</hdop><vdop>4.25</vdop><extensions><gom:speed>0.507</gom:speed></extensions></trkpt>
   <trkpt lat="59.0686420418" lon="30.0264027644"><ele>76.763</ele><time>2026-04-20T18:15:02.062Z</time><hdop>4.375</hdop><vdop>4.25</vdop><extensions><gom:speed>0.453</gom:speed></extensions></trkpt>
   <trkpt lat="59.0686357554" lon="30.0263965618"><ele>77.235</ele><time>2026-04-20T18:15:03.001Z</time><hdop>4.375</hdop><vdop>4.375</vdop><extensions><gom:speed>0.53</gom:speed></extensions></trkpt>
   <trkpt lat="59.068627625" lon="30.0263903592"><ele>77.426</ele><time>2026-04-20T18:15:03.898Z</time><hdop>4.375</hdop><vdop>4.5</vdop><extensions><gom:speed>0.554</gom:speed></extensions></trkpt>
   <trkpt lat="59.0686209194" lon="30.0263826479"><ele>77.768</ele><time>2026-04-20T18:15:04.817Z</time><hdop>4.375</hdop><vdop>4.375</vdop><extensions><gom:speed>0.532</gom:speed></extensions></trkpt>
   <trkpt lat="59.0686144235" lon="30.0263687339"><ele>78.284</ele><time>2026-04-20T18:15:05.872Z</time><hdop>4.5</hdop><vdop>4.375</vdop><extensions><gom:speed>0.534</gom:speed></extensions></trkpt>
   <trkpt lat="59.0686097296" lon="30.0263608549"><ele>78.658</ele><time>2026-04-20T18:15:06.633Z</time><hdop>4.5</hdop><vdop>4.5</vdop><extensions><gom:speed>0.61</gom:speed></extensions></trkpt>
   <trkpt lat="59.0686023535" lon="30.0263490364"><ele>79.064</ele><time>2026-04-20T18:15:07.620Z</time><hdop>4.5</hdop><vdop>4.625</vdop><extensions><gom:speed>0.621</gom:speed></extensions></trkpt>
   <trkpt lat="59.068597953" lon="30.02634275"><ele>79.545</ele><time>2026-04-20T18:15:08.075Z</time><hdop>4.5</hdop><vdop>4.5</vdop><extensions><gom:speed>0.64</gom:speed></extensions></trkpt>
   <trkpt lat="59.0685948517" lon="30.0263370503"><ele>79.833</ele><time>2026-04-20T18:15:08.538Z</time><hdop>4.625</hdop><vdop>4.5</vdop><extensions><gom:speed>0.69</gom:speed></extensions></trkpt>
   <trkpt lat="59.0685907446" lon="30.0263283331"><ele>80.415</ele><time>2026-04-20T18:15:09.075Z</time><hdop>4.625</hdop><vdop>4.375</vdop><extensions><gom:speed>0.704</gom:speed></extensions></trkpt>
   <trkpt lat="59.0685858412" lon="30.0263122399"><ele>81.278</ele><time>2026-04-20T18:15:10.075Z</time><hdop>4.625</hdop><vdop>4.25</vdop><extensions><gom:speed>0.658</gom:speed></extensions></trkpt>
   <trkpt lat="59.0685804349" lon="30.026301092"><ele>82.492</ele><time>2026-04-20T18:15:11.075Z</time><hdop>4.75</hdop><vdop>4.375</vdop><extensions><gom:speed>0.537</gom:speed></extensions></trkpt>
   <trkpt lat="59.0685741484" lon="30.0262915366"><ele>82.953</ele><time>2026-04-20T18:15:12.075Z</time><hdop>4.75</hdop><vdop>6.25</vdop><extensions><gom:speed>0.419</gom:speed></extensions></trkpt>
   <trkpt lat="59.0685725559" lon="30.0262917042"><ele>83.515</ele><time>2026-04-20T18:15:12.958Z</time><hdop>4.875</hdop><vdop>6.125</vdop><extensions><gom:speed>0.287</gom:speed></extensions></trkpt>
   <trkpt lat="59.0685718434" lon="30.0262924586"><ele>83.733</ele><time>2026-04-20T18:15:14.024Z</time><hdop>4.875</hdop><vdop>6.25</vdop><extensions><gom:speed>0.17</gom:speed></extensions></trkpt>
   <trkpt lat="59.0685726397" lon="30.0262935482"><ele>83.863</ele><time>2026-04-20T18:15:14.857Z</time><hdop>5.0</hdop><vdop>6.25</vdop><extensions><gom:speed>0.132</gom:speed></extensions></trkpt>
   <trkpt lat="59.068573436" lon="30.0262943026"><ele>83.809</ele><time>2026-04-20T18:15:16.038Z</time><hdop>5.125</hdop><vdop>5.5</vdop><extensions><gom:speed>0.113</gom:speed></extensions></trkpt>
   <trkpt lat="59.0685736455" lon="30.0262944703"><ele>83.776</ele><time>2026-04-20T18:15:16.960Z</time><hdop>5.25</hdop><vdop>5.5</vdop><extensions><gom:speed>0.126</gom:speed></extensions></trkpt>
   <trkpt lat="59.0685713405" lon="30.0262901955"><ele>82.645</ele><time>2026-04-20T18:15:17.579Z</time><hdop>5.25</hdop><vdop>5.25</vdop><extensions><gom:speed>0.17</gom:speed></extensions></trkpt>
   <trkpt lat="59.0685661437" lon="30.026286256"><ele>80.629</ele><time>2026-04-20T18:15:18.075Z</time><hdop>5.25</hdop><vdop>4.875</vdop><extensions><gom:speed>0.199</gom:speed></extensions></trkpt>
   <trkpt lat="59.0685599411" lon="30.0262844958"><ele>78.843</ele><time>2026-04-20T18:15:19.075Z</time><hdop>5.125</hdop><vdop>4.875</vdop><extensions><gom:speed>0.259</gom:speed></extensions></trkpt>
   <trkpt lat="59.0685559178" lon="30.0262840767"><ele>77.776</ele><time>2026-04-20T18:15:20.040Z</time><hdop>5.0</hdop><vdop>4.875</vdop><extensions><gom:speed>0.283</gom:speed></extensions></trkpt>
   <trkpt lat="59.0685492542" lon="30.0262808078"><ele>76.767</ele><time>2026-04-20T18:15:20.958Z</time><hdop>4.875</hdop><vdop>4.625</vdop><extensions><gom:speed>0.316</gom:speed></extensions></trkpt>
   <trkpt lat="59.0685436383" lon="30.0262787961"><ele>75.93</ele><time>2026-04-20T18:15:21.963Z</time><hdop>4.625</hdop><vdop>5.5</vdop><extensions><gom:speed>0.238</gom:speed></extensions></trkpt>
   <trkpt lat="59.0685408304" lon="30.0262782932"><ele>75.296</ele><time>2026-04-20T18:15:23.075Z</time><hdop>4.5</hdop><vdop>5.625</vdop><extensions><gom:speed>0.155</gom:speed></extensions></trkpt>
   <trkpt lat="59.0685407465" lon="30.0262784608"><ele>74.917</ele><time>2026-04-20T18:15:23.857Z</time><hdop>4.5</hdop><vdop>5.625</vdop><extensions><gom:speed>0.13</gom:speed></extensions></trkpt>
   <trkpt lat="59.0685401179" lon="30.0262785446"><ele>74.924</ele><time>2026-04-20T18:15:25.043Z</time><hdop>4.5</hdop><vdop>5.625</vdop><extensions><gom:speed>0.113</gom:speed></extensions></trkpt>
   <trkpt lat="59.068536849" lon="30.0262763653"><ele>75.275</ele><time>2026-04-20T18:15:26.076Z</time><hdop>4.625</hdop><vdop>5.5</vdop><extensions><gom:speed>0.072</gom:speed></extensions></trkpt>
   <trkpt lat="59.0685357174" lon="30.0262762815"><ele>75.295</ele><time>2026-04-20T18:15:26.938Z</time><hdop>4.625</hdop><vdop>5.625</vdop><extensions><gom:speed>0.071</gom:speed></extensions></trkpt>
   <trkpt lat="59.0685364299" lon="30.0262764492"><ele>75.496</ele><time>2026-04-20T18:15:28.004Z</time><hdop>4.625</hdop><vdop>5.5</vdop><extensions><gom:speed>0.072</gom:speed></extensions></trkpt>
   <trkpt lat="59.0685346278" lon="30.0262761977"><ele>75.765</ele><time>2026-04-20T18:15:29.075Z</time><hdop>4.625</hdop><vdop>5.75</vdop><extensions><gom:speed>0.103</gom:speed></extensions></trkpt>
   <trkpt lat="59.0685348373" lon="30.0262761977"><ele>76.173</ele><time>2026-04-20T18:15:30.018Z</time><hdop>4.625</hdop><vdop>5.75</vdop><extensions><gom:speed>0.072</gom:speed></extensions></trkpt>
   <trkpt lat="59.068531736" lon="30.026274689"><ele>76.643</ele><time>2026-04-20T18:15:31.076Z</time><hdop>4.625</hdop><vdop>5.5</vdop><extensions><gom:speed>0.077</gom:speed></extensions></trkpt>
   <trkpt lat="59.0685309397" lon="30.0262751919"><ele>77.141</ele><time>2026-04-20T18:15:32.032Z</time><hdop>4.625</hdop><vdop>5.375</vdop><extensions><gom:speed>0.07</gom:speed></extensions></trkpt>
   <trkpt lat="59.0685304368" lon="30.0262743537"><ele>77.549</ele><time>2026-04-20T18:15:32.981Z</time><hdop>4.5</hdop><vdop>5.25</vdop><extensions><gom:speed>0.061</gom:speed></extensions></trkpt>
   <trkpt lat="59.0685263297" lon="30.026273767"><ele>77.914</ele><time>2026-04-20T18:15:34.075Z</time><hdop>4.5</hdop><vdop>5.0</vdop><extensions><gom:speed>0.07</gom:speed></extensions></trkpt>
   <trkpt lat="59.0685250305" lon="30.0262754433"><ele>78.281</ele><time>2026-04-20T18:15:34.994Z</time><hdop>4.5</hdop><vdop>5.125</vdop><extensions><gom:speed>0.076</gom:speed></extensions></trkpt>
   <trkpt lat="59.0685213424" lon="30.026273264"><ele>78.62</ele><time>2026-04-20T18:15:36.075Z</time><hdop>4.5</hdop><vdop>5.0</vdop><extensions><gom:speed>0.092</gom:speed></extensions></trkpt>
   <trkpt lat="59.0685189536" lon="30.0262720068"><ele>78.874</ele><time>2026-04-20T18:15:37.009Z</time><hdop>4.5</hdop><vdop>5.0</vdop><extensions><gom:speed>0.068</gom:speed></extensions></trkpt>
   <trkpt lat="59.068518744" lon="30.0262731802"><ele>79.167</ele><time>2026-04-20T18:15:37.955Z</time><hdop>4.5</hdop><vdop>5.0</vdop><extensions><gom:speed>0.086</gom:speed></extensions></trkpt>
   <trkpt lat="59.068518744" lon="30.0262736831"><ele>79.342</ele><time>2026-04-20T18:15:38.413Z</time><hdop>4.625</hdop><vdop>5.0</vdop><extensions><gom:speed>0.055</gom:speed></extensions></trkpt>
   <trkpt lat="59.068518744" lon="30.0262739346"><ele>79.521</ele><time>2026-04-20T18:15:39.022Z</time><hdop>4.625</hdop><vdop>4.875</vdop><extensions><gom:speed>0.098</gom:speed></extensions></trkpt>
   <trkpt lat="59.0685182411" lon="30.0262735993"><ele>79.684</ele><time>2026-04-20T18:15:39.970Z</time><hdop>4.75</hdop><vdop>4.875</vdop><extensions><gom:speed>0.107</gom:speed></extensions></trkpt>
   <trkpt lat="59.0685166486" lon="30.0262747728"><ele>79.787</ele><time>2026-04-20T18:15:41.036Z</time><hdop>4.75</hdop><vdop>4.75</vdop><extensions><gom:speed>0.201</gom:speed></extensions></trkpt>
   <trkpt lat="59.068515056" lon="30.0262782094"><ele>79.943</ele><time>2026-04-20T18:15:41.984Z</time><hdop>4.875</hdop><vdop>4.875</vdop><extensions><gom:speed>0.303</gom:speed></extensions></trkpt>
   <trkpt lat="59.0685117452" lon="30.0262831547"><ele>80.06</ele><time>2026-04-20T18:15:43.050Z</time><hdop>5.0</hdop><vdop>5.0</vdop><extensions><gom:speed>0.357</gom:speed></extensions></trkpt>
   <trkpt lat="59.0685061293" lon="30.0262806401"><ele>80.152</ele><time>2026-04-20T18:15:44.075Z</time><hdop>5.125</hdop><vdop>5.25</vdop><extensions><gom:speed>0.418</gom:speed></extensions></trkpt>
   <trkpt lat="59.0685024412" lon="30.0262772874"><ele>80.207</ele><time>2026-04-20T18:15:44.859Z</time><hdop>5.25</hdop><vdop>5.25</vdop><extensions><gom:speed>0.426</gom:speed></extensions></trkpt>
   <trkpt lat="59.068498837" lon="30.0262756948"><ele>80.216</ele><time>2026-04-20T18:15:46.011Z</time><hdop>5.25</hdop><vdop>5.0</vdop><extensions><gom:speed>0.329</gom:speed></extensions></trkpt>
   <trkpt lat="59.0684987532" lon="30.0262751919"><ele>80.24</ele><time>2026-04-20T18:15:46.959Z</time><hdop>5.375</hdop><vdop>4.875</vdop><extensions><gom:speed>0.219</gom:speed></extensions></trkpt>
   <trkpt lat="59.0684996333" lon="30.0262741022"><ele>80.28</ele><time>2026-04-20T18:15:48.025Z</time><hdop>5.5</hdop><vdop>4.875</vdop><extensions><gom:speed>0.144</gom:speed></extensions></trkpt>
   <trkpt lat="59.0685011421" lon="30.0262738508"><ele>80.304</ele><time>2026-04-20T18:15:48.618Z</time><hdop>5.5</hdop><vdop>4.875</vdop><extensions><gom:speed>0.087</gom:speed></extensions></trkpt>
   <trkpt lat="59.0685025251" lon="30.0262733479"><ele>80.335</ele><time>2026-04-20T18:15:49.252Z</time><hdop>5.75</hdop><vdop>5.0</vdop><extensions><gom:speed>0.125</gom:speed></extensions></trkpt>
   <trkpt lat="59.068503028" lon="30.0262720068"><ele>80.37</ele><time>2026-04-20T18:15:50.039Z</time><hdop>5.875</hdop><vdop>5.0</vdop><extensions><gom:speed>0.09</gom:speed></extensions></trkpt>
   <trkpt lat="59.0685027346" lon="30.0262708333"><ele>80.409</ele><time>2026-04-20T18:15:50.987Z</time><hdop>6.0</hdop><vdop>5.0</vdop><extensions><gom:speed>0.1</gom:speed></extensions></trkpt>
   <trkpt lat="59.0685018545" lon="30.0262705818"><ele>80.443</ele><time>2026-04-20T18:15:52.053Z</time><hdop>6.125</hdop><vdop>4.875</vdop><extensions><gom:speed>0.159</gom:speed></extensions></trkpt>
   <trkpt lat="59.0685005553" lon="30.0262708333"><ele>80.489</ele><time>2026-04-20T18:15:53.002Z</time><hdop>6.25</hdop><vdop>4.75</vdop><extensions><gom:speed>0.197</gom:speed></extensions></trkpt>
   <trkpt lat="59.0684997171" lon="30.0262722582"><ele>80.517</ele><time>2026-04-20T18:15:53.599Z</time><hdop>6.25</hdop><vdop>4.75</vdop><extensions><gom:speed>0.233</gom:speed></extensions></trkpt>
   <trkpt lat="59.0684960291" lon="30.0262715038"><ele>80.311</ele><time>2026-04-20T18:15:54.075Z</time><hdop>6.25</hdop><vdop>4.375</vdop><extensions><gom:speed>0.26</gom:speed></extensions></trkpt>
   <trkpt lat="59.0684933469" lon="30.0262725935"><ele>80.187</ele><time>2026-04-20T18:15:54.554Z</time><hdop>6.375</hdop><vdop>4.375</vdop><extensions><gom:speed>0.344</gom:speed></extensions></trkpt>
   <trkpt lat="59.0684859289" lon="30.0262701627"><ele>80.652</ele><time>2026-04-20T18:15:55.075Z</time><hdop>6.25</hdop><vdop>4.25</vdop><extensions><gom:speed>0.366</gom:speed></extensions></trkpt>
   <trkpt lat="59.0684835401" lon="30.0262699113"><ele>80.929</ele><time>2026-04-20T18:15:55.529Z</time><hdop>6.25</hdop><vdop>4.25</vdop><extensions><gom:speed>0.41</gom:speed></extensions></trkpt>
   <trkpt lat="59.0684778404" lon="30.0262668938"><ele>81.247</ele><time>2026-04-20T18:15:56.075Z</time><hdop>6.125</hdop><vdop>4.5</vdop><extensions><gom:speed>0.447</gom:speed></extensions></trkpt>
   <trkpt lat="59.0684739428" lon="30.0262653851"><ele>81.437</ele><time>2026-04-20T18:15:56.814Z</time><hdop>6.0</hdop><vdop>4.5</vdop><extensions><gom:speed>0.416</gom:speed></extensions></trkpt>
   <trkpt lat="59.0684647227" lon="30.0262576737"><ele>81.745</ele><time>2026-04-20T18:15:58.075Z</time><hdop>5.75</hdop><vdop>4.625</vdop><extensions><gom:speed>0.381</gom:speed></extensions></trkpt>
   <trkpt lat="59.0684597355" lon="30.0262562488"><ele>81.996</ele><time>2026-04-20T18:15:59.075Z</time><hdop>5.375</hdop><vdop>6.25</vdop><extensions><gom:speed>0.338</gom:speed></extensions></trkpt>
   <trkpt lat="59.0684549578" lon="30.0262550753"><ele>82.45</ele><time>2026-04-20T18:16:00.075Z</time><hdop>5.125</hdop><vdop>6.25</vdop><extensions><gom:speed>0.274</gom:speed></extensions></trkpt>
   <trkpt lat="59.0684542453" lon="30.0262550753"><ele>82.721</ele><time>2026-04-20T18:16:00.939Z</time><hdop>5.125</hdop><vdop>6.25</vdop><extensions><gom:speed>0.239</gom:speed></extensions></trkpt>
   <trkpt lat="59.068447456" lon="30.0262544886"><ele>83.734</ele><time>2026-04-20T18:16:02.075Z</time><hdop>4.75</hdop><vdop>6.125</vdop><extensions><gom:speed>0.151</gom:speed></extensions></trkpt>
   <trkpt lat="59.0684445223" lon="30.0262549077"><ele>84.865</ele><time>2026-04-20T18:16:03.075Z</time><hdop>4.75</hdop><vdop>6.125</vdop><extensions><gom:speed>0.152</gom:speed></extensions></trkpt>
   <trkpt lat="59.0684415467" lon="30.0262546562"><ele>86.113</ele><time>2026-04-20T18:16:04.075Z</time><hdop>4.625</hdop><vdop>6.25</vdop><extensions><gom:speed>0.093</gom:speed></extensions></trkpt>
   <trkpt lat="59.0684379425" lon="30.0262537342"><ele>87.203</ele><time>2026-04-20T18:16:05.075Z</time><hdop>4.5</hdop><vdop>6.25</vdop><extensions><gom:speed>0.076</gom:speed></extensions></trkpt>
   <trkpt lat="59.0684366433" lon="30.0262516387"><ele>88.427</ele><time>2026-04-20T18:16:06.033Z</time><hdop>4.5</hdop><vdop>6.375</vdop><extensions><gom:speed>0.075</gom:speed></extensions></trkpt>
   <trkpt lat="59.0684333325" lon="30.0262502976"><ele>89.59</ele><time>2026-04-20T18:16:07.076Z</time><hdop>4.5</hdop><vdop>6.375</vdop><extensions><gom:speed>0.1</gom:speed></extensions></trkpt>
   <trkpt lat="59.0684318237" lon="30.026251052"><ele>90.412</ele><time>2026-04-20T18:16:08.047Z</time><hdop>4.5</hdop><vdop>6.375</vdop><extensions><gom:speed>0.075</gom:speed></extensions></trkpt>
   <trkpt lat="59.0684313208" lon="30.0262520578"><ele>90.904</ele><time>2026-04-20T18:16:08.997Z</time><hdop>4.625</hdop><vdop>6.375</vdop><extensions><gom:speed>0.09</gom:speed></extensions></trkpt>
   <trkpt lat="59.0684315303" lon="30.0262520578"><ele>91.281</ele><time>2026-04-20T18:16:09.503Z</time><hdop>4.625</hdop><vdop>6.375</vdop><extensions><gom:speed>0.08</gom:speed></extensions></trkpt>
   <trkpt lat="59.0684283452" lon="30.0262518902"><ele>91.469</ele><time>2026-04-20T18:16:10.075Z</time><hdop>4.75</hdop><vdop>6.5</vdop><extensions><gom:speed>0.116</gom:speed></extensions></trkpt>
   <trkpt lat="59.068426124" lon="30.0262508844"><ele>91.585</ele><time>2026-04-20T18:16:11.009Z</time><hdop>4.75</hdop><vdop>6.375</vdop><extensions><gom:speed>0.123</gom:speed></extensions></trkpt>
   <trkpt lat="59.0684249506" lon="30.0262505491"><ele>91.764</ele><time>2026-04-20T18:16:11.956Z</time><hdop>4.875</hdop><vdop>6.125</vdop><extensions><gom:speed>0.139</gom:speed></extensions></trkpt>
   <trkpt lat="59.068419628" lon="30.0262494594"><ele>92.613</ele><time>2026-04-20T18:16:13.075Z</time><hdop>4.875</hdop><vdop>5.5</vdop><extensions><gom:speed>0.213</gom:speed></extensions></trkpt>
   <trkpt lat="59.0684110366" lon="30.0262428377"><ele>93.665</ele><time>2026-04-20T18:16:14.075Z</time><hdop>4.875</hdop><vdop>5.625</vdop><extensions><gom:speed>0.354</gom:speed></extensions></trkpt>
   <trkpt lat="59.0684038282" lon="30.0262328633"><ele>95.013</ele><time>2026-04-20T18:16:15.075Z</time><hdop>4.875</hdop><vdop>5.5</vdop><extensions><gom:speed>0.425</gom:speed></extensions></trkpt>
   <trkpt lat="59.0683967454" lon="30.026220961"><ele>96.531</ele><time>2026-04-20T18:16:16.075Z</time><hdop>4.75</hdop><vdop>5.25</vdop><extensions><gom:speed>0.429</gom:speed></extensions></trkpt>
   <trkpt lat="59.0683887407" lon="30.0262083043"><ele>97.551</ele><time>2026-04-20T18:16:17.076Z</time><hdop>4.75</hdop><vdop>5.0</vdop><extensions><gom:speed>0.475</gom:speed></extensions></trkpt>
   <trkpt lat="59.068383544" lon="30.0262029399"><ele>98.161</ele><time>2026-04-20T18:16:17.913Z</time><hdop>4.75</hdop><vdop>5.0</vdop><extensions><gom:speed>0.519</gom:speed></extensions></trkpt>
   <trkpt lat="59.0683778443" lon="30.0262002577"><ele>98.058</ele><time>2026-04-20T18:16:19.057Z</time><hdop>4.875</hdop><vdop>6.5</vdop><extensions><gom:speed>0.507</gom:speed></extensions></trkpt>
   <trkpt lat="59.0683755392" lon="30.0261960667"><ele>97.08</ele><time>2026-04-20T18:16:19.538Z</time><hdop>4.875</hdop><vdop>6.5</vdop><extensions><gom:speed>0.487</gom:speed></extensions></trkpt>
   <trkpt lat="59.0683690433" lon="30.0261907023"><ele>95.714</ele><time>2026-04-20T18:16:20.075Z</time><hdop>5.0</hdop><vdop>6.875</vdop><extensions><gom:speed>0.457</gom:speed></extensions></trkpt>
   <trkpt lat="59.0683637207" lon="30.0261881039"><ele>94.418</ele><time>2026-04-20T18:16:21.075Z</time><hdop>5.0</hdop><vdop>6.75</vdop><extensions><gom:speed>0.476</gom:speed></extensions></trkpt>
   <trkpt lat="59.0683586497" lon="30.0261863437"><ele>93.644</ele><time>2026-04-20T18:16:22.080Z</time><hdop>5.0</hdop><vdop>6.75</vdop><extensions><gom:speed>0.509</gom:speed></extensions></trkpt>
   <trkpt lat="59.0683565542" lon="30.0261860084"><ele>92.687</ele><time>2026-04-20T18:16:22.661Z</time><hdop>5.125</hdop><vdop>6.5</vdop><extensions><gom:speed>0.412</gom:speed></extensions></trkpt>
   <trkpt lat="59.0683531176" lon="30.0261881039"><ele>91.717</ele><time>2026-04-20T18:16:23.757Z</time><hdop>5.125</hdop><vdop>6.75</vdop><extensions><gom:speed>0.379</gom:speed></extensions></trkpt>
   <trkpt lat="59.0683493458" lon="30.0261881039"><ele>91.13</ele><time>2026-04-20T18:16:24.852Z</time><hdop>5.125</hdop><vdop>7.125</vdop><extensions><gom:speed>0.332</gom:speed></extensions></trkpt>
   <trkpt lat="59.0683486333" lon="30.026186679"><ele>90.723</ele><time>2026-04-20T18:16:25.699Z</time><hdop>5.125</hdop><vdop>7.25</vdop><extensions><gom:speed>0.294</gom:speed></extensions></trkpt>
   <trkpt lat="59.0683450291" lon="30.0261820689"><ele>90.274</ele><time>2026-04-20T18:16:27.002Z</time><hdop>5.25</hdop><vdop>7.5</vdop><extensions><gom:speed>0.245</gom:speed></extensions></trkpt>
   <trkpt lat="59.0683444424" lon="30.026181566"><ele>90.006</ele><time>2026-04-20T18:16:27.577Z</time><hdop>5.25</hdop><vdop>7.5</vdop><extensions><gom:speed>0.229</gom:speed></extensions></trkpt>
   <trkpt lat="59.0683433527" lon="30.0261827395"><ele>89.837</ele><time>2026-04-20T18:16:28.417Z</time><hdop>5.25</hdop><vdop>6.875</vdop><extensions><gom:speed>0.201</gom:speed></extensions></trkpt>
   <trkpt lat="59.0683422212" lon="30.0261834939"><ele>90.186</ele><time>2026-04-20T18:16:29.075Z</time><hdop>5.25</hdop><vdop>6.375</vdop><extensions><gom:speed>0.206</gom:speed></extensions></trkpt>
   <trkpt lat="59.068339539" lon="30.0261852541"><ele>90.217</ele><time>2026-04-20T18:16:30.075Z</time><hdop>5.125</hdop><vdop>5.5</vdop><extensions><gom:speed>0.232</gom:speed></extensions></trkpt>
   <trkpt lat="59.0683352223" lon="30.0261877686"><ele>89.763</ele><time>2026-04-20T18:16:31.075Z</time><hdop>5.0</hdop><vdop>5.125</vdop><extensions><gom:speed>0.284</gom:speed></extensions></trkpt>
   <trkpt lat="59.0683343422" lon="30.0261881877"><ele>89.492</ele><time>2026-04-20T18:16:31.860Z</time><hdop>5.0</hdop><vdop>5.125</vdop><extensions><gom:speed>0.261</gom:speed></extensions></trkpt>
   <trkpt lat="59.0683213502" lon="30.0261930492"><ele>89.768</ele><time>2026-04-20T18:16:33.075Z</time><hdop>4.875</hdop><vdop>4.75</vdop><extensions><gom:speed>0.347</gom:speed></extensions></trkpt>
   <trkpt lat="59.0683141418" lon="30.0261953962"><ele>89.933</ele><time>2026-04-20T18:16:33.994Z</time><hdop>4.875</hdop><vdop>4.75</vdop><extensions><gom:speed>0.444</gom:speed></extensions></trkpt>
   <trkpt lat="59.0683013175" lon="30.0261992518"><ele>89.557</ele><time>2026-04-20T18:16:34.934Z</time><hdop>4.875</hdop><vdop>4.75</vdop><extensions><gom:speed>0.574</gom:speed></extensions></trkpt>
   <trkpt lat="59.0682878226" lon="30.0262005929"><ele>88.827</ele><time>2026-04-20T18:16:35.920Z</time><hdop>4.875</hdop><vdop>4.625</vdop><extensions><gom:speed>0.619</gom:speed></extensions></trkpt>
   <trkpt lat="59.0682781415" lon="30.0261969887"><ele>88.417</ele><time>2026-04-20T18:16:36.701Z</time><hdop>4.75</hdop><vdop>4.375</vdop><extensions><gom:speed>0.653</gom:speed></extensions></trkpt>
   <trkpt lat="59.0682629284" lon="30.026198246"><ele>87.824</ele><time>2026-04-20T18:16:38.076Z</time><hdop>4.75</hdop><vdop>4.25</vdop><extensions><gom:speed>0.538</gom:speed></extensions></trkpt>
   <trkpt lat="59.0682564324" lon="30.0262103159"><ele>87.846</ele><time>2026-04-20T18:16:39.075Z</time><hdop>4.75</hdop><vdop>4.0</vdop><extensions><gom:speed>0.361</gom:speed></extensions></trkpt>
   <trkpt lat="59.0682546303" lon="30.0262109027"><ele>87.86</ele><time>2026-04-20T18:16:39.819Z</time><hdop>4.625</hdop><vdop>4.0</vdop><extensions><gom:speed>0.293</gom:speed></extensions></trkpt>
   <trkpt lat="59.0682493497" lon="30.0262101483"><ele>88.287</ele><time>2026-04-20T18:16:40.797Z</time><hdop>4.5</hdop><vdop>4.0</vdop><extensions><gom:speed>0.291</gom:speed></extensions></trkpt>
   <trkpt lat="59.0682461226" lon="30.0262099807"><ele>88.177</ele><time>2026-04-20T18:16:41.695Z</time><hdop>4.5</hdop><vdop>4.25</vdop><extensions><gom:speed>0.304</gom:speed></extensions></trkpt>
   <trkpt lat="59.0682402553" lon="30.0262095616"><ele>88.268</ele><time>2026-04-20T18:16:42.634Z</time><hdop>4.5</hdop><vdop>4.5</vdop><extensions><gom:speed>0.369</gom:speed></extensions></trkpt>
   <trkpt lat="59.0682346394" lon="30.0262081367"><ele>87.81</ele><time>2026-04-20T18:16:43.581Z</time><hdop>4.625</hdop><vdop>6.375</vdop><extensions><gom:speed>0.483</gom:speed></extensions></trkpt>
   <trkpt lat="59.0682292331" lon="30.0262036942"><ele>87.491</ele><time>2026-04-20T18:16:44.441Z</time><hdop>4.75</hdop><vdop>6.0</vdop><extensions><gom:speed>0.553</gom:speed></extensions></trkpt>
   <trkpt lat="59.0682246231" lon="30.0261974078"><ele>87.253</ele><time>2026-04-20T18:16:45.010Z</time><hdop>4.875</hdop><vdop>5.75</vdop><extensions><gom:speed>0.548</gom:speed></extensions></trkpt>
   <trkpt lat="59.0682222342" lon="30.0261929654"><ele>87.111</ele><time>2026-04-20T18:16:45.821Z</time><hdop>5.0</hdop><vdop>5.75</vdop><extensions><gom:speed>0.526</gom:speed></extensions></trkpt>
   <trkpt lat="59.0682171213" lon="30.0261891936"><ele>87.128</ele><time>2026-04-20T18:16:46.820Z</time><hdop>5.125</hdop><vdop>5.625</vdop><extensions><gom:speed>0.486</gom:speed></extensions></trkpt>
   <trkpt lat="59.068213056" lon="30.0261868466"><ele>87.191</ele><time>2026-04-20T18:16:47.521Z</time><hdop>5.25</hdop><vdop>5.625</vdop><extensions><gom:speed>0.552</gom:speed></extensions></trkpt>
   <trkpt lat="59.0682097452" lon="30.0261850864"><ele>87.057</ele><time>2026-04-20T18:16:48.076Z</time><hdop>5.375</hdop><vdop>5.75</vdop><extensions><gom:speed>0.527</gom:speed></extensions></trkpt>
   <trkpt lat="59.0682031235" lon="30.0261808955"><ele>86.774</ele><time>2026-04-20T18:16:49.038Z</time><hdop>5.5</hdop><vdop>5.625</vdop><extensions><gom:speed>0.604</gom:speed></extensions></trkpt>
   <trkpt lat="59.0681961246" lon="30.0261773751"><ele>86.765</ele><time>2026-04-20T18:16:49.985Z</time><hdop>5.625</hdop><vdop>5.5</vdop><extensions><gom:speed>0.626</gom:speed></extensions></trkpt>
   <trkpt lat="59.0681929395" lon="30.0261759501"><ele>86.76</ele><time>2026-04-20T18:16:50.696Z</time><hdop>5.75</hdop><vdop>5.5</vdop><extensions><gom:speed>0.625</gom:speed></extensions></trkpt>
   <trkpt lat="59.0681881199" lon="30.0261758663"><ele>86.766</ele><time>2026-04-20T18:16:51.360Z</time><hdop>5.75</hdop><vdop>5.5</vdop><extensions><gom:speed>0.593</gom:speed></extensions></trkpt>
   <trkpt lat="59.0681856472" lon="30.0261765369"><ele>86.843</ele><time>2026-04-20T18:16:51.999Z</time><hdop>5.875</hdop><vdop>5.5</vdop><extensions><gom:speed>0.545</gom:speed></extensions></trkpt>
   <trkpt lat="59.0681824202" lon="30.0261813146"><ele>86.818</ele><time>2026-04-20T18:16:53.076Z</time><hdop>5.875</hdop><vdop>5.375</vdop><extensions><gom:speed>0.539</gom:speed></extensions></trkpt>
   <trkpt lat="59.0681780197" lon="30.0261842482"><ele>86.803</ele><time>2026-04-20T18:16:53.996Z</time><hdop>5.875</hdop><vdop>5.375</vdop><extensions><gom:speed>0.588</gom:speed></extensions></trkpt>
   <trkpt lat="59.06817232" lon="30.0261870143"><ele>86.768</ele><time>2026-04-20T18:16:55.034Z</time><hdop>5.875</hdop><vdop>5.0</vdop><extensions><gom:speed>0.598</gom:speed></extensions></trkpt>
   <trkpt lat="59.0681678357" lon="30.0261909538"><ele>86.734</ele><time>2026-04-20T18:16:55.902Z</time><hdop>5.875</hdop><vdop>4.875</vdop><extensions><gom:speed>0.652</gom:speed></extensions></trkpt>
   <trkpt lat="59.0681651535" lon="30.026191289"><ele>86.776</ele><time>2026-04-20T18:16:56.800Z</time><hdop>5.875</hdop><vdop>4.875</vdop><extensions><gom:speed>0.679</gom:speed></extensions></trkpt>
   <trkpt lat="59.0681581546" lon="30.0261902832"><ele>86.842</ele><time>2026-04-20T18:16:57.720Z</time><hdop>6.0</hdop><vdop>4.875</vdop><extensions><gom:speed>0.68</gom:speed></extensions></trkpt>
   <trkpt lat="59.0681545504" lon="30.0261904508"><ele>86.218</ele><time>2026-04-20T18:16:58.636Z</time><hdop>6.0</hdop><vdop>4.625</vdop><extensions><gom:speed>0.676</gom:speed></extensions></trkpt>
   <trkpt lat="59.0681489345" lon="30.0261935521"><ele>85.591</ele><time>2026-04-20T18:16:59.720Z</time><hdop>6.0</hdop><vdop>4.5</vdop><extensions><gom:speed>0.696</gom:speed></extensions></trkpt>
   <trkpt lat="59.0681437377" lon="30.026198246"><ele>84.574</ele><time>2026-04-20T18:17:00.660Z</time><hdop>6.0</hdop><vdop>4.5</vdop><extensions><gom:speed>0.663</gom:speed></extensions></trkpt>
   <trkpt lat="59.0681402173" lon="30.0262028561"><ele>83.112</ele><time>2026-04-20T18:17:01.292Z</time><hdop>6.0</hdop><vdop>4.375</vdop><extensions><gom:speed>0.649</gom:speed></extensions></trkpt>
   <trkpt lat="59.0681362359" lon="30.0262048677"><ele>82.045</ele><time>2026-04-20T18:17:02.075Z</time><hdop>5.875</hdop><vdop>4.625</vdop><extensions><gom:speed>0.595</gom:speed></extensions></trkpt>
   <trkpt lat="59.0681341404" lon="30.0262045324"><ele>81.408</ele><time>2026-04-20T18:17:02.558Z</time><hdop>5.875</hdop><vdop>4.625</vdop><extensions><gom:speed>0.506</gom:speed></extensions></trkpt>
   <trkpt lat="59.0681316259" lon="30.0262057897"><ele>81.511</ele><time>2026-04-20T18:17:03.076Z</time><hdop>5.75</hdop><vdop>4.625</vdop><extensions><gom:speed>0.5</gom:speed></extensions></trkpt>
   <trkpt lat="59.0681257166" lon="30.0262083881"><ele>81.725</ele><time>2026-04-20T18:17:04.076Z</time><hdop>5.625</hdop><vdop>4.625</vdop><extensions><gom:speed>0.525</gom:speed></extensions></trkpt>
   <trkpt lat="59.0681189273" lon="30.0262095616"><ele>81.817</ele><time>2026-04-20T18:17:05.075Z</time><hdop>5.625</hdop><vdop>4.5</vdop><extensions><gom:speed>0.583</gom:speed></extensions></trkpt>
   <trkpt lat="59.0681122217" lon="30.0262145907"><ele>81.445</ele><time>2026-04-20T18:17:06.075Z</time><hdop>5.5</hdop><vdop>4.25</vdop><extensions><gom:speed>0.634</gom:speed></extensions></trkpt>
   <trkpt lat="59.0681065221" lon="30.0262215477"><ele>81.223</ele><time>2026-04-20T18:17:06.943Z</time><hdop>5.5</hdop><vdop>4.25</vdop><extensions><gom:speed>0.696</gom:speed></extensions></trkpt>
   <trkpt lat="59.068101451" lon="30.026235294"><ele>80.575</ele><time>2026-04-20T18:17:07.858Z</time><hdop>5.5</hdop><vdop>4.0</vdop><extensions><gom:speed>0.702</gom:speed></extensions></trkpt>
   <trkpt lat="59.0680958351" lon="30.0262497947"><ele>80.335</ele><time>2026-04-20T18:17:08.739Z</time><hdop>5.375</hdop><vdop>4.0</vdop><extensions><gom:speed>0.714</gom:speed></extensions></trkpt>
   <trkpt lat="59.0680912251" lon="30.0262566679"><ele>80.622</ele><time>2026-04-20T18:17:09.296Z</time><hdop>5.375</hdop><vdop>4.375</vdop><extensions><gom:speed>0.717</gom:speed></extensions></trkpt>
   <trkpt lat="59.068081544" lon="30.0262659718"><ele>81.197</ele><time>2026-04-20T18:17:10.075Z</time><hdop>5.375</hdop><vdop>4.375</vdop><extensions><gom:speed>0.746</gom:speed></extensions></trkpt>
   <trkpt lat="59.0680765567" lon="30.026268654"><ele>81.54</ele><time>2026-04-20T18:17:10.720Z</time><hdop>5.375</hdop><vdop>4.375</vdop><extensions><gom:speed>0.757</gom:speed></extensions></trkpt>
   <trkpt lat="59.0680677557" lon="30.0262743537"><ele>81.449</ele><time>2026-04-20T18:17:11.639Z</time><hdop>5.375</hdop><vdop>4.25</vdop><extensions><gom:speed>0.74</gom:speed></extensions></trkpt>
   <trkpt lat="59.0680605473" lon="30.0262804725"><ele>80.938</ele><time>2026-04-20T18:17:12.438Z</time><hdop>5.25</hdop><vdop>4.125</vdop><extensions><gom:speed>0.73</gom:speed></extensions></trkpt>
   <trkpt lat="59.0680553505" lon="30.0262870104"><ele>80.483</ele><time>2026-04-20T18:17:13.075Z</time><hdop>5.25</hdop><vdop>3.875</vdop><extensions><gom:speed>0.737</gom:speed></extensions></trkpt>
   <trkpt lat="59.0680491479" lon="30.0262953923"><ele>80.211</ele><time>2026-04-20T18:17:14.037Z</time><hdop>5.125</hdop><vdop>3.875</vdop><extensions><gom:speed>0.705</gom:speed></extensions></trkpt>
   <trkpt lat="59.0680424424" lon="30.0263000861"><ele>80.045</ele><time>2026-04-20T18:17:14.878Z</time><hdop>5.125</hdop><vdop>6.0</vdop><extensions><gom:speed>0.694</gom:speed></extensions></trkpt>
   <trkpt lat="59.0680401374" lon="30.0263007567"><ele>80.01</ele><time>2026-04-20T18:17:15.456Z</time><hdop>5.125</hdop><vdop>6.0</vdop><extensions><gom:speed>0.679</gom:speed></extensions></trkpt>
   <trkpt lat="59.068033348" lon="30.026302936"><ele>79.99</ele><time>2026-04-20T18:17:15.992Z</time><hdop>5.125</hdop><vdop>6.0</vdop><extensions><gom:speed>0.663</gom:speed></extensions></trkpt>
   <trkpt lat="59.0680288218" lon="30.0263039418"><ele>79.797</ele><time>2026-04-20T18:17:16.775Z</time><hdop>5.125</hdop><vdop>5.875</vdop><extensions><gom:speed>0.645</gom:speed></extensions></trkpt>
   <trkpt lat="59.0680226192" lon="30.0263062049"><ele>79.54</ele><time>2026-04-20T18:17:17.760Z</time><hdop>5.125</hdop><vdop>5.875</vdop><extensions><gom:speed>0.649</gom:speed></extensions></trkpt>
   <trkpt lat="59.0680169195" lon="30.0263085519"><ele>79.363</ele><time>2026-04-20T18:17:18.638Z</time><hdop>5.25</hdop><vdop>5.75</vdop><extensions><gom:speed>0.666</gom:speed></extensions></trkpt>
   <trkpt lat="59.0680110522" lon="30.0263116532"><ele>79.35</ele><time>2026-04-20T18:17:19.523Z</time><hdop>5.5</hdop><vdop>5.75</vdop><extensions><gom:speed>0.645</gom:speed></extensions></trkpt>
   <trkpt lat="59.0680089567" lon="30.0263121561"><ele>79.416</ele><time>2026-04-20T18:17:20.075Z</time><hdop>5.5</hdop><vdop>5.875</vdop><extensions><gom:speed>0.621</gom:speed></extensions></trkpt>
   <trkpt lat="59.0680041371" lon="30.026313581"><ele>79.555</ele><time>2026-04-20T18:17:21.024Z</time><hdop>5.625</hdop><vdop>5.75</vdop><extensions><gom:speed>0.605</gom:speed></extensions></trkpt>
   <trkpt lat="59.0680024188" lon="30.0263140001"><ele>79.638</ele><time>2026-04-20T18:17:21.617Z</time><hdop>5.75</hdop><vdop>5.75</vdop><extensions><gom:speed>0.607</gom:speed></extensions></trkpt>
   <trkpt lat="59.0679965515" lon="30.0263160956"><ele>79.762</ele><time>2026-04-20T18:17:22.320Z</time><hdop>5.875</hdop><vdop>5.875</vdop><extensions><gom:speed>0.612</gom:speed></extensions></trkpt>
   <trkpt lat="59.0679960486" lon="30.0263161794"><ele>80.107</ele><time>2026-04-20T18:17:23.075Z</time><hdop>6.0</hdop><vdop>5.5</vdop><extensions><gom:speed>0.543</gom:speed></extensions></trkpt>
   <trkpt lat="59.0679962162" lon="30.0263191131"><ele>80.313</ele><time>2026-04-20T18:17:23.614Z</time><hdop>6.0</hdop><vdop>5.5</vdop><extensions><gom:speed>0.511</gom:speed></extensions></trkpt>
   <trkpt lat="59.0679959228" lon="30.0263292552"><ele>80.727</ele><time>2026-04-20T18:17:24.996Z</time><hdop>6.125</hdop><vdop>5.5</vdop><extensions><gom:speed>0.45</gom:speed></extensions></trkpt>
   <trkpt lat="59.067995839" lon="30.0263285008"><ele>81.377</ele><time>2026-04-20T18:17:26.000Z</time><hdop>6.125</hdop><vdop>5.375</vdop><extensions><gom:speed>0.3</gom:speed></extensions></trkpt>
   <trkpt lat="59.0679956295" lon="30.0263270759"><ele>81.766</ele><time>2026-04-20T18:17:26.536Z</time><hdop>6.125</hdop><vdop>5.375</vdop><extensions><gom:speed>0.217</gom:speed></extensions></trkpt>
   <trkpt lat="59.0679947494" lon="30.0263248966"><ele>81.714</ele><time>2026-04-20T18:17:27.075Z</time><hdop>6.0</hdop><vdop>5.25</vdop><extensions><gom:speed>0.244</gom:speed></extensions></trkpt>
   <trkpt lat="59.0679938274" lon="30.0263234716"><ele>81.683</ele><time>2026-04-20T18:17:27.896Z</time><hdop>6.0</hdop><vdop>5.25</vdop><extensions><gom:speed>0.271</gom:speed></extensions></trkpt>
   <trkpt lat="59.0679844396" lon="30.0263249804"><ele>81.006</ele><time>2026-04-20T18:17:29.075Z</time><hdop>5.75</hdop><vdop>5.125</vdop><extensions><gom:speed>0.308</gom:speed></extensions></trkpt>
   <trkpt lat="59.0679802487" lon="30.0263246451"><ele>80.601</ele><time>2026-04-20T18:17:30.021Z</time><hdop>5.625</hdop><vdop>5.125</vdop><extensions><gom:speed>0.33</gom:speed></extensions></trkpt>
   <trkpt lat="59.067972244" lon="30.0263246451"><ele>80.532</ele><time>2026-04-20T18:17:31.075Z</time><hdop>5.5</hdop><vdop>4.75</vdop><extensions><gom:speed>0.347</gom:speed></extensions></trkpt>
   <trkpt lat="59.0679663347" lon="30.0263217953"><ele>80.97</ele><time>2026-04-20T18:17:32.075Z</time><hdop>5.25</hdop><vdop>4.75</vdop><extensions><gom:speed>0.348</gom:speed></extensions></trkpt>
   <trkpt lat="59.0679602578" lon="30.0263167661"><ele>81.811</ele><time>2026-04-20T18:17:33.075Z</time><hdop>5.125</hdop><vdop>4.625</vdop><extensions><gom:speed>0.393</gom:speed></extensions></trkpt>
   <trkpt lat="59.06795372" lon="30.0263115693"><ele>82.359</ele><time>2026-04-20T18:17:34.075Z</time><hdop>5.0</hdop><vdop>4.5</vdop><extensions><gom:speed>0.415</gom:speed></extensions></trkpt>
   <trkpt lat="59.0679474335" lon="30.0263055344"><ele>83.549</ele><time>2026-04-20T18:17:35.075Z</time><hdop>4.875</hdop><vdop>4.25</vdop><extensions><gom:speed>0.417</gom:speed></extensions></trkpt>
   <trkpt lat="59.0679394288" lon="30.0262981583"><ele>84.135</ele><time>2026-04-20T18:17:36.075Z</time><hdop>4.75</hdop><vdop>4.375</vdop><extensions><gom:speed>0.471</gom:speed></extensions></trkpt>
   <trkpt lat="59.067931927" lon="30.0262917042"><ele>84.725</ele><time>2026-04-20T18:17:37.075Z</time><hdop>4.625</hdop><vdop>4.5</vdop><extensions><gom:speed>0.484</gom:speed></extensions></trkpt>
   <trkpt lat="59.0679245509" lon="30.0262879324"><ele>84.52</ele><time>2026-04-20T18:17:38.075Z</time><hdop>4.625</hdop><vdop>4.375</vdop><extensions><gom:speed>0.52</gom:speed></extensions></trkpt>
   <trkpt lat="59.0679176359" lon="30.026287178"><ele>84.622</ele><time>2026-04-20T18:17:39.075Z</time><hdop>4.5</hdop><vdop>5.625</vdop><extensions><gom:speed>0.526</gom:speed></extensions></trkpt>
   <trkpt lat="59.0679123553" lon="30.0262839091"><ele>84.683</ele><time>2026-04-20T18:17:39.994Z</time><hdop>4.375</hdop><vdop>5.625</vdop><extensions><gom:speed>0.543</gom:speed></extensions></trkpt>
   <trkpt lat="59.0679060269" lon="30.026273767"><ele>85.021</ele><time>2026-04-20T18:17:41.020Z</time><hdop>4.375</hdop><vdop>5.375</vdop><extensions><gom:speed>0.508</gom:speed></extensions></trkpt>
   <trkpt lat="59.0679026323" lon="30.0262684864"><ele>85.252</ele><time>2026-04-20T18:17:41.937Z</time><hdop>4.375</hdop><vdop>5.25</vdop><extensions><gom:speed>0.544</gom:speed></extensions></trkpt>
   <trkpt lat="59.0678984413" lon="30.0262621999"><ele>85.358</ele><time>2026-04-20T18:17:42.780Z</time><hdop>4.375</hdop><vdop>5.375</vdop><extensions><gom:speed>0.557</gom:speed></extensions></trkpt>
   <trkpt lat="59.0678963458" lon="30.0262568355"><ele>85.554</ele><time>2026-04-20T18:17:43.358Z</time><hdop>4.5</hdop><vdop>5.375</vdop><extensions><gom:speed>0.563</gom:speed></extensions></trkpt>
   <trkpt lat="59.0678931188" lon="30.0262479507"><ele>85.286</ele><time>2026-04-20T18:17:44.075Z</time><hdop>4.5</hdop><vdop>5.375</vdop><extensions><gom:speed>0.64</gom:speed></extensions></trkpt>
   <trkpt lat="59.0678875448" lon="30.0262384791"><ele>84.58</ele><time>2026-04-20T18:17:45.075Z</time><hdop>4.5</hdop><vdop>5.25</vdop><extensions><gom:speed>0.622</gom:speed></extensions></trkpt>
   <trkpt lat="59.0678804202" lon="30.0262349587"><ele>83.395</ele><time>2026-04-20T18:17:46.075Z</time><hdop>4.625</hdop><vdop>5.25</vdop><extensions><gom:speed>0.565</gom:speed></extensions></trkpt>
   <trkpt lat="59.067872625" lon="30.0262338691"><ele>82.521</ele><time>2026-04-20T18:17:47.075Z</time><hdop>4.5</hdop><vdop>5.625</vdop><extensions><gom:speed>0.507</gom:speed></extensions></trkpt>
   <trkpt lat="59.0678683503" lon="30.0262314383"><ele>81.976</ele><time>2026-04-20T18:17:48.075Z</time><hdop>4.5</hdop><vdop>5.5</vdop><extensions><gom:speed>0.404</gom:speed></extensions></trkpt>
   <trkpt lat="59.0678650394" lon="30.0262281694"><ele>81.994</ele><time>2026-04-20T18:17:49.075Z</time><hdop>4.5</hdop><vdop>5.375</vdop><extensions><gom:speed>0.274</gom:speed></extensions></trkpt>
   <trkpt lat="59.0678651232" lon="30.0262285885"><ele>82.352</ele><time>2026-04-20T18:17:50.051Z</time><hdop>4.5</hdop><vdop>5.125</vdop><extensions><gom:speed>0.163</gom:speed></extensions></trkpt>
   <trkpt lat="59.0678636564" lon="30.0262280856"><ele>82.644</ele><time>2026-04-20T18:17:51.075Z</time><hdop>4.5</hdop><vdop>5.0</vdop><extensions><gom:speed>0.086</gom:speed></extensions></trkpt>
   <trkpt lat="59.0678634469" lon="30.0262285047"><ele>82.907</ele><time>2026-04-20T18:17:51.945Z</time><hdop>4.5</hdop><vdop>4.75</vdop><extensions><gom:speed>0.064</gom:speed></extensions></trkpt>
   <trkpt lat="59.0678637402" lon="30.0262287561"><ele>83.064</ele><time>2026-04-20T18:17:52.539Z</time><hdop>4.5</hdop><vdop>4.75</vdop><extensions><gom:speed>0.023</gom:speed></extensions></trkpt>
   <trkpt lat="59.0678616447" lon="30.0262266607"><ele>83.189</ele><time>2026-04-20T18:17:53.076Z</time><hdop>4.5</hdop><vdop>4.625</vdop><extensions><gom:speed>0.063</gom:speed></extensions></trkpt>
   <trkpt lat="59.067858753" lon="30.0262244814"><ele>83.247</ele><time>2026-04-20T18:17:54.075Z</time><hdop>4.5</hdop><vdop>4.375</vdop><extensions><gom:speed>0.101</gom:speed></extensions></trkpt>
   <trkpt lat="59.0678557355" lon="30.026221883"><ele>83.22</ele><time>2026-04-20T18:17:55.075Z</time><hdop>4.5</hdop><vdop>4.375</vdop><extensions><gom:speed>0.082</gom:speed></extensions></trkpt>
   <trkpt lat="59.0678546459" lon="30.0262219668"><ele>83.204</ele><time>2026-04-20T18:17:56.054Z</time><hdop>4.5</hdop><vdop>4.375</vdop><extensions><gom:speed>0.123</gom:speed></extensions></trkpt>
   <trkpt lat="59.0678514188" lon="30.026220961"><ele>83.227</ele><time>2026-04-20T18:17:56.955Z</time><hdop>4.5</hdop><vdop>4.25</vdop><extensions><gom:speed>0.176</gom:speed></extensions></trkpt>
   <trkpt lat="59.0678459287" lon="30.0262214639"><ele>83.53</ele><time>2026-04-20T18:17:57.812Z</time><hdop>4.5</hdop><vdop>4.125</vdop><extensions><gom:speed>0.328</gom:speed></extensions></trkpt>
   <trkpt lat="59.0678414444" lon="30.0262239784"><ele>84.147</ele><time>2026-04-20T18:17:58.817Z</time><hdop>4.375</hdop><vdop>4.0</vdop><extensions><gom:speed>0.405</gom:speed></extensions></trkpt>
   <trkpt lat="59.0678321405" lon="30.0262323604"><ele>84.79</ele><time>2026-04-20T18:18:00.054Z</time><hdop>4.25</hdop><vdop>3.875</vdop><extensions><gom:speed>0.458</gom:speed></extensions></trkpt>
   <trkpt lat="59.0678276561" lon="30.0262311869"><ele>85.266</ele><time>2026-04-20T18:18:00.697Z</time><hdop>4.25</hdop><vdop>3.75</vdop><extensions><gom:speed>0.499</gom:speed></extensions></trkpt>
   <trkpt lat="59.0678224174" lon="30.0262243975"><ele>85.589</ele><time>2026-04-20T18:18:01.840Z</time><hdop>4.125</hdop><vdop>3.625</vdop><extensions><gom:speed>0.432</gom:speed></extensions></trkpt>
   <trkpt lat="59.0678200286" lon="30.0262163509"><ele>85.83</ele><time>2026-04-20T18:18:02.917Z</time><hdop>4.0</hdop><vdop>3.625</vdop><extensions><gom:speed>0.384</gom:speed></extensions></trkpt>
   <trkpt lat="59.0678176398" lon="30.026210735"><ele>86.334</ele><time>2026-04-20T18:18:04.076Z</time><hdop>4.0</hdop><vdop>3.5</vdop><extensions><gom:speed>0.297</gom:speed></extensions></trkpt>
   <trkpt lat="59.0678148318" lon="30.0262114894"><ele>86.635</ele><time>2026-04-20T18:18:05.019Z</time><hdop>4.0</hdop><vdop>3.5</vdop><extensions><gom:speed>0.314</gom:speed></extensions></trkpt>
   <trkpt lat="59.0678117305" lon="30.0262157642"><ele>86.703</ele><time>2026-04-20T18:18:06.044Z</time><hdop>4.0</hdop><vdop>3.875</vdop><extensions><gom:speed>0.346</gom:speed></extensions></trkpt>
   <trkpt lat="59.0678106409" lon="30.0262189493"><ele>86.744</ele><time>2026-04-20T18:18:06.699Z</time><hdop>4.125</hdop><vdop>3.875</vdop><extensions><gom:speed>0.34</gom:speed></extensions></trkpt>
   <trkpt lat="59.0678081263" lon="30.0262208771"><ele>86.688</ele><time>2026-04-20T18:18:07.340Z</time><hdop>4.125</hdop><vdop>3.75</vdop><extensions><gom:speed>0.333</gom:speed></extensions></trkpt>
   <trkpt lat="59.0678053184" lon="30.0262219668"><ele>86.772</ele><time>2026-04-20T18:18:08.075Z</time><hdop>4.125</hdop><vdop>3.75</vdop><extensions><gom:speed>0.289</gom:speed></extensions></trkpt>
   <trkpt lat="59.0678037258" lon="30.0262221344"><ele>86.823</ele><time>2026-04-20T18:18:08.781Z</time><hdop>4.125</hdop><vdop>3.75</vdop><extensions><gom:speed>0.221</gom:speed></extensions></trkpt>
   <trkpt lat="59.0678024266" lon="30.0262220506"><ele>86.632</ele><time>2026-04-20T18:18:09.453Z</time><hdop>4.25</hdop><vdop>3.875</vdop><extensions><gom:speed>0.222</gom:speed></extensions></trkpt>
   <trkpt lat="59.0678005407" lon="30.026220961"><ele>86.299</ele><time>2026-04-20T18:18:10.075Z</time><hdop>4.25</hdop><vdop>3.75</vdop><extensions><gom:speed>0.225</gom:speed></extensions></trkpt>
   <trkpt lat="59.0677972298" lon="30.0262176082"><ele>85.912</ele><time>2026-04-20T18:18:11.076Z</time><hdop>4.375</hdop><vdop>3.75</vdop><extensions><gom:speed>0.219</gom:speed></extensions></trkpt>
   <trkpt lat="59.0677926198" lon="30.0262142554"><ele>85.73</ele><time>2026-04-20T18:18:12.075Z</time><hdop>4.375</hdop><vdop>3.625</vdop><extensions><gom:speed>0.263</gom:speed></extensions></trkpt>
   <trkpt lat="59.0677888479" lon="30.0262140878"><ele>85.621</ele><time>2026-04-20T18:18:12.957Z</time><hdop>4.375</hdop><vdop>3.625</vdop><extensions><gom:speed>0.343</gom:speed></extensions></trkpt>
   <trkpt lat="59.0677827291" lon="30.0262117409"><ele>85.517</ele><time>2026-04-20T18:18:13.737Z</time><hdop>4.375</hdop><vdop>3.375</vdop><extensions><gom:speed>0.442</gom:speed></extensions></trkpt>
   <trkpt lat="59.0677731319" lon="30.0262027722"><ele>85.528</ele><time>2026-04-20T18:18:15.076Z</time><hdop>4.5</hdop><vdop>3.75</vdop><extensions><gom:speed>0.415</gom:speed></extensions></trkpt>
   <trkpt lat="59.0677678513" lon="30.0261938036"><ele>85.628</ele><time>2026-04-20T18:18:16.076Z</time><hdop>4.5</hdop><vdop>4.375</vdop><extensions><gom:speed>0.417</gom:speed></extensions></trkpt>
   <trkpt lat="59.0677624449" lon="30.0261881877"><ele>85.687</ele><time>2026-04-20T18:18:16.974Z</time><hdop>4.625</hdop><vdop>4.375</vdop><extensions><gom:speed>0.519</gom:speed></extensions></trkpt>
   <trkpt lat="59.0677542307" lon="30.026184835"><ele>85.65</ele><time>2026-04-20T18:18:17.715Z</time><hdop>4.75</hdop><vdop>4.5</vdop><extensions><gom:speed>0.537</gom:speed></extensions></trkpt>
   <trkpt lat="59.0677497463" lon="30.0261844159"><ele>85.637</ele><time>2026-04-20T18:18:18.595Z</time><hdop>4.75</hdop><vdop>4.5</vdop><extensions><gom:speed>0.611</gom:speed></extensions></trkpt>
   <trkpt lat="59.0677456392" lon="30.0261837453"><ele>85.782</ele><time>2026-04-20T18:18:19.075Z</time><hdop>4.875</hdop><vdop>4.5</vdop><extensions><gom:speed>0.584</gom:speed></extensions></trkpt>
   <trkpt lat="59.0677354552" lon="30.0261841644"><ele>86.858</ele><time>2026-04-20T18:18:20.076Z</time><hdop>4.875</hdop><vdop>4.375</vdop><extensions><gom:speed>0.712</gom:speed></extensions></trkpt>
   <trkpt lat="59.0677242234" lon="30.0261871819"><ele>87.514</ele><time>2026-04-20T18:18:21.076Z</time><hdop>5.0</hdop><vdop>4.125</vdop><extensions><gom:speed>0.796</gom:speed></extensions></trkpt>
   <trkpt lat="59.067715632" lon="30.0261909538"><ele>87.905</ele><time>2026-04-20T18:18:22.000Z</time><hdop>5.0</hdop><vdop>4.125</vdop><extensions><gom:speed>0.813</gom:speed></extensions></trkpt>
   <trkpt lat="59.0677073339" lon="30.0261970725"><ele>88.144</ele><time>2026-04-20T18:18:22.783Z</time><hdop>5.0</hdop><vdop>4.0</vdop><extensions><gom:speed>0.863</gom:speed></extensions></trkpt>
   <trkpt lat="59.0677014247" lon="30.0262013473"><ele>88.147</ele><time>2026-04-20T18:18:23.459Z</time><hdop>5.0</hdop><vdop>4.0</vdop><extensions><gom:speed>0.878</gom:speed></extensions></trkpt>
   <trkpt lat="59.0676921208" lon="30.026213082"><ele>87.929</ele><time>2026-04-20T18:18:24.075Z</time><hdop>5.0</hdop><vdop>4.0</vdop><extensions><gom:speed>0.889</gom:speed></extensions></trkpt>
   <trkpt lat="59.0676889356" lon="30.0262188655"><ele>87.798</ele><time>2026-04-20T18:18:24.538Z</time><hdop>4.875</hdop><vdop>4.0</vdop><extensions><gom:speed>0.881</gom:speed></extensions></trkpt>
   <trkpt lat="59.0676842418" lon="30.0262272474"><ele>87.872</ele><time>2026-04-20T18:18:25.075Z</time><hdop>4.875</hdop><vdop>3.875</vdop><extensions><gom:speed>0.884</gom:speed></extensions></trkpt>
   <trkpt lat="59.0676757341" lon="30.0262396526"><ele>87.713</ele><time>2026-04-20T18:18:26.075Z</time><hdop>4.75</hdop><vdop>3.875</vdop><extensions><gom:speed>0.833</gom:speed></extensions></trkpt>
   <trkpt lat="59.0676666398" lon="30.0262498785"><ele>87.444</ele><time>2026-04-20T18:18:27.076Z</time><hdop>4.625</hdop><vdop>4.0</vdop><extensions><gom:speed>0.784</gom:speed></extensions></trkpt>
   <trkpt lat="59.0676596409" lon="30.0262577575"><ele>87.283</ele><time>2026-04-20T18:18:27.996Z</time><hdop>4.5</hdop><vdop>4.0</vdop><extensions><gom:speed>0.796</gom:speed></extensions></trkpt>
   <trkpt lat="59.0676498341" lon="30.0262637087"><ele>87.02</ele><time>2026-04-20T18:18:28.943Z</time><hdop>4.375</hdop><vdop>4.25</vdop><extensions><gom:speed>0.794</gom:speed></extensions></trkpt>
   <trkpt lat="59.0676447211" lon="30.0262645469"><ele>87.127</ele><time>2026-04-20T18:18:29.737Z</time><hdop>4.375</hdop><vdop>4.375</vdop><extensions><gom:speed>0.77</gom:speed></extensions></trkpt>
   <trkpt lat="59.0676302204" lon="30.0262637925"><ele>87.34</ele><time>2026-04-20T18:18:30.777Z</time><hdop>4.25</hdop><vdop>4.25</vdop><extensions><gom:speed>0.737</gom:speed></extensions></trkpt>
   <trkpt lat="59.0676249398" lon="30.0262590148"><ele>87.401</ele><time>2026-04-20T18:18:31.556Z</time><hdop>4.375</hdop><vdop>4.375</vdop><extensions><gom:speed>0.724</gom:speed></extensions></trkpt>
   <trkpt lat="59.0676205393" lon="30.0262559973"><ele>87.39</ele><time>2026-04-20T18:18:32.075Z</time><hdop>4.375</hdop><vdop>4.5</vdop><extensions><gom:speed>0.708</gom:speed></extensions></trkpt>
   <trkpt lat="59.0676165579" lon="30.0262490403"><ele>87.514</ele><time>2026-04-20T18:18:32.936Z</time><hdop>4.375</hdop><vdop>4.625</vdop><extensions><gom:speed>0.637</gom:speed></extensions></trkpt>
   <trkpt lat="59.0676178571" lon="30.0262425025"><ele>87.602</ele><time>2026-04-20T18:18:34.075Z</time><hdop>4.375</hdop><vdop>4.5</vdop><extensions><gom:speed>0.485</gom:speed></extensions></trkpt>
   <trkpt lat="59.0676177314" lon="30.0262415804"><ele>87.654</ele><time>2026-04-20T18:18:34.597Z</time><hdop>4.5</hdop><vdop>4.5</vdop><extensions><gom:speed>0.423</gom:speed></extensions></trkpt>
   <trkpt lat="59.0676149234" lon="30.0262416643"><ele>88.182</ele><time>2026-04-20T18:18:35.075Z</time><hdop>4.5</hdop><vdop>4.375</vdop><extensions><gom:speed>0.444</gom:speed></extensions></trkpt>
   <trkpt lat="59.0676125346" lon="30.0262426701"><ele>88.498</ele><time>2026-04-20T18:18:35.536Z</time><hdop>4.5</hdop><vdop>4.375</vdop><extensions><gom:speed>0.458</gom:speed></extensions></trkpt>
   <trkpt lat="59.067607254" lon="30.0262461905"><ele>89.239</ele><time>2026-04-20T18:18:36.075Z</time><hdop>4.5</hdop><vdop>4.125</vdop><extensions><gom:speed>0.494</gom:speed></extensions></trkpt>
   <trkpt lat="59.0676051166" lon="30.0262511358"><ele>89.682</ele><time>2026-04-20T18:18:36.878Z</time><hdop>4.5</hdop><vdop>4.125</vdop><extensions><gom:speed>0.456</gom:speed></extensions></trkpt>
   <trkpt lat="59.0676018477" lon="30.0262591824"><ele>89.988</ele><time>2026-04-20T18:18:37.934Z</time><hdop>4.5</hdop><vdop>4.0</vdop><extensions><gom:speed>0.37</gom:speed></extensions></trkpt>
   <trkpt lat="59.0675986206" lon="30.0262629543"><ele>90.475</ele><time>2026-04-20T18:18:38.853Z</time><hdop>4.5</hdop><vdop>4.0</vdop><extensions><gom:speed>0.394</gom:speed></extensions></trkpt>
   <trkpt lat="59.0675928371" lon="30.0262617808"><ele>90.556</ele><time>2026-04-20T18:18:39.513Z</time><hdop>4.5</hdop><vdop>3.875</vdop><extensions><gom:speed>0.519</gom:speed></extensions></trkpt>
   <trkpt lat="59.067587347" lon="30.0262611941"><ele>90.527</ele><time>2026-04-20T18:18:40.075Z</time><hdop>4.5</hdop><vdop>3.875</vdop><extensions><gom:speed>0.553</gom:speed></extensions></trkpt>
   <trkpt lat="59.067578546" lon="30.026261697"><ele>90.34</ele><time>2026-04-20T18:18:41.075Z</time><hdop>4.5</hdop><vdop>3.875</vdop><extensions><gom:speed>0.597</gom:speed></extensions></trkpt>
   <trkpt lat="59.0675717566" lon="30.0262619485"><ele>89.9</ele><time>2026-04-20T18:18:42.075Z</time><hdop>4.5</hdop><vdop>3.875</vdop><extensions><gom:speed>0.524</gom:speed></extensions></trkpt>
   <trkpt lat="59.0675678171" lon="30.0262627867"><ele>89.638</ele><time>2026-04-20T18:18:42.574Z</time><hdop>4.5</hdop><vdop>3.875</vdop><extensions><gom:speed>0.575</gom:speed></extensions></trkpt>
   <trkpt lat="59.0675634166" lon="30.0262637087"><ele>89.257</ele><time>2026-04-20T18:18:43.075Z</time><hdop>4.5</hdop><vdop>3.75</vdop><extensions><gom:speed>0.566</gom:speed></extensions></trkpt>
   <trkpt lat="59.0675578427" lon="30.0262656365"><ele>89.132</ele><time>2026-04-20T18:18:44.076Z</time><hdop>4.5</hdop><vdop>3.625</vdop><extensions><gom:speed>0.462</gom:speed></extensions></trkpt>
   <trkpt lat="59.0675539451" lon="30.02626681"><ele>89.075</ele><time>2026-04-20T18:18:45.075Z</time><hdop>4.5</hdop><vdop>3.375</vdop><extensions><gom:speed>0.335</gom:speed></extensions></trkpt>
   <trkpt lat="59.067554448" lon="30.0262666423"><ele>89.041</ele><time>2026-04-20T18:18:45.536Z</time><hdop>4.5</hdop><vdop>3.375</vdop><extensions><gom:speed>0.208</gom:speed></extensions></trkpt>
   <trkpt lat="59.0675525202" lon="30.0262668938"><ele>89.188</ele><time>2026-04-20T18:18:46.075Z</time><hdop>4.5</hdop><vdop>3.125</vdop><extensions><gom:speed>0.239</gom:speed></extensions></trkpt>
   <trkpt lat="59.0675496284" lon="30.0262689893"><ele>89.346</ele><time>2026-04-20T18:18:47.075Z</time><hdop>4.5</hdop><vdop>3.0</vdop><extensions><gom:speed>0.214</gom:speed></extensions></trkpt>
   <trkpt lat="59.0675471557" lon="30.0262704142"><ele>89.323</ele><time>2026-04-20T18:18:48.075Z</time><hdop>4.5</hdop><vdop>3.25</vdop><extensions><gom:speed>0.204</gom:speed></extensions></trkpt>
   <trkpt lat="59.0675452279" lon="30.026270498"><ele>89.264</ele><time>2026-04-20T18:18:49.048Z</time><hdop>4.5</hdop><vdop>3.625</vdop><extensions><gom:speed>0.219</gom:speed></extensions></trkpt>
   <trkpt lat="59.0675421266" lon="30.0262716715"><ele>89.086</ele><time>2026-04-20T18:18:50.075Z</time><hdop>4.5</hdop><vdop>3.75</vdop><extensions><gom:speed>0.247</gom:speed></extensions></trkpt>
   <trkpt lat="59.0675404502" lon="30.026272342"><ele>88.98</ele><time>2026-04-20T18:18:50.603Z</time><hdop>4.5</hdop><vdop>3.75</vdop><extensions><gom:speed>0.281</gom:speed></extensions></trkpt>
   <trkpt lat="59.067538229" lon="30.0262753595"><ele>88.471</ele><time>2026-04-20T18:18:51.075Z</time><hdop>4.5</hdop><vdop>4.0</vdop><extensions><gom:speed>0.301</gom:speed></extensions></trkpt>
   <trkpt lat="59.0675366365" lon="30.0262788799"><ele>88.167</ele><time>2026-04-20T18:18:51.578Z</time><hdop>4.5</hdop><vdop>4.0</vdop><extensions><gom:speed>0.342</gom:speed></extensions></trkpt>
   <trkpt lat="59.0675341219" lon="30.0262851663"><ele>87.763</ele><time>2026-04-20T18:18:52.075Z</time><hdop>4.375</hdop><vdop>4.0</vdop><extensions><gom:speed>0.376</gom:speed></extensions></trkpt>
   <trkpt lat="59.0675307272" lon="30.0262910337"><ele>87.521</ele><time>2026-04-20T18:18:52.832Z</time><hdop>4.375</hdop><vdop>4.0</vdop><extensions><gom:speed>0.468</gom:speed></extensions></trkpt>
   <trkpt lat="59.067519244" lon="30.0263085519"><ele>87.109</ele><time>2026-04-20T18:18:54.075Z</time><hdop>4.5</hdop><vdop>3.625</vdop><extensions><gom:speed>0.567</gom:speed></extensions></trkpt>
   <trkpt lat="59.0675111555" lon="30.0263217953"><ele>86.951</ele><time>2026-04-20T18:18:55.076Z</time><hdop>4.5</hdop><vdop>3.5</vdop><extensions><gom:speed>0.592</gom:speed></extensions></trkpt>
   <trkpt lat="59.0675025221" lon="30.026339062"><ele>86.834</ele><time>2026-04-20T18:18:56.075Z</time><hdop>4.5</hdop><vdop>3.5</vdop><extensions><gom:speed>0.71</gom:speed></extensions></trkpt>
   <trkpt lat="59.067494224" lon="30.0263507966"><ele>86.764</ele><time>2026-04-20T18:18:57.001Z</time><hdop>4.5</hdop><vdop>3.5</vdop><extensions><gom:speed>0.777</gom:speed></extensions></trkpt>
   <trkpt lat="59.0674850458" lon="30.0263593462"><ele>86.504</ele><time>2026-04-20T18:18:57.837Z</time><hdop>4.625</hdop><vdop>3.5</vdop><extensions><gom:speed>0.768</gom:speed></extensions></trkpt>
   <trkpt lat="59.067478047" lon="30.0263616093"><ele>86.347</ele><time>2026-04-20T18:18:58.637Z</time><hdop>4.625</hdop><vdop>3.625</vdop><extensions><gom:speed>0.77</gom:speed></extensions></trkpt>
   <trkpt lat="59.0674714252" lon="30.0263587595"><ele>86.421</ele><time>2026-04-20T18:18:59.516Z</time><hdop>4.75</hdop><vdop>3.625</vdop><extensions><gom:speed>0.757</gom:speed></extensions></trkpt>
   <trkpt lat="59.067467821" lon="30.0263580889"><ele>86.37</ele><time>2026-04-20T18:19:00.076Z</time><hdop>4.75</hdop><vdop>3.875</vdop><extensions><gom:speed>0.73</gom:speed></extensions></trkpt>
   <trkpt lat="59.0674657256" lon="30.0263564963"><ele>86.339</ele><time>2026-04-20T18:19:00.658Z</time><hdop>4.875</hdop><vdop>3.875</vdop><extensions><gom:speed>0.669</gom:speed></extensions></trkpt>
   <trkpt lat="59.0674617441" lon="30.0263485335"><ele>86.324</ele><time>2026-04-20T18:19:01.293Z</time><hdop>5.0</hdop><vdop>4.0</vdop><extensions><gom:speed>0.67</gom:speed></extensions></trkpt>
   <trkpt lat="59.0674592296" lon="30.0263490364"><ele>86.091</ele><time>2026-04-20T18:19:02.076Z</time><hdop>5.0</hdop><vdop>3.875</vdop><extensions><gom:speed>0.599</gom:speed></extensions></trkpt>
   <trkpt lat="59.0674551224" lon="30.0263552391"><ele>86.082</ele><time>2026-04-20T18:19:03.075Z</time><hdop>5.125</hdop><vdop>3.875</vdop><extensions><gom:speed>0.534</gom:speed></extensions></trkpt>
   <trkpt lat="59.0674505543" lon="30.0263635371"><ele>85.999</ele><time>2026-04-20T18:19:04.075Z</time><hdop>5.125</hdop><vdop>4.0</vdop><extensions><gom:speed>0.566</gom:speed></extensions></trkpt>
   <trkpt lat="59.0674461538" lon="30.0263699074"><ele>85.949</ele><time>2026-04-20T18:19:04.878Z</time><hdop>5.125</hdop><vdop>4.0</vdop><extensions><gom:speed>0.616</gom:speed></extensions></trkpt>
   <trkpt lat="59.0674399512" lon="30.0263790437"><ele>85.506</ele><time>2026-04-20T18:19:05.755Z</time><hdop>5.125</hdop><vdop>4.0</vdop><extensions><gom:speed>0.687</gom:speed></extensions></trkpt>
   <trkpt lat="59.0674330361" lon="30.0263850786"><ele>85.211</ele><time>2026-04-20T18:19:06.556Z</time><hdop>5.0</hdop><vdop>4.0</vdop><extensions><gom:speed>0.706</gom:speed></extensions></trkpt>
   <trkpt lat="59.0674264563" lon="30.0263878447"><ele>85.301</ele><time>2026-04-20T18:19:07.075Z</time><hdop>5.0</hdop><vdop>3.875</vdop><extensions><gom:speed>0.725</gom:speed></extensions></trkpt>
   <trkpt lat="59.0674199185" lon="30.0263899401"><ele>85.211</ele><time>2026-04-20T18:19:08.076Z</time><hdop>5.0</hdop><vdop>3.75</vdop><extensions><gom:speed>0.706</gom:speed></extensions></trkpt>
   <trkpt lat="59.0674123328" lon="30.0263933767"><ele>84.746</ele><time>2026-04-20T18:19:09.075Z</time><hdop>4.875</hdop><vdop>3.75</vdop><extensions><gom:speed>0.676</gom:speed></extensions></trkpt>
   <trkpt lat="59.067405753" lon="30.026396478"><ele>84.468</ele><time>2026-04-20T18:19:09.922Z</time><hdop>4.875</hdop><vdop>3.75</vdop><extensions><gom:speed>0.683</gom:speed></extensions></trkpt>
   <trkpt lat="59.0673996342" lon="30.0264031835"><ele>83.788</ele><time>2026-04-20T18:19:10.763Z</time><hdop>4.875</hdop><vdop>3.75</vdop><extensions><gom:speed>0.711</gom:speed></extensions></trkpt>
   <trkpt lat="59.0673942279" lon="30.0264082965"><ele>83.113</ele><time>2026-04-20T18:19:11.501Z</time><hdop>4.75</hdop><vdop>3.75</vdop><extensions><gom:speed>0.734</gom:speed></extensions></trkpt>
   <trkpt lat="59.0673895341" lon="30.0264100567"><ele>82.465</ele><time>2026-04-20T18:19:12.075Z</time><hdop>4.75</hdop><vdop>3.75</vdop><extensions><gom:speed>0.759</gom:speed></extensions></trkpt>
   <trkpt lat="59.0673856365" lon="30.0264098891"><ele>82.078</ele><time>2026-04-20T18:19:12.579Z</time><hdop>4.75</hdop><vdop>3.75</vdop><extensions><gom:speed>0.721</gom:speed></extensions></trkpt>
   <trkpt lat="59.0673803559" lon="30.026408045"><ele>81.77</ele><time>2026-04-20T18:19:13.076Z</time><hdop>4.75</hdop><vdop>3.625</vdop><extensions><gom:speed>0.71</gom:speed></extensions></trkpt>
   <trkpt lat="59.0673778413" lon="30.0264068716"><ele>81.586</ele><time>2026-04-20T18:19:13.555Z</time><hdop>4.75</hdop><vdop>3.625</vdop><extensions><gom:speed>0.69</gom:speed></extensions></trkpt>
   <trkpt lat="59.0673740275" lon="30.0264062848"><ele>81.392</ele><time>2026-04-20T18:19:14.075Z</time><hdop>4.625</hdop><vdop>3.5</vdop><extensions><gom:speed>0.716</gom:speed></extensions></trkpt>
   <trkpt lat="59.067367322" lon="30.02640947"><ele>81.633</ele><time>2026-04-20T18:19:15.076Z</time><hdop>4.625</hdop><vdop>3.25</vdop><extensions><gom:speed>0.669</gom:speed></extensions></trkpt>
   <trkpt lat="59.0673621252" lon="30.0264165108"><ele>81.777</ele><time>2026-04-20T18:19:15.993Z</time><hdop>4.625</hdop><vdop>3.25</vdop><extensions><gom:speed>0.703</gom:speed></extensions></trkpt>
   <trkpt lat="59.0673553359" lon="30.026425647"><ele>81.693</ele><time>2026-04-20T18:19:16.902Z</time><hdop>4.625</hdop><vdop>3.125</vdop><extensions><gom:speed>0.761</gom:speed></extensions></trkpt>
   <trkpt lat="59.0673491333" lon="30.026432604"><ele>81.643</ele><time>2026-04-20T18:19:17.594Z</time><hdop>4.625</hdop><vdop>3.125</vdop><extensions><gom:speed>0.808</gom:speed></extensions></trkpt>
   <trkpt lat="59.0673448166" lon="30.0264379684"><ele>81.381</ele><time>2026-04-20T18:19:18.075Z</time><hdop>4.625</hdop><vdop>3.125</vdop><extensions><gom:speed>0.829</gom:speed></extensions></trkpt>
   <trkpt lat="59.0673366442" lon="30.0264490325"><ele>81.062</ele><time>2026-04-20T18:19:19.075Z</time><hdop>4.625</hdop><vdop>2.875</vdop><extensions><gom:speed>0.85</gom:speed></extensions></trkpt>
   <trkpt lat="59.0673255382" lon="30.0264596776"><ele>80.934</ele><time>2026-04-20T18:19:20.076Z</time><hdop>4.625</hdop><vdop>2.875</vdop><extensions><gom:speed>0.867</gom:speed></extensions></trkpt>
   <trkpt lat="59.0673165277" lon="30.0264668022"><ele>81.236</ele><time>2026-04-20T18:19:21.075Z</time><hdop>4.625</hdop><vdop>3.125</vdop><extensions><gom:speed>0.819</gom:speed></extensions></trkpt>
   <trkpt lat="59.0673079362" lon="30.0264714122"><ele>81.417</ele><time>2026-04-20T18:19:22.037Z</time><hdop>4.625</hdop><vdop>3.125</vdop><extensions><gom:speed>0.8</gom:speed></extensions></trkpt>
   <trkpt lat="59.0672989257" lon="30.0264743459"><ele>81.879</ele><time>2026-04-20T18:19:22.953Z</time><hdop>4.625</hdop><vdop>3.25</vdop><extensions><gom:speed>0.789</gom:speed></extensions></trkpt>
   <trkpt lat="59.0672913401" lon="30.0264771119"><ele>82.632</ele><time>2026-04-20T18:19:23.775Z</time><hdop>4.625</hdop><vdop>3.25</vdop><extensions><gom:speed>0.773</gom:speed></extensions></trkpt>
   <trkpt lat="59.0672838383" lon="30.0264778663"><ele>83.253</ele><time>2026-04-20T18:19:24.612Z</time><hdop>4.625</hdop><vdop>3.125</vdop><extensions><gom:speed>0.772</gom:speed></extensions></trkpt>
   <trkpt lat="59.0672797311" lon="30.0264773634"><ele>83.563</ele><time>2026-04-20T18:19:25.075Z</time><hdop>4.625</hdop><vdop>3.125</vdop><extensions><gom:speed>0.759</gom:speed></extensions></trkpt>
   <trkpt lat="59.0672707206" lon="30.0264749326"><ele>83.69</ele><time>2026-04-20T18:19:26.076Z</time><hdop>4.625</hdop><vdop>3.25</vdop><extensions><gom:speed>0.751</gom:speed></extensions></trkpt>
   <trkpt lat="59.0672638474" lon="30.026473843"><ele>83.774</ele><time>2026-04-20T18:19:27.075Z</time><hdop>4.625</hdop><vdop>3.25</vdop><extensions><gom:speed>0.752</gom:speed></extensions></trkpt>
   <trkpt lat="59.0672562199" lon="30.0264722504"><ele>83.824</ele><time>2026-04-20T18:19:27.941Z</time><hdop>4.75</hdop><vdop>3.25</vdop><extensions><gom:speed>0.765</gom:speed></extensions></trkpt>
   <trkpt lat="59.0672496401" lon="30.0264714961"><ele>83.947</ele><time>2026-04-20T18:19:28.798Z</time><hdop>4.75</hdop><vdop>3.375</vdop><extensions><gom:speed>0.744</gom:speed></extensions></trkpt>
   <trkpt lat="59.0672432279" lon="30.0264712446"><ele>84.097</ele><time>2026-04-20T18:19:29.779Z</time><hdop>4.75</hdop><vdop>3.375</vdop><extensions><gom:speed>0.695</gom:speed></extensions></trkpt>
   <trkpt lat="59.0672374444" lon="30.0264733401"><ele>84.519</ele><time>2026-04-20T18:19:30.694Z</time><hdop>4.75</hdop><vdop>3.375</vdop><extensions><gom:speed>0.718</gom:speed></extensions></trkpt>
   <trkpt lat="59.0672328344" lon="30.0264778663"><ele>84.932</ele><time>2026-04-20T18:19:31.592Z</time><hdop>4.75</hdop><vdop>4.875</vdop><extensions><gom:speed>0.66</gom:speed></extensions></trkpt>
   <trkpt lat="59.0672276376" lon="30.0264823925"><ele>85.486</ele><time>2026-04-20T18:19:32.541Z</time><hdop>4.75</hdop><vdop>4.75</vdop><extensions><gom:speed>0.64</gom:speed></extensions></trkpt>
   <trkpt lat="59.0672247458" lon="30.0264840689"><ele>85.808</ele><time>2026-04-20T18:19:33.001Z</time><hdop>4.75</hdop><vdop>4.5</vdop><extensions><gom:speed>0.627</gom:speed></extensions></trkpt>
   <trkpt lat="59.0672197167" lon="30.0264833145"><ele>86.174</ele><time>2026-04-20T18:19:33.949Z</time><hdop>4.875</hdop><vdop>4.5</vdop><extensions><gom:speed>0.572</gom:speed></extensions></trkpt>
   <trkpt lat="59.06721913" lon="30.0264732562"><ele>86.523</ele><time>2026-04-20T18:19:35.075Z</time><hdop>4.875</hdop><vdop>4.75</vdop><extensions><gom:speed>0.405</gom:speed></extensions></trkpt>
   <trkpt lat="59.0672197167" lon="30.0264679757"><ele>86.659</ele><time>2026-04-20T18:19:35.963Z</time><hdop>5.0</hdop><vdop>4.875</vdop><extensions><gom:speed>0.242</gom:speed></extensions></trkpt>
   <trkpt lat="59.0672208483" lon="30.0264664669"><ele>86.884</ele><time>2026-04-20T18:19:37.029Z</time><hdop>5.125</hdop><vdop>5.125</vdop><extensions><gom:speed>0.135</gom:speed></extensions></trkpt>
   <trkpt lat="59.0672216445" lon="30.0264671375"><ele>87.019</ele><time>2026-04-20T18:19:37.740Z</time><hdop>5.125</hdop><vdop>5.125</vdop><extensions><gom:speed>0.083</gom:speed></extensions></trkpt>
   <trkpt lat="59.0672240334" lon="30.0264654611"><ele>87.03</ele><time>2026-04-20T18:19:38.724Z</time><hdop>5.25</hdop><vdop>5.25</vdop><extensions><gom:speed>0.079</gom:speed></extensions></trkpt>
   <trkpt lat="59.0672243267" lon="30.0264648743"><ele>86.908</ele><time>2026-04-20T18:19:39.779Z</time><hdop>5.125</hdop><vdop>5.375</vdop><extensions><gom:speed>0.059</gom:speed></extensions></trkpt>
   <trkpt lat="59.0672238238" lon="30.0264639523"><ele>86.808</ele><time>2026-04-20T18:19:40.833Z</time><hdop>5.125</hdop><vdop>5.375</vdop><extensions><gom:speed>0.098</gom:speed></extensions></trkpt>
   <trkpt lat="59.0672236562" lon="30.0264626951"><ele>86.648</ele><time>2026-04-20T18:19:41.554Z</time><hdop>5.0</hdop><vdop>5.375</vdop><extensions><gom:speed>0.092</gom:speed></extensions></trkpt>
   <trkpt lat="59.0672232371" lon="30.0264621083"><ele>86.605</ele><time>2026-04-20T18:19:42.005Z</time><hdop>5.0</hdop><vdop>5.5</vdop><extensions><gom:speed>0.129</gom:speed></extensions></trkpt>
   <trkpt lat="59.0672216445" lon="30.0264614378"><ele>86.84</ele><time>2026-04-20T18:19:42.953Z</time><hdop>4.875</hdop><vdop>5.5</vdop><extensions><gom:speed>0.167</gom:speed></extensions></trkpt>
   <trkpt lat="59.0672209321" lon="30.0264616054"><ele>86.981</ele><time>2026-04-20T18:19:43.902Z</time><hdop>4.875</hdop><vdop>5.5</vdop><extensions><gom:speed>0.151</gom:speed></extensions></trkpt>
   <trkpt lat="59.0672192557" lon="30.0264601805"><ele>87.245</ele><time>2026-04-20T18:19:45.076Z</time><hdop>4.875</hdop><vdop>6.0</vdop><extensions><gom:speed>0.124</gom:speed></extensions></trkpt>
   <trkpt lat="59.0672181241" lon="30.0264591747"><ele>87.514</ele><time>2026-04-20T18:19:46.033Z</time><hdop>4.75</hdop><vdop>6.375</vdop><extensions><gom:speed>0.075</gom:speed></extensions></trkpt>
   <trkpt lat="59.0672182499" lon="30.0264580012"><ele>87.709</ele><time>2026-04-20T18:19:46.981Z</time><hdop>4.75</hdop><vdop>6.625</vdop><extensions><gom:speed>0.076</gom:speed></extensions></trkpt>
   <trkpt lat="59.0672183337" lon="30.0264574145"><ele>87.835</ele><time>2026-04-20T18:19:48.047Z</time><hdop>4.75</hdop><vdop>6.75</vdop><extensions><gom:speed>0.104</gom:speed></extensions></trkpt>
   <trkpt lat="59.0672181241" lon="30.0264564924"><ele>87.926</ele><time>2026-04-20T18:19:49.113Z</time><hdop>4.75</hdop><vdop>6.875</vdop><extensions><gom:speed>0.067</gom:speed></extensions></trkpt>
   <trkpt lat="59.0672175374" lon="30.0264570792"><ele>87.98</ele><time>2026-04-20T18:19:49.659Z</time><hdop>4.75</hdop><vdop>6.875</vdop><extensions><gom:speed>0.023</gom:speed></extensions></trkpt>
   <trkpt lat="59.0672164478" lon="30.0264581688"><ele>88.019</ele><time>2026-04-20T18:19:51.043Z</time><hdop>4.875</hdop><vdop>6.75</vdop><extensions><gom:speed>0.077</gom:speed></extensions></trkpt>
   <trkpt lat="59.0672166573" lon="30.0264586717"><ele>88.047</ele><time>2026-04-20T18:19:51.920Z</time><hdop>5.0</hdop><vdop>6.5</vdop><extensions><gom:speed>0.075</gom:speed></extensions></trkpt>
   <trkpt lat="59.0672164478" lon="30.0264593423"><ele>88.095</ele><time>2026-04-20T18:19:52.780Z</time><hdop>5.0</hdop><vdop>6.375</vdop><extensions><gom:speed>0.132</gom:speed></extensions></trkpt>
   <trkpt lat="59.0672142265" lon="30.0264600128"><ele>88.127</ele><time>2026-04-20T18:19:53.697Z</time><hdop>5.125</hdop><vdop>6.25</vdop><extensions><gom:speed>0.223</gom:speed></extensions></trkpt>
   <trkpt lat="59.0672106223" lon="30.0264607672"><ele>88.161</ele><time>2026-04-20T18:19:54.635Z</time><hdop>5.375</hdop><vdop>6.125</vdop><extensions><gom:speed>0.324</gom:speed></extensions></trkpt>
   <trkpt lat="59.0672049226" lon="30.026461773"><ele>88.196</ele><time>2026-04-20T18:19:55.553Z</time><hdop>5.625</hdop><vdop>6.25</vdop><extensions><gom:speed>0.43</gom:speed></extensions></trkpt>
   <trkpt lat="59.0672012346" lon="30.0264631141"><ele>88.257</ele><time>2026-04-20T18:19:56.222Z</time><hdop>5.75</hdop><vdop>6.375</vdop><extensions><gom:speed>0.45</gom:speed></extensions></trkpt>
   <trkpt lat="59.0671951577" lon="30.0264647905"><ele>88.313</ele><time>2026-04-20T18:19:56.934Z</time><hdop>6.0</hdop><vdop>6.5</vdop><extensions><gom:speed>0.482</gom:speed></extensions></trkpt>
   <trkpt lat="59.0671892485" lon="30.0264654611"><ele>88.353</ele><time>2026-04-20T18:19:57.999Z</time><hdop>6.25</hdop><vdop>6.375</vdop><extensions><gom:speed>0.542</gom:speed></extensions></trkpt>
   <trkpt lat="59.0671824172" lon="30.026465042"><ele>88.4</ele><time>2026-04-20T18:19:58.947Z</time><hdop>6.5</hdop><vdop>6.375</vdop><extensions><gom:speed>0.585</gom:speed></extensions></trkpt>
   <trkpt lat="59.0671756279" lon="30.0264648743"><ele>88.436</ele><time>2026-04-20T18:20:00.013Z</time><hdop>6.75</hdop><vdop>6.25</vdop><extensions><gom:speed>0.628</gom:speed></extensions></trkpt>
   <trkpt lat="59.0671691319" lon="30.0264657964"><ele>88.457</ele><time>2026-04-20T18:20:00.894Z</time><hdop>7.125</hdop><vdop>6.25</vdop><extensions><gom:speed>0.697</gom:speed></extensions></trkpt>
   <trkpt lat="59.0671610434" lon="30.0264662155"><ele>88.489</ele><time>2026-04-20T18:20:01.862Z</time><hdop>7.375</hdop><vdop>6.125</vdop><extensions><gom:speed>0.743</gom:speed></extensions></trkpt>
   <trkpt lat="59.0671576487" lon="30.0264662155"><ele>88.527</ele><time>2026-04-20T18:20:02.383Z</time><hdop>7.5</hdop><vdop>6.0</vdop><extensions><gom:speed>0.762</gom:speed></extensions></trkpt>
   <trkpt lat="59.0671550503" lon="30.0264669698"><ele>88.608</ele><time>2026-04-20T18:20:03.075Z</time><hdop>7.625</hdop><vdop>5.75</vdop><extensions><gom:speed>0.767</gom:speed></extensions></trkpt>
   <trkpt lat="59.0671550503" lon="30.0264673889"><ele>88.657</ele><time>2026-04-20T18:20:03.581Z</time><hdop>7.75</hdop><vdop>5.75</vdop><extensions><gom:speed>0.788</gom:speed></extensions></trkpt>
   <trkpt lat="59.067157523" lon="30.026466886"><ele>89.53</ele><time>2026-04-20T18:20:04.075Z</time><hdop>7.625</hdop><vdop>4.375</vdop><extensions><gom:speed>0.791</gom:speed></extensions></trkpt>
   <trkpt lat="59.0671546312" lon="30.0264657964"><ele>90.652</ele><time>2026-04-20T18:20:05.075Z</time><hdop>7.5</hdop><vdop>3.875</vdop><extensions><gom:speed>0.77</gom:speed></extensions></trkpt>
   <trkpt lat="59.0671466265" lon="30.0264657964"><ele>91.4</ele><time>2026-04-20T18:20:06.076Z</time><hdop>7.125</hdop><vdop>3.375</vdop><extensions><gom:speed>0.757</gom:speed></extensions></trkpt>
   <trkpt lat="59.0671394181" lon="30.0264695682"><ele>91.847</ele><time>2026-04-20T18:20:07.016Z</time><hdop>6.625</hdop><vdop>3.375</vdop><extensions><gom:speed>0.776</gom:speed></extensions></trkpt>
   <trkpt lat="59.0671287311" lon="30.026474765"><ele>91.977</ele><time>2026-04-20T18:20:07.894Z</time><hdop>6.125</hdop><vdop>3.125</vdop><extensions><gom:speed>0.801</gom:speed></extensions></trkpt>
   <trkpt lat="59.0671220256" lon="30.0264780339"><ele>92.225</ele><time>2026-04-20T18:20:08.543Z</time><hdop>6.0</hdop><vdop>3.125</vdop><extensions><gom:speed>0.786</gom:speed></extensions></trkpt>
   <trkpt lat="59.067110752" lon="30.0264859129"><ele>92.45</ele><time>2026-04-20T18:20:09.075Z</time><hdop>5.625</hdop><vdop>3.125</vdop><extensions><gom:speed>0.802</gom:speed></extensions></trkpt>
   <trkpt lat="59.0671052199" lon="30.0264898524"><ele>92.584</ele><time>2026-04-20T18:20:09.662Z</time><hdop>5.5</hdop><vdop>3.125</vdop><extensions><gom:speed>0.817</gom:speed></extensions></trkpt>
   <trkpt lat="59.0670948263" lon="30.0265012518"><ele>92.535</ele><time>2026-04-20T18:20:10.501Z</time><hdop>5.375</hdop><vdop>3.125</vdop><extensions><gom:speed>0.83</gom:speed></extensions></trkpt>
   <trkpt lat="59.067088037" lon="30.0265098852"><ele>92.575</ele><time>2026-04-20T18:20:11.075Z</time><hdop>5.375</hdop><vdop>3.0</vdop><extensions><gom:speed>0.81</gom:speed></extensions></trkpt>
   <trkpt lat="59.0670817506" lon="30.0265213684"><ele>92.6</ele><time>2026-04-20T18:20:11.942Z</time><hdop>5.25</hdop><vdop>3.0</vdop><extensions><gom:speed>0.794</gom:speed></extensions></trkpt>
   <trkpt lat="59.0670747517" lon="30.0265338574"><ele>92.436</ele><time>2026-04-20T18:20:12.842Z</time><hdop>5.25</hdop><vdop>3.0</vdop><extensions><gom:speed>0.82</gom:speed></extensions></trkpt>
   <trkpt lat="59.0670663279" lon="30.0265408982"><ele>92.109</ele><time>2026-04-20T18:20:13.660Z</time><hdop>5.125</hdop><vdop>3.25</vdop><extensions><gom:speed>0.823</gom:speed></extensions></trkpt>
   <trkpt lat="59.0670586165" lon="30.0265419879"><ele>91.616</ele><time>2026-04-20T18:20:14.341Z</time><hdop>5.0</hdop><vdop>3.375</vdop><extensions><gom:speed>0.811</gom:speed></extensions></trkpt>
   <trkpt lat="59.0670567306" lon="30.0265422393"><ele>91.321</ele><time>2026-04-20T18:20:14.822Z</time><hdop>5.0</hdop><vdop>3.375</vdop><extensions><gom:speed>0.831</gom:speed></extensions></trkpt>
   <trkpt lat="59.0670406373" lon="30.0265412335"><ele>91.169</ele><time>2026-04-20T18:20:16.041Z</time><hdop>5.0</hdop><vdop>3.25</vdop><extensions><gom:speed>0.88</gom:speed></extensions></trkpt>
   <trkpt lat="59.0670309562" lon="30.0265408144"><ele>91.476</ele><time>2026-04-20T18:20:17.016Z</time><hdop>4.875</hdop><vdop>3.125</vdop><extensions><gom:speed>0.865</gom:speed></extensions></trkpt>
   <trkpt lat="59.0670221552" lon="30.0265368749"><ele>91.679</ele><time>2026-04-20T18:20:17.896Z</time><hdop>4.75</hdop><vdop>3.25</vdop><extensions><gom:speed>0.79</gom:speed></extensions></trkpt>
   <trkpt lat="59.0670131447" lon="30.026532181"><ele>92.094</ele><time>2026-04-20T18:20:18.961Z</time><hdop>4.75</hdop><vdop>3.25</vdop><extensions><gom:speed>0.725</gom:speed></extensions></trkpt>
   <trkpt lat="59.0670059363" lon="30.0265307561"><ele>92.241</ele><time>2026-04-20T18:20:19.721Z</time><hdop>4.625</hdop><vdop>3.375</vdop><extensions><gom:speed>0.716</gom:speed></extensions></trkpt>
   <trkpt lat="59.0669976382" lon="30.0265322648"><ele>92.638</ele><time>2026-04-20T18:20:20.542Z</time><hdop>4.625</hdop><vdop>3.375</vdop><extensions><gom:speed>0.743</gom:speed></extensions></trkpt>
   <trkpt lat="59.066992148" lon="30.0265337736"><ele>92.726</ele><time>2026-04-20T18:20:21.075Z</time><hdop>4.5</hdop><vdop>3.25</vdop><extensions><gom:speed>0.741</gom:speed></extensions></trkpt>
   <trkpt lat="59.066981042" lon="30.026533606"><ele>92.779</ele><time>2026-04-20T18:20:22.062Z</time><hdop>4.5</hdop><vdop>3.25</vdop><extensions><gom:speed>0.774</gom:speed></extensions></trkpt>
   <trkpt lat="59.0669744203" lon="30.0265320134"><ele>92.955</ele><time>2026-04-20T18:20:22.960Z</time><hdop>4.5</hdop><vdop>3.25</vdop><extensions><gom:speed>0.788</gom:speed></extensions></trkpt>
   <trkpt lat="59.0669678405" lon="30.0265276548"><ele>92.909</ele><time>2026-04-20T18:20:23.740Z</time><hdop>4.5</hdop><vdop>3.25</vdop><extensions><gom:speed>0.812</gom:speed></extensions></trkpt>
   <trkpt lat="59.0669609254" lon="30.0265199435"><ele>93.072</ele><time>2026-04-20T18:20:24.698Z</time><hdop>4.5</hdop><vdop>3.5</vdop><extensions><gom:speed>0.809</gom:speed></extensions></trkpt>
   <trkpt lat="59.066953256" lon="30.0265123997"><ele>93.23</ele><time>2026-04-20T18:20:25.795Z</time><hdop>4.5</hdop><vdop>3.375</vdop><extensions><gom:speed>0.793</gom:speed></extensions></trkpt>
   <trkpt lat="59.0669498194" lon="30.0265103881"><ele>93.363</ele><time>2026-04-20T18:20:26.415Z</time><hdop>4.5</hdop><vdop>3.25</vdop><extensions><gom:speed>0.715</gom:speed></extensions></trkpt>
   <trkpt lat="59.0669466343" lon="30.026509047"><ele>93.384</ele><time>2026-04-20T18:20:27.075Z</time><hdop>4.5</hdop><vdop>3.25</vdop><extensions><gom:speed>0.679</gom:speed></extensions></trkpt>
   <trkpt lat="59.0669409346" lon="30.0265087117"><ele>93.232</ele><time>2026-04-20T18:20:28.075Z</time><hdop>4.5</hdop><vdop>3.0</vdop><extensions><gom:speed>0.614</gom:speed></extensions></trkpt>
   <trkpt lat="59.0669363245" lon="30.0265110586"><ele>92.949</ele><time>2026-04-20T18:20:29.075Z</time><hdop>4.5</hdop><vdop>2.875</vdop><extensions><gom:speed>0.681</gom:speed></extensions></trkpt>
   <trkpt lat="59.066929619" lon="30.0265121483"><ele>92.78</ele><time>2026-04-20T18:20:30.020Z</time><hdop>4.625</hdop><vdop>2.875</vdop><extensions><gom:speed>0.728</gom:speed></extensions></trkpt>
   <trkpt lat="59.0669220334" lon="30.0265114777"><ele>92.601</ele><time>2026-04-20T18:20:30.956Z</time><hdop>4.625</hdop><vdop>3.0</vdop><extensions><gom:speed>0.703</gom:speed></extensions></trkpt>
   <trkpt lat="59.0669144478" lon="30.0265114777"><ele>92.829</ele><time>2026-04-20T18:20:32.013Z</time><hdop>4.625</hdop><vdop>3.0</vdop><extensions><gom:speed>0.679</gom:speed></extensions></trkpt>
   <trkpt lat="59.0669073232" lon="30.0265116454"><ele>93.088</ele><time>2026-04-20T18:20:32.923Z</time><hdop>4.625</hdop><vdop>2.875</vdop><extensions><gom:speed>0.701</gom:speed></extensions></trkpt>
   <trkpt lat="59.0669038447" lon="30.0265113101"><ele>92.78</ele><time>2026-04-20T18:20:33.540Z</time><hdop>4.625</hdop><vdop>2.875</vdop><extensions><gom:speed>0.731</gom:speed></extensions></trkpt>
   <trkpt lat="59.06689584" lon="30.026507203"><ele>92.545</ele><time>2026-04-20T18:20:34.075Z</time><hdop>4.625</hdop><vdop>3.0</vdop><extensions><gom:speed>0.73</gom:speed></extensions></trkpt>
   <trkpt lat="59.0668876257" lon="30.0265033473"><ele>92.535</ele><time>2026-04-20T18:20:35.075Z</time><hdop>4.625</hdop><vdop>3.25</vdop><extensions><gom:speed>0.753</gom:speed></extensions></trkpt>
   <trkpt lat="59.0668789504" lon="30.0265004136"><ele>92.743</ele><time>2026-04-20T18:20:36.076Z</time><hdop>4.625</hdop><vdop>3.125</vdop><extensions><gom:speed>0.74</gom:speed></extensions></trkpt>
   <trkpt lat="59.0668690179" lon="30.02650209"><ele>92.882</ele><time>2026-04-20T18:20:37.076Z</time><hdop>4.625</hdop><vdop>3.0</vdop><extensions><gom:speed>0.754</gom:speed></extensions></trkpt>
   <trkpt lat="59.0668609293" lon="30.0265043531"><ele>92.965</ele><time>2026-04-20T18:20:37.995Z</time><hdop>4.625</hdop><vdop>3.0</vdop><extensions><gom:speed>0.764</gom:speed></extensions></trkpt>
   <trkpt lat="59.0668519188" lon="30.0265096337"><ele>92.794</ele><time>2026-04-20T18:20:38.954Z</time><hdop>4.5</hdop><vdop>3.125</vdop><extensions><gom:speed>0.746</gom:speed></extensions></trkpt>
   <trkpt lat="59.0668437464" lon="30.0265141599"><ele>92.603</ele><time>2026-04-20T18:20:39.813Z</time><hdop>4.5</hdop><vdop>3.0</vdop><extensions><gom:speed>0.719</gom:speed></extensions></trkpt>
   <trkpt lat="59.0668343168" lon="30.026512735"><ele>91.804</ele><time>2026-04-20T18:20:40.741Z</time><hdop>4.5</hdop><vdop>2.875</vdop><extensions><gom:speed>0.731</gom:speed></extensions></trkpt>
   <trkpt lat="59.0668244261" lon="30.0265104719"><ele>91.297</ele><time>2026-04-20T18:20:41.737Z</time><hdop>4.5</hdop><vdop>2.875</vdop><extensions><gom:speed>0.726</gom:speed></extensions></trkpt>
   <trkpt lat="59.0668169243" lon="30.026507203"><ele>90.539</ele><time>2026-04-20T18:20:42.656Z</time><hdop>4.5</hdop><vdop>2.875</vdop><extensions><gom:speed>0.683</gom:speed></extensions></trkpt>
   <trkpt lat="59.0668117276" lon="30.0265046884"><ele>90.145</ele><time>2026-04-20T18:20:43.376Z</time><hdop>4.5</hdop><vdop>2.875</vdop><extensions><gom:speed>0.66</gom:speed></extensions></trkpt>
   <trkpt lat="59.0668066565" lon="30.0265033473"><ele>89.553</ele><time>2026-04-20T18:20:44.076Z</time><hdop>4.5</hdop><vdop>2.625</vdop><extensions><gom:speed>0.681</gom:speed></extensions></trkpt>
   <trkpt lat="59.0667981489" lon="30.0265035149"><ele>89.394</ele><time>2026-04-20T18:20:45.075Z</time><hdop>4.5</hdop><vdop>2.625</vdop><extensions><gom:speed>0.733</gom:speed></extensions></trkpt>
   <trkpt lat="59.0667913176" lon="30.0265044369"><ele>89.3</ele><time>2026-04-20T18:20:45.933Z</time><hdop>4.5</hdop><vdop>2.625</vdop><extensions><gom:speed>0.741</gom:speed></extensions></trkpt>
   <trkpt lat="59.0667827262" lon="30.0265028444"><ele>89.25</ele><time>2026-04-20T18:20:46.861Z</time><hdop>4.5</hdop><vdop>2.875</vdop><extensions><gom:speed>0.703</gom:speed></extensions></trkpt>
   <trkpt lat="59.0667783257" lon="30.0265006651"><ele>88.967</ele><time>2026-04-20T18:20:47.641Z</time><hdop>4.5</hdop><vdop>2.875</vdop><extensions><gom:speed>0.67</gom:speed></extensions></trkpt>
   <trkpt lat="59.0667734223" lon="30.0264975638"><ele>88.426</ele><time>2026-04-20T18:20:48.443Z</time><hdop>4.375</hdop><vdop>3.0</vdop><extensions><gom:speed>0.686</gom:speed></extensions></trkpt>
   <trkpt lat="59.0667692313" lon="30.0264950492"><ele>87.935</ele><time>2026-04-20T18:20:49.075Z</time><hdop>4.375</hdop><vdop>3.0</vdop><extensions><gom:speed>0.684</gom:speed></extensions></trkpt>
   <trkpt lat="59.0667630287" lon="30.0264911935"><ele>87.743</ele><time>2026-04-20T18:20:50.075Z</time><hdop>4.375</hdop><vdop>3.0</vdop><extensions><gom:speed>0.663</gom:speed></extensions></trkpt>
   <trkpt lat="59.0667581253" lon="30.0264887628"><ele>87.789</ele><time>2026-04-20T18:20:51.075Z</time><hdop>4.375</hdop><vdop>2.875</vdop><extensions><gom:speed>0.595</gom:speed></extensions></trkpt>
   <trkpt lat="59.0667531381" lon="30.026489601"><ele>87.725</ele><time>2026-04-20T18:20:52.075Z</time><hdop>4.375</hdop><vdop>2.875</vdop><extensions><gom:speed>0.561</gom:speed></extensions></trkpt>
   <trkpt lat="59.0667478575" lon="30.0264930375"><ele>87.631</ele><time>2026-04-20T18:20:53.076Z</time><hdop>4.375</hdop><vdop>2.875</vdop><extensions><gom:speed>0.554</gom:speed></extensions></trkpt>
   <trkpt lat="59.0667440437" lon="30.0264944625"><ele>87.433</ele><time>2026-04-20T18:20:54.075Z</time><hdop>4.375</hdop><vdop>3.0</vdop><extensions><gom:speed>0.512</gom:speed></extensions></trkpt>
   <trkpt lat="59.0667400204" lon="30.0264954683"><ele>87.513</ele><time>2026-04-20T18:20:55.075Z</time><hdop>4.375</hdop><vdop>3.125</vdop><extensions><gom:speed>0.496</gom:speed></extensions></trkpt>
   <trkpt lat="59.0667367514" lon="30.026497899"><ele>87.08</ele><time>2026-04-20T18:20:56.076Z</time><hdop>4.25</hdop><vdop>3.25</vdop><extensions><gom:speed>0.455</gom:speed></extensions></trkpt>
   <trkpt lat="59.0667322252" lon="30.0264996592"><ele>86.821</ele><time>2026-04-20T18:20:57.020Z</time><hdop>4.25</hdop><vdop>3.25</vdop><extensions><gom:speed>0.492</gom:speed></extensions></trkpt>
   <trkpt lat="59.0667289563" lon="30.0265041855"><ele>86.342</ele><time>2026-04-20T18:20:58.075Z</time><hdop>4.25</hdop><vdop>3.5</vdop><extensions><gom:speed>0.518</gom:speed></extensions></trkpt>
   <trkpt lat="59.0667254359" lon="30.0265073706"><ele>86.533</ele><time>2026-04-20T18:20:59.075Z</time><hdop>4.25</hdop><vdop>3.375</vdop><extensions><gom:speed>0.444</gom:speed></extensions></trkpt>
   <trkpt lat="59.0667246396" lon="30.0265115615"><ele>86.715</ele><time>2026-04-20T18:21:00.075Z</time><hdop>4.25</hdop><vdop>3.375</vdop><extensions><gom:speed>0.375</gom:speed></extensions></trkpt>
   <trkpt lat="59.0667239271" lon="30.0265147467"><ele>86.774</ele><time>2026-04-20T18:21:01.026Z</time><hdop>4.25</hdop><vdop>3.625</vdop><extensions><gom:speed>0.26</gom:speed></extensions></trkpt>
   <trkpt lat="59.0667239271" lon="30.0265163392"><ele>87.045</ele><time>2026-04-20T18:21:02.075Z</time><hdop>4.25</hdop><vdop>3.75</vdop><extensions><gom:speed>0.188</gom:speed></extensions></trkpt>
   <trkpt lat="59.0667248491" lon="30.0265149143"><ele>87.269</ele><time>2026-04-20T18:21:03.075Z</time><hdop>4.375</hdop><vdop>8.125</vdop><extensions><gom:speed>0.184</gom:speed></extensions></trkpt>
   <trkpt lat="59.066725855" lon="30.0265120645"><ele>87.537</ele><time>2026-04-20T18:21:04.075Z</time><hdop>4.375</hdop><vdop>7.875</vdop><extensions><gom:speed>0.168</gom:speed></extensions></trkpt>
   <trkpt lat="59.0667254359" lon="30.0265092984"><ele>87.725</ele><time>2026-04-20T18:21:04.936Z</time><hdop>4.5</hdop><vdop>7.625</vdop><extensions><gom:speed>0.203</gom:speed></extensions></trkpt>
   <trkpt lat="59.0667247234" lon="30.0265083764"><ele>87.837</ele><time>2026-04-20T18:21:05.561Z</time><hdop>4.5</hdop><vdop>7.625</vdop><extensions><gom:speed>0.2</gom:speed></extensions></trkpt>
   <trkpt lat="59.0667247234" lon="30.0265063648"><ele>87.957</ele><time>2026-04-20T18:21:06.075Z</time><hdop>4.5</hdop><vdop>7.25</vdop><extensions><gom:speed>0.221</gom:speed></extensions></trkpt>
   <trkpt lat="59.0667235499" lon="30.0265027605"><ele>87.985</ele><time>2026-04-20T18:21:06.950Z</time><hdop>4.625</hdop><vdop>7.0</vdop><extensions><gom:speed>0.249</gom:speed></extensions></trkpt>
   <trkpt lat="59.0667220412" lon="30.0264959712"><ele>88.108</ele><time>2026-04-20T18:21:08.075Z</time><hdop>4.75</hdop><vdop>7.25</vdop><extensions><gom:speed>0.319</gom:speed></extensions></trkpt>
   <trkpt lat="59.0667210354" lon="30.0264918641"><ele>88.182</ele><time>2026-04-20T18:21:08.720Z</time><hdop>4.75</hdop><vdop>7.25</vdop><extensions><gom:speed>0.318</gom:speed></extensions></trkpt>
   <trkpt lat="59.0667190237" lon="30.0264850747"><ele>88.287</ele><time>2026-04-20T18:21:09.479Z</time><hdop>5.0</hdop><vdop>7.375</vdop><extensions><gom:speed>0.425</gom:speed></extensions></trkpt>
   <trkpt lat="59.066717054" lon="30.026480297"><ele>88.322</ele><time>2026-04-20T18:21:10.030Z</time><hdop>5.0</hdop><vdop>7.375</vdop><extensions><gom:speed>0.427</gom:speed></extensions></trkpt>
   <trkpt lat="59.0667137431" lon="30.0264758546"><ele>88.343</ele><time>2026-04-20T18:21:10.622Z</time><hdop>5.125</hdop><vdop>7.375</vdop><extensions><gom:speed>0.499</gom:speed></extensions></trkpt>
   <trkpt lat="59.0667118572" lon="30.0264715799"><ele>88.426</ele><time>2026-04-20T18:21:11.076Z</time><hdop>5.25</hdop><vdop>7.25</vdop><extensions><gom:speed>0.468</gom:speed></extensions></trkpt>
   <trkpt lat="59.0667085463" lon="30.0264683947"><ele>88.476</ele><time>2026-04-20T18:21:12.058Z</time><hdop>5.375</hdop><vdop>7.25</vdop><extensions><gom:speed>0.502</gom:speed></extensions></trkpt>
   <trkpt lat="59.0667038525" lon="30.0264660478"><ele>88.276</ele><time>2026-04-20T18:21:12.993Z</time><hdop>5.5</hdop><vdop>6.75</vdop><extensions><gom:speed>0.502</gom:speed></extensions></trkpt>
   <trkpt lat="59.0667011283" lon="30.0264652934"><ele>88.157</ele><time>2026-04-20T18:21:13.597Z</time><hdop>5.75</hdop><vdop>6.75</vdop><extensions><gom:speed>0.476</gom:speed></extensions></trkpt>
   <trkpt lat="59.0666983204" lon="30.0264640362"><ele>88.078</ele><time>2026-04-20T18:21:14.218Z</time><hdop>5.875</hdop><vdop>6.75</vdop><extensions><gom:speed>0.476</gom:speed></extensions></trkpt>
   <trkpt lat="59.06669853" lon="30.0264633656"><ele>88.041</ele><time>2026-04-20T18:21:15.076Z</time><hdop>5.875</hdop><vdop>6.875</vdop><extensions><gom:speed>0.428</gom:speed></extensions></trkpt>
   <trkpt lat="59.0666982366" lon="30.0264637009"><ele>88.075</ele><time>2026-04-20T18:21:15.953Z</time><hdop>6.0</hdop><vdop>6.75</vdop><extensions><gom:speed>0.363</gom:speed></extensions></trkpt>
   <trkpt lat="59.0666974403" lon="30.026463198"><ele>88.094</ele><time>2026-04-20T18:21:16.902Z</time><hdop>6.125</hdop><vdop>6.75</vdop><extensions><gom:speed>0.359</gom:speed></extensions></trkpt>
   <trkpt lat="59.0666981528" lon="30.026459007"><ele>88.139</ele><time>2026-04-20T18:21:17.457Z</time><hdop>6.125</hdop><vdop>6.25</vdop><extensions><gom:speed>0.324</gom:speed></extensions></trkpt>
   <trkpt lat="59.0666981528" lon="30.0264539779"><ele>89.062</ele><time>2026-04-20T18:21:18.075Z</time><hdop>6.125</hdop><vdop>5.875</vdop><extensions><gom:speed>0.335</gom:speed></extensions></trkpt>
   <trkpt lat="59.0666963507" lon="30.0264435005"><ele>89.576</ele><time>2026-04-20T18:21:19.075Z</time><hdop>6.0</hdop><vdop>5.375</vdop><extensions><gom:speed>0.386</gom:speed></extensions></trkpt>
   <trkpt lat="59.0666954287" lon="30.0264394772"><ele>89.882</ele><time>2026-04-20T18:21:19.560Z</time><hdop>5.875</hdop><vdop>5.375</vdop><extensions><gom:speed>0.373</gom:speed></extensions></trkpt>
   <trkpt lat="59.0666933332" lon="30.0264336937"><ele>91.213</ele><time>2026-04-20T18:21:20.075Z</time><hdop>5.875</hdop><vdop>5.25</vdop><extensions><gom:speed>0.384</gom:speed></extensions></trkpt>
   <trkpt lat="59.0666884298" lon="30.0264279102"><ele>92.136</ele><time>2026-04-20T18:21:21.075Z</time><hdop>5.75</hdop><vdop>4.25</vdop><extensions><gom:speed>0.348</gom:speed></extensions></trkpt>
   <trkpt lat="59.0666812213" lon="30.0264264014"><ele>91.004</ele><time>2026-04-20T18:21:22.075Z</time><hdop>5.5</hdop><vdop>5.75</vdop><extensions><gom:speed>0.348</gom:speed></extensions></trkpt>
   <trkpt lat="59.0666735519" lon="30.0264238868"><ele>90.171</ele><time>2026-04-20T18:21:23.075Z</time><hdop>5.25</hdop><vdop>5.75</vdop><extensions><gom:speed>0.336</gom:speed></extensions></trkpt>
   <trkpt lat="59.0666671397" lon="30.0264187739"><ele>89.5</ele><time>2026-04-20T18:21:24.076Z</time><hdop>5.125</hdop><vdop>6.0</vdop><extensions><gom:speed>0.267</gom:speed></extensions></trkpt>
   <trkpt lat="59.0666660501" lon="30.026417349"><ele>89.366</ele><time>2026-04-20T18:21:24.957Z</time><hdop>5.0</hdop><vdop>6.125</vdop><extensions><gom:speed>0.195</gom:speed></extensions></trkpt>
   <trkpt lat="59.0666659244" lon="30.026417349"><ele>89.287</ele><time>2026-04-20T18:21:25.513Z</time><hdop>4.875</hdop><vdop>6.125</vdop><extensions><gom:speed>0.154</gom:speed></extensions></trkpt>
   <trkpt lat="59.0666625297" lon="30.0264144991"><ele>89.455</ele><time>2026-04-20T18:21:26.075Z</time><hdop>4.875</hdop><vdop>6.375</vdop><extensions><gom:speed>0.173</gom:speed></extensions></trkpt>
   <trkpt lat="59.066660518" lon="30.0264137447"><ele>89.556</ele><time>2026-04-20T18:21:26.737Z</time><hdop>4.875</hdop><vdop>6.375</vdop><extensions><gom:speed>0.157</gom:speed></extensions></trkpt>
   <trkpt lat="59.0666588416" lon="30.0264134095"><ele>89.828</ele><time>2026-04-20T18:21:27.836Z</time><hdop>4.875</hdop><vdop>6.625</vdop><extensions><gom:speed>0.168</gom:speed></extensions></trkpt>
   <trkpt lat="59.066653142" lon="30.0264087156"><ele>90.519</ele><time>2026-04-20T18:21:28.899Z</time><hdop>4.875</hdop><vdop>6.625</vdop><extensions><gom:speed>0.188</gom:speed></extensions></trkpt>
   <trkpt lat="59.0666490348" lon="30.0264064525"><ele>91.422</ele><time>2026-04-20T18:21:29.935Z</time><hdop>5.0</hdop><vdop>6.5</vdop><extensions><gom:speed>0.247</gom:speed></extensions></trkpt>
   <trkpt lat="59.0666422455" lon="30.0263984059"><ele>92.333</ele><time>2026-04-20T18:21:30.933Z</time><hdop>5.0</hdop><vdop>6.25</vdop><extensions><gom:speed>0.358</gom:speed></extensions></trkpt>
   <trkpt lat="59.0666379288" lon="30.0263919518"><ele>93.231</ele><time>2026-04-20T18:21:31.940Z</time><hdop>5.125</hdop><vdop>6.25</vdop><extensions><gom:speed>0.463</gom:speed></extensions></trkpt>
   <trkpt lat="59.0666312233" lon="30.0263823964"><ele>93.98</ele><time>2026-04-20T18:21:32.917Z</time><hdop>5.25</hdop><vdop>6.25</vdop><extensions><gom:speed>0.506</gom:speed></extensions></trkpt>
   <trkpt lat="59.0666250207" lon="30.0263792951"><ele>94.668</ele><time>2026-04-20T18:21:33.915Z</time><hdop>5.375</hdop><vdop>6.25</vdop><extensions><gom:speed>0.568</gom:speed></extensions></trkpt>
   <trkpt lat="59.0666183571" lon="30.0263789598"><ele>94.597</ele><time>2026-04-20T18:21:34.981Z</time><hdop>5.625</hdop><vdop>6.25</vdop><extensions><gom:speed>0.573</gom:speed></extensions></trkpt>
   <trkpt lat="59.0666118192" lon="30.0263794628"><ele>94.565</ele><time>2026-04-20T18:21:36.075Z</time><hdop>5.875</hdop><vdop>6.375</vdop><extensions><gom:speed>0.439</gom:speed></extensions></trkpt>
   <trkpt lat="59.0666096399" lon="30.0263815582"><ele>94.501</ele><time>2026-04-20T18:21:37.041Z</time><hdop>5.875</hdop><vdop>6.375</vdop><extensions><gom:speed>0.395</gom:speed></extensions></trkpt>
   <trkpt lat="59.0666064547" lon="30.0263828155"><ele>94.411</ele><time>2026-04-20T18:21:37.989Z</time><hdop>6.0</hdop><vdop>6.25</vdop><extensions><gom:speed>0.382</gom:speed></extensions></trkpt>
   <trkpt lat="59.0666030182" lon="30.026383067"><ele>94.479</ele><time>2026-04-20T18:21:38.937Z</time><hdop>6.125</hdop><vdop>6.25</vdop><extensions><gom:speed>0.378</gom:speed></extensions></trkpt>
   <trkpt lat="59.0665996235" lon="30.0263832346"><ele>94.562</ele><time>2026-04-20T18:21:40.003Z</time><hdop>6.25</hdop><vdop>6.125</vdop><extensions><gom:speed>0.349</gom:speed></extensions></trkpt>
   <trkpt lat="59.0665964384" lon="30.0263808877"><ele>94.63</ele><time>2026-04-20T18:21:40.951Z</time><hdop>6.25</hdop><vdop>6.25</vdop><extensions><gom:speed>0.369</gom:speed></extensions></trkpt>
   <trkpt lat="59.0665956421" lon="30.0263790437"><ele>94.67</ele><time>2026-04-20T18:21:41.517Z</time><hdop>6.375</hdop><vdop>6.25</vdop><extensions><gom:speed>0.343</gom:speed></extensions></trkpt>
   <trkpt lat="59.06659384" lon="30.0263747689"><ele>94.701</ele><time>2026-04-20T18:21:42.017Z</time><hdop>6.5</hdop><vdop>6.125</vdop><extensions><gom:speed>0.35</gom:speed></extensions></trkpt>
   <trkpt lat="59.0665925408" lon="30.0263736792"><ele>94.719</ele><time>2026-04-20T18:21:42.684Z</time><hdop>6.625</hdop><vdop>6.125</vdop><extensions><gom:speed>0.337</gom:speed></extensions></trkpt>
   <trkpt lat="59.0665918283" lon="30.0263699074"><ele>94.274</ele><time>2026-04-20T18:21:43.718Z</time><hdop>6.75</hdop><vdop>6.0</vdop><extensions><gom:speed>0.319</gom:speed></extensions></trkpt>
   <trkpt lat="59.0665890204" lon="30.0263664708"><ele>94.487</ele><time>2026-04-20T18:21:44.597Z</time><hdop>6.625</hdop><vdop>4.5</vdop><extensions><gom:speed>0.349</gom:speed></extensions></trkpt>
   <trkpt lat="59.0665854162" lon="30.026364543"><ele>92.855</ele><time>2026-04-20T18:21:45.075Z</time><hdop>6.625</hdop><vdop>4.375</vdop><extensions><gom:speed>0.365</gom:speed></extensions></trkpt>
   <trkpt lat="59.0665817281" lon="30.0263630342"><ele>91.88</ele><time>2026-04-20T18:21:45.594Z</time><hdop>6.5</hdop><vdop>4.375</vdop><extensions><gom:speed>0.439</gom:speed></extensions></trkpt>
   <trkpt lat="59.0665770343" lon="30.0263622799"><ele>90.892</ele><time>2026-04-20T18:21:46.075Z</time><hdop>6.375</hdop><vdop>4.25</vdop><extensions><gom:speed>0.447</gom:speed></extensions></trkpt>
   <trkpt lat="59.0665680237" lon="30.0263616093"><ele>89.864</ele><time>2026-04-20T18:21:47.075Z</time><hdop>6.0</hdop><vdop>4.25</vdop><extensions><gom:speed>0.505</gom:speed></extensions></trkpt>
   <trkpt lat="59.0665645452" lon="30.026360352"><ele>89.25</ele><time>2026-04-20T18:21:47.704Z</time><hdop>5.875</hdop><vdop>4.25</vdop><extensions><gom:speed>0.524</gom:speed></extensions></trkpt>
   <trkpt lat="59.0665561214" lon="30.0263559096"><ele>88.506</ele><time>2026-04-20T18:21:48.457Z</time><hdop>5.5</hdop><vdop>4.25</vdop><extensions><gom:speed>0.537</gom:speed></extensions></trkpt>
   <trkpt lat="59.0665513437" lon="30.0263529759"><ele>88.206</ele><time>2026-04-20T18:21:49.075Z</time><hdop>5.375</hdop><vdop>4.5</vdop><extensions><gom:speed>0.537</gom:speed></extensions></trkpt>
   <trkpt lat="59.0665428361" lon="30.0263490364"><ele>88.939</ele><time>2026-04-20T18:21:50.075Z</time><hdop>5.25</hdop><vdop>4.125</vdop><extensions><gom:speed>0.569</gom:speed></extensions></trkpt>
   <trkpt lat="59.0665335322" lon="30.026348785"><ele>89.092</ele><time>2026-04-20T18:21:51.075Z</time><hdop>5.0</hdop><vdop>4.0</vdop><extensions><gom:speed>0.599</gom:speed></extensions></trkpt>
   <trkpt lat="59.0665238511" lon="30.0263519701"><ele>88.971</ele><time>2026-04-20T18:21:52.075Z</time><hdop>4.875</hdop><vdop>3.875</vdop><extensions><gom:speed>0.605</gom:speed></extensions></trkpt>
   <trkpt lat="59.0665150501" lon="30.0263565802"><ele>89.579</ele><time>2026-04-20T18:21:53.075Z</time><hdop>4.75</hdop><vdop>3.75</vdop><extensions><gom:speed>0.584</gom:speed></extensions></trkpt>
   <trkpt lat="59.0665129546" lon="30.0263572507"><ele>89.943</ele><time>2026-04-20T18:21:53.865Z</time><hdop>4.75</hdop><vdop>3.75</vdop><extensions><gom:speed>0.574</gom:speed></extensions></trkpt>
   <trkpt lat="59.0665037345" lon="30.0263599329"><ele>90.701</ele><time>2026-04-20T18:21:54.459Z</time><hdop>4.75</hdop><vdop>3.5</vdop><extensions><gom:speed>0.503</gom:speed></extensions></trkpt>
   <trkpt lat="59.0664986216" lon="30.0263616931"><ele>91.48</ele><time>2026-04-20T18:21:55.075Z</time><hdop>4.625</hdop><vdop>3.625</vdop><extensions><gom:speed>0.512</gom:speed></extensions></trkpt>
   <trkpt lat="59.0664922513" lon="30.0263640401"><ele>91.839</ele><time>2026-04-20T18:21:56.076Z</time><hdop>4.625</hdop><vdop>3.375</vdop><extensions><gom:speed>0.461</gom:speed></extensions></trkpt>
   <trkpt lat="59.0664877251" lon="30.0263639562"><ele>92.161</ele><time>2026-04-20T18:21:57.075Z</time><hdop>4.625</hdop><vdop>6.25</vdop><extensions><gom:speed>0.307</gom:speed></extensions></trkpt>
   <trkpt lat="59.0664839532" lon="30.0263618608"><ele>92.377</ele><time>2026-04-20T18:21:58.075Z</time><hdop>4.625</hdop><vdop>6.25</vdop><extensions><gom:speed>0.244</gom:speed></extensions></trkpt>
   <trkpt lat="59.0664811453" lon="30.0263596815"><ele>92.399</ele><time>2026-04-20T18:21:58.959Z</time><hdop>4.5</hdop><vdop>6.25</vdop><extensions><gom:speed>0.24</gom:speed></extensions></trkpt>
   <trkpt lat="59.0664765353" lon="30.0263572507"><ele>92.383</ele><time>2026-04-20T18:22:00.075Z</time><hdop>4.5</hdop><vdop>6.125</vdop><extensions><gom:speed>0.241</gom:speed></extensions></trkpt>
   <trkpt lat="59.0664720509" lon="30.0263554905"><ele>92.374</ele><time>2026-04-20T18:22:00.976Z</time><hdop>4.5</hdop><vdop>6.125</vdop><extensions><gom:speed>0.32</gom:speed></extensions></trkpt>
   <trkpt lat="59.06646413" lon="30.0263521377"><ele>92.331</ele><time>2026-04-20T18:22:02.013Z</time><hdop>4.625</hdop><vdop>5.875</vdop><extensions><gom:speed>0.556</gom:speed></extensions></trkpt>
   <trkpt lat="59.0664548261" lon="30.0263473601"><ele>92.37</ele><time>2026-04-20T18:22:02.674Z</time><hdop>4.75</hdop><vdop>5.75</vdop><extensions><gom:speed>0.705</gom:speed></extensions></trkpt>
   <trkpt lat="59.0664468214" lon="30.0263407384"><ele>92.356</ele><time>2026-04-20T18:22:03.534Z</time><hdop>5.0</hdop><vdop>5.625</vdop><extensions><gom:speed>0.754</gom:speed></extensions></trkpt>
   <trkpt lat="59.066441918" lon="30.0263373856"><ele>92.229</ele><time>2026-04-20T18:22:04.075Z</time><hdop>5.0</hdop><vdop>5.25</vdop><extensions><gom:speed>0.748</gom:speed></extensions></trkpt>
   <trkpt lat="59.066433117" lon="30.0263316021"><ele>92.217</ele><time>2026-04-20T18:22:05.075Z</time><hdop>5.125</hdop><vdop>5.5</vdop><extensions><gom:speed>0.788</gom:speed></extensions></trkpt>
   <trkpt lat="59.0664279202" lon="30.0263282493"><ele>92.21</ele><time>2026-04-20T18:22:05.655Z</time><hdop>5.25</hdop><vdop>5.5</vdop><extensions><gom:speed>0.788</gom:speed></extensions></trkpt>
   <trkpt lat="59.0664217176" lon="30.0263319374"><ele>90.381</ele><time>2026-04-20T18:22:06.220Z</time><hdop>5.25</hdop><vdop>5.375</vdop><extensions><gom:speed>0.786</gom:speed></extensions></trkpt>
   <trkpt lat="59.0664146349" lon="30.0263365474"><ele>89.289</ele><time>2026-04-20T18:22:06.784Z</time><hdop>5.25</hdop><vdop>5.375</vdop><extensions><gom:speed>0.855</gom:speed></extensions></trkpt>
   <trkpt lat="59.0664089352" lon="30.0263479468"><ele>89.737</ele><time>2026-04-20T18:22:07.624Z</time><hdop>5.25</hdop><vdop>4.625</vdop><extensions><gom:speed>0.871</gom:speed></extensions></trkpt>
   <trkpt lat="59.0664045347" lon="30.0263554905"><ele>90.063</ele><time>2026-04-20T18:22:08.075Z</time><hdop>5.25</hdop><vdop>4.0</vdop><extensions><gom:speed>0.88</gom:speed></extensions></trkpt>
   <trkpt lat="59.0663961528" lon="30.0263687339"><ele>89.932</ele><time>2026-04-20T18:22:09.075Z</time><hdop>5.125</hdop><vdop>3.75</vdop><extensions><gom:speed>0.849</gom:speed></extensions></trkpt>
   <trkpt lat="59.0663882319" lon="30.0263813906"><ele>90.032</ele><time>2026-04-20T18:22:10.076Z</time><hdop>5.125</hdop><vdop>3.625</vdop><extensions><gom:speed>0.806</gom:speed></extensions></trkpt>
   <trkpt lat="59.066382155" lon="30.0263885152"><ele>90.092</ele><time>2026-04-20T18:22:10.961Z</time><hdop>5.125</hdop><vdop>3.625</vdop><extensions><gom:speed>0.793</gom:speed></extensions></trkpt>
   <trkpt lat="59.0663742341" lon="30.0263984059"><ele>89.508</ele><time>2026-04-20T18:22:11.955Z</time><hdop>5.0</hdop><vdop>3.5</vdop><extensions><gom:speed>0.79</gom:speed></extensions></trkpt>
   <trkpt lat="59.0663713424" lon="30.0264020101"><ele>88.831</ele><time>2026-04-20T18:22:12.466Z</time><hdop>5.0</hdop><vdop>3.625</vdop><extensions><gom:speed>0.761</gom:speed></extensions></trkpt>
   <trkpt lat="59.0663646368" lon="30.0264145829"><ele>88.59</ele><time>2026-04-20T18:22:13.075Z</time><hdop>5.0</hdop><vdop>3.5</vdop><extensions><gom:speed>0.749</gom:speed></extensions></trkpt>
   <trkpt lat="59.0663619546" lon="30.0264217075"><ele>88.446</ele><time>2026-04-20T18:22:13.722Z</time><hdop>5.0</hdop><vdop>3.5</vdop><extensions><gom:speed>0.702</gom:speed></extensions></trkpt>
   <trkpt lat="59.0663531536" lon="30.02643537"><ele>88.935</ele><time>2026-04-20T18:22:14.836Z</time><hdop>5.0</hdop><vdop>3.25</vdop><extensions><gom:speed>0.647</gom:speed></extensions></trkpt>
   <trkpt lat="59.066346029" lon="30.0264431652"><ele>89.417</ele><time>2026-04-20T18:22:15.479Z</time><hdop>5.0</hdop><vdop>3.25</vdop><extensions><gom:speed>0.533</gom:speed></extensions></trkpt>
   <trkpt lat="59.0663401198" lon="30.0264488649"><ele>90.17</ele><time>2026-04-20T18:22:16.075Z</time><hdop>5.0</hdop><vdop>3.25</vdop><extensions><gom:speed>0.526</gom:speed></extensions></trkpt>
   <trkpt lat="59.0663319474" lon="30.0264541455"><ele>90.345</ele><time>2026-04-20T18:22:17.076Z</time><hdop>4.875</hdop><vdop>3.125</vdop><extensions><gom:speed>0.4</gom:speed></extensions></trkpt>
   <trkpt lat="59.0663263315" lon="30.0264544808"><ele>90.45</ele><time>2026-04-20T18:22:18.075Z</time><hdop>4.875</hdop><vdop>3.125</vdop><extensions><gom:speed>0.223</gom:speed></extensions></trkpt>
   <trkpt lat="59.0663253257" lon="30.0264530559"><ele>90.513</ele><time>2026-04-20T18:22:18.639Z</time><hdop>4.75</hdop><vdop>3.125</vdop><extensions><gom:speed>0.139</gom:speed></extensions></trkpt>
   <trkpt lat="59.0663215539" lon="30.0264535588"><ele>90.336</ele><time>2026-04-20T18:22:19.496Z</time><hdop>4.625</hdop><vdop>3.25</vdop><extensions><gom:speed>0.138</gom:speed></extensions></trkpt>
   <trkpt lat="59.0663190393" lon="30.0264559895"><ele>90.59</ele><time>2026-04-20T18:22:20.075Z</time><hdop>4.5</hdop><vdop>3.375</vdop><extensions><gom:speed>0.172</gom:speed></extensions></trkpt>
   <trkpt lat="59.0663154351" lon="30.0264595937"><ele>90.708</ele><time>2026-04-20T18:22:21.075Z</time><hdop>4.375</hdop><vdop>3.375</vdop><extensions><gom:speed>0.169</gom:speed></extensions></trkpt>
   <trkpt lat="59.0663118309" lon="30.0264662155"><ele>90.7</ele><time>2026-04-20T18:22:22.075Z</time><hdop>4.25</hdop><vdop>3.375</vdop><extensions><gom:speed>0.233</gom:speed></extensions></trkpt>
   <trkpt lat="59.06630852" lon="30.0264762737"><ele>90.822</ele><time>2026-04-20T18:22:23.075Z</time><hdop>4.25</hdop><vdop>3.5</vdop><extensions><gom:speed>0.34</gom:speed></extensions></trkpt>
   <trkpt lat="59.0663074304" lon="30.0264816382"><ele>90.894</ele><time>2026-04-20T18:22:23.554Z</time><hdop>4.25</hdop><vdop>3.5</vdop><extensions><gom:speed>0.379</gom:speed></extensions></trkpt>
   <trkpt lat="59.0663052511" lon="30.0264888466"><ele>90.811</ele><time>2026-04-20T18:22:24.075Z</time><hdop>4.25</hdop><vdop>3.5</vdop><extensions><gom:speed>0.409</gom:speed></extensions></trkpt>
   <trkpt lat="59.0663032394" lon="30.0264971447"><ele>90.761</ele><time>2026-04-20T18:22:24.786Z</time><hdop>4.125</hdop><vdop>3.5</vdop><extensions><gom:speed>0.474</gom:speed></extensions></trkpt>
   <trkpt lat="59.0662989227" lon="30.0265101366"><ele>90.775</ele><time>2026-04-20T18:22:25.402Z</time><hdop>4.125</hdop><vdop>3.5</vdop><extensions><gom:speed>0.502</gom:speed></extensions></trkpt>
   <trkpt lat="59.0662958214" lon="30.0265186023"><ele>90.631</ele><time>2026-04-20T18:22:26.075Z</time><hdop>4.125</hdop><vdop>3.375</vdop><extensions><gom:speed>0.526</gom:speed></extensions></trkpt>
   <trkpt lat="59.0662896188" lon="30.0265326839"><ele>90.89</ele><time>2026-04-20T18:22:27.076Z</time><hdop>4.125</hdop><vdop>3.375</vdop><extensions><gom:speed>0.596</gom:speed></extensions></trkpt>
   <trkpt lat="59.0662827456" lon="30.0265469332"><ele>91.08</ele><time>2026-04-20T18:22:28.075Z</time><hdop>4.125</hdop><vdop>3.375</vdop><extensions><gom:speed>0.637</gom:speed></extensions></trkpt>
   <trkpt lat="59.0662769202" lon="30.0265613501"><ele>91.372</ele><time>2026-04-20T18:22:29.075Z</time><hdop>4.0</hdop><vdop>3.25</vdop><extensions><gom:speed>0.661</gom:speed></extensions></trkpt>
   <trkpt lat="59.0662720168" lon="30.0265781977"><ele>91.547</ele><time>2026-04-20T18:22:30.040Z</time><hdop>4.125</hdop><vdop>3.25</vdop><extensions><gom:speed>0.764</gom:speed></extensions></trkpt>
   <trkpt lat="59.066267742" lon="30.0265973922"><ele>91.677</ele><time>2026-04-20T18:22:30.960Z</time><hdop>4.25</hdop><vdop>3.125</vdop><extensions><gom:speed>0.808</gom:speed></extensions></trkpt>
   <trkpt lat="59.0662637187" lon="30.026614156"><ele>91.635</ele><time>2026-04-20T18:22:31.699Z</time><hdop>4.375</hdop><vdop>3.0</vdop><extensions><gom:speed>0.835</gom:speed></extensions></trkpt>
   <trkpt lat="59.0662576418" lon="30.0266301655"><ele>91.569</ele><time>2026-04-20T18:22:32.716Z</time><hdop>4.5</hdop><vdop>3.0</vdop><extensions><gom:speed>0.809</gom:speed></extensions></trkpt>
   <trkpt lat="59.0662514392" lon="30.0266393018"><ele>91.934</ele><time>2026-04-20T18:22:33.575Z</time><hdop>4.625</hdop><vdop>3.0</vdop><extensions><gom:speed>0.841</gom:speed></extensions></trkpt>
   <trkpt lat="59.066247835" lon="30.0266445824"><ele>92.16</ele><time>2026-04-20T18:22:34.075Z</time><hdop>4.625</hdop><vdop>3.0</vdop><extensions><gom:speed>0.847</gom:speed></extensions></trkpt>
   <trkpt lat="59.066244147" lon="30.0266508688"><ele>92.294</ele><time>2026-04-20T18:22:34.641Z</time><hdop>4.625</hdop><vdop>3.0</vdop><extensions><gom:speed>0.815</gom:speed></extensions></trkpt>
   <trkpt lat="59.0662395369" lon="30.0266612623"><ele>92.472</ele><time>2026-04-20T18:22:35.461Z</time><hdop>4.625</hdop><vdop>3.0</vdop><extensions><gom:speed>0.772</gom:speed></extensions></trkpt>
   <trkpt lat="59.0662351364" lon="30.0266703148"><ele>93.274</ele><time>2026-04-20T18:22:36.075Z</time><hdop>4.625</hdop><vdop>3.0</vdop><extensions><gom:speed>0.847</gom:speed></extensions></trkpt>
   <trkpt lat="59.0662289338" lon="30.0266848993"><ele>93.754</ele><time>2026-04-20T18:22:37.061Z</time><hdop>4.625</hdop><vdop>3.0</vdop><extensions><gom:speed>0.847</gom:speed></extensions></trkpt>
   <trkpt lat="59.0662226474" lon="30.0267078657"><ele>94.032</ele><time>2026-04-20T18:22:37.999Z</time><hdop>4.75</hdop><vdop>2.75</vdop><extensions><gom:speed>0.846</gom:speed></extensions></trkpt>
   <trkpt lat="59.0662195461" lon="30.0267199357"><ele>94.216</ele><time>2026-04-20T18:22:38.759Z</time><hdop>4.75</hdop><vdop>2.75</vdop><extensions><gom:speed>0.838</gom:speed></extensions></trkpt>
   <trkpt lat="59.0662136369" lon="30.0267372862"><ele>94.738</ele><time>2026-04-20T18:22:39.893Z</time><hdop>4.875</hdop><vdop>2.75</vdop><extensions><gom:speed>0.802</gom:speed></extensions></trkpt>
   <trkpt lat="59.0662095297" lon="30.026751284"><ele>95.094</ele><time>2026-04-20T18:22:40.793Z</time><hdop>4.875</hdop><vdop>2.75</vdop><extensions><gom:speed>0.776</gom:speed></extensions></trkpt>
   <trkpt lat="59.0662050454" lon="30.0267649465"><ele>95.194</ele><time>2026-04-20T18:22:41.722Z</time><hdop>4.875</hdop><vdop>2.75</vdop><extensions><gom:speed>0.777</gom:speed></extensions></trkpt>
   <trkpt lat="59.0662003515" lon="30.0267756753"><ele>95.096</ele><time>2026-04-20T18:22:42.559Z</time><hdop>4.875</hdop><vdop>2.75</vdop><extensions><gom:speed>0.78</gom:speed></extensions></trkpt>
   <trkpt lat="59.0661975436" lon="30.0267819617"><ele>95.03</ele><time>2026-04-20T18:22:43.075Z</time><hdop>4.875</hdop><vdop>2.875</vdop><extensions><gom:speed>0.776</gom:speed></extensions></trkpt>
   <trkpt lat="59.0661906285" lon="30.0267907627"><ele>95.133</ele><time>2026-04-20T18:22:44.075Z</time><hdop>4.75</hdop><vdop>3.125</vdop><extensions><gom:speed>0.758</gom:speed></extensions></trkpt>
   <trkpt lat="59.0661855575" lon="30.0267965463"><ele>95.714</ele><time>2026-04-20T18:22:45.076Z</time><hdop>4.75</hdop><vdop>3.375</vdop><extensions><gom:speed>0.77</gom:speed></extensions></trkpt>
   <trkpt lat="59.0661794387" lon="30.0268037547"><ele>96.233</ele><time>2026-04-20T18:22:46.075Z</time><hdop>4.75</hdop><vdop>3.5</vdop><extensions><gom:speed>0.786</gom:speed></extensions></trkpt>
   <trkpt lat="59.0661721464" lon="30.0268081133"><ele>96.542</ele><time>2026-04-20T18:22:46.974Z</time><hdop>4.625</hdop><vdop>3.5</vdop><extensions><gom:speed>0.822</gom:speed></extensions></trkpt>
   <trkpt lat="59.0661655247" lon="30.0268099573"><ele>96.877</ele><time>2026-04-20T18:22:47.754Z</time><hdop>4.625</hdop><vdop>3.625</vdop><extensions><gom:speed>0.848</gom:speed></extensions></trkpt>
   <trkpt lat="59.0661576457" lon="30.0268141483"><ele>97.175</ele><time>2026-04-20T18:22:48.700Z</time><hdop>4.625</hdop><vdop>3.375</vdop><extensions><gom:speed>0.847</gom:speed></extensions></trkpt>
   <trkpt lat="59.0661507307" lon="30.0268200994"><ele>97.685</ele><time>2026-04-20T18:22:49.638Z</time><hdop>4.625</hdop><vdop>3.25</vdop><extensions><gom:speed>0.827</gom:speed></extensions></trkpt>
   <trkpt lat="59.0661449472" lon="30.0268233683"><ele>98.047</ele><time>2026-04-20T18:22:50.615Z</time><hdop>4.625</hdop><vdop>3.25</vdop><extensions><gom:speed>0.759</gom:speed></extensions></trkpt>
   <trkpt lat="59.0661426421" lon="30.0268226978"><ele>98.069</ele><time>2026-04-20T18:22:51.075Z</time><hdop>4.625</hdop><vdop>3.125</vdop><extensions><gom:speed>0.753</gom:speed></extensions></trkpt>
   <trkpt lat="59.0661367329" lon="30.0268206023"><ele>97.873</ele><time>2026-04-20T18:22:52.075Z</time><hdop>4.5</hdop><vdop>3.125</vdop><extensions><gom:speed>0.727</gom:speed></extensions></trkpt>
   <trkpt lat="59.0661308237" lon="30.0268190098"><ele>97.756</ele><time>2026-04-20T18:22:52.995Z</time><hdop>4.5</hdop><vdop>3.125</vdop><extensions><gom:speed>0.711</gom:speed></extensions></trkpt>
   <trkpt lat="59.0661249563" lon="30.0268181716"><ele>97.636</ele><time>2026-04-20T18:22:53.972Z</time><hdop>4.5</hdop><vdop>3.125</vdop><extensions><gom:speed>0.723</gom:speed></extensions></trkpt>
   <trkpt lat="59.0661189214" lon="30.0268221111"><ele>97.402</ele><time>2026-04-20T18:22:54.881Z</time><hdop>4.625</hdop><vdop>3.125</vdop><extensions><gom:speed>0.746</gom:speed></extensions></trkpt>
   <trkpt lat="59.0661140179" lon="30.0268289004"><ele>97.178</ele><time>2026-04-20T18:22:55.839Z</time><hdop>4.625</hdop><vdop>3.25</vdop><extensions><gom:speed>0.731</gom:speed></extensions></trkpt>
   <trkpt lat="59.0661095336" lon="30.0268372823"><ele>97.336</ele><time>2026-04-20T18:22:56.815Z</time><hdop>4.625</hdop><vdop>3.25</vdop><extensions><gom:speed>0.716</gom:speed></extensions></trkpt>
   <trkpt lat="59.0661054265" lon="30.0268463348"><ele>97.181</ele><time>2026-04-20T18:22:57.875Z</time><hdop>4.625</hdop><vdop>3.125</vdop><extensions><gom:speed>0.682</gom:speed></extensions></trkpt>
   <trkpt lat="59.0661013194" lon="30.0268538785"><ele>96.649</ele><time>2026-04-20T18:22:58.823Z</time><hdop>4.625</hdop><vdop>3.125</vdop><extensions><gom:speed>0.692</gom:speed></extensions></trkpt>
   <trkpt lat="59.0660958292" lon="30.0268632662"><ele>96.203</ele><time>2026-04-20T18:22:59.956Z</time><hdop>4.625</hdop><vdop>3.25</vdop><extensions><gom:speed>0.702</gom:speed></extensions></trkpt>
   <trkpt lat="59.0660913449" lon="30.0268724863"><ele>95.712</ele><time>2026-04-20T18:23:00.954Z</time><hdop>4.625</hdop><vdop>3.375</vdop><extensions><gom:speed>0.64</gom:speed></extensions></trkpt>
   <trkpt lat="59.0660875311" lon="30.0268823769"><ele>95.484</ele><time>2026-04-20T18:23:02.019Z</time><hdop>4.625</hdop><vdop>3.125</vdop><extensions><gom:speed>0.6</gom:speed></extensions></trkpt>
   <trkpt lat="59.0660840526" lon="30.0268893339"><ele>95.15</ele><time>2026-04-20T18:23:03.075Z</time><hdop>4.625</hdop><vdop>3.125</vdop><extensions><gom:speed>0.512</gom:speed></extensions></trkpt>
   <trkpt lat="59.0660803227" lon="30.0268931896"><ele>94.691</ele><time>2026-04-20T18:23:04.075Z</time><hdop>4.5</hdop><vdop>3.375</vdop><extensions><gom:speed>0.45</gom:speed></extensions></trkpt>
   <trkpt lat="59.0660768442" lon="30.0268975482"><ele>94.416</ele><time>2026-04-20T18:23:04.922Z</time><hdop>4.5</hdop><vdop>3.375</vdop><extensions><gom:speed>0.532</gom:speed></extensions></trkpt>
   <trkpt lat="59.066072318" lon="30.0269076065"><ele>93.694</ele><time>2026-04-20T18:23:05.740Z</time><hdop>4.5</hdop><vdop>3.375</vdop><extensions><gom:speed>0.644</gom:speed></extensions></trkpt>
   <trkpt lat="59.0660675403" lon="30.0269200117"><ele>93.332</ele><time>2026-04-20T18:23:06.560Z</time><hdop>4.5</hdop><vdop>3.25</vdop><extensions><gom:speed>0.704</gom:speed></extensions></trkpt>
   <trkpt lat="59.0660648162" lon="30.0269280583"><ele>93.244</ele><time>2026-04-20T18:23:07.075Z</time><hdop>4.375</hdop><vdop>3.125</vdop><extensions><gom:speed>0.713</gom:speed></extensions></trkpt>
   <trkpt lat="59.0660596194" lon="30.0269439839"><ele>93.111</ele><time>2026-04-20T18:23:08.075Z</time><hdop>4.5</hdop><vdop>3.0</vdop><extensions><gom:speed>0.753</gom:speed></extensions></trkpt>
   <trkpt lat="59.0660584459" lon="30.0269618374"><ele>93.055</ele><time>2026-04-20T18:23:09.076Z</time><hdop>4.5</hdop><vdop>3.0</vdop><extensions><gom:speed>0.827</gom:speed></extensions></trkpt>
   <trkpt lat="59.0660648162" lon="30.0269739911"><ele>93.056</ele><time>2026-04-20T18:23:10.042Z</time><hdop>4.5</hdop><vdop>4.625</vdop><extensions><gom:speed>0.845</gom:speed></extensions></trkpt>
   <trkpt lat="59.0660698453" lon="30.0269754999"><ele>92.892</ele><time>2026-04-20T18:23:11.075Z</time><hdop>4.625</hdop><vdop>4.625</vdop><extensions><gom:speed>0.629</gom:speed></extensions></trkpt>
   <trkpt lat="59.0660748325" lon="30.0269825407"><ele>92.738</ele><time>2026-04-20T18:23:11.938Z</time><hdop>4.625</hdop><vdop>4.375</vdop><extensions><gom:speed>0.694</gom:speed></extensions></trkpt>
   <trkpt lat="59.0660758384" lon="30.0269895815"><ele>92.645</ele><time>2026-04-20T18:23:12.402Z</time><hdop>4.75</hdop><vdop>4.375</vdop><extensions><gom:speed>0.766</gom:speed></extensions></trkpt>
   <trkpt lat="59.0660730304" lon="30.0269977958"><ele>92.53</ele><time>2026-04-20T18:23:13.075Z</time><hdop>4.875</hdop><vdop>4.25</vdop><extensions><gom:speed>0.702</gom:speed></extensions></trkpt>
   <trkpt lat="59.0660686299" lon="30.0270017352"><ele>92.473</ele><time>2026-04-20T18:23:13.952Z</time><hdop>5.0</hdop><vdop>4.125</vdop><extensions><gom:speed>0.556</gom:speed></extensions></trkpt>
   <trkpt lat="59.0660623435" lon="30.0270103686"><ele>92.44</ele><time>2026-04-20T18:23:15.040Z</time><hdop>5.25</hdop><vdop>4.125</vdop><extensions><gom:speed>0.587</gom:speed></extensions></trkpt>
   <trkpt lat="59.066057021" lon="30.0270153977"><ele>92.351</ele><time>2026-04-20T18:23:16.058Z</time><hdop>5.375</hdop><vdop>4.125</vdop><extensions><gom:speed>0.618</gom:speed></extensions></trkpt>
   <trkpt lat="59.0660507346" lon="30.0270205107"><ele>92.189</ele><time>2026-04-20T18:23:16.956Z</time><hdop>5.5</hdop><vdop>4.0</vdop><extensions><gom:speed>0.646</gom:speed></extensions></trkpt>
   <trkpt lat="59.0660444481" lon="30.0270248693"><ele>92.009</ele><time>2026-04-20T18:23:17.815Z</time><hdop>5.75</hdop><vdop>4.0</vdop><extensions><gom:speed>0.67</gom:speed></extensions></trkpt>
   <trkpt lat="59.0660374493" lon="30.0270276353"><ele>91.788</ele><time>2026-04-20T18:23:18.772Z</time><hdop>6.0</hdop><vdop>4.25</vdop><extensions><gom:speed>0.703</gom:speed></extensions></trkpt>
   <trkpt lat="59.0660305342" lon="30.0270295632"><ele>91.593</ele><time>2026-04-20T18:23:19.592Z</time><hdop>6.25</hdop><vdop>4.125</vdop><extensions><gom:speed>0.737</gom:speed></extensions></trkpt>
   <trkpt lat="59.0660236191" lon="30.0270293117"><ele>91.527</ele><time>2026-04-20T18:23:20.560Z</time><hdop>6.375</hdop><vdop>4.125</vdop><extensions><gom:speed>0.68</gom:speed></extensions></trkpt>
   <trkpt lat="59.0660161173" lon="30.0270238635"><ele>91.615</ele><time>2026-04-20T18:23:22.008Z</time><hdop>6.625</hdop><vdop>4.75</vdop><extensions><gom:speed>0.567</gom:speed></extensions></trkpt>
   <trkpt lat="59.0660151534" lon="30.0270226062"><ele>91.668</ele><time>2026-04-20T18:23:22.516Z</time><hdop>6.625</hdop><vdop>4.75</vdop><extensions><gom:speed>0.531</gom:speed></extensions></trkpt>
   <trkpt lat="59.0660108367" lon="30.0270231091"><ele>91.786</ele><time>2026-04-20T18:23:24.022Z</time><hdop>6.875</hdop><vdop>5.0</vdop><extensions><gom:speed>0.414</gom:speed></extensions></trkpt>
   <trkpt lat="59.0660142314" lon="30.0270200078"><ele>91.948</ele><time>2026-04-20T18:23:25.075Z</time><hdop>7.0</hdop><vdop>5.0</vdop><extensions><gom:speed>0.262</gom:speed></extensions></trkpt>
   <trkpt lat="59.0660157401" lon="30.0270195887"><ele>92.051</ele><time>2026-04-20T18:23:26.036Z</time><hdop>7.0</hdop><vdop>5.0</vdop><extensions><gom:speed>0.129</gom:speed></extensions></trkpt>
   <trkpt lat="59.0660168298" lon="30.0270187505"><ele>92.112</ele><time>2026-04-20T18:23:26.553Z</time><hdop>6.875</hdop><vdop>5.0</vdop><extensions><gom:speed>0.082</gom:speed></extensions></trkpt>
   <trkpt lat="59.0660166202" lon="30.0270184991"><ele>92.139</ele><time>2026-04-20T18:23:27.619Z</time><hdop>6.875</hdop><vdop>5.125</vdop><extensions><gom:speed>0.093</gom:speed></extensions></trkpt>
   <trkpt lat="59.0660156563" lon="30.0270184152"><ele>92.156</ele><time>2026-04-20T18:23:28.459Z</time><hdop>6.75</hdop><vdop>5.0</vdop><extensions><gom:speed>0.084</gom:speed></extensions></trkpt>
   <trkpt lat="59.0660150277" lon="30.0270184991"><ele>92.223</ele><time>2026-04-20T18:23:28.998Z</time><hdop>6.75</hdop><vdop>4.875</vdop><extensions><gom:speed>0.12</gom:speed></extensions></trkpt>
   <trkpt lat="59.066012555" lon="30.0270174932"><ele>92.265</ele><time>2026-04-20T18:23:29.946Z</time><hdop>6.75</hdop><vdop>5.0</vdop><extensions><gom:speed>0.229</gom:speed></extensions></trkpt>
   <trkpt lat="59.0660081545" lon="30.0270169065"><ele>92.298</ele><time>2026-04-20T18:23:31.012Z</time><hdop>7.0</hdop><vdop>5.0</vdop><extensions><gom:speed>0.401</gom:speed></extensions></trkpt>
   <trkpt lat="59.0660008203" lon="30.027016655"><ele>92.319</ele><time>2026-04-20T18:23:31.954Z</time><hdop>7.125</hdop><vdop>5.0</vdop><extensions><gom:speed>0.559</gom:speed></extensions></trkpt>
   <trkpt lat="59.0659911392" lon="30.0270188343"><ele>92.328</ele><time>2026-04-20T18:23:32.881Z</time><hdop>7.5</hdop><vdop>5.0</vdop><extensions><gom:speed>0.708</gom:speed></extensions></trkpt>
   <trkpt lat="59.0659915164" lon="30.027026378"><ele>92.94</ele><time>2026-04-20T18:23:33.700Z</time><hdop>7.75</hdop><vdop>4.75</vdop><extensions><gom:speed>0.795</gom:speed></extensions></trkpt>
   <trkpt lat="59.0659946177" lon="30.0270341732"><ele>93.758</ele><time>2026-04-20T18:23:34.581Z</time><hdop>7.75</hdop><vdop>4.5</vdop><extensions><gom:speed>0.827</gom:speed></extensions></trkpt>
   <trkpt lat="59.0659956236" lon="30.02703937"><ele>93.811</ele><time>2026-04-20T18:23:35.076Z</time><hdop>7.625</hdop><vdop>4.125</vdop><extensions><gom:speed>0.82</gom:speed></extensions></trkpt>
   <trkpt lat="59.0659923546" lon="30.0270482548"><ele>93.901</ele><time>2026-04-20T18:23:36.075Z</time><hdop>7.625</hdop><vdop>4.0</vdop><extensions><gom:speed>0.789</gom:speed></extensions></trkpt>
   <trkpt lat="59.0659874512" lon="30.0270579778"><ele>93.672</ele><time>2026-04-20T18:23:37.075Z</time><hdop>7.125</hdop><vdop>3.625</vdop><extensions><gom:speed>0.797</gom:speed></extensions></trkpt>
   <trkpt lat="59.0659818353" lon="30.0270668626"><ele>93.226</ele><time>2026-04-20T18:23:38.076Z</time><hdop>6.625</hdop><vdop>3.5</vdop><extensions><gom:speed>0.755</gom:speed></extensions></trkpt>
   <trkpt lat="59.0659755489" lon="30.0270739873"><ele>92.817</ele><time>2026-04-20T18:23:39.075Z</time><hdop>6.125</hdop><vdop>3.375</vdop><extensions><gom:speed>0.716</gom:speed></extensions></trkpt>
   <trkpt lat="59.0659695558" lon="30.0270791002"><ele>92.573</ele><time>2026-04-20T18:23:40.000Z</time><hdop>5.75</hdop><vdop>3.375</vdop><extensions><gom:speed>0.726</gom:speed></extensions></trkpt>
   <trkpt lat="59.0659627246" lon="30.0270850514"><ele>92.551</ele><time>2026-04-20T18:23:40.780Z</time><hdop>5.375</hdop><vdop>3.375</vdop><extensions><gom:speed>0.722</gom:speed></extensions></trkpt>
   <trkpt lat="59.0659540493" lon="30.0270987977"><ele>92.658</ele><time>2026-04-20T18:23:42.075Z</time><hdop>5.125</hdop><vdop>4.875</vdop><extensions><gom:speed>0.563</gom:speed></extensions></trkpt>
   <trkpt lat="59.0659515347" lon="30.0271073472"><ele>92.726</ele><time>2026-04-20T18:23:43.075Z</time><hdop>5.0</hdop><vdop>4.75</vdop><extensions><gom:speed>0.384</gom:speed></extensions></trkpt>
   <trkpt lat="59.0659513252" lon="30.0271102809"><ele>92.767</ele><time>2026-04-20T18:23:43.781Z</time><hdop>4.875</hdop><vdop>4.75</vdop><extensions><gom:speed>0.283</gom:speed></extensions></trkpt>
   <trkpt lat="59.0659481401" lon="30.0271119573"><ele>92.536</ele><time>2026-04-20T18:23:44.316Z</time><hdop>4.75</hdop><vdop>4.5</vdop><extensions><gom:speed>0.294</gom:speed></extensions></trkpt>
   <trkpt lat="59.0659468409" lon="30.0271113705"><ele>92.173</ele><time>2026-04-20T18:23:44.992Z</time><hdop>4.625</hdop><vdop>4.375</vdop><extensions><gom:speed>0.183</gom:speed></extensions></trkpt>
   <trkpt lat="59.0659429433" lon="30.0271108676"><ele>91.841</ele><time>2026-04-20T18:23:46.075Z</time><hdop>4.625</hdop><vdop>4.375</vdop><extensions><gom:speed>0.223</gom:speed></extensions></trkpt>
   <trkpt lat="59.065939842" lon="30.0271108676"><ele>91.642</ele><time>2026-04-20T18:23:47.041Z</time><hdop>4.625</hdop><vdop>4.375</vdop><extensions><gom:speed>0.257</gom:speed></extensions></trkpt>
   <trkpt lat="59.0659298256" lon="30.0271107"><ele>90.441</ele><time>2026-04-20T18:23:47.917Z</time><hdop>4.625</hdop><vdop>4.25</vdop><extensions><gom:speed>0.512</gom:speed></extensions></trkpt>
   <trkpt lat="59.0659167498" lon="30.0271127955"><ele>89.273</ele><time>2026-04-20T18:23:48.757Z</time><hdop>4.625</hdop><vdop>4.25</vdop><extensions><gom:speed>0.735</gom:speed></extensions></trkpt>
   <trkpt lat="59.0659065239" lon="30.0271149748"><ele>88.309</ele><time>2026-04-20T18:23:49.615Z</time><hdop>4.625</hdop><vdop>4.125</vdop><extensions><gom:speed>0.822</gom:speed></extensions></trkpt>
   <trkpt lat="59.0659006566" lon="30.0271172379"><ele>87.431</ele><time>2026-04-20T18:23:50.075Z</time><hdop>4.625</hdop><vdop>3.875</vdop><extensions><gom:speed>0.816</gom:speed></extensions></trkpt>
   <trkpt lat="59.0658951245" lon="30.0271184113"><ele>86.906</ele><time>2026-04-20T18:23:50.594Z</time><hdop>4.75</hdop><vdop>3.875</vdop><extensions><gom:speed>0.839</gom:speed></extensions></trkpt>
   <trkpt lat="59.0658894248" lon="30.0271208421"><ele>86.382</ele><time>2026-04-20T18:23:51.076Z</time><hdop>4.75</hdop><vdop>3.875</vdop><extensions><gom:speed>0.846</gom:speed></extensions></trkpt>
   <trkpt lat="59.0658770196" lon="30.0271291402"><ele>86.136</ele><time>2026-04-20T18:23:52.075Z</time><hdop>4.75</hdop><vdop>3.75</vdop><extensions><gom:speed>0.809</gom:speed></extensions></trkpt>
   <trkpt lat="59.0658693502" lon="30.0271391985"><ele>86.61</ele><time>2026-04-20T18:23:53.075Z</time><hdop>4.875</hdop><vdop>3.75</vdop><extensions><gom:speed>0.846</gom:speed></extensions></trkpt>
   <trkpt lat="59.0658613455" lon="30.0271497597"><ele>86.893</ele><time>2026-04-20T18:23:54.058Z</time><hdop>4.875</hdop><vdop>3.75</vdop><extensions><gom:speed>0.876</gom:speed></extensions></trkpt>
   <trkpt lat="59.0658537179" lon="30.0271590636"><ele>86.987</ele><time>2026-04-20T18:23:54.742Z</time><hdop>4.875</hdop><vdop>3.875</vdop><extensions><gom:speed>0.872</gom:speed></extensions></trkpt>
   <trkpt lat="59.0658459228" lon="30.0271714688"><ele>87.14</ele><time>2026-04-20T18:23:55.638Z</time><hdop>4.875</hdop><vdop>3.75</vdop><extensions><gom:speed>0.859</gom:speed></extensions></trkpt>
   <trkpt lat="59.0658382533" lon="30.0271840416"><ele>87.175</ele><time>2026-04-20T18:23:56.557Z</time><hdop>4.75</hdop><vdop>3.75</vdop><extensions><gom:speed>0.878</gom:speed></extensions></trkpt>
   <trkpt lat="59.065832847" lon="30.0271896575"><ele>87.083</ele><time>2026-04-20T18:23:57.075Z</time><hdop>4.75</hdop><vdop>3.75</vdop><extensions><gom:speed>0.881</gom:speed></extensions></trkpt>
   <trkpt lat="59.0658292428" lon="30.0271928426"><ele>87.028</ele><time>2026-04-20T18:23:57.668Z</time><hdop>4.75</hdop><vdop>3.75</vdop><extensions><gom:speed>0.897</gom:speed></extensions></trkpt>
   <trkpt lat="59.0658190169" lon="30.0272009731"><ele>87.223</ele><time>2026-04-20T18:23:58.195Z</time><hdop>4.625</hdop><vdop>3.625</vdop><extensions><gom:speed>0.919</gom:speed></extensions></trkpt>
   <trkpt lat="59.0658122275" lon="30.027205164"><ele>87.34</ele><time>2026-04-20T18:23:58.994Z</time><hdop>4.625</hdop><vdop>3.625</vdop><extensions><gom:speed>0.916</gom:speed></extensions></trkpt>
   <trkpt lat="59.0658036361" lon="30.0272125401"><ele>87.268</ele><time>2026-04-20T18:23:59.799Z</time><hdop>4.5</hdop><vdop>3.375</vdop><extensions><gom:speed>0.927</gom:speed></extensions></trkpt>
   <trkpt lat="59.0657952542" lon="30.02722"><ele>87.18</ele><time>2026-04-20T18:24:00.539Z</time><hdop>4.5</hdop><vdop>3.25</vdop><extensions><gom:speed>0.924</gom:speed></extensions></trkpt>
   <trkpt lat="59.0657896383" lon="30.0272256997"><ele>87.385</ele><time>2026-04-20T18:24:01.076Z</time><hdop>4.5</hdop><vdop>3.125</vdop><extensions><gom:speed>0.917</gom:speed></extensions></trkpt>
   <trkpt lat="59.0657811307" lon="30.027235758"><ele>87.252</ele><time>2026-04-20T18:24:02.076Z</time><hdop>4.625</hdop><vdop>3.25</vdop><extensions><gom:speed>0.886</gom:speed></extensions></trkpt>
   <trkpt lat="59.0657714496" lon="30.0272443913"><ele>87.246</ele><time>2026-04-20T18:24:03.075Z</time><hdop>4.625</hdop><vdop>3.375</vdop><extensions><gom:speed>0.922</gom:speed></extensions></trkpt>
   <trkpt lat="59.0657676358" lon="30.0272457324"><ele>87.242</ele><time>2026-04-20T18:24:03.829Z</time><hdop>4.625</hdop><vdop>3.375</vdop><extensions><gom:speed>0.92</gom:speed></extensions></trkpt>
   <trkpt lat="59.0657540571" lon="30.0272492528"><ele>86.763</ele><time>2026-04-20T18:24:04.760Z</time><hdop>4.625</hdop><vdop>3.375</vdop><extensions><gom:speed>0.877</gom:speed></extensions></trkpt>
   <trkpt lat="59.0657464296" lon="30.0272512645"><ele>86.312</ele><time>2026-04-20T18:24:05.659Z</time><hdop>4.625</hdop><vdop>3.25</vdop><extensions><gom:speed>0.779</gom:speed></extensions></trkpt>
   <trkpt lat="59.0657386344" lon="30.0272547849"><ele>86.002</ele><time>2026-04-20T18:24:06.655Z</time><hdop>4.625</hdop><vdop>3.25</vdop><extensions><gom:speed>0.738</gom:speed></extensions></trkpt>
   <trkpt lat="59.0657326413" lon="30.0272598979"><ele>85.914</ele><time>2026-04-20T18:24:07.396Z</time><hdop>4.625</hdop><vdop>3.125</vdop><extensions><gom:speed>0.749</gom:speed></extensions></trkpt>
   <trkpt lat="59.0657277379" lon="30.0272655976"><ele>85.653</ele><time>2026-04-20T18:24:08.075Z</time><hdop>4.625</hdop><vdop>3.125</vdop><extensions><gom:speed>0.743</gom:speed></extensions></trkpt>
   <trkpt lat="59.065722625" lon="30.0272759073"><ele>85.732</ele><time>2026-04-20T18:24:09.075Z</time><hdop>4.625</hdop><vdop>3.25</vdop><extensions><gom:speed>0.707</gom:speed></extensions></trkpt>
   <trkpt lat="59.0657168415" lon="30.0272847083"><ele>86.193</ele><time>2026-04-20T18:24:10.075Z</time><hdop>4.625</hdop><vdop>3.375</vdop><extensions><gom:speed>0.721</gom:speed></extensions></trkpt>
   <trkpt lat="59.0657102198" lon="30.0272911624"><ele>86.201</ele><time>2026-04-20T18:24:11.075Z</time><hdop>4.625</hdop><vdop>3.25</vdop><extensions><gom:speed>0.688</gom:speed></extensions></trkpt>
   <trkpt lat="59.0657034304" lon="30.0272938446"><ele>86.176</ele><time>2026-04-20T18:24:12.075Z</time><hdop>4.625</hdop><vdop>3.25</vdop><extensions><gom:speed>0.674</gom:speed></extensions></trkpt>
   <trkpt lat="59.0656972278" lon="30.0272966106"><ele>86.166</ele><time>2026-04-20T18:24:12.951Z</time><hdop>4.625</hdop><vdop>5.125</vdop><extensions><gom:speed>0.708</gom:speed></extensions></trkpt>
   <trkpt lat="59.0656908576" lon="30.0272998795"><ele>86.16</ele><time>2026-04-20T18:24:14.040Z</time><hdop>4.625</hdop><vdop>5.125</vdop><extensions><gom:speed>0.706</gom:speed></extensions></trkpt>
   <trkpt lat="59.0656867504" lon="30.0273042381"><ele>86.203</ele><time>2026-04-20T18:24:15.075Z</time><hdop>4.75</hdop><vdop>4.625</vdop><extensions><gom:speed>0.601</gom:speed></extensions></trkpt>
   <trkpt lat="59.0656831462" lon="30.0273081776"><ele>86.229</ele><time>2026-04-20T18:24:15.857Z</time><hdop>4.875</hdop><vdop>4.625</vdop><extensions><gom:speed>0.613</gom:speed></extensions></trkpt>
   <trkpt lat="59.0656770274" lon="30.0273185712"><ele>86.574</ele><time>2026-04-20T18:24:16.776Z</time><hdop>4.875</hdop><vdop>4.25</vdop><extensions><gom:speed>0.728</gom:speed></extensions></trkpt>
   <trkpt lat="59.0656726269" lon="30.0273293838"><ele>87.313</ele><time>2026-04-20T18:24:17.694Z</time><hdop>5.0</hdop><vdop>4.0</vdop><extensions><gom:speed>0.76</gom:speed></extensions></trkpt>
   <trkpt lat="59.0656688551" lon="30.0273429625"><ele>87.859</ele><time>2026-04-20T18:24:18.602Z</time><hdop>5.0</hdop><vdop>3.875</vdop><extensions><gom:speed>0.758</gom:speed></extensions></trkpt>
   <trkpt lat="59.0656666339" lon="30.0273500871"><ele>88.261</ele><time>2026-04-20T18:24:19.076Z</time><hdop>5.0</hdop><vdop>3.875</vdop><extensions><gom:speed>0.765</gom:speed></extensions></trkpt>
   <trkpt lat="59.0656601379" lon="30.0273572956"><ele>88.378</ele><time>2026-04-20T18:24:20.075Z</time><hdop>4.875</hdop><vdop>3.625</vdop><extensions><gom:speed>0.782</gom:speed></extensions></trkpt>
   <trkpt lat="59.0656536419" lon="30.0273581338"><ele>88.104</ele><time>2026-04-20T18:24:21.075Z</time><hdop>4.875</hdop><vdop>3.625</vdop><extensions><gom:speed>0.747</gom:speed></extensions></trkpt>
   <trkpt lat="59.0656471459" lon="30.0273601454"><ele>87.968</ele><time>2026-04-20T18:24:22.075Z</time><hdop>4.75</hdop><vdop>3.75</vdop><extensions><gom:speed>0.696</gom:speed></extensions></trkpt>
   <trkpt lat="59.0656419492" lon="30.0273609836"><ele>87.888</ele><time>2026-04-20T18:24:23.015Z</time><hdop>4.75</hdop><vdop>3.75</vdop><extensions><gom:speed>0.61</gom:speed></extensions></trkpt>
   <trkpt lat="59.0656373391" lon="30.0273585529"><ele>87.627</ele><time>2026-04-20T18:24:23.932Z</time><hdop>4.75</hdop><vdop>3.75</vdop><extensions><gom:speed>0.623</gom:speed></extensions></trkpt>
   <trkpt lat="59.0656325195" lon="30.0273516797"><ele>87.147</ele><time>2026-04-20T18:24:24.899Z</time><hdop>4.75</hdop><vdop>3.75</vdop><extensions><gom:speed>0.642</gom:speed></extensions></trkpt>
   <trkpt lat="59.0656275323" lon="30.0273445551"><ele>86.561</ele><time>2026-04-20T18:24:25.741Z</time><hdop>4.75</hdop><vdop>3.875</vdop><extensions><gom:speed>0.701</gom:speed></extensions></trkpt>
   <trkpt lat="59.0656219164" lon="30.0273386878"><ele>85.88</ele><time>2026-04-20T18:24:26.558Z</time><hdop>4.75</hdop><vdop>4.0</vdop><extensions><gom:speed>0.72</gom:speed></extensions></trkpt>
   <trkpt lat="59.0656181445" lon="30.0273368437"><ele>85.332</ele><time>2026-04-20T18:24:27.075Z</time><hdop>4.75</hdop><vdop>3.75</vdop><extensions><gom:speed>0.715</gom:speed></extensions></trkpt>
   <trkpt lat="59.0656106427" lon="30.0273365923"><ele>84.957</ele><time>2026-04-20T18:24:28.076Z</time><hdop>4.75</hdop><vdop>3.75</vdop><extensions><gom:speed>0.679</gom:speed></extensions></trkpt>
   <trkpt lat="59.065609134" lon="30.0273370952"><ele>84.732</ele><time>2026-04-20T18:24:28.590Z</time><hdop>4.75</hdop><vdop>3.75</vdop><extensions><gom:speed>0.664</gom:speed></extensions></trkpt>
   <trkpt lat="59.0656033505" lon="30.0273373466"><ele>84.384</ele><time>2026-04-20T18:24:29.075Z</time><hdop>4.75</hdop><vdop>3.875</vdop><extensions><gom:speed>0.643</gom:speed></extensions></trkpt>
   <trkpt lat="59.0655987404" lon="30.0273370114"><ele>84.175</ele><time>2026-04-20T18:24:30.033Z</time><hdop>4.75</hdop><vdop>3.875</vdop><extensions><gom:speed>0.655</gom:speed></extensions></trkpt>
   <trkpt lat="59.0655927474" lon="30.0273383525"><ele>83.977</ele><time>2026-04-20T18:24:30.982Z</time><hdop>4.75</hdop><vdop>3.75</vdop><extensions><gom:speed>0.678</gom:speed></extensions></trkpt>
   <trkpt lat="59.0655874249" lon="30.0273384363"><ele>84.202</ele><time>2026-04-20T18:24:31.822Z</time><hdop>4.75</hdop><vdop>3.875</vdop><extensions><gom:speed>0.661</gom:speed></extensions></trkpt>
   <trkpt lat="59.0655830244" lon="30.0273357541"><ele>84.368</ele><time>2026-04-20T18:24:32.818Z</time><hdop>4.75</hdop><vdop>5.375</vdop><extensions><gom:speed>0.588</gom:speed></extensions></trkpt>
   <trkpt lat="59.0655778276" lon="30.0273345806"><ele>84.478</ele><time>2026-04-20T18:24:34.054Z</time><hdop>4.875</hdop><vdop>5.375</vdop><extensions><gom:speed>0.502</gom:speed></extensions></trkpt>
   <trkpt lat="59.0655772409" lon="30.0273350835"><ele>84.58</ele><time>2026-04-20T18:24:34.751Z</time><hdop>4.875</hdop><vdop>5.375</vdop><extensions><gom:speed>0.469</gom:speed></extensions></trkpt>
   <trkpt lat="59.0655749358" lon="30.027334413"><ele>84.41</ele><time>2026-04-20T18:24:35.217Z</time><hdop>5.0</hdop><vdop>4.875</vdop><extensions><gom:speed>0.451</gom:speed></extensions></trkpt>
   <trkpt lat="59.065572547" lon="30.0273334072"><ele>84.658</ele><time>2026-04-20T18:24:36.075Z</time><hdop>5.0</hdop><vdop>4.75</vdop><extensions><gom:speed>0.415</gom:speed></extensions></trkpt>
   <trkpt lat="59.0655682303" lon="30.027331647"><ele>85.258</ele><time>2026-04-20T18:24:37.075Z</time><hdop>5.0</hdop><vdop>4.625</vdop><extensions><gom:speed>0.446</gom:speed></extensions></trkpt>
   <trkpt lat="59.0655638298" lon="30.0273326528"><ele>85.666</ele><time>2026-04-20T18:24:38.076Z</time><hdop>5.0</hdop><vdop>4.375</vdop><extensions><gom:speed>0.434</gom:speed></extensions></trkpt>
   <trkpt lat="59.0655597227" lon="30.0273358379"><ele>86.314</ele><time>2026-04-20T18:24:39.076Z</time><hdop>4.75</hdop><vdop>4.125</vdop><extensions><gom:speed>0.409</gom:speed></extensions></trkpt>
   <trkpt lat="59.0655550288" lon="30.0273393583"><ele>86.605</ele><time>2026-04-20T18:24:40.075Z</time><hdop>4.75</hdop><vdop>4.0</vdop><extensions><gom:speed>0.418</gom:speed></extensions></trkpt>
   <trkpt lat="59.0655496225" lon="30.0273397774"><ele>86.778</ele><time>2026-04-20T18:24:41.032Z</time><hdop>4.625</hdop><vdop>4.0</vdop><extensions><gom:speed>0.474</gom:speed></extensions></trkpt>
   <trkpt lat="59.0655450544" lon="30.0273401965"><ele>86.836</ele><time>2026-04-20T18:24:41.657Z</time><hdop>4.625</hdop><vdop>4.0</vdop><extensions><gom:speed>0.463</gom:speed></extensions></trkpt>
   <trkpt lat="59.0655404443" lon="30.0273482431"><ele>87.03</ele><time>2026-04-20T18:24:43.076Z</time><hdop>4.5</hdop><vdop>5.25</vdop><extensions><gom:speed>0.353</gom:speed></extensions></trkpt>
   <trkpt lat="59.0655390194" lon="30.0273513444"><ele>87.095</ele><time>2026-04-20T18:24:44.075Z</time><hdop>4.5</hdop><vdop>5.25</vdop><extensions><gom:speed>0.256</gom:speed></extensions></trkpt>
   <trkpt lat="59.0655378459" lon="30.0273526855"><ele>87.115</ele><time>2026-04-20T18:24:44.939Z</time><hdop>4.5</hdop><vdop>5.25</vdop><extensions><gom:speed>0.205</gom:speed></extensions></trkpt>
   <trkpt lat="59.0655363372" lon="30.0273516797"><ele>87.126</ele><time>2026-04-20T18:24:45.860Z</time><hdop>4.625</hdop><vdop>5.25</vdop><extensions><gom:speed>0.18</gom:speed></extensions></trkpt>
   <trkpt lat="59.0655328168" lon="30.0273502548"><ele>87.243</ele><time>2026-04-20T18:24:46.916Z</time><hdop>4.625</hdop><vdop>5.375</vdop><extensions><gom:speed>0.158</gom:speed></extensions></trkpt>
   <trkpt lat="59.0655310566" lon="30.0273515121"><ele>87.344</ele><time>2026-04-20T18:24:47.736Z</time><hdop>4.625</hdop><vdop>5.25</vdop><extensions><gom:speed>0.197</gom:speed></extensions></trkpt>
   <trkpt lat="59.0655281229" lon="30.0273534399"><ele>87.407</ele><time>2026-04-20T18:24:48.615Z</time><hdop>4.75</hdop><vdop>5.125</vdop><extensions><gom:speed>0.306</gom:speed></extensions></trkpt>
   <trkpt lat="59.0655238481" lon="30.027354781"><ele>87.354</ele><time>2026-04-20T18:24:49.477Z</time><hdop>4.875</hdop><vdop>5.0</vdop><extensions><gom:speed>0.446</gom:speed></extensions></trkpt>
   <trkpt lat="59.0655186514" lon="30.0273544457"><ele>87.126</ele><time>2026-04-20T18:24:50.076Z</time><hdop>4.875</hdop><vdop>4.625</vdop><extensions><gom:speed>0.478</gom:speed></extensions></trkpt>
   <trkpt lat="59.065508635" lon="30.0273541105"><ele>86.964</ele><time>2026-04-20T18:24:51.075Z</time><hdop>5.125</hdop><vdop>4.375</vdop><extensions><gom:speed>0.61</gom:speed></extensions></trkpt>
   <trkpt lat="59.0654976547" lon="30.0273536075"><ele>86.715</ele><time>2026-04-20T18:24:52.075Z</time><hdop>5.25</hdop><vdop>4.375</vdop><extensions><gom:speed>0.713</gom:speed></extensions></trkpt>
   <trkpt lat="59.0654881412" lon="30.027352937"><ele>86.565</ele><time>2026-04-20T18:24:53.058Z</time><hdop>5.375</hdop><vdop>4.375</vdop><extensions><gom:speed>0.802</gom:speed></extensions></trkpt>
   <trkpt lat="59.065475736" lon="30.0273531046"><ele>86.769</ele><time>2026-04-20T18:24:53.917Z</time><hdop>5.375</hdop><vdop>4.375</vdop><extensions><gom:speed>0.828</gom:speed></extensions></trkpt>
   <trkpt lat="59.065468318" lon="30.0273550325"><ele>87.006</ele><time>2026-04-20T18:24:54.796Z</time><hdop>5.375</hdop><vdop>4.125</vdop><extensions><gom:speed>0.821</gom:speed></extensions></trkpt>
   <trkpt lat="59.065460942" lon="30.0273577147"><ele>87.466</ele><time>2026-04-20T18:24:55.438Z</time><hdop>5.25</hdop><vdop>4.0</vdop><extensions><gom:speed>0.88</gom:speed></extensions></trkpt>
   <trkpt lat="59.0654543202" lon="30.0273622409"><ele>87.864</ele><time>2026-04-20T18:24:56.075Z</time><hdop>5.25</hdop><vdop>3.75</vdop><extensions><gom:speed>0.881</gom:speed></extensions></trkpt>
   <trkpt lat="59.0654453516" lon="30.027371461"><ele>88.202</ele><time>2026-04-20T18:24:57.075Z</time><hdop>5.125</hdop><vdop>3.5</vdop><extensions><gom:speed>0.875</gom:speed></extensions></trkpt>
   <trkpt lat="59.0654374307" lon="30.0273814355"><ele>88.479</ele><time>2026-04-20T18:24:58.075Z</time><hdop>4.875</hdop><vdop>3.375</vdop><extensions><gom:speed>0.817</gom:speed></extensions></trkpt>
   <trkpt lat="59.0654304318" lon="30.0273914099"><ele>88.764</ele><time>2026-04-20T18:24:59.075Z</time><hdop>4.75</hdop><vdop>3.25</vdop><extensions><gom:speed>0.793</gom:speed></extensions></trkpt>
   <trkpt lat="59.0654217566" lon="30.0273963552"><ele>88.934</ele><time>2026-04-20T18:24:59.860Z</time><hdop>4.75</hdop><vdop>3.25</vdop><extensions><gom:speed>0.853</gom:speed></extensions></trkpt>
   <trkpt lat="59.0654143386" lon="30.0274018035"><ele>88.955</ele><time>2026-04-20T18:25:00.817Z</time><hdop>4.75</hdop><vdop>3.125</vdop><extensions><gom:speed>0.851</gom:speed></extensions></trkpt>
   <trkpt lat="59.0654091418" lon="30.0274075032"><ele>89.005</ele><time>2026-04-20T18:25:01.459Z</time><hdop>4.75</hdop><vdop>3.125</vdop><extensions><gom:speed>0.847</gom:speed></extensions></trkpt>
   <trkpt lat="59.0654040288" lon="30.0274127"><ele>89.34</ele><time>2026-04-20T18:25:02.075Z</time><hdop>4.75</hdop><vdop>3.0</vdop><extensions><gom:speed>0.853</gom:speed></extensions></trkpt>
   <trkpt lat="59.0653953536" lon="30.0274179806"><ele>89.542</ele><time>2026-04-20T18:25:03.075Z</time><hdop>4.75</hdop><vdop>2.875</vdop><extensions><gom:speed>0.823</gom:speed></extensions></trkpt>
   <trkpt lat="59.0653867202" lon="30.0274238479"><ele>89.316</ele><time>2026-04-20T18:25:04.075Z</time><hdop>4.75</hdop><vdop>2.625</vdop><extensions><gom:speed>0.85</gom:speed></extensions></trkpt>
   <trkpt lat="59.0653777516" lon="30.027429799"><ele>89.309</ele><time>2026-04-20T18:25:05.075Z</time><hdop>4.75</hdop><vdop>2.5</vdop><extensions><gom:speed>0.792</gom:speed></extensions></trkpt>
   <trkpt lat="59.0653750274" lon="30.0274310563"><ele>89.305</ele><time>2026-04-20T18:25:05.672Z</time><hdop>4.875</hdop><vdop>2.5</vdop><extensions><gom:speed>0.784</gom:speed></extensions></trkpt>
   <trkpt lat="59.0653619517" lon="30.0274336547"><ele>89.322</ele><time>2026-04-20T18:25:06.899Z</time><hdop>4.875</hdop><vdop>2.5</vdop><extensions><gom:speed>0.76</gom:speed></extensions></trkpt>
   <trkpt lat="59.0653554557" lon="30.0274365046"><ele>89.741</ele><time>2026-04-20T18:25:07.819Z</time><hdop>4.875</hdop><vdop>2.625</vdop><extensions><gom:speed>0.729</gom:speed></extensions></trkpt>
   <trkpt lat="59.0653484568" lon="30.0274417852"><ele>90.172</ele><time>2026-04-20T18:25:08.932Z</time><hdop>4.875</hdop><vdop>2.5</vdop><extensions><gom:speed>0.694</gom:speed></extensions></trkpt>
   <trkpt lat="59.0653427571" lon="30.0274484069"><ele>90.409</ele><time>2026-04-20T18:25:09.900Z</time><hdop>4.875</hdop><vdop>2.5</vdop><extensions><gom:speed>0.681</gom:speed></extensions></trkpt>
   <trkpt lat="59.0653371412" lon="30.0274549447"><ele>90.618</ele><time>2026-04-20T18:25:10.740Z</time><hdop>5.0</hdop><vdop>2.5</vdop><extensions><gom:speed>0.752</gom:speed></extensions></trkpt>
   <trkpt lat="59.0653308548" lon="30.027463159"><ele>90.734</ele><time>2026-04-20T18:25:11.657Z</time><hdop>5.0</hdop><vdop>2.5</vdop><extensions><gom:speed>0.735</gom:speed></extensions></trkpt>
   <trkpt lat="59.0653248198" lon="30.0274712895"><ele>90.683</ele><time>2026-04-20T18:25:12.406Z</time><hdop>5.0</hdop><vdop>2.5</vdop><extensions><gom:speed>0.774</gom:speed></extensions></trkpt>
   <trkpt lat="59.0653211318" lon="30.0274769892"><ele>90.664</ele><time>2026-04-20T18:25:13.075Z</time><hdop>5.125</hdop><vdop>2.75</vdop><extensions><gom:speed>0.775</gom:speed></extensions></trkpt>
   <trkpt lat="59.0653176533" lon="30.0274829403"><ele>90.652</ele><time>2026-04-20T18:25:13.681Z</time><hdop>5.125</hdop><vdop>2.75</vdop><extensions><gom:speed>0.788</gom:speed></extensions></trkpt>
   <trkpt lat="59.0653146358" lon="30.0274957646"><ele>90.229</ele><time>2026-04-20T18:25:14.502Z</time><hdop>5.125</hdop><vdop>2.625</vdop><extensions><gom:speed>0.804</gom:speed></extensions></trkpt>
   <trkpt lat="59.0653131271" lon="30.0275052362"><ele>90.213</ele><time>2026-04-20T18:25:15.075Z</time><hdop>5.125</hdop><vdop>2.5</vdop><extensions><gom:speed>0.799</gom:speed></extensions></trkpt>
   <trkpt lat="59.0653089361" lon="30.0275163841"><ele>90.214</ele><time>2026-04-20T18:25:16.075Z</time><hdop>5.125</hdop><vdop>2.5</vdop><extensions><gom:speed>0.771</gom:speed></extensions></trkpt>
   <trkpt lat="59.065302524" lon="30.0275185634"><ele>90.215</ele><time>2026-04-20T18:25:17.058Z</time><hdop>5.125</hdop><vdop>2.5</vdop><extensions><gom:speed>0.72</gom:speed></extensions></trkpt>
   <trkpt lat="59.0652984168" lon="30.0275186472"><ele>90.666</ele><time>2026-04-20T18:25:18.075Z</time><hdop>5.0</hdop><vdop>2.875</vdop><extensions><gom:speed>0.639</gom:speed></extensions></trkpt>
   <trkpt lat="59.0652949384" lon="30.0275166356"><ele>90.936</ele><time>2026-04-20T18:25:18.993Z</time><hdop>5.0</hdop><vdop>2.875</vdop><extensions><gom:speed>0.533</gom:speed></extensions></trkpt>
   <trkpt lat="59.0652927172" lon="30.0275163841"><ele>91.342</ele><time>2026-04-20T18:25:19.903Z</time><hdop>5.0</hdop><vdop>3.0</vdop><extensions><gom:speed>0.499</gom:speed></extensions></trkpt>
   <trkpt lat="59.0652888196" lon="30.0275154621"><ele>92.022</ele><time>2026-04-20T18:25:20.800Z</time><hdop>5.0</hdop><vdop>3.125</vdop><extensions><gom:speed>0.549</gom:speed></extensions></trkpt>
   <trkpt lat="59.0652843353" lon="30.0275131152"><ele>92.588</ele><time>2026-04-20T18:25:21.876Z</time><hdop>4.875</hdop><vdop>3.0</vdop><extensions><gom:speed>0.534</gom:speed></extensions></trkpt>
   <trkpt lat="59.0652803538" lon="30.0275098462"><ele>92.726</ele><time>2026-04-20T18:25:23.075Z</time><hdop>4.875</hdop><vdop>2.875</vdop><extensions><gom:speed>0.474</gom:speed></extensions></trkpt>
   <trkpt lat="59.0652764563" lon="30.0275093433"><ele>92.809</ele><time>2026-04-20T18:25:24.018Z</time><hdop>4.875</hdop><vdop>2.875</vdop><extensions><gom:speed>0.462</gom:speed></extensions></trkpt>
   <trkpt lat="59.06527193" lon="30.0275085889"><ele>93.151</ele><time>2026-04-20T18:25:24.917Z</time><hdop>4.875</hdop><vdop>3.0</vdop><extensions><gom:speed>0.519</gom:speed></extensions></trkpt>
   <trkpt lat="59.0652676553" lon="30.0275069964"><ele>93.307</ele><time>2026-04-20T18:25:25.737Z</time><hdop>4.875</hdop><vdop>3.125</vdop><extensions><gom:speed>0.589</gom:speed></extensions></trkpt>
   <trkpt lat="59.0652632548" lon="30.0275075831"><ele>93.732</ele><time>2026-04-20T18:25:26.812Z</time><hdop>4.875</hdop><vdop>3.125</vdop><extensions><gom:speed>0.574</gom:speed></extensions></trkpt>
   <trkpt lat="59.065259441" lon="30.0275121931"><ele>93.924</ele><time>2026-04-20T18:25:27.898Z</time><hdop>5.0</hdop><vdop>3.0</vdop><extensions><gom:speed>0.572</gom:speed></extensions></trkpt>
   <trkpt lat="59.0652559206" lon="30.0275173061"><ele>94.15</ele><time>2026-04-20T18:25:28.875Z</time><hdop>5.0</hdop><vdop>3.0</vdop><extensions><gom:speed>0.575</gom:speed></extensions></trkpt>
   <trkpt lat="59.0652534479" lon="30.0275204912"><ele>94.026</ele><time>2026-04-20T18:25:29.835Z</time><hdop>5.0</hdop><vdop>3.125</vdop><extensions><gom:speed>0.543</gom:speed></extensions></trkpt>
   <trkpt lat="59.065252023" lon="30.0275211618"><ele>93.962</ele><time>2026-04-20T18:25:30.433Z</time><hdop>5.0</hdop><vdop>3.25</vdop><extensions><gom:speed>0.552</gom:speed></extensions></trkpt>
   <trkpt lat="59.0652474549" lon="30.0275253527"><ele>94.015</ele><time>2026-04-20T18:25:31.075Z</time><hdop>5.0</hdop><vdop>3.125</vdop><extensions><gom:speed>0.562</gom:speed></extensions></trkpt>
   <trkpt lat="59.0652436411" lon="30.0275268615"><ele>94.046</ele><time>2026-04-20T18:25:31.876Z</time><hdop>5.0</hdop><vdop>3.125</vdop><extensions><gom:speed>0.574</gom:speed></extensions></trkpt>
   <trkpt lat="59.0652391568" lon="30.0275302142"><ele>94.397</ele><time>2026-04-20T18:25:32.854Z</time><hdop>5.0</hdop><vdop>3.0</vdop><extensions><gom:speed>0.574</gom:speed></extensions></trkpt>
   <trkpt lat="59.0652345467" lon="30.0275318068"><ele>94.565</ele><time>2026-04-20T18:25:33.694Z</time><hdop>4.875</hdop><vdop>3.125</vdop><extensions><gom:speed>0.588</gom:speed></extensions></trkpt>
   <trkpt lat="59.0652298529" lon="30.0275305495"><ele>95.18</ele><time>2026-04-20T18:25:34.554Z</time><hdop>4.875</hdop><vdop>3.125</vdop><extensions><gom:speed>0.586</gom:speed></extensions></trkpt>
   <trkpt lat="59.0652272545" lon="30.0275279511"><ele>95.903</ele><time>2026-04-20T18:25:35.075Z</time><hdop>4.875</hdop><vdop>3.25</vdop><extensions><gom:speed>0.599</gom:speed></extensions></trkpt>
   <trkpt lat="59.0652231474" lon="30.0275194016"><ele>95.934</ele><time>2026-04-20T18:25:36.075Z</time><hdop>4.75</hdop><vdop>3.125</vdop><extensions><gom:speed>0.586</gom:speed></extensions></trkpt>
   <trkpt lat="59.0652217224" lon="30.0275157135"><ele>95.953</ele><time>2026-04-20T18:25:36.594Z</time><hdop>4.75</hdop><vdop>3.125</vdop><extensions><gom:speed>0.614</gom:speed></extensions></trkpt>
   <trkpt lat="59.0652180344" lon="30.0275052362"><ele>96.224</ele><time>2026-04-20T18:25:37.076Z</time><hdop>4.75</hdop><vdop>3.125</vdop><extensions><gom:speed>0.658</gom:speed></extensions></trkpt>
   <trkpt lat="59.0652133405" lon="30.0274973572"><ele>96.387</ele><time>2026-04-20T18:25:38.037Z</time><hdop>4.625</hdop><vdop>3.125</vdop><extensions><gom:speed>0.694</gom:speed></extensions></trkpt>
   <trkpt lat="59.065208018" lon="30.0274901487"><ele>96.21</ele><time>2026-04-20T18:25:38.838Z</time><hdop>4.625</hdop><vdop>3.0</vdop><extensions><gom:speed>0.727</gom:speed></extensions></trkpt>
   <trkpt lat="59.0652012287" lon="30.0274822698"><ele>95.811</ele><time>2026-04-20T18:25:39.874Z</time><hdop>4.625</hdop><vdop>3.125</vdop><extensions><gom:speed>0.704</gom:speed></extensions></trkpt>
   <trkpt lat="59.0651966186" lon="30.027477995"><ele>95.324</ele><time>2026-04-20T18:25:40.753Z</time><hdop>4.625</hdop><vdop>3.125</vdop><extensions><gom:speed>0.665</gom:speed></extensions></trkpt>
   <trkpt lat="59.0651901227" lon="30.0274758995"><ele>94.84</ele><time>2026-04-20T18:25:41.740Z</time><hdop>4.625</hdop><vdop>3.25</vdop><extensions><gom:speed>0.658</gom:speed></extensions></trkpt>
   <trkpt lat="59.0651857222" lon="30.0274733011"><ele>94.289</ele><time>2026-04-20T18:25:42.579Z</time><hdop>4.75</hdop><vdop>3.125</vdop><extensions><gom:speed>0.672</gom:speed></extensions></trkpt>
   <trkpt lat="59.0651820341" lon="30.0274707865"><ele>93.824</ele><time>2026-04-20T18:25:43.075Z</time><hdop>4.75</hdop><vdop>3.125</vdop><extensions><gom:speed>0.664</gom:speed></extensions></trkpt>
   <trkpt lat="59.0651806511" lon="30.0274698645"><ele>93.547</ele><time>2026-04-20T18:25:43.576Z</time><hdop>4.75</hdop><vdop>3.125</vdop><extensions><gom:speed>0.644</gom:speed></extensions></trkpt>
   <trkpt lat="59.0651745323" lon="30.0274657574"><ele>92.48</ele><time>2026-04-20T18:25:44.898Z</time><hdop>4.875</hdop><vdop>3.25</vdop><extensions><gom:speed>0.565</gom:speed></extensions></trkpt>
   <trkpt lat="59.065172353" lon="30.0274639134"><ele>91.769</ele><time>2026-04-20T18:25:45.679Z</time><hdop>4.875</hdop><vdop>3.375</vdop><extensions><gom:speed>0.605</gom:speed></extensions></trkpt>
   <trkpt lat="59.0651673239" lon="30.0274582137"><ele>91.325</ele><time>2026-04-20T18:25:46.815Z</time><hdop>4.875</hdop><vdop>3.5</vdop><extensions><gom:speed>0.564</gom:speed></extensions></trkpt>
   <trkpt lat="59.0651667372" lon="30.02745528"><ele>90.927</ele><time>2026-04-20T18:25:47.962Z</time><hdop>4.875</hdop><vdop>3.625</vdop><extensions><gom:speed>0.471</gom:speed></extensions></trkpt>
   <trkpt lat="59.0651683297" lon="30.0274583813"><ele>90.893</ele><time>2026-04-20T18:25:48.914Z</time><hdop>4.875</hdop><vdop>3.75</vdop><extensions><gom:speed>0.451</gom:speed></extensions></trkpt>
   <trkpt lat="59.0651710538" lon="30.0274643325"><ele>91.973</ele><time>2026-04-20T18:25:50.075Z</time><hdop>4.875</hdop><vdop>3.375</vdop><extensions><gom:speed>0.378</gom:speed></extensions></trkpt>
   <trkpt lat="59.0651728559" lon="30.0274653383"><ele>92.744</ele><time>2026-04-20T18:25:51.075Z</time><hdop>4.875</hdop><vdop>3.375</vdop><extensions><gom:speed>0.348</gom:speed></extensions></trkpt>
   <trkpt lat="59.0651751191" lon="30.0274624046"><ele>93.351</ele><time>2026-04-20T18:25:52.075Z</time><hdop>4.75</hdop><vdop>3.375</vdop><extensions><gom:speed>0.355</gom:speed></extensions></trkpt>
   <trkpt lat="59.0651766278" lon="30.0274575431"><ele>93.734</ele><time>2026-04-20T18:25:53.075Z</time><hdop>4.625</hdop><vdop>3.375</vdop><extensions><gom:speed>0.38</gom:speed></extensions></trkpt>
   <trkpt lat="59.0651758315" lon="30.0274528493"><ele>94.106</ele><time>2026-04-20T18:25:54.075Z</time><hdop>4.625</hdop><vdop>3.375</vdop><extensions><gom:speed>0.428</gom:speed></extensions></trkpt>
   <trkpt lat="59.065172353" lon="30.0274494965"><ele>94.328</ele><time>2026-04-20T18:25:54.801Z</time><hdop>4.625</hdop><vdop>3.375</vdop><extensions><gom:speed>0.51</gom:speed></extensions></trkpt>
   <trkpt lat="59.0651685393" lon="30.0274423719"><ele>94.361</ele><time>2026-04-20T18:25:55.492Z</time><hdop>4.625</hdop><vdop>3.375</vdop><extensions><gom:speed>0.603</gom:speed></extensions></trkpt>
   <trkpt lat="59.0651669467" lon="30.0274388515"><ele>94.673</ele><time>2026-04-20T18:25:56.075Z</time><hdop>4.625</hdop><vdop>3.25</vdop><extensions><gom:speed>0.612</gom:speed></extensions></trkpt>
   <trkpt lat="59.0651627557" lon="30.0274313078"><ele>94.335</ele><time>2026-04-20T18:25:57.075Z</time><hdop>4.625</hdop><vdop>3.25</vdop><extensions><gom:speed>0.649</gom:speed></extensions></trkpt>
   <trkpt lat="59.0651581457" lon="30.0274204951"><ele>93.663</ele><time>2026-04-20T18:25:58.075Z</time><hdop>4.75</hdop><vdop>3.5</vdop><extensions><gom:speed>0.735</gom:speed></extensions></trkpt>
   <trkpt lat="59.0651528232" lon="30.0274093472"><ele>93.261</ele><time>2026-04-20T18:25:59.037Z</time><hdop>4.75</hdop><vdop>3.5</vdop><extensions><gom:speed>0.77</gom:speed></extensions></trkpt>
   <trkpt lat="59.0651482551" lon="30.0273985345"><ele>93.181</ele><time>2026-04-20T18:25:59.956Z</time><hdop>4.875</hdop><vdop>3.875</vdop><extensions><gom:speed>0.772</gom:speed></extensions></trkpt>
   <trkpt lat="59.0651438546" lon="30.0273915776"><ele>92.63</ele><time>2026-04-20T18:26:00.914Z</time><hdop>5.0</hdop><vdop>4.125</vdop><extensions><gom:speed>0.742</gom:speed></extensions></trkpt>
   <trkpt lat="59.0651373167" lon="30.0273858779"><ele>92.945</ele><time>2026-04-20T18:26:01.802Z</time><hdop>5.0</hdop><vdop>4.125</vdop><extensions><gom:speed>0.734</gom:speed></extensions></trkpt>
   <trkpt lat="59.0651340477" lon="30.0273831957"><ele>92.58</ele><time>2026-04-20T18:26:02.660Z</time><hdop>5.125</hdop><vdop>3.875</vdop><extensions><gom:speed>0.727</gom:speed></extensions></trkpt>
   <trkpt lat="59.065129731" lon="30.0273818546"><ele>91.829</ele><time>2026-04-20T18:26:03.381Z</time><hdop>5.125</hdop><vdop>3.75</vdop><extensions><gom:speed>0.725</gom:speed></extensions></trkpt>
   <trkpt lat="59.065126043" lon="30.0273809325"><ele>91.013</ele><time>2026-04-20T18:26:04.075Z</time><hdop>5.0</hdop><vdop>3.375</vdop><extensions><gom:speed>0.698</gom:speed></extensions></trkpt>
   <trkpt lat="59.0651208462" lon="30.0273774121"><ele>90.769</ele><time>2026-04-20T18:26:05.027Z</time><hdop>5.0</hdop><vdop>3.375</vdop><extensions><gom:speed>0.637</gom:speed></extensions></trkpt>
   <trkpt lat="59.0651167391" lon="30.0273770769"><ele>90.586</ele><time>2026-04-20T18:26:05.975Z</time><hdop>5.0</hdop><vdop>3.25</vdop><extensions><gom:speed>0.544</gom:speed></extensions></trkpt>
   <trkpt lat="59.0651152304" lon="30.0273831957"><ele>90.433</ele><time>2026-04-20T18:26:07.041Z</time><hdop>5.0</hdop><vdop>6.625</vdop><extensions><gom:speed>0.425</gom:speed></extensions></trkpt>
   <trkpt lat="59.06511632" lon="30.0273829442"><ele>90.341</ele><time>2026-04-20T18:26:07.516Z</time><hdop>5.0</hdop><vdop>6.625</vdop><extensions><gom:speed>0.314</gom:speed></extensions></trkpt>
   <trkpt lat="59.0651160266" lon="30.0273858779"><ele>90.297</ele><time>2026-04-20T18:26:08.075Z</time><hdop>5.125</hdop><vdop>6.75</vdop><extensions><gom:speed>0.275</gom:speed></extensions></trkpt>
   <trkpt lat="59.06511632" lon="30.0273878895"><ele>90.213</ele><time>2026-04-20T18:26:08.936Z</time><hdop>5.125</hdop><vdop>6.625</vdop><extensions><gom:speed>0.246</gom:speed></extensions></trkpt>
   <trkpt lat="59.0651157333" lon="30.027389063"><ele>90.162</ele><time>2026-04-20T18:26:09.452Z</time><hdop>5.125</hdop><vdop>6.625</vdop><extensions><gom:speed>0.229</gom:speed></extensions></trkpt>
   <trkpt lat="59.0651150208" lon="30.0273920805"><ele>90.568</ele><time>2026-04-20T18:26:10.075Z</time><hdop>5.25</hdop><vdop>6.5</vdop><extensions><gom:speed>0.247</gom:speed></extensions></trkpt>
   <trkpt lat="59.0651131349" lon="30.0273961876"><ele>90.955</ele><time>2026-04-20T18:26:11.075Z</time><hdop>5.25</hdop><vdop>6.375</vdop><extensions><gom:speed>0.287</gom:speed></extensions></trkpt>
   <trkpt lat="59.0651093211" lon="30.0273997918"><ele>91.218</ele><time>2026-04-20T18:26:12.017Z</time><hdop>5.125</hdop><vdop>6.375</vdop><extensions><gom:speed>0.374</gom:speed></extensions></trkpt>
   <trkpt lat="59.0651042501" lon="30.0274042342"><ele>91.355</ele><time>2026-04-20T18:26:13.075Z</time><hdop>5.25</hdop><vdop>6.25</vdop><extensions><gom:speed>0.474</gom:speed></extensions></trkpt>
   <trkpt lat="59.0651021546" lon="30.0274060783"><ele>91.436</ele><time>2026-04-20T18:26:13.675Z</time><hdop>5.25</hdop><vdop>6.25</vdop><extensions><gom:speed>0.522</gom:speed></extensions></trkpt>
   <trkpt lat="59.0650906295" lon="30.0274170585"><ele>91.696</ele><time>2026-04-20T18:26:14.913Z</time><hdop>5.375</hdop><vdop>6.25</vdop><extensions><gom:speed>0.686</gom:speed></extensions></trkpt>
   <trkpt lat="59.0650854327" lon="30.0274183997"><ele>91.973</ele><time>2026-04-20T18:26:15.724Z</time><hdop>5.5</hdop><vdop>6.125</vdop><extensions><gom:speed>0.758</gom:speed></extensions></trkpt>
   <trkpt lat="59.0650781404" lon="30.0274218362"><ele>92.248</ele><time>2026-04-20T18:26:16.659Z</time><hdop>5.75</hdop><vdop>6.125</vdop><extensions><gom:speed>0.801</gom:speed></extensions></trkpt>
   <trkpt lat="59.0650734466" lon="30.0274248537"><ele>92.692</ele><time>2026-04-20T18:26:17.519Z</time><hdop>5.875</hdop><vdop>6.0</vdop><extensions><gom:speed>0.781</gom:speed></extensions></trkpt>
   <trkpt lat="59.065071854" lon="30.0274272007"><ele>93.147</ele><time>2026-04-20T18:26:18.075Z</time><hdop>5.875</hdop><vdop>5.75</vdop><extensions><gom:speed>0.749</gom:speed></extensions></trkpt>
   <trkpt lat="59.0650694233" lon="30.0274363369"><ele>93.538</ele><time>2026-04-20T18:26:19.007Z</time><hdop>5.875</hdop><vdop>5.625</vdop><extensions><gom:speed>0.727</gom:speed></extensions></trkpt>
   <trkpt lat="59.0650683336" lon="30.0274406117"><ele>93.771</ele><time>2026-04-20T18:26:19.836Z</time><hdop>5.875</hdop><vdop>5.625</vdop><extensions><gom:speed>0.711</gom:speed></extensions></trkpt>
   <trkpt lat="59.0650634302" lon="30.0274463114"><ele>94.017</ele><time>2026-04-20T18:26:21.013Z</time><hdop>5.875</hdop><vdop>5.375</vdop><extensions><gom:speed>0.705</gom:speed></extensions></trkpt>
   <trkpt lat="59.0650576467" lon="30.0274531845"><ele>94.26</ele><time>2026-04-20T18:26:21.852Z</time><hdop>5.875</hdop><vdop>5.25</vdop><extensions><gom:speed>0.797</gom:speed></extensions></trkpt>
   <trkpt lat="59.06505333" lon="30.0274507538"><ele>94.468</ele><time>2026-04-20T18:26:22.633Z</time><hdop>5.875</hdop><vdop>5.125</vdop><extensions><gom:speed>0.84</gom:speed></extensions></trkpt>
   <trkpt lat="59.0650472531" lon="30.0274510053"><ele>95.854</ele><time>2026-04-20T18:26:23.549Z</time><hdop>5.75</hdop><vdop>4.0</vdop><extensions><gom:speed>0.848</gom:speed></extensions></trkpt>
   <trkpt lat="59.0650429364" lon="30.0274516758"><ele>97.524</ele><time>2026-04-20T18:26:24.075Z</time><hdop>5.75</hdop><vdop>3.25</vdop><extensions><gom:speed>0.849</gom:speed></extensions></trkpt>
   <trkpt lat="59.0650359376" lon="30.027458549"><ele>98.521</ele><time>2026-04-20T18:26:24.992Z</time><hdop>5.625</hdop><vdop>3.25</vdop><extensions><gom:speed>0.89</gom:speed></extensions></trkpt>
   <trkpt lat="59.0650251249" lon="30.0274634943"><ele>99.239</ele><time>2026-04-20T18:26:26.020Z</time><hdop>5.375</hdop><vdop>3.0</vdop><extensions><gom:speed>0.916</gom:speed></extensions></trkpt>
   <trkpt lat="59.0650140189" lon="30.0274670147"><ele>99.668</ele><time>2026-04-20T18:26:26.898Z</time><hdop>5.125</hdop><vdop>2.875</vdop><extensions><gom:speed>0.919</gom:speed></extensions></trkpt>
   <trkpt lat="59.0650013203" lon="30.0274707865"><ele>99.671</ele><time>2026-04-20T18:26:27.994Z</time><hdop>5.0</hdop><vdop>2.75</vdop><extensions><gom:speed>0.872</gom:speed></extensions></trkpt>
   <trkpt lat="59.0649913458" lon="30.0274702836"><ele>99.255</ele><time>2026-04-20T18:26:28.774Z</time><hdop>4.875</hdop><vdop>2.875</vdop><extensions><gom:speed>0.835</gom:speed></extensions></trkpt>
   <trkpt lat="59.0649807427" lon="30.0274694454"><ele>98.748</ele><time>2026-04-20T18:26:29.514Z</time><hdop>4.75</hdop><vdop>3.0</vdop><extensions><gom:speed>0.882</gom:speed></extensions></trkpt>
   <trkpt lat="59.064972738" lon="30.0274684396"><ele>98.301</ele><time>2026-04-20T18:26:30.076Z</time><hdop>4.75</hdop><vdop>3.25</vdop><extensions><gom:speed>0.892</gom:speed></extensions></trkpt>
   <trkpt lat="59.0649636436" lon="30.0274653383"><ele>98.033</ele><time>2026-04-20T18:26:30.856Z</time><hdop>4.75</hdop><vdop>3.25</vdop><extensions><gom:speed>0.956</gom:speed></extensions></trkpt>
   <trkpt lat="59.0649519509" lon="30.0274643325"><ele>97.882</ele><time>2026-04-20T18:26:31.696Z</time><hdop>4.625</hdop><vdop>3.125</vdop><extensions><gom:speed>0.938</gom:speed></extensions></trkpt>
   <trkpt lat="59.0649444491" lon="30.027468272"><ele>97.703</ele><time>2026-04-20T18:26:32.276Z</time><hdop>4.5</hdop><vdop>3.0</vdop><extensions><gom:speed>0.939</gom:speed></extensions></trkpt>
   <trkpt lat="59.0649316248" lon="30.0274764862"><ele>97.302</ele><time>2026-04-20T18:26:33.075Z</time><hdop>4.5</hdop><vdop>3.0</vdop><extensions><gom:speed>0.904</gom:speed></extensions></trkpt>
   <trkpt lat="59.0649230333" lon="30.027484952"><ele>97.062</ele><time>2026-04-20T18:26:34.017Z</time><hdop>4.375</hdop><vdop>3.0</vdop><extensions><gom:speed>0.911</gom:speed></extensions></trkpt>
   <trkpt lat="59.0649124302" lon="30.0274972734"><ele>96.923</ele><time>2026-04-20T18:26:35.034Z</time><hdop>4.375</hdop><vdop>2.75</vdop><extensions><gom:speed>0.9</gom:speed></extensions></trkpt>
   <trkpt lat="59.0649029167" lon="30.0275038951"><ele>96.859</ele><time>2026-04-20T18:26:35.902Z</time><hdop>4.375</hdop><vdop>2.75</vdop><extensions><gom:speed>0.825</gom:speed></extensions></trkpt>
   <trkpt lat="59.0648937386" lon="30.027507164"><ele>96.846</ele><time>2026-04-20T18:26:36.662Z</time><hdop>4.375</hdop><vdop>2.625</vdop><extensions><gom:speed>0.839</gom:speed></extensions></trkpt>
   <trkpt lat="59.0648843508" lon="30.0275117741"><ele>96.763</ele><time>2026-04-20T18:26:37.482Z</time><hdop>4.375</hdop><vdop>2.75</vdop><extensions><gom:speed>0.812</gom:speed></extensions></trkpt>
   <trkpt lat="59.0648780225" lon="30.0275157974"><ele>96.83</ele><time>2026-04-20T18:26:38.075Z</time><hdop>4.375</hdop><vdop>2.75</vdop><extensions><gom:speed>0.794</gom:speed></extensions></trkpt>
   <trkpt lat="59.0648730353" lon="30.0275169708"><ele>96.871</ele><time>2026-04-20T18:26:38.735Z</time><hdop>4.375</hdop><vdop>2.75</vdop><extensions><gom:speed>0.732</gom:speed></extensions></trkpt>
   <trkpt lat="59.0648637314" lon="30.0275134504"><ele>96.827</ele><time>2026-04-20T18:26:39.761Z</time><hdop>4.375</hdop><vdop>2.75</vdop><extensions><gom:speed>0.703</gom:speed></extensions></trkpt>
   <trkpt lat="59.0648581574" lon="30.0275106006"><ele>96.831</ele><time>2026-04-20T18:26:40.642Z</time><hdop>4.375</hdop><vdop>2.875</vdop><extensions><gom:speed>0.72</gom:speed></extensions></trkpt>
   <trkpt lat="59.0648511166" lon="30.0275077507"><ele>96.603</ele><time>2026-04-20T18:26:41.619Z</time><hdop>4.375</hdop><vdop>3.0</vdop><extensions><gom:speed>0.661</gom:speed></extensions></trkpt>
   <trkpt lat="59.0648476381" lon="30.0275085051"><ele>96.474</ele><time>2026-04-20T18:26:42.075Z</time><hdop>4.375</hdop><vdop>2.875</vdop><extensions><gom:speed>0.67</gom:speed></extensions></trkpt>
   <trkpt lat="59.0648437405" lon="30.0275088404"><ele>96.397</ele><time>2026-04-20T18:26:42.576Z</time><hdop>4.375</hdop><vdop>2.875</vdop><extensions><gom:speed>0.661</gom:speed></extensions></trkpt>
   <trkpt lat="59.0648394238" lon="30.0275107682"><ele>96.143</ele><time>2026-04-20T18:26:43.075Z</time><hdop>4.375</hdop><vdop>3.0</vdop><extensions><gom:speed>0.677</gom:speed></extensions></trkpt>
   <trkpt lat="59.0648315448" lon="30.0275147077"><ele>95.759</ele><time>2026-04-20T18:26:44.075Z</time><hdop>4.5</hdop><vdop>3.125</vdop><extensions><gom:speed>0.651</gom:speed></extensions></trkpt>
   <trkpt lat="59.0648277311" lon="30.0275176414"><ele>95.53</ele><time>2026-04-20T18:26:44.952Z</time><hdop>4.5</hdop><vdop>3.125</vdop><extensions><gom:speed>0.643</gom:speed></extensions></trkpt>
   <trkpt lat="59.0648162479" lon="30.0275274482"><ele>95.334</ele><time>2026-04-20T18:26:46.075Z</time><hdop>4.5</hdop><vdop>2.875</vdop><extensions><gom:speed>0.632</gom:speed></extensions></trkpt>
   <trkpt lat="59.0648122246" lon="30.0275311362"><ele>95.217</ele><time>2026-04-20T18:26:46.902Z</time><hdop>4.5</hdop><vdop>2.875</vdop><extensions><gom:speed>0.555</gom:speed></extensions></trkpt>
   <trkpt lat="59.0648084527" lon="30.0275349919"><ele>95.109</ele><time>2026-04-20T18:26:47.640Z</time><hdop>4.5</hdop><vdop>2.75</vdop><extensions><gom:speed>0.544</gom:speed></extensions></trkpt>
   <trkpt lat="59.0648028368" lon="30.0275359139"><ele>95.572</ele><time>2026-04-20T18:26:48.500Z</time><hdop>4.5</hdop><vdop>2.75</vdop><extensions><gom:speed>0.602</gom:speed></extensions></trkpt>
   <trkpt lat="59.0647991488" lon="30.0275349081"><ele>95.817</ele><time>2026-04-20T18:26:49.075Z</time><hdop>4.5</hdop><vdop>2.875</vdop><extensions><gom:speed>0.602</gom:speed></extensions></trkpt>
   <trkpt lat="59.0647926528" lon="30.0275328126"><ele>96.49</ele><time>2026-04-20T18:26:50.075Z</time><hdop>4.5</hdop><vdop>2.875</vdop><extensions><gom:speed>0.654</gom:speed></extensions></trkpt>
   <trkpt lat="59.0647862407" lon="30.0275315553"><ele>96.892</ele><time>2026-04-20T18:26:51.017Z</time><hdop>4.5</hdop><vdop>2.875</vdop><extensions><gom:speed>0.665</gom:speed></extensions></trkpt>
   <trkpt lat="59.0647741288" lon="30.0275302142"><ele>97.55</ele><time>2026-04-20T18:26:52.087Z</time><hdop>4.5</hdop><vdop>2.625</vdop><extensions><gom:speed>0.786</gom:speed></extensions></trkpt>
   <trkpt lat="59.0647699379" lon="30.0275367521"><ele>98.33</ele><time>2026-04-20T18:26:53.075Z</time><hdop>4.5</hdop><vdop>2.625</vdop><extensions><gom:speed>0.668</gom:speed></extensions></trkpt>
   <trkpt lat="59.0647699379" lon="30.0275371712"><ele>98.797</ele><time>2026-04-20T18:26:53.694Z</time><hdop>4.5</hdop><vdop>2.625</vdop><extensions><gom:speed>0.507</gom:speed></extensions></trkpt>
   <trkpt lat="59.0647702312" lon="30.0275385123"><ele>99.223</ele><time>2026-04-20T18:26:55.022Z</time><hdop>4.75</hdop><vdop>4.75</vdop><extensions><gom:speed>0.333</gom:speed></extensions></trkpt>
   <trkpt lat="59.0647727458" lon="30.027537758"><ele>99.477</ele><time>2026-04-20T18:26:55.970Z</time><hdop>4.875</hdop><vdop>4.375</vdop><extensions><gom:speed>0.199</gom:speed></extensions></trkpt>
   <trkpt lat="59.0647748413" lon="30.0275378418"><ele>99.629</ele><time>2026-04-20T18:26:56.961Z</time><hdop>5.0</hdop><vdop>4.375</vdop><extensions><gom:speed>0.17</gom:speed></extensions></trkpt>
   <trkpt lat="59.0647736259" lon="30.0275406078"><ele>99.766</ele><time>2026-04-20T18:26:57.898Z</time><hdop>5.0</hdop><vdop>4.0</vdop><extensions><gom:speed>0.178</gom:speed></extensions></trkpt>
   <trkpt lat="59.064774045" lon="30.0275416136"><ele>99.837</ele><time>2026-04-20T18:26:58.757Z</time><hdop>5.0</hdop><vdop>3.625</vdop><extensions><gom:speed>0.143</gom:speed></extensions></trkpt>
   <trkpt lat="59.064773123" lon="30.0275449664"><ele>99.897</ele><time>2026-04-20T18:26:59.943Z</time><hdop>5.0</hdop><vdop>3.375</vdop><extensions><gom:speed>0.146</gom:speed></extensions></trkpt>
   <trkpt lat="59.0647716561" lon="30.0275475648"><ele>100.296</ele><time>2026-04-20T18:27:00.762Z</time><hdop>4.875</hdop><vdop>3.0</vdop><extensions><gom:speed>0.154</gom:speed></extensions></trkpt>
   <trkpt lat="59.0647690578" lon="30.0275506661"><ele>100.013</ele><time>2026-04-20T18:27:01.679Z</time><hdop>4.75</hdop><vdop>3.0</vdop><extensions><gom:speed>0.152</gom:speed></extensions></trkpt>
   <trkpt lat="59.0647661241" lon="30.0275525101"><ele>100.229</ele><time>2026-04-20T18:27:02.420Z</time><hdop>4.625</hdop><vdop>3.25</vdop><extensions><gom:speed>0.102</gom:speed></extensions></trkpt>
   <trkpt lat="59.0647634419" lon="30.027553935"><ele>100.438</ele><time>2026-04-20T18:27:03.075Z</time><hdop>4.5</hdop><vdop>2.875</vdop><extensions><gom:speed>0.165</gom:speed></extensions></trkpt>
   <trkpt lat="59.0647619331" lon="30.0275542703"><ele>100.564</ele><time>2026-04-20T18:27:03.553Z</time><hdop>4.5</hdop><vdop>2.875</vdop><extensions><gom:speed>0.157</gom:speed></extensions></trkpt>
   <trkpt lat="59.064757826" lon="30.0275580422"><ele>100.62</ele><time>2026-04-20T18:27:04.075Z</time><hdop>4.375</hdop><vdop>2.75</vdop><extensions><gom:speed>0.202</gom:speed></extensions></trkpt>
   <trkpt lat="59.0647566525" lon="30.027560892"><ele>100.654</ele><time>2026-04-20T18:27:05.057Z</time><hdop>4.375</hdop><vdop>2.75</vdop><extensions><gom:speed>0.217</gom:speed></extensions></trkpt>
   <trkpt lat="59.0647533417" lon="30.0275652506"><ele>100.575</ele><time>2026-04-20T18:27:05.560Z</time><hdop>4.375</hdop><vdop>2.875</vdop><extensions><gom:speed>0.258</gom:speed></extensions></trkpt>
   <trkpt lat="59.0647487316" lon="30.0275702797"><ele>100.668</ele><time>2026-04-20T18:27:06.075Z</time><hdop>4.375</hdop><vdop>3.0</vdop><extensions><gom:speed>0.341</gom:speed></extensions></trkpt>
   <trkpt lat="59.0647426548" lon="30.0275753089"><ele>100.685</ele><time>2026-04-20T18:27:07.076Z</time><hdop>4.5</hdop><vdop>3.125</vdop><extensions><gom:speed>0.33</gom:speed></extensions></trkpt>
   <trkpt lat="59.0647403497" lon="30.0275735487"><ele>100.64</ele><time>2026-04-20T18:27:07.936Z</time><hdop>4.625</hdop><vdop>3.875</vdop><extensions><gom:speed>0.282</gom:speed></extensions></trkpt>
   <trkpt lat="59.0647405174" lon="30.027571537"><ele>100.614</ele><time>2026-04-20T18:27:08.432Z</time><hdop>4.75</hdop><vdop>3.875</vdop><extensions><gom:speed>0.265</gom:speed></extensions></trkpt>
   <trkpt lat="59.0647384219" lon="30.0275723752"><ele>100.597</ele><time>2026-04-20T18:27:09.075Z</time><hdop>4.75</hdop><vdop>4.0</vdop><extensions><gom:speed>0.271</gom:speed></extensions></trkpt>
   <trkpt lat="59.0647382543" lon="30.0275727105"><ele>100.587</ele><time>2026-04-20T18:27:09.713Z</time><hdop>4.75</hdop><vdop>4.0</vdop><extensions><gom:speed>0.25</gom:speed></extensions></trkpt>
   <trkpt lat="59.0647372484" lon="30.0275717885"><ele>100.656</ele><time>2026-04-20T18:27:10.496Z</time><hdop>4.75</hdop><vdop>4.0</vdop><extensions><gom:speed>0.257</gom:speed></extensions></trkpt>
   <trkpt lat="59.0647359492" lon="30.0275719561"><ele>100.6</ele><time>2026-04-20T18:27:11.016Z</time><hdop>4.75</hdop><vdop>4.0</vdop><extensions><gom:speed>0.28</gom:speed></extensions></trkpt>
   <trkpt lat="59.0647332251" lon="30.0275727105"><ele>100.554</ele><time>2026-04-20T18:27:11.964Z</time><hdop>4.875</hdop><vdop>4.0</vdop><extensions><gom:speed>0.295</gom:speed></extensions></trkpt>
   <trkpt lat="59.0647306267" lon="30.0275743031"><ele>100.438</ele><time>2026-04-20T18:27:13.030Z</time><hdop>4.875</hdop><vdop>3.875</vdop><extensions><gom:speed>0.316</gom:speed></extensions></trkpt>
   <trkpt lat="59.0647266453" lon="30.0275810924"><ele>100.452</ele><time>2026-04-20T18:27:14.075Z</time><hdop>5.125</hdop><vdop>3.75</vdop><extensions><gom:speed>0.325</gom:speed></extensions></trkpt>
   <trkpt lat="59.0647179281" lon="30.0275908992"><ele>100.398</ele><time>2026-04-20T18:27:15.076Z</time><hdop>5.25</hdop><vdop>3.25</vdop><extensions><gom:speed>0.448</gom:speed></extensions></trkpt>
   <trkpt lat="59.0647094205" lon="30.0275966827"><ele>100.365</ele><time>2026-04-20T18:27:15.876Z</time><hdop>5.375</hdop><vdop>3.25</vdop><extensions><gom:speed>0.628</gom:speed></extensions></trkpt>
   <trkpt lat="59.0646972248" lon="30.0276059866"><ele>99.961</ele><time>2026-04-20T18:27:16.737Z</time><hdop>5.5</hdop><vdop>3.125</vdop><extensions><gom:speed>0.755</gom:speed></extensions></trkpt>
   <trkpt lat="59.0646859512" lon="30.0276158773"><ele>99.646</ele><time>2026-04-20T18:27:17.574Z</time><hdop>5.375</hdop><vdop>2.875</vdop><extensions><gom:speed>0.818</gom:speed></extensions></trkpt>
   <trkpt lat="59.0646800419" lon="30.0276227505"><ele>99.396</ele><time>2026-04-20T18:27:18.076Z</time><hdop>5.375</hdop><vdop>3.0</vdop><extensions><gom:speed>0.823</gom:speed></extensions></trkpt>
   <trkpt lat="59.0646695227" lon="30.0276313"><ele>99.091</ele><time>2026-04-20T18:27:19.075Z</time><hdop>5.25</hdop><vdop>2.875</vdop><extensions><gom:speed>0.838</gom:speed></extensions></trkpt>
   <trkpt lat="59.0646593386" lon="30.0276395143"><ele>99.004</ele><time>2026-04-20T18:27:20.075Z</time><hdop>5.125</hdop><vdop>2.75</vdop><extensions><gom:speed>0.839</gom:speed></extensions></trkpt>
   <trkpt lat="59.0646525493" lon="30.0276487344"><ele>98.952</ele><time>2026-04-20T18:27:20.902Z</time><hdop>5.0</hdop><vdop>2.75</vdop><extensions><gom:speed>0.824</gom:speed></extensions></trkpt>
   <trkpt lat="59.0646450475" lon="30.027663235"><ele>99.228</ele><time>2026-04-20T18:27:21.701Z</time><hdop>5.0</hdop><vdop>2.75</vdop><extensions><gom:speed>0.827</gom:speed></extensions></trkpt>
   <trkpt lat="59.064636456" lon="30.0276737962"><ele>99.226</ele><time>2026-04-20T18:27:22.521Z</time><hdop>4.875</hdop><vdop>2.5</vdop><extensions><gom:speed>0.809</gom:speed></extensions></trkpt>
   <trkpt lat="59.0646303373" lon="30.0276789092"><ele>99.037</ele><time>2026-04-20T18:27:23.075Z</time><hdop>4.75</hdop><vdop>2.5</vdop><extensions><gom:speed>0.815</gom:speed></extensions></trkpt>
   <trkpt lat="59.064619357" lon="30.0276849442"><ele>98.809</ele><time>2026-04-20T18:27:24.076Z</time><hdop>4.75</hdop><vdop>2.5</vdop><extensions><gom:speed>0.842</gom:speed></extensions></trkpt>
   <trkpt lat="59.0646104302" lon="30.0276884646"><ele>98.672</ele><time>2026-04-20T18:27:24.999Z</time><hdop>4.75</hdop><vdop>2.5</vdop><extensions><gom:speed>0.876</gom:speed></extensions></trkpt>
   <trkpt lat="59.0646014197" lon="30.0276927393"><ele>98.395</ele><time>2026-04-20T18:27:25.999Z</time><hdop>4.625</hdop><vdop>2.5</vdop><extensions><gom:speed>0.845</gom:speed></extensions></trkpt>
   <trkpt lat="59.0645934569" lon="30.027698439"><ele>98.235</ele><time>2026-04-20T18:27:26.895Z</time><hdop>4.625</hdop><vdop>2.5</vdop><extensions><gom:speed>0.83</gom:speed></extensions></trkpt>
   <trkpt lat="59.0645867514" lon="30.0277019594"><ele>97.864</ele><time>2026-04-20T18:27:27.637Z</time><hdop>4.625</hdop><vdop>2.5</vdop><extensions><gom:speed>0.804</gom:speed></extensions></trkpt>
   <trkpt lat="59.0645801297" lon="30.027699864"><ele>97.459</ele><time>2026-04-20T18:27:28.296Z</time><hdop>4.625</hdop><vdop>2.625</vdop><extensions><gom:speed>0.793</gom:speed></extensions></trkpt>
   <trkpt lat="59.0645719573" lon="30.0276967627"><ele>97.217</ele><time>2026-04-20T18:27:29.038Z</time><hdop>4.625</hdop><vdop>2.625</vdop><extensions><gom:speed>0.812</gom:speed></extensions></trkpt>
   <trkpt lat="59.0645657547" lon="30.0276958406"><ele>96.931</ele><time>2026-04-20T18:27:29.856Z</time><hdop>4.625</hdop><vdop>2.5</vdop><extensions><gom:speed>0.772</gom:speed></extensions></trkpt>
   <trkpt lat="59.0645579176" lon="30.0276974332"><ele>96.785</ele><time>2026-04-20T18:27:30.736Z</time><hdop>4.625</hdop><vdop>2.5</vdop><extensions><gom:speed>0.806</gom:speed></extensions></trkpt>
   <trkpt lat="59.0645515474" lon="30.0276979361"><ele>96.622</ele><time>2026-04-20T18:27:31.416Z</time><hdop>4.625</hdop><vdop>2.5</vdop><extensions><gom:speed>0.813</gom:speed></extensions></trkpt>
   <trkpt lat="59.0645454286" lon="30.0277001992"><ele>96.355</ele><time>2026-04-20T18:27:32.075Z</time><hdop>4.625</hdop><vdop>2.5</vdop><extensions><gom:speed>0.824</gom:speed></extensions></trkpt>
   <trkpt lat="59.0645376334" lon="30.0277102575"><ele>96.225</ele><time>2026-04-20T18:27:33.075Z</time><hdop>4.625</hdop><vdop>2.5</vdop><extensions><gom:speed>0.818</gom:speed></extensions></trkpt>
   <trkpt lat="59.0645347417" lon="30.0277205673"><ele>96.148</ele><time>2026-04-20T18:27:33.796Z</time><hdop>4.625</hdop><vdop>2.5</vdop><extensions><gom:speed>0.809</gom:speed></extensions></trkpt>
   <trkpt lat="59.0645344483" lon="30.0277310446"><ele>96.542</ele><time>2026-04-20T18:27:34.457Z</time><hdop>4.625</hdop><vdop>2.5</vdop><extensions><gom:speed>0.801</gom:speed></extensions></trkpt>
   <trkpt lat="59.064535035" lon="30.0277450424"><ele>96.869</ele><time>2026-04-20T18:27:35.075Z</time><hdop>4.5</hdop><vdop>2.5</vdop><extensions><gom:speed>0.799</gom:speed></extensions></trkpt>
   <trkpt lat="59.0645362504" lon="30.0277532567"><ele>97.229</ele><time>2026-04-20T18:27:36.075Z</time><hdop>4.5</hdop><vdop>2.5</vdop><extensions><gom:speed>0.611</gom:speed></extensions></trkpt>
   <trkpt lat="59.0645368371" lon="30.0277559389"><ele>97.444</ele><time>2026-04-20T18:27:36.601Z</time><hdop>4.5</hdop><vdop>2.5</vdop><extensions><gom:speed>0.522</gom:speed></extensions></trkpt>
   <trkpt lat="59.0645365438" lon="30.0277602137"><ele>97.781</ele><time>2026-04-20T18:27:37.075Z</time><hdop>4.5</hdop><vdop>2.5</vdop><extensions><gom:speed>0.511</gom:speed></extensions></trkpt>
   <trkpt lat="59.0645358313" lon="30.0277716969"><ele>98.023</ele><time>2026-04-20T18:27:38.076Z</time><hdop>4.5</hdop><vdop>2.5</vdop><extensions><gom:speed>0.543</gom:speed></extensions></trkpt>
   <trkpt lat="59.0645355379" lon="30.027783683"><ele>98.168</ele><time>2026-04-20T18:27:38.899Z</time><hdop>4.375</hdop><vdop>2.5</vdop><extensions><gom:speed>0.632</gom:speed></extensions></trkpt>
   <trkpt lat="59.0645335263" lon="30.027799441"><ele>98.311</ele><time>2026-04-20T18:27:39.722Z</time><hdop>4.375</hdop><vdop>2.5</vdop><extensions><gom:speed>0.7</gom:speed></extensions></trkpt>
   <trkpt lat="59.0645292515" lon="30.0278157019"><ele>98.458</ele><time>2026-04-20T18:27:40.519Z</time><hdop>4.375</hdop><vdop>2.5</vdop><extensions><gom:speed>0.805</gom:speed></extensions></trkpt>
   <trkpt lat="59.0645237194" lon="30.0278302026"><ele>98.542</ele><time>2026-04-20T18:27:41.075Z</time><hdop>4.375</hdop><vdop>2.5</vdop><extensions><gom:speed>0.823</gom:speed></extensions></trkpt>
   <trkpt lat="59.0645195285" lon="30.0278459605"><ele>98.485</ele><time>2026-04-20T18:27:42.075Z</time><hdop>4.375</hdop><vdop>2.5</vdop><extensions><gom:speed>0.86</gom:speed></extensions></trkpt>
   <trkpt lat="59.0645167206" lon="30.0278609641"><ele>98.451</ele><time>2026-04-20T18:27:42.958Z</time><hdop>4.375</hdop><vdop>2.5</vdop><extensions><gom:speed>0.851</gom:speed></extensions></trkpt>
   <trkpt lat="59.0645132421" lon="30.0278768059"><ele>98.331</ele><time>2026-04-20T18:27:43.817Z</time><hdop>4.375</hdop><vdop>2.5</vdop><extensions><gom:speed>0.821</gom:speed></extensions></trkpt>
   <trkpt lat="59.0645096379" lon="30.0278919772"><ele>98.186</ele><time>2026-04-20T18:27:44.560Z</time><hdop>4.375</hdop><vdop>2.5</vdop><extensions><gom:speed>0.863</gom:speed></extensions></trkpt>
   <trkpt lat="59.0645071233" lon="30.0279027898"><ele>98.292</ele><time>2026-04-20T18:27:45.075Z</time><hdop>4.25</hdop><vdop>2.5</vdop><extensions><gom:speed>0.879</gom:speed></extensions></trkpt>
   <trkpt lat="59.0645034352" lon="30.0279224035"><ele>98.217</ele><time>2026-04-20T18:27:46.075Z</time><hdop>4.375</hdop><vdop>2.5</vdop><extensions><gom:speed>0.839</gom:speed></extensions></trkpt>
   <trkpt lat="59.0645025551" lon="30.0279277679"><ele>98.173</ele><time>2026-04-20T18:27:46.795Z</time><hdop>4.375</hdop><vdop>2.5</vdop><extensions><gom:speed>0.829</gom:speed></extensions></trkpt>
   <trkpt lat="59.064498448" lon="30.0279530813"><ele>98.084</ele><time>2026-04-20T18:27:47.835Z</time><hdop>4.5</hdop><vdop>2.5</vdop><extensions><gom:speed>0.788</gom:speed></extensions></trkpt>
   <trkpt lat="59.0644945504" lon="30.0279648997"><ele>98.149</ele><time>2026-04-20T18:27:48.559Z</time><hdop>4.5</hdop><vdop>2.5</vdop><extensions><gom:speed>0.824</gom:speed></extensions></trkpt>
   <trkpt lat="59.0644915329" lon="30.0279732816"><ele>98.322</ele><time>2026-04-20T18:27:49.075Z</time><hdop>4.375</hdop><vdop>2.5</vdop><extensions><gom:speed>0.827</gom:speed></extensions></trkpt>
   <trkpt lat="59.0644860428" lon="30.0279893749"><ele>98.189</ele><time>2026-04-20T18:27:50.076Z</time><hdop>4.375</hdop><vdop>2.5</vdop><extensions><gom:speed>0.807</gom:speed></extensions></trkpt>
   <trkpt lat="59.0644815166" lon="30.0280032889"><ele>98.107</ele><time>2026-04-20T18:27:51.075Z</time><hdop>4.375</hdop><vdop>2.5</vdop><extensions><gom:speed>0.757</gom:speed></extensions></trkpt>
   <trkpt lat="59.0644747272" lon="30.0280110002"><ele>98.191</ele><time>2026-04-20T18:27:52.075Z</time><hdop>4.375</hdop><vdop>2.5</vdop><extensions><gom:speed>0.741</gom:speed></extensions></trkpt>
   <trkpt lat="59.0644687342" lon="30.0280091562"><ele>98.241</ele><time>2026-04-20T18:27:52.820Z</time><hdop>4.375</hdop><vdop>2.5</vdop><extensions><gom:speed>0.76</gom:speed></extensions></trkpt>
   <trkpt lat="59.0644619448" lon="30.0280104135"><ele>98.253</ele><time>2026-04-20T18:27:53.601Z</time><hdop>4.375</hdop><vdop>2.5</vdop><extensions><gom:speed>0.785</gom:speed></extensions></trkpt>
   <trkpt lat="59.0644577539" lon="30.0280149397"><ele>98.263</ele><time>2026-04-20T18:27:54.075Z</time><hdop>4.375</hdop><vdop>2.5</vdop><extensions><gom:speed>0.789</gom:speed></extensions></trkpt>
   <trkpt lat="59.0644501263" lon="30.0280257524"><ele>98.6</ele><time>2026-04-20T18:27:55.076Z</time><hdop>4.5</hdop><vdop>2.5</vdop><extensions><gom:speed>0.804</gom:speed></extensions></trkpt>
   <trkpt lat="59.0644442171" lon="30.0280307815"><ele>98.801</ele><time>2026-04-20T18:27:55.842Z</time><hdop>4.5</hdop><vdop>2.5</vdop><extensions><gom:speed>0.837</gom:speed></extensions></trkpt>
   <trkpt lat="59.0644386431" lon="30.0280359783"><ele>98.962</ele><time>2026-04-20T18:27:56.512Z</time><hdop>4.5</hdop><vdop>2.5</vdop><extensions><gom:speed>0.889</gom:speed></extensions></trkpt>
   <trkpt lat="59.0644340331" lon="30.0280408398"><ele>98.806</ele><time>2026-04-20T18:27:57.075Z</time><hdop>4.5</hdop><vdop>2.5</vdop><extensions><gom:speed>0.877</gom:speed></extensions></trkpt>
   <trkpt lat="59.0644254416" lon="30.0280483835"><ele>98.585</ele><time>2026-04-20T18:27:58.075Z</time><hdop>4.5</hdop><vdop>2.5</vdop><extensions><gom:speed>0.913</gom:speed></extensions></trkpt>
   <trkpt lat="59.0644161377" lon="30.0280516524"><ele>98.453</ele><time>2026-04-20T18:27:59.079Z</time><hdop>4.5</hdop><vdop>2.5</vdop><extensions><gom:speed>0.922</gom:speed></extensions></trkpt>
   <trkpt lat="59.0644056184" lon="30.0280522392"><ele>98.204</ele><time>2026-04-20T18:27:59.819Z</time><hdop>4.5</hdop><vdop>2.5</vdop><extensions><gom:speed>0.96</gom:speed></extensions></trkpt>
   <trkpt lat="59.064399332" lon="30.0280508142"><ele>98.081</ele><time>2026-04-20T18:28:00.679Z</time><hdop>4.5</hdop><vdop>2.5</vdop><extensions><gom:speed>0.903</gom:speed></extensions></trkpt>
   <trkpt lat="59.0643922493" lon="30.0280517363"><ele>97.95</ele><time>2026-04-20T18:28:01.560Z</time><hdop>4.5</hdop><vdop>2.5</vdop><extensions><gom:speed>0.824</gom:speed></extensions></trkpt>
   <trkpt lat="59.0643887289" lon="30.0280552567"><ele>98.107</ele><time>2026-04-20T18:28:02.075Z</time><hdop>4.5</hdop><vdop>2.5</vdop><extensions><gom:speed>0.82</gom:speed></extensions></trkpt>
   <trkpt lat="59.0643833226" lon="30.0280669075"><ele>98.406</ele><time>2026-04-20T18:28:03.075Z</time><hdop>4.5</hdop><vdop>2.625</vdop><extensions><gom:speed>0.771</gom:speed></extensions></trkpt>
   <trkpt lat="59.0643779162" lon="30.0280779716"><ele>98.585</ele><time>2026-04-20T18:28:04.055Z</time><hdop>4.5</hdop><vdop>2.625</vdop><extensions><gom:speed>0.805</gom:speed></extensions></trkpt>
   <trkpt lat="59.0643733481" lon="30.0280876946"><ele>98.953</ele><time>2026-04-20T18:28:04.796Z</time><hdop>4.5</hdop><vdop>2.5</vdop><extensions><gom:speed>0.835</gom:speed></extensions></trkpt>
   <trkpt lat="59.0643705402" lon="30.0280926399"><ele>99.396</ele><time>2026-04-20T18:28:05.395Z</time><hdop>4.5</hdop><vdop>2.5</vdop><extensions><gom:speed>0.831</gom:speed></extensions></trkpt>
   <trkpt lat="59.0643632479" lon="30.0280982558"><ele>99.358</ele><time>2026-04-20T18:28:06.075Z</time><hdop>4.5</hdop><vdop>2.5</vdop><extensions><gom:speed>0.814</gom:speed></extensions></trkpt>
   <trkpt lat="59.0643598532" lon="30.0280964118"><ele>99.335</ele><time>2026-04-20T18:28:06.641Z</time><hdop>4.5</hdop><vdop>2.5</vdop><extensions><gom:speed>0.763</gom:speed></extensions></trkpt>
   <trkpt lat="59.064356249" lon="30.0280916341"><ele>99.239</ele><time>2026-04-20T18:28:07.373Z</time><hdop>4.5</hdop><vdop>2.5</vdop><extensions><gom:speed>0.739</gom:speed></extensions></trkpt>
   <trkpt lat="59.0643531477" lon="30.0280876108"><ele>99.074</ele><time>2026-04-20T18:28:08.075Z</time><hdop>4.5</hdop><vdop>2.5</vdop><extensions><gom:speed>0.725</gom:speed></extensions></trkpt>
   <trkpt lat="59.0643485377" lon="30.0280827493"><ele>99.305</ele><time>2026-04-20T18:28:09.075Z</time><hdop>4.5</hdop><vdop>2.625</vdop><extensions><gom:speed>0.701</gom:speed></extensions></trkpt>
   <trkpt lat="59.0643446401" lon="30.0280814082"><ele>99.352</ele><time>2026-04-20T18:28:10.075Z</time><hdop>4.5</hdop><vdop>2.5</vdop><extensions><gom:speed>0.598</gom:speed></extensions></trkpt>
   <trkpt lat="59.0643412454" lon="30.028083336"><ele>99.177</ele><time>2026-04-20T18:28:11.075Z</time><hdop>4.5</hdop><vdop>2.5</vdop><extensions><gom:speed>0.559</gom:speed></extensions></trkpt>
   <trkpt lat="59.064340533" lon="30.028084258"><ele>99.073</ele><time>2026-04-20T18:28:11.555Z</time><hdop>4.5</hdop><vdop>2.5</vdop><extensions><gom:speed>0.542</gom:speed></extensions></trkpt>
   <trkpt lat="59.0643373478" lon="30.028084761"><ele>98.53</ele><time>2026-04-20T18:28:12.075Z</time><hdop>4.5</hdop><vdop>2.5</vdop><extensions><gom:speed>0.518</gom:speed></extensions></trkpt>
   <trkpt lat="59.0643343303" lon="30.0280836713"><ele>97.746</ele><time>2026-04-20T18:28:13.076Z</time><hdop>4.5</hdop><vdop>2.625</vdop><extensions><gom:speed>0.55</gom:speed></extensions></trkpt>
   <trkpt lat="59.0643297203" lon="30.028082414"><ele>97.278</ele><time>2026-04-20T18:28:13.898Z</time><hdop>4.5</hdop><vdop>2.625</vdop><extensions><gom:speed>0.626</gom:speed></extensions></trkpt>
   <trkpt lat="59.0643246492" lon="30.0280806538"><ele>96.902</ele><time>2026-04-20T18:28:14.658Z</time><hdop>4.5</hdop><vdop>2.625</vdop><extensions><gom:speed>0.693</gom:speed></extensions></trkpt>
   <trkpt lat="59.0643183209" lon="30.0280778878"><ele>96.472</ele><time>2026-04-20T18:28:15.478Z</time><hdop>4.5</hdop><vdop>2.75</vdop><extensions><gom:speed>0.702</gom:speed></extensions></trkpt>
   <trkpt lat="59.06431413" lon="30.0280773011"><ele>96.261</ele><time>2026-04-20T18:28:16.075Z</time><hdop>4.5</hdop><vdop>2.625</vdop><extensions><gom:speed>0.724</gom:speed></extensions></trkpt>
   <trkpt lat="59.0643068377" lon="30.0280804862"><ele>95.782</ele><time>2026-04-20T18:28:17.076Z</time><hdop>4.625</hdop><vdop>2.5</vdop><extensions><gom:speed>0.739</gom:speed></extensions></trkpt>
   <trkpt lat="59.0643039459" lon="30.0280824978"><ele>95.496</ele><time>2026-04-20T18:28:17.834Z</time><hdop>4.625</hdop><vdop>2.5</vdop><extensions><gom:speed>0.716</gom:speed></extensions></trkpt>
   <trkpt lat="59.0642979529" lon="30.0280831684"><ele>95.263</ele><time>2026-04-20T18:28:18.421Z</time><hdop>4.75</hdop><vdop>2.5</vdop><extensions><gom:speed>0.622</gom:speed></extensions></trkpt>
   <trkpt lat="59.0642945163" lon="30.0280822464"><ele>95.315</ele><time>2026-04-20T18:28:19.075Z</time><hdop>4.625</hdop><vdop>2.5</vdop><extensions><gom:speed>0.613</gom:speed></extensions></trkpt>
   <trkpt lat="59.0642885232" lon="30.0280798156"><ele>95.345</ele><time>2026-04-20T18:28:20.076Z</time><hdop>4.75</hdop><vdop>2.5</vdop><extensions><gom:speed>0.625</gom:speed></extensions></trkpt>
   <trkpt lat="59.0642839551" lon="30.0280794804"><ele>95.357</ele><time>2026-04-20T18:28:21.075Z</time><hdop>4.625</hdop><vdop>2.5</vdop><extensions><gom:speed>0.524</gom:speed></extensions></trkpt>
   <trkpt lat="59.0642826559" lon="30.0280799833"><ele>95.365</ele><time>2026-04-20T18:28:21.539Z</time><hdop>4.75</hdop><vdop>2.5</vdop><extensions><gom:speed>0.498</gom:speed></extensions></trkpt>
   <trkpt lat="59.0642804347" lon="30.0280804024"><ele>95.35</ele><time>2026-04-20T18:28:22.075Z</time><hdop>4.625</hdop><vdop>2.5</vdop><extensions><gom:speed>0.495</gom:speed></extensions></trkpt>
   <trkpt lat="59.0642746512" lon="30.0280825817"><ele>95.55</ele><time>2026-04-20T18:28:23.075Z</time><hdop>4.625</hdop><vdop>2.5</vdop><extensions><gom:speed>0.582</gom:speed></extensions></trkpt>
   <trkpt lat="59.0642719271" lon="30.0280832522"><ele>95.67</ele><time>2026-04-20T18:28:23.995Z</time><hdop>4.625</hdop><vdop>2.5</vdop><extensions><gom:speed>0.593</gom:speed></extensions></trkpt>
   <trkpt lat="59.0642629165" lon="30.0280868564"><ele>95.659</ele><time>2026-04-20T18:28:25.075Z</time><hdop>4.625</hdop><vdop>2.5</vdop><extensions><gom:speed>0.593</gom:speed></extensions></trkpt>
   <trkpt lat="59.0642583484" lon="30.028093562"><ele>95.652</ele><time>2026-04-20T18:28:26.003Z</time><hdop>4.625</hdop><vdop>2.5</vdop><extensions><gom:speed>0.628</gom:speed></extensions></trkpt>
   <trkpt lat="59.0642540317" lon="30.0281035364"><ele>95.776</ele><time>2026-04-20T18:28:26.920Z</time><hdop>4.625</hdop><vdop>2.5</vdop><extensions><gom:speed>0.686</gom:speed></extensions></trkpt>
   <trkpt lat="59.0642504275" lon="30.0281152711"><ele>95.873</ele><time>2026-04-20T18:28:27.761Z</time><hdop>4.625</hdop><vdop>2.5</vdop><extensions><gom:speed>0.75</gom:speed></extensions></trkpt>
   <trkpt lat="59.064246949" lon="30.0281270057"><ele>95.925</ele><time>2026-04-20T18:28:28.578Z</time><hdop>4.625</hdop><vdop>2.5</vdop><extensions><gom:speed>0.757</gom:speed></extensions></trkpt>
   <trkpt lat="59.064244644" lon="30.0281327893"><ele>95.893</ele><time>2026-04-20T18:28:29.075Z</time><hdop>4.625</hdop><vdop>2.5</vdop><extensions><gom:speed>0.737</gom:speed></extensions></trkpt>
   <trkpt lat="59.0642400339" lon="30.0281399139"><ele>96.18</ele><time>2026-04-20T18:28:30.075Z</time><hdop>4.625</hdop><vdop>2.5</vdop><extensions><gom:speed>0.629</gom:speed></extensions></trkpt>
   <trkpt lat="59.0642352563" lon="30.0281451107"><ele>96.135</ele><time>2026-04-20T18:28:31.075Z</time><hdop>4.625</hdop><vdop>2.5</vdop><extensions><gom:speed>0.602</gom:speed></extensions></trkpt>
   <trkpt lat="59.0642311491" lon="30.0281498883"><ele>96.092</ele><time>2026-04-20T18:28:32.075Z</time><hdop>4.625</hdop><vdop>2.5</vdop><extensions><gom:speed>0.573</gom:speed></extensions></trkpt>
   <trkpt lat="59.0642269163" lon="30.0281539955"><ele>96.036</ele><time>2026-04-20T18:28:33.075Z</time><hdop>4.5</hdop><vdop>2.5</vdop><extensions><gom:speed>0.551</gom:speed></extensions></trkpt>
   <trkpt lat="59.0642229349" lon="30.028156091"><ele>96.004</ele><time>2026-04-20T18:28:33.821Z</time><hdop>4.625</hdop><vdop>2.5</vdop><extensions><gom:speed>0.572</gom:speed></extensions></trkpt>
   <trkpt lat="59.0642171513" lon="30.0281593599"><ele>95.884</ele><time>2026-04-20T18:28:34.778Z</time><hdop>4.625</hdop><vdop>2.5</vdop><extensions><gom:speed>0.628</gom:speed></extensions></trkpt>
   <trkpt lat="59.0642092304" lon="30.0281656463"><ele>96.232</ele><time>2026-04-20T18:28:35.758Z</time><hdop>4.625</hdop><vdop>2.5</vdop><extensions><gom:speed>0.698</gom:speed></extensions></trkpt>
   <trkpt lat="59.0642054167" lon="30.0281691667"><ele>96.075</ele><time>2026-04-20T18:28:36.351Z</time><hdop>4.625</hdop><vdop>2.5</vdop><extensions><gom:speed>0.708</gom:speed></extensions></trkpt>
   <trkpt lat="59.0641980406" lon="30.0281729386"><ele>95.809</ele><time>2026-04-20T18:28:37.076Z</time><hdop>4.75</hdop><vdop>2.5</vdop><extensions><gom:speed>0.71</gom:speed></extensions></trkpt>
   <trkpt lat="59.0641960289" lon="30.0281724357"><ele>95.65</ele><time>2026-04-20T18:28:37.535Z</time><hdop>4.75</hdop><vdop>2.5</vdop><extensions><gom:speed>0.656</gom:speed></extensions></trkpt>
   <trkpt lat="59.0641929276" lon="30.028171346"><ele>95.996</ele><time>2026-04-20T18:28:38.076Z</time><hdop>4.75</hdop><vdop>2.5</vdop><extensions><gom:speed>0.653</gom:speed></extensions></trkpt>
   <trkpt lat="59.0641906226" lon="30.0281703402"><ele>96.203</ele><time>2026-04-20T18:28:38.639Z</time><hdop>4.75</hdop><vdop>2.5</vdop><extensions><gom:speed>0.571</gom:speed></extensions></trkpt>
   <trkpt lat="59.0641861383" lon="30.0281711784"><ele>96.379</ele><time>2026-04-20T18:28:39.675Z</time><hdop>4.75</hdop><vdop>2.5</vdop><extensions><gom:speed>0.493</gom:speed></extensions></trkpt>
   <trkpt lat="59.0641820312" lon="30.0281752855"><ele>96.419</ele><time>2026-04-20T18:28:40.617Z</time><hdop>4.75</hdop><vdop>2.5</vdop><extensions><gom:speed>0.491</gom:speed></extensions></trkpt>
   <trkpt lat="59.0641802291" lon="30.0281780515"><ele>96.592</ele><time>2026-04-20T18:28:41.075Z</time><hdop>4.75</hdop><vdop>2.5</vdop><extensions><gom:speed>0.482</gom:speed></extensions></trkpt>
   <trkpt lat="59.0641783431" lon="30.028181991"><ele>96.696</ele><time>2026-04-20T18:28:41.621Z</time><hdop>4.75</hdop><vdop>2.5</vdop><extensions><gom:speed>0.499</gom:speed></extensions></trkpt>
   <trkpt lat="59.064176541" lon="30.0281846732"><ele>96.995</ele><time>2026-04-20T18:28:42.075Z</time><hdop>4.75</hdop><vdop>2.5</vdop><extensions><gom:speed>0.493</gom:speed></extensions></trkpt>
   <trkpt lat="59.0641713442" lon="30.0281923846"><ele>97.303</ele><time>2026-04-20T18:28:43.075Z</time><hdop>4.75</hdop><vdop>2.5</vdop><extensions><gom:speed>0.48</gom:speed></extensions></trkpt>
   <trkpt lat="59.0641680334" lon="30.0281948153"><ele>97.656</ele><time>2026-04-20T18:28:44.075Z</time><hdop>4.75</hdop><vdop>2.5</vdop><extensions><gom:speed>0.422</gom:speed></extensions></trkpt>
   <trkpt lat="59.0641633395" lon="30.0281981681"><ele>97.868</ele><time>2026-04-20T18:28:45.075Z</time><hdop>4.75</hdop><vdop>2.5</vdop><extensions><gom:speed>0.462</gom:speed></extensions></trkpt>
   <trkpt lat="59.0641581427" lon="30.0282039516"><ele>97.994</ele><time>2026-04-20T18:28:45.914Z</time><hdop>4.75</hdop><vdop>2.5</vdop><extensions><gom:speed>0.577</gom:speed></extensions></trkpt>
   <trkpt lat="59.064151521" lon="30.028215351"><ele>98.187</ele><time>2026-04-20T18:28:46.853Z</time><hdop>4.75</hdop><vdop>2.5</vdop><extensions><gom:speed>0.621</gom:speed></extensions></trkpt>
   <trkpt lat="59.064145528" lon="30.028224152"><ele>98.314</ele><time>2026-04-20T18:28:47.652Z</time><hdop>4.75</hdop><vdop>2.5</vdop><extensions><gom:speed>0.655</gom:speed></extensions></trkpt>
   <trkpt lat="59.0641377328" lon="30.0282348808"><ele>98.498</ele><time>2026-04-20T18:28:48.463Z</time><hdop>4.75</hdop><vdop>2.5</vdop><extensions><gom:speed>0.803</gom:speed></extensions></trkpt>
   <trkpt lat="59.0641301472" lon="30.0282461964"><ele>98.743</ele><time>2026-04-20T18:28:49.075Z</time><hdop>4.75</hdop><vdop>2.5</vdop><extensions><gom:speed>0.831</gom:speed></extensions></trkpt>
   <trkpt lat="59.0641229387" lon="30.0282537401"><ele>98.889</ele><time>2026-04-20T18:28:50.081Z</time><hdop>4.875</hdop><vdop>2.5</vdop><extensions><gom:speed>0.874</gom:speed></extensions></trkpt>
   <trkpt lat="59.0641160237" lon="30.0282596075"><ele>98.908</ele><time>2026-04-20T18:28:50.861Z</time><hdop>4.875</hdop><vdop>2.5</vdop><extensions><gom:speed>0.884</gom:speed></extensions></trkpt>
   <trkpt lat="59.0641091505" lon="30.0282685761"><ele>99.065</ele><time>2026-04-20T18:28:51.700Z</time><hdop>4.875</hdop><vdop>2.5</vdop><extensions><gom:speed>0.904</gom:speed></extensions></trkpt>
   <trkpt lat="59.0641025288" lon="30.028280646"><ele>99.201</ele><time>2026-04-20T18:28:52.640Z</time><hdop>4.875</hdop><vdop>2.5</vdop><extensions><gom:speed>0.855</gom:speed></extensions></trkpt>
   <trkpt lat="59.0640989246" lon="30.028292716"><ele>99.362</ele><time>2026-04-20T18:28:53.437Z</time><hdop>4.875</hdop><vdop>2.5</vdop><extensions><gom:speed>0.836</gom:speed></extensions></trkpt>
   <trkpt lat="59.064097332" lon="30.0283037801"><ele>99.497</ele><time>2026-04-20T18:28:54.075Z</time><hdop>4.875</hdop><vdop>2.5</vdop><extensions><gom:speed>0.835</gom:speed></extensions></trkpt>
   <trkpt lat="59.0640961167" lon="30.0283102341"><ele>99.578</ele><time>2026-04-20T18:28:54.917Z</time><hdop>4.875</hdop><vdop>2.5</vdop><extensions><gom:speed>0.852</gom:speed></extensions></trkpt>
   <trkpt lat="59.064091339" lon="30.0283358828"><ele>99.533</ele><time>2026-04-20T18:28:56.074Z</time><hdop>4.875</hdop><vdop>2.5</vdop><extensions><gom:speed>0.8</gom:speed></extensions></trkpt>
   <trkpt lat="59.064089034" lon="30.0283479527"><ele>99.452</ele><time>2026-04-20T18:28:56.932Z</time><hdop>4.875</hdop><vdop>2.5</vdop><extensions><gom:speed>0.744</gom:speed></extensions></trkpt>
   <trkpt lat="59.0640845496" lon="30.0283570052"><ele>99.494</ele><time>2026-04-20T18:28:57.805Z</time><hdop>4.875</hdop><vdop>2.5</vdop><extensions><gom:speed>0.737</gom:speed></extensions></trkpt>
   <trkpt lat="59.064081155" lon="30.0283646327"><ele>99.539</ele><time>2026-04-20T18:28:58.493Z</time><hdop>4.875</hdop><vdop>2.5</vdop><extensions><gom:speed>0.78</gom:speed></extensions></trkpt>
   <trkpt lat="59.064078347" lon="30.0283721764"><ele>99.443</ele><time>2026-04-20T18:28:59.075Z</time><hdop>4.875</hdop><vdop>2.5</vdop><extensions><gom:speed>0.797</gom:speed></extensions></trkpt>
   <trkpt lat="59.0640754553" lon="30.0283777923"><ele>99.386</ele><time>2026-04-20T18:28:59.561Z</time><hdop>4.875</hdop><vdop>2.5</vdop><extensions><gom:speed>0.786</gom:speed></extensions></trkpt>
   <trkpt lat="59.0640700489" lon="30.028384414"><ele>99.514</ele><time>2026-04-20T18:29:00.498Z</time><hdop>4.875</hdop><vdop>5.875</vdop><extensions><gom:speed>0.71</gom:speed></extensions></trkpt>
   <trkpt lat="59.0640667381" lon="30.0283860066"><ele>99.659</ele><time>2026-04-20T18:29:00.957Z</time><hdop>4.875</hdop><vdop>5.75</vdop><extensions><gom:speed>0.707</gom:speed></extensions></trkpt>
   <trkpt lat="59.0640587334" lon="30.0283847493"><ele>99.836</ele><time>2026-04-20T18:29:02.024Z</time><hdop>5.125</hdop><vdop>5.5</vdop><extensions><gom:speed>0.631</gom:speed></extensions></trkpt>
   <trkpt lat="59.0640541233" lon="30.0283870962"><ele>99.942</ele><time>2026-04-20T18:29:03.073Z</time><hdop>5.25</hdop><vdop>5.5</vdop><extensions><gom:speed>0.608</gom:speed></extensions></trkpt>
   <trkpt lat="59.0640491361" lon="30.0283910357"><ele>100.034</ele><time>2026-04-20T18:29:03.912Z</time><hdop>5.375</hdop><vdop>5.5</vdop><extensions><gom:speed>0.668</gom:speed></extensions></trkpt>
   <trkpt lat="59.0640455319" lon="30.0283979089"><ele>100.187</ele><time>2026-04-20T18:29:04.999Z</time><hdop>5.625</hdop><vdop>5.5</vdop><extensions><gom:speed>0.666</gom:speed></extensions></trkpt>
   <trkpt lat="59.0640420534" lon="30.0284037762"><ele>100.291</ele><time>2026-04-20T18:29:05.758Z</time><hdop>5.75</hdop><vdop>5.375</vdop><extensions><gom:speed>0.684</gom:speed></extensions></trkpt>
   <trkpt lat="59.0640380301" lon="30.0284134992"><ele>100.383</ele><time>2026-04-20T18:29:06.697Z</time><hdop>6.0</hdop><vdop>5.375</vdop><extensions><gom:speed>0.717</gom:speed></extensions></trkpt>
   <trkpt lat="59.0640390359" lon="30.028416349"><ele>100.413</ele><time>2026-04-20T18:29:07.236Z</time><hdop>6.0</hdop><vdop>5.375</vdop><extensions><gom:speed>0.672</gom:speed></extensions></trkpt>
   <trkpt lat="59.0640326237" lon="30.0284192827"><ele>100.47</ele><time>2026-04-20T18:29:07.947Z</time><hdop>6.125</hdop><vdop>5.375</vdop><extensions><gom:speed>0.732</gom:speed></extensions></trkpt>
   <trkpt lat="59.0640310312" lon="30.0284203724"><ele>100.504</ele><time>2026-04-20T18:29:08.434Z</time><hdop>6.25</hdop><vdop>5.375</vdop><extensions><gom:speed>0.701</gom:speed></extensions></trkpt>
   <trkpt lat="59.0640278461" lon="30.028423306"><ele>100.567</ele><time>2026-04-20T18:29:09.013Z</time><hdop>6.25</hdop><vdop>5.25</vdop><extensions><gom:speed>0.688</gom:speed></extensions></trkpt>
   <trkpt lat="59.0640278461" lon="30.0284290895"><ele>100.613</ele><time>2026-04-20T18:29:10.075Z</time><hdop>6.375</hdop><vdop>5.375</vdop><extensions><gom:speed>0.577</gom:speed></extensions></trkpt>
   <trkpt lat="59.0640277203" lon="30.0284373038"><ele>100.606</ele><time>2026-04-20T18:29:11.027Z</time><hdop>6.375</hdop><vdop>5.625</vdop><extensions><gom:speed>0.542</gom:speed></extensions></trkpt>
   <trkpt lat="59.0640272174" lon="30.0284477812"><ele>100.627</ele><time>2026-04-20T18:29:11.975Z</time><hdop>6.5</hdop><vdop>5.625</vdop><extensions><gom:speed>0.558</gom:speed></extensions></trkpt>
   <trkpt lat="59.0640252477" lon="30.0284590129"><ele>100.639</ele><time>2026-04-20T18:29:13.041Z</time><hdop>6.75</hdop><vdop>5.5</vdop><extensions><gom:speed>0.566</gom:speed></extensions></trkpt>
   <trkpt lat="59.0640207214" lon="30.0284736813"><ele>100.64</ele><time>2026-04-20T18:29:13.989Z</time><hdop>7.0</hdop><vdop>5.25</vdop><extensions><gom:speed>0.592</gom:speed></extensions></trkpt>
   <trkpt lat="59.0640171172" lon="30.028480303"><ele>100.652</ele><time>2026-04-20T18:29:15.056Z</time><hdop>7.125</hdop><vdop>5.125</vdop><extensions><gom:speed>0.597</gom:speed></extensions></trkpt>
   <trkpt lat="59.0640124234" lon="30.0284860865"><ele>100.674</ele><time>2026-04-20T18:29:16.003Z</time><hdop>7.5</hdop><vdop>5.0</vdop><extensions><gom:speed>0.589</gom:speed></extensions></trkpt>
   <trkpt lat="59.0640072266" lon="30.0284896907"><ele>100.688</ele><time>2026-04-20T18:29:16.951Z</time><hdop>7.75</hdop><vdop>4.875</vdop><extensions><gom:speed>0.629</gom:speed></extensions></trkpt>
   <trkpt lat="59.0640023232" lon="30.0284857512"><ele>100.829</ele><time>2026-04-20T18:29:18.075Z</time><hdop>8.0</hdop><vdop>3.625</vdop><extensions><gom:speed>0.715</gom:speed></extensions></trkpt>
   <trkpt lat="59.0639966235" lon="30.0284844101"><ele>100.913</ele><time>2026-04-20T18:29:18.939Z</time><hdop>8.0</hdop><vdop>3.625</vdop><extensions><gom:speed>0.755</gom:speed></extensions></trkpt>
   <trkpt lat="59.0639961206" lon="30.0284809735"><ele>100.974</ele><time>2026-04-20T18:29:19.557Z</time><hdop>7.875</hdop><vdop>2.75</vdop><extensions><gom:speed>0.71</gom:speed></extensions></trkpt>
   <trkpt lat="59.0639902532" lon="30.0284790457"><ele>101.695</ele><time>2026-04-20T18:29:20.076Z</time><hdop>7.625</hdop><vdop>2.5</vdop><extensions><gom:speed>0.663</gom:speed></extensions></trkpt>
   <trkpt lat="59.0639870262" lon="30.0284813088"><ele>102.127</ele><time>2026-04-20T18:29:21.001Z</time><hdop>7.375</hdop><vdop>2.5</vdop><extensions><gom:speed>0.619</gom:speed></extensions></trkpt>
   <trkpt lat="59.0639823323" lon="30.0284873438"><ele>102.413</ele><time>2026-04-20T18:29:22.080Z</time><hdop>6.875</hdop><vdop>2.5</vdop><extensions><gom:speed>0.609</gom:speed></extensions></trkpt>
   <trkpt lat="59.0639759202" lon="30.0284860027"><ele>102.037</ele><time>2026-04-20T18:29:23.075Z</time><hdop>6.5</hdop><vdop>2.5</vdop><extensions><gom:speed>0.54</gom:speed></extensions></trkpt>
   <trkpt lat="59.0639721483" lon="30.0284829014"><ele>101.812</ele><time>2026-04-20T18:29:23.815Z</time><hdop>6.0</hdop><vdop>2.5</vdop><extensions><gom:speed>0.525</gom:speed></extensions></trkpt>
   <trkpt lat="59.0639642274" lon="30.0284829852"><ele>101.883</ele><time>2026-04-20T18:29:24.713Z</time><hdop>5.625</hdop><vdop>2.5</vdop><extensions><gom:speed>0.618</gom:speed></extensions></trkpt>
   <trkpt lat="59.0639540434" lon="30.0284850806"><ele>101.903</ele><time>2026-04-20T18:29:25.760Z</time><hdop>5.375</hdop><vdop>2.5</vdop><extensions><gom:speed>0.679</gom:speed></extensions></trkpt>
   <trkpt lat="59.0639437337" lon="30.0284854997"><ele>101.964</ele><time>2026-04-20T18:29:26.659Z</time><hdop>5.125</hdop><vdop>2.5</vdop><extensions><gom:speed>0.693</gom:speed></extensions></trkpt>
   <trkpt lat="59.0639347231" lon="30.0284863379"><ele>101.921</ele><time>2026-04-20T18:29:27.775Z</time><hdop>4.875</hdop><vdop>2.5</vdop><extensions><gom:speed>0.678</gom:speed></extensions></trkpt>
   <trkpt lat="59.0639265508" lon="30.028488182"><ele>101.627</ele><time>2026-04-20T18:29:28.741Z</time><hdop>4.75</hdop><vdop>2.5</vdop><extensions><gom:speed>0.659</gom:speed></extensions></trkpt>
   <trkpt lat="59.0639186299" lon="30.0284896069"><ele>100.935</ele><time>2026-04-20T18:29:29.837Z</time><hdop>4.625</hdop><vdop>2.5</vdop><extensions><gom:speed>0.554</gom:speed></extensions></trkpt>
   <trkpt lat="59.0639121339" lon="30.0284897745"><ele>100.464</ele><time>2026-04-20T18:29:30.854Z</time><hdop>4.625</hdop><vdop>2.5</vdop><extensions><gom:speed>0.477</gom:speed></extensions></trkpt>
   <trkpt lat="59.0639055541" lon="30.0284935464"><ele>100.254</ele><time>2026-04-20T18:29:31.821Z</time><hdop>4.5</hdop><vdop>2.5</vdop><extensions><gom:speed>0.467</gom:speed></extensions></trkpt>
   <trkpt lat="59.0638976332" lon="30.0285011739"><ele>100.006</ele><time>2026-04-20T18:29:32.700Z</time><hdop>4.625</hdop><vdop>2.5</vdop><extensions><gom:speed>0.554</gom:speed></extensions></trkpt>
   <trkpt lat="59.0638906343" lon="30.0285105616"><ele>99.726</ele><time>2026-04-20T18:29:33.618Z</time><hdop>4.625</hdop><vdop>2.5</vdop><extensions><gom:speed>0.655</gom:speed></extensions></trkpt>
   <trkpt lat="59.06388615" lon="30.0285174348"><ele>99.271</ele><time>2026-04-20T18:29:34.075Z</time><hdop>4.5</hdop><vdop>2.5</vdop><extensions><gom:speed>0.713</gom:speed></extensions></trkpt>
   <trkpt lat="59.063878732" lon="30.0285324384"><ele>98.835</ele><time>2026-04-20T18:29:35.075Z</time><hdop>4.625</hdop><vdop>2.5</vdop><extensions><gom:speed>0.742</gom:speed></extensions></trkpt>
   <trkpt lat="59.0638710206" lon="30.0285468553"><ele>98.701</ele><time>2026-04-20T18:29:36.075Z</time><hdop>4.625</hdop><vdop>2.5</vdop><extensions><gom:speed>0.747</gom:speed></extensions></trkpt>
   <trkpt lat="59.0638633512" lon="30.0285580032"><ele>98.616</ele><time>2026-04-20T18:29:37.075Z</time><hdop>4.625</hdop><vdop>2.5</vdop><extensions><gom:speed>0.714</gom:speed></extensions></trkpt>
   <trkpt lat="59.063855556" lon="30.0285612721"><ele>98.565</ele><time>2026-04-20T18:29:38.062Z</time><hdop>4.625</hdop><vdop>2.5</vdop><extensions><gom:speed>0.74</gom:speed></extensions></trkpt>
   <trkpt lat="59.0638465455" lon="30.0285640382"><ele>98.446</ele><time>2026-04-20T18:29:38.881Z</time><hdop>4.625</hdop><vdop>2.5</vdop><extensions><gom:speed>0.735</gom:speed></extensions></trkpt>
   <trkpt lat="59.0638403429" lon="30.0285676424"><ele>98.001</ele><time>2026-04-20T18:29:39.857Z</time><hdop>4.625</hdop><vdop>2.5</vdop><extensions><gom:speed>0.725</gom:speed></extensions></trkpt>
   <trkpt lat="59.0638334278" lon="30.0285694026"><ele>97.552</ele><time>2026-04-20T18:29:40.798Z</time><hdop>4.75</hdop><vdop>2.5</vdop><extensions><gom:speed>0.713</gom:speed></extensions></trkpt>
   <trkpt lat="59.0638298236" lon="30.0285709113"><ele>97.355</ele><time>2026-04-20T18:29:41.280Z</time><hdop>4.75</hdop><vdop>2.5</vdop><extensions><gom:speed>0.712</gom:speed></extensions></trkpt>
   <trkpt lat="59.0638235372" lon="30.0285740126"><ele>96.815</ele><time>2026-04-20T18:29:42.075Z</time><hdop>4.75</hdop><vdop>2.5</vdop><extensions><gom:speed>0.763</gom:speed></extensions></trkpt>
   <trkpt lat="59.0638167478" lon="30.0285830651"><ele>96.466</ele><time>2026-04-20T18:29:43.076Z</time><hdop>4.75</hdop><vdop>2.5</vdop><extensions><gom:speed>0.69</gom:speed></extensions></trkpt>
   <trkpt lat="59.0638101261" lon="30.0285922014"><ele>96.033</ele><time>2026-04-20T18:29:44.075Z</time><hdop>4.75</hdop><vdop>2.625</vdop><extensions><gom:speed>0.692</gom:speed></extensions></trkpt>
   <trkpt lat="59.0638019538" lon="30.0286028464"><ele>95.951</ele><time>2026-04-20T18:29:45.075Z</time><hdop>4.75</hdop><vdop>2.5</vdop><extensions><gom:speed>0.631</gom:speed></extensions></trkpt>
   <trkpt lat="59.0637960445" lon="30.0286083784"><ele>96.088</ele><time>2026-04-20T18:29:46.075Z</time><hdop>4.75</hdop><vdop>2.5</vdop><extensions><gom:speed>0.635</gom:speed></extensions></trkpt>
   <trkpt lat="59.0637920212" lon="30.0286109768"><ele>96.17</ele><time>2026-04-20T18:29:46.660Z</time><hdop>4.75</hdop><vdop>2.5</vdop><extensions><gom:speed>0.654</gom:speed></extensions></trkpt>
   <trkpt lat="59.0637881236" lon="30.0286147487"><ele>96.262</ele><time>2026-04-20T18:29:47.155Z</time><hdop>4.75</hdop><vdop>2.5</vdop><extensions><gom:speed>0.652</gom:speed></extensions></trkpt>
   <trkpt lat="59.0637836393" lon="30.0286157545"><ele>96.317</ele><time>2026-04-20T18:29:47.815Z</time><hdop>4.75</hdop><vdop>2.5</vdop><extensions><gom:speed>0.672</gom:speed></extensions></trkpt>
   <trkpt lat="59.0637736229" lon="30.0286259804"><ele>96.153</ele><time>2026-04-20T18:29:48.940Z</time><hdop>4.75</hdop><vdop>2.5</vdop><extensions><gom:speed>0.8</gom:speed></extensions></trkpt>
   <trkpt lat="59.0637656182" lon="30.0286359549"><ele>96.007</ele><time>2026-04-20T18:29:49.998Z</time><hdop>4.875</hdop><vdop>2.5</vdop><extensions><gom:speed>0.758</gom:speed></extensions></trkpt>
   <trkpt lat="59.0637648219" lon="30.0286381342"><ele>95.747</ele><time>2026-04-20T18:29:50.597Z</time><hdop>4.875</hdop><vdop>2.5</vdop><extensions><gom:speed>0.711</gom:speed></extensions></trkpt>
   <trkpt lat="59.0637596252" lon="30.0286396429"><ele>95.591</ele><time>2026-04-20T18:29:51.095Z</time><hdop>4.875</hdop><vdop>2.5</vdop><extensions><gom:speed>0.662</gom:speed></extensions></trkpt>
   <trkpt lat="59.0637551408" lon="30.0286484439"><ele>95.272</ele><time>2026-04-20T18:29:52.075Z</time><hdop>5.0</hdop><vdop>4.0</vdop><extensions><gom:speed>0.645</gom:speed></extensions></trkpt>
   <trkpt lat="59.0637543446" lon="30.0286510423"><ele>95.073</ele><time>2026-04-20T18:29:52.966Z</time><hdop>5.125</hdop><vdop>4.0</vdop><extensions><gom:speed>0.525</gom:speed></extensions></trkpt>
   <trkpt lat="59.0637536321" lon="30.0286514614"><ele>94.954</ele><time>2026-04-20T18:29:53.640Z</time><hdop>5.125</hdop><vdop>4.0</vdop><extensions><gom:speed>0.461</gom:speed></extensions></trkpt>
   <trkpt lat="59.0637534225" lon="30.02865121"><ele>94.883</ele><time>2026-04-20T18:29:54.981Z</time><hdop>5.5</hdop><vdop>4.375</vdop><extensions><gom:speed>0.343</gom:speed></extensions></trkpt>
   <trkpt lat="59.0637553504" lon="30.0286491983"><ele>94.841</ele><time>2026-04-20T18:29:55.516Z</time><hdop>5.625</hdop><vdop>4.375</vdop><extensions><gom:speed>0.273</gom:speed></extensions></trkpt>
   <trkpt lat="59.0637553504" lon="30.0286492821"><ele>94.766</ele><time>2026-04-20T18:29:56.046Z</time><hdop>5.75</hdop><vdop>4.5</vdop><extensions><gom:speed>0.287</gom:speed></extensions></trkpt>
   <trkpt lat="59.06375644" lon="30.0286478572"><ele>94.72</ele><time>2026-04-20T18:29:56.757Z</time><hdop>5.875</hdop><vdop>4.5</vdop><extensions><gom:speed>0.24</gom:speed></extensions></trkpt>
   <trkpt lat="59.063758326" lon="30.0286474381"><ele>94.544</ele><time>2026-04-20T18:29:58.060Z</time><hdop>6.125</hdop><vdop>4.625</vdop><extensions><gom:speed>0.185</gom:speed></extensions></trkpt>
   <trkpt lat="59.0637614273" lon="30.0286462646"><ele>94.382</ele><time>2026-04-20T18:29:59.075Z</time><hdop>6.25</hdop><vdop>4.875</vdop><extensions><gom:speed>0.114</gom:speed></extensions></trkpt>
   <trkpt lat="59.0637619302" lon="30.0286465999"><ele>94.291</ele><time>2026-04-20T18:29:59.956Z</time><hdop>6.125</hdop><vdop>5.0</vdop><extensions><gom:speed>0.109</gom:speed></extensions></trkpt>
   <trkpt lat="59.0637610501" lon="30.0286462646"><ele>94.21</ele><time>2026-04-20T18:30:01.022Z</time><hdop>6.0</hdop><vdop>5.125</vdop><extensions><gom:speed>0.102</gom:speed></extensions></trkpt>
   <trkpt lat="59.0637602538" lon="30.0286456779"><ele>94.154</ele><time>2026-04-20T18:30:01.971Z</time><hdop>5.875</hdop><vdop>5.375</vdop><extensions><gom:speed>0.069</gom:speed></extensions></trkpt>
   <trkpt lat="59.0637603376" lon="30.0286453426"><ele>94.12</ele><time>2026-04-20T18:30:02.917Z</time><hdop>6.0</hdop><vdop>5.375</vdop><extensions><gom:speed>0.071</gom:speed></extensions></trkpt>
   <trkpt lat="59.0637603376" lon="30.0286441692"><ele>94.144</ele><time>2026-04-20T18:30:03.985Z</time><hdop>5.875</hdop><vdop>5.5</vdop><extensions><gom:speed>0.068</gom:speed></extensions></trkpt>
   <trkpt lat="59.0637603376" lon="30.0286462646"><ele>94.166</ele><time>2026-04-20T18:30:05.050Z</time><hdop>6.125</hdop><vdop>5.625</vdop><extensions><gom:speed>0.101</gom:speed></extensions></trkpt>
   <trkpt lat="59.0637591222" lon="30.0286486954"><ele>94.179</ele><time>2026-04-20T18:30:05.998Z</time><hdop>6.25</hdop><vdop>5.5</vdop><extensions><gom:speed>0.071</gom:speed></extensions></trkpt>
   <trkpt lat="59.063757823" lon="30.0286507909"><ele>94.184</ele><time>2026-04-20T18:30:06.945Z</time><hdop>6.5</hdop><vdop>5.5</vdop><extensions><gom:speed>0.079</gom:speed></extensions></trkpt>
   <trkpt lat="59.0637565239" lon="30.0286519643"><ele>94.188</ele><time>2026-04-20T18:30:08.012Z</time><hdop>6.75</hdop><vdop>5.5</vdop><extensions><gom:speed>0.07</gom:speed></extensions></trkpt>
   <trkpt lat="59.0637560209" lon="30.0286513776"><ele>94.198</ele><time>2026-04-20T18:30:08.959Z</time><hdop>6.875</hdop><vdop>5.5</vdop><extensions><gom:speed>0.061</gom:speed></extensions></trkpt>
   <trkpt lat="59.0637549313" lon="30.0286517129"><ele>94.244</ele><time>2026-04-20T18:30:10.026Z</time><hdop>7.125</hdop><vdop>5.375</vdop><extensions><gom:speed>0.075</gom:speed></extensions></trkpt>
   <trkpt lat="59.0637552247" lon="30.0286529702"><ele>94.329</ele><time>2026-04-20T18:30:10.973Z</time><hdop>7.25</hdop><vdop>5.5</vdop><extensions><gom:speed>0.068</gom:speed></extensions></trkpt>
   <trkpt lat="59.0637540512" lon="30.0286647887"><ele>94.419</ele><time>2026-04-20T18:30:12.076Z</time><hdop>8.0</hdop><vdop>5.375</vdop><extensions><gom:speed>0.068</gom:speed></extensions></trkpt>
   <trkpt lat="59.0637532549" lon="30.0286733382"><ele>94.478</ele><time>2026-04-20T18:30:13.075Z</time><hdop>8.875</hdop><vdop>5.375</vdop><extensions><gom:speed>0.072</gom:speed></extensions></trkpt>
   <trkpt lat="59.0637528358" lon="30.0286787864"><ele>94.547</ele><time>2026-04-20T18:30:14.075Z</time><hdop>9.5</hdop><vdop>5.25</vdop><extensions><gom:speed>0.079</gom:speed></extensions></trkpt>
   <trkpt lat="59.063752752" lon="30.0286820554"><ele>94.595</ele><time>2026-04-20T18:30:15.076Z</time><hdop>10.25</hdop><vdop>5.125</vdop><extensions><gom:speed>0.083</gom:speed></extensions></trkpt>
   <trkpt lat="59.063752752" lon="30.028684067"><ele>94.65</ele><time>2026-04-20T18:30:16.075Z</time><hdop>10.875</hdop><vdop>5.125</vdop><extensions><gom:speed>0.083</gom:speed></extensions></trkpt>
   <trkpt lat="59.0637528358" lon="30.0286851567"><ele>94.686</ele><time>2026-04-20T18:30:17.075Z</time><hdop>11.375</hdop><vdop>5.0</vdop><extensions><gom:speed>0.08</gom:speed></extensions></trkpt>
   <trkpt lat="59.0637529196" lon="30.0286850729"><ele>94.731</ele><time>2026-04-20T18:30:18.075Z</time><hdop>11.375</hdop><vdop>5.25</vdop><extensions><gom:speed>0.006</gom:speed></extensions></trkpt>
   <trkpt lat="59.063752752" lon="30.0286870007"><ele>94.762</ele><time>2026-04-20T18:30:19.075Z</time><hdop>11.125</hdop><vdop>5.125</vdop><extensions><gom:speed>0.179</gom:speed></extensions></trkpt>
   <trkpt lat="59.0637526263" lon="30.0286898505"><ele>94.781</ele><time>2026-04-20T18:30:20.076Z</time><hdop>10.625</hdop><vdop>5.25</vdop><extensions><gom:speed>0.231</gom:speed></extensions></trkpt>
   <trkpt lat="59.0637525424" lon="30.028691946"><ele>94.797</ele><time>2026-04-20T18:30:21.075Z</time><hdop>10.0</hdop><vdop>5.25</vdop><extensions><gom:speed>0.291</gom:speed></extensions></trkpt>
   <trkpt lat="59.0637526263" lon="30.0286939577"><ele>94.81</ele><time>2026-04-20T18:30:22.076Z</time><hdop>9.0</hdop><vdop>5.375</vdop><extensions><gom:speed>0.333</gom:speed></extensions></trkpt>
   <trkpt lat="59.0637522491" lon="30.028694293"><ele>94.818</ele><time>2026-04-20T18:30:23.075Z</time><hdop>8.375</hdop><vdop>5.75</vdop><extensions><gom:speed>0.353</gom:speed></extensions></trkpt>
   <trkpt lat="59.0637524167" lon="30.0286947959"><ele>94.823</ele><time>2026-04-20T18:30:24.075Z</time><hdop>7.75</hdop><vdop>6.0</vdop><extensions><gom:speed>0.422</gom:speed></extensions></trkpt>
   <trkpt lat="59.0637526263" lon="30.0286959693"><ele>94.828</ele><time>2026-04-20T18:30:25.075Z</time><hdop>7.25</hdop><vdop>6.25</vdop><extensions><gom:speed>0.525</gom:speed></extensions></trkpt>
   <trkpt lat="59.0637528358" lon="30.0286980648"><ele>94.832</ele><time>2026-04-20T18:30:26.075Z</time><hdop>7.0</hdop><vdop>6.375</vdop><extensions><gom:speed>0.604</gom:speed></extensions></trkpt>
   <trkpt lat="59.0637529196" lon="30.0287002441"><ele>94.838</ele><time>2026-04-20T18:30:27.075Z</time><hdop>7.0</hdop><vdop>6.5</vdop><extensions><gom:speed>0.656</gom:speed></extensions></trkpt>
   <trkpt lat="59.0637529196" lon="30.0286984839"><ele>94.841</ele><time>2026-04-20T18:30:27.678Z</time><hdop>7.125</hdop><vdop>6.5</vdop><extensions><gom:speed>0.668</gom:speed></extensions></trkpt>
   <trkpt lat="59.0637532549" lon="30.0287018367"><ele>94.847</ele><time>2026-04-20T18:30:29.075Z</time><hdop>7.375</hdop><vdop>6.0</vdop><extensions><gom:speed>0.697</gom:speed></extensions></trkpt>
   <trkpt lat="59.0637534225" lon="30.0287009985"><ele>94.85</ele><time>2026-04-20T18:30:30.075Z</time><hdop>7.625</hdop><vdop>5.875</vdop><extensions><gom:speed>0.694</gom:speed></extensions></trkpt>
   <trkpt lat="59.0637537578" lon="30.0287002441"><ele>94.853</ele><time>2026-04-20T18:30:31.075Z</time><hdop>7.875</hdop><vdop>5.875</vdop><extensions><gom:speed>0.671</gom:speed></extensions></trkpt>
   <trkpt lat="59.0637540512" lon="30.0286994897"><ele>94.854</ele><time>2026-04-20T18:30:32.075Z</time><hdop>8.125</hdop><vdop>5.625</vdop><extensions><gom:speed>0.623</gom:speed></extensions></trkpt>
   <trkpt lat="59.0637545541" lon="30.0286990706"><ele>94.864</ele><time>2026-04-20T18:30:33.075Z</time><hdop>8.375</hdop><vdop>5.75</vdop><extensions><gom:speed>0.576</gom:speed></extensions></trkpt>
   <trkpt lat="59.0637547217" lon="30.0286960532"><ele>94.871</ele><time>2026-04-20T18:30:33.838Z</time><hdop>8.5</hdop><vdop>5.75</vdop><extensions><gom:speed>0.57</gom:speed></extensions></trkpt>
   <trkpt lat="59.0637547217" lon="30.0286984839"><ele>94.757</ele><time>2026-04-20T18:30:35.075Z</time><hdop>8.625</hdop><vdop>6.25</vdop><extensions><gom:speed>0.851</gom:speed></extensions></trkpt>
   <trkpt lat="59.0637544284" lon="30.0286980648"><ele>94.315</ele><time>2026-04-20T18:30:36.075Z</time><hdop>8.5</hdop><vdop>4.375</vdop><extensions><gom:speed>0.507</gom:speed></extensions></trkpt>
   <trkpt lat="59.0637523329" lon="30.0286965561"><ele>93.227</ele><time>2026-04-20T18:30:37.075Z</time><hdop>8.5</hdop><vdop>6.875</vdop><extensions><gom:speed>0.453</gom:speed></extensions></trkpt>
   <trkpt lat="59.0637473457" lon="30.0286958017"><ele>92.546</ele><time>2026-04-20T18:30:38.075Z</time><hdop>8.125</hdop><vdop>5.125</vdop><extensions><gom:speed>0.414</gom:speed></extensions></trkpt>
   <trkpt lat="59.0637425261" lon="30.028694293"><ele>91.451</ele><time>2026-04-20T18:30:39.075Z</time><hdop>8.125</hdop><vdop>7.25</vdop><extensions><gom:speed>0.363</gom:speed></extensions></trkpt>
   <trkpt lat="59.0637418555" lon="30.0286927004"><ele>90.796</ele><time>2026-04-20T18:30:39.998Z</time><hdop>8.125</hdop><vdop>7.25</vdop><extensions><gom:speed>0.347</gom:speed></extensions></trkpt>
   <trkpt lat="59.0637302466" lon="30.0286927004"><ele>89.148</ele><time>2026-04-20T18:30:41.075Z</time><hdop>8.0</hdop><vdop>7.625</vdop><extensions><gom:speed>0.47</gom:speed></extensions></trkpt>
   <trkpt lat="59.0637245469" lon="30.0286923651"><ele>87.942</ele><time>2026-04-20T18:30:42.076Z</time><hdop>8.0</hdop><vdop>7.75</vdop><extensions><gom:speed>0.53</gom:speed></extensions></trkpt>
   <trkpt lat="59.0637184281" lon="30.0286930357"><ele>87.483</ele><time>2026-04-20T18:30:43.075Z</time><hdop>8.125</hdop><vdop>7.875</vdop><extensions><gom:speed>0.57</gom:speed></extensions></trkpt>
   <trkpt lat="59.0637123512" lon="30.028694293"><ele>87.393</ele><time>2026-04-20T18:30:44.075Z</time><hdop>8.25</hdop><vdop>8.375</vdop><extensions><gom:speed>0.582</gom:speed></extensions></trkpt>
   <trkpt lat="59.063706442" lon="30.0286968075"><ele>87.279</ele><time>2026-04-20T18:30:45.075Z</time><hdop>8.375</hdop><vdop>8.5</vdop><extensions><gom:speed>0.607</gom:speed></extensions></trkpt>
   <trkpt lat="59.0637005327" lon="30.0287013338"><ele>87.076</ele><time>2026-04-20T18:30:46.075Z</time><hdop>8.625</hdop><vdop>8.625</vdop><extensions><gom:speed>0.648</gom:speed></extensions></trkpt>
   <trkpt lat="59.0636943301" lon="30.0287100509"><ele>86.873</ele><time>2026-04-20T18:30:47.075Z</time><hdop>8.75</hdop><vdop>8.75</vdop><extensions><gom:speed>0.715</gom:speed></extensions></trkpt>
   <trkpt lat="59.0636910193" lon="30.028712314"><ele>86.686</ele><time>2026-04-20T18:30:48.076Z</time><hdop>8.875</hdop><vdop>8.5</vdop><extensions><gom:speed>0.732</gom:speed></extensions></trkpt>
   <trkpt lat="59.0636871217" lon="30.0287135713"><ele>86.44</ele><time>2026-04-20T18:30:49.076Z</time><hdop>9.0</hdop><vdop>8.625</vdop><extensions><gom:speed>0.727</gom:speed></extensions></trkpt>
   <trkpt lat="59.0636836432" lon="30.0287142419"><ele>86.477</ele><time>2026-04-20T18:30:50.076Z</time><hdop>9.125</hdop><vdop>8.5</vdop><extensions><gom:speed>0.704</gom:speed></extensions></trkpt>
   <trkpt lat="59.0636812544" lon="30.0287152477"><ele>86.694</ele><time>2026-04-20T18:30:51.075Z</time><hdop>9.125</hdop><vdop>8.25</vdop><extensions><gom:speed>0.655</gom:speed></extensions></trkpt>
   <trkpt lat="59.0636810448" lon="30.0287144095"><ele>86.949</ele><time>2026-04-20T18:30:52.076Z</time><hdop>9.125</hdop><vdop>7.875</vdop><extensions><gom:speed>0.512</gom:speed></extensions></trkpt>
   <trkpt lat="59.063680039" lon="30.0287145772"><ele>87.095</ele><time>2026-04-20T18:30:53.075Z</time><hdop>9.0</hdop><vdop>8.125</vdop><extensions><gom:speed>0.478</gom:speed></extensions></trkpt>
   <trkpt lat="59.0636797456" lon="30.0287141581"><ele>87.211</ele><time>2026-04-20T18:30:54.075Z</time><hdop>8.875</hdop><vdop>8.125</vdop><extensions><gom:speed>0.486</gom:speed></extensions></trkpt>
   <trkpt lat="59.063679117" lon="30.0287118949"><ele>87.184</ele><time>2026-04-20T18:30:55.075Z</time><hdop>8.75</hdop><vdop>8.125</vdop><extensions><gom:speed>0.499</gom:speed></extensions></trkpt>
   <trkpt lat="59.0636788236" lon="30.0287068658"><ele>87.181</ele><time>2026-04-20T18:30:56.075Z</time><hdop>8.5</hdop><vdop>8.375</vdop><extensions><gom:speed>0.502</gom:speed></extensions></trkpt>
   <trkpt lat="59.063679117" lon="30.0287010823"><ele>87.227</ele><time>2026-04-20T18:30:57.075Z</time><hdop>8.25</hdop><vdop>8.375</vdop><extensions><gom:speed>0.501</gom:speed></extensions></trkpt>
   <trkpt lat="59.0636802485" lon="30.0286960532"><ele>87.268</ele><time>2026-04-20T18:30:58.075Z</time><hdop>8.0</hdop><vdop>8.375</vdop><extensions><gom:speed>0.495</gom:speed></extensions></trkpt>
   <trkpt lat="59.0636810448" lon="30.0286956341"><ele>87.293</ele><time>2026-04-20T18:30:58.598Z</time><hdop>8.0</hdop><vdop>8.375</vdop><extensions><gom:speed>0.495</gom:speed></extensions></trkpt>
   <trkpt lat="59.0636820506" lon="30.0286917784"><ele>87.316</ele><time>2026-04-20T18:30:59.076Z</time><hdop>7.875</hdop><vdop>8.0</vdop><extensions><gom:speed>0.432</gom:speed></extensions></trkpt>
   <trkpt lat="59.0636838528" lon="30.0286895991"><ele>87.321</ele><time>2026-04-20T18:31:00.075Z</time><hdop>7.625</hdop><vdop>7.875</vdop><extensions><gom:speed>0.375</gom:speed></extensions></trkpt>
   <trkpt lat="59.0636851519" lon="30.0286880903"><ele>87.312</ele><time>2026-04-20T18:31:01.075Z</time><hdop>7.375</hdop><vdop>7.75</vdop><extensions><gom:speed>0.351</gom:speed></extensions></trkpt>
   <trkpt lat="59.0636861578" lon="30.0286883418"><ele>87.295</ele><time>2026-04-20T18:31:02.075Z</time><hdop>7.125</hdop><vdop>7.625</vdop><extensions><gom:speed>0.3</gom:speed></extensions></trkpt>
   <trkpt lat="59.0636877503" lon="30.0286911916"><ele>87.282</ele><time>2026-04-20T18:31:03.075Z</time><hdop>6.75</hdop><vdop>7.625</vdop><extensions><gom:speed>0.311</gom:speed></extensions></trkpt>
   <trkpt lat="59.0636890495" lon="30.0286937062"><ele>87.24</ele><time>2026-04-20T18:31:04.075Z</time><hdop>6.375</hdop><vdop>7.375</vdop><extensions><gom:speed>0.32</gom:speed></extensions></trkpt>
   <trkpt lat="59.0636895524" lon="30.0286933709"><ele>87.215</ele><time>2026-04-20T18:31:04.758Z</time><hdop>6.125</hdop><vdop>7.375</vdop><extensions><gom:speed>0.321</gom:speed></extensions></trkpt>
   <trkpt lat="59.0636918575" lon="30.0286963046"><ele>87.263</ele><time>2026-04-20T18:31:06.075Z</time><hdop>6.0</hdop><vdop>7.25</vdop><extensions><gom:speed>0.363</gom:speed></extensions></trkpt>
   <trkpt lat="59.0636931567" lon="30.0286965561"><ele>87.316</ele><time>2026-04-20T18:31:07.075Z</time><hdop>5.875</hdop><vdop>7.125</vdop><extensions><gom:speed>0.383</gom:speed></extensions></trkpt>
   <trkpt lat="59.0636945397" lon="30.0286976457"><ele>87.381</ele><time>2026-04-20T18:31:08.075Z</time><hdop>5.75</hdop><vdop>6.875</vdop><extensions><gom:speed>0.38</gom:speed></extensions></trkpt>
   <trkpt lat="59.0636958389" lon="30.0286980648"><ele>87.468</ele><time>2026-04-20T18:31:09.076Z</time><hdop>5.75</hdop><vdop>6.75</vdop><extensions><gom:speed>0.391</gom:speed></extensions></trkpt>
   <trkpt lat="59.0636966352" lon="30.0286989868"><ele>87.529</ele><time>2026-04-20T18:31:10.075Z</time><hdop>5.875</hdop><vdop>6.625</vdop><extensions><gom:speed>0.384</gom:speed></extensions></trkpt>
   <trkpt lat="59.063696719" lon="30.0286991545"><ele>87.566</ele><time>2026-04-20T18:31:10.919Z</time><hdop>6.0</hdop><vdop>6.625</vdop><extensions><gom:speed>0.384</gom:speed></extensions></trkpt>
   <trkpt lat="59.0636978505" lon="30.0287006632"><ele>87.624</ele><time>2026-04-20T18:31:12.076Z</time><hdop>6.125</hdop><vdop>6.125</vdop><extensions><gom:speed>0.374</gom:speed></extensions></trkpt>
   <trkpt lat="59.0636986468" lon="30.0287013338"><ele>87.668</ele><time>2026-04-20T18:31:13.075Z</time><hdop>6.25</hdop><vdop>5.875</vdop><extensions><gom:speed>0.344</gom:speed></extensions></trkpt>
   <trkpt lat="59.0636994431" lon="30.0287015014"><ele>87.695</ele><time>2026-04-20T18:31:14.075Z</time><hdop>6.375</hdop><vdop>6.0</vdop><extensions><gom:speed>0.322</gom:speed></extensions></trkpt>
   <trkpt lat="59.0637004489" lon="30.0287015852"><ele>87.721</ele><time>2026-04-20T18:31:15.075Z</time><hdop>6.375</hdop><vdop>6.0</vdop><extensions><gom:speed>0.303</gom:speed></extensions></trkpt>
   <trkpt lat="59.0637015386" lon="30.028703094"><ele>87.73</ele><time>2026-04-20T18:31:16.075Z</time><hdop>6.5</hdop><vdop>6.0</vdop><extensions><gom:speed>0.301</gom:speed></extensions></trkpt>
   <trkpt lat="59.0637026282" lon="30.0287033454"><ele>87.739</ele><time>2026-04-20T18:31:17.075Z</time><hdop>6.5</hdop><vdop>6.0</vdop><extensions><gom:speed>0.315</gom:speed></extensions></trkpt>
   <trkpt lat="59.063703634" lon="30.0287036807"><ele>87.74</ele><time>2026-04-20T18:31:18.075Z</time><hdop>6.5</hdop><vdop>5.875</vdop><extensions><gom:speed>0.332</gom:speed></extensions></trkpt>
   <trkpt lat="59.0637043465" lon="30.0287036807"><ele>87.759</ele><time>2026-04-20T18:31:19.075Z</time><hdop>6.5</hdop><vdop>5.75</vdop><extensions><gom:speed>0.313</gom:speed></extensions></trkpt>
   <trkpt lat="59.0637053523" lon="30.0287036807"><ele>87.777</ele><time>2026-04-20T18:31:20.075Z</time><hdop>6.5</hdop><vdop>5.5</vdop><extensions><gom:speed>0.312</gom:speed></extensions></trkpt>
   <trkpt lat="59.0637062324" lon="30.0287041836"><ele>87.799</ele><time>2026-04-20T18:31:21.075Z</time><hdop>6.5</hdop><vdop>5.5</vdop><extensions><gom:speed>0.328</gom:speed></extensions></trkpt>
   <trkpt lat="59.0637072383" lon="30.0287047703"><ele>87.817</ele><time>2026-04-20T18:31:22.076Z</time><hdop>6.375</hdop><vdop>5.25</vdop><extensions><gom:speed>0.312</gom:speed></extensions></trkpt>
   <trkpt lat="59.0637080345" lon="30.0287051056"><ele>87.846</ele><time>2026-04-20T18:31:23.075Z</time><hdop>6.375</hdop><vdop>5.375</vdop><extensions><gom:speed>0.316</gom:speed></extensions></trkpt>
   <trkpt lat="59.0637088308" lon="30.0287066982"><ele>87.868</ele><time>2026-04-20T18:31:24.075Z</time><hdop>6.5</hdop><vdop>5.375</vdop><extensions><gom:speed>0.325</gom:speed></extensions></trkpt>
   <trkpt lat="59.0637094176" lon="30.028706782"><ele>87.885</ele><time>2026-04-20T18:31:25.076Z</time><hdop>6.5</hdop><vdop>5.25</vdop><extensions><gom:speed>0.324</gom:speed></extensions></trkpt>
   <trkpt lat="59.0637106329" lon="30.0287075364"><ele>87.916</ele><time>2026-04-20T18:31:26.075Z</time><hdop>6.5</hdop><vdop>5.25</vdop><extensions><gom:speed>0.326</gom:speed></extensions></trkpt>
   <trkpt lat="59.0637116388" lon="30.0287082069"><ele>87.938</ele><time>2026-04-20T18:31:27.075Z</time><hdop>6.5</hdop><vdop>5.125</vdop><extensions><gom:speed>0.308</gom:speed></extensions></trkpt>
   <trkpt lat="59.063712938" lon="30.0287084584"><ele>87.949</ele><time>2026-04-20T18:31:28.076Z</time><hdop>6.625</hdop><vdop>5.25</vdop><extensions><gom:speed>0.281</gom:speed></extensions></trkpt>
   <trkpt lat="59.0637139438" lon="30.0287075364"><ele>87.953</ele><time>2026-04-20T18:31:29.076Z</time><hdop>6.625</hdop><vdop>5.25</vdop><extensions><gom:speed>0.289</gom:speed></extensions></trkpt>
   <trkpt lat="59.0637150334" lon="30.0287066144"><ele>87.95</ele><time>2026-04-20T18:31:30.075Z</time><hdop>6.625</hdop><vdop>5.25</vdop><extensions><gom:speed>0.285</gom:speed></extensions></trkpt>
   <trkpt lat="59.0637154525" lon="30.0287054409"><ele>87.945</ele><time>2026-04-20T18:31:31.075Z</time><hdop>6.625</hdop><vdop>5.25</vdop><extensions><gom:speed>0.308</gom:speed></extensions></trkpt>
   <trkpt lat="59.0637161231" lon="30.0287051894"><ele>87.941</ele><time>2026-04-20T18:31:32.076Z</time><hdop>6.625</hdop><vdop>5.25</vdop><extensions><gom:speed>0.306</gom:speed></extensions></trkpt>
   <trkpt lat="59.0637165422" lon="30.0287051056"><ele>87.938</ele><time>2026-04-20T18:31:33.076Z</time><hdop>6.625</hdop><vdop>5.125</vdop><extensions><gom:speed>0.303</gom:speed></extensions></trkpt>
   <trkpt lat="59.0637170451" lon="30.0287051894"><ele>87.934</ele><time>2026-04-20T18:31:34.075Z</time><hdop>6.625</hdop><vdop>5.375</vdop><extensions><gom:speed>0.322</gom:speed></extensions></trkpt>
   <trkpt lat="59.0637174223" lon="30.0287051056"><ele>87.928</ele><time>2026-04-20T18:31:35.075Z</time><hdop>6.75</hdop><vdop>5.25</vdop><extensions><gom:speed>0.327</gom:speed></extensions></trkpt>
   <trkpt lat="59.0637171289" lon="30.0287046865"><ele>87.925</ele><time>2026-04-20T18:31:35.679Z</time><hdop>6.75</hdop><vdop>5.25</vdop><extensions><gom:speed>0.328</gom:speed></extensions></trkpt>
   <trkpt lat="59.0637182186" lon="30.0287056085"><ele>87.916</ele><time>2026-04-20T18:31:37.076Z</time><hdop>6.875</hdop><vdop>5.0</vdop><extensions><gom:speed>0.338</gom:speed></extensions></trkpt>
   <trkpt lat="59.0637180509" lon="30.0287046027"><ele>87.904</ele><time>2026-04-20T18:31:38.075Z</time><hdop>6.875</hdop><vdop>5.0</vdop><extensions><gom:speed>0.322</gom:speed></extensions></trkpt>
   <trkpt lat="59.0637182186" lon="30.0287038483"><ele>87.887</ele><time>2026-04-20T18:31:39.075Z</time><hdop>7.0</hdop><vdop>4.875</vdop><extensions><gom:speed>0.322</gom:speed></extensions></trkpt>
   <trkpt lat="59.0637183443" lon="30.0287035969"><ele>87.869</ele><time>2026-04-20T18:31:40.075Z</time><hdop>7.0</hdop><vdop>5.0</vdop><extensions><gom:speed>0.308</gom:speed></extensions></trkpt>
   <trkpt lat="59.0637187215" lon="30.0287026749"><ele>87.865</ele><time>2026-04-20T18:31:41.075Z</time><hdop>7.0</hdop><vdop>5.125</vdop><extensions><gom:speed>0.318</gom:speed></extensions></trkpt>
   <trkpt lat="59.0637186376" lon="30.0287022558"><ele>87.862</ele><time>2026-04-20T18:31:41.839Z</time><hdop>7.125</hdop><vdop>5.125</vdop><extensions><gom:speed>0.318</gom:speed></extensions></trkpt>
   <trkpt lat="59.0637197273" lon="30.0287006632"><ele>87.854</ele><time>2026-04-20T18:31:43.075Z</time><hdop>7.25</hdop><vdop>5.375</vdop><extensions><gom:speed>0.298</gom:speed></extensions></trkpt>
   <trkpt lat="59.0637194339" lon="30.0286994059"><ele>87.846</ele><time>2026-04-20T18:31:44.075Z</time><hdop>7.25</hdop><vdop>5.25</vdop><extensions><gom:speed>0.277</gom:speed></extensions></trkpt>
   <trkpt lat="59.0637193501" lon="30.0286991545"><ele>87.841</ele><time>2026-04-20T18:31:45.076Z</time><hdop>7.125</hdop><vdop>5.125</vdop><extensions><gom:speed>0.313</gom:speed></extensions></trkpt>
   <trkpt lat="59.0637194339" lon="30.0286989868"><ele>87.831</ele><time>2026-04-20T18:31:46.076Z</time><hdop>7.0</hdop><vdop>5.25</vdop><extensions><gom:speed>0.331</gom:speed></extensions></trkpt>
   <trkpt lat="59.0637195177" lon="30.0286984839"><ele>87.823</ele><time>2026-04-20T18:31:47.075Z</time><hdop>7.0</hdop><vdop>5.5</vdop><extensions><gom:speed>0.334</gom:speed></extensions></trkpt>
   <trkpt lat="59.0637192244" lon="30.0286989868"><ele>87.836</ele><time>2026-04-20T18:31:48.075Z</time><hdop>6.875</hdop><vdop>5.5</vdop><extensions><gom:speed>0.338</gom:speed></extensions></trkpt>
   <trkpt lat="59.0637191406" lon="30.0286987354"><ele>87.841</ele><time>2026-04-20T18:31:49.075Z</time><hdop>6.875</hdop><vdop>5.625</vdop><extensions><gom:speed>0.346</gom:speed></extensions></trkpt>
   <trkpt lat="59.0637192244" lon="30.0286976457"><ele>87.847</ele><time>2026-04-20T18:31:50.075Z</time><hdop>6.875</hdop><vdop>5.75</vdop><extensions><gom:speed>0.347</gom:speed></extensions></trkpt>
   <trkpt lat="59.0637197273" lon="30.0286976457"><ele>87.851</ele><time>2026-04-20T18:31:51.079Z</time><hdop>7.0</hdop><vdop>5.75</vdop><extensions><gom:speed>0.348</gom:speed></extensions></trkpt>
   <trkpt lat="59.0637192244" lon="30.0286954664"><ele>87.852</ele><time>2026-04-20T18:31:52.075Z</time><hdop>7.0</hdop><vdop>5.75</vdop><extensions><gom:speed>0.363</gom:speed></extensions></trkpt>
   <trkpt lat="59.0637190567" lon="30.0286932871"><ele>87.853</ele><time>2026-04-20T18:31:53.076Z</time><hdop>7.125</hdop><vdop>5.625</vdop><extensions><gom:speed>0.337</gom:speed></extensions></trkpt>
   <trkpt lat="59.0637188472" lon="30.0286911078"><ele>87.852</ele><time>2026-04-20T18:31:54.075Z</time><hdop>7.125</hdop><vdop>5.5</vdop><extensions><gom:speed>0.323</gom:speed></extensions></trkpt>
   <trkpt lat="59.0637190567" lon="30.0286892638"><ele>87.851</ele><time>2026-04-20T18:31:55.075Z</time><hdop>7.125</hdop><vdop>5.375</vdop><extensions><gom:speed>0.344</gom:speed></extensions></trkpt>
   <trkpt lat="59.0637192244" lon="30.0286895991"><ele>87.866</ele><time>2026-04-20T18:31:56.075Z</time><hdop>7.125</hdop><vdop>5.375</vdop><extensions><gom:speed>0.318</gom:speed></extensions></trkpt>
   <trkpt lat="59.0637195177" lon="30.0286908564"><ele>87.875</ele><time>2026-04-20T18:31:57.076Z</time><hdop>7.0</hdop><vdop>5.25</vdop><extensions><gom:speed>0.285</gom:speed></extensions></trkpt>
   <trkpt lat="59.0637203559" lon="30.0286892638"><ele>87.876</ele><time>2026-04-20T18:31:58.075Z</time><hdop>7.0</hdop><vdop>5.25</vdop><extensions><gom:speed>0.287</gom:speed></extensions></trkpt>
   <trkpt lat="59.0637204398" lon="30.0286880065"><ele>87.876</ele><time>2026-04-20T18:31:59.075Z</time><hdop>6.875</hdop><vdop>5.25</vdop><extensions><gom:speed>0.291</gom:speed></extensions></trkpt>
   <trkpt lat="59.0637206493" lon="30.0286871683"><ele>87.875</ele><time>2026-04-20T18:32:00.075Z</time><hdop>6.75</hdop><vdop>5.125</vdop><extensions><gom:speed>0.297</gom:speed></extensions></trkpt>
   <trkpt lat="59.0637211522" lon="30.0286864978"><ele>87.88</ele><time>2026-04-20T18:32:01.075Z</time><hdop>6.75</hdop><vdop>5.25</vdop><extensions><gom:speed>0.296</gom:speed></extensions></trkpt>
   <trkpt lat="59.0637211522" lon="30.0286877551"><ele>86.587</ele><time>2026-04-20T18:32:02.075Z</time><hdop>6.75</hdop><vdop>4.375</vdop><extensions><gom:speed>0.311</gom:speed></extensions></trkpt>
   <trkpt lat="59.0637214456" lon="30.0286911916"><ele>85.629</ele><time>2026-04-20T18:32:03.075Z</time><hdop>6.75</hdop><vdop>5.875</vdop><extensions><gom:speed>0.312</gom:speed></extensions></trkpt>
   <trkpt lat="59.0637220323" lon="30.0286933709"><ele>85.01</ele><time>2026-04-20T18:32:04.075Z</time><hdop>6.75</hdop><vdop>5.75</vdop><extensions><gom:speed>0.32</gom:speed></extensions></trkpt>
   <trkpt lat="59.0637236249" lon="30.028694712"><ele>84.581</ele><time>2026-04-20T18:32:05.075Z</time><hdop>6.625</hdop><vdop>5.875</vdop><extensions><gom:speed>0.327</gom:speed></extensions></trkpt>
   <trkpt lat="59.0637257204" lon="30.0286945444"><ele>84.385</ele><time>2026-04-20T18:32:06.076Z</time><hdop>6.625</hdop><vdop>4.875</vdop><extensions><gom:speed>0.327</gom:speed></extensions></trkpt>
   <trkpt lat="59.0637257204" lon="30.0286940415"><ele>84.268</ele><time>2026-04-20T18:32:06.599Z</time><hdop>6.625</hdop><vdop>4.875</vdop><extensions><gom:speed>0.326</gom:speed></extensions></trkpt>
   <trkpt lat="59.0637284445" lon="30.0286950473"><ele>83.025</ele><time>2026-04-20T18:32:07.075Z</time><hdop>6.625</hdop><vdop>4.375</vdop><extensions><gom:speed>0.312</gom:speed></extensions></trkpt>
   <trkpt lat="59.0637294503" lon="30.0286955502"><ele>82.222</ele><time>2026-04-20T18:32:08.075Z</time><hdop>6.625</hdop><vdop>6.25</vdop><extensions><gom:speed>0.293</gom:speed></extensions></trkpt>
   <trkpt lat="59.0637302466" lon="30.0286966399"><ele>82.574</ele><time>2026-04-20T18:32:09.075Z</time><hdop>6.625</hdop><vdop>5.25</vdop><extensions><gom:speed>0.307</gom:speed></extensions></trkpt>
   <trkpt lat="59.0637310429" lon="30.0286982324"><ele>82.704</ele><time>2026-04-20T18:32:10.075Z</time><hdop>6.625</hdop><vdop>4.625</vdop><extensions><gom:speed>0.33</gom:speed></extensions></trkpt>
   <trkpt lat="59.0637323421" lon="30.0286994897"><ele>82.905</ele><time>2026-04-20T18:32:11.075Z</time><hdop>6.5</hdop><vdop>4.375</vdop><extensions><gom:speed>0.345</gom:speed></extensions></trkpt>
   <trkpt lat="59.0637333479" lon="30.028700747"><ele>82.586</ele><time>2026-04-20T18:32:12.075Z</time><hdop>6.625</hdop><vdop>7.375</vdop><extensions><gom:speed>0.323</gom:speed></extensions></trkpt>
   <trkpt lat="59.0637331383" lon="30.0287005794"><ele>82.396</ele><time>2026-04-20T18:32:12.759Z</time><hdop>6.625</hdop><vdop>7.375</vdop><extensions><gom:speed>0.321</gom:speed></extensions></trkpt>
   <trkpt lat="59.0637353176" lon="30.0287026749"><ele>82.212</ele><time>2026-04-20T18:32:14.076Z</time><hdop>6.75</hdop><vdop>7.375</vdop><extensions><gom:speed>0.32</gom:speed></extensions></trkpt>
   <trkpt lat="59.0637357367" lon="30.0287033454"><ele>81.48</ele><time>2026-04-20T18:32:15.075Z</time><hdop>6.75</hdop><vdop>6.25</vdop><extensions><gom:speed>0.295</gom:speed></extensions></trkpt>
   <trkpt lat="59.063736533" lon="30.028702591"><ele>81.129</ele><time>2026-04-20T18:32:16.075Z</time><hdop>6.75</hdop><vdop>5.375</vdop><extensions><gom:speed>0.307</gom:speed></extensions></trkpt>
   <trkpt lat="59.063737455" lon="30.0287015014"><ele>81.132</ele><time>2026-04-20T18:32:17.076Z</time><hdop>6.75</hdop><vdop>4.875</vdop><extensions><gom:speed>0.358</gom:speed></extensions></trkpt>
   <trkpt lat="59.0637386285" lon="30.0287012499"><ele>81.006</ele><time>2026-04-20T18:32:18.075Z</time><hdop>6.625</hdop><vdop>4.375</vdop><extensions><gom:speed>0.345</gom:speed></extensions></trkpt>
   <trkpt lat="59.0637387542" lon="30.0287011661"><ele>80.931</ele><time>2026-04-20T18:32:18.921Z</time><hdop>6.75</hdop><vdop>4.375</vdop><extensions><gom:speed>0.345</gom:speed></extensions></trkpt>
   <trkpt lat="59.0637405563" lon="30.0286994897"><ele>80.678</ele><time>2026-04-20T18:32:20.076Z</time><hdop>6.625</hdop><vdop>7.0</vdop><extensions><gom:speed>0.314</gom:speed></extensions></trkpt>
   <trkpt lat="59.0637412269" lon="30.0286987354"><ele>80.682</ele><time>2026-04-20T18:32:21.075Z</time><hdop>6.625</hdop><vdop>6.5</vdop><extensions><gom:speed>0.315</gom:speed></extensions></trkpt>
   <trkpt lat="59.0637417298" lon="30.0286985677"><ele>80.732</ele><time>2026-04-20T18:32:22.075Z</time><hdop>6.625</hdop><vdop>5.25</vdop><extensions><gom:speed>0.327</gom:speed></extensions></trkpt>
   <trkpt lat="59.0637427356" lon="30.0286981486"><ele>80.843</ele><time>2026-04-20T18:32:23.075Z</time><hdop>6.5</hdop><vdop>6.25</vdop><extensions><gom:speed>0.296</gom:speed></extensions></trkpt>
   <trkpt lat="59.0637436576" lon="30.0286973943"><ele>80.78</ele><time>2026-04-20T18:32:24.076Z</time><hdop>6.5</hdop><vdop>6.125</vdop><extensions><gom:speed>0.303</gom:speed></extensions></trkpt>
   <trkpt lat="59.0637447473" lon="30.0286964722"><ele>80.656</ele><time>2026-04-20T18:32:25.075Z</time><hdop>6.5</hdop><vdop>6.0</vdop><extensions><gom:speed>0.313</gom:speed></extensions></trkpt>
   <trkpt lat="59.0637465494" lon="30.028695215"><ele>80.618</ele><time>2026-04-20T18:32:26.075Z</time><hdop>6.5</hdop><vdop>5.75</vdop><extensions><gom:speed>0.307</gom:speed></extensions></trkpt>
   <trkpt lat="59.0637472199" lon="30.0286949635"><ele>81.265</ele><time>2026-04-20T18:32:27.075Z</time><hdop>6.5</hdop><vdop>4.5</vdop><extensions><gom:speed>0.325</gom:speed></extensions></trkpt>
   <trkpt lat="59.0637477229" lon="30.0286950473"><ele>81.89</ele><time>2026-04-20T18:32:28.075Z</time><hdop>6.5</hdop><vdop>5.75</vdop><extensions><gom:speed>0.292</gom:speed></extensions></trkpt>
   <trkpt lat="59.0637483515" lon="30.0286954664"><ele>82.285</ele><time>2026-04-20T18:32:29.075Z</time><hdop>6.5</hdop><vdop>5.75</vdop><extensions><gom:speed>0.281</gom:speed></extensions></trkpt>
   <trkpt lat="59.063749022" lon="30.0286953826"><ele>82.531</ele><time>2026-04-20T18:32:30.075Z</time><hdop>6.375</hdop><vdop>5.75</vdop><extensions><gom:speed>0.265</gom:speed></extensions></trkpt>
   <trkpt lat="59.0637496507" lon="30.0286952988"><ele>82.67</ele><time>2026-04-20T18:32:31.076Z</time><hdop>6.375</hdop><vdop>5.5</vdop><extensions><gom:speed>0.264</gom:speed></extensions></trkpt>
   <trkpt lat="59.063750447" lon="30.0286947959"><ele>82.932</ele><time>2026-04-20T18:32:32.075Z</time><hdop>6.375</hdop><vdop>5.5</vdop><extensions><gom:speed>0.275</gom:speed></extensions></trkpt>
   <trkpt lat="59.0637510337" lon="30.0286945444"><ele>83.768</ele><time>2026-04-20T18:32:33.075Z</time><hdop>6.25</hdop><vdop>4.5</vdop><extensions><gom:speed>0.316</gom:speed></extensions></trkpt>
   <trkpt lat="59.0637521234" lon="30.0286937062"><ele>84.957</ele><time>2026-04-20T18:32:34.075Z</time><hdop>6.25</hdop><vdop>5.5</vdop><extensions><gom:speed>0.304</gom:speed></extensions></trkpt>
   <trkpt lat="59.0637536321" lon="30.0286921137"><ele>85.931</ele><time>2026-04-20T18:32:35.075Z</time><hdop>6.125</hdop><vdop>4.625</vdop><extensions><gom:speed>0.289</gom:speed></extensions></trkpt>
   <trkpt lat="59.0637549313" lon="30.0286902696"><ele>86.625</ele><time>2026-04-20T18:32:36.075Z</time><hdop>6.125</hdop><vdop>5.375</vdop><extensions><gom:speed>0.264</gom:speed></extensions></trkpt>
   <trkpt lat="59.0637563562" lon="30.0286876712"><ele>87.195</ele><time>2026-04-20T18:32:37.075Z</time><hdop>6.125</hdop><vdop>4.5</vdop><extensions><gom:speed>0.316</gom:speed></extensions></trkpt>
   <trkpt lat="59.0637585355" lon="30.0286835641"><ele>87.807</ele><time>2026-04-20T18:32:38.075Z</time><hdop>6.125</hdop><vdop>5.25</vdop><extensions><gom:speed>0.316</gom:speed></extensions></trkpt>
   <trkpt lat="59.0637596252" lon="30.0286805466"><ele>87.984</ele><time>2026-04-20T18:32:39.076Z</time><hdop>6.125</hdop><vdop>5.5</vdop><extensions><gom:speed>0.354</gom:speed></extensions></trkpt>
   <trkpt lat="59.0637612177" lon="30.0286779482"><ele>88.587</ele><time>2026-04-20T18:32:40.075Z</time><hdop>6.125</hdop><vdop>5.5</vdop><extensions><gom:speed>0.34</gom:speed></extensions></trkpt>
   <trkpt lat="59.0637625169" lon="30.0286753499"><ele>88.603</ele><time>2026-04-20T18:32:41.075Z</time><hdop>6.125</hdop><vdop>4.625</vdop><extensions><gom:speed>0.344</gom:speed></extensions></trkpt>
   <trkpt lat="59.0637636485" lon="30.0286740926"><ele>88.694</ele><time>2026-04-20T18:32:42.075Z</time><hdop>6.125</hdop><vdop>4.25</vdop><extensions><gom:speed>0.344</gom:speed></extensions></trkpt>
   <trkpt lat="59.0637644448" lon="30.0286731706"><ele>88.795</ele><time>2026-04-20T18:32:43.075Z</time><hdop>6.125</hdop><vdop>3.875</vdop><extensions><gom:speed>0.358</gom:speed></extensions></trkpt>
   <trkpt lat="59.0637642352" lon="30.0286732544"><ele>88.856</ele><time>2026-04-20T18:32:43.680Z</time><hdop>6.25</hdop><vdop>3.875</vdop><extensions><gom:speed>0.36</gom:speed></extensions></trkpt>
   <trkpt lat="59.0637655344" lon="30.0286711589"><ele>88.442</ele><time>2026-04-20T18:32:45.075Z</time><hdop>6.25</hdop><vdop>5.75</vdop><extensions><gom:speed>0.324</gom:speed></extensions></trkpt>
   <trkpt lat="59.063765241" lon="30.028671578"><ele>88.358</ele><time>2026-04-20T18:32:46.075Z</time><hdop>6.25</hdop><vdop>4.875</vdop><extensions><gom:speed>0.325</gom:speed></extensions></trkpt>
   <trkpt lat="59.0637654506" lon="30.028669734"><ele>87.922</ele><time>2026-04-20T18:32:47.075Z</time><hdop>6.25</hdop><vdop>4.375</vdop><extensions><gom:speed>0.315</gom:speed></extensions></trkpt>
   <trkpt lat="59.0637662469" lon="30.0286694825"><ele>87.505</ele><time>2026-04-20T18:32:48.075Z</time><hdop>6.125</hdop><vdop>3.875</vdop><extensions><gom:speed>0.351</gom:speed></extensions></trkpt>
   <trkpt lat="59.0637670431" lon="30.0286690634"><ele>87.267</ele><time>2026-04-20T18:32:49.075Z</time><hdop>6.125</hdop><vdop>3.625</vdop><extensions><gom:speed>0.354</gom:speed></extensions></trkpt>
   <trkpt lat="59.063767127" lon="30.0286689796"><ele>87.124</ele><time>2026-04-20T18:32:49.841Z</time><hdop>6.125</hdop><vdop>3.625</vdop><extensions><gom:speed>0.354</gom:speed></extensions></trkpt>
   <trkpt lat="59.0637686357" lon="30.0286676385"><ele>87.02</ele><time>2026-04-20T18:32:51.075Z</time><hdop>6.25</hdop><vdop>5.875</vdop><extensions><gom:speed>0.348</gom:speed></extensions></trkpt>
   <trkpt lat="59.0637692224" lon="30.028667387"><ele>86.874</ele><time>2026-04-20T18:32:52.076Z</time><hdop>6.25</hdop><vdop>5.75</vdop><extensions><gom:speed>0.298</gom:speed></extensions></trkpt>
   <trkpt lat="59.0637701444" lon="30.0286668003"><ele>87.165</ele><time>2026-04-20T18:32:53.075Z</time><hdop>6.25</hdop><vdop>5.0</vdop><extensions><gom:speed>0.315</gom:speed></extensions></trkpt>
   <trkpt lat="59.0637705216" lon="30.0286668003"><ele>87.584</ele><time>2026-04-20T18:32:54.075Z</time><hdop>6.375</hdop><vdop>5.75</vdop><extensions><gom:speed>0.297</gom:speed></extensions></trkpt>
   <trkpt lat="59.0637707312" lon="30.0286676385"><ele>87.802</ele><time>2026-04-20T18:32:55.075Z</time><hdop>6.375</hdop><vdop>5.0</vdop><extensions><gom:speed>0.295</gom:speed></extensions></trkpt>
   <trkpt lat="59.0637706474" lon="30.0286688958"><ele>88.142</ele><time>2026-04-20T18:32:56.075Z</time><hdop>6.375</hdop><vdop>5.875</vdop><extensions><gom:speed>0.269</gom:speed></extensions></trkpt>
   <trkpt lat="59.063770354" lon="30.0286709913"><ele>88.564</ele><time>2026-04-20T18:32:57.075Z</time><hdop>6.375</hdop><vdop>5.875</vdop><extensions><gom:speed>0.474</gom:speed></extensions></trkpt>
   <trkpt lat="59.0637710245" lon="30.0286704883"><ele>88.794</ele><time>2026-04-20T18:32:58.075Z</time><hdop>6.375</hdop><vdop>5.625</vdop><extensions><gom:speed>0.266</gom:speed></extensions></trkpt>
   <trkpt lat="59.0637713179" lon="30.0286699854"><ele>88.71</ele><time>2026-04-20T18:32:59.080Z</time><hdop>6.5</hdop><vdop>4.625</vdop><extensions><gom:speed>0.266</gom:speed></extensions></trkpt>
   <trkpt lat="59.0637704378" lon="30.028671578"><ele>88.583</ele><time>2026-04-20T18:33:00.075Z</time><hdop>6.5</hdop><vdop>5.25</vdop><extensions><gom:speed>0.267</gom:speed></extensions></trkpt>
   <trkpt lat="59.0637702283" lon="30.0286725838"><ele>88.948</ele><time>2026-04-20T18:33:01.075Z</time><hdop>6.5</hdop><vdop>4.5</vdop><extensions><gom:speed>0.308</gom:speed></extensions></trkpt>
   <trkpt lat="59.0637699349" lon="30.0286736735"><ele>89.528</ele><time>2026-04-20T18:33:02.075Z</time><hdop>6.5</hdop><vdop>3.875</vdop><extensions><gom:speed>0.32</gom:speed></extensions></trkpt>
   <trkpt lat="59.0637699349" lon="30.0286751822"><ele>90.073</ele><time>2026-04-20T18:33:03.076Z</time><hdop>6.5</hdop><vdop>3.625</vdop><extensions><gom:speed>0.317</gom:speed></extensions></trkpt>
   <trkpt lat="59.0637705216" lon="30.0286763557"><ele>90.651</ele><time>2026-04-20T18:33:04.075Z</time><hdop>6.5</hdop><vdop>5.75</vdop><extensions><gom:speed>0.286</gom:speed></extensions></trkpt>
   <trkpt lat="59.0637712341" lon="30.0286779482"><ele>90.804</ele><time>2026-04-20T18:33:05.076Z</time><hdop>6.375</hdop><vdop>4.75</vdop><extensions><gom:speed>0.322</gom:speed></extensions></trkpt>
   <trkpt lat="59.0637721561" lon="30.0286795408"><ele>90.978</ele><time>2026-04-20T18:33:06.075Z</time><hdop>6.25</hdop><vdop>6.0</vdop><extensions><gom:speed>0.287</gom:speed></extensions></trkpt>
   <trkpt lat="59.06377312" lon="30.0286808819"><ele>90.827</ele><time>2026-04-20T18:33:07.075Z</time><hdop>6.25</hdop><vdop>5.125</vdop><extensions><gom:speed>0.315</gom:speed></extensions></trkpt>
   <trkpt lat="59.0637744192" lon="30.0286818039"><ele>90.503</ele><time>2026-04-20T18:33:08.076Z</time><hdop>6.25</hdop><vdop>4.75</vdop><extensions><gom:speed>0.342</gom:speed></extensions></trkpt>
   <trkpt lat="59.0637755508" lon="30.0286818877"><ele>90.42</ele><time>2026-04-20T18:33:09.075Z</time><hdop>6.25</hdop><vdop>6.25</vdop><extensions><gom:speed>0.304</gom:speed></extensions></trkpt>
   <trkpt lat="59.063775928" lon="30.0286830612"><ele>90.976</ele><time>2026-04-20T18:33:10.075Z</time><hdop>6.25</hdop><vdop>5.375</vdop><extensions><gom:speed>0.314</gom:speed></extensions></trkpt>
   <trkpt lat="59.0637761375" lon="30.028685911"><ele>91.691</ele><time>2026-04-20T18:33:11.075Z</time><hdop>6.25</hdop><vdop>6.5</vdop><extensions><gom:speed>0.282</gom:speed></extensions></trkpt>
   <trkpt lat="59.0637758441" lon="30.0286898505"><ele>92.401</ele><time>2026-04-20T18:33:12.076Z</time><hdop>6.25</hdop><vdop>5.875</vdop><extensions><gom:speed>0.333</gom:speed></extensions></trkpt>
   <trkpt lat="59.0637751317" lon="30.0286950473"><ele>93.677</ele><time>2026-04-20T18:33:13.075Z</time><hdop>6.25</hdop><vdop>6.375</vdop><extensions><gom:speed>0.304</gom:speed></extensions></trkpt>
   <trkpt lat="59.0637741258" lon="30.0287000765"><ele>94.226</ele><time>2026-04-20T18:33:14.075Z</time><hdop>6.375</hdop><vdop>5.75</vdop><extensions><gom:speed>0.301</gom:speed></extensions></trkpt>
   <trkpt lat="59.0637738325" lon="30.0287006632"><ele>94.554</ele><time>2026-04-20T18:33:14.600Z</time><hdop>6.375</hdop><vdop>5.75</vdop><extensions><gom:speed>0.302</gom:speed></extensions></trkpt>
   <trkpt lat="59.0637735391" lon="30.0287041836"><ele>94.421</ele><time>2026-04-20T18:33:15.075Z</time><hdop>6.375</hdop><vdop>6.625</vdop><extensions><gom:speed>0.266</gom:speed></extensions></trkpt>
   <trkpt lat="59.06377312" lon="30.028704938"><ele>94.06</ele><time>2026-04-20T18:33:16.075Z</time><hdop>6.5</hdop><vdop>6.5</vdop><extensions><gom:speed>0.431</gom:speed></extensions></trkpt>
   <trkpt lat="59.0637737487" lon="30.0287078716"><ele>93.298</ele><time>2026-04-20T18:33:17.076Z</time><hdop>6.5</hdop><vdop>6.375</vdop><extensions><gom:speed>0.291</gom:speed></extensions></trkpt>
   <trkpt lat="59.063774042" lon="30.0287090451"><ele>93.025</ele><time>2026-04-20T18:33:18.075Z</time><hdop>6.5</hdop><vdop>5.5</vdop><extensions><gom:speed>0.288</gom:speed></extensions></trkpt>
   <trkpt lat="59.0637749221" lon="30.0287097157"><ele>92.45</ele><time>2026-04-20T18:33:19.075Z</time><hdop>6.625</hdop><vdop>6.25</vdop><extensions><gom:speed>0.256</gom:speed></extensions></trkpt>
   <trkpt lat="59.0637756346" lon="30.0287105538"><ele>92.228</ele><time>2026-04-20T18:33:20.076Z</time><hdop>6.5</hdop><vdop>5.5</vdop><extensions><gom:speed>0.268</gom:speed></extensions></trkpt>
   <trkpt lat="59.0637756346" lon="30.0287103862"><ele>92.095</ele><time>2026-04-20T18:33:20.760Z</time><hdop>6.625</hdop><vdop>5.5</vdop><extensions><gom:speed>0.269</gom:speed></extensions></trkpt>
   <trkpt lat="59.0637777301" lon="30.028709548"><ele>91.8</ele><time>2026-04-20T18:33:22.075Z</time><hdop>6.5</hdop><vdop>6.5</vdop><extensions><gom:speed>0.377</gom:speed></extensions></trkpt>
   <trkpt lat="59.0637787359" lon="30.0287084584"><ele>91.081</ele><time>2026-04-20T18:33:23.075Z</time><hdop>6.5</hdop><vdop>6.375</vdop><extensions><gom:speed>0.277</gom:speed></extensions></trkpt>
   <trkpt lat="59.0637790293" lon="30.0287059438"><ele>90.037</ele><time>2026-04-20T18:33:24.075Z</time><hdop>6.5</hdop><vdop>5.375</vdop><extensions><gom:speed>0.282</gom:speed></extensions></trkpt>
   <trkpt lat="59.0637792388" lon="30.028703094"><ele>89.746</ele><time>2026-04-20T18:33:25.075Z</time><hdop>6.5</hdop><vdop>4.875</vdop><extensions><gom:speed>0.313</gom:speed></extensions></trkpt>
   <trkpt lat="59.0637793226" lon="30.0287011661"><ele>89.706</ele><time>2026-04-20T18:33:26.076Z</time><hdop>6.5</hdop><vdop>6.375</vdop><extensions><gom:speed>0.288</gom:speed></extensions></trkpt>
   <trkpt lat="59.0637789454" lon="30.0287005794"><ele>89.683</ele><time>2026-04-20T18:33:26.921Z</time><hdop>6.5</hdop><vdop>6.375</vdop><extensions><gom:speed>0.286</gom:speed></extensions></trkpt>
   <trkpt lat="59.0637787359" lon="30.0286968913"><ele>89.168</ele><time>2026-04-20T18:33:28.075Z</time><hdop>6.625</hdop><vdop>6.5</vdop><extensions><gom:speed>0.284</gom:speed></extensions></trkpt>
   <trkpt lat="59.0637784425" lon="30.0286938739"><ele>89.059</ele><time>2026-04-20T18:33:29.075Z</time><hdop>6.625</hdop><vdop>5.5</vdop><extensions><gom:speed>0.303</gom:speed></extensions></trkpt>
   <trkpt lat="59.0637775205" lon="30.0286904373"><ele>88.634</ele><time>2026-04-20T18:33:30.075Z</time><hdop>6.625</hdop><vdop>6.25</vdop><extensions><gom:speed>0.276</gom:speed></extensions></trkpt>
   <trkpt lat="59.0637766404" lon="30.028687336"><ele>88.143</ele><time>2026-04-20T18:33:31.076Z</time><hdop>6.5</hdop><vdop>5.25</vdop><extensions><gom:speed>0.304</gom:speed></extensions></trkpt>
   <trkpt lat="59.0637763471" lon="30.0286838994"><ele>87.525</ele><time>2026-04-20T18:33:32.075Z</time><hdop>6.625</hdop><vdop>6.0</vdop><extensions><gom:speed>0.276</gom:speed></extensions></trkpt>
   <trkpt lat="59.0637763471" lon="30.0286800437"><ele>87.251</ele><time>2026-04-20T18:33:33.075Z</time><hdop>6.625</hdop><vdop>5.125</vdop><extensions><gom:speed>0.315</gom:speed></extensions></trkpt>
   <trkpt lat="59.0637764309" lon="30.028675266"><ele>86.988</ele><time>2026-04-20T18:33:34.076Z</time><hdop>6.75</hdop><vdop>5.875</vdop><extensions><gom:speed>0.285</gom:speed></extensions></trkpt>
   <trkpt lat="59.0637763471" lon="30.0286716618"><ele>86.98</ele><time>2026-04-20T18:33:35.075Z</time><hdop>6.75</hdop><vdop>5.0</vdop><extensions><gom:speed>0.334</gom:speed></extensions></trkpt>
   <trkpt lat="59.0637761375" lon="30.0286676385"><ele>86.877</ele><time>2026-04-20T18:33:36.075Z</time><hdop>6.75</hdop><vdop>5.75</vdop><extensions><gom:speed>0.295</gom:speed></extensions></trkpt>
   <trkpt lat="59.0637757184" lon="30.0286644534"><ele>86.919</ele><time>2026-04-20T18:33:37.075Z</time><hdop>6.75</hdop><vdop>5.0</vdop><extensions><gom:speed>0.341</gom:speed></extensions></trkpt>
   <trkpt lat="59.0637753412" lon="30.028661855"><ele>87.474</ele><time>2026-04-20T18:33:38.075Z</time><hdop>6.875</hdop><vdop>5.5</vdop><extensions><gom:speed>0.317</gom:speed></extensions></trkpt>
   <trkpt lat="59.0637747545" lon="30.0286603462"><ele>88.133</ele><time>2026-04-20T18:33:39.076Z</time><hdop>6.875</hdop><vdop>4.875</vdop><extensions><gom:speed>0.319</gom:speed></extensions></trkpt>
   <trkpt lat="59.0637738325" lon="30.0286586699"><ele>88.264</ele><time>2026-04-20T18:33:40.075Z</time><hdop>7.0</hdop><vdop>5.5</vdop><extensions><gom:speed>0.281</gom:speed></extensions></trkpt>
   <trkpt lat="59.0637725333" lon="30.0286582508"><ele>88.312</ele><time>2026-04-20T18:33:41.075Z</time><hdop>7.0</hdop><vdop>5.0</vdop><extensions><gom:speed>0.336</gom:speed></extensions></trkpt>
   <trkpt lat="59.0637711503" lon="30.0286571611"><ele>88.587</ele><time>2026-04-20T18:33:42.075Z</time><hdop>7.0</hdop><vdop>5.5</vdop><extensions><gom:speed>0.301</gom:speed></extensions></trkpt>
   <trkpt lat="59.0637702283" lon="30.0286570773"><ele>89.066</ele><time>2026-04-20T18:33:43.076Z</time><hdop>7.0</hdop><vdop>5.125</vdop><extensions><gom:speed>0.291</gom:speed></extensions></trkpt>
   <trkpt lat="59.0637700187" lon="30.0286574964"><ele>89.473</ele><time>2026-04-20T18:33:44.075Z</time><hdop>7.0</hdop><vdop>5.75</vdop><extensions><gom:speed>0.257</gom:speed></extensions></trkpt>
   <trkpt lat="59.0637700187" lon="30.0286583346"><ele>89.863</ele><time>2026-04-20T18:33:45.075Z</time><hdop>7.0</hdop><vdop>5.25</vdop><extensions><gom:speed>0.283</gom:speed></extensions></trkpt>
   <trkpt lat="59.0637698511" lon="30.0286579155"><ele>90.377</ele><time>2026-04-20T18:33:46.076Z</time><hdop>7.0</hdop><vdop>6.0</vdop><extensions><gom:speed>0.255</gom:speed></extensions></trkpt>
   <trkpt lat="59.0637696415" lon="30.028657664"><ele>90.534</ele><time>2026-04-20T18:33:47.076Z</time><hdop>6.875</hdop><vdop>6.125</vdop><extensions><gom:speed>0.319</gom:speed></extensions></trkpt>
   <trkpt lat="59.0637691386" lon="30.0286574964"><ele>90.376</ele><time>2026-04-20T18:33:48.075Z</time><hdop>6.875</hdop><vdop>6.125</vdop><extensions><gom:speed>0.283</gom:speed></extensions></trkpt>
   <trkpt lat="59.0637685519" lon="30.0286577479"><ele>89.695</ele><time>2026-04-20T18:33:49.075Z</time><hdop>6.875</hdop><vdop>5.0</vdop><extensions><gom:speed>0.303</gom:speed></extensions></trkpt>
   <trkpt lat="59.0637677556" lon="30.028658586"><ele>89.742</ele><time>2026-04-20T18:33:50.075Z</time><hdop>6.75</hdop><vdop>4.625</vdop><extensions><gom:speed>0.345</gom:speed></extensions></trkpt>
   <trkpt lat="59.0637674203" lon="30.0286575802"><ele>89.481</ele><time>2026-04-20T18:33:51.088Z</time><hdop>6.75</hdop><vdop>4.375</vdop><extensions><gom:speed>0.346</gom:speed></extensions></trkpt>
   <trkpt lat="59.063767127" lon="30.0286587537"><ele>89.325</ele><time>2026-04-20T18:33:51.680Z</time><hdop>6.75</hdop><vdop>4.375</vdop><extensions><gom:speed>0.342</gom:speed></extensions></trkpt>
   <trkpt lat="59.0637658278" lon="30.0286643696"><ele>89.119</ele><time>2026-04-20T18:33:53.075Z</time><hdop>6.875</hdop><vdop>5.375</vdop><extensions><gom:speed>0.26</gom:speed></extensions></trkpt>
   <trkpt lat="59.0637650315" lon="30.0286686443"><ele>89.123</ele><time>2026-04-20T18:33:54.075Z</time><hdop>6.875</hdop><vdop>5.0</vdop><extensions><gom:speed>0.23</gom:speed></extensions></trkpt>
   <trkpt lat="59.063763858" lon="30.0286737573"><ele>89.234</ele><time>2026-04-20T18:33:55.075Z</time><hdop>6.875</hdop><vdop>4.875</vdop><extensions><gom:speed>0.207</gom:speed></extensions></trkpt>
   <trkpt lat="59.0637627265" lon="30.0286790379"><ele>89.32</ele><time>2026-04-20T18:33:56.075Z</time><hdop>7.0</hdop><vdop>4.75</vdop><extensions><gom:speed>0.211</gom:speed></extensions></trkpt>
   <trkpt lat="59.0637609244" lon="30.0286868331"><ele>89.36</ele><time>2026-04-20T18:33:57.075Z</time><hdop>7.0</hdop><vdop>4.625</vdop><extensions><gom:speed>0.207</gom:speed></extensions></trkpt>
   <trkpt lat="59.063760631" lon="30.0286875874"><ele>89.383</ele><time>2026-04-20T18:33:57.841Z</time><hdop>7.0</hdop><vdop>4.625</vdop><extensions><gom:speed>0.207</gom:speed></extensions></trkpt>
   <trkpt lat="59.0637573201" lon="30.0286987354"><ele>88.777</ele><time>2026-04-20T18:33:59.075Z</time><hdop>7.0</hdop><vdop>5.0</vdop><extensions><gom:speed>0.246</gom:speed></extensions></trkpt>
   <trkpt lat="59.0637559371" lon="30.028704016"><ele>88.489</ele><time>2026-04-20T18:34:00.075Z</time><hdop>7.0</hdop><vdop>4.875</vdop><extensions><gom:speed>0.244</gom:speed></extensions></trkpt>
   <trkpt lat="59.0637544284" lon="30.0287085422"><ele>87.967</ele><time>2026-04-20T18:34:01.075Z</time><hdop>7.0</hdop><vdop>4.75</vdop><extensions><gom:speed>0.246</gom:speed></extensions></trkpt>
   <trkpt lat="59.0637528358" lon="30.0287130684"><ele>88.091</ele><time>2026-04-20T18:34:02.076Z</time><hdop>6.875</hdop><vdop>4.25</vdop><extensions><gom:speed>0.264</gom:speed></extensions></trkpt>
   <trkpt lat="59.0637515366" lon="30.0287172594"><ele>87.903</ele><time>2026-04-20T18:34:03.075Z</time><hdop>6.875</hdop><vdop>5.0</vdop><extensions><gom:speed>0.241</gom:speed></extensions></trkpt>
   <trkpt lat="59.0637502374" lon="30.0287197739"><ele>87.767</ele><time>2026-04-20T18:34:04.075Z</time><hdop>6.75</hdop><vdop>4.625</vdop><extensions><gom:speed>0.276</gom:speed></extensions></trkpt>
   <trkpt lat="59.0637489382" lon="30.0287219532"><ele>88.029</ele><time>2026-04-20T18:34:05.076Z</time><hdop>6.625</hdop><vdop>5.125</vdop><extensions><gom:speed>0.264</gom:speed></extensions></trkpt>
   <trkpt lat="59.063747639" lon="30.0287243002"><ele>88.072</ele><time>2026-04-20T18:34:06.075Z</time><hdop>6.5</hdop><vdop>5.125</vdop><extensions><gom:speed>0.243</gom:speed></extensions></trkpt>
   <trkpt lat="59.0637468428" lon="30.0287254736"><ele>88.046</ele><time>2026-04-20T18:34:07.081Z</time><hdop>6.5</hdop><vdop>5.0</vdop><extensions><gom:speed>0.241</gom:speed></extensions></trkpt>
   <trkpt lat="59.0637455436" lon="30.0287279882"><ele>88.252</ele><time>2026-04-20T18:34:08.076Z</time><hdop>6.375</hdop><vdop>4.875</vdop><extensions><gom:speed>0.208</gom:speed></extensions></trkpt>
   <trkpt lat="59.0637445377" lon="30.0287305028"><ele>88.369</ele><time>2026-04-20T18:34:09.075Z</time><hdop>6.375</hdop><vdop>4.875</vdop><extensions><gom:speed>0.193</gom:speed></extensions></trkpt>
   <trkpt lat="59.0637437414" lon="30.0287327659"><ele>88.339</ele><time>2026-04-20T18:34:10.075Z</time><hdop>6.25</hdop><vdop>4.875</vdop><extensions><gom:speed>0.198</gom:speed></extensions></trkpt>
   <trkpt lat="59.0637428194" lon="30.0287356996"><ele>88.39</ele><time>2026-04-20T18:34:11.075Z</time><hdop>6.125</hdop><vdop>5.0</vdop><extensions><gom:speed>0.275</gom:speed></extensions></trkpt>
   <trkpt lat="59.0637422327" lon="30.0287375436"><ele>87.883</ele><time>2026-04-20T18:34:12.075Z</time><hdop>6.0</hdop><vdop>4.375</vdop><extensions><gom:speed>0.295</gom:speed></extensions></trkpt>
   <trkpt lat="59.0637415202" lon="30.0287399743"><ele>87.687</ele><time>2026-04-20T18:34:13.075Z</time><hdop>5.875</hdop><vdop>4.125</vdop><extensions><gom:speed>0.294</gom:speed></extensions></trkpt>
   <trkpt lat="59.0637409335" lon="30.0287416507"><ele>87.594</ele><time>2026-04-20T18:34:14.076Z</time><hdop>5.875</hdop><vdop>3.875</vdop><extensions><gom:speed>0.31</gom:speed></extensions></trkpt>
   <trkpt lat="59.063740221" lon="30.0287424051"><ele>87.592</ele><time>2026-04-20T18:34:15.075Z</time><hdop>5.875</hdop><vdop>3.75</vdop><extensions><gom:speed>0.326</gom:speed></extensions></trkpt>
   <trkpt lat="59.0637395505" lon="30.0287434109"><ele>87.458</ele><time>2026-04-20T18:34:16.075Z</time><hdop>5.875</hdop><vdop>3.625</vdop><extensions><gom:speed>0.32</gom:speed></extensions></trkpt>
   <trkpt lat="59.0637389219" lon="30.0287442491"><ele>87.073</ele><time>2026-04-20T18:34:17.075Z</time><hdop>5.875</hdop><vdop>3.5</vdop><extensions><gom:speed>0.318</gom:speed></extensions></trkpt>
   <trkpt lat="59.0637383351" lon="30.0287442491"><ele>86.684</ele><time>2026-04-20T18:34:18.075Z</time><hdop>5.875</hdop><vdop>3.375</vdop><extensions><gom:speed>0.315</gom:speed></extensions></trkpt>
   <trkpt lat="59.0637380418" lon="30.0287446682"><ele>86.385</ele><time>2026-04-20T18:34:19.075Z</time><hdop>5.875</hdop><vdop>6.25</vdop><extensions><gom:speed>0.329</gom:speed></extensions></trkpt>
   <trkpt lat="59.0637378322" lon="30.0287448358"><ele>86.337</ele><time>2026-04-20T18:34:20.075Z</time><hdop>6.0</hdop><vdop>6.5</vdop><extensions><gom:speed>0.353</gom:speed></extensions></trkpt>
   <trkpt lat="59.063737455" lon="30.028744752"><ele>86.361</ele><time>2026-04-20T18:34:21.075Z</time><hdop>6.125</hdop><vdop>6.75</vdop><extensions><gom:speed>0.395</gom:speed></extensions></trkpt>
   <trkpt lat="59.0637369521" lon="30.0287443329"><ele>86.398</ele><time>2026-04-20T18:34:22.075Z</time><hdop>6.375</hdop><vdop>6.875</vdop><extensions><gom:speed>0.448</gom:speed></extensions></trkpt>
   <trkpt lat="59.0637373293" lon="30.0287434109"><ele>86.421</ele><time>2026-04-20T18:34:22.601Z</time><hdop>6.5</hdop><vdop>6.875</vdop><extensions><gom:speed>0.46</gom:speed></extensions></trkpt>
   <trkpt lat="59.0637360301" lon="30.0287439976"><ele>86.473</ele><time>2026-04-20T18:34:23.075Z</time><hdop>6.75</hdop><vdop>7.0</vdop><extensions><gom:speed>0.498</gom:speed></extensions></trkpt>
   <trkpt lat="59.0637358206" lon="30.0287434109"><ele>86.572</ele><time>2026-04-20T18:34:24.076Z</time><hdop>7.0</hdop><vdop>7.125</vdop><extensions><gom:speed>0.55</gom:speed></extensions></trkpt>
   <trkpt lat="59.0637353176" lon="30.028742908"><ele>86.545</ele><time>2026-04-20T18:34:25.075Z</time><hdop>7.375</hdop><vdop>7.125</vdop><extensions><gom:speed>0.6</gom:speed></extensions></trkpt>
   <trkpt lat="59.0637344375" lon="30.0287430756"><ele>86.382</ele><time>2026-04-20T18:34:26.075Z</time><hdop>7.75</hdop><vdop>7.25</vdop><extensions><gom:speed>0.638</gom:speed></extensions></trkpt>
   <trkpt lat="59.0637334317" lon="30.0287431594"><ele>86.144</ele><time>2026-04-20T18:34:27.075Z</time><hdop>8.25</hdop><vdop>7.25</vdop><extensions><gom:speed>0.658</gom:speed></extensions></trkpt>
   <trkpt lat="59.0637323421" lon="30.0287431594"><ele>86.042</ele><time>2026-04-20T18:34:28.075Z</time><hdop>8.75</hdop><vdop>7.0</vdop><extensions><gom:speed>0.681</gom:speed></extensions></trkpt>
   <trkpt lat="59.0637334317" lon="30.0287417345"><ele>85.982</ele><time>2026-04-20T18:34:28.761Z</time><hdop>9.0</hdop><vdop>7.0</vdop><extensions><gom:speed>0.689</gom:speed></extensions></trkpt>
   <trkpt lat="59.0637297437" lon="30.0287435785"><ele>86.056</ele><time>2026-04-20T18:34:30.076Z</time><hdop>9.875</hdop><vdop>6.75</vdop><extensions><gom:speed>0.765</gom:speed></extensions></trkpt>
   <trkpt lat="59.0637288217" lon="30.0287434947"><ele>86.122</ele><time>2026-04-20T18:34:31.075Z</time><hdop>10.375</hdop><vdop>6.625</vdop><extensions><gom:speed>0.767</gom:speed></extensions></trkpt>
   <trkpt lat="59.0637283187" lon="30.0287429918"><ele>86.174</ele><time>2026-04-20T18:34:32.075Z</time><hdop>10.625</hdop><vdop>6.625</vdop><extensions><gom:speed>0.768</gom:speed></extensions></trkpt>
   <trkpt lat="59.0637279416" lon="30.0287414831"><ele>86.213</ele><time>2026-04-20T18:34:33.075Z</time><hdop>11.0</hdop><vdop>6.375</vdop><extensions><gom:speed>0.77</gom:speed></extensions></trkpt>
   <trkpt lat="59.063727732" lon="30.0287393038"><ele>86.236</ele><time>2026-04-20T18:34:34.075Z</time><hdop>11.125</hdop><vdop>6.125</vdop><extensions><gom:speed>0.754</gom:speed></extensions></trkpt>
   <trkpt lat="59.0637297437" lon="30.0287373759"><ele>86.249</ele><time>2026-04-20T18:34:34.921Z</time><hdop>11.375</hdop><vdop>6.125</vdop><extensions><gom:speed>0.75</gom:speed></extensions></trkpt>
   <trkpt lat="59.0637261395" lon="30.0287342746"><ele>86.258</ele><time>2026-04-20T18:34:36.075Z</time><hdop>11.625</hdop><vdop>5.875</vdop><extensions><gom:speed>0.734</gom:speed></extensions></trkpt>
   <trkpt lat="59.0637253432" lon="30.0287312571"><ele>86.261</ele><time>2026-04-20T18:34:37.075Z</time><hdop>11.625</hdop><vdop>5.875</vdop><extensions><gom:speed>0.697</gom:speed></extensions></trkpt>
   <trkpt lat="59.0637245469" lon="30.0287287426"><ele>86.263</ele><time>2026-04-20T18:34:38.075Z</time><hdop>11.625</hdop><vdop>5.75</vdop><extensions><gom:speed>0.678</gom:speed></extensions></trkpt>
   <trkpt lat="59.0637246307" lon="30.0287266471"><ele>86.264</ele><time>2026-04-20T18:34:39.075Z</time><hdop>11.375</hdop><vdop>5.625</vdop><extensions><gom:speed>0.647</gom:speed></extensions></trkpt>
   <trkpt lat="59.0637252174" lon="30.0287294969"><ele>86.269</ele><time>2026-04-20T18:34:40.075Z</time><hdop>11.375</hdop><vdop>5.625</vdop><extensions><gom:speed>0.681</gom:speed></extensions></trkpt>
   <trkpt lat="59.0637260556" lon="30.0287305028"><ele>86.273</ele><time>2026-04-20T18:34:41.076Z</time><hdop>11.25</hdop><vdop>5.75</vdop><extensions><gom:speed>0.584</gom:speed></extensions></trkpt>
   <trkpt lat="59.0637259299" lon="30.0287268986"><ele>86.275</ele><time>2026-04-20T18:34:42.075Z</time><hdop>11.125</hdop><vdop>5.875</vdop><extensions><gom:speed>0.502</gom:speed></extensions></trkpt>
   <trkpt lat="59.0637273548" lon="30.02872254"><ele>86.315</ele><time>2026-04-20T18:34:43.075Z</time><hdop>11.125</hdop><vdop>5.875</vdop><extensions><gom:speed>0.495</gom:speed></extensions></trkpt>
   <trkpt lat="59.0637282349" lon="30.0287186843"><ele>86.336</ele><time>2026-04-20T18:34:44.075Z</time><hdop>10.875</hdop><vdop>5.875</vdop><extensions><gom:speed>0.497</gom:speed></extensions></trkpt>
   <trkpt lat="59.0637285283" lon="30.0287154992"><ele>86.346</ele><time>2026-04-20T18:34:45.075Z</time><hdop>10.75</hdop><vdop>6.125</vdop><extensions><gom:speed>0.476</gom:speed></extensions></trkpt>
   <trkpt lat="59.063728654" lon="30.0287130684"><ele>86.395</ele><time>2026-04-20T18:34:46.075Z</time><hdop>10.625</hdop><vdop>5.875</vdop><extensions><gom:speed>0.448</gom:speed></extensions></trkpt>
   <trkpt lat="59.0637283187" lon="30.0287119788"><ele>86.43</ele><time>2026-04-20T18:34:47.076Z</time><hdop>10.375</hdop><vdop>5.625</vdop><extensions><gom:speed>0.419</gom:speed></extensions></trkpt>
   <trkpt lat="59.0637269357" lon="30.0287123979"><ele>86.457</ele><time>2026-04-20T18:34:48.075Z</time><hdop>10.125</hdop><vdop>5.5</vdop><extensions><gom:speed>0.404</gom:speed></extensions></trkpt>
   <trkpt lat="59.0637268519" lon="30.0287113082"><ele>86.474</ele><time>2026-04-20T18:34:49.076Z</time><hdop>9.875</hdop><vdop>5.5</vdop><extensions><gom:speed>0.412</gom:speed></extensions></trkpt>
   <trkpt lat="59.0637274386" lon="30.0287089613"><ele>86.617</ele><time>2026-04-20T18:34:50.075Z</time><hdop>9.75</hdop><vdop>5.375</vdop><extensions><gom:speed>0.426</gom:speed></extensions></trkpt>
   <trkpt lat="59.063728654" lon="30.0287066144"><ele>86.715</ele><time>2026-04-20T18:34:51.075Z</time><hdop>9.5</hdop><vdop>5.375</vdop><extensions><gom:speed>0.426</gom:speed></extensions></trkpt>
   <trkpt lat="59.063730037" lon="30.0287059438"><ele>86.823</ele><time>2026-04-20T18:34:52.076Z</time><hdop>9.25</hdop><vdop>5.25</vdop><extensions><gom:speed>0.377</gom:speed></extensions></trkpt>
   <trkpt lat="59.0637314201" lon="30.0287061953"><ele>86.918</ele><time>2026-04-20T18:34:53.075Z</time><hdop>9.0</hdop><vdop>5.375</vdop><extensions><gom:speed>0.34</gom:speed></extensions></trkpt>
   <trkpt lat="59.0637334317" lon="30.0287066144"><ele>87.007</ele><time>2026-04-20T18:34:54.075Z</time><hdop>8.875</hdop><vdop>5.625</vdop><extensions><gom:speed>0.356</gom:speed></extensions></trkpt>
   <trkpt lat="59.0637348566" lon="30.0287073687"><ele>87.097</ele><time>2026-04-20T18:34:55.075Z</time><hdop>8.75</hdop><vdop>6.0</vdop><extensions><gom:speed>0.416</gom:speed></extensions></trkpt>
   <trkpt lat="59.0637364492" lon="30.0287092127"><ele>87.181</ele><time>2026-04-20T18:34:56.075Z</time><hdop>8.75</hdop><vdop>6.0</vdop><extensions><gom:speed>0.504</gom:speed></extensions></trkpt>
   <trkpt lat="59.0637385447" lon="30.0287097157"><ele>87.279</ele><time>2026-04-20T18:34:57.075Z</time><hdop>8.75</hdop><vdop>6.0</vdop><extensions><gom:speed>0.576</gom:speed></extensions></trkpt>
   <trkpt lat="59.0637406401" lon="30.0287093804"><ele>87.386</ele><time>2026-04-20T18:34:58.075Z</time><hdop>8.875</hdop><vdop>6.375</vdop><extensions><gom:speed>0.567</gom:speed></extensions></trkpt>
   <trkpt lat="59.0637425261" lon="30.0287094642"><ele>87.488</ele><time>2026-04-20T18:34:59.076Z</time><hdop>9.125</hdop><vdop>6.125</vdop><extensions><gom:speed>0.57</gom:speed></extensions></trkpt>
   <trkpt lat="59.0637424423" lon="30.0287108891"><ele>87.549</ele><time>2026-04-20T18:34:59.682Z</time><hdop>9.25</hdop><vdop>6.125</vdop><extensions><gom:speed>0.57</gom:speed></extensions></trkpt>
   <trkpt lat="59.0637465494" lon="30.0287110568"><ele>87.644</ele><time>2026-04-20T18:35:01.075Z</time><hdop>9.625</hdop><vdop>6.0</vdop><extensions><gom:speed>0.597</gom:speed></extensions></trkpt>
   <trkpt lat="59.0637489382" lon="30.0287099671"><ele>87.738</ele><time>2026-04-20T18:35:02.075Z</time><hdop>9.75</hdop><vdop>6.0</vdop><extensions><gom:speed>0.611</gom:speed></extensions></trkpt>
   <trkpt lat="59.0637502374" lon="30.0287098833"><ele>87.812</ele><time>2026-04-20T18:35:03.075Z</time><hdop>9.875</hdop><vdop>5.875</vdop><extensions><gom:speed>0.603</gom:speed></extensions></trkpt>
   <trkpt lat="59.0637513271" lon="30.0287118111"><ele>87.93</ele><time>2026-04-20T18:35:04.075Z</time><hdop>9.875</hdop><vdop>6.125</vdop><extensions><gom:speed>0.584</gom:speed></extensions></trkpt>
   <trkpt lat="59.0637521234" lon="30.0287151639"><ele>88.088</ele><time>2026-04-20T18:35:05.075Z</time><hdop>9.875</hdop><vdop>5.875</vdop><extensions><gom:speed>0.571</gom:speed></extensions></trkpt>
   <trkpt lat="59.0637516204" lon="30.0287151639"><ele>88.182</ele><time>2026-04-20T18:35:05.959Z</time><hdop>10.0</hdop><vdop>5.875</vdop><extensions><gom:speed>0.571</gom:speed></extensions></trkpt>
   <trkpt lat="59.0637535483" lon="30.0287188519"><ele>88.315</ele><time>2026-04-20T18:35:07.075Z</time><hdop>10.0</hdop><vdop>5.875</vdop><extensions><gom:speed>0.486</gom:speed></extensions></trkpt>
   <trkpt lat="59.0637538416" lon="30.0287189357"><ele>88.403</ele><time>2026-04-20T18:35:08.076Z</time><hdop>9.75</hdop><vdop>6.0</vdop><extensions><gom:speed>0.421</gom:speed></extensions></trkpt>
   <trkpt lat="59.0637547217" lon="30.0287194387"><ele>88.482</ele><time>2026-04-20T18:35:09.076Z</time><hdop>9.5</hdop><vdop>5.875</vdop><extensions><gom:speed>0.381</gom:speed></extensions></trkpt>
   <trkpt lat="59.063755518" lon="30.028720193"><ele>88.537</ele><time>2026-04-20T18:35:10.075Z</time><hdop>9.125</hdop><vdop>6.125</vdop><extensions><gom:speed>0.375</gom:speed></extensions></trkpt>
   <trkpt lat="59.0637568172" lon="30.0287208636"><ele>88.587</ele><time>2026-04-20T18:35:11.076Z</time><hdop>8.75</hdop><vdop>6.0</vdop><extensions><gom:speed>0.348</gom:speed></extensions></trkpt>
   <trkpt lat="59.0637585355" lon="30.0287214503"><ele>88.622</ele><time>2026-04-20T18:35:12.075Z</time><hdop>8.375</hdop><vdop>6.125</vdop><extensions><gom:speed>0.31</gom:speed></extensions></trkpt>
   <trkpt lat="59.0637597509" lon="30.0287217018"><ele>88.648</ele><time>2026-04-20T18:35:13.076Z</time><hdop>8.0</hdop><vdop>6.0</vdop><extensions><gom:speed>0.292</gom:speed></extensions></trkpt>
   <trkpt lat="59.0637603376" lon="30.0287217856"><ele>88.68</ele><time>2026-04-20T18:35:14.075Z</time><hdop>7.75</hdop><vdop>5.625</vdop><extensions><gom:speed>0.291</gom:speed></extensions></trkpt>
   <trkpt lat="59.06375644" lon="30.0287244678"><ele>88.703</ele><time>2026-04-20T18:35:15.075Z</time><hdop>8.125</hdop><vdop>5.625</vdop><extensions><gom:speed>0.0</gom:speed></extensions></trkpt>
   <trkpt lat="59.06375644" lon="30.0287244678"><ele>88.723</ele><time>2026-04-20T18:35:16.075Z</time><hdop>8.625</hdop><vdop>5.375</vdop><extensions><gom:speed>0.0</gom:speed></extensions></trkpt>
   <trkpt lat="59.0637565239" lon="30.028724384"><ele>88.744</ele><time>2026-04-20T18:35:17.075Z</time><hdop>9.0</hdop><vdop>5.125</vdop><extensions><gom:speed>0.0</gom:speed></extensions></trkpt>
   <trkpt lat="59.0637566496" lon="30.028724384"><ele>88.759</ele><time>2026-04-20T18:35:18.075Z</time><hdop>9.5</hdop><vdop>5.125</vdop><extensions><gom:speed>0.0</gom:speed></extensions></trkpt>
   <trkpt lat="59.0637566496" lon="30.0287244678"><ele>88.772</ele><time>2026-04-20T18:35:19.075Z</time><hdop>10.125</hdop><vdop>5.25</vdop><extensions><gom:speed>0.0</gom:speed></extensions></trkpt>
   <trkpt lat="59.0637566496" lon="30.0287244678"><ele>88.781</ele><time>2026-04-20T18:35:20.075Z</time><hdop>10.625</hdop><vdop>5.125</vdop><extensions><gom:speed>0.0</gom:speed></extensions></trkpt>
   <trkpt lat="59.0637567334" lon="30.0287244678"><ele>88.787</ele><time>2026-04-20T18:35:21.075Z</time><hdop>10.625</hdop><vdop>5.125</vdop><extensions><gom:speed>0.0</gom:speed></extensions></trkpt>
   <trkpt lat="59.0637567334" lon="30.0287244678"><ele>88.792</ele><time>2026-04-20T18:35:22.075Z</time><hdop>10.5</hdop><vdop>4.875</vdop><extensions><gom:speed>0.0</gom:speed></extensions></trkpt>
   <trkpt lat="59.0637567334" lon="30.0287244678"><ele>88.795</ele><time>2026-04-20T18:35:23.075Z</time><hdop>10.5</hdop><vdop>4.75</vdop><extensions><gom:speed>0.0</gom:speed></extensions></trkpt>
   <trkpt lat="59.0637595413" lon="30.0287130684"><ele>89.1</ele><time>2026-04-20T18:35:24.075Z</time><hdop>10.375</hdop><vdop>3.75</vdop><extensions><gom:speed>0.0</gom:speed></extensions></trkpt>
   <trkpt lat="59.0637611339" lon="30.0286995736"><ele>89.112</ele><time>2026-04-20T18:35:25.075Z</time><hdop>10.375</hdop><vdop>4.875</vdop><extensions><gom:speed>0.0</gom:speed></extensions></trkpt>
   <trkpt lat="59.063762936" lon="30.0286886771"><ele>89.264</ele><time>2026-04-20T18:35:26.075Z</time><hdop>10.375</hdop><vdop>4.875</vdop><extensions><gom:speed>0.0</gom:speed></extensions></trkpt>
   <trkpt lat="59.0637608405" lon="30.0286850729"><ele>89.482</ele><time>2026-04-20T18:35:27.075Z</time><hdop>10.375</hdop><vdop>4.75</vdop><extensions><gom:speed>0.0</gom:speed></extensions></trkpt>
   <trkpt lat="59.0637609244" lon="30.028683145"><ele>89.309</ele><time>2026-04-20T18:35:28.075Z</time><hdop>10.25</hdop><vdop>4.125</vdop><extensions><gom:speed>0.168</gom:speed></extensions></trkpt>
   <trkpt lat="59.0637553504" lon="30.0286844023"><ele>89.389</ele><time>2026-04-20T18:35:29.075Z</time><hdop>10.25</hdop><vdop>3.75</vdop><extensions><gom:speed>0.328</gom:speed></extensions></trkpt>
   <trkpt lat="59.0637524167" lon="30.0286792893"><ele>89.878</ele><time>2026-04-20T18:35:30.075Z</time><hdop>10.25</hdop><vdop>3.375</vdop><extensions><gom:speed>0.258</gom:speed></extensions></trkpt>
   <trkpt lat="59.0637468428" lon="30.0286746793"><ele>90.427</ele><time>2026-04-20T18:35:31.075Z</time><hdop>10.25</hdop><vdop>3.5</vdop><extensions><gom:speed>0.478</gom:speed></extensions></trkpt>
   <trkpt lat="59.0637391314" lon="30.0286652916"><ele>90.958</ele><time>2026-04-20T18:35:32.075Z</time><hdop>10.375</hdop><vdop>3.875</vdop><extensions><gom:speed>0.638</gom:speed></extensions></trkpt>
   <trkpt lat="59.0637330545" lon="30.0286579993"><ele>91.388</ele><time>2026-04-20T18:35:33.075Z</time><hdop>10.5</hdop><vdop>5.375</vdop><extensions><gom:speed>0.0</gom:speed></extensions></trkpt>
   <trkpt lat="59.0637333479" lon="30.0286579993"><ele>91.781</ele><time>2026-04-20T18:35:34.075Z</time><hdop>10.75</hdop><vdop>5.25</vdop><extensions><gom:speed>0.0</gom:speed></extensions></trkpt>
   <trkpt lat="59.0637296179" lon="30.0286583346"><ele>91.799</ele><time>2026-04-20T18:35:35.076Z</time><hdop>11.0</hdop><vdop>5.125</vdop><extensions><gom:speed>0.0</gom:speed></extensions></trkpt>
   <trkpt lat="59.0637274386" lon="30.028657664"><ele>91.66</ele><time>2026-04-20T18:35:36.075Z</time><hdop>11.125</hdop><vdop>5.125</vdop><extensions><gom:speed>0.0</gom:speed></extensions></trkpt>
   <trkpt lat="59.0637245469" lon="30.0286565744"><ele>91.389</ele><time>2026-04-20T18:35:37.075Z</time><hdop>11.25</hdop><vdop>5.125</vdop><extensions><gom:speed>0.0</gom:speed></extensions></trkpt>
   <trkpt lat="59.063725427" lon="30.0286559038"><ele>91.41</ele><time>2026-04-20T18:35:38.075Z</time><hdop>11.375</hdop><vdop>5.25</vdop><extensions><gom:speed>0.0</gom:speed></extensions></trkpt>
   <trkpt lat="59.0637272291" lon="30.0286529702"><ele>91.564</ele><time>2026-04-20T18:35:39.075Z</time><hdop>11.375</hdop><vdop>5.25</vdop><extensions><gom:speed>0.0</gom:speed></extensions></trkpt>
   <trkpt lat="59.0637310429" lon="30.0286494498"><ele>91.762</ele><time>2026-04-20T18:35:40.075Z</time><hdop>11.375</hdop><vdop>5.25</vdop><extensions><gom:speed>0.0</gom:speed></extensions></trkpt>
   <trkpt lat="59.0637387542" lon="30.0286484439"><ele>92.086</ele><time>2026-04-20T18:35:41.075Z</time><hdop>11.375</hdop><vdop>5.25</vdop><extensions><gom:speed>0.0</gom:speed></extensions></trkpt>
   <trkpt lat="59.0637434481" lon="30.0286453426"><ele>92.158</ele><time>2026-04-20T18:35:42.075Z</time><hdop>11.5</hdop><vdop>5.375</vdop><extensions><gom:speed>0.0</gom:speed></extensions></trkpt>
   <trkpt lat="59.0637463398" lon="30.0286434148"><ele>92.123</ele><time>2026-04-20T18:35:43.075Z</time><hdop>11.625</hdop><vdop>5.375</vdop><extensions><gom:speed>0.0</gom:speed></extensions></trkpt>
   <trkpt lat="59.063750447" lon="30.0286409002"><ele>92.225</ele><time>2026-04-20T18:35:44.076Z</time><hdop>11.75</hdop><vdop>5.375</vdop><extensions><gom:speed>0.0</gom:speed></extensions></trkpt>
   <trkpt lat="59.0637520395" lon="30.0286422413"><ele>92.279</ele><time>2026-04-20T18:35:45.075Z</time><hdop>12.0</hdop><vdop>5.375</vdop><extensions><gom:speed>0.0</gom:speed></extensions></trkpt>
   <trkpt lat="59.0637528358" lon="30.0286471867"><ele>92.368</ele><time>2026-04-20T18:35:46.075Z</time><hdop>12.375</hdop><vdop>5.25</vdop><extensions><gom:speed>0.0</gom:speed></extensions></trkpt>
   <trkpt lat="59.063754135" lon="30.0286525511"><ele>92.517</ele><time>2026-04-20T18:35:47.075Z</time><hdop>12.625</hdop><vdop>5.0</vdop><extensions><gom:speed>0.0</gom:speed></extensions></trkpt>
   <trkpt lat="59.0637551408" lon="30.0286605139"><ele>92.648</ele><time>2026-04-20T18:35:48.075Z</time><hdop>12.625</hdop><vdop>4.75</vdop><extensions><gom:speed>0.0</gom:speed></extensions></trkpt>
   <trkpt lat="59.0637591222" lon="30.0286714942"><ele>92.697</ele><time>2026-04-20T18:35:49.076Z</time><hdop>12.375</hdop><vdop>4.25</vdop><extensions><gom:speed>0.0</gom:speed></extensions></trkpt>
   <trkpt lat="59.063765241" lon="30.0286783673"><ele>93.477</ele><time>2026-04-20T18:35:50.075Z</time><hdop>12.125</hdop><vdop>4.5</vdop><extensions><gom:speed>0.0</gom:speed></extensions></trkpt>
   <trkpt lat="59.0637676299" lon="30.0286797084"><ele>93.852</ele><time>2026-04-20T18:35:51.075Z</time><hdop>11.625</hdop><vdop>4.375</vdop><extensions><gom:speed>0.0</gom:speed></extensions></trkpt>
   <trkpt lat="59.0637706474" lon="30.0286802952"><ele>94.233</ele><time>2026-04-20T18:35:52.075Z</time><hdop>11.125</hdop><vdop>4.125</vdop><extensions><gom:speed>0.0</gom:speed></extensions></trkpt>
   <trkpt lat="59.0637736229" lon="30.0286805466"><ele>94.575</ele><time>2026-04-20T18:35:53.075Z</time><hdop>10.625</hdop><vdop>4.125</vdop><extensions><gom:speed>0.0</gom:speed></extensions></trkpt>
   <trkpt lat="59.0637771433" lon="30.0286805466"><ele>95.004</ele><time>2026-04-20T18:35:54.075Z</time><hdop>10.25</hdop><vdop>4.125</vdop><extensions><gom:speed>0.0</gom:speed></extensions></trkpt>
   <trkpt lat="59.0637801189" lon="30.0286807143"><ele>95.385</ele><time>2026-04-20T18:35:55.075Z</time><hdop>10.125</hdop><vdop>4.125</vdop><extensions><gom:speed>0.0</gom:speed></extensions></trkpt>
   <trkpt lat="59.0637808314" lon="30.0286802952"><ele>95.566</ele><time>2026-04-20T18:35:56.076Z</time><hdop>10.125</hdop><vdop>4.125</vdop><extensions><gom:speed>0.0</gom:speed></extensions></trkpt>
   <trkpt lat="59.0637817534" lon="30.0286804628"><ele>95.742</ele><time>2026-04-20T18:35:57.075Z</time><hdop>10.0</hdop><vdop>4.125</vdop><extensions><gom:speed>0.0</gom:speed></extensions></trkpt>
   <trkpt lat="59.0637829268" lon="30.0286816363"><ele>95.954</ele><time>2026-04-20T18:35:58.075Z</time><hdop>10.0</hdop><vdop>4.0</vdop><extensions><gom:speed>0.0</gom:speed></extensions></trkpt>
   <trkpt lat="59.0637841422" lon="30.0286828097"><ele>96.145</ele><time>2026-04-20T18:35:59.075Z</time><hdop>10.0</hdop><vdop>3.875</vdop><extensions><gom:speed>0.0</gom:speed></extensions></trkpt>
   <trkpt lat="59.063784729" lon="30.0286838156"><ele>96.282</ele><time>2026-04-20T18:36:00.075Z</time><hdop>10.0</hdop><vdop>3.625</vdop><extensions><gom:speed>0.0</gom:speed></extensions></trkpt>
   <trkpt lat="59.0637851481" lon="30.0286845699"><ele>96.398</ele><time>2026-04-20T18:36:01.076Z</time><hdop>9.875</hdop><vdop>3.625</vdop><extensions><gom:speed>0.0</gom:speed></extensions></trkpt>
   <trkpt lat="59.0637854414" lon="30.0286852405"><ele>96.477</ele><time>2026-04-20T18:36:02.075Z</time><hdop>9.875</hdop><vdop>3.5</vdop><extensions><gom:speed>0.0</gom:speed></extensions></trkpt>
   <trkpt lat="59.0637860282" lon="30.0286862463"><ele>96.607</ele><time>2026-04-20T18:36:03.076Z</time><hdop>9.875</hdop><vdop>3.25</vdop><extensions><gom:speed>0.0</gom:speed></extensions></trkpt>
   <trkpt lat="59.0637855252" lon="30.0286838156"><ele>96.71</ele><time>2026-04-20T18:36:04.075Z</time><hdop>9.875</hdop><vdop>2.875</vdop><extensions><gom:speed>0.148</gom:speed></extensions></trkpt>
   <trkpt lat="59.0637897162" lon="30.0286802952"><ele>96.545</ele><time>2026-04-20T18:36:05.075Z</time><hdop>9.875</hdop><vdop>3.125</vdop><extensions><gom:speed>0.0</gom:speed></extensions></trkpt>
   <trkpt lat="59.0637945358" lon="30.028679457"><ele>96.328</ele><time>2026-04-20T18:36:06.075Z</time><hdop>9.875</hdop><vdop>3.0</vdop><extensions><gom:speed>0.0</gom:speed></extensions></trkpt>
   <trkpt lat="59.0637984334" lon="30.0286781997"><ele>96.361</ele><time>2026-04-20T18:36:07.075Z</time><hdop>9.875</hdop><vdop>3.0</vdop><extensions><gom:speed>0.0</gom:speed></extensions></trkpt>
   <trkpt lat="59.0638021214" lon="30.0286762719"><ele>96.59</ele><time>2026-04-20T18:36:08.075Z</time><hdop>9.875</hdop><vdop>3.0</vdop><extensions><gom:speed>0.0</gom:speed></extensions></trkpt>
   <trkpt lat="59.0638052227" lon="30.028674344"><ele>96.556</ele><time>2026-04-20T18:36:09.075Z</time><hdop>9.875</hdop><vdop>3.125</vdop><extensions><gom:speed>0.0</gom:speed></extensions></trkpt>
   <trkpt lat="59.0638076535" lon="30.0286720809"><ele>96.484</ele><time>2026-04-20T18:36:10.075Z</time><hdop>9.875</hdop><vdop>3.125</vdop><extensions><gom:speed>0.0</gom:speed></extensions></trkpt>
   <trkpt lat="59.0638100423" lon="30.0286707398"><ele>96.43</ele><time>2026-04-20T18:36:11.075Z</time><hdop>9.875</hdop><vdop>3.125</vdop><extensions><gom:speed>0.0</gom:speed></extensions></trkpt>
   <trkpt lat="59.0638131436" lon="30.0286688958"><ele>96.51</ele><time>2026-04-20T18:36:12.076Z</time><hdop>9.875</hdop><vdop>3.125</vdop><extensions><gom:speed>0.0</gom:speed></extensions></trkpt>
   <trkpt lat="59.0638154486" lon="30.0286666327"><ele>96.652</ele><time>2026-04-20T18:36:13.075Z</time><hdop>9.875</hdop><vdop>3.0</vdop><extensions><gom:speed>0.0</gom:speed></extensions></trkpt>
   <trkpt lat="59.0638175441" lon="30.0286662974"><ele>96.978</ele><time>2026-04-20T18:36:14.075Z</time><hdop>9.875</hdop><vdop>3.0</vdop><extensions><gom:speed>0.0</gom:speed></extensions></trkpt>
   <trkpt lat="59.0638191367" lon="30.028667387"><ele>97.316</ele><time>2026-04-20T18:36:15.075Z</time><hdop>9.875</hdop><vdop>2.875</vdop><extensions><gom:speed>0.0</gom:speed></extensions></trkpt>
   <trkpt lat="59.0638204359" lon="30.0286683929"><ele>97.613</ele><time>2026-04-20T18:36:16.075Z</time><hdop>9.875</hdop><vdop>2.75</vdop><extensions><gom:speed>0.0</gom:speed></extensions></trkpt>
   <trkpt lat="59.0638216512" lon="30.0286693149"><ele>97.899</ele><time>2026-04-20T18:36:17.075Z</time><hdop>9.875</hdop><vdop>2.75</vdop><extensions><gom:speed>0.0</gom:speed></extensions></trkpt>
   <trkpt lat="59.0638225313" lon="30.0286700693"><ele>98.1</ele><time>2026-04-20T18:36:18.075Z</time><hdop>9.875</hdop><vdop>2.625</vdop><extensions><gom:speed>0.0</gom:speed></extensions></trkpt>
   <trkpt lat="59.0638232438" lon="30.0286707398"><ele>98.269</ele><time>2026-04-20T18:36:19.075Z</time><hdop>9.875</hdop><vdop>2.625</vdop><extensions><gom:speed>0.0</gom:speed></extensions></trkpt>
   <trkpt lat="59.0638239563" lon="30.0286716618"><ele>98.422</ele><time>2026-04-20T18:36:20.075Z</time><hdop>9.875</hdop><vdop>2.5</vdop><extensions><gom:speed>0.0</gom:speed></extensions></trkpt>
   <trkpt lat="59.0638246268" lon="30.0286723324"><ele>98.559</ele><time>2026-04-20T18:36:21.075Z</time><hdop>9.875</hdop><vdop>2.5</vdop><extensions><gom:speed>0.0</gom:speed></extensions></trkpt>
   <trkpt lat="59.0638252555" lon="30.0286730867"><ele>98.691</ele><time>2026-04-20T18:36:22.075Z</time><hdop>9.875</hdop><vdop>2.5</vdop><extensions><gom:speed>0.0</gom:speed></extensions></trkpt>
   <trkpt lat="59.0638257165" lon="30.0286737573"><ele>98.814</ele><time>2026-04-20T18:36:23.075Z</time><hdop>9.875</hdop><vdop>2.5</vdop><extensions><gom:speed>0.0</gom:speed></extensions></trkpt>
   <trkpt lat="59.0638262194" lon="30.0286742602"><ele>98.93</ele><time>2026-04-20T18:36:24.075Z</time><hdop>9.875</hdop><vdop>2.5</vdop><extensions><gom:speed>0.0</gom:speed></extensions></trkpt>
   <trkpt lat="59.063826848" lon="30.0286747631"><ele>99.052</ele><time>2026-04-20T18:36:25.075Z</time><hdop>9.875</hdop><vdop>2.5</vdop><extensions><gom:speed>0.0</gom:speed></extensions></trkpt>
   <trkpt lat="59.0638271414" lon="30.0286751822"><ele>99.139</ele><time>2026-04-20T18:36:26.075Z</time><hdop>9.875</hdop><vdop>2.5</vdop><extensions><gom:speed>0.0</gom:speed></extensions></trkpt>
   <trkpt lat="59.0638273509" lon="30.0286753499"><ele>99.197</ele><time>2026-04-20T18:36:27.075Z</time><hdop>9.875</hdop><vdop>2.5</vdop><extensions><gom:speed>0.0</gom:speed></extensions></trkpt>
   <trkpt lat="59.0638275186" lon="30.0286754337"><ele>99.24</ele><time>2026-04-20T18:36:28.076Z</time><hdop>9.875</hdop><vdop>2.5</vdop><extensions><gom:speed>0.0</gom:speed></extensions></trkpt>
   <trkpt lat="59.0638275186" lon="30.0286756013"><ele>99.271</ele><time>2026-04-20T18:36:29.075Z</time><hdop>9.875</hdop><vdop>2.5</vdop><extensions><gom:speed>0.0</gom:speed></extensions></trkpt>
   <trkpt lat="59.0638276443" lon="30.0286756851"><ele>99.291</ele><time>2026-04-20T18:36:30.075Z</time><hdop>9.875</hdop><vdop>2.5</vdop><extensions><gom:speed>0.0</gom:speed></extensions></trkpt>
   <trkpt lat="59.0638276443" lon="30.0286757689"><ele>99.305</ele><time>2026-04-20T18:36:31.075Z</time><hdop>9.875</hdop><vdop>2.5</vdop><extensions><gom:speed>0.0</gom:speed></extensions></trkpt>
   <trkpt lat="59.0638278538" lon="30.0286756851"><ele>99.317</ele><time>2026-04-20T18:36:32.075Z</time><hdop>9.875</hdop><vdop>2.5</vdop><extensions><gom:speed>0.0</gom:speed></extensions></trkpt>
   <trkpt lat="59.0638280215" lon="30.0286756851"><ele>99.331</ele><time>2026-04-20T18:36:33.076Z</time><hdop>9.875</hdop><vdop>2.5</vdop><extensions><gom:speed>0.0</gom:speed></extensions></trkpt>
   <trkpt lat="59.0638281472" lon="30.0286756851"><ele>99.34</ele><time>2026-04-20T18:36:34.075Z</time><hdop>9.875</hdop><vdop>2.5</vdop><extensions><gom:speed>0.0</gom:speed></extensions></trkpt>
   <trkpt lat="59.063828231" lon="30.0286756851"><ele>99.346</ele><time>2026-04-20T18:36:35.075Z</time><hdop>9.875</hdop><vdop>2.5</vdop><extensions><gom:speed>0.0</gom:speed></extensions></trkpt>
   <trkpt lat="59.0638281472" lon="30.0286756851"><ele>99.342</ele><time>2026-04-20T18:36:36.075Z</time><hdop>9.875</hdop><vdop>2.5</vdop><extensions><gom:speed>0.0</gom:speed></extensions></trkpt>
   <trkpt lat="59.0638280215" lon="30.0286757689"><ele>99.339</ele><time>2026-04-20T18:36:37.075Z</time><hdop>9.875</hdop><vdop>2.5</vdop><extensions><gom:speed>0.0</gom:speed></extensions></trkpt>
   <trkpt lat="59.0638280215" lon="30.0286757689"><ele>99.339</ele><time>2026-04-20T18:36:38.075Z</time><hdop>9.875</hdop><vdop>2.5</vdop><extensions><gom:speed>0.0</gom:speed></extensions></trkpt>
   <trkpt lat="59.0638280215" lon="30.0286757689"><ele>99.342</ele><time>2026-04-20T18:36:39.075Z</time><hdop>9.875</hdop><vdop>2.5</vdop><extensions><gom:speed>0.0</gom:speed></extensions></trkpt>
   <trkpt lat="59.0638280215" lon="30.0286758528"><ele>99.344</ele><time>2026-04-20T18:36:40.075Z</time><hdop>9.875</hdop><vdop>2.5</vdop><extensions><gom:speed>0.0</gom:speed></extensions></trkpt>
   <trkpt lat="59.0638280215" lon="30.0286758528"><ele>99.348</ele><time>2026-04-20T18:36:41.075Z</time><hdop>9.875</hdop><vdop>2.5</vdop><extensions><gom:speed>0.0</gom:speed></extensions></trkpt>
   <trkpt lat="59.0638280215" lon="30.0286759366"><ele>99.353</ele><time>2026-04-20T18:36:42.075Z</time><hdop>9.875</hdop><vdop>2.5</vdop><extensions><gom:speed>0.0</gom:speed></extensions></trkpt>
   <trkpt lat="59.0638280215" lon="30.0286759366"><ele>99.358</ele><time>2026-04-20T18:36:43.075Z</time><hdop>9.875</hdop><vdop>2.5</vdop><extensions><gom:speed>0.0</gom:speed></extensions></trkpt>
   <trkpt lat="59.0638280215" lon="30.0286761042"><ele>99.36</ele><time>2026-04-20T18:36:44.075Z</time><hdop>9.875</hdop><vdop>2.625</vdop><extensions><gom:speed>0.0</gom:speed></extensions></trkpt>
   <trkpt lat="59.0638279377" lon="30.0286761042"><ele>99.36</ele><time>2026-04-20T18:36:45.075Z</time><hdop>9.875</hdop><vdop>2.625</vdop><extensions><gom:speed>0.0</gom:speed></extensions></trkpt>
   <trkpt lat="59.0638279377" lon="30.028676188"><ele>99.36</ele><time>2026-04-20T18:36:46.076Z</time><hdop>9.875</hdop><vdop>2.5</vdop><extensions><gom:speed>0.0</gom:speed></extensions></trkpt>
   <trkpt lat="59.0638279377" lon="30.028676188"><ele>99.358</ele><time>2026-04-20T18:36:47.075Z</time><hdop>9.875</hdop><vdop>2.5</vdop><extensions><gom:speed>0.0</gom:speed></extensions></trkpt>
   <trkpt lat="59.0638280215" lon="30.0286762719"><ele>99.362</ele><time>2026-04-20T18:36:48.075Z</time><hdop>9.875</hdop><vdop>2.5</vdop><extensions><gom:speed>0.0</gom:speed></extensions></trkpt>
   <trkpt lat="59.0638280215" lon="30.0286762719"><ele>99.363</ele><time>2026-04-20T18:36:49.076Z</time><hdop>9.875</hdop><vdop>2.5</vdop><extensions><gom:speed>0.0</gom:speed></extensions></trkpt>
   <trkpt lat="59.0638280215" lon="30.0286763557"><ele>99.362</ele><time>2026-04-20T18:36:50.075Z</time><hdop>9.875</hdop><vdop>2.5</vdop><extensions><gom:speed>0.0</gom:speed></extensions></trkpt>
   <trkpt lat="59.0638280215" lon="30.0286763557"><ele>99.361</ele><time>2026-04-20T18:36:50.622Z</time><hdop>13.5</hdop><vdop>2.5</vdop></trkpt>
   <trkpt lat="59.0638280215" lon="30.0286763557"><ele>99.359</ele><time>2026-04-20T18:36:51.075Z</time><hdop>13.0</hdop><vdop>2.5</vdop><extensions><gom:speed>0.0</gom:speed></extensions></trkpt>
   <trkpt lat="59.0638280215" lon="30.0286764395"><ele>99.356</ele><time>2026-04-20T18:36:52.075Z</time><hdop>13.0</hdop><vdop>2.625</vdop><extensions><gom:speed>0.0</gom:speed></extensions></trkpt>
   <trkpt lat="59.0638280215" lon="30.0286764395"><ele>99.353</ele><time>2026-04-20T18:36:53.075Z</time><hdop>13.0</hdop><vdop>2.625</vdop><extensions><gom:speed>0.0</gom:speed></extensions></trkpt>
   <trkpt lat="59.0638279377" lon="30.0286766071"><ele>99.351</ele><time>2026-04-20T18:36:54.075Z</time><hdop>13.0</hdop><vdop>2.625</vdop><extensions><gom:speed>0.0</gom:speed></extensions></trkpt>
   <trkpt lat="59.0638279377" lon="30.0286766071"><ele>99.348</ele><time>2026-04-20T18:36:55.075Z</time><hdop>13.0</hdop><vdop>2.75</vdop><extensions><gom:speed>0.0</gom:speed></extensions></trkpt>
   <trkpt lat="59.0638279377" lon="30.0286766071"><ele>99.346</ele><time>2026-04-20T18:36:56.075Z</time><hdop>9.875</hdop><vdop>2.875</vdop><extensions><gom:speed>0.0</gom:speed></extensions></trkpt>
   <trkpt lat="59.0638279377" lon="30.028676691"><ele>99.345</ele><time>2026-04-20T18:36:57.075Z</time><hdop>9.875</hdop><vdop>2.875</vdop><extensions><gom:speed>0.0</gom:speed></extensions></trkpt>
   <trkpt lat="59.0638279377" lon="30.028676691"><ele>99.342</ele><time>2026-04-20T18:36:58.076Z</time><hdop>9.875</hdop><vdop>3.125</vdop><extensions><gom:speed>0.0</gom:speed></extensions></trkpt>
   <trkpt lat="59.0638278538" lon="30.028676691"><ele>99.34</ele><time>2026-04-20T18:36:59.075Z</time><hdop>9.875</hdop><vdop>3.25</vdop><extensions><gom:speed>0.0</gom:speed></extensions></trkpt>
   <trkpt lat="59.0638278538" lon="30.028676691"><ele>99.337</ele><time>2026-04-20T18:37:00.075Z</time><hdop>9.875</hdop><vdop>3.25</vdop><extensions><gom:speed>0.0</gom:speed></extensions></trkpt>
   <trkpt lat="59.0638278538" lon="30.0286767748"><ele>99.333</ele><time>2026-04-20T18:37:01.076Z</time><hdop>9.875</hdop><vdop>3.25</vdop><extensions><gom:speed>0.0</gom:speed></extensions></trkpt>
   <trkpt lat="59.0638278538" lon="30.0286767748"><ele>99.33</ele><time>2026-04-20T18:37:02.075Z</time><hdop>9.875</hdop><vdop>3.375</vdop><extensions><gom:speed>0.0</gom:speed></extensions></trkpt>
   <trkpt lat="59.0638278538" lon="30.0286767748"><ele>99.326</ele><time>2026-04-20T18:37:03.075Z</time><hdop>9.875</hdop><vdop>3.25</vdop><extensions><gom:speed>0.0</gom:speed></extensions></trkpt>
   <trkpt lat="59.0638278538" lon="30.0286767748"><ele>99.323</ele><time>2026-04-20T18:37:04.075Z</time><hdop>9.875</hdop><vdop>3.25</vdop><extensions><gom:speed>0.0</gom:speed></extensions></trkpt>
   <trkpt lat="59.0638277281" lon="30.0286767748"><ele>99.321</ele><time>2026-04-20T18:37:05.075Z</time><hdop>9.875</hdop><vdop>3.25</vdop><extensions><gom:speed>0.0</gom:speed></extensions></trkpt>
   <trkpt lat="59.0638277281" lon="30.0286767748"><ele>99.32</ele><time>2026-04-20T18:37:06.075Z</time><hdop>9.875</hdop><vdop>3.25</vdop><extensions><gom:speed>0.0</gom:speed></extensions></trkpt>
   <trkpt lat="59.0638277281" lon="30.0286768586"><ele>99.318</ele><time>2026-04-20T18:37:07.075Z</time><hdop>9.875</hdop><vdop>3.25</vdop><extensions><gom:speed>0.0</gom:speed></extensions></trkpt>
   <trkpt lat="59.0638277281" lon="30.0286768586"><ele>99.316</ele><time>2026-04-20T18:37:08.075Z</time><hdop>9.875</hdop><vdop>3.25</vdop><extensions><gom:speed>0.0</gom:speed></extensions></trkpt>
   <trkpt lat="59.0638279377" lon="30.0286771101"><ele>99.364</ele><time>2026-04-20T18:37:09.075Z</time><hdop>9.875</hdop><vdop>3.25</vdop><extensions><gom:speed>0.0</gom:speed></extensions></trkpt>
   <trkpt lat="59.0638284406" lon="30.0286774453"><ele>99.453</ele><time>2026-04-20T18:37:10.075Z</time><hdop>9.875</hdop><vdop>3.125</vdop><extensions><gom:speed>0.0</gom:speed></extensions></trkpt>
   <trkpt lat="59.0638287339" lon="30.0286776968"><ele>99.51</ele><time>2026-04-20T18:37:11.075Z</time><hdop>9.875</hdop><vdop>2.875</vdop><extensions><gom:speed>0.0</gom:speed></extensions></trkpt>
   <trkpt lat="59.0638288178" lon="30.0286778644"><ele>99.544</ele><time>2026-04-20T18:37:12.075Z</time><hdop>9.875</hdop><vdop>2.875</vdop><extensions><gom:speed>0.0</gom:speed></extensions></trkpt>
   <trkpt lat="59.0638288178" lon="30.0286778644"><ele>99.566</ele><time>2026-04-20T18:37:13.075Z</time><hdop>9.875</hdop><vdop>2.875</vdop><extensions><gom:speed>0.0</gom:speed></extensions></trkpt>
   <trkpt lat="59.0638289435" lon="30.0286779482"><ele>99.581</ele><time>2026-04-20T18:37:14.075Z</time><hdop>9.875</hdop><vdop>2.875</vdop><extensions><gom:speed>0.0</gom:speed></extensions></trkpt>
   <trkpt lat="59.0638289435" lon="30.0286779482"><ele>99.59</ele><time>2026-04-20T18:37:15.075Z</time><hdop>9.875</hdop><vdop>3.0</vdop><extensions><gom:speed>0.0</gom:speed></extensions></trkpt>
   <trkpt lat="59.0638288178" lon="30.0286779482"><ele>99.596</ele><time>2026-04-20T18:37:16.076Z</time><hdop>9.875</hdop><vdop>3.0</vdop><extensions><gom:speed>0.0</gom:speed></extensions></trkpt>
   <trkpt lat="59.0638288178" lon="30.0286779482"><ele>99.598</ele><time>2026-04-20T18:37:17.075Z</time><hdop>9.875</hdop><vdop>2.875</vdop><extensions><gom:speed>0.0</gom:speed></extensions></trkpt>
   <trkpt lat="59.0638288178" lon="30.0286779482"><ele>99.601</ele><time>2026-04-20T18:37:18.075Z</time><hdop>9.875</hdop><vdop>2.875</vdop><extensions><gom:speed>0.0</gom:speed></extensions></trkpt>
   <trkpt lat="59.0638288178" lon="30.0286779482"><ele>99.605</ele><time>2026-04-20T18:37:19.075Z</time><hdop>9.875</hdop><vdop>2.875</vdop><extensions><gom:speed>0.0</gom:speed></extensions></trkpt>
   <trkpt lat="59.0638288178" lon="30.0286779482"><ele>99.606</ele><time>2026-04-20T18:37:20.075Z</time><hdop>9.875</hdop><vdop>2.875</vdop><extensions><gom:speed>0.0</gom:speed></extensions></trkpt>
   <trkpt lat="59.0638288178" lon="30.0286779482"><ele>99.606</ele><time>2026-04-20T18:37:21.075Z</time><hdop>9.875</hdop><vdop>2.875</vdop><extensions><gom:speed>0.0</gom:speed></extensions></trkpt>
   <trkpt lat="59.0638288178" lon="30.0286779482"><ele>99.609</ele><time>2026-04-20T18:37:22.075Z</time><hdop>9.875</hdop><vdop>2.75</vdop><extensions><gom:speed>0.0</gom:speed></extensions></trkpt>
   <trkpt lat="59.0638288178" lon="30.0286779482"><ele>99.61</ele><time>2026-04-20T18:37:23.076Z</time><hdop>9.875</hdop><vdop>2.875</vdop><extensions><gom:speed>0.0</gom:speed></extensions></trkpt>
   <trkpt lat="59.0638288178" lon="30.0286779482"><ele>99.611</ele><time>2026-04-20T18:37:24.076Z</time><hdop>9.875</hdop><vdop>2.75</vdop><extensions><gom:speed>0.0</gom:speed></extensions></trkpt>
   <trkpt lat="59.0638290273" lon="30.0286781159"><ele>99.657</ele><time>2026-04-20T18:37:25.075Z</time><hdop>9.875</hdop><vdop>2.75</vdop><extensions><gom:speed>0.0</gom:speed></extensions></trkpt>
   <trkpt lat="59.0638292369" lon="30.0286782835"><ele>99.686</ele><time>2026-04-20T18:37:26.075Z</time><hdop>9.875</hdop><vdop>2.75</vdop><extensions><gom:speed>0.0</gom:speed></extensions></trkpt>
   <trkpt lat="59.0638294464" lon="30.0286784512"><ele>99.737</ele><time>2026-04-20T18:37:27.075Z</time><hdop>9.875</hdop><vdop>2.875</vdop><extensions><gom:speed>0.0</gom:speed></extensions></trkpt>
   <trkpt lat="59.063829656" lon="30.028678535"><ele>99.776</ele><time>2026-04-20T18:37:28.076Z</time><hdop>9.875</hdop><vdop>2.875</vdop><extensions><gom:speed>0.0</gom:speed></extensions></trkpt>
   <trkpt lat="59.0638297398" lon="30.0286787026"><ele>99.8</ele><time>2026-04-20T18:37:29.076Z</time><hdop>9.875</hdop><vdop>3.0</vdop><extensions><gom:speed>0.0</gom:speed></extensions></trkpt>
   <trkpt lat="59.0638298236" lon="30.0286787026"><ele>99.816</ele><time>2026-04-20T18:37:30.075Z</time><hdop>9.875</hdop><vdop>3.0</vdop><extensions><gom:speed>0.0</gom:speed></extensions></trkpt>
   <trkpt lat="59.0638298236" lon="30.0286787864"><ele>99.826</ele><time>2026-04-20T18:37:31.075Z</time><hdop>9.875</hdop><vdop>3.0</vdop><extensions><gom:speed>0.0</gom:speed></extensions></trkpt>
   <trkpt lat="59.0638298236" lon="30.0286787864"><ele>99.834</ele><time>2026-04-20T18:37:32.075Z</time><hdop>9.875</hdop><vdop>3.125</vdop><extensions><gom:speed>0.0</gom:speed></extensions></trkpt>
   <trkpt lat="59.0638299493" lon="30.0286787864"><ele>99.84</ele><time>2026-04-20T18:37:33.076Z</time><hdop>9.875</hdop><vdop>3.125</vdop><extensions><gom:speed>0.0</gom:speed></extensions></trkpt>
   <trkpt lat="59.0638298236" lon="30.0286787864"><ele>99.845</ele><time>2026-04-20T18:37:34.075Z</time><hdop>9.875</hdop><vdop>3.125</vdop><extensions><gom:speed>0.0</gom:speed></extensions></trkpt>
   <trkpt lat="59.0638298236" lon="30.0286787864"><ele>99.848</ele><time>2026-04-20T18:37:35.075Z</time><hdop>9.875</hdop><vdop>3.125</vdop><extensions><gom:speed>0.0</gom:speed></extensions></trkpt>
   <trkpt lat="59.0638300331" lon="30.0286788703"><ele>99.873</ele><time>2026-04-20T18:37:36.075Z</time><hdop>9.875</hdop><vdop>3.25</vdop><extensions><gom:speed>0.0</gom:speed></extensions></trkpt>
   <trkpt lat="59.0638302427" lon="30.0286789541"><ele>99.909</ele><time>2026-04-20T18:37:37.075Z</time><hdop>9.875</hdop><vdop>3.25</vdop><extensions><gom:speed>0.0</gom:speed></extensions></trkpt>
   <trkpt lat="59.0638304522" lon="30.0286790379"><ele>99.939</ele><time>2026-04-20T18:37:38.075Z</time><hdop>9.875</hdop><vdop>3.25</vdop><extensions><gom:speed>0.0</gom:speed></extensions></trkpt>
   <trkpt lat="59.0638305361" lon="30.0286792055"><ele>99.961</ele><time>2026-04-20T18:37:39.075Z</time><hdop>9.875</hdop><vdop>3.375</vdop><extensions><gom:speed>0.0</gom:speed></extensions></trkpt>
   <trkpt lat="59.0638306199" lon="30.0286792055"><ele>99.977</ele><time>2026-04-20T18:37:40.075Z</time><hdop>9.875</hdop><vdop>3.375</vdop><extensions><gom:speed>0.0</gom:speed></extensions></trkpt>
   <trkpt lat="59.0638306199" lon="30.0286792055"><ele>99.987</ele><time>2026-04-20T18:37:41.076Z</time><hdop>9.875</hdop><vdop>3.25</vdop><extensions><gom:speed>0.0</gom:speed></extensions></trkpt>
   <trkpt lat="59.0638307456" lon="30.0286792893"><ele>99.994</ele><time>2026-04-20T18:37:42.076Z</time><hdop>9.875</hdop><vdop>3.25</vdop><extensions><gom:speed>0.0</gom:speed></extensions></trkpt>
   <trkpt lat="59.0638307456" lon="30.0286792893"><ele>99.997</ele><time>2026-04-20T18:37:43.075Z</time><hdop>9.875</hdop><vdop>3.375</vdop><extensions><gom:speed>0.0</gom:speed></extensions></trkpt>
   <trkpt lat="59.0638307456" lon="30.0286792893"><ele>100.001</ele><time>2026-04-20T18:37:44.075Z</time><hdop>9.875</hdop><vdop>3.25</vdop><extensions><gom:speed>0.0</gom:speed></extensions></trkpt>
   <trkpt lat="59.0638307456" lon="30.0286792893"><ele>100.003</ele><time>2026-04-20T18:37:45.076Z</time><hdop>9.875</hdop><vdop>3.25</vdop><extensions><gom:speed>0.0</gom:speed></extensions></trkpt>
   <trkpt lat="59.0638307456" lon="30.0286792893"><ele>100.009</ele><time>2026-04-20T18:37:46.076Z</time><hdop>9.875</hdop><vdop>3.25</vdop><extensions><gom:speed>0.0</gom:speed></extensions></trkpt>
   <trkpt lat="59.0638307456" lon="30.0286792893"><ele>100.013</ele><time>2026-04-20T18:37:47.075Z</time><hdop>9.875</hdop><vdop>3.125</vdop><extensions><gom:speed>0.0</gom:speed></extensions></trkpt>
   <trkpt lat="59.0638307456" lon="30.0286792893"><ele>100.015</ele><time>2026-04-20T18:37:48.075Z</time><hdop>9.875</hdop><vdop>3.125</vdop><extensions><gom:speed>0.0</gom:speed></extensions></trkpt>
   <trkpt lat="59.0638307456" lon="30.0286793732"><ele>100.015</ele><time>2026-04-20T18:37:49.075Z</time><hdop>9.875</hdop><vdop>3.0</vdop><extensions><gom:speed>0.0</gom:speed></extensions></trkpt>
   <trkpt lat="59.0638307456" lon="30.0286793732"><ele>100.016</ele><time>2026-04-20T18:37:50.075Z</time><hdop>9.875</hdop><vdop>3.0</vdop><extensions><gom:speed>0.0</gom:speed></extensions></trkpt>
   <trkpt lat="59.0638307456" lon="30.0286793732"><ele>100.017</ele><time>2026-04-20T18:37:51.076Z</time><hdop>9.875</hdop><vdop>3.125</vdop><extensions><gom:speed>0.0</gom:speed></extensions></trkpt>
   <trkpt lat="59.0638307456" lon="30.0286793732"><ele>100.017</ele><time>2026-04-20T18:37:52.076Z</time><hdop>9.875</hdop><vdop>3.125</vdop><extensions><gom:speed>0.0</gom:speed></extensions></trkpt>
   <trkpt lat="59.0638307456" lon="30.0286793732"><ele>100.017</ele><time>2026-04-20T18:37:53.075Z</time><hdop>9.875</hdop><vdop>3.0</vdop><extensions><gom:speed>0.0</gom:speed></extensions></trkpt>
   <trkpt lat="59.0638307456" lon="30.0286793732"><ele>100.021</ele><time>2026-04-20T18:37:54.075Z</time><hdop>9.875</hdop><vdop>3.0</vdop><extensions><gom:speed>0.0</gom:speed></extensions></trkpt>
   <trkpt lat="59.0638307456" lon="30.028679457"><ele>100.03</ele><time>2026-04-20T18:37:55.075Z</time><hdop>9.875</hdop><vdop>2.875</vdop><extensions><gom:speed>0.0</gom:speed></extensions></trkpt>
   <trkpt lat="59.0638308294" lon="30.028679457"><ele>100.037</ele><time>2026-04-20T18:37:56.075Z</time><hdop>9.875</hdop><vdop>2.875</vdop><extensions><gom:speed>0.0</gom:speed></extensions></trkpt>
   <trkpt lat="59.0638308294" lon="30.0286795408"><ele>100.043</ele><time>2026-04-20T18:37:57.075Z</time><hdop>9.875</hdop><vdop>2.875</vdop><extensions><gom:speed>0.0</gom:speed></extensions></trkpt>
   <trkpt lat="59.0638308294" lon="30.0286795408"><ele>100.048</ele><time>2026-04-20T18:37:58.075Z</time><hdop>9.875</hdop><vdop>2.75</vdop><extensions><gom:speed>0.0</gom:speed></extensions></trkpt>
   <trkpt lat="59.0638308294" lon="30.0286797084"><ele>100.053</ele><time>2026-04-20T18:37:59.075Z</time><hdop>9.875</hdop><vdop>2.75</vdop><extensions><gom:speed>0.0</gom:speed></extensions></trkpt>
   <trkpt lat="59.0638309552" lon="30.0286797923"><ele>100.061</ele><time>2026-04-20T18:38:00.075Z</time><hdop>9.875</hdop><vdop>2.625</vdop><extensions><gom:speed>0.0</gom:speed></extensions></trkpt>
   <trkpt lat="59.0638309552" lon="30.0286797923"><ele>100.064</ele><time>2026-04-20T18:38:01.075Z</time><hdop>9.875</hdop><vdop>2.625</vdop><extensions><gom:speed>0.0</gom:speed></extensions></trkpt>
   <trkpt lat="59.0638309552" lon="30.0286798761"><ele>100.07</ele><time>2026-04-20T18:38:02.075Z</time><hdop>9.875</hdop><vdop>2.625</vdop><extensions><gom:speed>0.0</gom:speed></extensions></trkpt>
   <trkpt lat="59.0638309552" lon="30.0286798761"><ele>100.077</ele><time>2026-04-20T18:38:03.076Z</time><hdop>9.875</hdop><vdop>2.625</vdop><extensions><gom:speed>0.0</gom:speed></extensions></trkpt>
   <trkpt lat="59.063831039" lon="30.0286799599"><ele>100.081</ele><time>2026-04-20T18:38:04.075Z</time><hdop>9.875</hdop><vdop>2.625</vdop><extensions><gom:speed>0.0</gom:speed></extensions></trkpt>
   <trkpt lat="59.063831039" lon="30.0286799599"><ele>100.086</ele><time>2026-04-20T18:38:05.075Z</time><hdop>9.875</hdop><vdop>2.625</vdop><extensions><gom:speed>0.0</gom:speed></extensions></trkpt>
   <trkpt lat="59.063831039" lon="30.0286799599"><ele>100.087</ele><time>2026-04-20T18:38:06.075Z</time><hdop>9.875</hdop><vdop>2.5</vdop><extensions><gom:speed>0.0</gom:speed></extensions></trkpt>
   <trkpt lat="59.063831039" lon="30.0286800437"><ele>100.09</ele><time>2026-04-20T18:38:07.075Z</time><hdop>9.875</hdop><vdop>2.5</vdop><extensions><gom:speed>0.0</gom:speed></extensions></trkpt>
   <trkpt lat="59.063831039" lon="30.0286800437"><ele>100.09</ele><time>2026-04-20T18:38:08.075Z</time><hdop>9.875</hdop><vdop>2.5</vdop><extensions><gom:speed>0.0</gom:speed></extensions></trkpt>
   <trkpt lat="59.063831039" lon="30.0286802114"><ele>100.092</ele><time>2026-04-20T18:38:09.076Z</time><hdop>9.875</hdop><vdop>2.625</vdop><extensions><gom:speed>0.0</gom:speed></extensions></trkpt>
   <trkpt lat="59.063831039" lon="30.0286802114"><ele>100.096</ele><time>2026-04-20T18:38:10.076Z</time><hdop>9.875</hdop><vdop>2.625</vdop><extensions><gom:speed>0.0</gom:speed></extensions></trkpt>
   <trkpt lat="59.063831039" lon="30.0286802952"><ele>100.1</ele><time>2026-04-20T18:38:11.076Z</time><hdop>10.375</hdop><vdop>2.5</vdop><extensions><gom:speed>0.0</gom:speed></extensions></trkpt>
   <trkpt lat="59.063831039" lon="30.0286802952"><ele>100.101</ele><time>2026-04-20T18:38:12.075Z</time><hdop>10.375</hdop><vdop>2.5</vdop><extensions><gom:speed>0.0</gom:speed></extensions></trkpt>
   <trkpt lat="59.063831039" lon="30.0286802952"><ele>100.103</ele><time>2026-04-20T18:38:13.076Z</time><hdop>10.375</hdop><vdop>2.5</vdop><extensions><gom:speed>0.0</gom:speed></extensions></trkpt>
   <trkpt lat="59.063831039" lon="30.028680379"><ele>100.103</ele><time>2026-04-20T18:38:14.075Z</time><hdop>10.375</hdop><vdop>2.5</vdop><extensions><gom:speed>0.0</gom:speed></extensions></trkpt>
   <trkpt lat="59.063831039" lon="30.028680379"><ele>100.103</ele><time>2026-04-20T18:38:15.075Z</time><hdop>10.375</hdop><vdop>2.5</vdop><extensions><gom:speed>0.0</gom:speed></extensions></trkpt>
   <trkpt lat="59.0638309552" lon="30.028680379"><ele>100.102</ele><time>2026-04-20T18:38:16.075Z</time><hdop>9.875</hdop><vdop>2.5</vdop><extensions><gom:speed>0.0</gom:speed></extensions></trkpt>
   <trkpt lat="59.0638309552" lon="30.028680379"><ele>100.101</ele><time>2026-04-20T18:38:17.075Z</time><hdop>9.875</hdop><vdop>2.5</vdop><extensions><gom:speed>0.0</gom:speed></extensions></trkpt>
   <trkpt lat="59.0638309552" lon="30.028680379"><ele>100.099</ele><time>2026-04-20T18:38:18.075Z</time><hdop>9.875</hdop><vdop>2.5</vdop><extensions><gom:speed>0.0</gom:speed></extensions></trkpt>
   <trkpt lat="59.0638309552" lon="30.0286804628"><ele>100.097</ele><time>2026-04-20T18:38:19.075Z</time><hdop>9.875</hdop><vdop>2.5</vdop><extensions><gom:speed>0.0</gom:speed></extensions></trkpt>
   <trkpt lat="59.0638309552" lon="30.0286804628"><ele>100.096</ele><time>2026-04-20T18:38:20.075Z</time><hdop>9.875</hdop><vdop>2.5</vdop><extensions><gom:speed>0.0</gom:speed></extensions></trkpt>
   <trkpt lat="59.0638309552" lon="30.0286804628"><ele>100.095</ele><time>2026-04-20T18:38:21.075Z</time><hdop>9.875</hdop><vdop>2.5</vdop><extensions><gom:speed>0.0</gom:speed></extensions></trkpt>
   <trkpt lat="59.0638309552" lon="30.0286805466"><ele>100.093</ele><time>2026-04-20T18:38:22.075Z</time><hdop>9.875</hdop><vdop>2.5</vdop><extensions><gom:speed>0.0</gom:speed></extensions></trkpt>
   <trkpt lat="59.0638309552" lon="30.0286805466"><ele>100.092</ele><time>2026-04-20T18:38:23.076Z</time><hdop>9.875</hdop><vdop>2.5</vdop><extensions><gom:speed>0.0</gom:speed></extensions></trkpt>
   <trkpt lat="59.0638309552" lon="30.0286807143"><ele>100.092</ele><time>2026-04-20T18:38:24.075Z</time><hdop>9.875</hdop><vdop>2.5</vdop><extensions><gom:speed>0.0</gom:speed></extensions></trkpt>
   <trkpt lat="59.0638308294" lon="30.0286807143"><ele>100.092</ele><time>2026-04-20T18:38:25.075Z</time><hdop>9.875</hdop><vdop>2.5</vdop><extensions><gom:speed>0.0</gom:speed></extensions></trkpt>
   <trkpt lat="59.0638308294" lon="30.0286807143"><ele>100.092</ele><time>2026-04-20T18:38:26.075Z</time><hdop>9.875</hdop><vdop>2.5</vdop><extensions><gom:speed>0.0</gom:speed></extensions></trkpt>
   <trkpt lat="59.0638308294" lon="30.0286807981"><ele>100.091</ele><time>2026-04-20T18:38:27.076Z</time><hdop>9.875</hdop><vdop>2.5</vdop><extensions><gom:speed>0.0</gom:speed></extensions></trkpt>
   <trkpt lat="59.0638308294" lon="30.0286807981"><ele>100.09</ele><time>2026-04-20T18:38:28.075Z</time><hdop>9.875</hdop><vdop>2.5</vdop><extensions><gom:speed>0.0</gom:speed></extensions></trkpt>
   <trkpt lat="59.0638308294" lon="30.0286807981"><ele>100.092</ele><time>2026-04-20T18:38:29.075Z</time><hdop>9.875</hdop><vdop>2.5</vdop><extensions><gom:speed>0.0</gom:speed></extensions></trkpt>
   <trkpt lat="59.0638308294" lon="30.0286808819"><ele>100.094</ele><time>2026-04-20T18:38:30.075Z</time><hdop>9.875</hdop><vdop>2.5</vdop><extensions><gom:speed>0.0</gom:speed></extensions></trkpt>
   <trkpt lat="59.0638308294" lon="30.0286808819"><ele>100.095</ele><time>2026-04-20T18:38:31.075Z</time><hdop>9.875</hdop><vdop>2.625</vdop><extensions><gom:speed>0.0</gom:speed></extensions></trkpt>
   <trkpt lat="59.0638308294" lon="30.0286808819"><ele>100.095</ele><time>2026-04-20T18:38:32.075Z</time><hdop>9.875</hdop><vdop>2.75</vdop><extensions><gom:speed>0.0</gom:speed></extensions></trkpt>
   <trkpt lat="59.0638308294" lon="30.0286808819"><ele>100.095</ele><time>2026-04-20T18:38:33.075Z</time><hdop>9.875</hdop><vdop>2.875</vdop><extensions><gom:speed>0.0</gom:speed></extensions></trkpt>
   <trkpt lat="59.0638308294" lon="30.0286808819"><ele>100.094</ele><time>2026-04-20T18:38:34.075Z</time><hdop>9.875</hdop><vdop>2.875</vdop><extensions><gom:speed>0.0</gom:speed></extensions></trkpt>
   <trkpt lat="59.0638308294" lon="30.0286808819"><ele>100.094</ele><time>2026-04-20T18:38:35.075Z</time><hdop>9.875</hdop><vdop>2.875</vdop><extensions><gom:speed>0.0</gom:speed></extensions></trkpt>
   <trkpt lat="59.0638308294" lon="30.0286809657"><ele>100.094</ele><time>2026-04-20T18:38:36.075Z</time><hdop>9.875</hdop><vdop>3.0</vdop><extensions><gom:speed>0.0</gom:speed></extensions></trkpt>
   <trkpt lat="59.0638307456" lon="30.0286809657"><ele>100.092</ele><time>2026-04-20T18:38:37.075Z</time><hdop>9.875</hdop><vdop>3.0</vdop><extensions><gom:speed>0.0</gom:speed></extensions></trkpt>
   <trkpt lat="59.0638307456" lon="30.0286809657"><ele>100.092</ele><time>2026-04-20T18:38:38.076Z</time><hdop>9.875</hdop><vdop>2.875</vdop><extensions><gom:speed>0.0</gom:speed></extensions></trkpt>
   <trkpt lat="59.0638307456" lon="30.0286809657"><ele>100.091</ele><time>2026-04-20T18:38:39.076Z</time><hdop>9.875</hdop><vdop>2.875</vdop><extensions><gom:speed>0.0</gom:speed></extensions></trkpt>
   <trkpt lat="59.0638307456" lon="30.0286810495"><ele>100.091</ele><time>2026-04-20T18:38:40.075Z</time><hdop>9.875</hdop><vdop>3.125</vdop><extensions><gom:speed>0.0</gom:speed></extensions></trkpt>
   <trkpt lat="59.0638307456" lon="30.0286810495"><ele>100.09</ele><time>2026-04-20T18:38:41.075Z</time><hdop>9.875</hdop><vdop>3.375</vdop><extensions><gom:speed>0.0</gom:speed></extensions></trkpt>
   <trkpt lat="59.0638307456" lon="30.0286810495"><ele>100.09</ele><time>2026-04-20T18:38:42.076Z</time><hdop>9.875</hdop><vdop>3.125</vdop><extensions><gom:speed>0.0</gom:speed></extensions></trkpt>
   <trkpt lat="59.0638306199" lon="30.0286810495"><ele>100.09</ele><time>2026-04-20T18:38:43.075Z</time><hdop>9.875</hdop><vdop>3.25</vdop><extensions><gom:speed>0.0</gom:speed></extensions></trkpt>
   <trkpt lat="59.0638306199" lon="30.0286811334"><ele>100.09</ele><time>2026-04-20T18:38:44.075Z</time><hdop>9.875</hdop><vdop>3.25</vdop><extensions><gom:speed>0.0</gom:speed></extensions></trkpt>
   <trkpt lat="59.0638306199" lon="30.0286811334"><ele>100.089</ele><time>2026-04-20T18:38:45.076Z</time><hdop>9.875</hdop><vdop>3.25</vdop><extensions><gom:speed>0.0</gom:speed></extensions></trkpt>
   <trkpt lat="59.0638306199" lon="30.0286811334"><ele>100.089</ele><time>2026-04-20T18:38:46.075Z</time><hdop>9.875</hdop><vdop>3.375</vdop><extensions><gom:speed>0.0</gom:speed></extensions></trkpt>
   <trkpt lat="59.0638305361" lon="30.0286811334"><ele>100.087</ele><time>2026-04-20T18:38:47.075Z</time><hdop>9.875</hdop><vdop>3.375</vdop><extensions><gom:speed>0.0</gom:speed></extensions></trkpt>
   <trkpt lat="59.0638305361" lon="30.0286811334"><ele>100.088</ele><time>2026-04-20T18:38:48.075Z</time><hdop>9.875</hdop><vdop>3.375</vdop><extensions><gom:speed>0.0</gom:speed></extensions></trkpt>
   <trkpt lat="59.0638305361" lon="30.028681301"><ele>100.089</ele><time>2026-04-20T18:38:49.075Z</time><hdop>9.875</hdop><vdop>3.5</vdop><extensions><gom:speed>0.0</gom:speed></extensions></trkpt>
   <trkpt lat="59.0638304522" lon="30.028681301"><ele>100.09</ele><time>2026-04-20T18:38:50.075Z</time><hdop>9.875</hdop><vdop>3.5</vdop><extensions><gom:speed>0.0</gom:speed></extensions></trkpt>
   <trkpt lat="59.0638304522" lon="30.028681301"><ele>100.091</ele><time>2026-04-20T18:38:51.075Z</time><hdop>9.875</hdop><vdop>3.75</vdop><extensions><gom:speed>0.0</gom:speed></extensions></trkpt>
   <trkpt lat="59.0638303265" lon="30.0286813848"><ele>100.092</ele><time>2026-04-20T18:38:52.075Z</time><hdop>9.875</hdop><vdop>3.625</vdop><extensions><gom:speed>0.0</gom:speed></extensions></trkpt>
   <trkpt lat="59.0638303265" lon="30.0286813848"><ele>100.094</ele><time>2026-04-20T18:38:53.075Z</time><hdop>9.875</hdop><vdop>3.75</vdop><extensions><gom:speed>0.0</gom:speed></extensions></trkpt>
   <trkpt lat="59.0638303265" lon="30.0286813848"><ele>100.095</ele><time>2026-04-20T18:38:54.075Z</time><hdop>9.875</hdop><vdop>3.875</vdop><extensions><gom:speed>0.0</gom:speed></extensions></trkpt>
   <trkpt lat="59.0638302427" lon="30.0286814686"><ele>100.097</ele><time>2026-04-20T18:38:55.075Z</time><hdop>9.875</hdop><vdop>3.875</vdop><extensions><gom:speed>0.0</gom:speed></extensions></trkpt>
   <trkpt lat="59.0638302427" lon="30.0286814686"><ele>100.1</ele><time>2026-04-20T18:38:56.075Z</time><hdop>9.875</hdop><vdop>3.875</vdop><extensions><gom:speed>0.0</gom:speed></extensions></trkpt>
   <trkpt lat="59.0638302427" lon="30.0286814686"><ele>100.102</ele><time>2026-04-20T18:38:57.075Z</time><hdop>9.875</hdop><vdop>3.875</vdop><extensions><gom:speed>0.0</gom:speed></extensions></trkpt>
   <trkpt lat="59.063830117" lon="30.0286815525"><ele>100.104</ele><time>2026-04-20T18:38:58.075Z</time><hdop>10.0</hdop><vdop>3.875</vdop><extensions><gom:speed>0.0</gom:speed></extensions></trkpt>
   <trkpt lat="59.063830117" lon="30.0286815525"><ele>100.106</ele><time>2026-04-20T18:38:59.075Z</time><hdop>10.0</hdop><vdop>4.0</vdop><extensions><gom:speed>0.0</gom:speed></extensions></trkpt>
   <trkpt lat="59.063830117" lon="30.0286815525"><ele>100.109</ele><time>2026-04-20T18:39:00.075Z</time><hdop>10.0</hdop><vdop>4.0</vdop><extensions><gom:speed>0.0</gom:speed></extensions></trkpt>
   <trkpt lat="59.0638300331" lon="30.0286816363"><ele>100.111</ele><time>2026-04-20T18:39:01.075Z</time><hdop>10.0</hdop><vdop>4.0</vdop><extensions><gom:speed>0.0</gom:speed></extensions></trkpt>
   <trkpt lat="59.0638300331" lon="30.0286816363"><ele>100.114</ele><time>2026-04-20T18:39:02.076Z</time><hdop>9.875</hdop><vdop>3.875</vdop><extensions><gom:speed>0.0</gom:speed></extensions></trkpt>
   <trkpt lat="59.0638300331" lon="30.0286816363"><ele>100.116</ele><time>2026-04-20T18:39:03.075Z</time><hdop>9.875</hdop><vdop>3.875</vdop><extensions><gom:speed>0.0</gom:speed></extensions></trkpt>
   <trkpt lat="59.0638300331" lon="30.0286816363"><ele>100.117</ele><time>2026-04-20T18:39:04.075Z</time><hdop>9.875</hdop><vdop>3.75</vdop><extensions><gom:speed>0.0</gom:speed></extensions></trkpt>
   <trkpt lat="59.0638300331" lon="30.0286818039"><ele>100.12</ele><time>2026-04-20T18:39:05.075Z</time><hdop>9.875</hdop><vdop>3.75</vdop><extensions><gom:speed>0.0</gom:speed></extensions></trkpt>
   <trkpt lat="59.0638300331" lon="30.0286818039"><ele>100.122</ele><time>2026-04-20T18:39:06.075Z</time><hdop>9.875</hdop><vdop>3.75</vdop><extensions><gom:speed>0.0</gom:speed></extensions></trkpt>
   <trkpt lat="59.0638299493" lon="30.0286818039"><ele>100.124</ele><time>2026-04-20T18:39:07.075Z</time><hdop>9.875</hdop><vdop>3.5</vdop><extensions><gom:speed>0.0</gom:speed></extensions></trkpt>
   <trkpt lat="59.0638299493" lon="30.0286818039"><ele>100.126</ele><time>2026-04-20T18:39:08.075Z</time><hdop>9.875</hdop><vdop>3.5</vdop><extensions><gom:speed>0.0</gom:speed></extensions></trkpt>
   <trkpt lat="59.0638299493" lon="30.0286818877"><ele>100.127</ele><time>2026-04-20T18:39:09.075Z</time><hdop>9.875</hdop><vdop>3.5</vdop><extensions><gom:speed>0.0</gom:speed></extensions></trkpt>
   <trkpt lat="59.0638299493" lon="30.0286818877"><ele>100.129</ele><time>2026-04-20T18:39:10.075Z</time><hdop>9.875</hdop><vdop>3.625</vdop><extensions><gom:speed>0.0</gom:speed></extensions></trkpt>
   <trkpt lat="59.0638298236" lon="30.0286818877"><ele>100.131</ele><time>2026-04-20T18:39:11.075Z</time><hdop>9.875</hdop><vdop>3.5</vdop><extensions><gom:speed>0.0</gom:speed></extensions></trkpt>
   <trkpt lat="59.0638298236" lon="30.0286818877"><ele>100.134</ele><time>2026-04-20T18:39:12.076Z</time><hdop>9.875</hdop><vdop>3.5</vdop><extensions><gom:speed>0.0</gom:speed></extensions></trkpt>
   <trkpt lat="59.0638298236" lon="30.0286819716"><ele>100.136</ele><time>2026-04-20T18:39:13.075Z</time><hdop>10.0</hdop><vdop>3.75</vdop><extensions><gom:speed>0.0</gom:speed></extensions></trkpt>
   <trkpt lat="59.0638298236" lon="30.0286819716"><ele>100.137</ele><time>2026-04-20T18:39:14.075Z</time><hdop>10.0</hdop><vdop>3.75</vdop><extensions><gom:speed>0.0</gom:speed></extensions></trkpt>
   <trkpt lat="59.0638297398" lon="30.0286819716"><ele>100.139</ele><time>2026-04-20T18:39:15.076Z</time><hdop>10.0</hdop><vdop>3.625</vdop><extensions><gom:speed>0.0</gom:speed></extensions></trkpt>
   <trkpt lat="59.0638297398" lon="30.0286820554"><ele>100.141</ele><time>2026-04-20T18:39:16.076Z</time><hdop>10.0</hdop><vdop>3.5</vdop><extensions><gom:speed>0.0</gom:speed></extensions></trkpt>
   <trkpt lat="59.0638297398" lon="30.0286820554"><ele>100.143</ele><time>2026-04-20T18:39:17.075Z</time><hdop>10.0</hdop><vdop>3.5</vdop><extensions><gom:speed>0.0</gom:speed></extensions></trkpt>
   <trkpt lat="59.0638297398" lon="30.0286820554"><ele>100.144</ele><time>2026-04-20T18:39:18.075Z</time><hdop>10.0</hdop><vdop>3.5</vdop><extensions><gom:speed>0.0</gom:speed></extensions></trkpt>
   <trkpt lat="59.0638297398" lon="30.0286820554"><ele>100.145</ele><time>2026-04-20T18:39:19.075Z</time><hdop>10.0</hdop><vdop>3.75</vdop><extensions><gom:speed>0.0</gom:speed></extensions></trkpt>
   <trkpt lat="59.063829656" lon="30.0286820554"><ele>100.145</ele><time>2026-04-20T18:39:20.075Z</time><hdop>9.875</hdop><vdop>3.75</vdop><extensions><gom:speed>0.0</gom:speed></extensions></trkpt>
   <trkpt lat="59.063829656" lon="30.0286821392"><ele>100.145</ele><time>2026-04-20T18:39:21.075Z</time><hdop>9.875</hdop><vdop>3.75</vdop><extensions><gom:speed>0.0</gom:speed></extensions></trkpt>
   <trkpt lat="59.0638295302" lon="30.0286821392"><ele>100.144</ele><time>2026-04-20T18:39:22.075Z</time><hdop>9.875</hdop><vdop>3.75</vdop><extensions><gom:speed>0.0</gom:speed></extensions></trkpt>
   <trkpt lat="59.0638295302" lon="30.0286821392"><ele>100.143</ele><time>2026-04-20T18:39:23.075Z</time><hdop>9.875</hdop><vdop>3.75</vdop><extensions><gom:speed>0.0</gom:speed></extensions></trkpt>
   <trkpt lat="59.0638295302" lon="30.0286821392"><ele>100.142</ele><time>2026-04-20T18:39:24.075Z</time><hdop>10.0</hdop><vdop>3.875</vdop><extensions><gom:speed>0.0</gom:speed></extensions></trkpt>
   <trkpt lat="59.0638294464" lon="30.0286821392"><ele>100.141</ele><time>2026-04-20T18:39:25.075Z</time><hdop>10.0</hdop><vdop>3.875</vdop><extensions><gom:speed>0.0</gom:speed></extensions></trkpt>
   <trkpt lat="59.0638294464" lon="30.0286821392"><ele>100.14</ele><time>2026-04-20T18:39:26.075Z</time><hdop>10.0</hdop><vdop>3.875</vdop><extensions><gom:speed>0.0</gom:speed></extensions></trkpt>
   <trkpt lat="59.0638293207" lon="30.0286823068"><ele>100.137</ele><time>2026-04-20T18:39:27.075Z</time><hdop>10.0</hdop><vdop>3.875</vdop><extensions><gom:speed>0.0</gom:speed></extensions></trkpt>
   <trkpt lat="59.0638293207" lon="30.0286823068"><ele>100.135</ele><time>2026-04-20T18:39:28.075Z</time><hdop>10.0</hdop><vdop>4.0</vdop><extensions><gom:speed>0.0</gom:speed></extensions></trkpt>
   <trkpt lat="59.0638293207" lon="30.0286823068"><ele>100.133</ele><time>2026-04-20T18:39:29.075Z</time><hdop>10.0</hdop><vdop>4.0</vdop><extensions><gom:speed>0.0</gom:speed></extensions></trkpt>
   <trkpt lat="59.0638292369" lon="30.0286823068"><ele>100.13</ele><time>2026-04-20T18:39:30.075Z</time><hdop>10.0</hdop><vdop>4.0</vdop><extensions><gom:speed>0.0</gom:speed></extensions></trkpt>
   <trkpt lat="59.0638292369" lon="30.0286823068"><ele>100.128</ele><time>2026-04-20T18:39:31.075Z</time><hdop>10.625</hdop><vdop>4.0</vdop><extensions><gom:speed>0.0</gom:speed></extensions></trkpt>
   <trkpt lat="59.063829153" lon="30.0286823068"><ele>100.127</ele><time>2026-04-20T18:39:32.076Z</time><hdop>10.625</hdop><vdop>4.0</vdop><extensions><gom:speed>0.0</gom:speed></extensions></trkpt>
   <trkpt lat="59.063829153" lon="30.0286823068"><ele>100.125</ele><time>2026-04-20T18:39:33.075Z</time><hdop>10.625</hdop><vdop>3.75</vdop><extensions><gom:speed>0.0</gom:speed></extensions></trkpt>
   <trkpt lat="59.0638290273" lon="30.0286823068"><ele>100.124</ele><time>2026-04-20T18:39:34.076Z</time><hdop>10.625</hdop><vdop>3.625</vdop><extensions><gom:speed>0.0</gom:speed></extensions></trkpt>
   <trkpt lat="59.0638290273" lon="30.0286823068"><ele>100.123</ele><time>2026-04-20T18:39:35.075Z</time><hdop>10.625</hdop><vdop>3.625</vdop><extensions><gom:speed>0.0</gom:speed></extensions></trkpt>
   <trkpt lat="59.0638289435" lon="30.0286823068"><ele>100.123</ele><time>2026-04-20T18:39:36.075Z</time><hdop>9.875</hdop><vdop>3.625</vdop><extensions><gom:speed>0.0</gom:speed></extensions></trkpt>
   <trkpt lat="59.0638289435" lon="30.0286823068"><ele>100.122</ele><time>2026-04-20T18:39:37.075Z</time><hdop>9.875</hdop><vdop>3.625</vdop><extensions><gom:speed>0.0</gom:speed></extensions></trkpt>
   <trkpt lat="59.0638289435" lon="30.0286823907"><ele>100.121</ele><time>2026-04-20T18:39:38.075Z</time><hdop>9.875</hdop><vdop>3.625</vdop><extensions><gom:speed>0.0</gom:speed></extensions></trkpt>
   <trkpt lat="59.0638288178" lon="30.0286823907"><ele>100.122</ele><time>2026-04-20T18:39:39.075Z</time><hdop>9.875</hdop><vdop>3.5</vdop><extensions><gom:speed>0.0</gom:speed></extensions></trkpt>
   <trkpt lat="59.0638288178" lon="30.0286823907"><ele>100.124</ele><time>2026-04-20T18:39:40.075Z</time><hdop>9.875</hdop><vdop>3.625</vdop><extensions><gom:speed>0.0</gom:speed></extensions></trkpt>
   <trkpt lat="59.0638288178" lon="30.0286823907"><ele>100.124</ele><time>2026-04-20T18:39:41.075Z</time><hdop>9.875</hdop><vdop>3.5</vdop><extensions><gom:speed>0.0</gom:speed></extensions></trkpt>
   <trkpt lat="59.0638288178" lon="30.0286823907"><ele>100.123</ele><time>2026-04-20T18:39:42.075Z</time><hdop>9.875</hdop><vdop>3.375</vdop><extensions><gom:speed>0.0</gom:speed></extensions></trkpt>
   <trkpt lat="59.0638287339" lon="30.0286823068"><ele>100.122</ele><time>2026-04-20T18:39:43.075Z</time><hdop>9.875</hdop><vdop>3.375</vdop><extensions><gom:speed>0.0</gom:speed></extensions></trkpt>
   <trkpt lat="59.0638287339" lon="30.0286823068"><ele>100.123</ele><time>2026-04-20T18:39:44.075Z</time><hdop>9.875</hdop><vdop>3.375</vdop><extensions><gom:speed>0.0</gom:speed></extensions></trkpt>
   <trkpt lat="59.0638287339" lon="30.0286823068"><ele>100.122</ele><time>2026-04-20T18:39:45.075Z</time><hdop>9.875</hdop><vdop>3.375</vdop><extensions><gom:speed>0.0</gom:speed></extensions></trkpt>
   <trkpt lat="59.0638286501" lon="30.0286823068"><ele>100.122</ele><time>2026-04-20T18:39:46.075Z</time><hdop>9.875</hdop><vdop>3.375</vdop><extensions><gom:speed>0.0</gom:speed></extensions></trkpt>
   <trkpt lat="59.0638286501" lon="30.0286823068"><ele>100.123</ele><time>2026-04-20T18:39:47.075Z</time><hdop>9.875</hdop><vdop>3.5</vdop><extensions><gom:speed>0.0</gom:speed></extensions></trkpt>
   <trkpt lat="59.0638286501" lon="30.0286823907"><ele>100.124</ele><time>2026-04-20T18:39:48.075Z</time><hdop>9.875</hdop><vdop>3.5</vdop><extensions><gom:speed>0.0</gom:speed></extensions></trkpt>
   <trkpt lat="59.0638286501" lon="30.0286823907"><ele>100.125</ele><time>2026-04-20T18:39:49.075Z</time><hdop>9.875</hdop><vdop>3.375</vdop><extensions><gom:speed>0.0</gom:speed></extensions></trkpt>
   <trkpt lat="59.0638285244" lon="30.0286823907"><ele>100.127</ele><time>2026-04-20T18:39:50.076Z</time><hdop>9.875</hdop><vdop>3.375</vdop><extensions><gom:speed>0.0</gom:speed></extensions></trkpt>
   <trkpt lat="59.0638285244" lon="30.0286823907"><ele>100.129</ele><time>2026-04-20T18:39:51.075Z</time><hdop>9.875</hdop><vdop>3.375</vdop><extensions><gom:speed>0.0</gom:speed></extensions></trkpt>
   <trkpt lat="59.0638285244" lon="30.0286823907"><ele>100.129</ele><time>2026-04-20T18:39:52.075Z</time><hdop>9.875</hdop><vdop>3.375</vdop><extensions><gom:speed>0.0</gom:speed></extensions></trkpt>
   <trkpt lat="59.0638284406" lon="30.0286823907"><ele>100.13</ele><time>2026-04-20T18:39:53.076Z</time><hdop>9.875</hdop><vdop>3.5</vdop><extensions><gom:speed>0.0</gom:speed></extensions></trkpt>
   <trkpt lat="59.0638284406" lon="30.0286824745"><ele>100.13</ele><time>2026-04-20T18:39:54.076Z</time><hdop>9.875</hdop><vdop>3.625</vdop><extensions><gom:speed>0.0</gom:speed></extensions></trkpt>
   <trkpt lat="59.0638284406" lon="30.0286824745"><ele>100.131</ele><time>2026-04-20T18:39:55.076Z</time><hdop>9.875</hdop><vdop>3.875</vdop><extensions><gom:speed>0.0</gom:speed></extensions></trkpt>
   <trkpt lat="59.0638283568" lon="30.0286824745"><ele>100.132</ele><time>2026-04-20T18:39:56.076Z</time><hdop>10.0</hdop><vdop>4.0</vdop><extensions><gom:speed>0.0</gom:speed></extensions></trkpt>
   <trkpt lat="59.0638283568" lon="30.0286824745"><ele>100.132</ele><time>2026-04-20T18:39:57.075Z</time><hdop>10.0</hdop><vdop>4.125</vdop><extensions><gom:speed>0.0</gom:speed></extensions></trkpt>
   <trkpt lat="59.0638283568" lon="30.0286824745"><ele>100.131</ele><time>2026-04-20T18:39:58.075Z</time><hdop>10.125</hdop><vdop>4.0</vdop><extensions><gom:speed>0.0</gom:speed></extensions></trkpt>
   <trkpt lat="59.0638283568" lon="30.0286824745"><ele>100.13</ele><time>2026-04-20T18:39:59.075Z</time><hdop>10.125</hdop><vdop>3.875</vdop><extensions><gom:speed>0.0</gom:speed></extensions></trkpt>
   <trkpt lat="59.0638283568" lon="30.0286824745"><ele>100.133</ele><time>2026-04-20T18:40:00.075Z</time><hdop>10.125</hdop><vdop>3.875</vdop><extensions><gom:speed>0.0</gom:speed></extensions></trkpt>
   <trkpt lat="59.0638283568" lon="30.0286825583"><ele>100.135</ele><time>2026-04-20T18:40:01.075Z</time><hdop>10.125</hdop><vdop>4.0</vdop><extensions><gom:speed>0.0</gom:speed></extensions></trkpt>
   <trkpt lat="59.0638283568" lon="30.0286825583"><ele>100.137</ele><time>2026-04-20T18:40:02.075Z</time><hdop>10.125</hdop><vdop>4.0</vdop><extensions><gom:speed>0.0</gom:speed></extensions></trkpt>
   <trkpt lat="59.0638283568" lon="30.0286825583"><ele>100.134</ele><time>2026-04-20T18:40:03.076Z</time><hdop>10.0</hdop><vdop>4.0</vdop><extensions><gom:speed>0.0</gom:speed></extensions></trkpt>
   <trkpt lat="59.0638283568" lon="30.0286825583"><ele>100.13</ele><time>2026-04-20T18:40:04.076Z</time><hdop>10.0</hdop><vdop>4.0</vdop><extensions><gom:speed>0.0</gom:speed></extensions></trkpt>
   <trkpt lat="59.0638283568" lon="30.0286825583"><ele>100.124</ele><time>2026-04-20T18:40:05.075Z</time><hdop>10.0</hdop><vdop>3.75</vdop><extensions><gom:speed>0.0</gom:speed></extensions></trkpt>
   <trkpt lat="59.063828231" lon="30.0286824745"><ele>100.117</ele><time>2026-04-20T18:40:06.075Z</time><hdop>10.0</hdop><vdop>3.875</vdop><extensions><gom:speed>0.0</gom:speed></extensions></trkpt>
   <trkpt lat="59.063828231" lon="30.0286824745"><ele>100.11</ele><time>2026-04-20T18:40:07.075Z</time><hdop>10.0</hdop><vdop>3.75</vdop><extensions><gom:speed>0.0</gom:speed></extensions></trkpt>
   <trkpt lat="59.063828231" lon="30.0286824745"><ele>100.102</ele><time>2026-04-20T18:40:08.075Z</time><hdop>10.0</hdop><vdop>3.75</vdop><extensions><gom:speed>0.0</gom:speed></extensions></trkpt>
   <trkpt lat="59.0638281472" lon="30.0286824745"><ele>100.096</ele><time>2026-04-20T18:40:09.075Z</time><hdop>9.875</hdop><vdop>3.75</vdop><extensions><gom:speed>0.0</gom:speed></extensions></trkpt>
   <trkpt lat="59.0638281472" lon="30.0286824745"><ele>100.093</ele><time>2026-04-20T18:40:10.075Z</time><hdop>9.875</hdop><vdop>3.75</vdop><extensions><gom:speed>0.0</gom:speed></extensions></trkpt>
   <trkpt lat="59.0638281472" lon="30.0286824745"><ele>100.091</ele><time>2026-04-20T18:40:11.075Z</time><hdop>9.875</hdop><vdop>3.875</vdop><extensions><gom:speed>0.0</gom:speed></extensions></trkpt>
   <trkpt lat="59.0638281472" lon="30.0286824745"><ele>100.09</ele><time>2026-04-20T18:40:12.075Z</time><hdop>10.0</hdop><vdop>4.0</vdop><extensions><gom:speed>0.0</gom:speed></extensions></trkpt>
   <trkpt lat="59.0638281472" lon="30.0286824745"><ele>100.09</ele><time>2026-04-20T18:40:13.075Z</time><hdop>10.0</hdop><vdop>3.875</vdop><extensions><gom:speed>0.0</gom:speed></extensions></trkpt>
   <trkpt lat="59.0638281472" lon="30.0286824745"><ele>100.089</ele><time>2026-04-20T18:40:14.075Z</time><hdop>10.0</hdop><vdop>3.875</vdop><extensions><gom:speed>0.0</gom:speed></extensions></trkpt>
   <trkpt lat="59.0638281472" lon="30.0286824745"><ele>100.09</ele><time>2026-04-20T18:40:15.076Z</time><hdop>10.0</hdop><vdop>3.875</vdop><extensions><gom:speed>0.0</gom:speed></extensions></trkpt>
   <trkpt lat="59.0638281472" lon="30.0286824745"><ele>100.092</ele><time>2026-04-20T18:40:16.075Z</time><hdop>10.0</hdop><vdop>3.875</vdop><extensions><gom:speed>0.0</gom:speed></extensions></trkpt>
   <trkpt lat="59.0638281472" lon="30.0286824745"><ele>100.092</ele><time>2026-04-20T18:40:17.075Z</time><hdop>10.0</hdop><vdop>3.75</vdop><extensions><gom:speed>0.0</gom:speed></extensions></trkpt>
   <trkpt lat="59.0638281472" lon="30.0286824745"><ele>100.093</ele><time>2026-04-20T18:40:18.075Z</time><hdop>10.0</hdop><vdop>3.75</vdop><extensions><gom:speed>0.0</gom:speed></extensions></trkpt>
   <trkpt lat="59.0638281472" lon="30.0286824745"><ele>100.094</ele><time>2026-04-20T18:40:19.075Z</time><hdop>10.0</hdop><vdop>3.75</vdop><extensions><gom:speed>0.0</gom:speed></extensions></trkpt>
   <trkpt lat="59.0638281472" lon="30.0286824745"><ele>100.095</ele><time>2026-04-20T18:40:20.075Z</time><hdop>10.0</hdop><vdop>3.75</vdop><extensions><gom:speed>0.0</gom:speed></extensions></trkpt>
   <trkpt lat="59.0638281472" lon="30.0286824745"><ele>100.097</ele><time>2026-04-20T18:40:21.075Z</time><hdop>9.875</hdop><vdop>3.75</vdop><extensions><gom:speed>0.0</gom:speed></extensions></trkpt>
   <trkpt lat="59.0638281472" lon="30.0286824745"><ele>100.099</ele><time>2026-04-20T18:40:22.076Z</time><hdop>9.875</hdop><vdop>3.625</vdop><extensions><gom:speed>0.0</gom:speed></extensions></trkpt>
   <trkpt lat="59.063828231" lon="30.0286825583"><ele>100.102</ele><time>2026-04-20T18:40:23.075Z</time><hdop>9.875</hdop><vdop>3.625</vdop><extensions><gom:speed>0.0</gom:speed></extensions></trkpt>
   <trkpt lat="59.063828231" lon="30.0286825583"><ele>100.106</ele><time>2026-04-20T18:40:24.075Z</time><hdop>9.875</hdop><vdop>3.5</vdop><extensions><gom:speed>0.0</gom:speed></extensions></trkpt>
   <trkpt lat="59.063828231" lon="30.0286825583"><ele>100.108</ele><time>2026-04-20T18:40:25.075Z</time><hdop>9.875</hdop><vdop>3.625</vdop><extensions><gom:speed>0.0</gom:speed></extensions></trkpt>
   <trkpt lat="59.063828231" lon="30.0286825583"><ele>100.109</ele><time>2026-04-20T18:40:26.075Z</time><hdop>9.875</hdop><vdop>3.625</vdop><extensions><gom:speed>0.0</gom:speed></extensions></trkpt>
   <trkpt lat="59.0638281472" lon="30.0286825583"><ele>100.108</ele><time>2026-04-20T18:40:27.075Z</time><hdop>9.875</hdop><vdop>3.375</vdop><extensions><gom:speed>0.0</gom:speed></extensions></trkpt>
   <trkpt lat="59.0638281472" lon="30.0286825583"><ele>100.106</ele><time>2026-04-20T18:40:28.075Z</time><hdop>9.875</hdop><vdop>3.25</vdop><extensions><gom:speed>0.0</gom:speed></extensions></trkpt>
   <trkpt lat="59.0638281472" lon="30.0286825583"><ele>100.104</ele><time>2026-04-20T18:40:29.076Z</time><hdop>9.875</hdop><vdop>3.25</vdop><extensions><gom:speed>0.0</gom:speed></extensions></trkpt>
   <trkpt lat="59.0638281472" lon="30.0286825583"><ele>100.102</ele><time>2026-04-20T18:40:30.075Z</time><hdop>9.875</hdop><vdop>3.375</vdop><extensions><gom:speed>0.0</gom:speed></extensions></trkpt>
   <trkpt lat="59.0638280215" lon="30.0286825583"><ele>100.101</ele><time>2026-04-20T18:40:31.075Z</time><hdop>9.875</hdop><vdop>3.5</vdop><extensions><gom:speed>0.0</gom:speed></extensions></trkpt>
   <trkpt lat="59.0638280215" lon="30.0286825583"><ele>100.1</ele><time>2026-04-20T18:40:32.075Z</time><hdop>9.875</hdop><vdop>3.75</vdop><extensions><gom:speed>0.0</gom:speed></extensions></trkpt>
   <trkpt lat="59.0638280215" lon="30.0286825583"><ele>100.099</ele><time>2026-04-20T18:40:33.075Z</time><hdop>9.875</hdop><vdop>4.0</vdop><extensions><gom:speed>0.0</gom:speed></extensions></trkpt>
   <trkpt lat="59.0638280215" lon="30.0286825583"><ele>100.097</ele><time>2026-04-20T18:40:34.076Z</time><hdop>9.875</hdop><vdop>4.125</vdop><extensions><gom:speed>0.0</gom:speed></extensions></trkpt>
   <trkpt lat="59.0638280215" lon="30.0286825583"><ele>100.096</ele><time>2026-04-20T18:40:35.075Z</time><hdop>9.875</hdop><vdop>4.125</vdop><extensions><gom:speed>0.0</gom:speed></extensions></trkpt>
   <trkpt lat="59.0638280215" lon="30.0286825583"><ele>100.094</ele><time>2026-04-20T18:40:36.075Z</time><hdop>10.0</hdop><vdop>4.125</vdop><extensions><gom:speed>0.0</gom:speed></extensions></trkpt>
   <trkpt lat="59.0638279377" lon="30.0286826421"><ele>100.093</ele><time>2026-04-20T18:40:37.075Z</time><hdop>10.0</hdop><vdop>4.25</vdop><extensions><gom:speed>0.0</gom:speed></extensions></trkpt>
   <trkpt lat="59.0638279377" lon="30.0286826421"><ele>100.092</ele><time>2026-04-20T18:40:38.075Z</time><hdop>10.0</hdop><vdop>4.0</vdop><extensions><gom:speed>0.0</gom:speed></extensions></trkpt>
   <trkpt lat="59.0638279377" lon="30.0286826421"><ele>100.091</ele><time>2026-04-20T18:40:39.075Z</time><hdop>10.0</hdop><vdop>4.125</vdop><extensions><gom:speed>0.0</gom:speed></extensions></trkpt>
   <trkpt lat="59.0638279377" lon="30.0286826421"><ele>100.089</ele><time>2026-04-20T18:40:40.075Z</time><hdop>10.0</hdop><vdop>4.0</vdop><extensions><gom:speed>0.0</gom:speed></extensions></trkpt>
   <trkpt lat="59.0638279377" lon="30.0286826421"><ele>100.089</ele><time>2026-04-20T18:40:41.075Z</time><hdop>10.0</hdop><vdop>4.0</vdop><extensions><gom:speed>0.0</gom:speed></extensions></trkpt>
   <trkpt lat="59.0638279377" lon="30.0286826421"><ele>100.088</ele><time>2026-04-20T18:40:42.075Z</time><hdop>9.875</hdop><vdop>4.0</vdop><extensions><gom:speed>0.0</gom:speed></extensions></trkpt>
   <trkpt lat="59.0638278538" lon="30.0286828097"><ele>100.089</ele><time>2026-04-20T18:40:43.076Z</time><hdop>9.875</hdop><vdop>4.0</vdop><extensions><gom:speed>0.0</gom:speed></extensions></trkpt>
   <trkpt lat="59.0638278538" lon="30.0286828097"><ele>100.089</ele><time>2026-04-20T18:40:44.076Z</time><hdop>9.875</hdop><vdop>4.125</vdop><extensions><gom:speed>0.0</gom:speed></extensions></trkpt>
   <trkpt lat="59.0638278538" lon="30.0286828097"><ele>100.089</ele><time>2026-04-20T18:40:45.075Z</time><hdop>9.875</hdop><vdop>4.25</vdop><extensions><gom:speed>0.0</gom:speed></extensions></trkpt>
   <trkpt lat="59.0638278538" lon="30.0286828097"><ele>100.089</ele><time>2026-04-20T18:40:46.075Z</time><hdop>9.875</hdop><vdop>4.375</vdop><extensions><gom:speed>0.0</gom:speed></extensions></trkpt>
   <trkpt lat="59.0638278538" lon="30.0286828097"><ele>100.089</ele><time>2026-04-20T18:40:47.075Z</time><hdop>9.875</hdop><vdop>4.5</vdop><extensions><gom:speed>0.0</gom:speed></extensions></trkpt>
   <trkpt lat="59.0638278538" lon="30.0286828097"><ele>100.089</ele><time>2026-04-20T18:40:48.075Z</time><hdop>10.0</hdop><vdop>4.5</vdop><extensions><gom:speed>0.0</gom:speed></extensions></trkpt>
   <trkpt lat="59.0638278538" lon="30.0286828097"><ele>100.088</ele><time>2026-04-20T18:40:49.075Z</time><hdop>10.0</hdop><vdop>4.5</vdop><extensions><gom:speed>0.0</gom:speed></extensions></trkpt>
   <trkpt lat="59.0638278538" lon="30.0286828097"><ele>100.088</ele><time>2026-04-20T18:40:50.075Z</time><hdop>10.0</hdop><vdop>4.75</vdop><extensions><gom:speed>0.0</gom:speed></extensions></trkpt>
   <trkpt lat="59.0638278538" lon="30.0286828097"><ele>100.087</ele><time>2026-04-20T18:40:51.075Z</time><hdop>10.75</hdop><vdop>4.625</vdop><extensions><gom:speed>0.0</gom:speed></extensions></trkpt>
   <trkpt lat="59.0638278538" lon="30.0286828097"><ele>100.087</ele><time>2026-04-20T18:40:52.075Z</time><hdop>10.75</hdop><vdop>4.75</vdop><extensions><gom:speed>0.0</gom:speed></extensions></trkpt>
   <trkpt lat="59.0638278538" lon="30.0286828097"><ele>100.086</ele><time>2026-04-20T18:40:53.075Z</time><hdop>10.75</hdop><vdop>4.625</vdop><extensions><gom:speed>0.0</gom:speed></extensions></trkpt>
   <trkpt lat="59.0638277281" lon="30.0286828097"><ele>100.085</ele><time>2026-04-20T18:40:54.076Z</time><hdop>10.75</hdop><vdop>4.5</vdop><extensions><gom:speed>0.0</gom:speed></extensions></trkpt>
   <trkpt lat="59.0638277281" lon="30.0286828097"><ele>100.086</ele><time>2026-04-20T18:40:55.075Z</time><hdop>10.75</hdop><vdop>4.375</vdop><extensions><gom:speed>0.0</gom:speed></extensions></trkpt>
   <trkpt lat="59.0638277281" lon="30.0286828097"><ele>100.086</ele><time>2026-04-20T18:40:56.075Z</time><hdop>10.0</hdop><vdop>4.375</vdop><extensions><gom:speed>0.0</gom:speed></extensions></trkpt>
   <trkpt lat="59.0638277281" lon="30.0286828936"><ele>100.086</ele><time>2026-04-20T18:40:57.075Z</time><hdop>10.0</hdop><vdop>4.375</vdop><extensions><gom:speed>0.0</gom:speed></extensions></trkpt>
   <trkpt lat="59.0638277281" lon="30.0286828936"><ele>100.085</ele><time>2026-04-20T18:40:58.075Z</time><hdop>9.875</hdop><vdop>4.375</vdop><extensions><gom:speed>0.0</gom:speed></extensions></trkpt>
   <trkpt lat="59.0638277281" lon="30.0286828936"><ele>100.083</ele><time>2026-04-20T18:40:59.076Z</time><hdop>9.875</hdop><vdop>4.5</vdop><extensions><gom:speed>0.0</gom:speed></extensions></trkpt>
   <trkpt lat="59.0638276443" lon="30.0286828936"><ele>100.082</ele><time>2026-04-20T18:41:00.075Z</time><hdop>9.875</hdop><vdop>4.625</vdop><extensions><gom:speed>0.0</gom:speed></extensions></trkpt>
   <trkpt lat="59.0638276443" lon="30.0286828936"><ele>100.079</ele><time>2026-04-20T18:41:01.075Z</time><hdop>10.0</hdop><vdop>4.625</vdop><extensions><gom:speed>0.0</gom:speed></extensions></trkpt>
   <trkpt lat="59.0638276443" lon="30.0286828936"><ele>100.077</ele><time>2026-04-20T18:41:02.076Z</time><hdop>10.0</hdop><vdop>4.625</vdop><extensions><gom:speed>0.0</gom:speed></extensions></trkpt>
   <trkpt lat="59.0638276443" lon="30.0286828936"><ele>100.075</ele><time>2026-04-20T18:41:03.075Z</time><hdop>10.0</hdop><vdop>4.625</vdop><extensions><gom:speed>0.0</gom:speed></extensions></trkpt>
   <trkpt lat="59.0638276443" lon="30.0286828936"><ele>100.075</ele><time>2026-04-20T18:41:04.075Z</time><hdop>10.0</hdop><vdop>4.375</vdop><extensions><gom:speed>0.0</gom:speed></extensions></trkpt>
   <trkpt lat="59.0638276443" lon="30.0286829774"><ele>100.075</ele><time>2026-04-20T18:41:05.076Z</time><hdop>10.0</hdop><vdop>4.125</vdop><extensions><gom:speed>0.0</gom:speed></extensions></trkpt>
   <trkpt lat="59.0638275186" lon="30.0286829774"><ele>100.075</ele><time>2026-04-20T18:41:06.075Z</time><hdop>10.0</hdop><vdop>4.125</vdop><extensions><gom:speed>0.0</gom:speed></extensions></trkpt>
   <trkpt lat="59.0638275186" lon="30.0286829774"><ele>100.076</ele><time>2026-04-20T18:41:07.075Z</time><hdop>10.0</hdop><vdop>4.125</vdop><extensions><gom:speed>0.0</gom:speed></extensions></trkpt>
   <trkpt lat="59.0638275186" lon="30.0286830612"><ele>100.076</ele><time>2026-04-20T18:41:08.075Z</time><hdop>9.875</hdop><vdop>4.0</vdop><extensions><gom:speed>0.0</gom:speed></extensions></trkpt>
   <trkpt lat="59.0638275186" lon="30.0286830612"><ele>100.076</ele><time>2026-04-20T18:41:09.075Z</time><hdop>9.875</hdop><vdop>3.875</vdop><extensions><gom:speed>0.0</gom:speed></extensions></trkpt>
   <trkpt lat="59.0638275186" lon="30.028683145"><ele>100.076</ele><time>2026-04-20T18:41:10.075Z</time><hdop>9.875</hdop><vdop>3.875</vdop><extensions><gom:speed>0.0</gom:speed></extensions></trkpt>
   <trkpt lat="59.0638275186" lon="30.028683145"><ele>100.074</ele><time>2026-04-20T18:41:11.075Z</time><hdop>9.875</hdop><vdop>3.875</vdop><extensions><gom:speed>0.0</gom:speed></extensions></trkpt>
   <trkpt lat="59.0638275186" lon="30.0286833127"><ele>100.074</ele><time>2026-04-20T18:41:12.075Z</time><hdop>9.875</hdop><vdop>4.0</vdop><extensions><gom:speed>0.0</gom:speed></extensions></trkpt>
   <trkpt lat="59.0638275186" lon="30.0286833127"><ele>100.074</ele><time>2026-04-20T18:41:13.075Z</time><hdop>9.875</hdop><vdop>4.0</vdop><extensions><gom:speed>0.0</gom:speed></extensions></trkpt>
   <trkpt lat="59.0638275186" lon="30.0286833127"><ele>100.075</ele><time>2026-04-20T18:41:14.075Z</time><hdop>9.875</hdop><vdop>4.0</vdop><extensions><gom:speed>0.0</gom:speed></extensions></trkpt>
   <trkpt lat="59.0638275186" lon="30.0286833965"><ele>100.076</ele><time>2026-04-20T18:41:15.075Z</time><hdop>9.875</hdop><vdop>4.125</vdop><extensions><gom:speed>0.0</gom:speed></extensions></trkpt>
   <trkpt lat="59.0638275186" lon="30.0286834803"><ele>100.077</ele><time>2026-04-20T18:41:16.075Z</time><hdop>9.875</hdop><vdop>4.125</vdop><extensions><gom:speed>0.0</gom:speed></extensions></trkpt>
   <trkpt lat="59.0638275186" lon="30.0286834803"><ele>100.079</ele><time>2026-04-20T18:41:17.075Z</time><hdop>9.875</hdop><vdop>4.0</vdop><extensions><gom:speed>0.0</gom:speed></extensions></trkpt>
   <trkpt lat="59.0638275186" lon="30.0286835641"><ele>100.079</ele><time>2026-04-20T18:41:18.075Z</time><hdop>9.875</hdop><vdop>4.0</vdop><extensions><gom:speed>0.0</gom:speed></extensions></trkpt>
   <trkpt lat="59.0638275186" lon="30.0286835641"><ele>100.08</ele><time>2026-04-20T18:41:19.075Z</time><hdop>9.875</hdop><vdop>4.0</vdop><extensions><gom:speed>0.0</gom:speed></extensions></trkpt>
   <trkpt lat="59.0638275186" lon="30.0286836479"><ele>100.079</ele><time>2026-04-20T18:41:20.075Z</time><hdop>9.875</hdop><vdop>3.75</vdop><extensions><gom:speed>0.0</gom:speed></extensions></trkpt>
   <trkpt lat="59.0638275186" lon="30.0286836479"><ele>100.078</ele><time>2026-04-20T18:41:21.075Z</time><hdop>9.875</hdop><vdop>3.75</vdop><extensions><gom:speed>0.0</gom:speed></extensions></trkpt>
   <trkpt lat="59.0638275186" lon="30.0286836479"><ele>100.075</ele><time>2026-04-20T18:41:22.075Z</time><hdop>9.875</hdop><vdop>3.625</vdop><extensions><gom:speed>0.0</gom:speed></extensions></trkpt>
   <trkpt lat="59.0638275186" lon="30.0286836479"><ele>100.073</ele><time>2026-04-20T18:41:23.076Z</time><hdop>9.875</hdop><vdop>3.625</vdop><extensions><gom:speed>0.0</gom:speed></extensions></trkpt>
   <trkpt lat="59.0638275186" lon="30.0286836479"><ele>100.072</ele><time>2026-04-20T18:41:24.075Z</time><hdop>9.875</hdop><vdop>3.5</vdop><extensions><gom:speed>0.0</gom:speed></extensions></trkpt>
   <trkpt lat="59.0638275186" lon="30.0286838156"><ele>100.073</ele><time>2026-04-20T18:41:25.075Z</time><hdop>9.875</hdop><vdop>3.375</vdop><extensions><gom:speed>0.0</gom:speed></extensions></trkpt>
   <trkpt lat="59.0638274348" lon="30.0286838156"><ele>100.075</ele><time>2026-04-20T18:41:26.075Z</time><hdop>9.875</hdop><vdop>3.375</vdop><extensions><gom:speed>0.0</gom:speed></extensions></trkpt>
   <trkpt lat="59.0638274348" lon="30.0286838156"><ele>100.076</ele><time>2026-04-20T18:41:27.075Z</time><hdop>9.875</hdop><vdop>3.25</vdop><extensions><gom:speed>0.0</gom:speed></extensions></trkpt>
   <trkpt lat="59.0638274348" lon="30.0286838156"><ele>100.076</ele><time>2026-04-20T18:41:28.075Z</time><hdop>9.875</hdop><vdop>3.25</vdop><extensions><gom:speed>0.0</gom:speed></extensions></trkpt>
   <trkpt lat="59.0638275186" lon="30.0286836479"><ele>100.076</ele><time>2026-04-20T18:41:29.076Z</time><hdop>9.875</hdop><vdop>3.125</vdop><extensions><gom:speed>0.0</gom:speed></extensions></trkpt>
   <trkpt lat="59.0638275186" lon="30.0286836479"><ele>100.077</ele><time>2026-04-20T18:41:30.075Z</time><hdop>9.875</hdop><vdop>3.25</vdop><extensions><gom:speed>0.0</gom:speed></extensions></trkpt>
   <trkpt lat="59.0638275186" lon="30.0286836479"><ele>100.079</ele><time>2026-04-20T18:41:31.076Z</time><hdop>9.875</hdop><vdop>3.25</vdop><extensions><gom:speed>0.0</gom:speed></extensions></trkpt>
   <trkpt lat="59.0638275186" lon="30.0286836479"><ele>100.08</ele><time>2026-04-20T18:41:32.075Z</time><hdop>9.875</hdop><vdop>3.25</vdop><extensions><gom:speed>0.0</gom:speed></extensions></trkpt>
   <trkpt lat="59.0638275186" lon="30.0286836479"><ele>100.081</ele><time>2026-04-20T18:41:33.075Z</time><hdop>9.875</hdop><vdop>3.125</vdop><extensions><gom:speed>0.0</gom:speed></extensions></trkpt>
   <trkpt lat="59.0638275186" lon="30.0286836479"><ele>100.082</ele><time>2026-04-20T18:41:34.075Z</time><hdop>9.875</hdop><vdop>3.25</vdop><extensions><gom:speed>0.0</gom:speed></extensions></trkpt>
   <trkpt lat="59.0638276443" lon="30.0286836479"><ele>100.083</ele><time>2026-04-20T18:41:35.075Z</time><hdop>9.875</hdop><vdop>3.25</vdop><extensions><gom:speed>0.0</gom:speed></extensions></trkpt>
   <trkpt lat="59.0638276443" lon="30.0286836479"><ele>100.085</ele><time>2026-04-20T18:41:36.075Z</time><hdop>9.875</hdop><vdop>3.25</vdop><extensions><gom:speed>0.0</gom:speed></extensions></trkpt>
   <trkpt lat="59.0638276443" lon="30.0286836479"><ele>100.087</ele><time>2026-04-20T18:41:37.076Z</time><hdop>9.875</hdop><vdop>3.25</vdop><extensions><gom:speed>0.0</gom:speed></extensions></trkpt>
   <trkpt lat="59.0638276443" lon="30.0286838156"><ele>100.09</ele><time>2026-04-20T18:41:38.075Z</time><hdop>9.875</hdop><vdop>3.375</vdop><extensions><gom:speed>0.0</gom:speed></extensions></trkpt>
   <trkpt lat="59.0638275186" lon="30.0286838156"><ele>100.093</ele><time>2026-04-20T18:41:39.075Z</time><hdop>9.875</hdop><vdop>3.25</vdop><extensions><gom:speed>0.0</gom:speed></extensions></trkpt>
   <trkpt lat="59.0638275186" lon="30.0286838156"><ele>100.095</ele><time>2026-04-20T18:41:40.075Z</time><hdop>9.875</hdop><vdop>3.25</vdop><extensions><gom:speed>0.0</gom:speed></extensions></trkpt>
   <trkpt lat="59.0638275186" lon="30.0286838994"><ele>100.097</ele><time>2026-04-20T18:41:41.075Z</time><hdop>9.875</hdop><vdop>3.375</vdop><extensions><gom:speed>0.0</gom:speed></extensions></trkpt>
   <trkpt lat="59.0638275186" lon="30.0286838994"><ele>100.099</ele><time>2026-04-20T18:41:42.075Z</time><hdop>9.875</hdop><vdop>3.5</vdop><extensions><gom:speed>0.0</gom:speed></extensions></trkpt>
   <trkpt lat="59.0638275186" lon="30.0286839832"><ele>100.099</ele><time>2026-04-20T18:41:43.075Z</time><hdop>9.875</hdop><vdop>3.625</vdop><extensions><gom:speed>0.0</gom:speed></extensions></trkpt>
   <trkpt lat="59.0638275186" lon="30.0286839832"><ele>100.098</ele><time>2026-04-20T18:41:44.075Z</time><hdop>9.875</hdop><vdop>3.875</vdop><extensions><gom:speed>0.0</gom:speed></extensions></trkpt>
   <trkpt lat="59.0638275186" lon="30.0286839832"><ele>100.097</ele><time>2026-04-20T18:41:45.075Z</time><hdop>10.0</hdop><vdop>4.25</vdop><extensions><gom:speed>0.0</gom:speed></extensions></trkpt>
   <trkpt lat="59.0638274348" lon="30.0286839832"><ele>100.095</ele><time>2026-04-20T18:41:46.076Z</time><hdop>10.0</hdop><vdop>4.625</vdop><extensions><gom:speed>0.0</gom:speed></extensions></trkpt>
   <trkpt lat="59.0638274348" lon="30.0286839832"><ele>100.093</ele><time>2026-04-20T18:41:47.075Z</time><hdop>10.25</hdop><vdop>5.0</vdop><extensions><gom:speed>0.0</gom:speed></extensions></trkpt>
   <trkpt lat="59.0638274348" lon="30.0286839832"><ele>100.091</ele><time>2026-04-20T18:41:48.075Z</time><hdop>10.5</hdop><vdop>5.25</vdop><extensions><gom:speed>0.0</gom:speed></extensions></trkpt>
   <trkpt lat="59.0638273509" lon="30.0286839832"><ele>100.09</ele><time>2026-04-20T18:41:49.075Z</time><hdop>10.875</hdop><vdop>5.5</vdop><extensions><gom:speed>0.0</gom:speed></extensions></trkpt>
   <trkpt lat="59.0638273509" lon="30.0286839832"><ele>100.088</ele><time>2026-04-20T18:41:50.076Z</time><hdop>11.375</hdop><vdop>5.625</vdop><extensions><gom:speed>0.0</gom:speed></extensions></trkpt>
   <trkpt lat="59.0638273509" lon="30.0286839832"><ele>100.088</ele><time>2026-04-20T18:41:51.075Z</time><hdop>11.875</hdop><vdop>5.75</vdop><extensions><gom:speed>0.0</gom:speed></extensions></trkpt>
   <trkpt lat="59.0638273509" lon="30.028684067"><ele>100.086</ele><time>2026-04-20T18:41:52.075Z</time><hdop>12.375</hdop><vdop>5.875</vdop><extensions><gom:speed>0.0</gom:speed></extensions></trkpt>
   <trkpt lat="59.0638272252" lon="30.028684067"><ele>100.085</ele><time>2026-04-20T18:41:53.076Z</time><hdop>12.75</hdop><vdop>5.875</vdop><extensions><gom:speed>0.0</gom:speed></extensions></trkpt>
   <trkpt lat="59.0638272252" lon="30.028684067"><ele>100.085</ele><time>2026-04-20T18:41:54.075Z</time><hdop>13.0</hdop><vdop>5.75</vdop><extensions><gom:speed>0.0</gom:speed></extensions></trkpt>
   <trkpt lat="59.0638272252" lon="30.028684067"><ele>100.083</ele><time>2026-04-20T18:41:55.075Z</time><hdop>13.125</hdop><vdop>5.625</vdop><extensions><gom:speed>0.0</gom:speed></extensions></trkpt>
   <trkpt lat="59.0638271414" lon="30.028684067"><ele>100.084</ele><time>2026-04-20T18:41:56.076Z</time><hdop>13.125</hdop><vdop>5.625</vdop><extensions><gom:speed>0.0</gom:speed></extensions></trkpt>
   <trkpt lat="59.0638271414" lon="30.028684067"><ele>100.084</ele><time>2026-04-20T18:41:57.076Z</time><hdop>13.0</hdop><vdop>5.5</vdop><extensions><gom:speed>0.0</gom:speed></extensions></trkpt>
   <trkpt lat="59.0638271414" lon="30.0286841508"><ele>100.085</ele><time>2026-04-20T18:41:58.075Z</time><hdop>13.0</hdop><vdop>5.5</vdop><extensions><gom:speed>0.0</gom:speed></extensions></trkpt>
   <trkpt lat="59.0638270576" lon="30.0286841508"><ele>100.085</ele><time>2026-04-20T18:41:59.076Z</time><hdop>13.0</hdop><vdop>5.625</vdop><extensions><gom:speed>0.0</gom:speed></extensions></trkpt>
   <trkpt lat="59.0638270576" lon="30.0286841508"><ele>100.086</ele><time>2026-04-20T18:42:00.076Z</time><hdop>13.0</hdop><vdop>5.75</vdop><extensions><gom:speed>0.0</gom:speed></extensions></trkpt>
   <trkpt lat="59.0638269318" lon="30.0286841508"><ele>100.085</ele><time>2026-04-20T18:42:01.075Z</time><hdop>13.0</hdop><vdop>5.75</vdop><extensions><gom:speed>0.0</gom:speed></extensions></trkpt>
   <trkpt lat="59.0638269318" lon="30.0286841508"><ele>100.082</ele><time>2026-04-20T18:42:02.075Z</time><hdop>13.125</hdop><vdop>5.875</vdop><extensions><gom:speed>0.0</gom:speed></extensions></trkpt>
   <trkpt lat="59.063826848" lon="30.0286842347"><ele>100.079</ele><time>2026-04-20T18:42:03.075Z</time><hdop>12.875</hdop><vdop>5.75</vdop><extensions><gom:speed>0.0</gom:speed></extensions></trkpt>
   <trkpt lat="59.063826848" lon="30.0286842347"><ele>100.076</ele><time>2026-04-20T18:42:04.076Z</time><hdop>12.625</hdop><vdop>5.625</vdop><extensions><gom:speed>0.0</gom:speed></extensions></trkpt>
   <trkpt lat="59.0638267223" lon="30.0286844023"><ele>100.074</ele><time>2026-04-20T18:42:05.075Z</time><hdop>12.25</hdop><vdop>5.5</vdop><extensions><gom:speed>0.0</gom:speed></extensions></trkpt>
   <trkpt lat="59.0637943262" lon="30.0287348614"><ele>99.548</ele><time>2026-04-20T18:42:06.075Z</time><hdop>11.625</hdop><vdop>3.875</vdop><extensions><gom:speed>0.438</gom:speed></extensions></trkpt>
   <trkpt lat="59.0637523329" lon="30.0287958816"><ele>98.419</ele><time>2026-04-20T18:42:07.076Z</time><hdop>11.25</hdop><vdop>5.375</vdop><extensions><gom:speed>0.0</gom:speed></extensions></trkpt>
   <trkpt lat="59.0637232477" lon="30.0288361148"><ele>98.378</ele><time>2026-04-20T18:42:08.076Z</time><hdop>10.75</hdop><vdop>5.125</vdop><extensions><gom:speed>0.0</gom:speed></extensions></trkpt>
   <trkpt lat="59.0637047237" lon="30.0288569019"><ele>98.34</ele><time>2026-04-20T18:42:09.075Z</time><hdop>10.5</hdop><vdop>4.875</vdop><extensions><gom:speed>0.0</gom:speed></extensions></trkpt>
   <trkpt lat="59.0636957551" lon="30.028862853"><ele>98.347</ele><time>2026-04-20T18:42:10.075Z</time><hdop>10.375</hdop><vdop>4.75</vdop><extensions><gom:speed>0.0</gom:speed></extensions></trkpt>
   <trkpt lat="59.0636849424" lon="30.0288794492"><ele>98.514</ele><time>2026-04-20T18:42:11.075Z</time><hdop>10.25</hdop><vdop>4.125</vdop><extensions><gom:speed>1.608</gom:speed></extensions></trkpt>
   <trkpt lat="59.0636794523" lon="30.0288933632"><ele>98.188</ele><time>2026-04-20T18:42:12.076Z</time><hdop>10.25</hdop><vdop>3.5</vdop><extensions><gom:speed>0.228</gom:speed></extensions></trkpt>
   <trkpt lat="59.063674926" lon="30.0289006554"><ele>97.891</ele><time>2026-04-20T18:42:13.075Z</time><hdop>10.125</hdop><vdop>3.125</vdop><extensions><gom:speed>0.508</gom:speed></extensions></trkpt>
   <trkpt lat="59.0636699388" lon="30.0289140665"><ele>97.261</ele><time>2026-04-20T18:42:14.076Z</time><hdop>10.125</hdop><vdop>3.0</vdop><extensions><gom:speed>0.738</gom:speed></extensions></trkpt>
   <trkpt lat="59.0636609282" lon="30.0289299921"><ele>96.988</ele><time>2026-04-20T18:42:15.075Z</time><hdop>10.0</hdop><vdop>3.0</vdop><extensions><gom:speed>0.848</gom:speed></extensions></trkpt>
   <trkpt lat="59.0636541389" lon="30.0289449119"><ele>96.753</ele><time>2026-04-20T18:42:16.075Z</time><hdop>9.875</hdop><vdop>2.875</vdop><extensions><gom:speed>0.278</gom:speed></extensions></trkpt>
   <trkpt lat="59.0636487326" lon="30.0289558922"><ele>96.134</ele><time>2026-04-20T18:42:17.075Z</time><hdop>9.875</hdop><vdop>2.75</vdop><extensions><gom:speed>0.448</gom:speed></extensions></trkpt>
   <trkpt lat="59.0636402249" lon="30.0289719854"><ele>95.968</ele><time>2026-04-20T18:42:18.075Z</time><hdop>10.0</hdop><vdop>5.25</vdop><extensions><gom:speed>0.0</gom:speed></extensions></trkpt>
   <trkpt lat="59.0636389258" lon="30.0289774336"><ele>95.608</ele><time>2026-04-20T18:42:19.076Z</time><hdop>10.0</hdop><vdop>5.25</vdop><extensions><gom:speed>0.0</gom:speed></extensions></trkpt>
   <trkpt lat="59.0636386324" lon="30.0289801997"><ele>95.308</ele><time>2026-04-20T18:42:20.075Z</time><hdop>10.125</hdop><vdop>5.375</vdop><extensions><gom:speed>0.0</gom:speed></extensions></trkpt>
   <trkpt lat="59.0636382552" lon="30.0289844744"><ele>95.091</ele><time>2026-04-20T18:42:21.075Z</time><hdop>10.25</hdop><vdop>5.0</vdop><extensions><gom:speed>0.0</gom:speed></extensions></trkpt>
   <trkpt lat="59.0636372494" lon="30.0289890845"><ele>94.861</ele><time>2026-04-20T18:42:22.075Z</time><hdop>10.25</hdop><vdop>4.875</vdop><extensions><gom:speed>0.0</gom:speed></extensions></trkpt>
   <trkpt lat="59.0636380457" lon="30.028994868"><ele>94.797</ele><time>2026-04-20T18:42:23.075Z</time><hdop>10.375</hdop><vdop>5.0</vdop><extensions><gom:speed>0.0</gom:speed></extensions></trkpt>
   <trkpt lat="59.0636402249" lon="30.0289988075"><ele>94.809</ele><time>2026-04-20T18:42:24.075Z</time><hdop>10.25</hdop><vdop>4.875</vdop><extensions><gom:speed>0.0</gom:speed></extensions></trkpt>
   <trkpt lat="59.0636436196" lon="30.0290112127"><ele>94.716</ele><time>2026-04-20T18:42:25.075Z</time><hdop>10.25</hdop><vdop>4.75</vdop><extensions><gom:speed>0.998</gom:speed></extensions></trkpt>
   <trkpt lat="59.0636497384" lon="30.0290446565"><ele>94.687</ele><time>2026-04-20T18:42:26.076Z</time><hdop>10.125</hdop><vdop>3.625</vdop><extensions><gom:speed>1.308</gom:speed></extensions></trkpt>
   <trkpt lat="59.063658246" lon="30.029081956"><ele>94.43</ele><time>2026-04-20T18:42:27.075Z</time><hdop>10.125</hdop><vdop>3.125</vdop><extensions><gom:speed>1.348</gom:speed></extensions></trkpt>
   <trkpt lat="59.0636650354" lon="30.0291145616"><ele>94.169</ele><time>2026-04-20T18:42:28.075Z</time><hdop>10.0</hdop><vdop>3.25</vdop><extensions><gom:speed>1.128</gom:speed></extensions></trkpt>
   <trkpt lat="59.0636714475" lon="30.029135684"><ele>93.899</ele><time>2026-04-20T18:42:29.075Z</time><hdop>10.0</hdop><vdop>3.375</vdop><extensions><gom:speed>0.638</gom:speed></extensions></trkpt>
   <trkpt lat="59.0636780273" lon="30.0291464966"><ele>93.625</ele><time>2026-04-20T18:42:30.075Z</time><hdop>9.875</hdop><vdop>3.5</vdop><extensions><gom:speed>0.368</gom:speed></extensions></trkpt>
   <trkpt lat="59.0636833498" lon="30.0291540403"><ele>93.244</ele><time>2026-04-20T18:42:31.075Z</time><hdop>9.875</hdop><vdop>3.625</vdop><extensions><gom:speed>0.208</gom:speed></extensions></trkpt>
   <trkpt lat="59.0636884209" lon="30.0291534536"><ele>92.76</ele><time>2026-04-20T18:42:32.075Z</time><hdop>9.875</hdop><vdop>3.5</vdop><extensions><gom:speed>0.188</gom:speed></extensions></trkpt>
   <trkpt lat="59.0636618503" lon="30.0291526154"><ele>92.411</ele><time>2026-04-20T18:42:33.075Z</time><hdop>9.0</hdop><vdop>3.5</vdop><extensions><gom:speed>0.73</gom:speed></extensions></trkpt>
   <trkpt lat="59.0636637362" lon="30.0291626737"><ele>92.081</ele><time>2026-04-20T18:42:34.075Z</time><hdop>7.75</hdop><vdop>3.375</vdop><extensions><gom:speed>0.68</gom:speed></extensions></trkpt>
   <trkpt lat="59.06366382" lon="30.0291714747"><ele>91.884</ele><time>2026-04-20T18:42:34.776Z</time><hdop>6.75</hdop><vdop>3.375</vdop><extensions><gom:speed>0.713</gom:speed></extensions></trkpt>
   <trkpt lat="59.063667047" lon="30.0291806948"><ele>91.776</ele><time>2026-04-20T18:42:35.792Z</time><hdop>5.875</hdop><vdop>3.125</vdop><extensions><gom:speed>0.643</gom:speed></extensions></trkpt>
   <trkpt lat="59.0636705255" lon="30.0291825388"><ele>91.547</ele><time>2026-04-20T18:42:36.351Z</time><hdop>5.75</hdop><vdop>3.0</vdop><extensions><gom:speed>0.639</gom:speed></extensions></trkpt>
   <trkpt lat="59.0636730401" lon="30.0291917589"><ele>91.574</ele><time>2026-04-20T18:42:37.076Z</time><hdop>5.25</hdop><vdop>5.125</vdop><extensions><gom:speed>0.606</gom:speed></extensions></trkpt>
   <trkpt lat="59.0636729563" lon="30.0292005599"><ele>91.591</ele><time>2026-04-20T18:42:37.876Z</time><hdop>4.875</hdop><vdop>5.125</vdop><extensions><gom:speed>0.708</gom:speed></extensions></trkpt>
   <trkpt lat="59.0636714475" lon="30.0292115402"><ele>91.612</ele><time>2026-04-20T18:42:38.595Z</time><hdop>4.875</hdop><vdop>5.25</vdop><extensions><gom:speed>0.746</gom:speed></extensions></trkpt>
   <trkpt lat="59.0636738364" lon="30.0292169884"><ele>91.742</ele><time>2026-04-20T18:42:39.075Z</time><hdop>5.0</hdop><vdop>5.375</vdop><extensions><gom:speed>0.69</gom:speed></extensions></trkpt>
   <trkpt lat="59.0636759319" lon="30.0292311539"><ele>91.836</ele><time>2026-04-20T18:42:40.014Z</time><hdop>5.125</hdop><vdop>5.5</vdop><extensions><gom:speed>0.716</gom:speed></extensions></trkpt>
   <trkpt lat="59.0636778178" lon="30.0292466604"><ele>91.889</ele><time>2026-04-20T18:42:40.962Z</time><hdop>5.5</hdop><vdop>5.5</vdop><extensions><gom:speed>0.881</gom:speed></extensions></trkpt>
   <trkpt lat="59.063686535" lon="30.029258395"><ele>91.879</ele><time>2026-04-20T18:42:42.075Z</time><hdop>5.75</hdop><vdop>5.5</vdop><extensions><gom:speed>0.828</gom:speed></extensions></trkpt>
   <trkpt lat="59.0636939529" lon="30.0292725605"><ele>91.873</ele><time>2026-04-20T18:42:42.998Z</time><hdop>6.25</hdop><vdop>5.5</vdop><extensions><gom:speed>0.788</gom:speed></extensions></trkpt>
   <trkpt lat="59.0636960484" lon="30.0292796851"><ele>91.748</ele><time>2026-04-20T18:42:43.916Z</time><hdop>6.5</hdop><vdop>5.375</vdop><extensions><gom:speed>0.682</gom:speed></extensions></trkpt>
   <trkpt lat="59.0636968447" lon="30.0292728119"><ele>91.514</ele><time>2026-04-20T18:42:44.989Z</time><hdop>6.75</hdop><vdop>5.0</vdop><extensions><gom:speed>0.333</gom:speed></extensions></trkpt>
   <trkpt lat="59.0636963418" lon="30.0292692077"><ele>91.374</ele><time>2026-04-20T18:42:45.763Z</time><hdop>6.875</hdop><vdop>5.0</vdop><extensions><gom:speed>0.258</gom:speed></extensions></trkpt>
   <trkpt lat="59.0636966352" lon="30.0292666093"><ele>91.319</ele><time>2026-04-20T18:42:46.512Z</time><hdop>6.875</hdop><vdop>5.125</vdop><extensions><gom:speed>0.224</gom:speed></extensions></trkpt>
   <trkpt lat="59.0636971381" lon="30.0292669446"><ele>91.287</ele><time>2026-04-20T18:42:47.056Z</time><hdop>6.875</hdop><vdop>5.125</vdop><extensions><gom:speed>0.241</gom:speed></extensions></trkpt>
   <trkpt lat="59.0636973476" lon="30.0292604067"><ele>91.367</ele><time>2026-04-20T18:42:47.950Z</time><hdop>6.75</hdop><vdop>5.25</vdop><extensions><gom:speed>0.143</gom:speed></extensions></trkpt>
   <trkpt lat="59.063696719" lon="30.0292578921"><ele>91.414</ele><time>2026-04-20T18:42:48.661Z</time><hdop>6.75</hdop><vdop>5.25</vdop><extensions><gom:speed>0.072</gom:speed></extensions></trkpt>
   <trkpt lat="59.0636966352" lon="30.0292545394"><ele>91.559</ele><time>2026-04-20T18:42:49.964Z</time><hdop>6.625</hdop><vdop>5.625</vdop><extensions><gom:speed>0.082</gom:speed></extensions></trkpt>
   <trkpt lat="59.0636952521" lon="30.0292542879"><ele>91.624</ele><time>2026-04-20T18:42:51.030Z</time><hdop>6.5</hdop><vdop>5.75</vdop><extensions><gom:speed>0.083</gom:speed></extensions></trkpt>
   <trkpt lat="59.0636943301" lon="30.0292517733"><ele>91.684</ele><time>2026-04-20T18:42:52.075Z</time><hdop>6.375</hdop><vdop>5.875</vdop><extensions><gom:speed>0.07</gom:speed></extensions></trkpt>
   <trkpt lat="59.0636944559" lon="30.0292514381"><ele>91.719</ele><time>2026-04-20T18:42:52.977Z</time><hdop>6.25</hdop><vdop>5.875</vdop><extensions><gom:speed>0.101</gom:speed></extensions></trkpt>
   <trkpt lat="59.0636946235" lon="30.029250516"><ele>91.771</ele><time>2026-04-20T18:42:53.639Z</time><hdop>6.25</hdop><vdop>5.875</vdop><extensions><gom:speed>0.073</gom:speed></extensions></trkpt>
   <trkpt lat="59.0636957551" lon="30.0292495102"><ele>91.767</ele><time>2026-04-20T18:42:54.894Z</time><hdop>6.25</hdop><vdop>6.0</vdop><extensions><gom:speed>0.093</gom:speed></extensions></trkpt>
   <trkpt lat="59.0636968447" lon="30.0292481691"><ele>91.785</ele><time>2026-04-20T18:42:56.005Z</time><hdop>6.25</hdop><vdop>6.125</vdop><extensions><gom:speed>0.113</gom:speed></extensions></trkpt>
   <trkpt lat="59.0636971381" lon="30.0292467442"><ele>91.794</ele><time>2026-04-20T18:42:56.953Z</time><hdop>6.25</hdop><vdop>6.125</vdop><extensions><gom:speed>0.1</gom:speed></extensions></trkpt>
   <trkpt lat="59.0636982277" lon="30.0292464927"><ele>91.804</ele><time>2026-04-20T18:42:58.019Z</time><hdop>6.375</hdop><vdop>6.25</vdop><extensions><gom:speed>0.109</gom:speed></extensions></trkpt>
   <trkpt lat="59.0636997365" lon="30.0292464089"><ele>91.814</ele><time>2026-04-20T18:42:58.967Z</time><hdop>6.375</hdop><vdop>6.5</vdop><extensions><gom:speed>0.122</gom:speed></extensions></trkpt>
   <trkpt lat="59.0637010357" lon="30.0292464089"><ele>91.82</ele><time>2026-04-20T18:42:59.897Z</time><hdop>6.5</hdop><vdop>6.5</vdop><extensions><gom:speed>0.147</gom:speed></extensions></trkpt>
   <trkpt lat="59.0637015386" lon="30.0292460736"><ele>91.838</ele><time>2026-04-20T18:43:00.599Z</time><hdop>6.625</hdop><vdop>6.5</vdop><extensions><gom:speed>0.148</gom:speed></extensions></trkpt>
   <trkpt lat="59.0637024187" lon="30.0292455707"><ele>91.854</ele><time>2026-04-20T18:43:01.475Z</time><hdop>6.75</hdop><vdop>6.375</vdop><extensions><gom:speed>0.172</gom:speed></extensions></trkpt>
   <trkpt lat="59.0637034245" lon="30.0292456545"><ele>91.855</ele><time>2026-04-20T18:43:02.047Z</time><hdop>6.75</hdop><vdop>6.0</vdop><extensions><gom:speed>0.198</gom:speed></extensions></trkpt>
   <trkpt lat="59.0637059391" lon="30.0292478338"><ele>91.869</ele><time>2026-04-20T18:43:02.993Z</time><hdop>6.875</hdop><vdop>5.75</vdop><extensions><gom:speed>0.266</gom:speed></extensions></trkpt>
   <trkpt lat="59.0637095433" lon="30.0292495102"><ele>91.877</ele><time>2026-04-20T18:43:03.975Z</time><hdop>7.0</hdop><vdop>5.75</vdop><extensions><gom:speed>0.329</gom:speed></extensions></trkpt>
   <trkpt lat="59.0637132313" lon="30.029249594"><ele>91.904</ele><time>2026-04-20T18:43:04.863Z</time><hdop>7.0</hdop><vdop>5.625</vdop><extensions><gom:speed>0.343</gom:speed></extensions></trkpt>
   <trkpt lat="59.0637160393" lon="30.0292475824"><ele>91.975</ele><time>2026-04-20T18:43:05.956Z</time><hdop>7.25</hdop><vdop>5.5</vdop><extensions><gom:speed>0.278</gom:speed></extensions></trkpt>
   <trkpt lat="59.0637165422" lon="30.0292462413"><ele>92.018</ele><time>2026-04-20T18:43:06.737Z</time><hdop>7.5</hdop><vdop>5.5</vdop><extensions><gom:speed>0.216</gom:speed></extensions></trkpt>
   <trkpt lat="59.0637167517" lon="30.0292460736"><ele>92.053</ele><time>2026-04-20T18:43:07.258Z</time><hdop>7.5</hdop><vdop>5.5</vdop><extensions><gom:speed>0.232</gom:speed></extensions></trkpt>
   <trkpt lat="59.0637170451" lon="30.0292459898"><ele>92.074</ele><time>2026-04-20T18:43:07.892Z</time><hdop>7.625</hdop><vdop>5.5</vdop><extensions><gom:speed>0.166</gom:speed></extensions></trkpt>
   <trkpt lat="59.0637159554" lon="30.029244984"><ele>92.085</ele><time>2026-04-20T18:43:09.034Z</time><hdop>7.75</hdop><vdop>5.25</vdop><extensions><gom:speed>0.158</gom:speed></extensions></trkpt>
   <trkpt lat="59.0637157459" lon="30.0292444811"><ele>92.092</ele><time>2026-04-20T18:43:09.502Z</time><hdop>7.75</hdop><vdop>5.25</vdop><extensions><gom:speed>0.137</gom:speed></extensions></trkpt>
   <trkpt lat="59.0637160393" lon="30.0292443134"><ele>92.097</ele><time>2026-04-20T18:43:09.982Z</time><hdop>7.875</hdop><vdop>5.0</vdop><extensions><gom:speed>0.157</gom:speed></extensions></trkpt>
   <trkpt lat="59.0637169194" lon="30.0292438943"><ele>92.1</ele><time>2026-04-20T18:43:10.517Z</time><hdop>7.875</hdop><vdop>5.0</vdop><extensions><gom:speed>0.151</gom:speed></extensions></trkpt>
   <trkpt lat="59.0637178414" lon="30.0292438105"><ele>92.106</ele><time>2026-04-20T18:43:11.048Z</time><hdop>8.0</hdop><vdop>4.875</vdop><extensions><gom:speed>0.175</gom:speed></extensions></trkpt>
   <trkpt lat="59.0637194339" lon="30.02924314"><ele>92.109</ele><time>2026-04-20T18:43:11.840Z</time><hdop>8.125</hdop><vdop>4.875</vdop><extensions><gom:speed>0.173</gom:speed></extensions></trkpt>
   <trkpt lat="59.0637170451" lon="30.0292397034"><ele>92.111</ele><time>2026-04-20T18:43:12.838Z</time><hdop>8.0</hdop><vdop>4.625</vdop><extensions><gom:speed>0.142</gom:speed></extensions></trkpt>
   <trkpt lat="59.0637176318" lon="30.0292397034"><ele>91.784</ele><time>2026-04-20T18:43:13.417Z</time><hdop>7.75</hdop><vdop>4.0</vdop><extensions><gom:speed>0.174</gom:speed></extensions></trkpt>
   <trkpt lat="59.0637223257" lon="30.0292435591"><ele>90.828</ele><time>2026-04-20T18:43:14.075Z</time><hdop>7.5</hdop><vdop>4.375</vdop><extensions><gom:speed>0.247</gom:speed></extensions></trkpt>
   <trkpt lat="59.0637295341" lon="30.0292492588"><ele>90.286</ele><time>2026-04-20T18:43:15.075Z</time><hdop>7.25</hdop><vdop>4.375</vdop><extensions><gom:speed>0.302</gom:speed></extensions></trkpt>
   <trkpt lat="59.0637394248" lon="30.0292594009"><ele>89.82</ele><time>2026-04-20T18:43:16.075Z</time><hdop>6.875</hdop><vdop>4.25</vdop><extensions><gom:speed>0.408</gom:speed></extensions></trkpt>
   <trkpt lat="59.0637515366" lon="30.0292723928"><ele>89.018</ele><time>2026-04-20T18:43:17.075Z</time><hdop>6.375</hdop><vdop>4.25</vdop><extensions><gom:speed>0.49</gom:speed></extensions></trkpt>
   <trkpt lat="59.0637581164" lon="30.0292749074"><ele>88.001</ele><time>2026-04-20T18:43:18.036Z</time><hdop>6.25</hdop><vdop>4.25</vdop><extensions><gom:speed>0.466</gom:speed></extensions></trkpt>
   <trkpt lat="59.0637608405" lon="30.0292708841"><ele>87.008</ele><time>2026-04-20T18:43:18.985Z</time><hdop>6.25</hdop><vdop>4.375</vdop><extensions><gom:speed>0.422</gom:speed></extensions></trkpt>
   <trkpt lat="59.0637625169" lon="30.0292692077"><ele>86.414</ele><time>2026-04-20T18:43:19.540Z</time><hdop>6.25</hdop><vdop>4.375</vdop><extensions><gom:speed>0.451</gom:speed></extensions></trkpt>
   <trkpt lat="59.0637689291" lon="30.0292739854"><ele>85.992</ele><time>2026-04-20T18:43:20.076Z</time><hdop>6.25</hdop><vdop>4.375</vdop><extensions><gom:speed>0.435</gom:speed></extensions></trkpt>
   <trkpt lat="59.0637713179" lon="30.0292754103"><ele>85.739</ele><time>2026-04-20T18:43:20.695Z</time><hdop>6.25</hdop><vdop>4.375</vdop><extensions><gom:speed>0.43</gom:speed></extensions></trkpt>
   <trkpt lat="59.0637746288" lon="30.0292756618"><ele>85.848</ele><time>2026-04-20T18:43:21.612Z</time><hdop>6.25</hdop><vdop>4.5</vdop><extensions><gom:speed>0.413</gom:speed></extensions></trkpt>
   <trkpt lat="59.0637779396" lon="30.0292801042"><ele>85.644</ele><time>2026-04-20T18:43:22.075Z</time><hdop>6.25</hdop><vdop>4.375</vdop><extensions><gom:speed>0.388</gom:speed></extensions></trkpt>
   <trkpt lat="59.0637799513" lon="30.0292818644"><ele>85.521</ele><time>2026-04-20T18:43:22.639Z</time><hdop>6.25</hdop><vdop>4.375</vdop><extensions><gom:speed>0.331</gom:speed></extensions></trkpt>
   <trkpt lat="59.0637822563" lon="30.0292823673"><ele>85.274</ele><time>2026-04-20T18:43:23.536Z</time><hdop>6.125</hdop><vdop>4.75</vdop><extensions><gom:speed>0.323</gom:speed></extensions></trkpt>
   <trkpt lat="59.0637843518" lon="30.0292866421"><ele>85.154</ele><time>2026-04-20T18:43:24.075Z</time><hdop>6.125</hdop><vdop>5.0</vdop><extensions><gom:speed>0.312</gom:speed></extensions></trkpt>
   <trkpt lat="59.0637873273" lon="30.0292894081"><ele>85.22</ele><time>2026-04-20T18:43:25.025Z</time><hdop>5.875</hdop><vdop>4.875</vdop><extensions><gom:speed>0.286</gom:speed></extensions></trkpt>
   <trkpt lat="59.0637885427" lon="30.0292912521"><ele>85.26</ele><time>2026-04-20T18:43:25.736Z</time><hdop>5.875</hdop><vdop>4.875</vdop><extensions><gom:speed>0.277</gom:speed></extensions></trkpt>
   <trkpt lat="59.0637910573" lon="30.0293004722"><ele>85.4</ele><time>2026-04-20T18:43:26.955Z</time><hdop>5.625</hdop><vdop>4.75</vdop><extensions><gom:speed>0.235</gom:speed></extensions></trkpt>
   <trkpt lat="59.0637922308" lon="30.0293067586"><ele>85.759</ele><time>2026-04-20T18:43:28.075Z</time><hdop>5.625</hdop><vdop>4.75</vdop><extensions><gom:speed>0.184</gom:speed></extensions></trkpt>
   <trkpt lat="59.0637927337" lon="30.0293108658"><ele>86.108</ele><time>2026-04-20T18:43:29.052Z</time><hdop>5.5</hdop><vdop>4.75</vdop><extensions><gom:speed>0.204</gom:speed></extensions></trkpt>
   <trkpt lat="59.0637956254" lon="30.0293186609"><ele>86.447</ele><time>2026-04-20T18:43:30.075Z</time><hdop>5.5</hdop><vdop>4.625</vdop><extensions><gom:speed>0.268</gom:speed></extensions></trkpt>
   <trkpt lat="59.063800445" lon="30.0293262885"><ele>86.769</ele><time>2026-04-20T18:43:31.007Z</time><hdop>5.5</hdop><vdop>4.375</vdop><extensions><gom:speed>0.397</gom:speed></extensions></trkpt>
   <trkpt lat="59.0638033368" lon="30.0293299765"><ele>86.962</ele><time>2026-04-20T18:43:31.819Z</time><hdop>5.625</hdop><vdop>4.375</vdop><extensions><gom:speed>0.407</gom:speed></extensions></trkpt>
   <trkpt lat="59.0638068572" lon="30.02933115"><ele>87.138</ele><time>2026-04-20T18:43:32.599Z</time><hdop>6.0</hdop><vdop>4.25</vdop><extensions><gom:speed>0.401</gom:speed></extensions></trkpt>
   <trkpt lat="59.0638086174" lon="30.0293321558"><ele>87.281</ele><time>2026-04-20T18:43:33.075Z</time><hdop>6.0</hdop><vdop>4.25</vdop><extensions><gom:speed>0.388</gom:speed></extensions></trkpt>
   <trkpt lat="59.0638114253" lon="30.0293342513"><ele>87.397</ele><time>2026-04-20T18:43:34.027Z</time><hdop>6.125</hdop><vdop>4.25</vdop><extensions><gom:speed>0.368</gom:speed></extensions></trkpt>
   <trkpt lat="59.0638129341" lon="30.0293372687"><ele>87.466</ele><time>2026-04-20T18:43:34.839Z</time><hdop>6.375</hdop><vdop>4.25</vdop><extensions><gom:speed>0.355</gom:speed></extensions></trkpt>
   <trkpt lat="59.0638145266" lon="30.0293412082"><ele>87.613</ele><time>2026-04-20T18:43:36.075Z</time><hdop>6.25</hdop><vdop>4.125</vdop><extensions><gom:speed>0.276</gom:speed></extensions></trkpt>
   <trkpt lat="59.0638163287" lon="30.0293430523"><ele>87.759</ele><time>2026-04-20T18:43:37.075Z</time><hdop>6.125</hdop><vdop>4.0</vdop><extensions><gom:speed>0.261</gom:speed></extensions></trkpt>
   <trkpt lat="59.0638197234" lon="30.0293450639"><ele>87.857</ele><time>2026-04-20T18:43:38.055Z</time><hdop>6.0</hdop><vdop>4.125</vdop><extensions><gom:speed>0.352</gom:speed></extensions></trkpt>
   <trkpt lat="59.0638198491" lon="30.0293429684"><ele>87.939</ele><time>2026-04-20T18:43:39.002Z</time><hdop>5.875</hdop><vdop>4.25</vdop><extensions><gom:speed>0.25</gom:speed></extensions></trkpt>
   <trkpt lat="59.0638182566" lon="30.0293381908"><ele>88.006</ele><time>2026-04-20T18:43:40.075Z</time><hdop>5.625</hdop><vdop>4.0</vdop><extensions><gom:speed>0.143</gom:speed></extensions></trkpt>
   <trkpt lat="59.063818047" lon="30.0293369335"><ele>88.059</ele><time>2026-04-20T18:43:41.075Z</time><hdop>5.375</hdop><vdop>4.0</vdop><extensions><gom:speed>0.151</gom:speed></extensions></trkpt>
   <trkpt lat="59.0638186338" lon="30.0293383584"><ele>88.101</ele><time>2026-04-20T18:43:42.076Z</time><hdop>5.25</hdop><vdop>4.0</vdop><extensions><gom:speed>0.164</gom:speed></extensions></trkpt>
   <trkpt lat="59.0638190528" lon="30.0293391966"><ele>88.127</ele><time>2026-04-20T18:43:42.953Z</time><hdop>5.125</hdop><vdop>4.0</vdop><extensions><gom:speed>0.132</gom:speed></extensions></trkpt>
   <trkpt lat="59.0638201425" lon="30.0293400348"><ele>88.171</ele><time>2026-04-20T18:43:44.075Z</time><hdop>4.875</hdop><vdop>3.875</vdop><extensions><gom:speed>0.121</gom:speed></extensions></trkpt>
   <trkpt lat="59.0638206454" lon="30.0293397833"><ele>88.205</ele><time>2026-04-20T18:43:45.075Z</time><hdop>4.5</hdop><vdop>3.875</vdop><extensions><gom:speed>0.121</gom:speed></extensions></trkpt>
   <trkpt lat="59.0638209388" lon="30.029340873"><ele>88.247</ele><time>2026-04-20T18:43:46.075Z</time><hdop>4.375</hdop><vdop>4.0</vdop><extensions><gom:speed>0.131</gom:speed></extensions></trkpt>
   <trkpt lat="59.0638215255" lon="30.029341795"><ele>88.277</ele><time>2026-04-20T18:43:47.075Z</time><hdop>4.25</hdop><vdop>4.0</vdop><extensions><gom:speed>0.12</gom:speed></extensions></trkpt>
   <trkpt lat="59.0638220284" lon="30.0293419626"><ele>88.295</ele><time>2026-04-20T18:43:47.721Z</time><hdop>4.25</hdop><vdop>4.0</vdop><extensions><gom:speed>0.158</gom:speed></extensions></trkpt>
   <trkpt lat="59.0638233276" lon="30.029339951"><ele>88.308</ele><time>2026-04-20T18:43:48.817Z</time><hdop>4.125</hdop><vdop>4.0</vdop><extensions><gom:speed>0.161</gom:speed></extensions></trkpt>
   <trkpt lat="59.0638235372" lon="30.0293388613"><ele>88.319</ele><time>2026-04-20T18:43:49.301Z</time><hdop>4.125</hdop><vdop>4.0</vdop><extensions><gom:speed>0.155</gom:speed></extensions></trkpt>
   <trkpt lat="59.063823621" lon="30.0293379393"><ele>88.328</ele><time>2026-04-20T18:43:50.075Z</time><hdop>4.125</hdop><vdop>4.125</vdop><extensions><gom:speed>0.175</gom:speed></extensions></trkpt>
   <trkpt lat="59.0638254231" lon="30.0293373526"><ele>87.207</ele><time>2026-04-20T18:43:51.076Z</time><hdop>4.0</hdop><vdop>3.75</vdop><extensions><gom:speed>0.219</gom:speed></extensions></trkpt>
   <trkpt lat="59.0638267223" lon="30.0293368497"><ele>86.538</ele><time>2026-04-20T18:43:51.876Z</time><hdop>4.0</hdop><vdop>3.75</vdop><extensions><gom:speed>0.237</gom:speed></extensions></trkpt>
   <trkpt lat="59.0638285244" lon="30.0293448125"><ele>86.295</ele><time>2026-04-20T18:43:53.075Z</time><hdop>4.0</hdop><vdop>4.375</vdop><extensions><gom:speed>0.198</gom:speed></extensions></trkpt>
   <trkpt lat="59.0638309552" lon="30.0293521047"><ele>86.267</ele><time>2026-04-20T18:43:54.076Z</time><hdop>4.0</hdop><vdop>4.625</vdop><extensions><gom:speed>0.208</gom:speed></extensions></trkpt>
   <trkpt lat="59.0638341403" lon="30.0293622468"><ele>86.022</ele><time>2026-04-20T18:43:55.076Z</time><hdop>4.0</hdop><vdop>4.75</vdop><extensions><gom:speed>0.261</gom:speed></extensions></trkpt>
   <trkpt lat="59.0638390437" lon="30.0293679465"><ele>85.876</ele><time>2026-04-20T18:43:55.974Z</time><hdop>4.125</hdop><vdop>4.75</vdop><extensions><gom:speed>0.37</gom:speed></extensions></trkpt>
   <trkpt lat="59.0638425222" lon="30.029378843"><ele>86.045</ele><time>2026-04-20T18:43:56.651Z</time><hdop>4.25</hdop><vdop>4.875</vdop><extensions><gom:speed>0.41</gom:speed></extensions></trkpt>
   <trkpt lat="59.0638527481" lon="30.0294003007"><ele>86.314</ele><time>2026-04-20T18:43:57.798Z</time><hdop>4.5</hdop><vdop>5.0</vdop><extensions><gom:speed>0.477</gom:speed></extensions></trkpt>
   <trkpt lat="59.0638572324" lon="30.0294138793"><ele>86.201</ele><time>2026-04-20T18:43:58.677Z</time><hdop>4.75</hdop><vdop>5.0</vdop><extensions><gom:speed>0.461</gom:speed></extensions></trkpt>
   <trkpt lat="59.0638595374" lon="30.0294280448"><ele>86.128</ele><time>2026-04-20T18:43:59.180Z</time><hdop>4.875</hdop><vdop>4.875</vdop><extensions><gom:speed>0.467</gom:speed></extensions></trkpt>
   <trkpt lat="59.06386113" lon="30.0294435513"><ele>86.075</ele><time>2026-04-20T18:44:00.075Z</time><hdop>4.875</hdop><vdop>4.875</vdop><extensions><gom:speed>0.446</gom:speed></extensions></trkpt>
   <trkpt lat="59.0638599565" lon="30.0294553698"><ele>86.034</ele><time>2026-04-20T18:44:01.075Z</time><hdop>5.0</hdop><vdop>5.0</vdop><extensions><gom:speed>0.31</gom:speed></extensions></trkpt>
   <trkpt lat="59.0638590345" lon="30.0294544478"><ele>86.009</ele><time>2026-04-20T18:44:01.640Z</time><hdop>5.125</hdop><vdop>5.0</vdop><extensions><gom:speed>0.189</gom:speed></extensions></trkpt>
   <trkpt lat="59.0638582382" lon="30.0294515141"><ele>85.833</ele><time>2026-04-20T18:44:02.459Z</time><hdop>5.125</hdop><vdop>4.875</vdop><extensions><gom:speed>0.099</gom:speed></extensions></trkpt>
   <trkpt lat="59.0638584478" lon="30.0294610695"><ele>85.669</ele><time>2026-04-20T18:44:03.075Z</time><hdop>5.125</hdop><vdop>4.875</vdop><extensions><gom:speed>0.135</gom:speed></extensions></trkpt>
   <trkpt lat="59.0638580287" lon="30.0294619915"><ele>85.67</ele><time>2026-04-20T18:44:04.034Z</time><hdop>5.125</hdop><vdop>4.875</vdop><extensions><gom:speed>0.11</gom:speed></extensions></trkpt>
   <trkpt lat="59.0638579449" lon="30.0294614047"><ele>85.671</ele><time>2026-04-20T18:44:04.600Z</time><hdop>5.25</hdop><vdop>4.875</vdop><extensions><gom:speed>0.084</gom:speed></extensions></trkpt>
   <trkpt lat="59.0638587412" lon="30.0294704572"><ele>85.778</ele><time>2026-04-20T18:44:05.075Z</time><hdop>5.25</hdop><vdop>5.0</vdop><extensions><gom:speed>0.11</gom:speed></extensions></trkpt>
   <trkpt lat="59.0638592441" lon="30.0294744805"><ele>86.08</ele><time>2026-04-20T18:44:06.010Z</time><hdop>5.25</hdop><vdop>4.875</vdop><extensions><gom:speed>0.098</gom:speed></extensions></trkpt>
   <trkpt lat="59.0638615491" lon="30.0294859637"><ele>86.315</ele><time>2026-04-20T18:44:07.075Z</time><hdop>5.25</hdop><vdop>4.875</vdop><extensions><gom:speed>0.149</gom:speed></extensions></trkpt>
   <trkpt lat="59.0638617167" lon="30.0294910767"><ele>86.451</ele><time>2026-04-20T18:44:08.022Z</time><hdop>5.375</hdop><vdop>4.875</vdop><extensions><gom:speed>0.156</gom:speed></extensions></trkpt>
   <trkpt lat="59.0638610462" lon="30.0294926692"><ele>86.532</ele><time>2026-04-20T18:44:08.953Z</time><hdop>5.5</hdop><vdop>4.875</vdop><extensions><gom:speed>0.152</gom:speed></extensions></trkpt>
   <trkpt lat="59.0638612557" lon="30.0294937589"><ele>86.599</ele><time>2026-04-20T18:44:09.477Z</time><hdop>5.625</hdop><vdop>5.0</vdop><extensions><gom:speed>0.182</gom:speed></extensions></trkpt>
   <trkpt lat="59.0638619263" lon="30.0294951838"><ele>86.707</ele><time>2026-04-20T18:44:10.037Z</time><hdop>5.75</hdop><vdop>5.125</vdop><extensions><gom:speed>0.212</gom:speed></extensions></trkpt>
   <trkpt lat="59.0638632255" lon="30.0294959382"><ele>86.771</ele><time>2026-04-20T18:44:11.075Z</time><hdop>6.0</hdop><vdop>5.125</vdop><extensions><gom:speed>0.225</gom:speed></extensions></trkpt>
   <trkpt lat="59.0638642313" lon="30.0294966087"><ele>86.877</ele><time>2026-04-20T18:44:12.032Z</time><hdop>6.125</hdop><vdop>5.125</vdop><extensions><gom:speed>0.234</gom:speed></extensions></trkpt>
   <trkpt lat="59.0638659496" lon="30.0295085948"><ele>87.039</ele><time>2026-04-20T18:44:12.997Z</time><hdop>6.125</hdop><vdop>4.75</vdop><extensions><gom:speed>0.247</gom:speed></extensions></trkpt>
   <trkpt lat="59.0638659496" lon="30.02951178"><ele>87.179</ele><time>2026-04-20T18:44:13.945Z</time><hdop>6.25</hdop><vdop>4.375</vdop><extensions><gom:speed>0.208</gom:speed></extensions></trkpt>
   <trkpt lat="59.0638663268" lon="30.0295122829"><ele>87.263</ele><time>2026-04-20T18:44:14.618Z</time><hdop>6.375</hdop><vdop>4.375</vdop><extensions><gom:speed>0.249</gom:speed></extensions></trkpt>
   <trkpt lat="59.0638678355" lon="30.0295190722"><ele>87.374</ele><time>2026-04-20T18:44:15.075Z</time><hdop>6.375</hdop><vdop>4.0</vdop><extensions><gom:speed>0.245</gom:speed></extensions></trkpt>
   <trkpt lat="59.0638700567" lon="30.0295241014"><ele>87.44</ele><time>2026-04-20T18:44:15.757Z</time><hdop>6.25</hdop><vdop>4.0</vdop><extensions><gom:speed>0.263</gom:speed></extensions></trkpt>
   <trkpt lat="59.0638734514" lon="30.029533992"><ele>87.559</ele><time>2026-04-20T18:44:16.614Z</time><hdop>6.125</hdop><vdop>4.0</vdop><extensions><gom:speed>0.329</gom:speed></extensions></trkpt>
   <trkpt lat="59.0638762174" lon="30.0295408652"><ele>86.897</ele><time>2026-04-20T18:44:17.075Z</time><hdop>6.0</hdop><vdop>3.75</vdop><extensions><gom:speed>0.352</gom:speed></extensions></trkpt>
   <trkpt lat="59.0638790254" lon="30.0295432121"><ele>86.5</ele><time>2026-04-20T18:44:17.836Z</time><hdop>6.0</hdop><vdop>3.75</vdop><extensions><gom:speed>0.339</gom:speed></extensions></trkpt>
   <trkpt lat="59.0638849346" lon="30.0295529351"><ele>86.51</ele><time>2026-04-20T18:44:18.656Z</time><hdop>5.75</hdop><vdop>3.5</vdop><extensions><gom:speed>0.344</gom:speed></extensions></trkpt>
   <trkpt lat="59.063892143" lon="30.0295648374"><ele>86.633</ele><time>2026-04-20T18:44:19.455Z</time><hdop>5.5</hdop><vdop>3.375</vdop><extensions><gom:speed>0.394</gom:speed></extensions></trkpt>
   <trkpt lat="59.0638981361" lon="30.0295754824"><ele>86.519</ele><time>2026-04-20T18:44:20.075Z</time><hdop>5.375</hdop><vdop>3.375</vdop><extensions><gom:speed>0.431</gom:speed></extensions></trkpt>
   <trkpt lat="59.0639053445" lon="30.0295906537"><ele>86.127</ele><time>2026-04-20T18:44:21.075Z</time><hdop>5.25</hdop><vdop>3.25</vdop><extensions><gom:speed>0.423</gom:speed></extensions></trkpt>
   <trkpt lat="59.0639113376" lon="30.0295999576"><ele>85.893</ele><time>2026-04-20T18:44:22.041Z</time><hdop>5.125</hdop><vdop>3.25</vdop><extensions><gom:speed>0.443</gom:speed></extensions></trkpt>
   <trkpt lat="59.0639210187" lon="30.0296116084"><ele>85.971</ele><time>2026-04-20T18:44:23.075Z</time><hdop>5.0</hdop><vdop>3.25</vdop><extensions><gom:speed>0.458</gom:speed></extensions></trkpt>
   <trkpt lat="59.0639251258" lon="30.0296153803"><ele>86.017</ele><time>2026-04-20T18:44:24.076Z</time><hdop>5.0</hdop><vdop>3.25</vdop><extensions><gom:speed>0.392</gom:speed></extensions></trkpt>
   <trkpt lat="59.0639328372" lon="30.0296305515"><ele>86.549</ele><time>2026-04-20T18:44:24.954Z</time><hdop>4.875</hdop><vdop>3.125</vdop><extensions><gom:speed>0.506</gom:speed></extensions></trkpt>
   <trkpt lat="59.0639392493" lon="30.0296536856"><ele>87.173</ele><time>2026-04-20T18:44:25.674Z</time><hdop>4.875</hdop><vdop>3.125</vdop><extensions><gom:speed>0.669</gom:speed></extensions></trkpt>
   <trkpt lat="59.0639432307" lon="30.0296777417"><ele>88.081</ele><time>2026-04-20T18:44:26.414Z</time><hdop>4.75</hdop><vdop>3.0</vdop><extensions><gom:speed>0.778</gom:speed></extensions></trkpt>
   <trkpt lat="59.0639456196" lon="30.0296952598"><ele>88.675</ele><time>2026-04-20T18:44:27.076Z</time><hdop>4.625</hdop><vdop>3.0</vdop><extensions><gom:speed>0.813</gom:speed></extensions></trkpt>
   <trkpt lat="59.0639465416" lon="30.0297038094"><ele>89.029</ele><time>2026-04-20T18:44:27.567Z</time><hdop>4.5</hdop><vdop>3.0</vdop><extensions><gom:speed>0.836</gom:speed></extensions></trkpt>
   <trkpt lat="59.0639469188" lon="30.0297199026"><ele>89.241</ele><time>2026-04-20T18:44:28.073Z</time><hdop>4.5</hdop><vdop>3.0</vdop><extensions><gom:speed>0.851</gom:speed></extensions></trkpt>
   <trkpt lat="59.0639508164" lon="30.0297375046"><ele>89.648</ele><time>2026-04-20T18:44:28.902Z</time><hdop>4.375</hdop><vdop>2.875</vdop><extensions><gom:speed>0.914</gom:speed></extensions></trkpt>
   <trkpt lat="59.0639572285" lon="30.0297601358"><ele>90.171</ele><time>2026-04-20T18:44:29.839Z</time><hdop>4.375</hdop><vdop>3.0</vdop><extensions><gom:speed>0.966</gom:speed></extensions></trkpt>
   <trkpt lat="59.0639632216" lon="30.0297800009"><ele>90.568</ele><time>2026-04-20T18:44:30.600Z</time><hdop>4.25</hdop><vdop>3.25</vdop><extensions><gom:speed>0.981</gom:speed></extensions></trkpt>
   <trkpt lat="59.0639678316" lon="30.029792909"><ele>91.045</ele><time>2026-04-20T18:44:31.075Z</time><hdop>4.25</hdop><vdop>3.375</vdop><extensions><gom:speed>0.984</gom:speed></extensions></trkpt>
   <trkpt lat="59.0639715197" lon="30.0298054819"><ele>91.33</ele><time>2026-04-20T18:44:31.636Z</time><hdop>4.375</hdop><vdop>3.375</vdop><extensions><gom:speed>1.021</gom:speed></extensions></trkpt>
   <trkpt lat="59.0639794406" lon="30.0298276939"><ele>91.608</ele><time>2026-04-20T18:44:32.555Z</time><hdop>4.5</hdop><vdop>3.625</vdop><extensions><gom:speed>1.026</gom:speed></extensions></trkpt>
   <trkpt lat="59.0639836315" lon="30.0298406858"><ele>91.82</ele><time>2026-04-20T18:44:33.076Z</time><hdop>4.625</hdop><vdop>3.75</vdop><extensions><gom:speed>1.008</gom:speed></extensions></trkpt>
   <trkpt lat="59.0639845535" lon="30.0298523367"><ele>91.947</ele><time>2026-04-20T18:44:33.699Z</time><hdop>4.75</hdop><vdop>3.75</vdop><extensions><gom:speed>0.925</gom:speed></extensions></trkpt>
   <trkpt lat="59.063984344" lon="30.0298697711"><ele>92.35</ele><time>2026-04-20T18:44:34.499Z</time><hdop>4.875</hdop><vdop>3.875</vdop><extensions><gom:speed>0.845</gom:speed></extensions></trkpt>
   <trkpt lat="59.0639831286" lon="30.0298789073"><ele>92.731</ele><time>2026-04-20T18:44:35.075Z</time><hdop>4.875</hdop><vdop>3.625</vdop><extensions><gom:speed>0.841</gom:speed></extensions></trkpt>
   <trkpt lat="59.0639812427" lon="30.029895252"><ele>93.748</ele><time>2026-04-20T18:44:36.075Z</time><hdop>5.0</hdop><vdop>3.375</vdop><extensions><gom:speed>0.803</gom:speed></extensions></trkpt>
   <trkpt lat="59.0639828352" lon="30.0299089145"><ele>94.355</ele><time>2026-04-20T18:44:37.077Z</time><hdop>5.0</hdop><vdop>3.375</vdop><extensions><gom:speed>0.701</gom:speed></extensions></trkpt>
   <trkpt lat="59.0639859365" lon="30.0299148657"><ele>95.009</ele><time>2026-04-20T18:44:37.599Z</time><hdop>5.0</hdop><vdop>6.875</vdop><extensions><gom:speed>0.628</gom:speed></extensions></trkpt>
   <trkpt lat="59.0639887445" lon="30.0299224094"><ele>95.657</ele><time>2026-04-20T18:44:38.075Z</time><hdop>5.0</hdop><vdop>6.875</vdop><extensions><gom:speed>0.603</gom:speed></extensions></trkpt>
   <trkpt lat="59.0639905466" lon="30.0299281091"><ele>96.043</ele><time>2026-04-20T18:44:38.537Z</time><hdop>5.0</hdop><vdop>6.875</vdop><extensions><gom:speed>0.621</gom:speed></extensions></trkpt>
   <trkpt lat="59.0639924325" lon="30.0299356528"><ele>96.424</ele><time>2026-04-20T18:44:39.076Z</time><hdop>5.0</hdop><vdop>6.75</vdop><extensions><gom:speed>0.595</gom:speed></extensions></trkpt>
   <trkpt lat="59.0639926421" lon="30.0299393409"><ele>96.652</ele><time>2026-04-20T18:44:39.885Z</time><hdop>5.0</hdop><vdop>6.75</vdop><extensions><gom:speed>0.57</gom:speed></extensions></trkpt>
   <trkpt lat="59.0639948214" lon="30.0299501535"><ele>96.789</ele><time>2026-04-20T18:44:41.075Z</time><hdop>5.125</hdop><vdop>6.375</vdop><extensions><gom:speed>0.467</gom:speed></extensions></trkpt>
   <trkpt lat="59.0639973359" lon="30.0299558532"><ele>96.871</ele><time>2026-04-20T18:44:41.815Z</time><hdop>5.375</hdop><vdop>6.375</vdop><extensions><gom:speed>0.509</gom:speed></extensions></trkpt>
   <trkpt lat="59.0639995571" lon="30.0299564399"><ele>96.781</ele><time>2026-04-20T18:44:42.965Z</time><hdop>5.5</hdop><vdop>6.375</vdop><extensions><gom:speed>0.325</gom:speed></extensions></trkpt>
   <trkpt lat="59.0639984256" lon="30.0299483095"><ele>96.679</ele><time>2026-04-20T18:44:44.031Z</time><hdop>5.75</hdop><vdop>6.375</vdop><extensions><gom:speed>0.154</gom:speed></extensions></trkpt>
   <trkpt lat="59.0639973359" lon="30.0299423583"><ele>96.618</ele><time>2026-04-20T18:44:44.873Z</time><hdop>5.875</hdop><vdop>6.375</vdop><extensions><gom:speed>0.128</gom:speed></extensions></trkpt>
   <trkpt lat="59.0639971264" lon="30.0299405143"><ele>96.492</ele><time>2026-04-20T18:44:45.763Z</time><hdop>6.0</hdop><vdop>6.375</vdop><extensions><gom:speed>0.111</gom:speed></extensions></trkpt>
   <trkpt lat="59.063997755" lon="30.0299405981"><ele>96.279</ele><time>2026-04-20T18:44:46.680Z</time><hdop>6.125</hdop><vdop>6.25</vdop><extensions><gom:speed>0.134</gom:speed></extensions></trkpt>
   <trkpt lat="59.0639980484" lon="30.0299409334"><ele>96.213</ele><time>2026-04-20T18:44:47.321Z</time><hdop>6.25</hdop><vdop>6.25</vdop><extensions><gom:speed>0.158</gom:speed></extensions></trkpt>
   <trkpt lat="59.0639984256" lon="30.0299408496"><ele>96.173</ele><time>2026-04-20T18:44:47.858Z</time><hdop>6.25</hdop><vdop>6.25</vdop><extensions><gom:speed>0.117</gom:speed></extensions></trkpt>
   <trkpt lat="59.0640014431" lon="30.0299468846"><ele>96.022</ele><time>2026-04-20T18:44:49.006Z</time><hdop>6.25</hdop><vdop>6.0</vdop><extensions><gom:speed>0.165</gom:speed></extensions></trkpt>
   <trkpt lat="59.0640053406" lon="30.0299506564"><ele>95.918</ele><time>2026-04-20T18:44:50.075Z</time><hdop>6.125</hdop><vdop>6.0</vdop><extensions><gom:speed>0.205</gom:speed></extensions></trkpt>
   <trkpt lat="59.0640086515" lon="30.0299512432"><ele>95.885</ele><time>2026-04-20T18:44:51.020Z</time><hdop>6.125</hdop><vdop>5.875</vdop><extensions><gom:speed>0.242</gom:speed></extensions></trkpt>
   <trkpt lat="59.0640131358" lon="30.0299548474"><ele>95.865</ele><time>2026-04-20T18:44:52.040Z</time><hdop>6.125</hdop><vdop>5.875</vdop><extensions><gom:speed>0.386</gom:speed></extensions></trkpt>
   <trkpt lat="59.0640177459" lon="30.0299672526"><ele>95.906</ele><time>2026-04-20T18:44:53.016Z</time><hdop>6.125</hdop><vdop>5.875</vdop><extensions><gom:speed>0.462</gom:speed></extensions></trkpt>
   <trkpt lat="59.0640164467" lon="30.029974461"><ele>95.923</ele><time>2026-04-20T18:44:53.981Z</time><hdop>6.25</hdop><vdop>6.0</vdop><extensions><gom:speed>0.462</gom:speed></extensions></trkpt>
   <trkpt lat="59.0640126329" lon="30.0299784843"><ele>95.933</ele><time>2026-04-20T18:44:55.083Z</time><hdop>6.375</hdop><vdop>6.0</vdop><extensions><gom:speed>0.382</gom:speed></extensions></trkpt>
   <trkpt lat="59.0640099507" lon="30.0299794063"><ele>95.905</ele><time>2026-04-20T18:44:56.056Z</time><hdop>6.5</hdop><vdop>6.125</vdop><extensions><gom:speed>0.313</gom:speed></extensions></trkpt>
   <trkpt lat="59.0640106212" lon="30.0299810827"><ele>95.858</ele><time>2026-04-20T18:44:56.943Z</time><hdop>6.625</hdop><vdop>7.0</vdop><extensions><gom:speed>0.288</gom:speed></extensions></trkpt>
   <trkpt lat="59.0640122557" lon="30.0299810827"><ele>95.834</ele><time>2026-04-20T18:44:58.009Z</time><hdop>6.875</hdop><vdop>7.375</vdop><extensions><gom:speed>0.276</gom:speed></extensions></trkpt>
   <trkpt lat="59.064013052" lon="30.0299812504"><ele>95.82</ele><time>2026-04-20T18:44:58.483Z</time><hdop>7.0</hdop><vdop>7.375</vdop><extensions><gom:speed>0.301</gom:speed></extensions></trkpt>
   <trkpt lat="59.0640152313" lon="30.0299861119"><ele>95.806</ele><time>2026-04-20T18:44:58.956Z</time><hdop>7.125</hdop><vdop>7.625</vdop><extensions><gom:speed>0.337</gom:speed></extensions></trkpt>
   <trkpt lat="59.0640168239" lon="30.0299987685"><ele>95.797</ele><time>2026-04-20T18:45:00.056Z</time><hdop>7.5</hdop><vdop>7.625</vdop><extensions><gom:speed>0.525</gom:speed></extensions></trkpt>
   <trkpt lat="59.0640157342" lon="30.0300079886"><ele>95.79</ele><time>2026-04-20T18:45:00.893Z</time><hdop>7.75</hdop><vdop>7.875</vdop><extensions><gom:speed>0.512</gom:speed></extensions></trkpt>
   <trkpt lat="59.0640148541" lon="30.0300200586"><ele>95.787</ele><time>2026-04-20T18:45:01.717Z</time><hdop>8.125</hdop><vdop>8.0</vdop><extensions><gom:speed>0.612</gom:speed></extensions></trkpt>
   <trkpt lat="59.064015818" lon="30.0300380797"><ele>95.786</ele><time>2026-04-20T18:45:02.662Z</time><hdop>8.875</hdop><vdop>8.25</vdop><extensions><gom:speed>0.711</gom:speed></extensions></trkpt>
   <trkpt lat="59.0640205538" lon="30.0300555978"><ele>95.791</ele><time>2026-04-20T18:45:03.639Z</time><hdop>9.625</hdop><vdop>8.25</vdop><extensions><gom:speed>0.784</gom:speed></extensions></trkpt>
   <trkpt lat="59.0640309474" lon="30.0300559331"><ele>95.24</ele><time>2026-04-20T18:45:04.439Z</time><hdop>10.0</hdop><vdop>6.25</vdop><extensions><gom:speed>0.743</gom:speed></extensions></trkpt>
   <trkpt lat="59.0640419277" lon="30.0300571904"><ele>92.214</ele><time>2026-04-20T18:45:05.075Z</time><hdop>9.875</hdop><vdop>5.125</vdop><extensions><gom:speed>0.743</gom:speed></extensions></trkpt>
   <trkpt lat="59.0640497228" lon="30.0300614652"><ele>89.28</ele><time>2026-04-20T18:45:06.075Z</time><hdop>9.625</hdop><vdop>4.75</vdop><extensions><gom:speed>0.776</gom:speed></extensions></trkpt>
   <trkpt lat="59.0640552549" lon="30.030062471"><ele>87.527</ele><time>2026-04-20T18:45:06.796Z</time><hdop>9.375</hdop><vdop>4.75</vdop><extensions><gom:speed>0.748</gom:speed></extensions></trkpt>
   <trkpt lat="59.064059823" lon="30.0300738704"><ele>85.654</ele><time>2026-04-20T18:45:07.410Z</time><hdop>8.875</hdop><vdop>8.75</vdop><extensions><gom:speed>0.746</gom:speed></extensions></trkpt>
   <trkpt lat="59.0640648522" lon="30.0300840125"><ele>85.099</ele><time>2026-04-20T18:45:08.075Z</time><hdop>8.625</hdop><vdop>9.5</vdop><extensions><gom:speed>0.747</gom:speed></extensions></trkpt>
   <trkpt lat="59.0640724378" lon="30.0301032909"><ele>85.167</ele><time>2026-04-20T18:45:09.075Z</time><hdop>7.625</hdop><vdop>9.375</vdop><extensions><gom:speed>0.798</gom:speed></extensions></trkpt>
   <trkpt lat="59.0640798558" lon="30.0301211443"><ele>85.208</ele><time>2026-04-20T18:45:10.054Z</time><hdop>7.125</hdop><vdop>9.375</vdop><extensions><gom:speed>0.898</gom:speed></extensions></trkpt>
   <trkpt lat="59.0640869385" lon="30.0301391654"><ele>85.107</ele><time>2026-04-20T18:45:10.915Z</time><hdop>6.875</hdop><vdop>8.875</vdop><extensions><gom:speed>0.885</gom:speed></extensions></trkpt>
   <trkpt lat="59.064092722" lon="30.0301558454"><ele>85.221</ele><time>2026-04-20T18:45:11.802Z</time><hdop>6.75</hdop><vdop>8.5</vdop><extensions><gom:speed>0.858</gom:speed></extensions></trkpt>
   <trkpt lat="59.0640986312" lon="30.0301650655"><ele>85.32</ele><time>2026-04-20T18:45:12.679Z</time><hdop>6.75</hdop><vdop>8.625</vdop><extensions><gom:speed>0.831</gom:speed></extensions></trkpt>
   <trkpt lat="59.0641030317" lon="30.030180572"><ele>85.428</ele><time>2026-04-20T18:45:13.637Z</time><hdop>6.75</hdop><vdop>8.25</vdop><extensions><gom:speed>0.874</gom:speed></extensions></trkpt>
   <trkpt lat="59.0641058397" lon="30.0301977549"><ele>85.913</ele><time>2026-04-20T18:45:14.496Z</time><hdop>6.625</hdop><vdop>6.125</vdop><extensions><gom:speed>0.899</gom:speed></extensions></trkpt>
   <trkpt lat="59.0641094439" lon="30.0302074779"><ele>86.943</ele><time>2026-04-20T18:45:15.075Z</time><hdop>6.5</hdop><vdop>4.5</vdop><extensions><gom:speed>0.895</gom:speed></extensions></trkpt>
   <trkpt lat="59.0641176162" lon="30.030219045"><ele>87.923</ele><time>2026-04-20T18:45:16.075Z</time><hdop>6.375</hdop><vdop>4.0</vdop><extensions><gom:speed>0.846</gom:speed></extensions></trkpt>
   <trkpt lat="59.064124657" lon="30.0302353059"><ele>88.913</ele><time>2026-04-20T18:45:17.075Z</time><hdop>6.25</hdop><vdop>3.375</vdop><extensions><gom:speed>0.927</gom:speed></extensions></trkpt>
   <trkpt lat="59.064125621" lon="30.0302584399"><ele>89.68</ele><time>2026-04-20T18:45:18.075Z</time><hdop>6.0</hdop><vdop>3.25</vdop><extensions><gom:speed>0.909</gom:speed></extensions></trkpt>
   <trkpt lat="59.0641249504" lon="30.0302795623"><ele>90.329</ele><time>2026-04-20T18:45:19.075Z</time><hdop>5.875</hdop><vdop>3.0</vdop><extensions><gom:speed>0.834</gom:speed></extensions></trkpt>
   <trkpt lat="59.0641227292" lon="30.0302967452"><ele>90.927</ele><time>2026-04-20T18:45:20.075Z</time><hdop>5.625</hdop><vdop>3.0</vdop><extensions><gom:speed>0.717</gom:speed></extensions></trkpt>
   <trkpt lat="59.0641196279" lon="30.0303055462"><ele>91.36</ele><time>2026-04-20T18:45:21.075Z</time><hdop>5.5</hdop><vdop>3.0</vdop><extensions><gom:speed>0.516</gom:speed></extensions></trkpt>
   <trkpt lat="59.0641202565" lon="30.0303071388"><ele>91.706</ele><time>2026-04-20T18:45:22.075Z</time><hdop>5.375</hdop><vdop>3.0</vdop><extensions><gom:speed>0.253</gom:speed></extensions></trkpt>
   <trkpt lat="59.0641218491" lon="30.0303054624"><ele>91.933</ele><time>2026-04-20T18:45:23.075Z</time><hdop>5.125</hdop><vdop>3.0</vdop><extensions><gom:speed>0.107</gom:speed></extensions></trkpt>
   <trkpt lat="59.0641222263" lon="30.0303057977"><ele>92.106</ele><time>2026-04-20T18:45:24.075Z</time><hdop>4.75</hdop><vdop>2.75</vdop><extensions><gom:speed>0.082</gom:speed></extensions></trkpt>
   <trkpt lat="59.0641230226" lon="30.0303080608"><ele>92.306</ele><time>2026-04-20T18:45:25.075Z</time><hdop>4.625</hdop><vdop>2.625</vdop><extensions><gom:speed>0.11</gom:speed></extensions></trkpt>
   <trkpt lat="59.0641242379" lon="30.0303111621"><ele>92.551</ele><time>2026-04-20T18:45:26.075Z</time><hdop>4.5</hdop><vdop>2.5</vdop><extensions><gom:speed>0.087</gom:speed></extensions></trkpt>
   <trkpt lat="59.0641254533" lon="30.0303142634"><ele>92.542</ele><time>2026-04-20T18:45:27.075Z</time><hdop>4.5</hdop><vdop>2.5</vdop><extensions><gom:speed>0.123</gom:speed></extensions></trkpt>
   <trkpt lat="59.0641270459" lon="30.0303206336"><ele>92.681</ele><time>2026-04-20T18:45:28.076Z</time><hdop>4.5</hdop><vdop>2.5</vdop><extensions><gom:speed>0.2</gom:speed></extensions></trkpt>
   <trkpt lat="59.0641299376" lon="30.0303296023"><ele>92.834</ele><time>2026-04-20T18:45:29.075Z</time><hdop>4.5</hdop><vdop>2.5</vdop><extensions><gom:speed>0.241</gom:speed></extensions></trkpt>
   <trkpt lat="59.0641338352" lon="30.0303410017"><ele>92.926</ele><time>2026-04-20T18:45:29.934Z</time><hdop>4.625</hdop><vdop>2.5</vdop><extensions><gom:speed>0.398</gom:speed></extensions></trkpt>
   <trkpt lat="59.0641389482" lon="30.0303582684"><ele>92.993</ele><time>2026-04-20T18:45:30.866Z</time><hdop>4.625</hdop><vdop>2.5</vdop><extensions><gom:speed>0.642</gom:speed></extensions></trkpt>
   <trkpt lat="59.0641453184" lon="30.0303777144"><ele>93.258</ele><time>2026-04-20T18:45:31.839Z</time><hdop>4.75</hdop><vdop>2.5</vdop><extensions><gom:speed>0.749</gom:speed></extensions></trkpt>
   <trkpt lat="59.0641507248" lon="30.0303943106"><ele>93.52</ele><time>2026-04-20T18:45:32.697Z</time><hdop>4.875</hdop><vdop>2.5</vdop><extensions><gom:speed>0.794</gom:speed></extensions></trkpt>
   <trkpt lat="59.0641562568" lon="30.0304231443"><ele>93.424</ele><time>2026-04-20T18:45:34.075Z</time><hdop>5.0</hdop><vdop>2.875</vdop><extensions><gom:speed>0.916</gom:speed></extensions></trkpt>
   <trkpt lat="59.0641639263" lon="30.0304370583"><ele>93.367</ele><time>2026-04-20T18:45:35.056Z</time><hdop>5.125</hdop><vdop>2.875</vdop><extensions><gom:speed>0.934</gom:speed></extensions></trkpt>
   <trkpt lat="59.0641649321" lon="30.0304410816"><ele>92.654</ele><time>2026-04-20T18:45:35.557Z</time><hdop>5.125</hdop><vdop>2.75</vdop><extensions><gom:speed>0.91</gom:speed></extensions></trkpt>
   <trkpt lat="59.0641718472" lon="30.0304549117"><ele>92.163</ele><time>2026-04-20T18:45:36.075Z</time><hdop>5.125</hdop><vdop>2.625</vdop><extensions><gom:speed>0.874</gom:speed></extensions></trkpt>
   <trkpt lat="59.0641769182" lon="30.0304643833"><ele>91.985</ele><time>2026-04-20T18:45:37.076Z</time><hdop>5.125</hdop><vdop>2.625</vdop><extensions><gom:speed>0.809</gom:speed></extensions></trkpt>
   <trkpt lat="59.0641815283" lon="30.030472849"><ele>91.53</ele><time>2026-04-20T18:45:38.076Z</time><hdop>5.0</hdop><vdop>2.5</vdop><extensions><gom:speed>0.724</gom:speed></extensions></trkpt>
   <trkpt lat="59.0641837495" lon="30.0304827396"><ele>91.112</ele><time>2026-04-20T18:45:39.076Z</time><hdop>5.0</hdop><vdop>2.625</vdop><extensions><gom:speed>0.599</gom:speed></extensions></trkpt>
   <trkpt lat="59.064185342" lon="30.0304896966"><ele>90.87</ele><time>2026-04-20T18:45:40.075Z</time><hdop>4.75</hdop><vdop>2.5</vdop><extensions><gom:speed>0.496</gom:speed></extensions></trkpt>
   <trkpt lat="59.0641896168" lon="30.0305053708"><ele>90.551</ele><time>2026-04-20T18:45:41.075Z</time><hdop>4.625</hdop><vdop>2.5</vdop><extensions><gom:speed>0.687</gom:speed></extensions></trkpt>
   <trkpt lat="59.064189533" lon="30.0305132498"><ele>90.36</ele><time>2026-04-20T18:45:41.621Z</time><hdop>4.5</hdop><vdop>2.5</vdop><extensions><gom:speed>0.676</gom:speed></extensions></trkpt>
   <trkpt lat="59.06418815" lon="30.0305218831"><ele>90.233</ele><time>2026-04-20T18:45:42.076Z</time><hdop>4.5</hdop><vdop>2.5</vdop><extensions><gom:speed>0.656</gom:speed></extensions></trkpt>
   <trkpt lat="59.0641842524" lon="30.0305297621"><ele>89.872</ele><time>2026-04-20T18:45:43.075Z</time><hdop>4.5</hdop><vdop>2.5</vdop><extensions><gom:speed>0.628</gom:speed></extensions></trkpt>
   <trkpt lat="59.0641802291" lon="30.0305380602"><ele>89.657</ele><time>2026-04-20T18:45:43.902Z</time><hdop>4.5</hdop><vdop>2.5</vdop><extensions><gom:speed>0.672</gom:speed></extensions></trkpt>
   <trkpt lat="59.0641768344" lon="30.0305440952"><ele>89.538</ele><time>2026-04-20T18:45:44.454Z</time><hdop>4.5</hdop><vdop>2.5</vdop><extensions><gom:speed>0.651</gom:speed></extensions></trkpt>
   <trkpt lat="59.0641737331" lon="30.0305503816"><ele>89.337</ele><time>2026-04-20T18:45:45.075Z</time><hdop>4.5</hdop><vdop>2.5</vdop><extensions><gom:speed>0.64</gom:speed></extensions></trkpt>
   <trkpt lat="59.0641710509" lon="30.0305572548"><ele>89.176</ele><time>2026-04-20T18:45:46.075Z</time><hdop>4.5</hdop><vdop>2.5</vdop><extensions><gom:speed>0.498</gom:speed></extensions></trkpt>
   <trkpt lat="59.0641712185" lon="30.0305596017"><ele>88.555</ele><time>2026-04-20T18:45:47.075Z</time><hdop>4.5</hdop><vdop>2.5</vdop><extensions><gom:speed>0.383</gom:speed></extensions></trkpt>
   <trkpt lat="59.0641716376" lon="30.030559434"><ele>88.184</ele><time>2026-04-20T18:45:47.876Z</time><hdop>4.5</hdop><vdop>2.5</vdop><extensions><gom:speed>0.352</gom:speed></extensions></trkpt>
   <trkpt lat="59.0641717214" lon="30.0305601046"><ele>87.915</ele><time>2026-04-20T18:45:48.392Z</time><hdop>4.5</hdop><vdop>2.5</vdop><extensions><gom:speed>0.299</gom:speed></extensions></trkpt>
   <trkpt lat="59.0641702546" lon="30.0305637088"><ele>87.558</ele><time>2026-04-20T18:45:49.075Z</time><hdop>4.625</hdop><vdop>2.5</vdop><extensions><gom:speed>0.375</gom:speed></extensions></trkpt>
   <trkpt lat="59.0641676562" lon="30.0305725098"><ele>87.344</ele><time>2026-04-20T18:45:49.873Z</time><hdop>4.625</hdop><vdop>2.5</vdop><extensions><gom:speed>0.495</gom:speed></extensions></trkpt>
   <trkpt lat="59.0641611183" lon="30.0305834063"><ele>86.843</ele><time>2026-04-20T18:45:50.821Z</time><hdop>4.75</hdop><vdop>2.625</vdop><extensions><gom:speed>0.649</gom:speed></extensions></trkpt>
   <trkpt lat="59.0641538261" lon="30.0305891898"><ele>86.699</ele><time>2026-04-20T18:45:51.680Z</time><hdop>4.875</hdop><vdop>2.5</vdop><extensions><gom:speed>0.681</gom:speed></extensions></trkpt>
   <trkpt lat="59.0641458213" lon="30.0305941351"><ele>86.612</ele><time>2026-04-20T18:45:52.656Z</time><hdop>4.875</hdop><vdop>2.5</vdop><extensions><gom:speed>0.676</gom:speed></extensions></trkpt>
   <trkpt lat="59.0641394511" lon="30.030597907"><ele>86.543</ele><time>2026-04-20T18:45:53.574Z</time><hdop>4.875</hdop><vdop>2.5</vdop><extensions><gom:speed>0.654</gom:speed></extensions></trkpt>
   <trkpt lat="59.0641347572" lon="30.0305990804"><ele>86.65</ele><time>2026-04-20T18:45:54.075Z</time><hdop>4.875</hdop><vdop>2.5</vdop><extensions><gom:speed>0.664</gom:speed></extensions></trkpt>
   <trkpt lat="59.0641267525" lon="30.0306016788"><ele>86.65</ele><time>2026-04-20T18:45:55.075Z</time><hdop>4.875</hdop><vdop>2.5</vdop><extensions><gom:speed>0.588</gom:speed></extensions></trkpt>
   <trkpt lat="59.0641239446" lon="30.0306008406"><ele>86.782</ele><time>2026-04-20T18:45:56.050Z</time><hdop>4.875</hdop><vdop>2.625</vdop><extensions><gom:speed>0.487</gom:speed></extensions></trkpt>
   <trkpt lat="59.0641202565" lon="30.0305980746"><ele>86.86</ele><time>2026-04-20T18:45:57.001Z</time><hdop>4.875</hdop><vdop>2.625</vdop><extensions><gom:speed>0.472</gom:speed></extensions></trkpt>
   <trkpt lat="59.064112629" lon="30.0305974879"><ele>86.974</ele><time>2026-04-20T18:45:57.820Z</time><hdop>5.0</hdop><vdop>2.75</vdop><extensions><gom:speed>0.563</gom:speed></extensions></trkpt>
   <trkpt lat="59.0641051272" lon="30.0306007568"><ele>86.924</ele><time>2026-04-20T18:45:58.836Z</time><hdop>5.125</hdop><vdop>2.625</vdop><extensions><gom:speed>0.506</gom:speed></extensions></trkpt>
   <trkpt lat="59.0641002238" lon="30.0306024332"><ele>87.269</ele><time>2026-04-20T18:46:00.076Z</time><hdop>5.125</hdop><vdop>2.625</vdop><extensions><gom:speed>0.36</gom:speed></extensions></trkpt>
   <trkpt lat="59.0640963262" lon="30.0306096416"><ele>87.735</ele><time>2026-04-20T18:46:01.075Z</time><hdop>5.125</hdop><vdop>10.25</vdop><extensions><gom:speed>0.467</gom:speed></extensions></trkpt>
   <trkpt lat="59.064095949" lon="30.0306165986"><ele>88.013</ele><time>2026-04-20T18:46:01.540Z</time><hdop>5.25</hdop><vdop>10.25</vdop><extensions><gom:speed>0.586</gom:speed></extensions></trkpt>
   <trkpt lat="59.0640974578" lon="30.0306248967"><ele>88.187</ele><time>2026-04-20T18:46:02.242Z</time><hdop>5.25</hdop><vdop>9.875</vdop><extensions><gom:speed>0.628</gom:speed></extensions></trkpt>
   <trkpt lat="59.0641009363" lon="30.0306293391"><ele>88.31</ele><time>2026-04-20T18:46:03.038Z</time><hdop>5.375</hdop><vdop>9.75</vdop><extensions><gom:speed>0.565</gom:speed></extensions></trkpt>
   <trkpt lat="59.0641009363" lon="30.030618275"><ele>88.308</ele><time>2026-04-20T18:46:04.075Z</time><hdop>5.375</hdop><vdop>9.375</vdop><extensions><gom:speed>0.261</gom:speed></extensions></trkpt>
   <trkpt lat="59.0641006429" lon="30.0306140002"><ele>88.209</ele><time>2026-04-20T18:46:05.052Z</time><hdop>5.5</hdop><vdop>9.375</vdop><extensions><gom:speed>0.222</gom:speed></extensions></trkpt>
   <trkpt lat="59.0640997209" lon="30.0306120724"><ele>88.137</ele><time>2026-04-20T18:46:06.000Z</time><hdop>5.625</hdop><vdop>9.75</vdop><extensions><gom:speed>0.176</gom:speed></extensions></trkpt>
   <trkpt lat="59.0640989246" lon="30.0306105637"><ele>88.094</ele><time>2026-04-20T18:46:06.473Z</time><hdop>5.625</hdop><vdop>9.75</vdop><extensions><gom:speed>0.152</gom:speed></extensions></trkpt>
   <trkpt lat="59.0640976254" lon="30.0306108989"><ele>87.961</ele><time>2026-04-20T18:46:07.076Z</time><hdop>5.625</hdop><vdop>9.5</vdop><extensions><gom:speed>0.15</gom:speed></extensions></trkpt>
   <trkpt lat="59.0640965358" lon="30.0306120724"><ele>87.829</ele><time>2026-04-20T18:46:08.013Z</time><hdop>5.75</hdop><vdop>9.125</vdop><extensions><gom:speed>0.167</gom:speed></extensions></trkpt>
   <trkpt lat="59.0640948175" lon="30.0306143355"><ele>87.75</ele><time>2026-04-20T18:46:08.974Z</time><hdop>5.75</hdop><vdop>9.125</vdop><extensions><gom:speed>0.238</gom:speed></extensions></trkpt>
   <trkpt lat="59.0640919257" lon="30.030615509"><ele>87.973</ele><time>2026-04-20T18:46:10.075Z</time><hdop>5.75</hdop><vdop>8.625</vdop><extensions><gom:speed>0.257</gom:speed></extensions></trkpt>
   <trkpt lat="59.0640906265" lon="30.0306137488"><ele>88.208</ele><time>2026-04-20T18:46:10.974Z</time><hdop>5.875</hdop><vdop>8.0</vdop><extensions><gom:speed>0.168</gom:speed></extensions></trkpt>
   <trkpt lat="59.0640903331" lon="30.0306134973"><ele>88.34</ele><time>2026-04-20T18:46:12.041Z</time><hdop>5.875</hdop><vdop>7.75</vdop><extensions><gom:speed>0.145</gom:speed></extensions></trkpt>
   <trkpt lat="59.0640897464" lon="30.0306114857"><ele>88.419</ele><time>2026-04-20T18:46:12.634Z</time><hdop>6.0</hdop><vdop>7.75</vdop><extensions><gom:speed>0.064</gom:speed></extensions></trkpt>
   <trkpt lat="59.0640879443" lon="30.0306108151"><ele>88.548</ele><time>2026-04-20T18:46:14.054Z</time><hdop>6.0</hdop><vdop>7.375</vdop><extensions><gom:speed>0.121</gom:speed></extensions></trkpt>
   <trkpt lat="59.0640869385" lon="30.0306108989"><ele>88.628</ele><time>2026-04-20T18:46:15.003Z</time><hdop>6.0</hdop><vdop>7.375</vdop><extensions><gom:speed>0.09</gom:speed></extensions></trkpt>
   <trkpt lat="59.0640858488" lon="30.0306132459"><ele>88.681</ele><time>2026-04-20T18:46:15.950Z</time><hdop>6.125</hdop><vdop>7.375</vdop><extensions><gom:speed>0.102</gom:speed></extensions></trkpt>
   <trkpt lat="59.0640860165" lon="30.0306146708"><ele>88.713</ele><time>2026-04-20T18:46:16.416Z</time><hdop>6.25</hdop><vdop>7.375</vdop><extensions><gom:speed>0.061</gom:speed></extensions></trkpt>
   <trkpt lat="59.064086226" lon="30.0306158443"><ele>88.747</ele><time>2026-04-20T18:46:17.015Z</time><hdop>6.375</hdop><vdop>7.375</vdop><extensions><gom:speed>0.093</gom:speed></extensions></trkpt>
   <trkpt lat="59.0640869385" lon="30.0306172692"><ele>88.829</ele><time>2026-04-20T18:46:17.963Z</time><hdop>6.5</hdop><vdop>7.375</vdop><extensions><gom:speed>0.1</gom:speed></extensions></trkpt>
   <trkpt lat="59.0640875252" lon="30.0306174368"><ele>88.878</ele><time>2026-04-20T18:46:18.792Z</time><hdop>6.625</hdop><vdop>7.375</vdop><extensions><gom:speed>0.115</gom:speed></extensions></trkpt>
   <trkpt lat="59.0640892435" lon="30.0306204543"><ele>88.998</ele><time>2026-04-20T18:46:19.977Z</time><hdop>6.875</hdop><vdop>7.625</vdop><extensions><gom:speed>0.124</gom:speed></extensions></trkpt>
   <trkpt lat="59.0640901236" lon="30.0306200352"><ele>89.069</ele><time>2026-04-20T18:46:20.553Z</time><hdop>7.125</hdop><vdop>7.625</vdop><extensions><gom:speed>0.11</gom:speed></extensions></trkpt>
   <trkpt lat="59.0640907522" lon="30.0306205381"><ele>89.107</ele><time>2026-04-20T18:46:21.043Z</time><hdop>7.25</hdop><vdop>7.375</vdop><extensions><gom:speed>0.141</gom:speed></extensions></trkpt>
   <trkpt lat="59.0640916323" lon="30.030621963"><ele>89.142</ele><time>2026-04-20T18:46:21.990Z</time><hdop>7.375</hdop><vdop>7.0</vdop><extensions><gom:speed>0.133</gom:speed></extensions></trkpt>
   <trkpt lat="59.0640919257" lon="30.0306240585"><ele>89.172</ele><time>2026-04-20T18:46:23.058Z</time><hdop>7.625</hdop><vdop>6.875</vdop><extensions><gom:speed>0.14</gom:speed></extensions></trkpt>
   <trkpt lat="59.0640926382" lon="30.0306253996"><ele>89.19</ele><time>2026-04-20T18:46:23.780Z</time><hdop>7.75</hdop><vdop>6.875</vdop><extensions><gom:speed>0.134</gom:speed></extensions></trkpt>
   <trkpt lat="59.0640937278" lon="30.0306303449"><ele>90.361</ele><time>2026-04-20T18:46:24.352Z</time><hdop>7.625</hdop><vdop>4.75</vdop><extensions><gom:speed>0.16</gom:speed></extensions></trkpt>
   <trkpt lat="59.0640957395" lon="30.0306364637"><ele>88.456</ele><time>2026-04-20T18:46:25.075Z</time><hdop>7.5</hdop><vdop>4.375</vdop><extensions><gom:speed>0.171</gom:speed></extensions></trkpt>
   <trkpt lat="59.0640977511" lon="30.030644678"><ele>87.334</ele><time>2026-04-20T18:46:26.075Z</time><hdop>7.375</hdop><vdop>4.125</vdop><extensions><gom:speed>0.133</gom:speed></extensions></trkpt>
   <trkpt lat="59.0640996371" lon="30.0306529761"><ele>86.216</ele><time>2026-04-20T18:46:27.075Z</time><hdop>7.0</hdop><vdop>3.875</vdop><extensions><gom:speed>0.123</gom:speed></extensions></trkpt>
   <trkpt lat="59.0641013553" lon="30.0306603522"><ele>86.478</ele><time>2026-04-20T18:46:28.076Z</time><hdop>6.625</hdop><vdop>8.0</vdop><extensions><gom:speed>0.129</gom:speed></extensions></trkpt>
   <trkpt lat="59.0641026545" lon="30.030667393"><ele>87.004</ele><time>2026-04-20T18:46:29.076Z</time><hdop>6.0</hdop><vdop>8.25</vdop><extensions><gom:speed>0.141</gom:speed></extensions></trkpt>
   <trkpt lat="59.0641041214" lon="30.0306746014"><ele>87.563</ele><time>2026-04-20T18:46:30.075Z</time><hdop>5.5</hdop><vdop>8.25</vdop><extensions><gom:speed>0.107</gom:speed></extensions></trkpt>
   <trkpt lat="59.0641037442" lon="30.0306766131"><ele>87.898</ele><time>2026-04-20T18:46:30.561Z</time><hdop>5.375</hdop><vdop>8.25</vdop><extensions><gom:speed>0.068</gom:speed></extensions></trkpt>
   <trkpt lat="59.0641035346" lon="30.0306782056"><ele>87.746</ele><time>2026-04-20T18:46:31.231Z</time><hdop>5.375</hdop><vdop>8.125</vdop><extensions><gom:speed>0.099</gom:speed></extensions></trkpt>
   <trkpt lat="59.0641051272" lon="30.0306856655"><ele>88.154</ele><time>2026-04-20T18:46:32.076Z</time><hdop>5.25</hdop><vdop>7.75</vdop><extensions><gom:speed>0.125</gom:speed></extensions></trkpt>
   <trkpt lat="59.0641063426" lon="30.0306901079"><ele>88.343</ele><time>2026-04-20T18:46:33.007Z</time><hdop>5.125</hdop><vdop>7.25</vdop><extensions><gom:speed>0.113</gom:speed></extensions></trkpt>
   <trkpt lat="59.0641072227" lon="30.0306911976"><ele>88.456</ele><time>2026-04-20T18:46:33.495Z</time><hdop>5.125</hdop><vdop>7.25</vdop><extensions><gom:speed>0.117</gom:speed></extensions></trkpt>
   <trkpt lat="59.0641091505" lon="30.0306981545"><ele>88.09</ele><time>2026-04-20T18:46:34.075Z</time><hdop>5.125</hdop><vdop>5.625</vdop><extensions><gom:speed>0.137</gom:speed></extensions></trkpt>
   <trkpt lat="59.0641100306" lon="30.0307010044"><ele>87.872</ele><time>2026-04-20T18:46:34.599Z</time><hdop>5.125</hdop><vdop>5.625</vdop><extensions><gom:speed>0.121</gom:speed></extensions></trkpt>
   <trkpt lat="59.0641111203" lon="30.0307072908"><ele>86.299</ele><time>2026-04-20T18:46:35.075Z</time><hdop>5.0</hdop><vdop>4.875</vdop><extensions><gom:speed>0.15</gom:speed></extensions></trkpt>
   <trkpt lat="59.0641123356" lon="30.0307124038"><ele>85.359</ele><time>2026-04-20T18:46:35.753Z</time><hdop>5.0</hdop><vdop>4.875</vdop><extensions><gom:speed>0.164</gom:speed></extensions></trkpt>
   <trkpt lat="59.0641139282" lon="30.0307264854"><ele>84.558</ele><time>2026-04-20T18:46:36.957Z</time><hdop>4.875</hdop><vdop>4.375</vdop><extensions><gom:speed>0.219</gom:speed></extensions></trkpt>
   <trkpt lat="59.0641122518" lon="30.0307424948"><ele>84.342</ele><time>2026-04-20T18:46:37.619Z</time><hdop>4.75</hdop><vdop>3.75</vdop><extensions><gom:speed>0.297</gom:speed></extensions></trkpt>
   <trkpt lat="59.0641110364" lon="30.0307495356"><ele>83.606</ele><time>2026-04-20T18:46:38.075Z</time><hdop>4.75</hdop><vdop>3.625</vdop><extensions><gom:speed>0.307</gom:speed></extensions></trkpt>
   <trkpt lat="59.064108941" lon="30.0307533913"><ele>82.743</ele><time>2026-04-20T18:46:39.075Z</time><hdop>4.625</hdop><vdop>3.375</vdop><extensions><gom:speed>0.22</gom:speed></extensions></trkpt>
   <trkpt lat="59.0641079351" lon="30.0307559897"><ele>82.062</ele><time>2026-04-20T18:46:40.075Z</time><hdop>4.375</hdop><vdop>3.125</vdop><extensions><gom:speed>0.126</gom:speed></extensions></trkpt>
   <trkpt lat="59.0641066359" lon="30.0307600968"><ele>81.988</ele><time>2026-04-20T18:46:41.075Z</time><hdop>4.25</hdop><vdop>3.125</vdop><extensions><gom:speed>0.092</gom:speed></extensions></trkpt>
   <trkpt lat="59.0641056301" lon="30.0307647069"><ele>82.184</ele><time>2026-04-20T18:46:42.075Z</time><hdop>4.125</hdop><vdop>3.0</vdop><extensions><gom:speed>0.077</gom:speed></extensions></trkpt>
   <trkpt lat="59.0641043309" lon="30.0307699036"><ele>82.484</ele><time>2026-04-20T18:46:43.075Z</time><hdop>4.0</hdop><vdop>2.875</vdop><extensions><gom:speed>0.104</gom:speed></extensions></trkpt>
   <trkpt lat="59.0641043309" lon="30.0307699875"><ele>82.664</ele><time>2026-04-20T18:46:43.549Z</time><hdop>4.0</hdop><vdop>2.875</vdop><extensions><gom:speed>0.059</gom:speed></extensions></trkpt>
   <trkpt lat="59.064103828" lon="30.0307746813"><ele>83.18</ele><time>2026-04-20T18:46:44.075Z</time><hdop>3.875</hdop><vdop>2.75</vdop><extensions><gom:speed>0.087</gom:speed></extensions></trkpt>
   <trkpt lat="59.0641033251" lon="30.030779459"><ele>83.621</ele><time>2026-04-20T18:46:45.075Z</time><hdop>3.875</hdop><vdop>2.75</vdop><extensions><gom:speed>0.108</gom:speed></extensions></trkpt>
   <trkpt lat="59.0641016487" lon="30.0307833147"><ele>84.041</ele><time>2026-04-20T18:46:46.076Z</time><hdop>3.875</hdop><vdop>2.75</vdop><extensions><gom:speed>0.123</gom:speed></extensions></trkpt>
   <trkpt lat="59.0641005172" lon="30.0307865836"><ele>84.375</ele><time>2026-04-20T18:46:47.075Z</time><hdop>3.75</hdop><vdop>2.75</vdop><extensions><gom:speed>0.109</gom:speed></extensions></trkpt>
   <trkpt lat="59.06410014" lon="30.0307917804"><ele>84.79</ele><time>2026-04-20T18:46:48.075Z</time><hdop>3.75</hdop><vdop>2.75</vdop><extensions><gom:speed>0.088</gom:speed></extensions></trkpt>
   <trkpt lat="59.0640999304" lon="30.0307969772"><ele>85.467</ele><time>2026-04-20T18:46:49.075Z</time><hdop>3.75</hdop><vdop>2.625</vdop><extensions><gom:speed>0.072</gom:speed></extensions></trkpt>
   <trkpt lat="59.0640995532" lon="30.0307975639"><ele>85.872</ele><time>2026-04-20T18:46:49.709Z</time><hdop>3.75</hdop><vdop>2.625</vdop><extensions><gom:speed>0.07</gom:speed></extensions></trkpt>
   <trkpt lat="59.0640979188" lon="30.0308046885"><ele>86.729</ele><time>2026-04-20T18:46:51.076Z</time><hdop>3.625</hdop><vdop>2.625</vdop><extensions><gom:speed>0.066</gom:speed></extensions></trkpt>
   <trkpt lat="59.0640978349" lon="30.0308077898"><ele>87.149</ele><time>2026-04-20T18:46:52.075Z</time><hdop>3.625</hdop><vdop>2.625</vdop><extensions><gom:speed>0.078</gom:speed></extensions></trkpt>
   <trkpt lat="59.0640977511" lon="30.0308096339"><ele>86.869</ele><time>2026-04-20T18:46:53.075Z</time><hdop>3.625</hdop><vdop>2.625</vdop><extensions><gom:speed>0.087</gom:speed></extensions></trkpt>
   <trkpt lat="59.0640978349" lon="30.030811897"><ele>86.234</ele><time>2026-04-20T18:46:54.075Z</time><hdop>3.625</hdop><vdop>2.75</vdop><extensions><gom:speed>0.109</gom:speed></extensions></trkpt>
   <trkpt lat="59.064098757" lon="30.0308136572"><ele>85.506</ele><time>2026-04-20T18:46:55.075Z</time><hdop>3.625</hdop><vdop>2.75</vdop><extensions><gom:speed>0.078</gom:speed></extensions></trkpt>
   <trkpt lat="59.0640989246" lon="30.0308140763"><ele>85.072</ele><time>2026-04-20T18:46:55.869Z</time><hdop>3.625</hdop><vdop>2.75</vdop><extensions><gom:speed>0.074</gom:speed></extensions></trkpt>
   <trkpt lat="59.0641009363" lon="30.0308177643"><ele>84.231</ele><time>2026-04-20T18:46:57.075Z</time><hdop>3.75</hdop><vdop>2.5</vdop><extensions><gom:speed>0.178</gom:speed></extensions></trkpt>
   <trkpt lat="59.0641029479" lon="30.030818854"><ele>83.525</ele><time>2026-04-20T18:46:58.076Z</time><hdop>3.75</hdop><vdop>2.5</vdop><extensions><gom:speed>0.32</gom:speed></extensions></trkpt>
   <trkpt lat="59.0641059235" lon="30.0308206141"><ele>83.091</ele><time>2026-04-20T18:46:59.075Z</time><hdop>3.75</hdop><vdop>2.5</vdop><extensions><gom:speed>0.27</gom:speed></extensions></trkpt>
   <trkpt lat="59.0641074322" lon="30.030824386"><ele>82.854</ele><time>2026-04-20T18:47:00.075Z</time><hdop>3.75</hdop><vdop>7.75</vdop><extensions><gom:speed>0.28</gom:speed></extensions></trkpt>
   <trkpt lat="59.0641082285" lon="30.0308276549"><ele>82.6</ele><time>2026-04-20T18:47:01.076Z</time><hdop>3.875</hdop><vdop>7.375</vdop><extensions><gom:speed>0.273</gom:speed></extensions></trkpt>
   <trkpt lat="59.0641095277" lon="30.0308294151"><ele>82.516</ele><time>2026-04-20T18:47:02.075Z</time><hdop>3.875</hdop><vdop>7.125</vdop><extensions><gom:speed>0.257</gom:speed></extensions></trkpt>
   <trkpt lat="59.0641107431" lon="30.0308307563"><ele>82.381</ele><time>2026-04-20T18:47:03.075Z</time><hdop>4.0</hdop><vdop>7.0</vdop><extensions><gom:speed>0.258</gom:speed></extensions></trkpt>
   <trkpt lat="59.0641118327" lon="30.0308312592"><ele>82.114</ele><time>2026-04-20T18:47:04.075Z</time><hdop>4.125</hdop><vdop>7.125</vdop><extensions><gom:speed>0.251</gom:speed></extensions></trkpt>
   <trkpt lat="59.0641129224" lon="30.0308308401"><ele>81.785</ele><time>2026-04-20T18:47:05.075Z</time><hdop>4.25</hdop><vdop>7.0</vdop><extensions><gom:speed>0.239</gom:speed></extensions></trkpt>
   <trkpt lat="59.0641141378" lon="30.0308297504"><ele>81.499</ele><time>2026-04-20T18:47:06.076Z</time><hdop>4.25</hdop><vdop>7.125</vdop><extensions><gom:speed>0.238</gom:speed></extensions></trkpt>
   <trkpt lat="59.0641153531" lon="30.0308289961"><ele>81.281</ele><time>2026-04-20T18:47:07.076Z</time><hdop>4.375</hdop><vdop>7.375</vdop><extensions><gom:speed>0.237</gom:speed></extensions></trkpt>
   <trkpt lat="59.0641162332" lon="30.0308284931"><ele>81.087</ele><time>2026-04-20T18:47:08.076Z</time><hdop>4.375</hdop><vdop>7.0</vdop><extensions><gom:speed>0.246</gom:speed></extensions></trkpt>
   <trkpt lat="59.0641173229" lon="30.0308284093"><ele>80.849</ele><time>2026-04-20T18:47:09.075Z</time><hdop>4.375</hdop><vdop>6.875</vdop><extensions><gom:speed>0.242</gom:speed></extensions></trkpt>
   <trkpt lat="59.0641180353" lon="30.030828074"><ele>80.746</ele><time>2026-04-20T18:47:10.075Z</time><hdop>4.5</hdop><vdop>7.25</vdop><extensions><gom:speed>0.246</gom:speed></extensions></trkpt>
   <trkpt lat="59.0641187478" lon="30.0308275711"><ele>80.735</ele><time>2026-04-20T18:47:11.075Z</time><hdop>4.5</hdop><vdop>7.0</vdop><extensions><gom:speed>0.244</gom:speed></extensions></trkpt>
   <trkpt lat="59.0641193345" lon="30.0308269006"><ele>80.797</ele><time>2026-04-20T18:47:12.075Z</time><hdop>4.5</hdop><vdop>6.5</vdop><extensions><gom:speed>0.239</gom:speed></extensions></trkpt>
   <trkpt lat="59.0641198374" lon="30.0308258947"><ele>80.865</ele><time>2026-04-20T18:47:13.075Z</time><hdop>4.625</hdop><vdop>6.375</vdop><extensions><gom:speed>0.24</gom:speed></extensions></trkpt>
   <trkpt lat="59.0641204242" lon="30.0308248051"><ele>80.947</ele><time>2026-04-20T18:47:14.075Z</time><hdop>4.625</hdop><vdop>6.125</vdop><extensions><gom:speed>0.241</gom:speed></extensions></trkpt>
   <trkpt lat="59.0641215557" lon="30.0308237993"><ele>80.996</ele><time>2026-04-20T18:47:14.941Z</time><hdop>4.75</hdop><vdop>6.125</vdop><extensions><gom:speed>0.242</gom:speed></extensions></trkpt>
   <trkpt lat="59.0641219329" lon="30.0308232964"><ele>81.046</ele><time>2026-04-20T18:47:15.920Z</time><hdop>4.875</hdop><vdop>6.125</vdop><extensions><gom:speed>0.25</gom:speed></extensions></trkpt>
   <trkpt lat="59.0641224358" lon="30.0308232964"><ele>81.084</ele><time>2026-04-20T18:47:16.797Z</time><hdop>4.875</hdop><vdop>6.25</vdop><extensions><gom:speed>0.255</gom:speed></extensions></trkpt>
   <trkpt lat="59.0641230226" lon="30.0308224582"><ele>81.113</ele><time>2026-04-20T18:47:17.579Z</time><hdop>5.0</hdop><vdop>6.375</vdop><extensions><gom:speed>0.269</gom:speed></extensions></trkpt>
   <trkpt lat="59.0641231483" lon="30.0308222905"><ele>81.206</ele><time>2026-04-20T18:47:18.076Z</time><hdop>5.0</hdop><vdop>6.125</vdop><extensions><gom:speed>0.265</gom:speed></extensions></trkpt>
   <trkpt lat="59.0641241541" lon="30.0308222905"><ele>81.261</ele><time>2026-04-20T18:47:18.939Z</time><hdop>5.0</hdop><vdop>6.125</vdop><extensions><gom:speed>0.264</gom:speed></extensions></trkpt>
   <trkpt lat="59.0641250342" lon="30.0308215362"><ele>81.34</ele><time>2026-04-20T18:47:19.778Z</time><hdop>5.125</hdop><vdop>6.25</vdop><extensions><gom:speed>0.26</gom:speed></extensions></trkpt>
   <trkpt lat="59.0641255371" lon="30.0308209494"><ele>81.444</ele><time>2026-04-20T18:47:20.321Z</time><hdop>5.25</hdop><vdop>6.75</vdop><extensions><gom:speed>0.27</gom:speed></extensions></trkpt>
   <trkpt lat="59.0641263334" lon="30.0308184349"><ele>81.507</ele><time>2026-04-20T18:47:21.061Z</time><hdop>5.375</hdop><vdop>6.75</vdop><extensions><gom:speed>0.238</gom:speed></extensions></trkpt>
   <trkpt lat="59.0641278422" lon="30.0308161717"><ele>81.561</ele><time>2026-04-20T18:47:21.674Z</time><hdop>5.5</hdop><vdop>7.0</vdop><extensions><gom:speed>0.282</gom:speed></extensions></trkpt>
   <trkpt lat="59.0641300215" lon="30.030813741"><ele>81.613</ele><time>2026-04-20T18:47:22.581Z</time><hdop>5.75</hdop><vdop>6.875</vdop><extensions><gom:speed>0.34</gom:speed></extensions></trkpt>
   <trkpt lat="59.0641333323" lon="30.0308131543"><ele>81.661</ele><time>2026-04-20T18:47:23.941Z</time><hdop>6.125</hdop><vdop>7.125</vdop><extensions><gom:speed>0.356</gom:speed></extensions></trkpt>
   <trkpt lat="59.0641341286" lon="30.0308157526"><ele>81.689</ele><time>2026-04-20T18:47:24.883Z</time><hdop>6.5</hdop><vdop>7.125</vdop><extensions><gom:speed>0.323</gom:speed></extensions></trkpt>
   <trkpt lat="59.0641342543" lon="30.0308160879"><ele>81.72</ele><time>2026-04-20T18:47:25.553Z</time><hdop>6.875</hdop><vdop>6.875</vdop><extensions><gom:speed>0.28</gom:speed></extensions></trkpt>
   <trkpt lat="59.0641349249" lon="30.0308144115"><ele>81.753</ele><time>2026-04-20T18:47:26.332Z</time><hdop>7.125</hdop><vdop>6.5</vdop><extensions><gom:speed>0.29</gom:speed></extensions></trkpt>
   <trkpt lat="59.0641350506" lon="30.0308135734"><ele>81.772</ele><time>2026-04-20T18:47:26.785Z</time><hdop>7.125</hdop><vdop>6.5</vdop><extensions><gom:speed>0.292</gom:speed></extensions></trkpt>
   <trkpt lat="59.0641373556" lon="30.03080494"><ele>81.789</ele><time>2026-04-20T18:47:27.962Z</time><hdop>7.375</hdop><vdop>6.25</vdop><extensions><gom:speed>0.333</gom:speed></extensions></trkpt>
   <trkpt lat="59.0641385291" lon="30.0308004976"><ele>81.804</ele><time>2026-04-20T18:47:28.534Z</time><hdop>7.625</hdop><vdop>6.0</vdop><extensions><gom:speed>0.425</gom:speed></extensions></trkpt>
   <trkpt lat="59.0641397445" lon="30.0307960552"><ele>81.815</ele><time>2026-04-20T18:47:29.035Z</time><hdop>7.625</hdop><vdop>5.75</vdop><extensions><gom:speed>0.463</gom:speed></extensions></trkpt>
   <trkpt lat="59.0641444383" lon="30.0307833985"><ele>81.823</ele><time>2026-04-20T18:47:29.982Z</time><hdop>8.0</hdop><vdop>5.625</vdop><extensions><gom:speed>0.64</gom:speed></extensions></trkpt>
   <trkpt lat="59.0641493417" lon="30.0307705742"><ele>81.831</ele><time>2026-04-20T18:47:31.048Z</time><hdop>8.625</hdop><vdop>5.5</vdop><extensions><gom:speed>0.707</gom:speed></extensions></trkpt>
   <trkpt lat="59.0641540356" lon="30.0307565764"><ele>81.837</ele><time>2026-04-20T18:47:31.996Z</time><hdop>9.375</hdop><vdop>5.625</vdop><extensions><gom:speed>0.761</gom:speed></extensions></trkpt>
   <trkpt lat="59.0641563406" lon="30.0307518825"><ele>81.841</ele><time>2026-04-20T18:47:32.944Z</time><hdop>9.625</hdop><vdop>5.625</vdop><extensions><gom:speed>0.74</gom:speed></extensions></trkpt>
   <trkpt lat="59.0641637167" lon="30.0307305925"><ele>81.848</ele><time>2026-04-20T18:47:33.856Z</time><hdop>10.5</hdop><vdop>5.625</vdop><extensions><gom:speed>0.729</gom:speed></extensions></trkpt>
   <trkpt lat="59.0641680334" lon="30.0307209533"><ele>81.859</ele><time>2026-04-20T18:47:34.637Z</time><hdop>11.0</hdop><vdop>5.625</vdop><extensions><gom:speed>0.745</gom:speed></extensions></trkpt>
   <trkpt lat="59.0641739426" lon="30.0307101407"><ele>81.866</ele><time>2026-04-20T18:47:35.514Z</time><hdop>11.375</hdop><vdop>5.75</vdop><extensions><gom:speed>0.813</gom:speed></extensions></trkpt>
   <trkpt lat="59.0641778402" lon="30.0307036028"><ele>81.871</ele><time>2026-04-20T18:47:36.023Z</time><hdop>11.5</hdop><vdop>6.0</vdop><extensions><gom:speed>0.817</gom:speed></extensions></trkpt>
   <trkpt lat="59.0641848391" lon="30.0306915328"><ele>81.875</ele><time>2026-04-20T18:47:36.993Z</time><hdop>11.875</hdop><vdop>6.0</vdop><extensions><gom:speed>0.853</gom:speed></extensions></trkpt>
   <trkpt lat="59.064190455" lon="30.0306816422"><ele>81.886</ele><time>2026-04-20T18:47:37.813Z</time><hdop>12.125</hdop><vdop>6.25</vdop><extensions><gom:speed>0.853</gom:speed></extensions></trkpt>
   <trkpt lat="59.0641882338" lon="30.0307028484"><ele>78.828</ele><time>2026-04-20T18:47:38.616Z</time><hdop>11.75</hdop><vdop>5.375</vdop><extensions><gom:speed>0.783</gom:speed></extensions></trkpt>
   <trkpt lat="59.064187647" lon="30.0307181873"><ele>77.251</ele><time>2026-04-20T18:47:39.075Z</time><hdop>11.375</hdop><vdop>4.625</vdop><extensions><gom:speed>0.751</gom:speed></extensions></trkpt>
   <trkpt lat="59.0641910417" lon="30.0307223782"><ele>76.31</ele><time>2026-04-20T18:47:40.033Z</time><hdop>10.625</hdop><vdop>4.625</vdop><extensions><gom:speed>0.616</gom:speed></extensions></trkpt>
   <trkpt lat="59.0641911255" lon="30.0307312631"><ele>76.163</ele><time>2026-04-20T18:47:40.853Z</time><hdop>9.625</hdop><vdop>4.375</vdop><extensions><gom:speed>0.61</gom:speed></extensions></trkpt>
   <trkpt lat="59.0641965319" lon="30.0307310116"><ele>76.494</ele><time>2026-04-20T18:47:42.075Z</time><hdop>8.0</hdop><vdop>4.0</vdop><extensions><gom:speed>0.555</gom:speed></extensions></trkpt>
   <trkpt lat="59.0641996332" lon="30.030724809"><ele>76.692</ele><time>2026-04-20T18:47:43.054Z</time><hdop>7.125</hdop><vdop>4.0</vdop><extensions><gom:speed>0.507</gom:speed></extensions></trkpt>
   <trkpt lat="59.0642045366" lon="30.0307189417"><ele>76.656</ele><time>2026-04-20T18:47:44.075Z</time><hdop>6.25</hdop><vdop>4.0</vdop><extensions><gom:speed>0.448</gom:speed></extensions></trkpt>
   <trkpt lat="59.0642076379" lon="30.0307161756"><ele>77.239</ele><time>2026-04-20T18:47:45.075Z</time><hdop>5.75</hdop><vdop>4.0</vdop><extensions><gom:speed>0.356</gom:speed></extensions></trkpt>
   <trkpt lat="59.0642100267" lon="30.0307168462"><ele>78.276</ele><time>2026-04-20T18:47:46.075Z</time><hdop>5.25</hdop><vdop>4.0</vdop><extensions><gom:speed>0.261</gom:speed></extensions></trkpt>
   <trkpt lat="59.0642106554" lon="30.0307192769"><ele>78.895</ele><time>2026-04-20T18:47:46.601Z</time><hdop>5.0</hdop><vdop>4.0</vdop><extensions><gom:speed>0.199</gom:speed></extensions></trkpt>
   <trkpt lat="59.0642123317" lon="30.0307193608"><ele>79.079</ele><time>2026-04-20T18:47:47.075Z</time><hdop>4.875</hdop><vdop>6.75</vdop><extensions><gom:speed>0.212</gom:speed></extensions></trkpt>
   <trkpt lat="59.0642137567" lon="30.0307198637"><ele>79.189</ele><time>2026-04-20T18:47:47.812Z</time><hdop>4.75</hdop><vdop>6.75</vdop><extensions><gom:speed>0.174</gom:speed></extensions></trkpt>
   <trkpt lat="59.064219624" lon="30.0307165947"><ele>78.958</ele><time>2026-04-20T18:47:49.075Z</time><hdop>4.5</hdop><vdop>7.0</vdop><extensions><gom:speed>0.186</gom:speed></extensions></trkpt>
   <trkpt lat="59.0642213423" lon="30.0307157565"><ele>79.053</ele><time>2026-04-20T18:47:50.002Z</time><hdop>4.375</hdop><vdop>6.75</vdop><extensions><gom:speed>0.179</gom:speed></extensions></trkpt>
   <trkpt lat="59.0642230187" lon="30.0307146669"><ele>79.11</ele><time>2026-04-20T18:47:51.042Z</time><hdop>4.375</hdop><vdop>6.75</vdop><extensions><gom:speed>0.238</gom:speed></extensions></trkpt>
   <trkpt lat="59.0642256171" lon="30.0307115656"><ele>79.117</ele><time>2026-04-20T18:47:51.541Z</time><hdop>4.5</hdop><vdop>6.375</vdop><extensions><gom:speed>0.266</gom:speed></extensions></trkpt>
   <trkpt lat="59.0642299337" lon="30.0307054468"><ele>78.868</ele><time>2026-04-20T18:47:52.015Z</time><hdop>4.5</hdop><vdop>6.125</vdop><extensions><gom:speed>0.334</gom:speed></extensions></trkpt>
   <trkpt lat="59.064233538" lon="30.0307001662"><ele>78.719</ele><time>2026-04-20T18:47:52.679Z</time><hdop>4.625</hdop><vdop>6.125</vdop><extensions><gom:speed>0.46</gom:speed></extensions></trkpt>
   <trkpt lat="59.0642373517" lon="30.0306950532"><ele>78.669</ele><time>2026-04-20T18:47:53.380Z</time><hdop>4.875</hdop><vdop>5.875</vdop><extensions><gom:speed>0.49</gom:speed></extensions></trkpt>
   <trkpt lat="59.0642417522" lon="30.0306904432"><ele>78.442</ele><time>2026-04-20T18:47:54.028Z</time><hdop>5.0</hdop><vdop>5.625</vdop><extensions><gom:speed>0.551</gom:speed></extensions></trkpt>
   <trkpt lat="59.0642490445" lon="30.0306849111"><ele>78.277</ele><time>2026-04-20T18:47:54.976Z</time><hdop>5.25</hdop><vdop>5.375</vdop><extensions><gom:speed>0.607</gom:speed></extensions></trkpt>
   <trkpt lat="59.0642526487" lon="30.0306819775"><ele>78.178</ele><time>2026-04-20T18:47:55.620Z</time><hdop>5.5</hdop><vdop>5.375</vdop><extensions><gom:speed>0.577</gom:speed></extensions></trkpt>
   <trkpt lat="59.0642584322" lon="30.0306762778"><ele>77.921</ele><time>2026-04-20T18:47:56.933Z</time><hdop>5.875</hdop><vdop>5.375</vdop><extensions><gom:speed>0.521</gom:speed></extensions></trkpt>
   <trkpt lat="59.0642596476" lon="30.0306756072"><ele>77.791</ele><time>2026-04-20T18:47:57.497Z</time><hdop>6.125</hdop><vdop>5.5</vdop><extensions><gom:speed>0.459</gom:speed></extensions></trkpt>
   <trkpt lat="59.0642618269" lon="30.0306792114"><ele>77.805</ele><time>2026-04-20T18:47:58.076Z</time><hdop>6.25</hdop><vdop>5.625</vdop><extensions><gom:speed>0.432</gom:speed></extensions></trkpt>
   <trkpt lat="59.0642616173" lon="30.0306813069"><ele>77.814</ele><time>2026-04-20T18:47:59.057Z</time><hdop>6.5</hdop><vdop>5.625</vdop><extensions><gom:speed>0.35</gom:speed></extensions></trkpt>
   <trkpt lat="59.0642637547" lon="30.0306787085"><ele>77.96</ele><time>2026-04-20T18:47:59.858Z</time><hdop>6.625</hdop><vdop>5.75</vdop><extensions><gom:speed>0.366</gom:speed></extensions></trkpt>
   <trkpt lat="59.0642697478" lon="30.0306735956"><ele>78.172</ele><time>2026-04-20T18:48:00.921Z</time><hdop>6.75</hdop><vdop>5.875</vdop><extensions><gom:speed>0.455</gom:speed></extensions></trkpt>
   <trkpt lat="59.0642742321" lon="30.0306754396"><ele>78.438</ele><time>2026-04-20T18:48:01.965Z</time><hdop>6.875</hdop><vdop>5.625</vdop><extensions><gom:speed>0.466</gom:speed></extensions></trkpt>
   <trkpt lat="59.0642763276" lon="30.0306763616"><ele>78.66</ele><time>2026-04-20T18:48:03.032Z</time><hdop>7.0</hdop><vdop>5.5</vdop><extensions><gom:speed>0.371</gom:speed></extensions></trkpt>
   <trkpt lat="59.0642723462" lon="30.0306797982"><ele>78.792</ele><time>2026-04-20T18:48:03.860Z</time><hdop>7.0</hdop><vdop>5.5</vdop><extensions><gom:speed>0.27</gom:speed></extensions></trkpt>
   <trkpt lat="59.0642644253" lon="30.030689605"><ele>78.985</ele><time>2026-04-20T18:48:05.075Z</time><hdop>7.0</hdop><vdop>5.375</vdop><extensions><gom:speed>0.092</gom:speed></extensions></trkpt>
   <trkpt lat="59.0642602343" lon="30.0306928739"><ele>79.152</ele><time>2026-04-20T18:48:05.992Z</time><hdop>6.75</hdop><vdop>5.25</vdop><extensions><gom:speed>0.078</gom:speed></extensions></trkpt>
   <trkpt lat="59.0642581388" lon="30.0306953885"><ele>79.262</ele><time>2026-04-20T18:48:06.940Z</time><hdop>6.625</hdop><vdop>5.0</vdop><extensions><gom:speed>0.064</gom:speed></extensions></trkpt>
   <trkpt lat="59.0642579293" lon="30.0306964782"><ele>79.341</ele><time>2026-04-20T18:48:08.006Z</time><hdop>6.375</hdop><vdop>4.875</vdop><extensions><gom:speed>0.067</gom:speed></extensions></trkpt>
   <trkpt lat="59.0642578455" lon="30.0306976516"><ele>79.388</ele><time>2026-04-20T18:48:08.877Z</time><hdop>6.25</hdop><vdop>4.875</vdop><extensions><gom:speed>0.098</gom:speed></extensions></trkpt>
   <trkpt lat="59.0642629165" lon="30.0306975678"><ele>80.414</ele><time>2026-04-20T18:48:09.618Z</time><hdop>6.0</hdop><vdop>3.75</vdop><extensions><gom:speed>0.068</gom:speed></extensions></trkpt>
   <trkpt lat="59.0642685324" lon="30.0306953885"><ele>80.945</ele><time>2026-04-20T18:48:10.075Z</time><hdop>5.875</hdop><vdop>3.625</vdop><extensions><gom:speed>0.111</gom:speed></extensions></trkpt>
   <trkpt lat="59.0642787164" lon="30.0306920358"><ele>81.811</ele><time>2026-04-20T18:48:11.075Z</time><hdop>5.75</hdop><vdop>3.25</vdop><extensions><gom:speed>0.134</gom:speed></extensions></trkpt>
   <trkpt lat="59.0642820273" lon="30.0306888506"><ele>82.328</ele><time>2026-04-20T18:48:12.016Z</time><hdop>5.625</hdop><vdop>3.25</vdop><extensions><gom:speed>0.151</gom:speed></extensions></trkpt>
   <trkpt lat="59.0642933428" lon="30.0306801335"><ele>82.944</ele><time>2026-04-20T18:48:12.816Z</time><hdop>5.625</hdop><vdop>3.125</vdop><extensions><gom:speed>0.371</gom:speed></extensions></trkpt>
   <trkpt lat="59.0643114478" lon="30.0306630344"><ele>83.649</ele><time>2026-04-20T18:48:13.655Z</time><hdop>5.5</hdop><vdop>2.875</vdop><extensions><gom:speed>0.717</gom:speed></extensions></trkpt>
   <trkpt lat="59.0643274572" lon="30.0306442589"><ele>84.614</ele><time>2026-04-20T18:48:14.558Z</time><hdop>5.5</hdop><vdop>2.75</vdop><extensions><gom:speed>0.792</gom:speed></extensions></trkpt>
   <trkpt lat="59.06433542" lon="30.0306343683"><ele>85.063</ele><time>2026-04-20T18:48:15.075Z</time><hdop>5.5</hdop><vdop>2.625</vdop><extensions><gom:speed>0.788</gom:speed></extensions></trkpt>
   <trkpt lat="59.0643471547" lon="30.0306194485"><ele>85.176</ele><time>2026-04-20T18:48:16.075Z</time><hdop>5.5</hdop><vdop>2.625</vdop><extensions><gom:speed>0.762</gom:speed></extensions></trkpt>
   <trkpt lat="59.0643587217" lon="30.0306053669"><ele>85.257</ele><time>2026-04-20T18:48:17.076Z</time><hdop>5.625</hdop><vdop>2.625</vdop><extensions><gom:speed>0.776</gom:speed></extensions></trkpt>
   <trkpt lat="59.0643644214" lon="30.0305984937"><ele>85.306</ele><time>2026-04-20T18:48:17.761Z</time><hdop>5.625</hdop><vdop>2.625</vdop><extensions><gom:speed>0.87</gom:speed></extensions></trkpt>
   <trkpt lat="59.0643733481" lon="30.0305883516"><ele>85.041</ele><time>2026-04-20T18:48:18.502Z</time><hdop>5.75</hdop><vdop>2.625</vdop><extensions><gom:speed>0.932</gom:speed></extensions></trkpt>
   <trkpt lat="59.0643805565" lon="30.0305829872"><ele>84.838</ele><time>2026-04-20T18:48:19.075Z</time><hdop>5.75</hdop><vdop>2.75</vdop><extensions><gom:speed>0.955</gom:speed></extensions></trkpt>
   <trkpt lat="59.0643893575" lon="30.0305726775"><ele>84.717</ele><time>2026-04-20T18:48:19.952Z</time><hdop>5.75</hdop><vdop>2.75</vdop><extensions><gom:speed>0.988</gom:speed></extensions></trkpt>
   <trkpt lat="59.0643987453" lon="30.0305686541"><ele>84.933</ele><time>2026-04-20T18:48:20.734Z</time><hdop>5.75</hdop><vdop>2.75</vdop><extensions><gom:speed>0.988</gom:speed></extensions></trkpt>
   <trkpt lat="59.0644088455" lon="30.0305681512"><ele>84.696</ele><time>2026-04-20T18:48:21.512Z</time><hdop>5.875</hdop><vdop>2.75</vdop><extensions><gom:speed>0.948</gom:speed></extensions></trkpt>
   <trkpt lat="59.0644158444" lon="30.0305692409"><ele>84.144</ele><time>2026-04-20T18:48:22.075Z</time><hdop>5.875</hdop><vdop>2.875</vdop><extensions><gom:speed>0.938</gom:speed></extensions></trkpt>
   <trkpt lat="59.0644307222" lon="30.0305702467"><ele>83.678</ele><time>2026-04-20T18:48:23.075Z</time><hdop>6.125</hdop><vdop>2.75</vdop><extensions><gom:speed>0.917</gom:speed></extensions></trkpt>
   <trkpt lat="59.0644365477" lon="30.0305691571"><ele>83.4</ele><time>2026-04-20T18:48:23.882Z</time><hdop>6.25</hdop><vdop>2.75</vdop><extensions><gom:speed>0.89</gom:speed></extensions></trkpt>
   <trkpt lat="59.0644453487" lon="30.0305756949"><ele>83.182</ele><time>2026-04-20T18:48:24.683Z</time><hdop>6.375</hdop><vdop>2.625</vdop><extensions><gom:speed>0.872</gom:speed></extensions></trkpt>
   <trkpt lat="59.0644559518" lon="30.0305822328"><ele>82.884</ele><time>2026-04-20T18:48:25.579Z</time><hdop>6.5</hdop><vdop>2.625</vdop><extensions><gom:speed>0.833</gom:speed></extensions></trkpt>
   <trkpt lat="59.0644622382" lon="30.0305865914"><ele>82.633</ele><time>2026-04-20T18:48:26.076Z</time><hdop>6.5</hdop><vdop>2.625</vdop><extensions><gom:speed>0.829</gom:speed></extensions></trkpt>
   <trkpt lat="59.0644737214" lon="30.0305910338"><ele>82.571</ele><time>2026-04-20T18:48:27.075Z</time><hdop>6.625</hdop><vdop>2.625</vdop><extensions><gom:speed>0.818</gom:speed></extensions></trkpt>
   <trkpt lat="59.0644818518" lon="30.0305932969"><ele>82.534</ele><time>2026-04-20T18:48:27.919Z</time><hdop>6.625</hdop><vdop>2.625</vdop><extensions><gom:speed>0.828</gom:speed></extensions></trkpt>
   <trkpt lat="59.0644865457" lon="30.0305977393"><ele>82.582</ele><time>2026-04-20T18:48:28.617Z</time><hdop>6.5</hdop><vdop>2.75</vdop><extensions><gom:speed>0.819</gom:speed></extensions></trkpt>
   <trkpt lat="59.0644963525" lon="30.0306029361"><ele>82.714</ele><time>2026-04-20T18:48:29.075Z</time><hdop>6.375</hdop><vdop>2.75</vdop><extensions><gom:speed>0.795</gom:speed></extensions></trkpt>
   <trkpt lat="59.0645018427" lon="30.0306074624"><ele>82.792</ele><time>2026-04-20T18:48:29.893Z</time><hdop>6.375</hdop><vdop>2.75</vdop><extensions><gom:speed>0.723</gom:speed></extensions></trkpt>
   <trkpt lat="59.0645067461" lon="30.0306158443"><ele>83.172</ele><time>2026-04-20T18:48:30.614Z</time><hdop>6.25</hdop><vdop>2.75</vdop><extensions><gom:speed>0.653</gom:speed></extensions></trkpt>
   <trkpt lat="59.0645104341" lon="30.0306200352"><ele>83.693</ele><time>2026-04-20T18:48:31.075Z</time><hdop>6.125</hdop><vdop>2.75</vdop><extensions><gom:speed>0.642</gom:speed></extensions></trkpt>
   <trkpt lat="59.0645193189" lon="30.0306248129"><ele>84.181</ele><time>2026-04-20T18:48:32.075Z</time><hdop>6.0</hdop><vdop>2.625</vdop><extensions><gom:speed>0.646</gom:speed></extensions></trkpt>
   <trkpt lat="59.0645297544" lon="30.0306248129"><ele>84.28</ele><time>2026-04-20T18:48:33.075Z</time><hdop>5.75</hdop><vdop>2.75</vdop><extensions><gom:speed>0.643</gom:speed></extensions></trkpt>
   <trkpt lat="59.0645371305" lon="30.0306266569"><ele>84.34</ele><time>2026-04-20T18:48:34.099Z</time><hdop>5.625</hdop><vdop>2.75</vdop><extensions><gom:speed>0.575</gom:speed></extensions></trkpt>
   <trkpt lat="59.0645406509" lon="30.0306277466"><ele>84.387</ele><time>2026-04-20T18:48:34.896Z</time><hdop>5.625</hdop><vdop>2.625</vdop><extensions><gom:speed>0.561</gom:speed></extensions></trkpt>
   <trkpt lat="59.0645603484" lon="30.0306310993"><ele>84.431</ele><time>2026-04-20T18:48:36.075Z</time><hdop>5.5</hdop><vdop>2.625</vdop><extensions><gom:speed>0.565</gom:speed></extensions></trkpt>
   <trkpt lat="59.0645663414" lon="30.0306300935"><ele>84.458</ele><time>2026-04-20T18:48:37.039Z</time><hdop>5.5</hdop><vdop>2.625</vdop><extensions><gom:speed>0.523</gom:speed></extensions></trkpt>
   <trkpt lat="59.0645768188" lon="30.0306313508"><ele>84.542</ele><time>2026-04-20T18:48:38.075Z</time><hdop>5.375</hdop><vdop>2.5</vdop><extensions><gom:speed>0.444</gom:speed></extensions></trkpt>
   <trkpt lat="59.0645819318" lon="30.0306323566"><ele>84.702</ele><time>2026-04-20T18:48:39.075Z</time><hdop>5.25</hdop><vdop>2.5</vdop><extensions><gom:speed>0.29</gom:speed></extensions></trkpt>
   <trkpt lat="59.0645848235" lon="30.0306342006"><ele>84.973</ele><time>2026-04-20T18:48:40.075Z</time><hdop>5.125</hdop><vdop>2.5</vdop><extensions><gom:speed>0.144</gom:speed></extensions></trkpt>
   <trkpt lat="59.0645853264" lon="30.030634955"><ele>85.019</ele><time>2026-04-20T18:48:40.936Z</time><hdop>5.0</hdop><vdop>8.25</vdop><extensions><gom:speed>0.098</gom:speed></extensions></trkpt>
   <trkpt lat="59.0645865418" lon="30.0306355417"><ele>84.976</ele><time>2026-04-20T18:48:42.003Z</time><hdop>4.875</hdop><vdop>8.375</vdop><extensions><gom:speed>0.07</gom:speed></extensions></trkpt>
   <trkpt lat="59.0645886373" lon="30.0306364637"><ele>84.958</ele><time>2026-04-20T18:48:43.075Z</time><hdop>4.875</hdop><vdop>8.25</vdop><extensions><gom:speed>0.108</gom:speed></extensions></trkpt>
   <trkpt lat="59.0645890564" lon="30.0306373857"><ele>84.878</ele><time>2026-04-20T18:48:44.016Z</time><hdop>5.0</hdop><vdop>8.25</vdop><extensions><gom:speed>0.07</gom:speed></extensions></trkpt>
   <trkpt lat="59.0645896431" lon="30.0306389783"><ele>84.793</ele><time>2026-04-20T18:48:44.964Z</time><hdop>5.0</hdop><vdop>7.75</vdop><extensions><gom:speed>0.06</gom:speed></extensions></trkpt>
   <trkpt lat="59.0645910261" lon="30.0306384754"><ele>84.722</ele><time>2026-04-20T18:48:46.075Z</time><hdop>5.125</hdop><vdop>7.25</vdop><extensions><gom:speed>0.07</gom:speed></extensions></trkpt>
   <trkpt lat="59.0645912357" lon="30.0306384754"><ele>84.544</ele><time>2026-04-20T18:48:46.977Z</time><hdop>5.25</hdop><vdop>7.125</vdop><extensions><gom:speed>0.058</gom:speed></extensions></trkpt>
   <trkpt lat="59.0645910261" lon="30.0306390621"><ele>84.371</ele><time>2026-04-20T18:48:48.044Z</time><hdop>5.25</hdop><vdop>7.125</vdop><extensions><gom:speed>0.073</gom:speed></extensions></trkpt>
   <trkpt lat="59.0645909423" lon="30.0306379725"><ele>84.3</ele><time>2026-04-20T18:48:48.991Z</time><hdop>5.375</hdop><vdop>7.125</vdop><extensions><gom:speed>0.063</gom:speed></extensions></trkpt>
   <trkpt lat="59.0645919481" lon="30.030638643"><ele>84.237</ele><time>2026-04-20T18:48:49.939Z</time><hdop>5.375</hdop><vdop>7.0</vdop><extensions><gom:speed>0.064</gom:speed></extensions></trkpt>
   <trkpt lat="59.0645916548" lon="30.0306385592"><ele>84.214</ele><time>2026-04-20T18:48:51.005Z</time><hdop>5.375</hdop><vdop>7.0</vdop><extensions><gom:speed>0.068</gom:speed></extensions></trkpt>
   <trkpt lat="59.0645907328" lon="30.0306385592"><ele>84.218</ele><time>2026-04-20T18:48:52.076Z</time><hdop>5.5</hdop><vdop>7.125</vdop><extensions><gom:speed>0.056</gom:speed></extensions></trkpt>
   <trkpt lat="59.0645910261" lon="30.0306379725"><ele>84.202</ele><time>2026-04-20T18:48:53.019Z</time><hdop>5.5</hdop><vdop>7.0</vdop><extensions><gom:speed>0.062</gom:speed></extensions></trkpt>
   <trkpt lat="59.0645913195" lon="30.0306388107"><ele>84.192</ele><time>2026-04-20T18:48:53.492Z</time><hdop>5.5</hdop><vdop>7.0</vdop><extensions><gom:speed>0.065</gom:speed></extensions></trkpt>
   <trkpt lat="59.0645922415" lon="30.0306397327"><ele>84.179</ele><time>2026-04-20T18:48:53.966Z</time><hdop>5.5</hdop><vdop>7.375</vdop><extensions><gom:speed>0.069</gom:speed></extensions></trkpt>
   <trkpt lat="59.0645928282" lon="30.0306396489"><ele>84.176</ele><time>2026-04-20T18:48:55.075Z</time><hdop>5.5</hdop><vdop>7.75</vdop><extensions><gom:speed>0.185</gom:speed></extensions></trkpt>
   <trkpt lat="59.0645941274" lon="30.0306391459"><ele>84.159</ele><time>2026-04-20T18:48:56.075Z</time><hdop>5.5</hdop><vdop>7.375</vdop><extensions><gom:speed>0.23</gom:speed></extensions></trkpt>
   <trkpt lat="59.0645955524" lon="30.0306388107"><ele>84.15</ele><time>2026-04-20T18:48:57.075Z</time><hdop>5.375</hdop><vdop>7.125</vdop><extensions><gom:speed>0.235</gom:speed></extensions></trkpt>
   <trkpt lat="59.0645969354" lon="30.0306381401"><ele>84.138</ele><time>2026-04-20T18:48:58.075Z</time><hdop>5.375</hdop><vdop>6.75</vdop><extensions><gom:speed>0.267</gom:speed></extensions></trkpt>
   <trkpt lat="59.0645983184" lon="30.0306378887"><ele>84.127</ele><time>2026-04-20T18:48:59.076Z</time><hdop>5.375</hdop><vdop>6.625</vdop><extensions><gom:speed>0.275</gom:speed></extensions></trkpt>
   <trkpt lat="59.0645988213" lon="30.0306378887"><ele>84.12</ele><time>2026-04-20T18:48:59.652Z</time><hdop>5.25</hdop><vdop>6.625</vdop><extensions><gom:speed>0.276</gom:speed></extensions></trkpt>
   <trkpt lat="59.0646006234" lon="30.0306367152"><ele>84.124</ele><time>2026-04-20T18:49:01.075Z</time><hdop>5.125</hdop><vdop>6.5</vdop><extensions><gom:speed>0.291</gom:speed></extensions></trkpt>
   <trkpt lat="59.0646016292" lon="30.0306362123"><ele>84.135</ele><time>2026-04-20T18:49:02.076Z</time><hdop>5.125</hdop><vdop>6.5</vdop><extensions><gom:speed>0.298</gom:speed></extensions></trkpt>
   <trkpt lat="59.0646026351" lon="30.0306354579"><ele>84.158</ele><time>2026-04-20T18:49:03.075Z</time><hdop>5.125</hdop><vdop>6.75</vdop><extensions><gom:speed>0.293</gom:speed></extensions></trkpt>
   <trkpt lat="59.0646035571" lon="30.0306350388"><ele>84.188</ele><time>2026-04-20T18:49:04.075Z</time><hdop>5.0</hdop><vdop>6.75</vdop><extensions><gom:speed>0.296</gom:speed></extensions></trkpt>
   <trkpt lat="59.0646042276" lon="30.0306347035"><ele>84.229</ele><time>2026-04-20T18:49:05.075Z</time><hdop>5.0</hdop><vdop>6.625</vdop><extensions><gom:speed>0.307</gom:speed></extensions></trkpt>
   <trkpt lat="59.0646047305" lon="30.0306347035"><ele>84.253</ele><time>2026-04-20T18:49:05.812Z</time><hdop>5.125</hdop><vdop>6.625</vdop><extensions><gom:speed>0.307</gom:speed></extensions></trkpt>
   <trkpt lat="59.0646053173" lon="30.0306336977"><ele>84.291</ele><time>2026-04-20T18:49:07.076Z</time><hdop>5.125</hdop><vdop>7.0</vdop><extensions><gom:speed>0.294</gom:speed></extensions></trkpt>
   <trkpt lat="59.0646055268" lon="30.0306327757"><ele>84.328</ele><time>2026-04-20T18:49:08.075Z</time><hdop>5.25</hdop><vdop>7.0</vdop><extensions><gom:speed>0.289</gom:speed></extensions></trkpt>
   <trkpt lat="59.0646057364" lon="30.0306317699"><ele>84.352</ele><time>2026-04-20T18:49:09.075Z</time><hdop>5.25</hdop><vdop>6.75</vdop><extensions><gom:speed>0.298</gom:speed></extensions></trkpt>
   <trkpt lat="59.0646060297" lon="30.0306308479"><ele>84.374</ele><time>2026-04-20T18:49:10.075Z</time><hdop>5.25</hdop><vdop>6.875</vdop><extensions><gom:speed>0.297</gom:speed></extensions></trkpt>
   <trkpt lat="59.0646064488" lon="30.0306297582"><ele>84.397</ele><time>2026-04-20T18:49:11.075Z</time><hdop>5.25</hdop><vdop>7.0</vdop><extensions><gom:speed>0.309</gom:speed></extensions></trkpt>
   <trkpt lat="59.064606826" lon="30.0306296744"><ele>84.41</ele><time>2026-04-20T18:49:11.971Z</time><hdop>5.375</hdop><vdop>7.0</vdop><extensions><gom:speed>0.309</gom:speed></extensions></trkpt>
   <trkpt lat="59.0646071194" lon="30.0306286686"><ele>84.424</ele><time>2026-04-20T18:49:13.075Z</time><hdop>5.375</hdop><vdop>6.625</vdop><extensions><gom:speed>0.303</gom:speed></extensions></trkpt>
   <trkpt lat="59.064607748" lon="30.0306279142"><ele>84.433</ele><time>2026-04-20T18:49:13.723Z</time><hdop>5.5</hdop><vdop>6.625</vdop><extensions><gom:speed>0.303</gom:speed></extensions></trkpt>
   <trkpt lat="59.0646076223" lon="30.0306269922"><ele>84.44</ele><time>2026-04-20T18:49:14.481Z</time><hdop>5.625</hdop><vdop>6.25</vdop><extensions><gom:speed>0.299</gom:speed></extensions></trkpt>
   <trkpt lat="59.0646074547" lon="30.0306265731"><ele>84.446</ele><time>2026-04-20T18:49:15.075Z</time><hdop>5.625</hdop><vdop>6.25</vdop><extensions><gom:speed>0.31</gom:speed></extensions></trkpt>
   <trkpt lat="59.064609131" lon="30.0306235556"><ele>84.452</ele><time>2026-04-20T18:49:15.999Z</time><hdop>5.625</hdop><vdop>6.25</vdop><extensions><gom:speed>0.324</gom:speed></extensions></trkpt>
   <trkpt lat="59.0646129448" lon="30.0306176883"><ele>84.458</ele><time>2026-04-20T18:49:17.065Z</time><hdop>5.75</hdop><vdop>6.375</vdop><extensions><gom:speed>0.435</gom:speed></extensions></trkpt>
   <trkpt lat="59.0646195246" lon="30.0306098093"><ele>84.461</ele><time>2026-04-20T18:49:18.074Z</time><hdop>6.125</hdop><vdop>6.375</vdop><extensions><gom:speed>0.585</gom:speed></extensions></trkpt>
   <trkpt lat="59.0646304211" lon="30.0305976555"><ele>84.466</ele><time>2026-04-20T18:49:18.796Z</time><hdop>6.625</hdop><vdop>6.625</vdop><extensions><gom:speed>0.766</gom:speed></extensions></trkpt>
   <trkpt lat="59.0646370428" lon="30.0305896927"><ele>84.469</ele><time>2026-04-20T18:49:19.595Z</time><hdop>7.25</hdop><vdop>6.75</vdop><extensions><gom:speed>0.83</gom:speed></extensions></trkpt>
   <trkpt lat="59.0646446284" lon="30.0305831548"><ele>84.476</ele><time>2026-04-20T18:49:20.436Z</time><hdop>7.875</hdop><vdop>6.75</vdop><extensions><gom:speed>0.829</gom:speed></extensions></trkpt>
   <trkpt lat="59.064649448" lon="30.0305790477"><ele>84.482</ele><time>2026-04-20T18:49:20.975Z</time><hdop>8.0</hdop><vdop>6.5</vdop><extensions><gom:speed>0.829</gom:speed></extensions></trkpt>
   <trkpt lat="59.0646571174" lon="30.0305712525"><ele>84.488</ele><time>2026-04-20T18:49:22.040Z</time><hdop>8.75</hdop><vdop>6.5</vdop><extensions><gom:speed>0.82</gom:speed></extensions></trkpt>
   <trkpt lat="59.0646641163" lon="30.0305637088"><ele>84.491</ele><time>2026-04-20T18:49:22.884Z</time><hdop>9.375</hdop><vdop>6.5</vdop><extensions><gom:speed>0.869</gom:speed></extensions></trkpt>
   <trkpt lat="59.0646673434" lon="30.0305585959"><ele>84.494</ele><time>2026-04-20T18:49:23.352Z</time><hdop>9.75</hdop><vdop>6.5</vdop><extensions><gom:speed>0.884</gom:speed></extensions></trkpt>
   <trkpt lat="59.064673546" lon="30.0305474479"><ele>84.498</ele><time>2026-04-20T18:49:23.935Z</time><hdop>10.0</hdop><vdop>6.375</vdop><extensions><gom:speed>0.884</gom:speed></extensions></trkpt>
   <trkpt lat="59.0646760186" lon="30.0305412453"><ele>84.501</ele><time>2026-04-20T18:49:24.422Z</time><hdop>10.125</hdop><vdop>6.375</vdop><extensions><gom:speed>0.879</gom:speed></extensions></trkpt>
   <trkpt lat="59.0646801258" lon="30.0305328634"><ele>84.504</ele><time>2026-04-20T18:49:25.002Z</time><hdop>10.25</hdop><vdop>6.375</vdop><extensions><gom:speed>0.879</gom:speed></extensions></trkpt>
   <trkpt lat="59.0646867475" lon="30.0305236433"><ele>84.506</ele><time>2026-04-20T18:49:25.932Z</time><hdop>10.625</hdop><vdop>6.375</vdop><extensions><gom:speed>0.856</gom:speed></extensions></trkpt>
   <trkpt lat="59.0646922376" lon="30.0305203744"><ele>84.508</ele><time>2026-04-20T18:49:26.721Z</time><hdop>10.875</hdop><vdop>6.375</vdop><extensions><gom:speed>0.778</gom:speed></extensions></trkpt>
   <trkpt lat="59.0646973506" lon="30.0305174407"><ele>84.511</ele><time>2026-04-20T18:49:27.452Z</time><hdop>11.0</hdop><vdop>6.25</vdop><extensions><gom:speed>0.742</gom:speed></extensions></trkpt>
   <trkpt lat="59.064701332" lon="30.0305135012"><ele>84.513</ele><time>2026-04-20T18:49:27.963Z</time><hdop>11.125</hdop><vdop>6.125</vdop><extensions><gom:speed>0.746</gom:speed></extensions></trkpt>
   <trkpt lat="59.0647079537" lon="30.0305041135"><ele>84.514</ele><time>2026-04-20T18:49:29.062Z</time><hdop>11.375</hdop><vdop>6.125</vdop><extensions><gom:speed>0.796</gom:speed></extensions></trkpt>
   <trkpt lat="59.0647093367" lon="30.0305028562"><ele>84.516</ele><time>2026-04-20T18:49:29.622Z</time><hdop>11.5</hdop><vdop>6.0</vdop><extensions><gom:speed>0.798</gom:speed></extensions></trkpt>
   <trkpt lat="59.064719856" lon="30.030487685"><ele>84.518</ele><time>2026-04-20T18:49:30.622Z</time><hdop>11.75</hdop><vdop>6.0</vdop><extensions><gom:speed>0.834</gom:speed></extensions></trkpt>
   <trkpt lat="59.0647254299" lon="30.0304834102"><ele>84.522</ele><time>2026-04-20T18:49:31.420Z</time><hdop>12.0</hdop><vdop>6.0</vdop><extensions><gom:speed>0.801</gom:speed></extensions></trkpt>
   <trkpt lat="59.0647297466" lon="30.030479806"><ele>84.523</ele><time>2026-04-20T18:49:31.990Z</time><hdop>12.0</hdop><vdop>5.875</vdop><extensions><gom:speed>0.794</gom:speed></extensions></trkpt>
   <trkpt lat="59.0647367455" lon="30.0304736872"><ele>84.524</ele><time>2026-04-20T18:49:33.020Z</time><hdop>12.25</hdop><vdop>5.875</vdop><extensions><gom:speed>0.845</gom:speed></extensions></trkpt>
   <trkpt lat="59.0647447502" lon="30.0304668978"><ele>84.528</ele><time>2026-04-20T18:49:33.997Z</time><hdop>12.5</hdop><vdop>5.75</vdop><extensions><gom:speed>0.812</gom:speed></extensions></trkpt>
   <trkpt lat="59.0647511205" lon="30.0304611981"><ele>84.534</ele><time>2026-04-20T18:49:34.816Z</time><hdop>12.75</hdop><vdop>5.875</vdop><extensions><gom:speed>0.798</gom:speed></extensions></trkpt>
   <trkpt lat="59.0647588318" lon="30.0304541573"><ele>84.539</ele><time>2026-04-20T18:49:35.814Z</time><hdop>13.0</hdop><vdop>5.875</vdop><extensions><gom:speed>0.851</gom:speed></extensions></trkpt>
   <trkpt lat="59.0647654535" lon="30.0304469489"><ele>84.544</ele><time>2026-04-20T18:49:36.614Z</time><hdop>13.25</hdop><vdop>5.875</vdop><extensions><gom:speed>0.842</gom:speed></extensions></trkpt>
   <trkpt lat="59.0647711532" lon="30.0304406625"><ele>84.55</ele><time>2026-04-20T18:49:37.355Z</time><hdop>13.375</hdop><vdop>5.75</vdop><extensions><gom:speed>0.852</gom:speed></extensions></trkpt>
   <trkpt lat="59.0647760566" lon="30.0304345437"><ele>84.556</ele><time>2026-04-20T18:49:38.033Z</time><hdop>13.5</hdop><vdop>5.875</vdop><extensions><gom:speed>0.842</gom:speed></extensions></trkpt>
   <trkpt lat="59.0647823431" lon="30.0304266647"><ele>84.559</ele><time>2026-04-20T18:49:38.933Z</time><hdop>13.75</hdop><vdop>5.875</vdop><extensions><gom:speed>0.893</gom:speed></extensions></trkpt>
   <trkpt lat="59.0647887552" lon="30.0304182828"><ele>84.563</ele><time>2026-04-20T18:49:39.764Z</time><hdop>14.0</hdop><vdop>6.125</vdop><extensions><gom:speed>0.915</gom:speed></extensions></trkpt>
   <trkpt lat="59.0647940358" lon="30.0304094818"><ele>84.565</ele><time>2026-04-20T18:49:40.492Z</time><hdop>14.25</hdop><vdop>6.125</vdop><extensions><gom:speed>0.932</gom:speed></extensions></trkpt>
   <trkpt lat="59.0647978496" lon="30.0304026086"><ele>84.567</ele><time>2026-04-20T18:49:40.994Z</time><hdop>14.5</hdop><vdop>6.25</vdop><extensions><gom:speed>0.951</gom:speed></extensions></trkpt>
   <trkpt lat="59.0648042198" lon="30.0303897843"><ele>84.568</ele><time>2026-04-20T18:49:42.014Z</time><hdop>14.875</hdop><vdop>6.25</vdop><extensions><gom:speed>0.944</gom:speed></extensions></trkpt>
   <trkpt lat="59.0647799542" lon="30.030412164"><ele>84.126</ele><time>2026-04-20T18:49:42.864Z</time><hdop>14.75</hdop><vdop>5.125</vdop><extensions><gom:speed>0.843</gom:speed></extensions></trkpt>
   <trkpt lat="59.0647219515" lon="30.0304918759"><ele>82.968</ele><time>2026-04-20T18:49:43.621Z</time><hdop>13.0</hdop><vdop>4.5</vdop><extensions><gom:speed>0.835</gom:speed></extensions></trkpt>
   <trkpt lat="59.0647190178" lon="30.0305019342"><ele>82.68</ele><time>2026-04-20T18:49:44.075Z</time><hdop>12.125</hdop><vdop>4.0</vdop><extensions><gom:speed>0.828</gom:speed></extensions></trkpt>
   <trkpt lat="59.0647221191" lon="30.0305125792"><ele>82.554</ele><time>2026-04-20T18:49:45.075Z</time><hdop>10.125</hdop><vdop>4.375</vdop><extensions><gom:speed>0.821</gom:speed></extensions></trkpt>
   <trkpt lat="59.0647290342" lon="30.0305150938"><ele>82.479</ele><time>2026-04-20T18:49:45.981Z</time><hdop>8.0</hdop><vdop>4.375</vdop><extensions><gom:speed>0.889</gom:speed></extensions></trkpt>
   <trkpt lat="59.0647358235" lon="30.0305152614"><ele>82.116</ele><time>2026-04-20T18:49:46.780Z</time><hdop>5.875</hdop><vdop>4.0</vdop><extensions><gom:speed>0.896</gom:speed></extensions></trkpt>
   <trkpt lat="59.0647430319" lon="30.0305109028"><ele>81.567</ele><time>2026-04-20T18:49:47.600Z</time><hdop>4.0</hdop><vdop>4.125</vdop><extensions><gom:speed>0.903</gom:speed></extensions></trkpt>
   <trkpt lat="59.0647474324" lon="30.0305084721"><ele>81.453</ele><time>2026-04-20T18:49:48.075Z</time><hdop>3.125</hdop><vdop>4.0</vdop><extensions><gom:speed>0.903</gom:speed></extensions></trkpt>
   <trkpt lat="59.0647591252" lon="30.0305015989"><ele>80.919</ele><time>2026-04-20T18:49:49.075Z</time><hdop>3.0</hdop><vdop>4.125</vdop><extensions><gom:speed>0.948</gom:speed></extensions></trkpt>
   <trkpt lat="59.0647669204" lon="30.0304970727"><ele>80.601</ele><time>2026-04-20T18:49:49.880Z</time><hdop>3.0</hdop><vdop>4.125</vdop><extensions><gom:speed>0.973</gom:speed></extensions></trkpt>
   <trkpt lat="59.0647760566" lon="30.0304958992"><ele>80.305</ele><time>2026-04-20T18:49:50.659Z</time><hdop>3.0</hdop><vdop>4.0</vdop><extensions><gom:speed>0.971</gom:speed></extensions></trkpt>
   <trkpt lat="59.0647857377" lon="30.0305003416"><ele>80.314</ele><time>2026-04-20T18:49:51.459Z</time><hdop>3.125</hdop><vdop>4.0</vdop><extensions><gom:speed>0.939</gom:speed></extensions></trkpt>
   <trkpt lat="59.0647928205" lon="30.0305045326"><ele>80.514</ele><time>2026-04-20T18:49:52.075Z</time><hdop>3.125</hdop><vdop>4.0</vdop><extensions><gom:speed>0.928</gom:speed></extensions></trkpt>
   <trkpt lat="59.0648012443" lon="30.030514507"><ele>80.634</ele><time>2026-04-20T18:49:53.019Z</time><hdop>3.375</hdop><vdop>4.0</vdop><extensions><gom:speed>0.941</gom:speed></extensions></trkpt>
   <trkpt lat="59.0648028368" lon="30.0305291754"><ele>81.052</ele><time>2026-04-20T18:49:53.781Z</time><hdop>3.5</hdop><vdop>3.875</vdop><extensions><gom:speed>0.904</gom:speed></extensions></trkpt>
   <trkpt lat="59.0648024177" lon="30.0305327796"><ele>81.839</ele><time>2026-04-20T18:49:54.260Z</time><hdop>3.5</hdop><vdop>3.5</vdop><extensions><gom:speed>0.888</gom:speed></extensions></trkpt>
   <trkpt lat="59.0648011185" lon="30.0305453524"><ele>82.514</ele><time>2026-04-20T18:49:55.075Z</time><hdop>3.75</hdop><vdop>3.5</vdop><extensions><gom:speed>0.827</gom:speed></extensions></trkpt>
   <trkpt lat="59.0648044294" lon="30.0305560813"><ele>82.918</ele><time>2026-04-20T18:49:55.773Z</time><hdop>3.875</hdop><vdop>3.5</vdop><extensions><gom:speed>0.937</gom:speed></extensions></trkpt>
   <trkpt lat="59.0648164574" lon="30.0305586797"><ele>82.347</ele><time>2026-04-20T18:49:56.572Z</time><hdop>3.875</hdop><vdop>3.5</vdop><extensions><gom:speed>0.941</gom:speed></extensions></trkpt>
   <trkpt lat="59.0648244202" lon="30.0305562489"><ele>81.734</ele><time>2026-04-20T18:49:57.076Z</time><hdop>3.875</hdop><vdop>3.5</vdop><extensions><gom:speed>0.941</gom:speed></extensions></trkpt>
   <trkpt lat="59.0648376217" lon="30.0305500463"><ele>80.49</ele><time>2026-04-20T18:49:58.075Z</time><hdop>3.875</hdop><vdop>3.5</vdop><extensions><gom:speed>0.91</gom:speed></extensions></trkpt>
   <trkpt lat="59.0648464227" lon="30.0305448495"><ele>79.747</ele><time>2026-04-20T18:49:58.942Z</time><hdop>3.875</hdop><vdop>3.5</vdop><extensions><gom:speed>0.922</gom:speed></extensions></trkpt>
   <trkpt lat="59.0648563553" lon="30.0305409939"><ele>79.094</ele><time>2026-04-20T18:49:59.761Z</time><hdop>3.875</hdop><vdop>3.375</vdop><extensions><gom:speed>0.899</gom:speed></extensions></trkpt>
   <trkpt lat="59.0648633542" lon="30.030539988"><ele>78.29</ele><time>2026-04-20T18:50:00.420Z</time><hdop>3.875</hdop><vdop>3.5</vdop><extensions><gom:speed>0.887</gom:speed></extensions></trkpt>
   <trkpt lat="59.0648758432" lon="30.0305384793"><ele>77.984</ele><time>2026-04-20T18:50:01.076Z</time><hdop>3.875</hdop><vdop>3.5</vdop><extensions><gom:speed>0.885</gom:speed></extensions></trkpt>
   <trkpt lat="59.0648878293" lon="30.030534456"><ele>77.373</ele><time>2026-04-20T18:50:02.076Z</time><hdop>3.875</hdop><vdop>3.375</vdop><extensions><gom:speed>0.898</gom:speed></extensions></trkpt>
   <trkpt lat="59.0648972171" lon="30.0305287563"><ele>77.008</ele><time>2026-04-20T18:50:02.979Z</time><hdop>3.875</hdop><vdop>3.375</vdop><extensions><gom:speed>0.884</gom:speed></extensions></trkpt>
   <trkpt lat="59.0649078202" lon="30.0305254873"><ele>76.8</ele><time>2026-04-20T18:50:03.719Z</time><hdop>3.875</hdop><vdop>3.25</vdop><extensions><gom:speed>0.889</gom:speed></extensions></trkpt>
   <trkpt lat="59.0649196386" lon="30.0305240624"><ele>76.392</ele><time>2026-04-20T18:50:04.540Z</time><hdop>3.875</hdop><vdop>3.0</vdop><extensions><gom:speed>0.899</gom:speed></extensions></trkpt>
   <trkpt lat="59.06492735" lon="30.0305215478"><ele>75.906</ele><time>2026-04-20T18:50:05.075Z</time><hdop>3.875</hdop><vdop>2.875</vdop><extensions><gom:speed>0.929</gom:speed></extensions></trkpt>
   <trkpt lat="59.0649373245" lon="30.0305136689"><ele>75.615</ele><time>2026-04-20T18:50:06.060Z</time><hdop>4.0</hdop><vdop>2.875</vdop><extensions><gom:speed>0.903</gom:speed></extensions></trkpt>
   <trkpt lat="59.0649415573" lon="30.0305114896"><ele>75.258</ele><time>2026-04-20T18:50:06.579Z</time><hdop>4.0</hdop><vdop>2.75</vdop><extensions><gom:speed>0.917</gom:speed></extensions></trkpt>
   <trkpt lat="59.0649534177" lon="30.0305031077"><ele>74.785</ele><time>2026-04-20T18:50:07.075Z</time><hdop>4.125</hdop><vdop>2.625</vdop><extensions><gom:speed>0.938</gom:speed></extensions></trkpt>
   <trkpt lat="59.064958824" lon="30.0304980785"><ele>74.502</ele><time>2026-04-20T18:50:07.619Z</time><hdop>4.125</hdop><vdop>2.625</vdop><extensions><gom:speed>0.94</gom:speed></extensions></trkpt>
   <trkpt lat="59.06496532" lon="30.0304943905"><ele>74.774</ele><time>2026-04-20T18:50:08.075Z</time><hdop>4.125</hdop><vdop>2.5</vdop><extensions><gom:speed>0.956</gom:speed></extensions></trkpt>
   <trkpt lat="59.0649756298" lon="30.0304852542"><ele>74.937</ele><time>2026-04-20T18:50:09.020Z</time><hdop>4.25</hdop><vdop>2.5</vdop><extensions><gom:speed>0.991</gom:speed></extensions></trkpt>
   <trkpt lat="59.0649849337" lon="30.0304785487"><ele>75.146</ele><time>2026-04-20T18:50:09.681Z</time><hdop>4.25</hdop><vdop>2.5</vdop><extensions><gom:speed>1.023</gom:speed></extensions></trkpt>
   <trkpt lat="59.0649955368" lon="30.0304727652"><ele>75.106</ele><time>2026-04-20T18:50:10.442Z</time><hdop>4.375</hdop><vdop>2.5</vdop><extensions><gom:speed>1.037</gom:speed></extensions></trkpt>
   <trkpt lat="59.0650039187" lon="30.03046958"><ele>75.574</ele><time>2026-04-20T18:50:11.075Z</time><hdop>4.375</hdop><vdop>2.5</vdop><extensions><gom:speed>1.029</gom:speed></extensions></trkpt>
   <trkpt lat="59.0650140189" lon="30.0304648024"><ele>75.854</ele><time>2026-04-20T18:50:11.952Z</time><hdop>4.5</hdop><vdop>2.5</vdop><extensions><gom:speed>1.036</gom:speed></extensions></trkpt>
   <trkpt lat="59.0650233228" lon="30.030462204"><ele>75.841</ele><time>2026-04-20T18:50:12.692Z</time><hdop>4.625</hdop><vdop>2.5</vdop><extensions><gom:speed>1.018</gom:speed></extensions></trkpt>
   <trkpt lat="59.0650349317" lon="30.0304615334"><ele>75.734</ele><time>2026-04-20T18:50:13.492Z</time><hdop>4.75</hdop><vdop>2.625</vdop><extensions><gom:speed>0.973</gom:speed></extensions></trkpt>
   <trkpt lat="59.0650414277" lon="30.0304620363"><ele>75.597</ele><time>2026-04-20T18:50:14.075Z</time><hdop>4.75</hdop><vdop>2.625</vdop><extensions><gom:speed>0.983</gom:speed></extensions></trkpt>
   <trkpt lat="59.0650507316" lon="30.0304615334"><ele>75.515</ele><time>2026-04-20T18:50:14.992Z</time><hdop>4.75</hdop><vdop>2.625</vdop><extensions><gom:speed>0.994</gom:speed></extensions></trkpt>
   <trkpt lat="59.0650604546" lon="30.0304608629"><ele>75.269</ele><time>2026-04-20T18:50:15.794Z</time><hdop>4.875</hdop><vdop>2.75</vdop><extensions><gom:speed>1.009</gom:speed></extensions></trkpt>
   <trkpt lat="59.0650693394" lon="30.0304601085"><ele>74.656</ele><time>2026-04-20T18:50:16.532Z</time><hdop>4.875</hdop><vdop>2.875</vdop><extensions><gom:speed>1.004</gom:speed></extensions></trkpt>
   <trkpt lat="59.0650757516" lon="30.0304596056"><ele>73.366</ele><time>2026-04-20T18:50:17.076Z</time><hdop>4.875</hdop><vdop>3.0</vdop><extensions><gom:speed>0.994</gom:speed></extensions></trkpt>
   <trkpt lat="59.0650868576" lon="30.0304576777"><ele>72.887</ele><time>2026-04-20T18:50:18.075Z</time><hdop>4.875</hdop><vdop>2.875</vdop><extensions><gom:speed>0.976</gom:speed></extensions></trkpt>
   <trkpt lat="59.0650947366" lon="30.0304556661"><ele>72.602</ele><time>2026-04-20T18:50:18.833Z</time><hdop>4.875</hdop><vdop>2.875</vdop><extensions><gom:speed>0.98</gom:speed></extensions></trkpt>
   <trkpt lat="59.0651063455" lon="30.030455247"><ele>72.489</ele><time>2026-04-20T18:50:19.632Z</time><hdop>5.0</hdop><vdop>2.875</vdop><extensions><gom:speed>0.968</gom:speed></extensions></trkpt>
   <trkpt lat="59.0651130511" lon="30.0304565043"><ele>72.409</ele><time>2026-04-20T18:50:20.313Z</time><hdop>4.875</hdop><vdop>2.875</vdop><extensions><gom:speed>0.948</gom:speed></extensions></trkpt>
   <trkpt lat="59.0651209301" lon="30.0304556661"><ele>72.033</ele><time>2026-04-20T18:50:21.075Z</time><hdop>4.875</hdop><vdop>3.0</vdop><extensions><gom:speed>0.94</gom:speed></extensions></trkpt>
   <trkpt lat="59.0651285576" lon="30.0304549955"><ele>71.809</ele><time>2026-04-20T18:50:21.794Z</time><hdop>4.875</hdop><vdop>3.0</vdop><extensions><gom:speed>0.956</gom:speed></extensions></trkpt>
   <trkpt lat="59.0651378196" lon="30.0304570072"><ele>71.797</ele><time>2026-04-20T18:50:22.633Z</time><hdop>4.875</hdop><vdop>3.0</vdop><extensions><gom:speed>0.94</gom:speed></extensions></trkpt>
   <trkpt lat="59.0651452376" lon="30.030458013"><ele>71.789</ele><time>2026-04-20T18:50:23.376Z</time><hdop>4.75</hdop><vdop>3.125</vdop><extensions><gom:speed>0.935</gom:speed></extensions></trkpt>
   <trkpt lat="59.0651510211" lon="30.0304567557"><ele>71.642</ele><time>2026-04-20T18:50:24.075Z</time><hdop>4.75</hdop><vdop>3.375</vdop><extensions><gom:speed>0.896</gom:speed></extensions></trkpt>
   <trkpt lat="59.0651586486" lon="30.0304511399"><ele>71.554</ele><time>2026-04-20T18:50:24.875Z</time><hdop>4.625</hdop><vdop>3.375</vdop><extensions><gom:speed>0.928</gom:speed></extensions></trkpt>
   <trkpt lat="59.0651686231" lon="30.0304443505"><ele>71.041</ele><time>2026-04-20T18:50:25.693Z</time><hdop>4.5</hdop><vdop>3.375</vdop><extensions><gom:speed>0.943</gom:speed></extensions></trkpt>
   <trkpt lat="59.0651726464" lon="30.0304435123"><ele>70.568</ele><time>2026-04-20T18:50:26.375Z</time><hdop>4.5</hdop><vdop>3.125</vdop><extensions><gom:speed>0.942</gom:speed></extensions></trkpt>
   <trkpt lat="59.065177927" lon="30.0304409978"><ele>70.217</ele><time>2026-04-20T18:50:27.076Z</time><hdop>4.5</hdop><vdop>3.0</vdop><extensions><gom:speed>0.942</gom:speed></extensions></trkpt>
   <trkpt lat="59.0651851354" lon="30.0304364715"><ele>70.007</ele><time>2026-04-20T18:50:27.895Z</time><hdop>4.5</hdop><vdop>3.0</vdop><extensions><gom:speed>0.961</gom:speed></extensions></trkpt>
   <trkpt lat="59.0651923439" lon="30.030433957"><ele>69.726</ele><time>2026-04-20T18:50:28.615Z</time><hdop>4.5</hdop><vdop>2.875</vdop><extensions><gom:speed>0.995</gom:speed></extensions></trkpt>
   <trkpt lat="59.0651970377" lon="30.0304330349"><ele>69.588</ele><time>2026-04-20T18:50:29.075Z</time><hdop>4.5</hdop><vdop>2.75</vdop><extensions><gom:speed>0.994</gom:speed></extensions></trkpt>
   <trkpt lat="59.0652067188" lon="30.0304277543"><ele>69.505</ele><time>2026-04-20T18:50:30.077Z</time><hdop>4.5</hdop><vdop>2.75</vdop><extensions><gom:speed>0.988</gom:speed></extensions></trkpt>
   <trkpt lat="59.0652138434" lon="30.0304244016"><ele>69.135</ele><time>2026-04-20T18:50:30.838Z</time><hdop>4.5</hdop><vdop>2.5</vdop><extensions><gom:speed>1.004</gom:speed></extensions></trkpt>
   <trkpt lat="59.0652169448" lon="30.0304259941"><ele>68.724</ele><time>2026-04-20T18:50:31.351Z</time><hdop>4.5</hdop><vdop>2.5</vdop><extensions><gom:speed>1.009</gom:speed></extensions></trkpt>
   <trkpt lat="59.0652271288" lon="30.0304267485"><ele>68.284</ele><time>2026-04-20T18:50:32.075Z</time><hdop>4.5</hdop><vdop>2.5</vdop><extensions><gom:speed>1.024</gom:speed></extensions></trkpt>
   <trkpt lat="59.0652364327" lon="30.0304275867"><ele>68.021</ele><time>2026-04-20T18:50:33.058Z</time><hdop>4.625</hdop><vdop>2.5</vdop><extensions><gom:speed>1.01</gom:speed></extensions></trkpt>
   <trkpt lat="59.0652445212" lon="30.0304296822"><ele>67.729</ele><time>2026-04-20T18:50:33.837Z</time><hdop>4.625</hdop><vdop>2.5</vdop><extensions><gom:speed>0.991</gom:speed></extensions></trkpt>
   <trkpt lat="59.0652526517" lon="30.0304324482"><ele>67.278</ele><time>2026-04-20T18:50:34.597Z</time><hdop>4.75</hdop><vdop>2.5</vdop><extensions><gom:speed>1.002</gom:speed></extensions></trkpt>
   <trkpt lat="59.0652577227" lon="30.0304347951"><ele>67.12</ele><time>2026-04-20T18:50:35.075Z</time><hdop>4.75</hdop><vdop>2.5</vdop><extensions><gom:speed>0.988</gom:speed></extensions></trkpt>
   <trkpt lat="59.0652686192" lon="30.0304366392"><ele>67.025</ele><time>2026-04-20T18:50:36.080Z</time><hdop>4.75</hdop><vdop>2.5</vdop><extensions><gom:speed>1.018</gom:speed></extensions></trkpt>
   <trkpt lat="59.0652771268" lon="30.0304378965"><ele>66.833</ele><time>2026-04-20T18:50:36.839Z</time><hdop>4.875</hdop><vdop>2.5</vdop><extensions><gom:speed>1.009</gom:speed></extensions></trkpt>
   <trkpt lat="59.0652852573" lon="30.0304397405"><ele>66.698</ele><time>2026-04-20T18:50:37.578Z</time><hdop>4.875</hdop><vdop>2.5</vdop><extensions><gom:speed>1.005</gom:speed></extensions></trkpt>
   <trkpt lat="59.0652908312" lon="30.0304405787"><ele>66.49</ele><time>2026-04-20T18:50:38.075Z</time><hdop>4.875</hdop><vdop>2.5</vdop><extensions><gom:speed>1.015</gom:speed></extensions></trkpt>
   <trkpt lat="59.0653013505" lon="30.0304415007"><ele>66.507</ele><time>2026-04-20T18:50:39.075Z</time><hdop>4.875</hdop><vdop>2.5</vdop><extensions><gom:speed>1.006</gom:speed></extensions></trkpt>
   <trkpt lat="59.0653083494" lon="30.030439489"><ele>66.517</ele><time>2026-04-20T18:50:39.760Z</time><hdop>4.875</hdop><vdop>2.5</vdop><extensions><gom:speed>1.009</gom:speed></extensions></trkpt>
   <trkpt lat="59.0653160188" lon="30.0304383155"><ele>66.36</ele><time>2026-04-20T18:50:40.500Z</time><hdop>4.875</hdop><vdop>2.5</vdop><extensions><gom:speed>1.012</gom:speed></extensions></trkpt>
   <trkpt lat="59.0653218443" lon="30.030437645"><ele>66.097</ele><time>2026-04-20T18:50:41.075Z</time><hdop>4.875</hdop><vdop>2.5</vdop><extensions><gom:speed>1.007</gom:speed></extensions></trkpt>
   <trkpt lat="59.0653309386" lon="30.0304333702"><ele>65.94</ele><time>2026-04-20T18:50:41.980Z</time><hdop>4.875</hdop><vdop>2.5</vdop><extensions><gom:speed>1.017</gom:speed></extensions></trkpt>
   <trkpt lat="59.0653384404" lon="30.0304308557"><ele>65.508</ele><time>2026-04-20T18:50:42.653Z</time><hdop>4.875</hdop><vdop>2.5</vdop><extensions><gom:speed>1.054</gom:speed></extensions></trkpt>
   <trkpt lat="59.0653470319" lon="30.0304299336"><ele>65.321</ele><time>2026-04-20T18:50:43.441Z</time><hdop>4.875</hdop><vdop>2.5</vdop><extensions><gom:speed>1.033</gom:speed></extensions></trkpt>
   <trkpt lat="59.0653560424" lon="30.0304292631"><ele>64.925</ele><time>2026-04-20T18:50:44.075Z</time><hdop>4.875</hdop><vdop>2.5</vdop><extensions><gom:speed>1.013</gom:speed></extensions></trkpt>
   <trkpt lat="59.0653628318" lon="30.0304264971"><ele>64.688</ele><time>2026-04-20T18:50:44.982Z</time><hdop>4.875</hdop><vdop>2.5</vdop><extensions><gom:speed>1.002</gom:speed></extensions></trkpt>
   <trkpt lat="59.0653681543" lon="30.0304252398"><ele>64.809</ele><time>2026-04-20T18:50:45.652Z</time><hdop>4.875</hdop><vdop>2.5</vdop><extensions><gom:speed>0.992</gom:speed></extensions></trkpt>
   <trkpt lat="59.0653754465" lon="30.0304231443"><ele>64.743</ele><time>2026-04-20T18:50:46.415Z</time><hdop>4.75</hdop><vdop>2.75</vdop><extensions><gom:speed>1.014</gom:speed></extensions></trkpt>
   <trkpt lat="59.0653820263" lon="30.0304213003"><ele>64.521</ele><time>2026-04-20T18:50:47.075Z</time><hdop>4.75</hdop><vdop>2.875</vdop><extensions><gom:speed>1.026</gom:speed></extensions></trkpt>
   <trkpt lat="59.0653901568" lon="30.030417277"><ele>64.388</ele><time>2026-04-20T18:50:47.858Z</time><hdop>4.75</hdop><vdop>2.875</vdop><extensions><gom:speed>1.003</gom:speed></extensions></trkpt>
   <trkpt lat="59.0653980358" lon="30.0304161035"><ele>64.181</ele><time>2026-04-20T18:50:48.555Z</time><hdop>4.625</hdop><vdop>3.0</vdop><extensions><gom:speed>1.017</gom:speed></extensions></trkpt>
   <trkpt lat="59.065403945" lon="30.0304159359"><ele>63.951</ele><time>2026-04-20T18:50:49.075Z</time><hdop>4.625</hdop><vdop>3.125</vdop><extensions><gom:speed>1.03</gom:speed></extensions></trkpt>
   <trkpt lat="59.065408136" lon="30.0304150139"><ele>63.813</ele><time>2026-04-20T18:50:49.816Z</time><hdop>4.625</hdop><vdop>3.125</vdop><extensions><gom:speed>1.024</gom:speed></extensions></trkpt>
   <trkpt lat="59.0654222176" lon="30.0304099009"><ele>63.835</ele><time>2026-04-20T18:50:50.875Z</time><hdop>4.5</hdop><vdop>3.125</vdop><extensions><gom:speed>0.991</gom:speed></extensions></trkpt>
   <trkpt lat="59.0654284202" lon="30.0304088112"><ele>63.349</ele><time>2026-04-20T18:50:51.557Z</time><hdop>4.5</hdop><vdop>3.125</vdop><extensions><gom:speed>0.961</gom:speed></extensions></trkpt>
   <trkpt lat="59.0654335331" lon="30.0304097333"><ele>63.095</ele><time>2026-04-20T18:50:52.075Z</time><hdop>4.5</hdop><vdop>3.375</vdop><extensions><gom:speed>0.961</gom:speed></extensions></trkpt>
   <trkpt lat="59.0654423341" lon="30.0304164388"><ele>62.937</ele><time>2026-04-20T18:50:53.075Z</time><hdop>4.5</hdop><vdop>3.5</vdop><extensions><gom:speed>0.919</gom:speed></extensions></trkpt>
   <trkpt lat="59.0654454354" lon="30.0304332026"><ele>62.585</ele><time>2026-04-20T18:50:54.075Z</time><hdop>4.625</hdop><vdop>3.625</vdop><extensions><gom:speed>0.949</gom:speed></extensions></trkpt>
   <trkpt lat="59.065450255" lon="30.0304462784"><ele>62.122</ele><time>2026-04-20T18:50:55.076Z</time><hdop>4.625</hdop><vdop>3.875</vdop><extensions><gom:speed>0.983</gom:speed></extensions></trkpt>
   <trkpt lat="59.0654597266" lon="30.0304459431"><ele>61.621</ele><time>2026-04-20T18:50:55.976Z</time><hdop>4.625</hdop><vdop>4.0</vdop><extensions><gom:speed>0.933</gom:speed></extensions></trkpt>
   <trkpt lat="59.0654705392" lon="30.0304396567"><ele>61.322</ele><time>2026-04-20T18:50:57.054Z</time><hdop>4.875</hdop><vdop>4.0</vdop><extensions><gom:speed>0.92</gom:speed></extensions></trkpt>
   <trkpt lat="59.0654767418" lon="30.0304318615"><ele>61.086</ele><time>2026-04-20T18:50:57.914Z</time><hdop>4.875</hdop><vdop>3.625</vdop><extensions><gom:speed>0.926</gom:speed></extensions></trkpt>
   <trkpt lat="59.0654816453" lon="30.030427"><ele>60.959</ele><time>2026-04-20T18:50:58.576Z</time><hdop>5.0</hdop><vdop>3.625</vdop><extensions><gom:speed>0.88</gom:speed></extensions></trkpt>
   <trkpt lat="59.0654854171" lon="30.0304252398"><ele>60.93</ele><time>2026-04-20T18:50:59.075Z</time><hdop>4.875</hdop><vdop>3.625</vdop><extensions><gom:speed>0.873</gom:speed></extensions></trkpt>
   <trkpt lat="59.065493338" lon="30.0304223061"><ele>60.601</ele><time>2026-04-20T18:51:00.075Z</time><hdop>4.875</hdop><vdop>3.375</vdop><extensions><gom:speed>0.87</gom:speed></extensions></trkpt>
   <trkpt lat="59.0655004207" lon="30.030420043"><ele>60.404</ele><time>2026-04-20T18:51:00.953Z</time><hdop>5.0</hdop><vdop>3.375</vdop><extensions><gom:speed>0.841</gom:speed></extensions></trkpt>
   <trkpt lat="59.0655068329" lon="30.0304190372"><ele>60.488</ele><time>2026-04-20T18:51:02.001Z</time><hdop>4.875</hdop><vdop>3.375</vdop><extensions><gom:speed>0.713</gom:speed></extensions></trkpt>
   <trkpt lat="59.0655101437" lon="30.0304166064"><ele>60.428</ele><time>2026-04-20T18:51:02.643Z</time><hdop>4.875</hdop><vdop>3.375</vdop><extensions><gom:speed>0.578</gom:speed></extensions></trkpt>
   <trkpt lat="59.06551094" lon="30.0304140918"><ele>60.303</ele><time>2026-04-20T18:51:04.076Z</time><hdop>4.75</hdop><vdop>3.125</vdop><extensions><gom:speed>0.381</gom:speed></extensions></trkpt>
   <trkpt lat="59.0655077549" lon="30.0304157682"><ele>59.844</ele><time>2026-04-20T18:51:05.075Z</time><hdop>4.625</hdop><vdop>3.125</vdop><extensions><gom:speed>0.173</gom:speed></extensions></trkpt>
   <trkpt lat="59.0655053241" lon="30.030417277"><ele>59.517</ele><time>2026-04-20T18:51:06.075Z</time><hdop>4.5</hdop><vdop>3.125</vdop><extensions><gom:speed>0.08</gom:speed></extensions></trkpt>
   <trkpt lat="59.0655040249" lon="30.0304183666"><ele>59.781</ele><time>2026-04-20T18:51:07.075Z</time><hdop>4.25</hdop><vdop>3.0</vdop><extensions><gom:speed>0.088</gom:speed></extensions></trkpt>
   <trkpt lat="59.0655045278" lon="30.0304198754"><ele>59.938</ele><time>2026-04-20T18:51:08.001Z</time><hdop>4.125</hdop><vdop>3.0</vdop><extensions><gom:speed>0.126</gom:speed></extensions></trkpt>
   <trkpt lat="59.0655046536" lon="30.0304211326"><ele>59.952</ele><time>2026-04-20T18:51:09.019Z</time><hdop>4.0</hdop><vdop>3.125</vdop><extensions><gom:speed>0.095</gom:speed></extensions></trkpt>
   <trkpt lat="59.0655065395" lon="30.0304223899"><ele>59.758</ele><time>2026-04-20T18:51:10.075Z</time><hdop>3.875</hdop><vdop>3.0</vdop><extensions><gom:speed>0.163</gom:speed></extensions></trkpt>
   <trkpt lat="59.065509557" lon="30.0304245692"><ele>59.346</ele><time>2026-04-20T18:51:11.076Z</time><hdop>3.875</hdop><vdop>3.25</vdop><extensions><gom:speed>0.208</gom:speed></extensions></trkpt>
   <trkpt lat="59.0655130355" lon="30.0304264971"><ele>59.1</ele><time>2026-04-20T18:51:11.883Z</time><hdop>3.875</hdop><vdop>3.25</vdop><extensions><gom:speed>0.362</gom:speed></extensions></trkpt>
   <trkpt lat="59.0655170169" lon="30.0304273353"><ele>58.999</ele><time>2026-04-20T18:51:12.434Z</time><hdop>3.875</hdop><vdop>3.375</vdop><extensions><gom:speed>0.43</gom:speed></extensions></trkpt>
   <trkpt lat="59.0655205373" lon="30.0304275029"><ele>58.869</ele><time>2026-04-20T18:51:13.075Z</time><hdop>3.875</hdop><vdop>3.375</vdop><extensions><gom:speed>0.406</gom:speed></extensions></trkpt>
   <trkpt lat="59.0655251473" lon="30.0304312747"><ele>59.091</ele><time>2026-04-20T18:51:14.076Z</time><hdop>4.0</hdop><vdop>3.5</vdop><extensions><gom:speed>0.443</gom:speed></extensions></trkpt>
   <trkpt lat="59.0655268237" lon="30.0304328673"><ele>59.223</ele><time>2026-04-20T18:51:14.573Z</time><hdop>4.0</hdop><vdop>3.5</vdop><extensions><gom:speed>0.472</gom:speed></extensions></trkpt>
   <trkpt lat="59.0655309308" lon="30.0304359686"><ele>59.717</ele><time>2026-04-20T18:51:15.075Z</time><hdop>4.0</hdop><vdop>3.5</vdop><extensions><gom:speed>0.49</gom:speed></extensions></trkpt>
   <trkpt lat="59.0655340321" lon="30.0304335379"><ele>60.674</ele><time>2026-04-20T18:51:15.995Z</time><hdop>4.125</hdop><vdop>3.75</vdop><extensions><gom:speed>0.423</gom:speed></extensions></trkpt>
   <trkpt lat="59.0655346189" lon="30.0304302689"><ele>61.72</ele><time>2026-04-20T18:51:17.075Z</time><hdop>4.125</hdop><vdop>3.625</vdop><extensions><gom:speed>0.265</gom:speed></extensions></trkpt>
   <trkpt lat="59.0655342417" lon="30.0304290955"><ele>62.636</ele><time>2026-04-20T18:51:18.075Z</time><hdop>4.125</hdop><vdop>10.75</vdop><extensions><gom:speed>0.162</gom:speed></extensions></trkpt>
   <trkpt lat="59.0655338226" lon="30.0304277543"><ele>63.353</ele><time>2026-04-20T18:51:19.075Z</time><hdop>4.125</hdop><vdop>10.625</vdop><extensions><gom:speed>0.108</gom:speed></extensions></trkpt>
   <trkpt lat="59.0655340321" lon="30.0304272514"><ele>64.315</ele><time>2026-04-20T18:51:20.022Z</time><hdop>4.125</hdop><vdop>10.375</vdop><extensions><gom:speed>0.09</gom:speed></extensions></trkpt>
   <trkpt lat="59.0655341579" lon="30.0304277543"><ele>64.889</ele><time>2026-04-20T18:51:20.733Z</time><hdop>4.125</hdop><vdop>10.375</vdop><extensions><gom:speed>0.082</gom:speed></extensions></trkpt>
   <trkpt lat="59.0655351218" lon="30.0304268323"><ele>65.494</ele><time>2026-04-20T18:51:21.616Z</time><hdop>4.125</hdop><vdop>10.0</vdop><extensions><gom:speed>0.087</gom:speed></extensions></trkpt>
   <trkpt lat="59.0655347446" lon="30.0304264971"><ele>65.989</ele><time>2026-04-20T18:51:22.552Z</time><hdop>4.125</hdop><vdop>9.125</vdop><extensions><gom:speed>0.069</gom:speed></extensions></trkpt>
   <trkpt lat="59.0655351218" lon="30.0304245692"><ele>66.607</ele><time>2026-04-20T18:51:23.075Z</time><hdop>4.125</hdop><vdop>8.625</vdop><extensions><gom:speed>0.109</gom:speed></extensions></trkpt>
   <trkpt lat="59.0655353313" lon="30.0304216356"><ele>67.244</ele><time>2026-04-20T18:51:24.050Z</time><hdop>4.125</hdop><vdop>7.75</vdop><extensions><gom:speed>0.153</gom:speed></extensions></trkpt>
   <trkpt lat="59.0655358343" lon="30.0304164388"><ele>67.699</ele><time>2026-04-20T18:51:25.075Z</time><hdop>4.25</hdop><vdop>7.375</vdop><extensions><gom:speed>0.222</gom:speed></extensions></trkpt>
   <trkpt lat="59.0655360438" lon="30.0304083083"><ele>68.21</ele><time>2026-04-20T18:51:26.065Z</time><hdop>4.375</hdop><vdop>7.375</vdop><extensions><gom:speed>0.328</gom:speed></extensions></trkpt>
   <trkpt lat="59.0655358343" lon="30.0304062129"><ele>68.515</ele><time>2026-04-20T18:51:26.893Z</time><hdop>4.375</hdop><vdop>7.375</vdop><extensions><gom:speed>0.283</gom:speed></extensions></trkpt>
   <trkpt lat="59.0655359181" lon="30.0303979986"><ele>68.851</ele><time>2026-04-20T18:51:27.518Z</time><hdop>4.5</hdop><vdop>7.125</vdop><extensions><gom:speed>0.279</gom:speed></extensions></trkpt>
   <trkpt lat="59.0655347446" lon="30.0303969089"><ele>69.377</ele><time>2026-04-20T18:51:28.078Z</time><hdop>4.5</hdop><vdop>6.625</vdop><extensions><gom:speed>0.288</gom:speed></extensions></trkpt>
   <trkpt lat="59.0655338226" lon="30.0303957355"><ele>69.774</ele><time>2026-04-20T18:51:29.075Z</time><hdop>4.625</hdop><vdop>6.375</vdop><extensions><gom:speed>0.33</gom:speed></extensions></trkpt>
   <trkpt lat="59.0655307213" lon="30.0303933047"><ele>70.011</ele><time>2026-04-20T18:51:29.955Z</time><hdop>4.75</hdop><vdop>6.375</vdop><extensions><gom:speed>0.431</gom:speed></extensions></trkpt>
   <trkpt lat="59.0655256502" lon="30.0303884432"><ele>70.22</ele><time>2026-04-20T18:51:30.719Z</time><hdop>4.75</hdop><vdop>6.125</vdop><extensions><gom:speed>0.584</gom:speed></extensions></trkpt>
   <trkpt lat="59.0655192381" lon="30.0303819892"><ele>70.491</ele><time>2026-04-20T18:51:31.865Z</time><hdop>4.875</hdop><vdop>6.125</vdop><extensions><gom:speed>0.572</gom:speed></extensions></trkpt>
   <trkpt lat="59.0655180227" lon="30.0303729367"><ele>70.696</ele><time>2026-04-20T18:51:33.054Z</time><hdop>5.0</hdop><vdop>5.875</vdop><extensions><gom:speed>0.492</gom:speed></extensions></trkpt>
   <trkpt lat="59.0655233452" lon="30.0303689972"><ele>70.812</ele><time>2026-04-20T18:51:34.001Z</time><hdop>5.25</hdop><vdop>5.875</vdop><extensions><gom:speed>0.33</gom:speed></extensions></trkpt>
   <trkpt lat="59.065524351" lon="30.0303724338"><ele>70.857</ele><time>2026-04-20T18:51:34.949Z</time><hdop>5.375</hdop><vdop>6.0</vdop><extensions><gom:speed>0.171</gom:speed></extensions></trkpt>
   <trkpt lat="59.0655240577" lon="30.030375116"><ele>70.884</ele><time>2026-04-20T18:51:35.493Z</time><hdop>5.5</hdop><vdop>6.0</vdop><extensions><gom:speed>0.105</gom:speed></extensions></trkpt>
   <trkpt lat="59.0655244349" lon="30.0303762895"><ele>70.928</ele><time>2026-04-20T18:51:36.014Z</time><hdop>5.5</hdop><vdop>6.0</vdop><extensions><gom:speed>0.14</gom:speed></extensions></trkpt>
   <trkpt lat="59.065524351" lon="30.0303763733"><ele>70.955</ele><time>2026-04-20T18:51:36.678Z</time><hdop>5.625</hdop><vdop>6.0</vdop><extensions><gom:speed>0.113</gom:speed></extensions></trkpt>
   <trkpt lat="59.0655245187" lon="30.0303768762"><ele>71.032</ele><time>2026-04-20T18:51:37.438Z</time><hdop>5.75</hdop><vdop>6.0</vdop><extensions><gom:speed>0.082</gom:speed></extensions></trkpt>
   <trkpt lat="59.0655251473" lon="30.0303770438"><ele>71.116</ele><time>2026-04-20T18:51:38.028Z</time><hdop>5.75</hdop><vdop>6.125</vdop><extensions><gom:speed>0.118</gom:speed></extensions></trkpt>
   <trkpt lat="59.0655261532" lon="30.030377882"><ele>71.167</ele><time>2026-04-20T18:51:38.900Z</time><hdop>5.75</hdop><vdop>6.125</vdop><extensions><gom:speed>0.189</gom:speed></extensions></trkpt>
   <trkpt lat="59.0655279553" lon="30.0303808995"><ele>71.225</ele><time>2026-04-20T18:51:39.681Z</time><hdop>5.875</hdop><vdop>6.25</vdop><extensions><gom:speed>0.216</gom:speed></extensions></trkpt>
   <trkpt lat="59.0655298412" lon="30.0303853419"><ele>71.196</ele><time>2026-04-20T18:51:40.538Z</time><hdop>6.0</hdop><vdop>6.25</vdop><extensions><gom:speed>0.38</gom:speed></extensions></trkpt>
   <trkpt lat="59.0655311404" lon="30.0303892814"><ele>71.21</ele><time>2026-04-20T18:51:40.989Z</time><hdop>6.0</hdop><vdop>6.125</vdop><extensions><gom:speed>0.402</gom:speed></extensions></trkpt>
   <trkpt lat="59.0655345351" lon="30.0304019381"><ele>71.217</ele><time>2026-04-20T18:51:42.038Z</time><hdop>6.125</hdop><vdop>6.125</vdop><extensions><gom:speed>0.647</gom:speed></extensions></trkpt>
   <trkpt lat="59.0655406539" lon="30.0304192886"><ele>71.224</ele><time>2026-04-20T18:51:42.760Z</time><hdop>6.25</hdop><vdop>6.0</vdop><extensions><gom:speed>0.93</gom:speed></extensions></trkpt>
   <trkpt lat="59.0655495387" lon="30.0304324482"><ele>71.234</ele><time>2026-04-20T18:51:43.540Z</time><hdop>6.375</hdop><vdop>5.75</vdop><extensions><gom:speed>0.931</gom:speed></extensions></trkpt>
   <trkpt lat="59.0655580463" lon="30.0304373935"><ele>71.26</ele><time>2026-04-20T18:51:44.340Z</time><hdop>6.625</hdop><vdop>5.625</vdop><extensions><gom:speed>0.935</gom:speed></extensions></trkpt>
   <trkpt lat="59.0655649195" lon="30.030442255"><ele>71.276</ele><time>2026-04-20T18:51:45.059Z</time><hdop>6.75</hdop><vdop>5.625</vdop><extensions><gom:speed>0.931</gom:speed></extensions></trkpt>
   <trkpt lat="59.0655724213" lon="30.0304573425"><ele>71.298</ele><time>2026-04-20T18:51:45.701Z</time><hdop>7.125</hdop><vdop>5.625</vdop><extensions><gom:speed>0.987</gom:speed></extensions></trkpt>
   <trkpt lat="59.0655763188" lon="30.03046036"><ele>71.342</ele><time>2026-04-20T18:51:46.372Z</time><hdop>7.375</hdop><vdop>5.5</vdop><extensions><gom:speed>0.972</gom:speed></extensions></trkpt>
   <trkpt lat="59.0655823538" lon="30.0304633774"><ele>71.373</ele><time>2026-04-20T18:51:47.031Z</time><hdop>7.625</hdop><vdop>5.5</vdop><extensions><gom:speed>0.975</gom:speed></extensions></trkpt>
   <trkpt lat="59.065590149" lon="30.0304643833"><ele>71.391</ele><time>2026-04-20T18:51:47.853Z</time><hdop>7.875</hdop><vdop>5.5</vdop><extensions><gom:speed>0.993</gom:speed></extensions></trkpt>
   <trkpt lat="59.0655985309" lon="30.0304637965"><ele>71.407</ele><time>2026-04-20T18:51:48.653Z</time><hdop>8.25</hdop><vdop>5.5</vdop><extensions><gom:speed>0.975</gom:speed></extensions></trkpt>
   <trkpt lat="59.0656058231" lon="30.0304611143"><ele>71.422</ele><time>2026-04-20T18:51:49.401Z</time><hdop>8.75</hdop><vdop>5.5</vdop><extensions><gom:speed>0.963</gom:speed></extensions></trkpt>
   <trkpt lat="59.0656112295" lon="30.0304563366"><ele>71.431</ele><time>2026-04-20T18:51:50.055Z</time><hdop>8.875</hdop><vdop>5.5</vdop><extensions><gom:speed>0.962</gom:speed></extensions></trkpt>
   <trkpt lat="59.0656171387" lon="30.0304497988"><ele>71.439</ele><time>2026-04-20T18:51:50.915Z</time><hdop>9.25</hdop><vdop>5.5</vdop><extensions><gom:speed>0.961</gom:speed></extensions></trkpt>
   <trkpt lat="59.0656207429" lon="30.0304451887"><ele>71.449</ele><time>2026-04-20T18:51:51.593Z</time><hdop>9.625</hdop><vdop>5.625</vdop><extensions><gom:speed>0.9</gom:speed></extensions></trkpt>
   <trkpt lat="59.065625353" lon="30.0304352142"><ele>71.461</ele><time>2026-04-20T18:51:52.258Z</time><hdop>9.875</hdop><vdop>5.625</vdop><extensions><gom:speed>0.89</gom:speed></extensions></trkpt>
   <trkpt lat="59.0656280352" lon="30.0304286764"><ele>71.468</ele><time>2026-04-20T18:51:52.976Z</time><hdop>10.0</hdop><vdop>5.625</vdop><extensions><gom:speed>0.889</gom:speed></extensions></trkpt>
   <trkpt lat="59.0656322261" lon="30.0304205459"><ele>71.476</ele><time>2026-04-20T18:51:53.795Z</time><hdop>10.125</hdop><vdop>5.625</vdop><extensions><gom:speed>0.872</gom:speed></extensions></trkpt>
   <trkpt lat="59.0656368362" lon="30.0304147624"><ele>71.485</ele><time>2026-04-20T18:51:54.556Z</time><hdop>10.125</hdop><vdop>5.75</vdop><extensions><gom:speed>0.866</gom:speed></extensions></trkpt>
   <trkpt lat="59.0656433322" lon="30.0304076378"><ele>71.497</ele><time>2026-04-20T18:51:55.553Z</time><hdop>10.25</hdop><vdop>5.75</vdop><extensions><gom:speed>0.838</gom:speed></extensions></trkpt>
   <trkpt lat="59.0656469364" lon="30.0304044527"><ele>71.501</ele><time>2026-04-20T18:51:56.033Z</time><hdop>10.25</hdop><vdop>5.75</vdop><extensions><gom:speed>0.83</gom:speed></extensions></trkpt>
   <trkpt lat="59.0656514207" lon="30.0304001779"><ele>71.504</ele><time>2026-04-20T18:51:56.698Z</time><hdop>10.25</hdop><vdop>5.75</vdop><extensions><gom:speed>0.758</gom:speed></extensions></trkpt>
   <trkpt lat="59.065654522" lon="30.0303972442"><ele>71.508</ele><time>2026-04-20T18:51:57.810Z</time><hdop>10.25</hdop><vdop>5.875</vdop><extensions><gom:speed>0.698</gom:speed></extensions></trkpt>
   <trkpt lat="59.0656622334" lon="30.0303894491"><ele>71.525</ele><time>2026-04-20T18:51:58.996Z</time><hdop>10.375</hdop><vdop>6.125</vdop><extensions><gom:speed>0.49</gom:speed></extensions></trkpt>
   <trkpt lat="59.0656627363" lon="30.0303935562"><ele>71.537</ele><time>2026-04-20T18:51:59.943Z</time><hdop>10.375</hdop><vdop>6.625</vdop><extensions><gom:speed>0.304</gom:speed></extensions></trkpt>
   <trkpt lat="59.065661018" lon="30.0304014352"><ele>71.547</ele><time>2026-04-20T18:52:01.009Z</time><hdop>10.375</hdop><vdop>7.125</vdop><extensions><gom:speed>0.187</gom:speed></extensions></trkpt>
   <trkpt lat="59.065659635" lon="30.0304060452"><ele>71.553</ele><time>2026-04-20T18:52:01.693Z</time><hdop>10.375</hdop><vdop>7.125</vdop><extensions><gom:speed>0.178</gom:speed></extensions></trkpt>
   <trkpt lat="59.0656589225" lon="30.0304106553"><ele>71.557</ele><time>2026-04-20T18:52:02.433Z</time><hdop>10.375</hdop><vdop>7.5</vdop><extensions><gom:speed>0.169</gom:speed></extensions></trkpt>
   <trkpt lat="59.0656592578" lon="30.030412164"><ele>71.56</ele><time>2026-04-20T18:52:03.022Z</time><hdop>10.25</hdop><vdop>7.875</vdop><extensions><gom:speed>0.184</gom:speed></extensions></trkpt>
   <trkpt lat="59.065660557" lon="30.0304117449"><ele>71.561</ele><time>2026-04-20T18:52:03.970Z</time><hdop>10.25</hdop><vdop>8.125</vdop><extensions><gom:speed>0.25</gom:speed></extensions></trkpt>
   <trkpt lat="59.0656638259" lon="30.0304062967"><ele>71.562</ele><time>2026-04-20T18:52:05.059Z</time><hdop>10.375</hdop><vdop>8.125</vdop><extensions><gom:speed>0.339</gom:speed></extensions></trkpt>
   <trkpt lat="59.0656676397" lon="30.0303983339"><ele>71.563</ele><time>2026-04-20T18:52:05.997Z</time><hdop>10.375</hdop><vdop>8.25</vdop><extensions><gom:speed>0.488</gom:speed></extensions></trkpt>
   <trkpt lat="59.0656728365" lon="30.0303876889"><ele>71.564</ele><time>2026-04-20T18:52:06.857Z</time><hdop>10.5</hdop><vdop>8.0</vdop><extensions><gom:speed>0.66</gom:speed></extensions></trkpt>
   <trkpt lat="59.0656803383" lon="30.0303751998"><ele>71.571</ele><time>2026-04-20T18:52:07.998Z</time><hdop>10.75</hdop><vdop>7.5</vdop><extensions><gom:speed>0.599</gom:speed></extensions></trkpt>
   <trkpt lat="59.065686038" lon="30.0303698354"><ele>71.575</ele><time>2026-04-20T18:52:08.945Z</time><hdop>11.0</hdop><vdop>7.5</vdop><extensions><gom:speed>0.571</gom:speed></extensions></trkpt>
   <trkpt lat="59.0656887202" lon="30.0303658959"><ele>71.576</ele><time>2026-04-20T18:52:10.012Z</time><hdop>11.375</hdop><vdop>7.375</vdop><extensions><gom:speed>0.38</gom:speed></extensions></trkpt>
   <trkpt lat="59.065688343" lon="30.0303632137"><ele>71.576</ele><time>2026-04-20T18:52:10.960Z</time><hdop>11.375</hdop><vdop>7.5</vdop><extensions><gom:speed>0.316</gom:speed></extensions></trkpt>
   <trkpt lat="59.0656864571" lon="30.0303653092"><ele>71.576</ele><time>2026-04-20T18:52:12.026Z</time><hdop>11.375</hdop><vdop>6.875</vdop><extensions><gom:speed>0.203</gom:speed></extensions></trkpt>
   <trkpt lat="59.0656844454" lon="30.030370003"><ele>71.576</ele><time>2026-04-20T18:52:12.541Z</time><hdop>11.375</hdop><vdop>6.875</vdop><extensions><gom:speed>0.181</gom:speed></extensions></trkpt>
   <trkpt lat="59.0656623172" lon="30.0303867668"><ele>70.125</ele><time>2026-04-20T18:52:13.075Z</time><hdop>11.0</hdop><vdop>6.125</vdop><extensions><gom:speed>0.194</gom:speed></extensions></trkpt>
   <trkpt lat="59.0656389317" lon="30.0304013514"><ele>68.27</ele><time>2026-04-20T18:52:14.076Z</time><hdop>10.25</hdop><vdop>5.375</vdop><extensions><gom:speed>0.161</gom:speed></extensions></trkpt>
   <trkpt lat="59.0656288315" lon="30.030404285"><ele>67.505</ele><time>2026-04-20T18:52:15.075Z</time><hdop>8.875</hdop><vdop>5.0</vdop><extensions><gom:speed>0.194</gom:speed></extensions></trkpt>
   <trkpt lat="59.0656260235" lon="30.0304026925"><ele>67.041</ele><time>2026-04-20T18:52:16.075Z</time><hdop>7.625</hdop><vdop>4.75</vdop><extensions><gom:speed>0.184</gom:speed></extensions></trkpt>
   <trkpt lat="59.0656252273" lon="30.0304012675"><ele>66.764</ele><time>2026-04-20T18:52:17.035Z</time><hdop>6.625</hdop><vdop>4.75</vdop><extensions><gom:speed>0.158</gom:speed></extensions></trkpt>
   <trkpt lat="59.0656277418" lon="30.030394562"><ele>66.823</ele><time>2026-04-20T18:52:18.001Z</time><hdop>5.5</hdop><vdop>4.875</vdop><extensions><gom:speed>0.172</gom:speed></extensions></trkpt>
   <trkpt lat="59.0656323519" lon="30.0303832464"><ele>65.92</ele><time>2026-04-20T18:52:19.036Z</time><hdop>5.125</hdop><vdop>4.875</vdop><extensions><gom:speed>0.292</gom:speed></extensions></trkpt>
   <trkpt lat="59.0656398537" lon="30.0303670694"><ele>64.88</ele><time>2026-04-20T18:52:19.997Z</time><hdop>5.0</hdop><vdop>4.75</vdop><extensions><gom:speed>0.427</gom:speed></extensions></trkpt>
   <trkpt lat="59.0656512531" lon="30.0303495512"><ele>65.123</ele><time>2026-04-20T18:52:20.813Z</time><hdop>5.125</hdop><vdop>5.25</vdop><extensions><gom:speed>0.634</gom:speed></extensions></trkpt>
   <trkpt lat="59.0656662567" lon="30.0303316977"><ele>65.404</ele><time>2026-04-20T18:52:21.761Z</time><hdop>5.25</hdop><vdop>5.625</vdop><extensions><gom:speed>0.718</gom:speed></extensions></trkpt>
   <trkpt lat="59.0656756444" lon="30.0303216395"><ele>65.964</ele><time>2026-04-20T18:52:22.569Z</time><hdop>5.25</hdop><vdop>5.625</vdop><extensions><gom:speed>0.716</gom:speed></extensions></trkpt>
   <trkpt lat="59.0656823499" lon="30.0303094019"><ele>66.525</ele><time>2026-04-20T18:52:23.042Z</time><hdop>5.375</hdop><vdop>5.625</vdop><extensions><gom:speed>0.709</gom:speed></extensions></trkpt>
   <trkpt lat="59.0656843197" lon="30.0303038698"><ele>66.86</ele><time>2026-04-20T18:52:23.538Z</time><hdop>5.375</hdop><vdop>5.625</vdop><extensions><gom:speed>0.769</gom:speed></extensions></trkpt>
   <trkpt lat="59.0656890554" lon="30.0302982539"><ele>67.146</ele><time>2026-04-20T18:52:24.075Z</time><hdop>5.375</hdop><vdop>5.5</vdop><extensions><gom:speed>0.739</gom:speed></extensions></trkpt>
   <trkpt lat="59.0656965573" lon="30.0302888662"><ele>67.395</ele><time>2026-04-20T18:52:25.075Z</time><hdop>5.25</hdop><vdop>5.375</vdop><extensions><gom:speed>0.681</gom:speed></extensions></trkpt>
   <trkpt lat="59.065705023" lon="30.0302793108"><ele>67.842</ele><time>2026-04-20T18:52:26.075Z</time><hdop>5.125</hdop><vdop>5.375</vdop><extensions><gom:speed>0.729</gom:speed></extensions></trkpt>
   <trkpt lat="59.0657154165" lon="30.0302681629"><ele>68.075</ele><time>2026-04-20T18:52:27.076Z</time><hdop>5.0</hdop><vdop>5.25</vdop><extensions><gom:speed>0.771</gom:speed></extensions></trkpt>
   <trkpt lat="59.0657222478" lon="30.0302560092"><ele>68.215</ele><time>2026-04-20T18:52:28.060Z</time><hdop>4.875</hdop><vdop>5.25</vdop><extensions><gom:speed>0.759</gom:speed></extensions></trkpt>
   <trkpt lat="59.065727235" lon="30.0302555901"><ele>68.3</ele><time>2026-04-20T18:52:28.728Z</time><hdop>4.75</hdop><vdop>5.0</vdop><extensions><gom:speed>0.728</gom:speed></extensions></trkpt>
   <trkpt lat="59.0657389278" lon="30.0302480463"><ele>68.764</ele><time>2026-04-20T18:52:29.194Z</time><hdop>4.5</hdop><vdop>4.625</vdop><extensions><gom:speed>0.68</gom:speed></extensions></trkpt>
   <trkpt lat="59.0657446275" lon="30.0302406703"><ele>69.183</ele><time>2026-04-20T18:52:30.076Z</time><hdop>4.375</hdop><vdop>8.0</vdop><extensions><gom:speed>0.576</gom:speed></extensions></trkpt>
   <trkpt lat="59.0657488184" lon="30.0302332104"><ele>69.624</ele><time>2026-04-20T18:52:31.075Z</time><hdop>4.25</hdop><vdop>7.75</vdop><extensions><gom:speed>0.51</gom:speed></extensions></trkpt>
   <trkpt lat="59.0657497404" lon="30.0302265887"><ele>69.887</ele><time>2026-04-20T18:52:31.919Z</time><hdop>4.25</hdop><vdop>7.75</vdop><extensions><gom:speed>0.522</gom:speed></extensions></trkpt>
   <trkpt lat="59.0657543505" lon="30.0302206375"><ele>70.336</ele><time>2026-04-20T18:52:32.739Z</time><hdop>4.125</hdop><vdop>7.625</vdop><extensions><gom:speed>0.533</gom:speed></extensions></trkpt>
   <trkpt lat="59.0657602178" lon="30.0302140158"><ele>70.713</ele><time>2026-04-20T18:52:34.076Z</time><hdop>4.125</hdop><vdop>7.375</vdop><extensions><gom:speed>0.423</gom:speed></extensions></trkpt>
   <trkpt lat="59.065761517" lon="30.0302144349"><ele>70.939</ele><time>2026-04-20T18:52:35.006Z</time><hdop>4.125</hdop><vdop>7.375</vdop><extensions><gom:speed>0.377</gom:speed></extensions></trkpt>
   <trkpt lat="59.0657686416" lon="30.0302132614"><ele>71.468</ele><time>2026-04-20T18:52:36.075Z</time><hdop>4.0</hdop><vdop>6.75</vdop><extensions><gom:speed>0.277</gom:speed></extensions></trkpt>
   <trkpt lat="59.0657724554" lon="30.0302175362"><ele>72.026</ele><time>2026-04-20T18:52:37.075Z</time><hdop>4.0</hdop><vdop>6.625</vdop><extensions><gom:speed>0.161</gom:speed></extensions></trkpt>
   <trkpt lat="59.065773545" lon="30.030220889"><ele>72.359</ele><time>2026-04-20T18:52:38.059Z</time><hdop>4.0</hdop><vdop>6.625</vdop><extensions><gom:speed>0.125</gom:speed></extensions></trkpt>
   <trkpt lat="59.0657739222" lon="30.0302225654"><ele>72.533</ele><time>2026-04-20T18:52:38.838Z</time><hdop>4.0</hdop><vdop>6.5</vdop><extensions><gom:speed>0.113</gom:speed></extensions></trkpt>
   <trkpt lat="59.0657751376" lon="30.0302230683"><ele>72.319</ele><time>2026-04-20T18:52:39.678Z</time><hdop>4.0</hdop><vdop>6.375</vdop><extensions><gom:speed>0.171</gom:speed></extensions></trkpt>
   <trkpt lat="59.0657775264" lon="30.0302218948"><ele>72.119</ele><time>2026-04-20T18:52:40.636Z</time><hdop>4.125</hdop><vdop>6.25</vdop><extensions><gom:speed>0.268</gom:speed></extensions></trkpt>
   <trkpt lat="59.0657793285" lon="30.0302205537"><ele>71.685</ele><time>2026-04-20T18:52:41.166Z</time><hdop>4.25</hdop><vdop>6.0</vdop><extensions><gom:speed>0.278</gom:speed></extensions></trkpt>
   <trkpt lat="59.0657834357" lon="30.0302167818"><ele>71.426</ele><time>2026-04-20T18:52:42.017Z</time><hdop>4.25</hdop><vdop>6.0</vdop><extensions><gom:speed>0.382</gom:speed></extensions></trkpt>
   <trkpt lat="59.0657877524" lon="30.0302137644"><ele>71.228</ele><time>2026-04-20T18:52:42.956Z</time><hdop>4.375</hdop><vdop>6.125</vdop><extensions><gom:speed>0.463</gom:speed></extensions></trkpt>
   <trkpt lat="59.0657908537" lon="30.0302146026"><ele>71.156</ele><time>2026-04-20T18:52:44.009Z</time><hdop>4.625</hdop><vdop>6.375</vdop><extensions><gom:speed>0.382</gom:speed></extensions></trkpt>
   <trkpt lat="59.0657901412" lon="30.0302154407"><ele>71.167</ele><time>2026-04-20T18:52:44.957Z</time><hdop>4.875</hdop><vdop>6.25</vdop><extensions><gom:speed>0.233</gom:speed></extensions></trkpt>
   <trkpt lat="59.0657899317" lon="30.0302137644"><ele>71.235</ele><time>2026-04-20T18:52:46.023Z</time><hdop>5.125</hdop><vdop>6.25</vdop><extensions><gom:speed>0.16</gom:speed></extensions></trkpt>
   <trkpt lat="59.0657898478" lon="30.0302130938"><ele>71.319</ele><time>2026-04-20T18:52:46.970Z</time><hdop>5.375</hdop><vdop>6.375</vdop><extensions><gom:speed>0.155</gom:speed></extensions></trkpt>
   <trkpt lat="59.0657893449" lon="30.0302137644"><ele>71.41</ele><time>2026-04-20T18:52:48.036Z</time><hdop>5.5</hdop><vdop>6.625</vdop><extensions><gom:speed>0.096</gom:speed></extensions></trkpt>
   <trkpt lat="59.0657895545" lon="30.0302136805"><ele>71.564</ele><time>2026-04-20T18:52:48.984Z</time><hdop>5.5</hdop><vdop>6.625</vdop><extensions><gom:speed>0.119</gom:speed></extensions></trkpt>
   <trkpt lat="59.065790225" lon="30.030214854"><ele>71.767</ele><time>2026-04-20T18:52:50.050Z</time><hdop>5.625</hdop><vdop>7.0</vdop><extensions><gom:speed>0.165</gom:speed></extensions></trkpt>
   <trkpt lat="59.0657910213" lon="30.0302161113"><ele>71.927</ele><time>2026-04-20T18:52:50.998Z</time><hdop>5.75</hdop><vdop>7.0</vdop><extensions><gom:speed>0.165</gom:speed></extensions></trkpt>
   <trkpt lat="59.0657924462" lon="30.0302161951"><ele>72.023</ele><time>2026-04-20T18:52:51.722Z</time><hdop>5.875</hdop><vdop>7.0</vdop><extensions><gom:speed>0.207</gom:speed></extensions></trkpt>
   <trkpt lat="59.065795338" lon="30.0302154407"><ele>72.161</ele><time>2026-04-20T18:52:52.580Z</time><hdop>6.0</hdop><vdop>7.125</vdop><extensions><gom:speed>0.307</gom:speed></extensions></trkpt>
   <trkpt lat="59.0657997385" lon="30.0302123394"><ele>72.256</ele><time>2026-04-20T18:52:53.500Z</time><hdop>6.125</hdop><vdop>7.125</vdop><extensions><gom:speed>0.379</gom:speed></extensions></trkpt>
   <trkpt lat="59.0658021273" lon="30.030210244"><ele>72.327</ele><time>2026-04-20T18:52:53.959Z</time><hdop>6.125</hdop><vdop>7.375</vdop><extensions><gom:speed>0.392</gom:speed></extensions></trkpt>
   <trkpt lat="59.0658052286" lon="30.0302083999"><ele>72.37</ele><time>2026-04-20T18:52:54.416Z</time><hdop>6.25</hdop><vdop>7.375</vdop><extensions><gom:speed>0.491</gom:speed></extensions></trkpt>
   <trkpt lat="59.0658092519" lon="30.0302052986"><ele>72.42</ele><time>2026-04-20T18:52:55.026Z</time><hdop>6.375</hdop><vdop>7.125</vdop><extensions><gom:speed>0.508</gom:speed></extensions></trkpt>
   <trkpt lat="59.0658174243" lon="30.0301998504"><ele>72.45</ele><time>2026-04-20T18:52:55.995Z</time><hdop>6.625</hdop><vdop>7.125</vdop><extensions><gom:speed>0.641</gom:speed></extensions></trkpt>
   <trkpt lat="59.0658234174" lon="30.0301911332"><ele>72.541</ele><time>2026-04-20T18:52:57.039Z</time><hdop>6.875</hdop><vdop>7.125</vdop><extensions><gom:speed>0.614</gom:speed></extensions></trkpt>
   <trkpt lat="59.0658226211" lon="30.0301825837"><ele>72.613</ele><time>2026-04-20T18:52:57.987Z</time><hdop>7.0</hdop><vdop>7.375</vdop><extensions><gom:speed>0.52</gom:speed></extensions></trkpt>
   <trkpt lat="59.0658222439" lon="30.0301776384"><ele>72.656</ele><time>2026-04-20T18:52:58.917Z</time><hdop>7.375</hdop><vdop>7.375</vdop><extensions><gom:speed>0.433</gom:speed></extensions></trkpt>
   <trkpt lat="59.0658235431" lon="30.0301760458"><ele>72.722</ele><time>2026-04-20T18:52:59.541Z</time><hdop>7.625</hdop><vdop>7.25</vdop><extensions><gom:speed>0.415</gom:speed></extensions></trkpt>
   <trkpt lat="59.0658266444" lon="30.0301739503"><ele>72.796</ele><time>2026-04-20T18:53:00.001Z</time><hdop>7.75</hdop><vdop>7.0</vdop><extensions><gom:speed>0.427</gom:speed></extensions></trkpt>
   <trkpt lat="59.0658278179" lon="30.0301752914"><ele>72.841</ele><time>2026-04-20T18:53:00.754Z</time><hdop>8.0</hdop><vdop>7.0</vdop><extensions><gom:speed>0.392</gom:speed></extensions></trkpt>
   <trkpt lat="59.0658310449" lon="30.0301774707"><ele>72.898</ele><time>2026-04-20T18:53:02.057Z</time><hdop>8.25</hdop><vdop>6.75</vdop><extensions><gom:speed>0.373</gom:speed></extensions></trkpt>
   <trkpt lat="59.0658347329" lon="30.0301971682"><ele>73.0</ele><time>2026-04-20T18:53:02.962Z</time><hdop>8.125</hdop><vdop>7.0</vdop><extensions><gom:speed>0.342</gom:speed></extensions></trkpt>
   <trkpt lat="59.0658338528" lon="30.0301987608"><ele>73.075</ele><time>2026-04-20T18:53:04.028Z</time><hdop>8.125</hdop><vdop>7.0</vdop><extensions><gom:speed>0.203</gom:speed></extensions></trkpt>
   <trkpt lat="59.0658324279" lon="30.0301959109"><ele>73.13</ele><time>2026-04-20T18:53:04.976Z</time><hdop>8.125</hdop><vdop>7.25</vdop><extensions><gom:speed>0.141</gom:speed></extensions></trkpt>
   <trkpt lat="59.0658309192" lon="30.0301947374"><ele>73.163</ele><time>2026-04-20T18:53:05.805Z</time><hdop>8.125</hdop><vdop>7.25</vdop><extensions><gom:speed>0.125</gom:speed></extensions></trkpt>
   <trkpt lat="59.0658301229" lon="30.0301930611"><ele>73.21</ele><time>2026-04-20T18:53:06.990Z</time><hdop>7.75</hdop><vdop>7.0</vdop><extensions><gom:speed>0.129</gom:speed></extensions></trkpt>
   <trkpt lat="59.0658302486" lon="30.0301913009"><ele>73.261</ele><time>2026-04-20T18:53:08.057Z</time><hdop>7.875</hdop><vdop>6.625</vdop><extensions><gom:speed>0.143</gom:speed></extensions></trkpt>
   <trkpt lat="59.0658299552" lon="30.0301876128"><ele>73.305</ele><time>2026-04-20T18:53:09.004Z</time><hdop>8.0</hdop><vdop>6.625</vdop><extensions><gom:speed>0.179</gom:speed></extensions></trkpt>
   <trkpt lat="59.0658309192" lon="30.0301827513"><ele>73.363</ele><time>2026-04-20T18:53:09.951Z</time><hdop>8.125</hdop><vdop>6.75</vdop><extensions><gom:speed>0.239</gom:speed></extensions></trkpt>
   <trkpt lat="59.0658318412" lon="30.0301809911"><ele>73.397</ele><time>2026-04-20T18:53:10.517Z</time><hdop>8.25</hdop><vdop>6.75</vdop><extensions><gom:speed>0.275</gom:speed></extensions></trkpt>
   <trkpt lat="59.0658331404" lon="30.0301793986"><ele>73.435</ele><time>2026-04-20T18:53:11.017Z</time><hdop>8.25</hdop><vdop>6.75</vdop><extensions><gom:speed>0.284</gom:speed></extensions></trkpt>
   <trkpt lat="59.0658346491" lon="30.0301773869"><ele>73.458</ele><time>2026-04-20T18:53:11.553Z</time><hdop>8.375</hdop><vdop>6.75</vdop><extensions><gom:speed>0.334</gom:speed></extensions></trkpt>
   <trkpt lat="59.0658362417" lon="30.0301754591"><ele>73.481</ele><time>2026-04-20T18:53:12.084Z</time><hdop>8.5</hdop><vdop>6.875</vdop><extensions><gom:speed>0.346</gom:speed></extensions></trkpt>
   <trkpt lat="59.0658392172" lon="30.0301711843"><ele>73.495</ele><time>2026-04-20T18:53:12.560Z</time><hdop>8.625</hdop><vdop>6.875</vdop><extensions><gom:speed>0.363</gom:speed></extensions></trkpt>
   <trkpt lat="59.0658402231" lon="30.0301697594"><ele>73.544</ele><time>2026-04-20T18:53:13.032Z</time><hdop>8.625</hdop><vdop>6.5</vdop><extensions><gom:speed>0.372</gom:speed></extensions></trkpt>
   <trkpt lat="59.0658433244" lon="30.0301666581"><ele>73.582</ele><time>2026-04-20T18:53:13.979Z</time><hdop>8.75</hdop><vdop>6.25</vdop><extensions><gom:speed>0.414</gom:speed></extensions></trkpt>
   <trkpt lat="59.0658480182" lon="30.0301806558"><ele>75.305</ele><time>2026-04-20T18:53:15.075Z</time><hdop>8.75</hdop><vdop>5.5</vdop><extensions><gom:speed>0.361</gom:speed></extensions></trkpt>
   <trkpt lat="59.0658535503" lon="30.0301980902"><ele>76.857</ele><time>2026-04-20T18:53:16.075Z</time><hdop>8.5</hdop><vdop>5.125</vdop><extensions><gom:speed>0.35</gom:speed></extensions></trkpt>
   <trkpt lat="59.0658595434" lon="30.0302152731"><ele>78.099</ele><time>2026-04-20T18:53:17.075Z</time><hdop>8.125</hdop><vdop>4.75</vdop><extensions><gom:speed>0.337</gom:speed></extensions></trkpt>
   <trkpt lat="59.0658631476" lon="30.0302246608"><ele>78.062</ele><time>2026-04-20T18:53:18.075Z</time><hdop>7.625</hdop><vdop>4.5</vdop><extensions><gom:speed>0.195</gom:speed></extensions></trkpt>
   <trkpt lat="59.0658668356" lon="30.03022969"><ele>77.989</ele><time>2026-04-20T18:53:19.075Z</time><hdop>6.875</hdop><vdop>6.0</vdop><extensions><gom:speed>0.134</gom:speed></extensions></trkpt>
   <trkpt lat="59.0658664165" lon="30.0302307796"><ele>77.219</ele><time>2026-04-20T18:53:20.020Z</time><hdop>6.375</hdop><vdop>6.0</vdop><extensions><gom:speed>0.086</gom:speed></extensions></trkpt>
   <trkpt lat="59.0658684282" lon="30.0302353897"><ele>76.631</ele><time>2026-04-20T18:53:21.075Z</time><hdop>5.875</hdop><vdop>6.0</vdop><extensions><gom:speed>0.08</gom:speed></extensions></trkpt>
   <trkpt lat="59.0658689311" lon="30.0302385748"><ele>76.28</ele><time>2026-04-20T18:53:21.701Z</time><hdop>5.5</hdop><vdop>6.0</vdop><extensions><gom:speed>0.028</gom:speed></extensions></trkpt>
   <trkpt lat="59.0658687215" lon="30.0302415085"><ele>76.066</ele><time>2026-04-20T18:53:22.640Z</time><hdop>5.125</hdop><vdop>5.875</vdop><extensions><gom:speed>0.082</gom:speed></extensions></trkpt>
   <trkpt lat="59.0658692245" lon="30.0302422628"><ele>74.093</ele><time>2026-04-20T18:53:23.459Z</time><hdop>5.125</hdop><vdop>5.625</vdop><extensions><gom:speed>0.101</gom:speed></extensions></trkpt>
   <trkpt lat="59.0658723258" lon="30.0302444421"><ele>72.332</ele><time>2026-04-20T18:53:24.075Z</time><hdop>5.125</hdop><vdop>5.5</vdop><extensions><gom:speed>0.144</gom:speed></extensions></trkpt>
   <trkpt lat="59.065879157" lon="30.0302469567"><ele>70.406</ele><time>2026-04-20T18:53:25.076Z</time><hdop>5.0</hdop><vdop>5.25</vdop><extensions><gom:speed>0.193</gom:speed></extensions></trkpt>
   <trkpt lat="59.0658845214" lon="30.0302446936"><ele>68.76</ele><time>2026-04-20T18:53:26.075Z</time><hdop>4.875</hdop><vdop>5.375</vdop><extensions><gom:speed>0.246</gom:speed></extensions></trkpt>
   <trkpt lat="59.0658891315" lon="30.030243101"><ele>67.34</ele><time>2026-04-20T18:53:27.075Z</time><hdop>4.875</hdop><vdop>6.375</vdop><extensions><gom:speed>0.189</gom:speed></extensions></trkpt>
   <trkpt lat="59.0658938253" lon="30.0302426819"><ele>65.924</ele><time>2026-04-20T18:53:28.075Z</time><hdop>4.75</hdop><vdop>6.0</vdop><extensions><gom:speed>0.178</gom:speed></extensions></trkpt>
   <trkpt lat="59.0659003213" lon="30.0302425143"><ele>65.006</ele><time>2026-04-20T18:53:29.076Z</time><hdop>4.625</hdop><vdop>5.5</vdop><extensions><gom:speed>0.228</gom:speed></extensions></trkpt>
   <trkpt lat="59.0659053505" lon="30.0302434363"><ele>64.457</ele><time>2026-04-20T18:53:29.993Z</time><hdop>4.5</hdop><vdop>5.5</vdop><extensions><gom:speed>0.277</gom:speed></extensions></trkpt>
   <trkpt lat="59.0659123493" lon="30.0302391615"><ele>63.325</ele><time>2026-04-20T18:53:30.563Z</time><hdop>4.5</hdop><vdop>5.375</vdop><extensions><gom:speed>0.411</gom:speed></extensions></trkpt>
   <trkpt lat="59.0659248384" lon="30.0302313664"><ele>62.843</ele><time>2026-04-20T18:53:31.075Z</time><hdop>4.5</hdop><vdop>5.125</vdop><extensions><gom:speed>0.591</gom:speed></extensions></trkpt>
   <trkpt lat="59.0659315439" lon="30.030224577"><ele>62.555</ele><time>2026-04-20T18:53:31.572Z</time><hdop>4.625</hdop><vdop>5.125</vdop><extensions><gom:speed>0.763</gom:speed></extensions></trkpt>
   <trkpt lat="59.065939842" lon="30.0302166142"><ele>62.234</ele><time>2026-04-20T18:53:32.076Z</time><hdop>4.625</hdop><vdop>5.0</vdop><extensions><gom:speed>0.832</gom:speed></extensions></trkpt>
   <trkpt lat="59.0659517443" lon="30.0302099925"><ele>62.041</ele><time>2026-04-20T18:53:33.073Z</time><hdop>4.875</hdop><vdop>5.0</vdop><extensions><gom:speed>0.88</gom:speed></extensions></trkpt>
   <trkpt lat="59.0659635209" lon="30.0301997666"><ele>61.965</ele><time>2026-04-20T18:53:34.021Z</time><hdop>5.0</hdop><vdop>4.625</vdop><extensions><gom:speed>0.86</gom:speed></extensions></trkpt>
   <trkpt lat="59.0659724476" lon="30.0301907141"><ele>61.688</ele><time>2026-04-20T18:53:34.842Z</time><hdop>5.25</hdop><vdop>4.375</vdop><extensions><gom:speed>0.824</gom:speed></extensions></trkpt>
   <trkpt lat="59.065980117" lon="30.0301819969"><ele>61.592</ele><time>2026-04-20T18:53:35.738Z</time><hdop>5.5</hdop><vdop>4.25</vdop><extensions><gom:speed>0.776</gom:speed></extensions></trkpt>
   <trkpt lat="59.0659832183" lon="30.0301769678"><ele>61.136</ele><time>2026-04-20T18:53:36.723Z</time><hdop>5.625</hdop><vdop>5.75</vdop><extensions><gom:speed>0.721</gom:speed></extensions></trkpt>
   <trkpt lat="59.0659900496" lon="30.0301633891"><ele>60.434</ele><time>2026-04-20T18:53:38.026Z</time><hdop>6.0</hdop><vdop>5.5</vdop><extensions><gom:speed>0.583</gom:speed></extensions></trkpt>
   <trkpt lat="59.0659915164" lon="30.030160204"><ele>59.915</ele><time>2026-04-20T18:53:38.974Z</time><hdop>6.25</hdop><vdop>5.5</vdop><extensions><gom:speed>0.481</gom:speed></extensions></trkpt>
   <trkpt lat="59.0659912231" lon="30.03016297"><ele>59.458</ele><time>2026-04-20T18:53:40.075Z</time><hdop>6.375</hdop><vdop>5.625</vdop><extensions><gom:speed>0.338</gom:speed></extensions></trkpt>
   <trkpt lat="59.0659905525" lon="30.0301643111"><ele>59.124</ele><time>2026-04-20T18:53:40.988Z</time><hdop>6.625</hdop><vdop>5.5</vdop><extensions><gom:speed>0.248</gom:speed></extensions></trkpt>
   <trkpt lat="59.0659902172" lon="30.0301652331"><ele>58.925</ele><time>2026-04-20T18:53:41.642Z</time><hdop>6.75</hdop><vdop>5.5</vdop><extensions><gom:speed>0.196</gom:speed></extensions></trkpt>
   <trkpt lat="59.0659902172" lon="30.0301667419"><ele>58.683</ele><time>2026-04-20T18:53:42.445Z</time><hdop>6.875</hdop><vdop>5.375</vdop><extensions><gom:speed>0.165</gom:speed></extensions></trkpt>
   <trkpt lat="59.0659902172" lon="30.0301670772"><ele>58.539</ele><time>2026-04-20T18:53:43.001Z</time><hdop>6.875</hdop><vdop>5.375</vdop><extensions><gom:speed>0.175</gom:speed></extensions></trkpt>
   <trkpt lat="59.0659913488" lon="30.0301669933"><ele>58.365</ele><time>2026-04-20T18:53:43.618Z</time><hdop>6.875</hdop><vdop>5.25</vdop><extensions><gom:speed>0.17</gom:speed></extensions></trkpt>
   <trkpt lat="59.065991726" lon="30.0301675801"><ele>58.096</ele><time>2026-04-20T18:53:44.121Z</time><hdop>7.0</hdop><vdop>5.375</vdop><extensions><gom:speed>0.188</gom:speed></extensions></trkpt>
   <trkpt lat="59.065992648" lon="30.0301672448"><ele>57.807</ele><time>2026-04-20T18:53:45.015Z</time><hdop>7.0</hdop><vdop>5.25</vdop><extensions><gom:speed>0.196</gom:speed></extensions></trkpt>
   <trkpt lat="59.0659937376" lon="30.0301654846"><ele>57.642</ele><time>2026-04-20T18:53:45.963Z</time><hdop>7.125</hdop><vdop>5.375</vdop><extensions><gom:speed>0.176</gom:speed></extensions></trkpt>
   <trkpt lat="59.0659942405" lon="30.030163892"><ele>57.754</ele><time>2026-04-20T18:53:47.030Z</time><hdop>7.375</hdop><vdop>5.25</vdop><extensions><gom:speed>0.174</gom:speed></extensions></trkpt>
   <trkpt lat="59.0659939472" lon="30.0301636406"><ele>57.82</ele><time>2026-04-20T18:53:47.614Z</time><hdop>7.5</hdop><vdop>5.25</vdop><extensions><gom:speed>0.108</gom:speed></extensions></trkpt>
   <trkpt lat="59.0659943244" lon="30.0301625509"><ele>58.142</ele><time>2026-04-20T18:53:48.623Z</time><hdop>7.625</hdop><vdop>5.375</vdop><extensions><gom:speed>0.127</gom:speed></extensions></trkpt>
   <trkpt lat="59.0659937376" lon="30.0301650655"><ele>58.54</ele><time>2026-04-20T18:53:49.075Z</time><hdop>7.5</hdop><vdop>5.25</vdop><extensions><gom:speed>0.141</gom:speed></extensions></trkpt>
   <trkpt lat="59.0659935281" lon="30.0301665742"><ele>58.777</ele><time>2026-04-20T18:53:49.621Z</time><hdop>7.5</hdop><vdop>5.25</vdop><extensions><gom:speed>0.146</gom:speed></extensions></trkpt>
   <trkpt lat="59.0659938214" lon="30.0301655684"><ele>59.051</ele><time>2026-04-20T18:53:50.695Z</time><hdop>7.5</hdop><vdop>5.25</vdop><extensions><gom:speed>0.155</gom:speed></extensions></trkpt>
   <trkpt lat="59.0659960427" lon="30.0301650655"><ele>58.333</ele><time>2026-04-20T18:53:51.761Z</time><hdop>7.25</hdop><vdop>4.75</vdop><extensions><gom:speed>0.15</gom:speed></extensions></trkpt>
   <trkpt lat="59.065999144" lon="30.0301638082"><ele>57.847</ele><time>2026-04-20T18:53:52.737Z</time><hdop>6.875</hdop><vdop>4.625</vdop><extensions><gom:speed>0.151</gom:speed></extensions></trkpt>
   <trkpt lat="59.0660026224" lon="30.0301612098"><ele>57.114</ele><time>2026-04-20T18:53:53.775Z</time><hdop>6.5</hdop><vdop>4.25</vdop><extensions><gom:speed>0.209</gom:speed></extensions></trkpt>
   <trkpt lat="59.0660067296" lon="30.0301577732"><ele>56.297</ele><time>2026-04-20T18:53:54.920Z</time><hdop>6.25</hdop><vdop>4.75</vdop><extensions><gom:speed>0.222</gom:speed></extensions></trkpt>
   <trkpt lat="59.0660112558" lon="30.030155594"><ele>55.267</ele><time>2026-04-20T18:53:55.975Z</time><hdop>5.875</hdop><vdop>4.625</vdop><extensions><gom:speed>0.22</gom:speed></extensions></trkpt>
   <trkpt lat="59.0660137285" lon="30.0301537499"><ele>54.04</ele><time>2026-04-20T18:53:56.698Z</time><hdop>5.625</hdop><vdop>4.5</vdop><extensions><gom:speed>0.205</gom:speed></extensions></trkpt>
   <trkpt lat="59.0660146505" lon="30.0301503134"><ele>52.408</ele><time>2026-04-20T18:53:58.046Z</time><hdop>5.5</hdop><vdop>4.75</vdop><extensions><gom:speed>0.168</gom:speed></extensions></trkpt>
   <trkpt lat="59.0660161173" lon="30.0301490561"><ele>51.281</ele><time>2026-04-20T18:53:59.075Z</time><hdop>5.375</hdop><vdop>4.875</vdop><extensions><gom:speed>0.134</gom:speed></extensions></trkpt>
   <trkpt lat="59.0660161173" lon="30.0301488884"><ele>51.056</ele><time>2026-04-20T18:53:59.941Z</time><hdop>5.375</hdop><vdop>4.875</vdop><extensions><gom:speed>0.107</gom:speed></extensions></trkpt>
   <trkpt lat="59.0660170393" lon="30.0301485532"><ele>50.811</ele><time>2026-04-20T18:54:01.076Z</time><hdop>5.25</hdop><vdop>4.75</vdop><extensions><gom:speed>0.115</gom:speed></extensions></trkpt>
   <trkpt lat="59.0660165364" lon="30.0301498943"><ele>50.693</ele><time>2026-04-20T18:54:01.956Z</time><hdop>5.25</hdop><vdop>4.75</vdop><extensions><gom:speed>0.106</gom:speed></extensions></trkpt>
   <trkpt lat="59.0660171231" lon="30.0301489722"><ele>51.195</ele><time>2026-04-20T18:54:03.075Z</time><hdop>5.25</hdop><vdop>4.875</vdop><extensions><gom:speed>0.13</gom:speed></extensions></trkpt>
   <trkpt lat="59.0660176261" lon="30.0301467091"><ele>51.666</ele><time>2026-04-20T18:54:04.075Z</time><hdop>5.125</hdop><vdop>4.875</vdop><extensions><gom:speed>0.176</gom:speed></extensions></trkpt>
   <trkpt lat="59.0660169555" lon="30.0301442784"><ele>52.209</ele><time>2026-04-20T18:54:05.036Z</time><hdop>5.125</hdop><vdop>4.625</vdop><extensions><gom:speed>0.162</gom:speed></extensions></trkpt>
   <trkpt lat="59.0660178356" lon="30.0301393331"><ele>53.02</ele><time>2026-04-20T18:54:06.075Z</time><hdop>5.125</hdop><vdop>4.625</vdop><extensions><gom:speed>0.194</gom:speed></extensions></trkpt>
   <trkpt lat="59.0660182547" lon="30.0301366509"><ele>53.731</ele><time>2026-04-20T18:54:07.049Z</time><hdop>5.125</hdop><vdop>4.875</vdop><extensions><gom:speed>0.187</gom:speed></extensions></trkpt>
   <trkpt lat="59.0660183385" lon="30.030135645"><ele>54.156</ele><time>2026-04-20T18:54:07.576Z</time><hdop>5.0</hdop><vdop>4.875</vdop><extensions><gom:speed>0.187</gom:speed></extensions></trkpt>
   <trkpt lat="59.0660202244" lon="30.0301324599"><ele>54.655</ele><time>2026-04-20T18:54:08.075Z</time><hdop>5.0</hdop><vdop>5.125</vdop><extensions><gom:speed>0.194</gom:speed></extensions></trkpt>
   <trkpt lat="59.0660231162" lon="30.030127766"><ele>54.61</ele><time>2026-04-20T18:54:09.075Z</time><hdop>5.0</hdop><vdop>5.0</vdop><extensions><gom:speed>0.212</gom:speed></extensions></trkpt>
   <trkpt lat="59.0660239544" lon="30.0301236589"><ele>54.583</ele><time>2026-04-20T18:54:09.994Z</time><hdop>5.0</hdop><vdop>5.0</vdop><extensions><gom:speed>0.206</gom:speed></extensions></trkpt>
   <trkpt lat="59.0660275167" lon="30.0301185459"><ele>54.353</ele><time>2026-04-20T18:54:10.960Z</time><hdop>5.0</hdop><vdop>4.875</vdop><extensions><gom:speed>0.235</gom:speed></extensions></trkpt>
   <trkpt lat="59.0660328392" lon="30.0301128462"><ele>53.715</ele><time>2026-04-20T18:54:11.898Z</time><hdop>5.0</hdop><vdop>5.0</vdop><extensions><gom:speed>0.323</gom:speed></extensions></trkpt>
   <trkpt lat="59.0660364434" lon="30.0301051349"><ele>53.108</ele><time>2026-04-20T18:54:12.778Z</time><hdop>5.0</hdop><vdop>5.0</vdop><extensions><gom:speed>0.434</gom:speed></extensions></trkpt>
   <trkpt lat="59.0660429394" lon="30.0300960824"><ele>53.035</ele><time>2026-04-20T18:54:13.458Z</time><hdop>5.0</hdop><vdop>5.0</vdop><extensions><gom:speed>0.55</gom:speed></extensions></trkpt>
   <trkpt lat="59.0660439452" lon="30.0300937355"><ele>52.991</ele><time>2026-04-20T18:54:13.919Z</time><hdop>5.125</hdop><vdop>5.0</vdop><extensions><gom:speed>0.559</gom:speed></extensions></trkpt>
   <trkpt lat="59.0660504412" lon="30.0300776423"><ele>53.052</ele><time>2026-04-20T18:54:15.058Z</time><hdop>5.25</hdop><vdop>5.0</vdop><extensions><gom:speed>0.593</gom:speed></extensions></trkpt>
   <trkpt lat="59.0660558475" lon="30.0300716911"><ele>52.948</ele><time>2026-04-20T18:54:15.975Z</time><hdop>5.25</hdop><vdop>4.75</vdop><extensions><gom:speed>0.588</gom:speed></extensions></trkpt>
   <trkpt lat="59.0660615472" lon="30.0300669972"><ele>52.709</ele><time>2026-04-20T18:54:16.973Z</time><hdop>5.375</hdop><vdop>4.625</vdop><extensions><gom:speed>0.527</gom:speed></extensions></trkpt>
   <trkpt lat="59.0660656544" lon="30.0300672487"><ele>52.233</ele><time>2026-04-20T18:54:17.947Z</time><hdop>5.25</hdop><vdop>7.5</vdop><extensions><gom:speed>0.418</gom:speed></extensions></trkpt>
   <trkpt lat="59.0660677498" lon="30.0300678354"><ele>51.985</ele><time>2026-04-20T18:54:19.014Z</time><hdop>5.375</hdop><vdop>7.5</vdop><extensions><gom:speed>0.346</gom:speed></extensions></trkpt>
   <trkpt lat="59.066068127" lon="30.0300634768"><ele>51.837</ele><time>2026-04-20T18:54:20.055Z</time><hdop>5.375</hdop><vdop>7.5</vdop><extensions><gom:speed>0.335</gom:speed></extensions></trkpt>
   <trkpt lat="59.0660693424" lon="30.0300582801"><ele>51.75</ele><time>2026-04-20T18:54:20.960Z</time><hdop>5.5</hdop><vdop>7.125</vdop><extensions><gom:speed>0.294</gom:speed></extensions></trkpt>
   <trkpt lat="59.0660703482" lon="30.030057358"><ele>51.574</ele><time>2026-04-20T18:54:21.760Z</time><hdop>5.5</hdop><vdop>6.875</vdop><extensions><gom:speed>0.306</gom:speed></extensions></trkpt>
   <trkpt lat="59.0660716474" lon="30.0300540891"><ele>51.17</ele><time>2026-04-20T18:54:22.797Z</time><hdop>5.625</hdop><vdop>7.0</vdop><extensions><gom:speed>0.3</gom:speed></extensions></trkpt>
   <trkpt lat="59.0660727371" lon="30.0300502334"><ele>50.738</ele><time>2026-04-20T18:54:23.734Z</time><hdop>5.625</hdop><vdop>6.625</vdop><extensions><gom:speed>0.284</gom:speed></extensions></trkpt>
   <trkpt lat="59.0660743296" lon="30.0300491438"><ele>50.424</ele><time>2026-04-20T18:54:24.455Z</time><hdop>5.75</hdop><vdop>6.375</vdop><extensions><gom:speed>0.32</gom:speed></extensions></trkpt>
   <trkpt lat="59.0660763413" lon="30.0300470483"><ele>51.09</ele><time>2026-04-20T18:54:25.075Z</time><hdop>5.625</hdop><vdop>5.75</vdop><extensions><gom:speed>0.328</gom:speed></extensions></trkpt>
   <trkpt lat="59.0660796521" lon="30.0300438632"><ele>51.25</ele><time>2026-04-20T18:54:26.075Z</time><hdop>5.625</hdop><vdop>5.375</vdop><extensions><gom:speed>0.32</gom:speed></extensions></trkpt>
   <trkpt lat="59.0660842203" lon="30.030041181"><ele>50.666</ele><time>2026-04-20T18:54:27.076Z</time><hdop>5.625</hdop><vdop>5.25</vdop><extensions><gom:speed>0.378</gom:speed></extensions></trkpt>
   <trkpt lat="59.0660898361" lon="30.0300390017"><ele>50.646</ele><time>2026-04-20T18:54:28.075Z</time><hdop>5.5</hdop><vdop>5.125</vdop><extensions><gom:speed>0.363</gom:speed></extensions></trkpt>
   <trkpt lat="59.0660966255" lon="30.0300356489"><ele>50.634</ele><time>2026-04-20T18:54:29.037Z</time><hdop>5.375</hdop><vdop>5.125</vdop><extensions><gom:speed>0.582</gom:speed></extensions></trkpt>
   <trkpt lat="59.0661071448" lon="30.0300353975"><ele>51.0</ele><time>2026-04-20T18:54:30.052Z</time><hdop>5.375</hdop><vdop>6.0</vdop><extensions><gom:speed>0.693</gom:speed></extensions></trkpt>
   <trkpt lat="59.0661143532" lon="30.0300375768"><ele>51.49</ele><time>2026-04-20T18:54:31.000Z</time><hdop>5.375</hdop><vdop>6.0</vdop><extensions><gom:speed>0.675</gom:speed></extensions></trkpt>
   <trkpt lat="59.0661198434" lon="30.0300405104"><ele>51.765</ele><time>2026-04-20T18:54:31.842Z</time><hdop>5.5</hdop><vdop>6.0</vdop><extensions><gom:speed>0.627</gom:speed></extensions></trkpt>
   <trkpt lat="59.0661235314" lon="30.030043947"><ele>52.008</ele><time>2026-04-20T18:54:32.399Z</time><hdop>5.625</hdop><vdop>5.625</vdop><extensions><gom:speed>0.693</gom:speed></extensions></trkpt>
   <trkpt lat="59.0661310332" lon="30.0300495629"><ele>52.154</ele><time>2026-04-20T18:54:32.974Z</time><hdop>5.75</hdop><vdop>5.625</vdop><extensions><gom:speed>0.705</gom:speed></extensions></trkpt>
   <trkpt lat="59.0661374454" lon="30.0300529995"><ele>52.995</ele><time>2026-04-20T18:54:33.736Z</time><hdop>5.875</hdop><vdop>5.125</vdop><extensions><gom:speed>0.748</gom:speed></extensions></trkpt>
   <trkpt lat="59.0661438575" lon="30.0300561008"><ele>53.096</ele><time>2026-04-20T18:54:34.593Z</time><hdop>6.0</hdop><vdop>5.125</vdop><extensions><gom:speed>0.64</gom:speed></extensions></trkpt>
   <trkpt lat="59.0661472522" lon="30.0300592021"><ele>52.94</ele><time>2026-04-20T18:54:35.075Z</time><hdop>6.0</hdop><vdop>5.5</vdop><extensions><gom:speed>0.632</gom:speed></extensions></trkpt>
   <trkpt lat="59.0661539577" lon="30.0300621357"><ele>52.651</ele><time>2026-04-20T18:54:36.075Z</time><hdop>5.875</hdop><vdop>5.375</vdop><extensions><gom:speed>0.622</gom:speed></extensions></trkpt>
   <trkpt lat="59.0661621301" lon="30.0300672487"><ele>52.486</ele><time>2026-04-20T18:54:37.075Z</time><hdop>5.75</hdop><vdop>5.125</vdop><extensions><gom:speed>0.675</gom:speed></extensions></trkpt>
   <trkpt lat="59.0661693385" lon="30.0300669134"><ele>52.387</ele><time>2026-04-20T18:54:38.002Z</time><hdop>5.75</hdop><vdop>5.125</vdop><extensions><gom:speed>0.691</gom:speed></extensions></trkpt>
   <trkpt lat="59.0661717273" lon="30.0300704338"><ele>52.609</ele><time>2026-04-20T18:54:38.559Z</time><hdop>5.625</hdop><vdop>5.25</vdop><extensions><gom:speed>0.674</gom:speed></extensions></trkpt>
   <trkpt lat="59.0661787262" lon="30.0300711044"><ele>53.03</ele><time>2026-04-20T18:54:39.075Z</time><hdop>5.5</hdop><vdop>5.125</vdop><extensions><gom:speed>0.668</gom:speed></extensions></trkpt>
   <trkpt lat="59.0661846355" lon="30.0300732837"><ele>53.479</ele><time>2026-04-20T18:54:40.075Z</time><hdop>5.5</hdop><vdop>5.125</vdop><extensions><gom:speed>0.557</gom:speed></extensions></trkpt>
   <trkpt lat="59.0661889522" lon="30.0300737866"><ele>53.748</ele><time>2026-04-20T18:54:41.081Z</time><hdop>5.375</hdop><vdop>5.125</vdop><extensions><gom:speed>0.458</gom:speed></extensions></trkpt>
   <trkpt lat="59.0661943166" lon="30.0300724455"><ele>53.59</ele><time>2026-04-20T18:54:41.996Z</time><hdop>5.25</hdop><vdop>5.25</vdop><extensions><gom:speed>0.498</gom:speed></extensions></trkpt>
   <trkpt lat="59.0662006449" lon="30.0300728646"><ele>53.231</ele><time>2026-04-20T18:54:42.739Z</time><hdop>5.125</hdop><vdop>5.125</vdop><extensions><gom:speed>0.555</gom:speed></extensions></trkpt>
   <trkpt lat="59.0662064284" lon="30.0300724455"><ele>53.161</ele><time>2026-04-20T18:54:43.536Z</time><hdop>5.0</hdop><vdop>5.0</vdop><extensions><gom:speed>0.541</gom:speed></extensions></trkpt>
   <trkpt lat="59.066210326" lon="30.0300713558"><ele>53.417</ele><time>2026-04-20T18:54:44.075Z</time><hdop>4.875</hdop><vdop>5.0</vdop><extensions><gom:speed>0.548</gom:speed></extensions></trkpt>
   <trkpt lat="59.0662132178" lon="30.0300700985"><ele>53.569</ele><time>2026-04-20T18:54:44.838Z</time><hdop>4.875</hdop><vdop>5.0</vdop><extensions><gom:speed>0.567</gom:speed></extensions></trkpt>
   <trkpt lat="59.0662261259" lon="30.0300623872"><ele>53.892</ele><time>2026-04-20T18:54:46.016Z</time><hdop>4.875</hdop><vdop>4.875</vdop><extensions><gom:speed>0.695</gom:speed></extensions></trkpt>
   <trkpt lat="59.0662351364" lon="30.0300571904"><ele>54.614</ele><time>2026-04-20T18:54:47.023Z</time><hdop>4.875</hdop><vdop>5.0</vdop><extensions><gom:speed>0.716</gom:speed></extensions></trkpt>
   <trkpt lat="59.0662427221" lon="30.0300558493"><ele>54.871</ele><time>2026-04-20T18:54:47.939Z</time><hdop>5.0</hdop><vdop>4.75</vdop><extensions><gom:speed>0.672</gom:speed></extensions></trkpt>
   <trkpt lat="59.06625014" lon="30.0300571904"><ele>55.332</ele><time>2026-04-20T18:54:48.957Z</time><hdop>5.0</hdop><vdop>4.625</vdop><extensions><gom:speed>0.619</gom:speed></extensions></trkpt>
   <trkpt lat="59.066252026" lon="30.0300559331"><ele>55.509</ele><time>2026-04-20T18:54:49.421Z</time><hdop>5.125</hdop><vdop>6.875</vdop><extensions><gom:speed>0.53</gom:speed></extensions></trkpt>
   <trkpt lat="59.0662550435" lon="30.0300571904"><ele>55.518</ele><time>2026-04-20T18:54:50.075Z</time><hdop>5.125</hdop><vdop>6.625</vdop><extensions><gom:speed>0.504</gom:speed></extensions></trkpt>
   <trkpt lat="59.0662565522" lon="30.0300582801"><ele>55.524</ele><time>2026-04-20T18:54:50.997Z</time><hdop>5.25</hdop><vdop>6.625</vdop><extensions><gom:speed>0.507</gom:speed></extensions></trkpt>
   <trkpt lat="59.0662669458" lon="30.0300665781"><ele>55.441</ele><time>2026-04-20T18:54:52.075Z</time><hdop>5.25</hdop><vdop>6.5</vdop><extensions><gom:speed>0.688</gom:speed></extensions></trkpt>
   <trkpt lat="59.0662725197" lon="30.0300677516"><ele>55.392</ele><time>2026-04-20T18:54:52.877Z</time><hdop>5.375</hdop><vdop>6.5</vdop><extensions><gom:speed>0.701</gom:speed></extensions></trkpt>
   <trkpt lat="59.0662740285" lon="30.0300673325"><ele>55.639</ele><time>2026-04-20T18:54:54.075Z</time><hdop>5.5</hdop><vdop>6.125</vdop><extensions><gom:speed>0.485</gom:speed></extensions></trkpt>
   <trkpt lat="59.0662746571" lon="30.030066159"><ele>55.786</ele><time>2026-04-20T18:54:54.722Z</time><hdop>5.625</hdop><vdop>6.125</vdop><extensions><gom:speed>0.46</gom:speed></extensions></trkpt>
   <trkpt lat="59.0662771298" lon="30.0300618005"><ele>55.755</ele><time>2026-04-20T18:54:55.640Z</time><hdop>5.75</hdop><vdop>5.75</vdop><extensions><gom:speed>0.476</gom:speed></extensions></trkpt>
   <trkpt lat="59.0662782194" lon="30.0300623034"><ele>55.775</ele><time>2026-04-20T18:54:56.382Z</time><hdop>5.75</hdop><vdop>5.125</vdop><extensions><gom:speed>0.482</gom:speed></extensions></trkpt>
   <trkpt lat="59.0662800215" lon="30.0300616328"><ele>55.363</ele><time>2026-04-20T18:54:57.075Z</time><hdop>5.625</hdop><vdop>5.0</vdop><extensions><gom:speed>0.494</gom:speed></extensions></trkpt>
   <trkpt lat="59.0662851345" lon="30.030057358"><ele>55.117</ele><time>2026-04-20T18:54:58.021Z</time><hdop>5.75</hdop><vdop>5.0</vdop><extensions><gom:speed>0.595</gom:speed></extensions></trkpt>
   <trkpt lat="59.0662933488" lon="30.0300524127"><ele>55.007</ele><time>2026-04-20T18:54:58.858Z</time><hdop>5.75</hdop><vdop>5.0</vdop><extensions><gom:speed>0.75</gom:speed></extensions></trkpt>
   <trkpt lat="59.0663012277" lon="30.0300484732"><ele>54.943</ele><time>2026-04-20T18:54:59.678Z</time><hdop>5.625</hdop><vdop>5.125</vdop><extensions><gom:speed>0.813</gom:speed></extensions></trkpt>
   <trkpt lat="59.0663081428" lon="30.0300450366"><ele>55.12</ele><time>2026-04-20T18:55:00.437Z</time><hdop>5.5</hdop><vdop>5.25</vdop><extensions><gom:speed>0.852</gom:speed></extensions></trkpt>
   <trkpt lat="59.0663133396" lon="30.0300422706"><ele>54.949</ele><time>2026-04-20T18:55:01.075Z</time><hdop>5.375</hdop><vdop>5.25</vdop><extensions><gom:speed>0.856</gom:speed></extensions></trkpt>
   <trkpt lat="59.0663216377" lon="30.0300390855"><ele>54.367</ele><time>2026-04-20T18:55:02.075Z</time><hdop>5.375</hdop><vdop>5.5</vdop><extensions><gom:speed>0.827</gom:speed></extensions></trkpt>
   <trkpt lat="59.0663292233" lon="30.0300364033"><ele>53.985</ele><time>2026-04-20T18:55:03.075Z</time><hdop>5.125</hdop><vdop>5.5</vdop><extensions><gom:speed>0.738</gom:speed></extensions></trkpt>
   <trkpt lat="59.0663384434" lon="30.0300339725"><ele>53.757</ele><time>2026-04-20T18:55:04.062Z</time><hdop>5.0</hdop><vdop>5.5</vdop><extensions><gom:speed>0.729</gom:speed></extensions></trkpt>
   <trkpt lat="59.0663440174" lon="30.0300304521"><ele>53.906</ele><time>2026-04-20T18:55:04.958Z</time><hdop>5.0</hdop><vdop>5.375</vdop><extensions><gom:speed>0.772</gom:speed></extensions></trkpt>
   <trkpt lat="59.0663506391" lon="30.0300277699"><ele>54.008</ele><time>2026-04-20T18:55:05.778Z</time><hdop>5.0</hdop><vdop>5.375</vdop><extensions><gom:speed>0.817</gom:speed></extensions></trkpt>
   <trkpt lat="59.0663569255" lon="30.0300256745"><ele>53.937</ele><time>2026-04-20T18:55:06.519Z</time><hdop>5.0</hdop><vdop>5.375</vdop><extensions><gom:speed>0.825</gom:speed></extensions></trkpt>
   <trkpt lat="59.0663615355" lon="30.0300232437"><ele>53.708</ele><time>2026-04-20T18:55:07.075Z</time><hdop>5.0</hdop><vdop>5.5</vdop><extensions><gom:speed>0.83</gom:speed></extensions></trkpt>
   <trkpt lat="59.0663703365" lon="30.0300210644"><ele>53.694</ele><time>2026-04-20T18:55:08.075Z</time><hdop>5.125</hdop><vdop>5.375</vdop><extensions><gom:speed>0.819</gom:speed></extensions></trkpt>
   <trkpt lat="59.066378928" lon="30.0300230761"><ele>54.362</ele><time>2026-04-20T18:55:09.076Z</time><hdop>5.125</hdop><vdop>5.375</vdop><extensions><gom:speed>0.799</gom:speed></extensions></trkpt>
   <trkpt lat="59.0663810235" lon="30.0300232437"><ele>54.762</ele><time>2026-04-20T18:55:09.595Z</time><hdop>5.125</hdop><vdop>5.375</vdop><extensions><gom:speed>0.774</gom:speed></extensions></trkpt>
   <trkpt lat="59.0663888186" lon="30.0300247524"><ele>55.288</ele><time>2026-04-20T18:55:10.075Z</time><hdop>5.125</hdop><vdop>5.25</vdop><extensions><gom:speed>0.742</gom:speed></extensions></trkpt>
   <trkpt lat="59.0663946441" lon="30.0300239981"><ele>55.602</ele><time>2026-04-20T18:55:11.059Z</time><hdop>5.25</hdop><vdop>5.25</vdop><extensions><gom:speed>0.71</gom:speed></extensions></trkpt>
   <trkpt lat="59.0664006371" lon="30.0300243333"><ele>55.762</ele><time>2026-04-20T18:55:11.819Z</time><hdop>5.25</hdop><vdop>5.125</vdop><extensions><gom:speed>0.719</gom:speed></extensions></trkpt>
   <trkpt lat="59.0664075522" lon="30.0300208129"><ele>55.672</ele><time>2026-04-20T18:55:12.718Z</time><hdop>5.25</hdop><vdop>5.125</vdop><extensions><gom:speed>0.747</gom:speed></extensions></trkpt>
   <trkpt lat="59.0664128328" lon="30.0300177116"><ele>55.301</ele><time>2026-04-20T18:55:13.399Z</time><hdop>5.375</hdop><vdop>7.5</vdop><extensions><gom:speed>0.751</gom:speed></extensions></trkpt>
   <trkpt lat="59.0664167304" lon="30.0300169573"><ele>55.152</ele><time>2026-04-20T18:55:13.978Z</time><hdop>5.375</hdop><vdop>7.125</vdop><extensions><gom:speed>0.694</gom:speed></extensions></trkpt>
   <trkpt lat="59.0664224301" lon="30.0300186337"><ele>55.42</ele><time>2026-04-20T18:55:15.046Z</time><hdop>5.5</hdop><vdop>7.125</vdop><extensions><gom:speed>0.613</gom:speed></extensions></trkpt>
   <trkpt lat="59.0664239388" lon="30.0300183822"><ele>55.58</ele><time>2026-04-20T18:55:15.755Z</time><hdop>5.75</hdop><vdop>7.125</vdop><extensions><gom:speed>0.588</gom:speed></extensions></trkpt>
   <trkpt lat="59.0664276268" lon="30.0300242495"><ele>56.762</ele><time>2026-04-20T18:55:16.657Z</time><hdop>5.875</hdop><vdop>7.25</vdop><extensions><gom:speed>0.486</gom:speed></extensions></trkpt>
   <trkpt lat="59.0664277526" lon="30.0300282728"><ele>57.679</ele><time>2026-04-20T18:55:17.120Z</time><hdop>5.875</hdop><vdop>7.125</vdop><extensions><gom:speed>0.459</gom:speed></extensions></trkpt>
   <trkpt lat="59.0664304348" lon="30.0300297816"><ele>58.227</ele><time>2026-04-20T18:55:17.822Z</time><hdop>5.875</hdop><vdop>7.125</vdop><extensions><gom:speed>0.461</gom:speed></extensions></trkpt>
   <trkpt lat="59.0664320273" lon="30.0300331343"><ele>58.751</ele><time>2026-04-20T18:55:18.543Z</time><hdop>5.875</hdop><vdop>7.0</vdop><extensions><gom:speed>0.474</gom:speed></extensions></trkpt>
   <trkpt lat="59.0664349191" lon="30.0300366547"><ele>58.998</ele><time>2026-04-20T18:55:20.076Z</time><hdop>5.875</hdop><vdop>6.5</vdop><extensions><gom:speed>0.364</gom:speed></extensions></trkpt>
   <trkpt lat="59.0664366374" lon="30.03003699"><ele>59.145</ele><time>2026-04-20T18:55:21.081Z</time><hdop>5.75</hdop><vdop>6.5</vdop><extensions><gom:speed>0.378</gom:speed></extensions></trkpt>
   <trkpt lat="59.0664381461" lon="30.0300365709"><ele>58.829</ele><time>2026-04-20T18:55:21.701Z</time><hdop>5.75</hdop><vdop>6.25</vdop><extensions><gom:speed>0.346</gom:speed></extensions></trkpt>
   <trkpt lat="59.0664366374" lon="30.0300386664"><ele>58.619</ele><time>2026-04-20T18:55:22.412Z</time><hdop>5.75</hdop><vdop>6.125</vdop><extensions><gom:speed>0.318</gom:speed></extensions></trkpt>
   <trkpt lat="59.0664376432" lon="30.030037912"><ele>58.405</ele><time>2026-04-20T18:55:22.981Z</time><hdop>5.75</hdop><vdop>6.375</vdop><extensions><gom:speed>0.331</gom:speed></extensions></trkpt>
   <trkpt lat="59.0664385233" lon="30.0300372415"><ele>58.111</ele><time>2026-04-20T18:55:24.075Z</time><hdop>5.75</hdop><vdop>6.625</vdop><extensions><gom:speed>0.329</gom:speed></extensions></trkpt>
   <trkpt lat="59.0664434267" lon="30.0300343078"><ele>57.935</ele><time>2026-04-20T18:55:24.939Z</time><hdop>5.75</hdop><vdop>6.625</vdop><extensions><gom:speed>0.537</gom:speed></extensions></trkpt>
   <trkpt lat="59.0664495455" lon="30.030030033"><ele>57.908</ele><time>2026-04-20T18:55:25.859Z</time><hdop>5.75</hdop><vdop>7.0</vdop><extensions><gom:speed>0.662</gom:speed></extensions></trkpt>
   <trkpt lat="59.0664535269" lon="30.0300274347"><ele>57.896</ele><time>2026-04-20T18:55:26.500Z</time><hdop>5.75</hdop><vdop>7.25</vdop><extensions><gom:speed>0.683</gom:speed></extensions></trkpt>
   <trkpt lat="59.0664556224" lon="30.0300250039"><ele>58.197</ele><time>2026-04-20T18:55:27.076Z</time><hdop>5.625</hdop><vdop>7.375</vdop><extensions><gom:speed>0.665</gom:speed></extensions></trkpt>
   <trkpt lat="59.0664611545" lon="30.0300174602"><ele>58.378</ele><time>2026-04-20T18:55:27.960Z</time><hdop>5.625</hdop><vdop>7.375</vdop><extensions><gom:speed>0.768</gom:speed></extensions></trkpt>
   <trkpt lat="59.0664675247" lon="30.030008743"><ele>58.626</ele><time>2026-04-20T18:55:28.760Z</time><hdop>5.5</hdop><vdop>7.5</vdop><extensions><gom:speed>0.824</gom:speed></extensions></trkpt>
   <trkpt lat="59.0664713385" lon="30.0300024566"><ele>58.822</ele><time>2026-04-20T18:55:29.558Z</time><hdop>5.5</hdop><vdop>7.75</vdop><extensions><gom:speed>0.816</gom:speed></extensions></trkpt>
   <trkpt lat="59.0664736435" lon="30.0300002773"><ele>59.082</ele><time>2026-04-20T18:55:30.075Z</time><hdop>5.5</hdop><vdop>7.875</vdop><extensions><gom:speed>0.807</gom:speed></extensions></trkpt>
   <trkpt lat="59.0664785469" lon="30.0299936556"><ele>59.315</ele><time>2026-04-20T18:55:31.038Z</time><hdop>5.5</hdop><vdop>8.0</vdop><extensions><gom:speed>0.764</gom:speed></extensions></trkpt>
   <trkpt lat="59.066482654" lon="30.0299843517"><ele>59.454</ele><time>2026-04-20T18:55:32.076Z</time><hdop>5.625</hdop><vdop>8.0</vdop><extensions><gom:speed>0.731</gom:speed></extensions></trkpt>
   <trkpt lat="59.0664863421" lon="30.0299759698"><ele>59.605</ele><time>2026-04-20T18:55:32.835Z</time><hdop>5.75</hdop><vdop>8.125</vdop><extensions><gom:speed>0.723</gom:speed></extensions></trkpt>
   <trkpt lat="59.0664885214" lon="30.0299752154"><ele>60.059</ele><time>2026-04-20T18:55:33.998Z</time><hdop>5.875</hdop><vdop>7.125</vdop><extensions><gom:speed>0.543</gom:speed></extensions></trkpt>
   <trkpt lat="59.0664902397" lon="30.029973539"><ele>60.425</ele><time>2026-04-20T18:55:34.946Z</time><hdop>6.0</hdop><vdop>7.0</vdop><extensions><gom:speed>0.368</gom:speed></extensions></trkpt>
   <trkpt lat="59.06648915" lon="30.0299754669"><ele>60.643</ele><time>2026-04-20T18:55:35.719Z</time><hdop>6.125</hdop><vdop>7.0</vdop><extensions><gom:speed>0.252</gom:speed></extensions></trkpt>
   <trkpt lat="59.0664886471" lon="30.0299770594"><ele>60.792</ele><time>2026-04-20T18:55:36.641Z</time><hdop>6.25</hdop><vdop>6.5</vdop><extensions><gom:speed>0.208</gom:speed></extensions></trkpt>
   <trkpt lat="59.0664839532" lon="30.0299846869"><ele>60.923</ele><time>2026-04-20T18:55:37.803Z</time><hdop>6.25</hdop><vdop>6.5</vdop><extensions><gom:speed>0.118</gom:speed></extensions></trkpt>
   <trkpt lat="59.0664804328" lon="30.0299897161"><ele>60.944</ele><time>2026-04-20T18:55:38.454Z</time><hdop>6.0</hdop><vdop>6.125</vdop><extensions><gom:speed>0.132</gom:speed></extensions></trkpt>
   <trkpt lat="59.066479427" lon="30.0299914763"><ele>61.508</ele><time>2026-04-20T18:55:39.075Z</time><hdop>6.0</hdop><vdop>5.625</vdop><extensions><gom:speed>0.158</gom:speed></extensions></trkpt>
   <trkpt lat="59.066479427" lon="30.0299904705"><ele>61.845</ele><time>2026-04-20T18:55:39.994Z</time><hdop>5.75</hdop><vdop>5.625</vdop><extensions><gom:speed>0.216</gom:speed></extensions></trkpt>
   <trkpt lat="59.0664808519" lon="30.0299859442"><ele>61.769</ele><time>2026-04-20T18:55:40.864Z</time><hdop>5.5</hdop><vdop>5.375</vdop><extensions><gom:speed>0.279</gom:speed></extensions></trkpt>
   <trkpt lat="59.0664843304" lon="30.0299825077"><ele>61.705</ele><time>2026-04-20T18:55:41.572Z</time><hdop>5.25</hdop><vdop>5.25</vdop><extensions><gom:speed>0.296</gom:speed></extensions></trkpt>
   <trkpt lat="59.0664879346" lon="30.0299801607"><ele>61.138</ele><time>2026-04-20T18:55:42.075Z</time><hdop>5.125</hdop><vdop>5.125</vdop><extensions><gom:speed>0.313</gom:speed></extensions></trkpt>
   <trkpt lat="59.0664915389" lon="30.0299740419"><ele>60.799</ele><time>2026-04-20T18:55:42.936Z</time><hdop>5.0</hdop><vdop>5.125</vdop><extensions><gom:speed>0.413</gom:speed></extensions></trkpt>
   <trkpt lat="59.0664971547" lon="30.0299638998"><ele>60.305</ele><time>2026-04-20T18:55:43.557Z</time><hdop>5.0</hdop><vdop>5.25</vdop><extensions><gom:speed>0.616</gom:speed></extensions></trkpt>
   <trkpt lat="59.0665016391" lon="30.0299561047"><ele>59.839</ele><time>2026-04-20T18:55:44.075Z</time><hdop>5.0</hdop><vdop>5.5</vdop><extensions><gom:speed>0.612</gom:speed></extensions></trkpt>
   <trkpt lat="59.066510021" lon="30.0299382512"><ele>59.816</ele><time>2026-04-20T18:55:45.075Z</time><hdop>4.875</hdop><vdop>5.5</vdop><extensions><gom:speed>0.807</gom:speed></extensions></trkpt>
   <trkpt lat="59.0665172294" lon="30.0299219903"><ele>59.803</ele><time>2026-04-20T18:55:45.955Z</time><hdop>4.875</hdop><vdop>5.5</vdop><extensions><gom:speed>0.874</gom:speed></extensions></trkpt>
   <trkpt lat="59.0665254437" lon="30.0299121835"><ele>59.499</ele><time>2026-04-20T18:55:46.677Z</time><hdop>4.875</hdop><vdop>5.25</vdop><extensions><gom:speed>0.903</gom:speed></extensions></trkpt>
   <trkpt lat="59.0665340351" lon="30.0299056456"><ele>59.084</ele><time>2026-04-20T18:55:47.408Z</time><hdop>4.875</hdop><vdop>5.25</vdop><extensions><gom:speed>0.892</gom:speed></extensions></trkpt>
   <trkpt lat="59.0665416207" lon="30.0299028796"><ele>59.006</ele><time>2026-04-20T18:55:48.075Z</time><hdop>4.75</hdop><vdop>5.25</vdop><extensions><gom:speed>0.884</gom:speed></extensions></trkpt>
   <trkpt lat="59.0665505475" lon="30.0299048074"><ele>58.96</ele><time>2026-04-20T18:55:48.976Z</time><hdop>4.75</hdop><vdop>5.25</vdop><extensions><gom:speed>0.891</gom:speed></extensions></trkpt>
   <trkpt lat="59.0665590551" lon="30.0299098366"><ele>59.001</ele><time>2026-04-20T18:55:49.815Z</time><hdop>4.625</hdop><vdop>5.375</vdop><extensions><gom:speed>0.87</gom:speed></extensions></trkpt>
   <trkpt lat="59.0665676465" lon="30.0299183023"><ele>59.392</ele><time>2026-04-20T18:55:50.794Z</time><hdop>4.625</hdop><vdop>5.25</vdop><extensions><gom:speed>0.805</gom:speed></extensions></trkpt>
   <trkpt lat="59.0665737234" lon="30.0299231638"><ele>59.825</ele><time>2026-04-20T18:55:51.681Z</time><hdop>4.5</hdop><vdop>5.25</vdop><extensions><gom:speed>0.685</gom:speed></extensions></trkpt>
   <trkpt lat="59.0665784173" lon="30.0299253431"><ele>60.142</ele><time>2026-04-20T18:55:52.833Z</time><hdop>4.5</hdop><vdop>5.375</vdop><extensions><gom:speed>0.622</gom:speed></extensions></trkpt>
   <trkpt lat="59.0665856257" lon="30.029929534"><ele>60.573</ele><time>2026-04-20T18:55:53.497Z</time><hdop>4.375</hdop><vdop>5.125</vdop><extensions><gom:speed>0.521</gom:speed></extensions></trkpt>
   <trkpt lat="59.0665879307" lon="30.0299312104"><ele>61.01</ele><time>2026-04-20T18:55:54.018Z</time><hdop>4.375</hdop><vdop>5.0</vdop><extensions><gom:speed>0.519</gom:speed></extensions></trkpt>
   <trkpt lat="59.0665920379" lon="30.0299334735"><ele>61.277</ele><time>2026-04-20T18:55:55.075Z</time><hdop>4.375</hdop><vdop>5.0</vdop><extensions><gom:speed>0.395</gom:speed></extensions></trkpt>
   <trkpt lat="59.066591535" lon="30.0299333059"><ele>61.437</ele><time>2026-04-20T18:55:55.936Z</time><hdop>4.5</hdop><vdop>5.0</vdop><extensions><gom:speed>0.243</gom:speed></extensions></trkpt>
   <trkpt lat="59.0665934209" lon="30.029937413"><ele>61.13</ele><time>2026-04-20T18:55:57.076Z</time><hdop>4.375</hdop><vdop>4.625</vdop><extensions><gom:speed>0.211</gom:speed></extensions></trkpt>
   <trkpt lat="59.0665935466" lon="30.0299374968"><ele>60.861</ele><time>2026-04-20T18:55:58.046Z</time><hdop>4.5</hdop><vdop>8.0</vdop><extensions><gom:speed>0.161</gom:speed></extensions></trkpt>
   <trkpt lat="59.0665933371" lon="30.0299366586"><ele>60.699</ele><time>2026-04-20T18:55:58.994Z</time><hdop>4.375</hdop><vdop>8.0</vdop><extensions><gom:speed>0.139</gom:speed></extensions></trkpt>
   <trkpt lat="59.0665953487" lon="30.0299388379"><ele>60.32</ele><time>2026-04-20T18:55:59.942Z</time><hdop>4.375</hdop><vdop>8.0</vdop><extensions><gom:speed>0.119</gom:speed></extensions></trkpt>
   <trkpt lat="59.0665960193" lon="30.0299393409"><ele>59.92</ele><time>2026-04-20T18:56:01.007Z</time><hdop>4.25</hdop><vdop>8.0</vdop><extensions><gom:speed>0.12</gom:speed></extensions></trkpt>
   <trkpt lat="59.0665973185" lon="30.0299395085"><ele>59.68</ele><time>2026-04-20T18:56:01.978Z</time><hdop>4.25</hdop><vdop>8.0</vdop><extensions><gom:speed>0.138</gom:speed></extensions></trkpt>
   <trkpt lat="59.0665976538" lon="30.029940682"><ele>59.704</ele><time>2026-04-20T18:56:02.639Z</time><hdop>4.375</hdop><vdop>7.625</vdop><extensions><gom:speed>0.073</gom:speed></extensions></trkpt>
   <trkpt lat="59.0665997492" lon="30.0299445376"><ele>59.616</ele><time>2026-04-20T18:56:03.419Z</time><hdop>4.375</hdop><vdop>7.625</vdop><extensions><gom:speed>0.097</gom:speed></extensions></trkpt>
   <trkpt lat="59.0666009227" lon="30.0299449567"><ele>59.535</ele><time>2026-04-20T18:56:03.969Z</time><hdop>4.5</hdop><vdop>7.375</vdop><extensions><gom:speed>0.127</gom:speed></extensions></trkpt>
   <trkpt lat="59.0666016352" lon="30.0299455435"><ele>59.487</ele><time>2026-04-20T18:56:04.781Z</time><hdop>4.625</hdop><vdop>7.375</vdop><extensions><gom:speed>0.112</gom:speed></extensions></trkpt>
   <trkpt lat="59.0666054489" lon="30.0299478904"><ele>59.536</ele><time>2026-04-20T18:56:05.417Z</time><hdop>4.625</hdop><vdop>7.125</vdop><extensions><gom:speed>0.146</gom:speed></extensions></trkpt>
   <trkpt lat="59.0666067481" lon="30.0299473875"><ele>59.565</ele><time>2026-04-20T18:56:06.055Z</time><hdop>4.75</hdop><vdop>7.125</vdop><extensions><gom:speed>0.178</gom:speed></extensions></trkpt>
   <trkpt lat="59.066611442" lon="30.0299457949"><ele>59.539</ele><time>2026-04-20T18:56:06.815Z</time><hdop>4.875</hdop><vdop>7.0</vdop><extensions><gom:speed>0.359</gom:speed></extensions></trkpt>
   <trkpt lat="59.0666194467" lon="30.0299419392"><ele>59.427</ele><time>2026-04-20T18:56:07.576Z</time><hdop>5.0</hdop><vdop>6.75</vdop><extensions><gom:speed>0.584</gom:speed></extensions></trkpt>
   <trkpt lat="59.0666240567" lon="30.0299422745"><ele>59.444</ele><time>2026-04-20T18:56:08.075Z</time><hdop>5.125</hdop><vdop>6.75</vdop><extensions><gom:speed>0.575</gom:speed></extensions></trkpt>
   <trkpt lat="59.0666321453" lon="30.0299379159"><ele>59.56</ele><time>2026-04-20T18:56:08.944Z</time><hdop>5.375</hdop><vdop>6.625</vdop><extensions><gom:speed>0.67</gom:speed></extensions></trkpt>
   <trkpt lat="59.0666366296" lon="30.0299338926"><ele>59.752</ele><time>2026-04-20T18:56:10.075Z</time><hdop>5.5</hdop><vdop>6.625</vdop><extensions><gom:speed>0.579</gom:speed></extensions></trkpt>
   <trkpt lat="59.0666381383" lon="30.0299315457"><ele>59.866</ele><time>2026-04-20T18:56:10.537Z</time><hdop>5.75</hdop><vdop>6.625</vdop><extensions><gom:speed>0.562</gom:speed></extensions></trkpt>
   <trkpt lat="59.0666396471" lon="30.0299287797"><ele>60.072</ele><time>2026-04-20T18:56:11.351Z</time><hdop>5.875</hdop><vdop>6.75</vdop><extensions><gom:speed>0.502</gom:speed></extensions></trkpt>
   <trkpt lat="59.0666420359" lon="30.0299293664"><ele>60.318</ele><time>2026-04-20T18:56:12.075Z</time><hdop>5.875</hdop><vdop>7.0</vdop><extensions><gom:speed>0.441</gom:speed></extensions></trkpt>
   <trkpt lat="59.0666423293" lon="30.0299317971"><ele>60.557</ele><time>2026-04-20T18:56:12.972Z</time><hdop>5.875</hdop><vdop>7.125</vdop><extensions><gom:speed>0.333</gom:speed></extensions></trkpt>
   <trkpt lat="59.0666425388" lon="30.0299348984"><ele>60.713</ele><time>2026-04-20T18:56:14.038Z</time><hdop>5.875</hdop><vdop>7.125</vdop><extensions><gom:speed>0.213</gom:speed></extensions></trkpt>
   <trkpt lat="59.0666419521" lon="30.0299359881"><ele>60.821</ele><time>2026-04-20T18:56:14.986Z</time><hdop>5.875</hdop><vdop>7.125</vdop><extensions><gom:speed>0.153</gom:speed></extensions></trkpt>
   <trkpt lat="59.066641533" lon="30.0299349823"><ele>60.898</ele><time>2026-04-20T18:56:16.052Z</time><hdop>5.875</hdop><vdop>7.0</vdop><extensions><gom:speed>0.15</gom:speed></extensions></trkpt>
   <trkpt lat="59.0666400243" lon="30.0299362395"><ele>60.961</ele><time>2026-04-20T18:56:17.075Z</time><hdop>5.875</hdop><vdop>6.875</vdop><extensions><gom:speed>0.124</gom:speed></extensions></trkpt>
   <trkpt lat="59.0666397309" lon="30.0299371616"><ele>60.998</ele><time>2026-04-20T18:56:17.593Z</time><hdop>5.75</hdop><vdop>6.875</vdop><extensions><gom:speed>0.114</gom:speed></extensions></trkpt>
   <trkpt lat="59.066639228" lon="30.0299387541"><ele>60.859</ele><time>2026-04-20T18:56:18.075Z</time><hdop>5.75</hdop><vdop>6.25</vdop><extensions><gom:speed>0.147</gom:speed></extensions></trkpt>
   <trkpt lat="59.0666407367" lon="30.029938335"><ele>60.36</ele><time>2026-04-20T18:56:19.075Z</time><hdop>5.625</hdop><vdop>6.25</vdop><extensions><gom:speed>0.155</gom:speed></extensions></trkpt>
   <trkpt lat="59.0666416168" lon="30.0299354014"><ele>60.061</ele><time>2026-04-20T18:56:20.053Z</time><hdop>5.625</hdop><vdop>6.25</vdop><extensions><gom:speed>0.208</gom:speed></extensions></trkpt>
   <trkpt lat="59.066646646" lon="30.0299273547"><ele>61.516</ele><time>2026-04-20T18:56:20.943Z</time><hdop>5.5</hdop><vdop>6.25</vdop><extensions><gom:speed>0.279</gom:speed></extensions></trkpt>
   <trkpt lat="59.0666547345" lon="30.0299172964"><ele>62.192</ele><time>2026-04-20T18:56:21.977Z</time><hdop>5.375</hdop><vdop>5.875</vdop><extensions><gom:speed>0.348</gom:speed></extensions></trkpt>
   <trkpt lat="59.0666647509" lon="30.0299039692"><ele>62.508</ele><time>2026-04-20T18:56:23.075Z</time><hdop>5.125</hdop><vdop>5.5</vdop><extensions><gom:speed>0.424</gom:speed></extensions></trkpt>
   <trkpt lat="59.0666745577" lon="30.0298896362"><ele>62.029</ele><time>2026-04-20T18:56:23.675Z</time><hdop>5.0</hdop><vdop>5.25</vdop><extensions><gom:speed>0.584</gom:speed></extensions></trkpt>
   <trkpt lat="59.0666887231" lon="30.0298683461"><ele>61.843</ele><time>2026-04-20T18:56:24.357Z</time><hdop>4.875</hdop><vdop>5.375</vdop><extensions><gom:speed>0.763</gom:speed></extensions></trkpt>
   <trkpt lat="59.066693417" lon="30.0298577011"><ele>61.732</ele><time>2026-04-20T18:56:25.018Z</time><hdop>4.875</hdop><vdop>5.375</vdop><extensions><gom:speed>0.859</gom:speed></extensions></trkpt>
   <trkpt lat="59.0667067442" lon="30.0298395962"><ele>61.911</ele><time>2026-04-20T18:56:25.720Z</time><hdop>4.75</hdop><vdop>5.125</vdop><extensions><gom:speed>0.973</gom:speed></extensions></trkpt>
   <trkpt lat="59.0667219574" lon="30.0298292026"><ele>61.682</ele><time>2026-04-20T18:56:26.440Z</time><hdop>4.625</hdop><vdop>4.875</vdop><extensions><gom:speed>0.993</gom:speed></extensions></trkpt>
   <trkpt lat="59.0667326443" lon="30.0298241735"><ele>61.325</ele><time>2026-04-20T18:56:27.075Z</time><hdop>4.5</hdop><vdop>4.75</vdop><extensions><gom:speed>1.008</gom:speed></extensions></trkpt>
   <trkpt lat="59.0667433312" lon="30.0298227486"><ele>61.112</ele><time>2026-04-20T18:56:27.888Z</time><hdop>4.375</hdop><vdop>4.75</vdop><extensions><gom:speed>1.035</gom:speed></extensions></trkpt>
   <trkpt lat="59.0667543534" lon="30.0298190605"><ele>60.939</ele><time>2026-04-20T18:56:28.584Z</time><hdop>4.25</hdop><vdop>4.625</vdop><extensions><gom:speed>1.015</gom:speed></extensions></trkpt>
   <trkpt lat="59.0667623162" lon="30.0298158754"><ele>61.234</ele><time>2026-04-20T18:56:29.076Z</time><hdop>4.25</hdop><vdop>4.625</vdop><extensions><gom:speed>1.045</gom:speed></extensions></trkpt>
   <trkpt lat="59.0667680578" lon="30.0298155401"><ele>61.41</ele><time>2026-04-20T18:56:29.912Z</time><hdop>4.25</hdop><vdop>4.625</vdop><extensions><gom:speed>0.92</gom:speed></extensions></trkpt>
   <trkpt lat="59.0667790381" lon="30.0298184738"><ele>61.288</ele><time>2026-04-20T18:56:30.419Z</time><hdop>4.25</hdop><vdop>4.625</vdop><extensions><gom:speed>0.935</gom:speed></extensions></trkpt>
   <trkpt lat="59.0667825166" lon="30.0298232515"><ele>61.215</ele><time>2026-04-20T18:56:30.921Z</time><hdop>4.25</hdop><vdop>4.625</vdop><extensions><gom:speed>0.927</gom:speed></extensions></trkpt>
   <trkpt lat="59.0667915272" lon="30.0298286997"><ele>61.238</ele><time>2026-04-20T18:56:31.860Z</time><hdop>4.25</hdop><vdop>4.75</vdop><extensions><gom:speed>0.901</gom:speed></extensions></trkpt>
   <trkpt lat="59.0667982327" lon="30.0298300408"><ele>61.113</ele><time>2026-04-20T18:56:32.857Z</time><hdop>4.375</hdop><vdop>4.625</vdop><extensions><gom:speed>0.707</gom:speed></extensions></trkpt>
   <trkpt lat="59.0668039324" lon="30.0298312143"><ele>61.274</ele><time>2026-04-20T18:56:33.617Z</time><hdop>4.5</hdop><vdop>4.875</vdop><extensions><gom:speed>0.65</gom:speed></extensions></trkpt>
   <trkpt lat="59.0668084167" lon="30.0298335612"><ele>61.548</ele><time>2026-04-20T18:56:34.075Z</time><hdop>4.5</hdop><vdop>4.75</vdop><extensions><gom:speed>0.657</gom:speed></extensions></trkpt>
   <trkpt lat="59.0668119371" lon="30.0298369978"><ele>61.711</ele><time>2026-04-20T18:56:34.762Z</time><hdop>4.625</hdop><vdop>4.75</vdop><extensions><gom:speed>0.568</gom:speed></extensions></trkpt>
   <trkpt lat="59.0668183493" lon="30.0298388418"><ele>61.589</ele><time>2026-04-20T18:56:35.600Z</time><hdop>4.75</hdop><vdop>4.75</vdop><extensions><gom:speed>0.528</gom:speed></extensions></trkpt>
   <trkpt lat="59.0668231269" lon="30.0298411049"><ele>60.753</ele><time>2026-04-20T18:56:36.075Z</time><hdop>4.75</hdop><vdop>4.75</vdop><extensions><gom:speed>0.57</gom:speed></extensions></trkpt>
   <trkpt lat="59.0668308383" lon="30.0298432842"><ele>60.254</ele><time>2026-04-20T18:56:37.013Z</time><hdop>4.75</hdop><vdop>4.75</vdop><extensions><gom:speed>0.614</gom:speed></extensions></trkpt>
   <trkpt lat="59.0668398488" lon="30.0298473076"><ele>60.052</ele><time>2026-04-20T18:56:37.753Z</time><hdop>4.875</hdop><vdop>4.75</vdop><extensions><gom:speed>0.694</gom:speed></extensions></trkpt>
   <trkpt lat="59.0668492366" lon="30.0298531749"><ele>60.179</ele><time>2026-04-20T18:56:38.512Z</time><hdop>4.875</hdop><vdop>4.75</vdop><extensions><gom:speed>0.754</gom:speed></extensions></trkpt>
   <trkpt lat="59.0668557325" lon="30.0298585393"><ele>60.241</ele><time>2026-04-20T18:56:39.076Z</time><hdop>4.875</hdop><vdop>4.5</vdop><extensions><gom:speed>0.777</gom:speed></extensions></trkpt>
   <trkpt lat="59.0668665452" lon="30.0298635684"><ele>60.336</ele><time>2026-04-20T18:56:40.075Z</time><hdop>5.0</hdop><vdop>4.375</vdop><extensions><gom:speed>0.798</gom:speed></extensions></trkpt>
   <trkpt lat="59.0668756396" lon="30.0298606348"><ele>60.393</ele><time>2026-04-20T18:56:41.060Z</time><hdop>5.0</hdop><vdop>4.375</vdop><extensions><gom:speed>0.823</gom:speed></extensions></trkpt>
   <trkpt lat="59.0668849435" lon="30.0298595451"><ele>60.151</ele><time>2026-04-20T18:56:41.859Z</time><hdop>5.125</hdop><vdop>4.375</vdop><extensions><gom:speed>0.857</gom:speed></extensions></trkpt>
   <trkpt lat="59.0668966362" lon="30.029857282"><ele>60.274</ele><time>2026-04-20T18:56:42.659Z</time><hdop>5.125</hdop><vdop>4.5</vdop><extensions><gom:speed>0.839</gom:speed></extensions></trkpt>
   <trkpt lat="59.0669024198" lon="30.0298558571"><ele>59.551</ele><time>2026-04-20T18:56:43.401Z</time><hdop>5.0</hdop><vdop>4.25</vdop><extensions><gom:speed>0.841</gom:speed></extensions></trkpt>
   <trkpt lat="59.0669089576" lon="30.0298525882"><ele>58.617</ele><time>2026-04-20T18:56:44.076Z</time><hdop>5.0</hdop><vdop>4.25</vdop><extensions><gom:speed>0.867</gom:speed></extensions></trkpt>
   <trkpt lat="59.0669169204" lon="30.0298455474"><ele>58.058</ele><time>2026-04-20T18:56:44.939Z</time><hdop>5.0</hdop><vdop>4.25</vdop><extensions><gom:speed>0.899</gom:speed></extensions></trkpt>
   <trkpt lat="59.0669265177" lon="30.029842949"><ele>57.768</ele><time>2026-04-20T18:56:45.721Z</time><hdop>4.875</hdop><vdop>4.375</vdop><extensions><gom:speed>0.912</gom:speed></extensions></trkpt>
   <trkpt lat="59.0669367436" lon="30.0298390933"><ele>57.628</ele><time>2026-04-20T18:56:46.795Z</time><hdop>4.75</hdop><vdop>4.25</vdop><extensions><gom:speed>0.824</gom:speed></extensions></trkpt>
   <trkpt lat="59.0669415213" lon="30.029834148"><ele>57.56</ele><time>2026-04-20T18:56:47.537Z</time><hdop>4.75</hdop><vdop>4.25</vdop><extensions><gom:speed>0.773</gom:speed></extensions></trkpt>
   <trkpt lat="59.0669426529" lon="30.0298276101"><ele>57.52</ele><time>2026-04-20T18:56:48.078Z</time><hdop>4.625</hdop><vdop>4.25</vdop><extensions><gom:speed>0.78</gom:speed></extensions></trkpt>
   <trkpt lat="59.0669461314" lon="30.0298128579"><ele>57.847</ele><time>2026-04-20T18:56:48.918Z</time><hdop>4.625</hdop><vdop>4.375</vdop><extensions><gom:speed>0.857</gom:speed></extensions></trkpt>
   <trkpt lat="59.0669499451" lon="30.0298075773"><ele>58.02</ele><time>2026-04-20T18:56:49.559Z</time><hdop>4.625</hdop><vdop>4.375</vdop><extensions><gom:speed>0.817</gom:speed></extensions></trkpt>
   <trkpt lat="59.0669543456" lon="30.0298030511"><ele>57.812</ele><time>2026-04-20T18:56:50.075Z</time><hdop>4.625</hdop><vdop>4.375</vdop><extensions><gom:speed>0.816</gom:speed></extensions></trkpt>
   <trkpt lat="59.066962057" lon="30.0297965132"><ele>57.687</ele><time>2026-04-20T18:56:50.901Z</time><hdop>4.625</hdop><vdop>4.375</vdop><extensions><gom:speed>0.89</gom:speed></extensions></trkpt>
   <trkpt lat="59.066970858" lon="30.0297904782"><ele>57.029</ele><time>2026-04-20T18:56:51.573Z</time><hdop>4.625</hdop><vdop>4.375</vdop><extensions><gom:speed>1.022</gom:speed></extensions></trkpt>
   <trkpt lat="59.0669774378" lon="30.029785952"><ele>56.355</ele><time>2026-04-20T18:56:52.075Z</time><hdop>4.625</hdop><vdop>4.625</vdop><extensions><gom:speed>1.052</gom:speed></extensions></trkpt>
   <trkpt lat="59.0669869512" lon="30.0297760614"><ele>55.409</ele><time>2026-04-20T18:56:53.075Z</time><hdop>4.625</hdop><vdop>4.625</vdop><extensions><gom:speed>0.972</gom:speed></extensions></trkpt>
   <trkpt lat="59.0669930281" lon="30.0297656678"><ele>54.843</ele><time>2026-04-20T18:56:53.854Z</time><hdop>4.75</hdop><vdop>4.625</vdop><extensions><gom:speed>0.977</gom:speed></extensions></trkpt>
   <trkpt lat="59.0669992307" lon="30.0297580403"><ele>53.986</ele><time>2026-04-20T18:56:54.535Z</time><hdop>4.75</hdop><vdop>4.75</vdop><extensions><gom:speed>0.982</gom:speed></extensions></trkpt>
   <trkpt lat="59.067006523" lon="30.029752592"><ele>53.418</ele><time>2026-04-20T18:56:55.075Z</time><hdop>4.75</hdop><vdop>4.75</vdop><extensions><gom:speed>0.974</gom:speed></extensions></trkpt>
   <trkpt lat="59.0670132285" lon="30.0297501613"><ele>53.078</ele><time>2026-04-20T18:56:56.074Z</time><hdop>4.875</hdop><vdop>4.75</vdop><extensions><gom:speed>0.917</gom:speed></extensions></trkpt>
   <trkpt lat="59.0670198502" lon="30.0297480658"><ele>52.642</ele><time>2026-04-20T18:56:56.834Z</time><hdop>5.0</hdop><vdop>4.75</vdop><extensions><gom:speed>0.88</gom:speed></extensions></trkpt>
   <trkpt lat="59.0670272263" lon="30.0297458865"><ele>52.453</ele><time>2026-04-20T18:56:57.733Z</time><hdop>5.0</hdop><vdop>4.5</vdop><extensions><gom:speed>0.856</gom:speed></extensions></trkpt>
   <trkpt lat="59.067036153" lon="30.0297429529"><ele>52.833</ele><time>2026-04-20T18:56:58.819Z</time><hdop>5.0</hdop><vdop>4.25</vdop><extensions><gom:speed>0.817</gom:speed></extensions></trkpt>
   <trkpt lat="59.067042649" lon="30.0297416118"><ele>52.876</ele><time>2026-04-20T18:56:59.658Z</time><hdop>5.0</hdop><vdop>4.25</vdop><extensions><gom:speed>0.796</gom:speed></extensions></trkpt>
   <trkpt lat="59.0670490192" lon="30.0297320564"><ele>52.833</ele><time>2026-04-20T18:57:00.536Z</time><hdop>5.0</hdop><vdop>4.375</vdop><extensions><gom:speed>0.831</gom:speed></extensions></trkpt>
   <trkpt lat="59.0670538388" lon="30.0297220819"><ele>52.496</ele><time>2026-04-20T18:57:01.076Z</time><hdop>4.875</hdop><vdop>4.125</vdop><extensions><gom:speed>0.829</gom:speed></extensions></trkpt>
   <trkpt lat="59.0670573173" lon="30.029718813"><ele>52.457</ele><time>2026-04-20T18:57:02.015Z</time><hdop>4.875</hdop><vdop>4.125</vdop><extensions><gom:speed>0.722</gom:speed></extensions></trkpt>
   <trkpt lat="59.0670623465" lon="30.0297152088"><ele>52.1</ele><time>2026-04-20T18:57:03.076Z</time><hdop>4.875</hdop><vdop>4.125</vdop><extensions><gom:speed>0.665</gom:speed></extensions></trkpt>
   <trkpt lat="59.067065322" lon="30.0297139515"><ele>51.719</ele><time>2026-04-20T18:57:04.076Z</time><hdop>5.0</hdop><vdop>4.125</vdop><extensions><gom:speed>0.586</gom:speed></extensions></trkpt>
   <trkpt lat="59.0670700578" lon="30.029718813"><ele>51.347</ele><time>2026-04-20T18:57:05.075Z</time><hdop>5.0</hdop><vdop>4.0</vdop><extensions><gom:speed>0.615</gom:speed></extensions></trkpt>
   <trkpt lat="59.0670756318" lon="30.029724345"><ele>51.125</ele><time>2026-04-20T18:57:05.956Z</time><hdop>5.0</hdop><vdop>4.0</vdop><extensions><gom:speed>0.705</gom:speed></extensions></trkpt>
   <trkpt lat="59.0670808286" lon="30.0297307153"><ele>51.399</ele><time>2026-04-20T18:57:06.896Z</time><hdop>5.0</hdop><vdop>4.25</vdop><extensions><gom:speed>0.763</gom:speed></extensions></trkpt>
   <trkpt lat="59.0670855224" lon="30.0297370855"><ele>51.417</ele><time>2026-04-20T18:57:07.734Z</time><hdop>5.0</hdop><vdop>4.25</vdop><extensions><gom:speed>0.799</gom:speed></extensions></trkpt>
   <trkpt lat="59.0670922279" lon="30.0297434558"><ele>51.905</ele><time>2026-04-20T18:57:08.623Z</time><hdop>4.875</hdop><vdop>4.125</vdop><extensions><gom:speed>0.831</gom:speed></extensions></trkpt>
   <trkpt lat="59.0670963351" lon="30.0297453836"><ele>52.255</ele><time>2026-04-20T18:57:09.075Z</time><hdop>4.875</hdop><vdop>4.125</vdop><extensions><gom:speed>0.849</gom:speed></extensions></trkpt>
   <trkpt lat="59.0671054294" lon="30.0297463894"><ele>52.436</ele><time>2026-04-20T18:57:10.076Z</time><hdop>4.875</hdop><vdop>4.0</vdop><extensions><gom:speed>0.821</gom:speed></extensions></trkpt>
   <trkpt lat="59.0671138533" lon="30.0297464733"><ele>52.545</ele><time>2026-04-20T18:57:10.982Z</time><hdop>4.875</hdop><vdop>4.0</vdop><extensions><gom:speed>0.824</gom:speed></extensions></trkpt>
   <trkpt lat="59.0671237439" lon="30.0297444616"><ele>52.178</ele><time>2026-04-20T18:57:12.059Z</time><hdop>4.875</hdop><vdop>3.875</vdop><extensions><gom:speed>0.799</gom:speed></extensions></trkpt>
   <trkpt lat="59.0671312457" lon="30.0297425338"><ele>51.707</ele><time>2026-04-20T18:57:13.075Z</time><hdop>4.875</hdop><vdop>3.5</vdop><extensions><gom:speed>0.736</gom:speed></extensions></trkpt>
   <trkpt lat="59.0671379512" lon="30.0297398516"><ele>51.425</ele><time>2026-04-20T18:57:14.042Z</time><hdop>4.875</hdop><vdop>3.5</vdop><extensions><gom:speed>0.745</gom:speed></extensions></trkpt>
   <trkpt lat="59.0671439443" lon="30.0297385943"><ele>51.115</ele><time>2026-04-20T18:57:14.782Z</time><hdop>4.875</hdop><vdop>3.625</vdop><extensions><gom:speed>0.797</gom:speed></extensions></trkpt>
   <trkpt lat="59.0671513204" lon="30.0297404383"><ele>50.749</ele><time>2026-04-20T18:57:15.581Z</time><hdop>4.75</hdop><vdop>3.75</vdop><extensions><gom:speed>0.87</gom:speed></extensions></trkpt>
   <trkpt lat="59.0671557209" lon="30.0297438749"><ele>49.786</ele><time>2026-04-20T18:57:16.075Z</time><hdop>4.75</hdop><vdop>3.75</vdop><extensions><gom:speed>0.851</gom:speed></extensions></trkpt>
   <trkpt lat="59.0671650248" lon="30.0297460542"><ele>49.21</ele><time>2026-04-20T18:57:17.013Z</time><hdop>4.75</hdop><vdop>3.75</vdop><extensions><gom:speed>0.923</gom:speed></extensions></trkpt>
   <trkpt lat="59.0671713531" lon="30.0297471438"><ele>49.178</ele><time>2026-04-20T18:57:17.753Z</time><hdop>4.75</hdop><vdop>3.75</vdop><extensions><gom:speed>0.917</gom:speed></extensions></trkpt>
   <trkpt lat="59.0671772204" lon="30.0297478144"><ele>49.134</ele><time>2026-04-20T18:57:18.534Z</time><hdop>4.75</hdop><vdop>3.625</vdop><extensions><gom:speed>0.881</gom:speed></extensions></trkpt>
   <trkpt lat="59.0671817467" lon="30.029748904"><ele>49.153</ele><time>2026-04-20T18:57:19.075Z</time><hdop>4.625</hdop><vdop>3.5</vdop><extensions><gom:speed>0.9</gom:speed></extensions></trkpt>
   <trkpt lat="59.0671921402" lon="30.0297481496"><ele>49.164</ele><time>2026-04-20T18:57:19.955Z</time><hdop>4.625</hdop><vdop>3.5</vdop><extensions><gom:speed>0.902</gom:speed></extensions></trkpt>
   <trkpt lat="59.0671981333" lon="30.0297465571"><ele>49.19</ele><time>2026-04-20T18:57:20.852Z</time><hdop>4.625</hdop><vdop>3.375</vdop><extensions><gom:speed>0.933</gom:speed></extensions></trkpt>
   <trkpt lat="59.0672041264" lon="30.0297450483"><ele>49.207</ele><time>2026-04-20T18:57:21.614Z</time><hdop>4.625</hdop><vdop>3.25</vdop><extensions><gom:speed>0.921</gom:speed></extensions></trkpt>
   <trkpt lat="59.0672077306" lon="30.0297456351"><ele>48.945</ele><time>2026-04-20T18:57:22.075Z</time><hdop>4.625</hdop><vdop>3.375</vdop><extensions><gom:speed>0.905</gom:speed></extensions></trkpt>
   <trkpt lat="59.0672158191" lon="30.0297432043"><ele>48.658</ele><time>2026-04-20T18:57:23.075Z</time><hdop>4.5</hdop><vdop>3.375</vdop><extensions><gom:speed>0.928</gom:speed></extensions></trkpt>
   <trkpt lat="59.0672235305" lon="30.0297376723"><ele>48.487</ele><time>2026-04-20T18:57:23.933Z</time><hdop>4.625</hdop><vdop>3.375</vdop><extensions><gom:speed>0.966</gom:speed></extensions></trkpt>
   <trkpt lat="59.0672295235" lon="30.0297355768"><ele>48.358</ele><time>2026-04-20T18:57:24.674Z</time><hdop>4.625</hdop><vdop>3.5</vdop><extensions><gom:speed>0.983</gom:speed></extensions></trkpt>
   <trkpt lat="59.0672357261" lon="30.029735493"><ele>48.523</ele><time>2026-04-20T18:57:25.433Z</time><hdop>4.625</hdop><vdop>3.625</vdop><extensions><gom:speed>0.951</gom:speed></extensions></trkpt>
   <trkpt lat="59.0672428507" lon="30.029736415"><ele>48.82</ele><time>2026-04-20T18:57:26.075Z</time><hdop>4.5</hdop><vdop>3.5</vdop><extensions><gom:speed>0.923</gom:speed></extensions></trkpt>
   <trkpt lat="59.0672498496" lon="30.0297361635"><ele>48.997</ele><time>2026-04-20T18:57:27.072Z</time><hdop>4.625</hdop><vdop>3.5</vdop><extensions><gom:speed>0.918</gom:speed></extensions></trkpt>
   <trkpt lat="59.0672550464" lon="30.0297399354"><ele>49.187</ele><time>2026-04-20T18:57:27.832Z</time><hdop>4.625</hdop><vdop>3.625</vdop><extensions><gom:speed>0.907</gom:speed></extensions></trkpt>
   <trkpt lat="59.0672602432" lon="30.0297417794"><ele>49.287</ele><time>2026-04-20T18:57:28.648Z</time><hdop>4.625</hdop><vdop>3.5</vdop><extensions><gom:speed>0.874</gom:speed></extensions></trkpt>
   <trkpt lat="59.067264057" lon="30.0297401868"><ele>49.365</ele><time>2026-04-20T18:57:29.334Z</time><hdop>4.625</hdop><vdop>3.625</vdop><extensions><gom:speed>0.865</gom:speed></extensions></trkpt>
   <trkpt lat="59.0672688346" lon="30.0297385105"><ele>49.821</ele><time>2026-04-20T18:57:30.075Z</time><hdop>4.625</hdop><vdop>3.75</vdop><extensions><gom:speed>0.84</gom:speed></extensions></trkpt>
   <trkpt lat="59.0672760431" lon="30.0297349062"><ele>50.094</ele><time>2026-04-20T18:57:30.941Z</time><hdop>4.625</hdop><vdop>3.75</vdop><extensions><gom:speed>0.866</gom:speed></extensions></trkpt>
   <trkpt lat="59.0672823295" lon="30.029731302"><ele>50.011</ele><time>2026-04-20T18:57:31.762Z</time><hdop>4.625</hdop><vdop>3.75</vdop><extensions><gom:speed>0.861</gom:speed></extensions></trkpt>
   <trkpt lat="59.0672889512" lon="30.0297283683"><ele>49.71</ele><time>2026-04-20T18:57:32.581Z</time><hdop>4.625</hdop><vdop>3.75</vdop><extensions><gom:speed>0.858</gom:speed></extensions></trkpt>
   <trkpt lat="59.0672925554" lon="30.0297253509"><ele>49.424</ele><time>2026-04-20T18:57:33.075Z</time><hdop>4.625</hdop><vdop>3.875</vdop><extensions><gom:speed>0.846</gom:speed></extensions></trkpt>
   <trkpt lat="59.0672976265" lon="30.0297200703"><ele>49.254</ele><time>2026-04-20T18:57:33.756Z</time><hdop>4.625</hdop><vdop>3.875</vdop><extensions><gom:speed>0.837</gom:speed></extensions></trkpt>
   <trkpt lat="59.0673019432" lon="30.0297147897"><ele>49.378</ele><time>2026-04-20T18:57:34.515Z</time><hdop>4.625</hdop><vdop>4.0</vdop><extensions><gom:speed>0.793</gom:speed></extensions></trkpt>
   <trkpt lat="59.0673051283" lon="30.0297098443"><ele>49.372</ele><time>2026-04-20T18:57:35.075Z</time><hdop>4.625</hdop><vdop>4.0</vdop><extensions><gom:speed>0.835</gom:speed></extensions></trkpt>
   <trkpt lat="59.0673111213" lon="30.0296991155"><ele>49.369</ele><time>2026-04-20T18:57:36.075Z</time><hdop>4.75</hdop><vdop>4.0</vdop><extensions><gom:speed>0.811</gom:speed></extensions></trkpt>
   <trkpt lat="59.0673166534" lon="30.0296919909"><ele>49.283</ele><time>2026-04-20T18:57:36.836Z</time><hdop>4.75</hdop><vdop>4.25</vdop><extensions><gom:speed>0.788</gom:speed></extensions></trkpt>
   <trkpt lat="59.067322856" lon="30.0296868779"><ele>49.261</ele><time>2026-04-20T18:57:37.714Z</time><hdop>4.75</hdop><vdop>4.375</vdop><extensions><gom:speed>0.766</gom:speed></extensions></trkpt>
   <trkpt lat="59.06732843" lon="30.0296826032"><ele>49.138</ele><time>2026-04-20T18:57:38.376Z</time><hdop>4.75</hdop><vdop>4.125</vdop><extensions><gom:speed>0.764</gom:speed></extensions></trkpt>
   <trkpt lat="59.0673331238" lon="30.0296805915"><ele>49.411</ele><time>2026-04-20T18:57:39.075Z</time><hdop>4.75</hdop><vdop>4.125</vdop><extensions><gom:speed>0.755</gom:speed></extensions></trkpt>
   <trkpt lat="59.0673393265" lon="30.0296802562"><ele>49.752</ele><time>2026-04-20T18:57:40.075Z</time><hdop>4.75</hdop><vdop>4.125</vdop><extensions><gom:speed>0.646</gom:speed></extensions></trkpt>
   <trkpt lat="59.0673442299" lon="30.0296780769"><ele>49.956</ele><time>2026-04-20T18:57:40.893Z</time><hdop>4.75</hdop><vdop>4.125</vdop><extensions><gom:speed>0.633</gom:speed></extensions></trkpt>
   <trkpt lat="59.0673499296" lon="30.0296770711"><ele>50.099</ele><time>2026-04-20T18:57:41.635Z</time><hdop>4.75</hdop><vdop>4.25</vdop><extensions><gom:speed>0.674</gom:speed></extensions></trkpt>
   <trkpt lat="59.0673565513" lon="30.0296774064"><ele>50.03</ele><time>2026-04-20T18:57:42.452Z</time><hdop>4.75</hdop><vdop>4.75</vdop><extensions><gom:speed>0.659</gom:speed></extensions></trkpt>
   <trkpt lat="59.067360826" lon="30.0296774902"><ele>50.293</ele><time>2026-04-20T18:57:43.075Z</time><hdop>4.625</hdop><vdop>8.375</vdop><extensions><gom:speed>0.633</gom:speed></extensions></trkpt>
   <trkpt lat="59.0673660228" lon="30.0296719581"><ele>50.45</ele><time>2026-04-20T18:57:43.972Z</time><hdop>4.625</hdop><vdop>8.375</vdop><extensions><gom:speed>0.677</gom:speed></extensions></trkpt>
   <trkpt lat="59.0673714291" lon="30.0296670966"><ele>50.557</ele><time>2026-04-20T18:57:44.694Z</time><hdop>4.625</hdop><vdop>7.75</vdop><extensions><gom:speed>0.78</gom:speed></extensions></trkpt>
   <trkpt lat="59.0673775479" lon="30.0296648335"><ele>50.178</ele><time>2026-04-20T18:57:45.355Z</time><hdop>4.625</hdop><vdop>7.375</vdop><extensions><gom:speed>0.788</gom:speed></extensions></trkpt>
   <trkpt lat="59.0673832476" lon="30.0296578765"><ele>49.951</ele><time>2026-04-20T18:57:46.036Z</time><hdop>4.75</hdop><vdop>7.375</vdop><extensions><gom:speed>0.904</gom:speed></extensions></trkpt>
   <trkpt lat="59.0673903303" lon="30.0296551943"><ele>49.245</ele><time>2026-04-20T18:57:46.738Z</time><hdop>4.75</hdop><vdop>7.25</vdop><extensions><gom:speed>0.938</gom:speed></extensions></trkpt>
   <trkpt lat="59.0673971197" lon="30.0296531827"><ele>48.191</ele><time>2026-04-20T18:57:47.536Z</time><hdop>4.75</hdop><vdop>7.0</vdop><extensions><gom:speed>0.943</gom:speed></extensions></trkpt>
   <trkpt lat="59.0674018555" lon="30.0296522607"><ele>47.092</ele><time>2026-04-20T18:57:48.076Z</time><hdop>4.75</hdop><vdop>6.75</vdop><extensions><gom:speed>0.954</gom:speed></extensions></trkpt>
   <trkpt lat="59.0674107403" lon="30.0296468124"><ele>46.435</ele><time>2026-04-20T18:57:48.980Z</time><hdop>4.875</hdop><vdop>6.75</vdop><extensions><gom:speed>1.016</gom:speed></extensions></trkpt>
   <trkpt lat="59.0674189545" lon="30.0296463933"><ele>46.119</ele><time>2026-04-20T18:57:49.778Z</time><hdop>4.875</hdop><vdop>6.5</vdop><extensions><gom:speed>0.977</gom:speed></extensions></trkpt>
   <trkpt lat="59.0674227264" lon="30.0296471477"><ele>45.621</ele><time>2026-04-20T18:57:50.347Z</time><hdop>5.0</hdop><vdop>6.375</vdop><extensions><gom:speed>0.947</gom:speed></extensions></trkpt>
   <trkpt lat="59.0674294319" lon="30.0296389334"><ele>44.979</ele><time>2026-04-20T18:57:50.939Z</time><hdop>5.125</hdop><vdop>6.125</vdop><extensions><gom:speed>0.905</gom:speed></extensions></trkpt>
   <trkpt lat="59.0674327428" lon="30.0296351616"><ele>44.595</ele><time>2026-04-20T18:57:51.636Z</time><hdop>5.25</hdop><vdop>6.125</vdop><extensions><gom:speed>0.809</gom:speed></extensions></trkpt>
   <trkpt lat="59.0674374366" lon="30.0296385982"><ele>44.534</ele><time>2026-04-20T18:57:52.405Z</time><hdop>5.375</hdop><vdop>5.875</vdop><extensions><gom:speed>0.752</gom:speed></extensions></trkpt>
   <trkpt lat="59.0674416276" lon="30.0296402745"><ele>44.474</ele><time>2026-04-20T18:57:52.953Z</time><hdop>5.375</hdop><vdop>6.0</vdop><extensions><gom:speed>0.757</gom:speed></extensions></trkpt>
   <trkpt lat="59.0674478302" lon="30.0296448008"><ele>44.439</ele><time>2026-04-20T18:57:53.874Z</time><hdop>5.625</hdop><vdop>6.0</vdop><extensions><gom:speed>0.801</gom:speed></extensions></trkpt>
   <trkpt lat="59.0674527336" lon="30.0296512548"><ele>44.113</ele><time>2026-04-20T18:57:54.596Z</time><hdop>5.75</hdop><vdop>6.0</vdop><extensions><gom:speed>0.841</gom:speed></extensions></trkpt>
   <trkpt lat="59.0674596487" lon="30.0296551943"><ele>43.453</ele><time>2026-04-20T18:57:55.416Z</time><hdop>6.0</hdop><vdop>5.875</vdop><extensions><gom:speed>0.885</gom:speed></extensions></trkpt>
   <trkpt lat="59.0674654322" lon="30.0296583795"><ele>43.058</ele><time>2026-04-20T18:57:56.056Z</time><hdop>6.0</hdop><vdop>5.875</vdop><extensions><gom:speed>0.877</gom:speed></extensions></trkpt>
   <trkpt lat="59.0674656417" lon="30.0296616484"><ele>43.058</ele><time>2026-04-20T18:57:56.507Z</time><hdop>6.0</hdop><vdop>5.5</vdop><extensions><gom:speed>0.911</gom:speed></extensions></trkpt>
   <trkpt lat="59.0674730178" lon="30.0296705332"><ele>43.255</ele><time>2026-04-20T18:57:57.075Z</time><hdop>6.125</hdop><vdop>5.25</vdop><extensions><gom:speed>0.966</gom:speed></extensions></trkpt>
   <trkpt lat="59.0674760353" lon="30.0296727963"><ele>43.372</ele><time>2026-04-20T18:57:57.556Z</time><hdop>6.125</hdop><vdop>5.25</vdop><extensions><gom:speed>0.966</gom:speed></extensions></trkpt>
   <trkpt lat="59.067478047" lon="30.0296762329"><ele>43.864</ele><time>2026-04-20T18:57:58.075Z</time><hdop>6.125</hdop><vdop>5.0</vdop><extensions><gom:speed>0.948</gom:speed></extensions></trkpt>
   <trkpt lat="59.0674837466" lon="30.0296790828"><ele>44.508</ele><time>2026-04-20T18:57:58.995Z</time><hdop>6.0</hdop><vdop>4.875</vdop><extensions><gom:speed>0.87</gom:speed></extensions></trkpt>
   <trkpt lat="59.067489153" lon="30.0296769035"><ele>44.893</ele><time>2026-04-20T18:57:59.895Z</time><hdop>6.0</hdop><vdop>4.875</vdop><extensions><gom:speed>0.771</gom:speed></extensions></trkpt>
   <trkpt lat="59.0674922543" lon="30.0296681025"><ele>45.106</ele><time>2026-04-20T18:58:00.616Z</time><hdop>6.0</hdop><vdop>4.875</vdop><extensions><gom:speed>0.75</gom:speed></extensions></trkpt>
   <trkpt lat="59.067491458" lon="30.0296615646"><ele>45.258</ele><time>2026-04-20T18:58:01.075Z</time><hdop>5.875</hdop><vdop>4.875</vdop><extensions><gom:speed>0.761</gom:speed></extensions></trkpt>
   <trkpt lat="59.0674927572" lon="30.0296496623"><ele>44.843</ele><time>2026-04-20T18:58:02.075Z</time><hdop>5.75</hdop><vdop>4.75</vdop><extensions><gom:speed>0.798</gom:speed></extensions></trkpt>
   <trkpt lat="59.0674938468" lon="30.0296477344"><ele>44.596</ele><time>2026-04-20T18:58:02.667Z</time><hdop>5.75</hdop><vdop>4.75</vdop><extensions><gom:speed>0.755</gom:speed></extensions></trkpt>
   <trkpt lat="59.0675027317" lon="30.0296380114"><ele>44.048</ele><time>2026-04-20T18:58:03.796Z</time><hdop>5.75</hdop><vdop>4.75</vdop><extensions><gom:speed>0.778</gom:speed></extensions></trkpt>
   <trkpt lat="59.0675066292" lon="30.0296318926"><ele>43.567</ele><time>2026-04-20T18:58:04.594Z</time><hdop>5.625</hdop><vdop>4.875</vdop><extensions><gom:speed>0.817</gom:speed></extensions></trkpt>
   <trkpt lat="59.0675140472" lon="30.0296257739"><ele>42.866</ele><time>2026-04-20T18:58:05.533Z</time><hdop>5.375</hdop><vdop>5.0</vdop><extensions><gom:speed>0.831</gom:speed></extensions></trkpt>
   <trkpt lat="59.0675165199" lon="30.0296236784"><ele>42.363</ele><time>2026-04-20T18:58:06.075Z</time><hdop>5.375</hdop><vdop>5.125</vdop><extensions><gom:speed>0.819</gom:speed></extensions></trkpt>
   <trkpt lat="59.0675200403" lon="30.0296196551"><ele>41.889</ele><time>2026-04-20T18:58:07.076Z</time><hdop>5.25</hdop><vdop>5.25</vdop><extensions><gom:speed>0.783</gom:speed></extensions></trkpt>
   <trkpt lat="59.0675238541" lon="30.0296183978"><ele>41.606</ele><time>2026-04-20T18:58:07.715Z</time><hdop>5.125</hdop><vdop>5.25</vdop><extensions><gom:speed>0.826</gom:speed></extensions></trkpt>
   <trkpt lat="59.0675260333" lon="30.029616889"><ele>41.88</ele><time>2026-04-20T18:58:08.317Z</time><hdop>5.0</hdop><vdop>5.125</vdop><extensions><gom:speed>0.802</gom:speed></extensions></trkpt>
   <trkpt lat="59.0675274164" lon="30.0296165538"><ele>42.044</ele><time>2026-04-20T18:58:08.827Z</time><hdop>5.0</hdop><vdop>5.125</vdop><extensions><gom:speed>0.823</gom:speed></extensions></trkpt>
   <trkpt lat="59.0675329484" lon="30.0296152965"><ele>42.455</ele><time>2026-04-20T18:58:09.403Z</time><hdop>5.0</hdop><vdop>5.375</vdop><extensions><gom:speed>0.837</gom:speed></extensions></trkpt>
   <trkpt lat="59.0675362174" lon="30.0296173081"><ele>42.7</ele><time>2026-04-20T18:58:09.916Z</time><hdop>5.0</hdop><vdop>5.375</vdop><extensions><gom:speed>0.84</gom:speed></extensions></trkpt>
   <trkpt lat="59.0675387319" lon="30.0296176434"><ele>43.511</ele><time>2026-04-20T18:58:10.579Z</time><hdop>4.875</hdop><vdop>5.375</vdop><extensions><gom:speed>0.854</gom:speed></extensions></trkpt>
   <trkpt lat="59.0675439287" lon="30.0296194036"><ele>43.936</ele><time>2026-04-20T18:58:11.279Z</time><hdop>5.0</hdop><vdop>5.5</vdop><extensions><gom:speed>0.856</gom:speed></extensions></trkpt>
   <trkpt lat="59.0675490417" lon="30.0296166376"><ele>44.842</ele><time>2026-04-20T18:58:12.075Z</time><hdop>5.0</hdop><vdop>5.5</vdop><extensions><gom:speed>0.872</gom:speed></extensions></trkpt>
   <trkpt lat="59.067555831" lon="30.0296137877"><ele>45.383</ele><time>2026-04-20T18:58:12.897Z</time><hdop>5.0</hdop><vdop>5.5</vdop><extensions><gom:speed>0.913</gom:speed></extensions></trkpt>
   <trkpt lat="59.0675619498" lon="30.0296106026"><ele>45.386</ele><time>2026-04-20T18:58:13.561Z</time><hdop>5.125</hdop><vdop>5.5</vdop><extensions><gom:speed>0.967</gom:speed></extensions></trkpt>
   <trkpt lat="59.0675641291" lon="30.0296044838"><ele>45.599</ele><time>2026-04-20T18:58:14.075Z</time><hdop>5.25</hdop><vdop>5.625</vdop><extensions><gom:speed>0.95</gom:speed></extensions></trkpt>
   <trkpt lat="59.0675682362" lon="30.0296004605"><ele>45.726</ele><time>2026-04-20T18:58:14.987Z</time><hdop>5.375</hdop><vdop>5.625</vdop><extensions><gom:speed>0.906</gom:speed></extensions></trkpt>
   <trkpt lat="59.0675759476" lon="30.0295924977"><ele>45.777</ele><time>2026-04-20T18:58:16.057Z</time><hdop>5.5</hdop><vdop>5.75</vdop><extensions><gom:speed>0.876</gom:speed></extensions></trkpt>
   <trkpt lat="59.0675821502" lon="30.0295883906"><ele>46.499</ele><time>2026-04-20T18:58:17.034Z</time><hdop>5.5</hdop><vdop>5.875</vdop><extensions><gom:speed>0.907</gom:speed></extensions></trkpt>
   <trkpt lat="59.0675870536" lon="30.0295855407"><ele>46.631</ele><time>2026-04-20T18:58:17.853Z</time><hdop>5.5</hdop><vdop>5.375</vdop><extensions><gom:speed>0.812</gom:speed></extensions></trkpt>
   <trkpt lat="59.0675925437" lon="30.0295805116"><ele>46.897</ele><time>2026-04-20T18:58:18.919Z</time><hdop>5.375</hdop><vdop>5.125</vdop><extensions><gom:speed>0.77</gom:speed></extensions></trkpt>
   <trkpt lat="59.0675973214" lon="30.0295756501"><ele>46.609</ele><time>2026-04-20T18:58:19.660Z</time><hdop>5.375</hdop><vdop>5.0</vdop><extensions><gom:speed>0.754</gom:speed></extensions></trkpt>
   <trkpt lat="59.067600758" lon="30.0295723811"><ele>46.367</ele><time>2026-04-20T18:58:21.029Z</time><hdop>5.25</hdop><vdop>4.75</vdop><extensions><gom:speed>0.579</gom:speed></extensions></trkpt>
   <trkpt lat="59.0676030211" lon="30.0295745604"><ele>46.69</ele><time>2026-04-20T18:58:21.978Z</time><hdop>5.25</hdop><vdop>7.5</vdop><extensions><gom:speed>0.408</gom:speed></extensions></trkpt>
   <trkpt lat="59.0676031469" lon="30.0295745604"><ele>46.883</ele><time>2026-04-20T18:58:22.956Z</time><hdop>5.25</hdop><vdop>7.5</vdop><extensions><gom:speed>0.327</gom:speed></extensions></trkpt>
   <trkpt lat="59.0676037336" lon="30.0295722135"><ele>47.227</ele><time>2026-04-20T18:58:23.836Z</time><hdop>5.375</hdop><vdop>7.625</vdop><extensions><gom:speed>0.299</gom:speed></extensions></trkpt>
   <trkpt lat="59.0676008418" lon="30.0295686093"><ele>47.474</ele><time>2026-04-20T18:58:24.438Z</time><hdop>5.375</hdop><vdop>7.875</vdop><extensions><gom:speed>0.243</gom:speed></extensions></trkpt>
   <trkpt lat="59.0676011352" lon="30.0295663462"><ele>47.642</ele><time>2026-04-20T18:58:24.938Z</time><hdop>5.375</hdop><vdop>7.625</vdop><extensions><gom:speed>0.258</gom:speed></extensions></trkpt>
   <trkpt lat="59.0676043203" lon="30.0295625743"><ele>47.742</ele><time>2026-04-20T18:58:25.760Z</time><hdop>5.375</hdop><vdop>7.625</vdop><extensions><gom:speed>0.368</gom:speed></extensions></trkpt>
   <trkpt lat="59.0676074216" lon="30.0295570422"><ele>47.739</ele><time>2026-04-20T18:58:26.540Z</time><hdop>5.5</hdop><vdop>7.5</vdop><extensions><gom:speed>0.501</gom:speed></extensions></trkpt>
   <trkpt lat="59.0676130375" lon="30.0295532704"><ele>47.722</ele><time>2026-04-20T18:58:27.300Z</time><hdop>5.625</hdop><vdop>7.25</vdop><extensions><gom:speed>0.566</gom:speed></extensions></trkpt>
   <trkpt lat="59.0676223414" lon="30.0295474869"><ele>47.714</ele><time>2026-04-20T18:58:28.018Z</time><hdop>5.75</hdop><vdop>7.25</vdop><extensions><gom:speed>0.678</gom:speed></extensions></trkpt>
   <trkpt lat="59.0676292565" lon="30.0295393564"><ele>47.708</ele><time>2026-04-20T18:58:28.781Z</time><hdop>5.875</hdop><vdop>7.25</vdop><extensions><gom:speed>0.797</gom:speed></extensions></trkpt>
   <trkpt lat="59.0676380575" lon="30.0295287952"><ele>47.644</ele><time>2026-04-20T18:58:29.680Z</time><hdop>6.0</hdop><vdop>7.125</vdop><extensions><gom:speed>0.856</gom:speed></extensions></trkpt>
   <trkpt lat="59.0676459365" lon="30.0295244366"><ele>47.847</ele><time>2026-04-20T18:58:30.480Z</time><hdop>6.25</hdop><vdop>6.375</vdop><extensions><gom:speed>0.869</gom:speed></extensions></trkpt>
   <trkpt lat="59.0676443439" lon="30.0295289629"><ele>48.396</ele><time>2026-04-20T18:58:31.075Z</time><hdop>6.25</hdop><vdop>5.625</vdop><extensions><gom:speed>0.844</gom:speed></extensions></trkpt>
   <trkpt lat="59.0676431285" lon="30.0295383506"><ele>49.404</ele><time>2026-04-20T18:58:32.075Z</time><hdop>6.25</hdop><vdop>5.5</vdop><extensions><gom:speed>0.814</gom:speed></extensions></trkpt>
   <trkpt lat="59.0676463556" lon="30.029540949"><ele>50.006</ele><time>2026-04-20T18:58:32.898Z</time><hdop>6.25</hdop><vdop>5.5</vdop><extensions><gom:speed>0.786</gom:speed></extensions></trkpt>
   <trkpt lat="59.0676481577" lon="30.0295433797"><ele>51.024</ele><time>2026-04-20T18:58:33.643Z</time><hdop>6.0</hdop><vdop>5.5</vdop><extensions><gom:speed>0.815</gom:speed></extensions></trkpt>
   <trkpt lat="59.0676523486" lon="30.0295435474"><ele>52.03</ele><time>2026-04-20T18:58:34.438Z</time><hdop>5.75</hdop><vdop>5.75</vdop><extensions><gom:speed>0.826</gom:speed></extensions></trkpt>
   <trkpt lat="59.0676559528" lon="30.0295432959"><ele>52.314</ele><time>2026-04-20T18:58:35.075Z</time><hdop>5.625</hdop><vdop>5.875</vdop><extensions><gom:speed>0.823</gom:speed></extensions></trkpt>
   <trkpt lat="59.0676626165" lon="30.029543715"><ele>52.483</ele><time>2026-04-20T18:58:36.037Z</time><hdop>5.375</hdop><vdop>5.875</vdop><extensions><gom:speed>0.804</gom:speed></extensions></trkpt>
   <trkpt lat="59.0676678551" lon="30.0295465649"><ele>52.739</ele><time>2026-04-20T18:58:36.877Z</time><hdop>5.125</hdop><vdop>5.75</vdop><extensions><gom:speed>0.779</gom:speed></extensions></trkpt>
   <trkpt lat="59.067671627" lon="30.0295485765"><ele>53.053</ele><time>2026-04-20T18:58:37.517Z</time><hdop>5.0</hdop><vdop>5.625</vdop><extensions><gom:speed>0.759</gom:speed></extensions></trkpt>
   <trkpt lat="59.067675357" lon="30.0295461458"><ele>53.217</ele><time>2026-04-20T18:58:38.075Z</time><hdop>4.875</hdop><vdop>5.5</vdop><extensions><gom:speed>0.75</gom:speed></extensions></trkpt>
   <trkpt lat="59.0676756503" lon="30.0295365066"><ele>53.744</ele><time>2026-04-20T18:58:39.076Z</time><hdop>4.875</hdop><vdop>8.375</vdop><extensions><gom:speed>0.611</gom:speed></extensions></trkpt>
   <trkpt lat="59.0676744349" lon="30.0295360875"><ele>54.058</ele><time>2026-04-20T18:58:39.746Z</time><hdop>4.75</hdop><vdop>8.375</vdop><extensions><gom:speed>0.485</gom:speed></extensions></trkpt>
   <trkpt lat="59.0676763209" lon="30.0295318965"><ele>53.91</ele><time>2026-04-20T18:58:41.049Z</time><hdop>4.625</hdop><vdop>8.5</vdop><extensions><gom:speed>0.28</gom:speed></extensions></trkpt>
   <trkpt lat="59.0676789193" lon="30.02953307"><ele>53.707</ele><time>2026-04-20T18:58:42.075Z</time><hdop>4.5</hdop><vdop>8.5</vdop><extensions><gom:speed>0.157</gom:speed></extensions></trkpt>
   <trkpt lat="59.0676789193" lon="30.0295342435"><ele>53.585</ele><time>2026-04-20T18:58:42.592Z</time><hdop>4.375</hdop><vdop>8.5</vdop><extensions><gom:speed>0.067</gom:speed></extensions></trkpt>
   <trkpt lat="59.0676789193" lon="30.029534914"><ele>53.239</ele><time>2026-04-20T18:58:43.293Z</time><hdop>4.375</hdop><vdop>8.5</vdop><extensions><gom:speed>0.1</gom:speed></extensions></trkpt>
   <trkpt lat="59.0676791288" lon="30.0295346626"><ele>53.033</ele><time>2026-04-20T18:58:44.072Z</time><hdop>4.375</hdop><vdop>8.5</vdop><extensions><gom:speed>0.107</gom:speed></extensions></trkpt>
   <trkpt lat="59.0676791288" lon="30.0295346626"><ele>52.945</ele><time>2026-04-20T18:58:45.001Z</time><hdop>4.375</hdop><vdop>8.5</vdop><extensions><gom:speed>0.124</gom:speed></extensions></trkpt>
   <trkpt lat="59.0676792545" lon="30.0295349978"><ele>52.763</ele><time>2026-04-20T18:58:45.593Z</time><hdop>4.375</hdop><vdop>8.5</vdop><extensions><gom:speed>0.086</gom:speed></extensions></trkpt>
   <trkpt lat="59.0676795479" lon="30.0295350817"><ele>52.665</ele><time>2026-04-20T18:58:46.295Z</time><hdop>4.5</hdop><vdop>8.625</vdop><extensions><gom:speed>0.128</gom:speed></extensions></trkpt>
   <trkpt lat="59.0676791288" lon="30.0295353331"><ele>52.606</ele><time>2026-04-20T18:58:46.996Z</time><hdop>4.5</hdop><vdop>8.625</vdop><extensions><gom:speed>0.127</gom:speed></extensions></trkpt>
   <trkpt lat="59.0676829426" lon="30.029533992"><ele>52.445</ele><time>2026-04-20T18:58:47.677Z</time><hdop>4.625</hdop><vdop>8.25</vdop><extensions><gom:speed>0.228</gom:speed></extensions></trkpt>
   <trkpt lat="59.0676859181" lon="30.0295326509"><ele>52.452</ele><time>2026-04-20T18:58:48.357Z</time><hdop>4.875</hdop><vdop>8.0</vdop><extensions><gom:speed>0.277</gom:speed></extensions></trkpt>
   <trkpt lat="59.0676948449" lon="30.0295272027"><ele>52.456</ele><time>2026-04-20T18:58:49.059Z</time><hdop>5.0</hdop><vdop>8.0</vdop><extensions><gom:speed>0.545</gom:speed></extensions></trkpt>
   <trkpt lat="59.0677136203" lon="30.0295142945"><ele>52.547</ele><time>2026-04-20T18:58:49.642Z</time><hdop>5.125</hdop><vdop>7.75</vdop><extensions><gom:speed>0.929</gom:speed></extensions></trkpt>
   <trkpt lat="59.0677288335" lon="30.0295049906"><ele>52.76</ele><time>2026-04-20T18:58:50.361Z</time><hdop>5.375</hdop><vdop>7.625</vdop><extensions><gom:speed>0.955</gom:speed></extensions></trkpt>
   <trkpt lat="59.067742035" lon="30.0294957705"><ele>52.888</ele><time>2026-04-20T18:58:51.073Z</time><hdop>5.5</hdop><vdop>7.625</vdop><extensions><gom:speed>1.067</gom:speed></extensions></trkpt>
   <trkpt lat="59.0677528476" lon="30.0294892326"><ele>53.163</ele><time>2026-04-20T18:58:51.793Z</time><hdop>5.5</hdop><vdop>7.5</vdop><extensions><gom:speed>1.069</gom:speed></extensions></trkpt>
   <trkpt lat="59.0677579187" lon="30.0294866343"><ele>53.704</ele><time>2026-04-20T18:58:52.399Z</time><hdop>5.5</hdop><vdop>7.625</vdop><extensions><gom:speed>1.063</gom:speed></extensions></trkpt>
   <trkpt lat="59.0677628221" lon="30.0294837844"><ele>54.295</ele><time>2026-04-20T18:58:53.075Z</time><hdop>5.5</hdop><vdop>7.75</vdop><extensions><gom:speed>1.08</gom:speed></extensions></trkpt>
   <trkpt lat="59.0677702401" lon="30.0294797611"><ele>54.649</ele><time>2026-04-20T18:58:53.837Z</time><hdop>5.375</hdop><vdop>7.75</vdop><extensions><gom:speed>1.106</gom:speed></extensions></trkpt>
   <trkpt lat="59.0677781191" lon="30.029475654"><ele>54.989</ele><time>2026-04-20T18:58:54.577Z</time><hdop>5.25</hdop><vdop>7.625</vdop><extensions><gom:speed>1.09</gom:speed></extensions></trkpt>
   <trkpt lat="59.0677805498" lon="30.029475654"><ele>55.327</ele><time>2026-04-20T18:58:55.075Z</time><hdop>5.25</hdop><vdop>7.625</vdop><extensions><gom:speed>1.041</gom:speed></extensions></trkpt>
   <trkpt lat="59.0677880516" lon="30.0294713792"><ele>55.536</ele><time>2026-04-20T18:58:55.977Z</time><hdop>5.125</hdop><vdop>7.625</vdop><extensions><gom:speed>1.03</gom:speed></extensions></trkpt>
   <trkpt lat="59.0677956373" lon="30.0294662662"><ele>55.661</ele><time>2026-04-20T18:58:56.838Z</time><hdop>5.25</hdop><vdop>7.625</vdop><extensions><gom:speed>1.006</gom:speed></extensions></trkpt>
   <trkpt lat="59.0678022171" lon="30.0294610695"><ele>55.881</ele><time>2026-04-20T18:58:57.579Z</time><hdop>5.5</hdop><vdop>7.5</vdop><extensions><gom:speed>0.988</gom:speed></extensions></trkpt>
   <trkpt lat="59.0678019237" lon="30.0294624944"><ele>56.156</ele><time>2026-04-20T18:58:58.075Z</time><hdop>5.5</hdop><vdop>7.625</vdop><extensions><gom:speed>0.944</gom:speed></extensions></trkpt>
   <trkpt lat="59.0678071205" lon="30.029458974"><ele>56.522</ele><time>2026-04-20T18:58:59.056Z</time><hdop>5.875</hdop><vdop>7.25</vdop><extensions><gom:speed>0.904</gom:speed></extensions></trkpt>
   <trkpt lat="59.0678143289" lon="30.0294557889"><ele>56.741</ele><time>2026-04-20T18:58:59.977Z</time><hdop>6.0</hdop><vdop>7.25</vdop><extensions><gom:speed>0.952</gom:speed></extensions></trkpt>
   <trkpt lat="59.0678144546" lon="30.0294621591"><ele>57.092</ele><time>2026-04-20T18:59:00.736Z</time><hdop>6.125</hdop><vdop>7.125</vdop><extensions><gom:speed>0.937</gom:speed></extensions></trkpt>
   <trkpt lat="59.0678205315" lon="30.0294616562"><ele>57.329</ele><time>2026-04-20T18:59:01.557Z</time><hdop>6.25</hdop><vdop>7.125</vdop><extensions><gom:speed>0.923</gom:speed></extensions></trkpt>
   <trkpt lat="59.0678204477" lon="30.0294653442"><ele>56.389</ele><time>2026-04-20T18:59:02.076Z</time><hdop>6.25</hdop><vdop>6.25</vdop><extensions><gom:speed>0.91</gom:speed></extensions></trkpt>
   <trkpt lat="59.0678243453" lon="30.0294666015"><ele>56.124</ele><time>2026-04-20T18:59:03.075Z</time><hdop>6.125</hdop><vdop>6.0</vdop><extensions><gom:speed>0.942</gom:speed></extensions></trkpt>
   <trkpt lat="59.0678306317" lon="30.0294633326"><ele>55.966</ele><time>2026-04-20T18:59:04.014Z</time><hdop>6.125</hdop><vdop>6.0</vdop><extensions><gom:speed>0.903</gom:speed></extensions></trkpt>
   <trkpt lat="59.0678409414" lon="30.0294536934"><ele>56.172</ele><time>2026-04-20T18:59:05.075Z</time><hdop>5.875</hdop><vdop>5.625</vdop><extensions><gom:speed>0.838</gom:speed></extensions></trkpt>
   <trkpt lat="59.067844839" lon="30.0294495862"><ele>56.294</ele><time>2026-04-20T18:59:05.762Z</time><hdop>5.75</hdop><vdop>5.625</vdop><extensions><gom:speed>0.77</gom:speed></extensions></trkpt>
   <trkpt lat="59.0678535562" lon="30.0294464011"><ele>56.353</ele><time>2026-04-20T18:59:06.681Z</time><hdop>5.625</hdop><vdop>5.625</vdop><extensions><gom:speed>0.737</gom:speed></extensions></trkpt>
   <trkpt lat="59.0678625248" lon="30.0294475746"><ele>55.903</ele><time>2026-04-20T18:59:07.460Z</time><hdop>5.5</hdop><vdop>5.375</vdop><extensions><gom:speed>0.747</gom:speed></extensions></trkpt>
   <trkpt lat="59.0678699428" lon="30.0294505083"><ele>55.653</ele><time>2026-04-20T18:59:08.075Z</time><hdop>5.5</hdop><vdop>5.25</vdop><extensions><gom:speed>0.742</gom:speed></extensions></trkpt>
   <trkpt lat="59.0678803364" lon="30.0294572138"><ele>56.291</ele><time>2026-04-20T18:59:09.076Z</time><hdop>5.375</hdop><vdop>5.25</vdop><extensions><gom:speed>0.652</gom:speed></extensions></trkpt>
   <trkpt lat="59.0678864552" lon="30.0294603989"><ele>56.672</ele><time>2026-04-20T18:59:10.016Z</time><hdop>5.25</hdop><vdop>5.25</vdop><extensions><gom:speed>0.593</gom:speed></extensions></trkpt>
   <trkpt lat="59.0678913167" lon="30.0294641708"><ele>56.626</ele><time>2026-04-20T18:59:10.666Z</time><hdop>5.25</hdop><vdop>5.125</vdop><extensions><gom:speed>0.619</gom:speed></extensions></trkpt>
   <trkpt lat="59.0679138221" lon="30.0294729718"><ele>56.387</ele><time>2026-04-20T18:59:12.075Z</time><hdop>5.125</hdop><vdop>4.875</vdop><extensions><gom:speed>0.556</gom:speed></extensions></trkpt>
   <trkpt lat="59.0679210305" lon="30.0294717983"><ele>56.244</ele><time>2026-04-20T18:59:12.997Z</time><hdop>5.0</hdop><vdop>4.875</vdop><extensions><gom:speed>0.508</gom:speed></extensions></trkpt>
   <trkpt lat="59.0679295382" lon="30.0294663501"><ele>56.025</ele><time>2026-04-20T18:59:14.034Z</time><hdop>4.875</hdop><vdop>4.625</vdop><extensions><gom:speed>0.52</gom:speed></extensions></trkpt>
   <trkpt lat="59.0679374172" lon="30.0294625782"><ele>55.666</ele><time>2026-04-20T18:59:14.914Z</time><hdop>4.75</hdop><vdop>4.625</vdop><extensions><gom:speed>0.498</gom:speed></extensions></trkpt>
   <trkpt lat="59.0679459248" lon="30.0294615724"><ele>55.288</ele><time>2026-04-20T18:59:15.633Z</time><hdop>4.625</hdop><vdop>5.0</vdop><extensions><gom:speed>0.482</gom:speed></extensions></trkpt>
   <trkpt lat="59.0679555221" lon="30.0294601474"><ele>54.808</ele><time>2026-04-20T18:59:16.434Z</time><hdop>4.5</hdop><vdop>5.0</vdop><extensions><gom:speed>0.488</gom:speed></extensions></trkpt>
   <trkpt lat="59.0679647422" lon="30.0294593931"><ele>54.242</ele><time>2026-04-20T18:59:17.075Z</time><hdop>4.5</hdop><vdop>5.125</vdop><extensions><gom:speed>0.476</gom:speed></extensions></trkpt>
   <trkpt lat="59.0679676339" lon="30.0294614886"><ele>53.776</ele><time>2026-04-20T18:59:18.010Z</time><hdop>4.375</hdop><vdop>5.125</vdop><extensions><gom:speed>0.356</gom:speed></extensions></trkpt>
   <trkpt lat="59.0679729564" lon="30.0294676912"><ele>53.401</ele><time>2026-04-20T18:59:19.075Z</time><hdop>4.375</hdop><vdop>5.25</vdop><extensions><gom:speed>0.287</gom:speed></extensions></trkpt>
   <trkpt lat="59.067973627" lon="30.0294710439"><ele>53.167</ele><time>2026-04-20T18:59:20.024Z</time><hdop>4.375</hdop><vdop>5.5</vdop><extensions><gom:speed>0.179</gom:speed></extensions></trkpt>
   <trkpt lat="59.0679767283" lon="30.0294736423"><ele>52.789</ele><time>2026-04-20T18:59:21.075Z</time><hdop>4.375</hdop><vdop>5.5</vdop><extensions><gom:speed>0.096</gom:speed></extensions></trkpt>
   <trkpt lat="59.0679808354" lon="30.0294780009"><ele>52.4</ele><time>2026-04-20T18:59:22.075Z</time><hdop>4.5</hdop><vdop>5.25</vdop><extensions><gom:speed>0.112</gom:speed></extensions></trkpt>
   <trkpt lat="59.0679811288" lon="30.0294791744"><ele>52.167</ele><time>2026-04-20T18:59:22.986Z</time><hdop>4.5</hdop><vdop>5.25</vdop><extensions><gom:speed>0.089</gom:speed></extensions></trkpt>
   <trkpt lat="59.0679846492" lon="30.029484455"><ele>51.463</ele><time>2026-04-20T18:59:24.075Z</time><hdop>4.5</hdop><vdop>5.0</vdop><extensions><gom:speed>0.069</gom:speed></extensions></trkpt>
   <trkpt lat="59.0679854455" lon="30.0294848741"><ele>50.57</ele><time>2026-04-20T18:59:24.999Z</time><hdop>4.5</hdop><vdop>5.125</vdop><extensions><gom:speed>0.07</gom:speed></extensions></trkpt>
   <trkpt lat="59.0679883372" lon="30.0294878077"><ele>49.901</ele><time>2026-04-20T18:59:26.076Z</time><hdop>4.375</hdop><vdop>5.125</vdop><extensions><gom:speed>0.097</gom:speed></extensions></trkpt>
   <trkpt lat="59.0679889239" lon="30.0294892326"><ele>49.289</ele><time>2026-04-20T18:59:27.013Z</time><hdop>4.375</hdop><vdop>5.0</vdop><extensions><gom:speed>0.068</gom:speed></extensions></trkpt>
   <trkpt lat="59.0679920253" lon="30.0294935074"><ele>49.073</ele><time>2026-04-20T18:59:28.075Z</time><hdop>4.25</hdop><vdop>4.625</vdop><extensions><gom:speed>0.06</gom:speed></extensions></trkpt>
   <trkpt lat="59.0679928215" lon="30.0294968602"><ele>49.143</ele><time>2026-04-20T18:59:29.027Z</time><hdop>4.375</hdop><vdop>4.375</vdop><extensions><gom:speed>0.065</gom:speed></extensions></trkpt>
   <trkpt lat="59.0679974316" lon="30.0295033981"><ele>49.287</ele><time>2026-04-20T18:59:30.075Z</time><hdop>4.375</hdop><vdop>4.375</vdop><extensions><gom:speed>0.1</gom:speed></extensions></trkpt>
   <trkpt lat="59.0679978507" lon="30.0295035657"><ele>49.419</ele><time>2026-04-20T18:59:31.041Z</time><hdop>4.5</hdop><vdop>4.125</vdop><extensions><gom:speed>0.071</gom:speed></extensions></trkpt>
   <trkpt lat="59.0680020416" lon="30.0295080919"><ele>49.514</ele><time>2026-04-20T18:59:32.075Z</time><hdop>4.5</hdop><vdop>4.0</vdop><extensions><gom:speed>0.071</gom:speed></extensions></trkpt>
   <trkpt lat="59.0680065259" lon="30.029514546"><ele>49.644</ele><time>2026-04-20T18:59:33.076Z</time><hdop>4.625</hdop><vdop>3.75</vdop><extensions><gom:speed>0.096</gom:speed></extensions></trkpt>
   <trkpt lat="59.0680083281" lon="30.0295186531"><ele>49.655</ele><time>2026-04-20T18:59:34.002Z</time><hdop>4.75</hdop><vdop>3.625</vdop><extensions><gom:speed>0.066</gom:speed></extensions></trkpt>
   <trkpt lat="59.0680104235" lon="30.0295232632"><ele>49.684</ele><time>2026-04-20T18:59:35.075Z</time><hdop>4.875</hdop><vdop>3.5</vdop><extensions><gom:speed>0.194</gom:speed></extensions></trkpt>
   <trkpt lat="59.0680153269" lon="30.029529382"><ele>49.546</ele><time>2026-04-20T18:59:36.075Z</time><hdop>4.875</hdop><vdop>3.5</vdop><extensions><gom:speed>0.395</gom:speed></extensions></trkpt>
   <trkpt lat="59.068017632" lon="30.0295310583"><ele>49.463</ele><time>2026-04-20T18:59:36.661Z</time><hdop>4.875</hdop><vdop>3.5</vdop><extensions><gom:speed>0.4</gom:speed></extensions></trkpt>
   <trkpt lat="59.06802132" lon="30.0295345787"><ele>48.976</ele><time>2026-04-20T18:59:37.275Z</time><hdop>5.0</hdop><vdop>3.625</vdop><extensions><gom:speed>0.412</gom:speed></extensions></trkpt>
   <trkpt lat="59.0680255529" lon="30.029537261"><ele>48.755</ele><time>2026-04-20T18:59:38.075Z</time><hdop>5.0</hdop><vdop>8.875</vdop><extensions><gom:speed>0.362</gom:speed></extensions></trkpt>
   <trkpt lat="59.0680288218" lon="30.0295382668"><ele>48.623</ele><time>2026-04-20T18:59:38.980Z</time><hdop>5.0</hdop><vdop>8.875</vdop><extensions><gom:speed>0.35</gom:speed></extensions></trkpt>
   <trkpt lat="59.0680327194" lon="30.0295408652"><ele>48.481</ele><time>2026-04-20T18:59:39.742Z</time><hdop>5.125</hdop><vdop>9.0</vdop><extensions><gom:speed>0.421</gom:speed></extensions></trkpt>
   <trkpt lat="59.0680341443" lon="30.0295422901"><ele>48.388</ele><time>2026-04-20T18:59:40.718Z</time><hdop>5.25</hdop><vdop>8.625</vdop><extensions><gom:speed>0.347</gom:speed></extensions></trkpt>
   <trkpt lat="59.068036617" lon="30.0295420386"><ele>48.282</ele><time>2026-04-20T18:59:41.617Z</time><hdop>5.375</hdop><vdop>8.125</vdop><extensions><gom:speed>0.434</gom:speed></extensions></trkpt>
   <trkpt lat="59.0680410175" lon="30.0295412004"><ele>48.169</ele><time>2026-04-20T18:59:42.455Z</time><hdop>5.75</hdop><vdop>7.875</vdop><extensions><gom:speed>0.509</gom:speed></extensions></trkpt>
   <trkpt lat="59.0680442445" lon="30.0295401108"><ele>48.147</ele><time>2026-04-20T18:59:43.007Z</time><hdop>5.75</hdop><vdop>7.5</vdop><extensions><gom:speed>0.525</gom:speed></extensions></trkpt>
   <trkpt lat="59.0680508243" lon="30.0295366742"><ele>48.134</ele><time>2026-04-20T18:59:44.035Z</time><hdop>6.125</hdop><vdop>7.5</vdop><extensions><gom:speed>0.604</gom:speed></extensions></trkpt>
   <trkpt lat="59.0680583261" lon="30.0295318965"><ele>48.089</ele><time>2026-04-20T18:59:44.972Z</time><hdop>6.5</hdop><vdop>7.125</vdop><extensions><gom:speed>0.641</gom:speed></extensions></trkpt>
   <trkpt lat="59.0680655345" lon="30.029526113"><ele>48.049</ele><time>2026-04-20T18:59:45.921Z</time><hdop>7.0</hdop><vdop>7.0</vdop><extensions><gom:speed>0.676</gom:speed></extensions></trkpt>
   <trkpt lat="59.0680715276" lon="30.0295195751"><ele>47.969</ele><time>2026-04-20T18:59:46.701Z</time><hdop>7.375</hdop><vdop>6.875</vdop><extensions><gom:speed>0.749</gom:speed></extensions></trkpt>
   <trkpt lat="59.0680786522" lon="30.0295122829"><ele>47.86</ele><time>2026-04-20T18:59:47.519Z</time><hdop>7.875</hdop><vdop>7.0</vdop><extensions><gom:speed>0.822</gom:speed></extensions></trkpt>
   <trkpt lat="59.0680869503" lon="30.0295049068"><ele>47.913</ele><time>2026-04-20T18:59:47.981Z</time><hdop>8.125</hdop><vdop>7.25</vdop><extensions><gom:speed>0.838</gom:speed></extensions></trkpt>
   <trkpt lat="59.0680929434" lon="30.0294971116"><ele>47.945</ele><time>2026-04-20T18:59:49.084Z</time><hdop>8.75</hdop><vdop>7.25</vdop><extensions><gom:speed>0.873</gom:speed></extensions></trkpt>
   <trkpt lat="59.0680978468" lon="30.0295044039"><ele>48.058</ele><time>2026-04-20T18:59:49.820Z</time><hdop>8.75</hdop><vdop>7.25</vdop><extensions><gom:speed>0.873</gom:speed></extensions></trkpt>
   <trkpt lat="59.0681049295" lon="30.0295082596"><ele>48.254</ele><time>2026-04-20T18:59:50.856Z</time><hdop>9.0</hdop><vdop>7.25</vdop><extensions><gom:speed>0.824</gom:speed></extensions></trkpt>
   <trkpt lat="59.0681107549" lon="30.0295059965"><ele>48.461</ele><time>2026-04-20T18:59:51.735Z</time><hdop>9.25</hdop><vdop>7.25</vdop><extensions><gom:speed>0.807</gom:speed></extensions></trkpt>
   <trkpt lat="59.0681128504" lon="30.0295158871"><ele>48.696</ele><time>2026-04-20T18:59:52.515Z</time><hdop>9.125</hdop><vdop>7.375</vdop><extensions><gom:speed>0.773</gom:speed></extensions></trkpt>
   <trkpt lat="59.0681171252" lon="30.0295156356"><ele>48.97</ele><time>2026-04-20T18:59:53.314Z</time><hdop>9.0</hdop><vdop>7.25</vdop><extensions><gom:speed>0.774</gom:speed></extensions></trkpt>
   <trkpt lat="59.0681186339" lon="30.029514546"><ele>49.134</ele><time>2026-04-20T18:59:53.905Z</time><hdop>9.0</hdop><vdop>7.25</vdop><extensions><gom:speed>0.791</gom:speed></extensions></trkpt>
   <trkpt lat="59.0681265548" lon="30.0295054935"><ele>51.247</ele><time>2026-04-20T18:59:54.835Z</time><hdop>8.875</hdop><vdop>6.0</vdop><extensions><gom:speed>0.839</gom:speed></extensions></trkpt>
   <trkpt lat="59.0681298237" lon="30.0294961058"><ele>52.116</ele><time>2026-04-20T18:59:55.637Z</time><hdop>8.625</hdop><vdop>5.25</vdop><extensions><gom:speed>0.839</gom:speed></extensions></trkpt>
   <trkpt lat="59.0681355234" lon="30.0294837006"><ele>52.394</ele><time>2026-04-20T18:59:56.532Z</time><hdop>8.25</hdop><vdop>5.0</vdop><extensions><gom:speed>0.801</gom:speed></extensions></trkpt>
   <trkpt lat="59.0681401335" lon="30.029476576"><ele>52.578</ele><time>2026-04-20T18:59:57.076Z</time><hdop>8.0</hdop><vdop>5.375</vdop><extensions><gom:speed>0.779</gom:speed></extensions></trkpt>
   <trkpt lat="59.0681496469" lon="30.0294660986"><ele>53.127</ele><time>2026-04-20T18:59:58.075Z</time><hdop>7.5</hdop><vdop>5.375</vdop><extensions><gom:speed>0.825</gom:speed></extensions></trkpt>
   <trkpt lat="59.0681583222" lon="30.0294581358"><ele>53.454</ele><time>2026-04-20T18:59:59.001Z</time><hdop>7.0</hdop><vdop>5.375</vdop><extensions><gom:speed>0.82</gom:speed></extensions></trkpt>
   <trkpt lat="59.068168129" lon="30.0294505921"><ele>53.908</ele><time>2026-04-20T19:00:00.018Z</time><hdop>6.375</hdop><vdop>8.875</vdop><extensions><gom:speed>0.772</gom:speed></extensions></trkpt>
   <trkpt lat="59.0681756308" lon="30.02944506"><ele>54.651</ele><time>2026-04-20T19:00:01.012Z</time><hdop>6.0</hdop><vdop>8.375</vdop><extensions><gom:speed>0.661</gom:speed></extensions></trkpt>
   <trkpt lat="59.0681807438" lon="30.0294427131"><ele>55.095</ele><time>2026-04-20T19:00:01.954Z</time><hdop>5.75</hdop><vdop>8.375</vdop><extensions><gom:speed>0.628</gom:speed></extensions></trkpt>
   <trkpt lat="59.0681861501" lon="30.0294376839"><ele>55.755</ele><time>2026-04-20T19:00:02.732Z</time><hdop>5.75</hdop><vdop>8.125</vdop><extensions><gom:speed>0.672</gom:speed></extensions></trkpt>
   <trkpt lat="59.0681910535" lon="30.0294322357"><ele>56.368</ele><time>2026-04-20T19:00:03.454Z</time><hdop>5.75</hdop><vdop>8.25</vdop><extensions><gom:speed>0.67</gom:speed></extensions></trkpt>
   <trkpt lat="59.0681949511" lon="30.0294267037"><ele>56.947</ele><time>2026-04-20T19:00:04.075Z</time><hdop>5.625</hdop><vdop>8.0</vdop><extensions><gom:speed>0.691</gom:speed></extensions></trkpt>
   <trkpt lat="59.0682017405" lon="30.0294170645"><ele>57.293</ele><time>2026-04-20T19:00:05.033Z</time><hdop>5.75</hdop><vdop>8.0</vdop><extensions><gom:speed>0.747</gom:speed></extensions></trkpt>
   <trkpt lat="59.0682087394" lon="30.0294068385"><ele>56.551</ele><time>2026-04-20T19:00:05.792Z</time><hdop>5.75</hdop><vdop>7.75</vdop><extensions><gom:speed>0.859</gom:speed></extensions></trkpt>
   <trkpt lat="59.0682199292" lon="30.0293954392"><ele>55.98</ele><time>2026-04-20T19:00:06.514Z</time><hdop>5.75</hdop><vdop>6.75</vdop><extensions><gom:speed>0.903</gom:speed></extensions></trkpt>
   <trkpt lat="59.0682242459" lon="30.0293920026"><ele>55.781</ele><time>2026-04-20T19:00:07.075Z</time><hdop>5.75</hdop><vdop>6.375</vdop><extensions><gom:speed>0.909</gom:speed></extensions></trkpt>
   <trkpt lat="59.0682313286" lon="30.029384375"><ele>55.661</ele><time>2026-04-20T19:00:07.936Z</time><hdop>5.625</hdop><vdop>6.375</vdop><extensions><gom:speed>0.958</gom:speed></extensions></trkpt>
   <trkpt lat="59.0682390399" lon="30.0293765799"><ele>57.481</ele><time>2026-04-20T19:00:08.695Z</time><hdop>5.625</hdop><vdop>6.25</vdop><extensions><gom:speed>1.011</gom:speed></extensions></trkpt>
   <trkpt lat="59.0682470447" lon="30.029370964"><ele>58.575</ele><time>2026-04-20T19:00:09.396Z</time><hdop>5.625</hdop><vdop>6.0</vdop><extensions><gom:speed>1.004</gom:speed></extensions></trkpt>
   <trkpt lat="59.0682545465" lon="30.0293679465"><ele>59.275</ele><time>2026-04-20T19:00:10.075Z</time><hdop>5.625</hdop><vdop>5.875</vdop><extensions><gom:speed>0.976</gom:speed></extensions></trkpt>
   <trkpt lat="59.0682628445" lon="30.0293625821"><ele>59.693</ele><time>2026-04-20T19:00:10.976Z</time><hdop>5.625</hdop><vdop>5.875</vdop><extensions><gom:speed>0.926</gom:speed></extensions></trkpt>
   <trkpt lat="59.0682706397" lon="30.0293594808"><ele>61.065</ele><time>2026-04-20T19:00:11.795Z</time><hdop>5.5</hdop><vdop>5.625</vdop><extensions><gom:speed>0.84</gom:speed></extensions></trkpt>
   <trkpt lat="59.0682755431" lon="30.0293589779"><ele>62.479</ele><time>2026-04-20T19:00:12.503Z</time><hdop>5.5</hdop><vdop>5.5</vdop><extensions><gom:speed>0.804</gom:speed></extensions></trkpt>
   <trkpt lat="59.0682854338" lon="30.029355206"><ele>63.92</ele><time>2026-04-20T19:00:13.075Z</time><hdop>5.5</hdop><vdop>5.125</vdop><extensions><gom:speed>0.792</gom:speed></extensions></trkpt>
   <trkpt lat="59.0682960369" lon="30.0293531105"><ele>66.191</ele><time>2026-04-20T19:00:14.076Z</time><hdop>5.375</hdop><vdop>4.75</vdop><extensions><gom:speed>0.797</gom:speed></extensions></trkpt>
   <trkpt lat="59.0683068495" lon="30.0293488358"><ele>68.007</ele><time>2026-04-20T19:00:15.075Z</time><hdop>5.375</hdop><vdop>4.625</vdop><extensions><gom:speed>0.732</gom:speed></extensions></trkpt>
   <trkpt lat="59.0683164468" lon="30.0293439743"><ele>69.728</ele><time>2026-04-20T19:00:16.075Z</time><hdop>5.125</hdop><vdop>4.5</vdop><extensions><gom:speed>0.652</gom:speed></extensions></trkpt>
   <trkpt lat="59.0683247449" lon="30.0293379393"><ele>70.853</ele><time>2026-04-20T19:00:17.075Z</time><hdop>5.0</hdop><vdop>4.125</vdop><extensions><gom:speed>0.62</gom:speed></extensions></trkpt>
   <trkpt lat="59.0683299417" lon="30.0293314014"><ele>71.526</ele><time>2026-04-20T19:00:17.896Z</time><hdop>4.875</hdop><vdop>4.125</vdop><extensions><gom:speed>0.631</gom:speed></extensions></trkpt>
   <trkpt lat="59.0683392456" lon="30.0293270428"><ele>72.197</ele><time>2026-04-20T19:00:18.715Z</time><hdop>4.75</hdop><vdop>3.875</vdop><extensions><gom:speed>0.71</gom:speed></extensions></trkpt>
   <trkpt lat="59.0683511479" lon="30.0293220975"><ele>72.471</ele><time>2026-04-20T19:00:19.692Z</time><hdop>4.75</hdop><vdop>3.75</vdop><extensions><gom:speed>0.73</gom:speed></extensions></trkpt>
   <trkpt lat="59.0683622539" lon="30.0293149729"><ele>72.648</ele><time>2026-04-20T19:00:20.581Z</time><hdop>4.625</hdop><vdop>3.625</vdop><extensions><gom:speed>0.783</gom:speed></extensions></trkpt>
   <trkpt lat="59.0683689175" lon="30.0293110334"><ele>72.409</ele><time>2026-04-20T19:00:21.076Z</time><hdop>4.625</hdop><vdop>3.5</vdop><extensions><gom:speed>0.78</gom:speed></extensions></trkpt>
   <trkpt lat="59.068380736" lon="30.029305669"><ele>72.299</ele><time>2026-04-20T19:00:22.075Z</time><hdop>4.625</hdop><vdop>3.375</vdop><extensions><gom:speed>0.805</gom:speed></extensions></trkpt>
   <trkpt lat="59.0683917163" lon="30.0293004722"><ele>72.271</ele><time>2026-04-20T19:00:23.075Z</time><hdop>4.625</hdop><vdop>3.375</vdop><extensions><gom:speed>0.759</gom:speed></extensions></trkpt>
   <trkpt lat="59.068402026" lon="30.0292982929"><ele>72.651</ele><time>2026-04-20T19:00:24.075Z</time><hdop>4.625</hdop><vdop>3.125</vdop><extensions><gom:speed>0.734</gom:speed></extensions></trkpt>
   <trkpt lat="59.0684087316" lon="30.0292964489"><ele>72.878</ele><time>2026-04-20T19:00:24.879Z</time><hdop>4.625</hdop><vdop>3.125</vdop><extensions><gom:speed>0.74</gom:speed></extensions></trkpt>
   <trkpt lat="59.0684189575" lon="30.029292677"><ele>72.96</ele><time>2026-04-20T19:00:25.675Z</time><hdop>4.75</hdop><vdop>3.0</vdop><extensions><gom:speed>0.813</gom:speed></extensions></trkpt>
   <trkpt lat="59.0684304407" lon="30.0292889052"><ele>73.056</ele><time>2026-04-20T19:00:26.555Z</time><hdop>4.75</hdop><vdop>3.0</vdop><extensions><gom:speed>0.806</gom:speed></extensions></trkpt>
   <trkpt lat="59.0684375234" lon="30.0292869773"><ele>73.149</ele><time>2026-04-20T19:00:27.075Z</time><hdop>4.75</hdop><vdop>2.875</vdop><extensions><gom:speed>0.796</gom:speed></extensions></trkpt>
   <trkpt lat="59.0684490485" lon="30.029282954"><ele>73.334</ele><time>2026-04-20T19:00:28.075Z</time><hdop>4.75</hdop><vdop>3.0</vdop><extensions><gom:speed>0.802</gom:speed></extensions></trkpt>
   <trkpt lat="59.0684573466" lon="30.0292794336"><ele>73.444</ele><time>2026-04-20T19:00:28.913Z</time><hdop>4.75</hdop><vdop>3.0</vdop><extensions><gom:speed>0.826</gom:speed></extensions></trkpt>
   <trkpt lat="59.0684658542" lon="30.0292782601"><ele>73.603</ele><time>2026-04-20T19:00:29.653Z</time><hdop>4.875</hdop><vdop>8.75</vdop><extensions><gom:speed>0.852</gom:speed></extensions></trkpt>
   <trkpt lat="59.0684734399" lon="30.0292746559"><ele>73.855</ele><time>2026-04-20T19:00:30.512Z</time><hdop>4.875</hdop><vdop>9.0</vdop><extensions><gom:speed>0.855</gom:speed></extensions></trkpt>
   <trkpt lat="59.0684749486" lon="30.0292737339"><ele>74.006</ele><time>2026-04-20T19:00:30.983Z</time><hdop>4.875</hdop><vdop>9.0</vdop><extensions><gom:speed>0.854</gom:speed></extensions></trkpt>
   <trkpt lat="59.0684872281" lon="30.0292698782"><ele>74.314</ele><time>2026-04-20T19:00:31.973Z</time><hdop>5.0</hdop><vdop>9.25</vdop><extensions><gom:speed>0.881</gom:speed></extensions></trkpt>
   <trkpt lat="59.0684930535" lon="30.0292676151"><ele>74.47</ele><time>2026-04-20T19:00:32.694Z</time><hdop>5.125</hdop><vdop>9.5</vdop><extensions><gom:speed>0.878</gom:speed></extensions></trkpt>
   <trkpt lat="59.0685000524" lon="30.0292667769"><ele>74.572</ele><time>2026-04-20T19:00:33.553Z</time><hdop>5.375</hdop><vdop>9.625</vdop><extensions><gom:speed>0.859</gom:speed></extensions></trkpt>
   <trkpt lat="59.0685041176" lon="30.0292673637"><ele>74.613</ele><time>2026-04-20T19:00:34.075Z</time><hdop>5.5</hdop><vdop>10.0</vdop><extensions><gom:speed>0.859</gom:speed></extensions></trkpt>
   <trkpt lat="59.0685080571" lon="30.0292676989"><ele>74.638</ele><time>2026-04-20T19:00:34.642Z</time><hdop>5.5</hdop><vdop>10.0</vdop><extensions><gom:speed>0.811</gom:speed></extensions></trkpt>
   <trkpt lat="59.0685151398" lon="30.0292658549"><ele>74.766</ele><time>2026-04-20T19:00:35.655Z</time><hdop>5.875</hdop><vdop>10.25</vdop><extensions><gom:speed>0.769</gom:speed></extensions></trkpt>
   <trkpt lat="59.06852063" lon="30.029262586"><ele>74.789</ele><time>2026-04-20T19:00:36.514Z</time><hdop>6.125</hdop><vdop>10.375</vdop><extensions><gom:speed>0.74</gom:speed></extensions></trkpt>
   <trkpt lat="59.0685241504" lon="30.0292597361"><ele>74.849</ele><time>2026-04-20T19:00:37.025Z</time><hdop>6.25</hdop><vdop>10.875</vdop><extensions><gom:speed>0.739</gom:speed></extensions></trkpt>
   <trkpt lat="59.0685311493" lon="30.0292513542"><ele>74.974</ele><time>2026-04-20T19:00:37.973Z</time><hdop>6.5</hdop><vdop>10.625</vdop><extensions><gom:speed>0.624</gom:speed></extensions></trkpt>
   <trkpt lat="59.0685321551" lon="30.0292487558"><ele>75.075</ele><time>2026-04-20T19:00:39.075Z</time><hdop>6.75</hdop><vdop>10.125</vdop><extensions><gom:speed>0.527</gom:speed></extensions></trkpt>
   <trkpt lat="59.0685349211" lon="30.0292469118"><ele>75.136</ele><time>2026-04-20T19:00:40.021Z</time><hdop>7.0</hdop><vdop>10.125</vdop><extensions><gom:speed>0.582</gom:speed></extensions></trkpt>
   <trkpt lat="59.0685404532" lon="30.0292441458"><ele>75.2</ele><time>2026-04-20T19:00:40.779Z</time><hdop>7.125</hdop><vdop>9.875</vdop><extensions><gom:speed>0.688</gom:speed></extensions></trkpt>
   <trkpt lat="59.0685453566" lon="30.0292455707"><ele>75.299</ele><time>2026-04-20T19:00:41.561Z</time><hdop>7.375</hdop><vdop>9.375</vdop><extensions><gom:speed>0.725</gom:speed></extensions></trkpt>
   <trkpt lat="59.0685505534" lon="30.0292450678"><ele>75.326</ele><time>2026-04-20T19:00:42.299Z</time><hdop>7.625</hdop><vdop>8.625</vdop><extensions><gom:speed>0.728</gom:speed></extensions></trkpt>
   <trkpt lat="59.0685569236" lon="30.0292420503"><ele>75.412</ele><time>2026-04-20T19:00:43.067Z</time><hdop>7.625</hdop><vdop>8.125</vdop><extensions><gom:speed>0.793</gom:speed></extensions></trkpt>
   <trkpt lat="59.0685700413" lon="30.0292345904"><ele>75.463</ele><time>2026-04-20T19:00:43.860Z</time><hdop>7.875</hdop><vdop>8.125</vdop><extensions><gom:speed>0.88</gom:speed></extensions></trkpt>
   <trkpt lat="59.0685707538" lon="30.0292355963"><ele>75.575</ele><time>2026-04-20T19:00:44.619Z</time><hdop>8.0</hdop><vdop>7.625</vdop><extensions><gom:speed>0.926</gom:speed></extensions></trkpt>
   <trkpt lat="59.0685762439" lon="30.0292306509"><ele>75.771</ele><time>2026-04-20T19:00:45.419Z</time><hdop>8.125</hdop><vdop>7.25</vdop><extensions><gom:speed>0.963</gom:speed></extensions></trkpt>
   <trkpt lat="59.0685817341" lon="30.0292260409"><ele>75.888</ele><time>2026-04-20T19:00:46.082Z</time><hdop>8.25</hdop><vdop>7.25</vdop><extensions><gom:speed>0.962</gom:speed></extensions></trkpt>
   <trkpt lat="59.0685830332" lon="30.0292252865"><ele>76.073</ele><time>2026-04-20T19:00:46.781Z</time><hdop>8.25</hdop><vdop>7.125</vdop><extensions><gom:speed>0.948</gom:speed></extensions></trkpt>
   <trkpt lat="59.0685863441" lon="30.0292217661"><ele>76.315</ele><time>2026-04-20T19:00:47.581Z</time><hdop>8.25</hdop><vdop>7.0</vdop><extensions><gom:speed>0.951</gom:speed></extensions></trkpt>
   <trkpt lat="59.0685856316" lon="30.0292233587"><ele>76.53</ele><time>2026-04-20T19:00:48.075Z</time><hdop>8.25</hdop><vdop>7.125</vdop><extensions><gom:speed>0.935</gom:speed></extensions></trkpt>
   <trkpt lat="59.068590535" lon="30.0292202574"><ele>76.659</ele><time>2026-04-20T19:00:49.084Z</time><hdop>8.0</hdop><vdop>7.125</vdop><extensions><gom:speed>0.964</gom:speed></extensions></trkpt>
   <trkpt lat="59.0685974501" lon="30.029213468"><ele>80.015</ele><time>2026-04-20T19:00:49.582Z</time><hdop>7.875</hdop><vdop>5.625</vdop><extensions><gom:speed>0.982</gom:speed></extensions></trkpt>
   <trkpt lat="59.0686214224" lon="30.0291985482"><ele>83.716</ele><time>2026-04-20T19:00:50.075Z</time><hdop>7.625</hdop><vdop>4.75</vdop><extensions><gom:speed>0.986</gom:speed></extensions></trkpt>
   <trkpt lat="59.0686443469" lon="30.0292005599"><ele>87.484</ele><time>2026-04-20T19:00:51.075Z</time><hdop>7.25</hdop><vdop>3.5</vdop><extensions><gom:speed>0.969</gom:speed></extensions></trkpt>
   <trkpt lat="59.0686583446" lon="30.0292153959"><ele>90.889</ele><time>2026-04-20T19:00:52.075Z</time><hdop>6.75</hdop><vdop>3.125</vdop><extensions><gom:speed>0.926</gom:speed></extensions></trkpt>
   <trkpt lat="59.0686663494" lon="30.0292252865"><ele>93.037</ele><time>2026-04-20T19:00:53.075Z</time><hdop>6.25</hdop><vdop>2.875</vdop><extensions><gom:speed>0.809</gom:speed></extensions></trkpt>
   <trkpt lat="59.0686734321" lon="30.0292274658"><ele>94.521</ele><time>2026-04-20T19:00:54.076Z</time><hdop>5.625</hdop><vdop>2.875</vdop><extensions><gom:speed>0.603</gom:speed></extensions></trkpt>
   <trkpt lat="59.0686765334" lon="30.0292192515"><ele>96.095</ele><time>2026-04-20T19:00:55.075Z</time><hdop>4.875</hdop><vdop>2.75</vdop><extensions><gom:speed>0.209</gom:speed></extensions></trkpt>
   <trkpt lat="59.06867624" lon="30.0292150606"><ele>97.036</ele><time>2026-04-20T19:00:55.742Z</time><hdop>4.75</hdop><vdop>2.75</vdop><extensions><gom:speed>0.045</gom:speed></extensions></trkpt>
   <trkpt lat="59.0686809339" lon="30.029210702"><ele>98.723</ele><time>2026-04-20T19:00:57.076Z</time><hdop>4.375</hdop><vdop>2.75</vdop><extensions><gom:speed>0.096</gom:speed></extensions></trkpt>
   <trkpt lat="59.0686829455" lon="30.0292146415"><ele>99.989</ele><time>2026-04-20T19:00:58.075Z</time><hdop>4.375</hdop><vdop>2.625</vdop><extensions><gom:speed>0.064</gom:speed></extensions></trkpt>
   <trkpt lat="59.0686849572" lon="30.029218581"><ele>100.902</ele><time>2026-04-20T19:00:59.075Z</time><hdop>4.25</hdop><vdop>2.5</vdop><extensions><gom:speed>0.066</gom:speed></extensions></trkpt>
   <trkpt lat="59.0686876394" lon="30.0292249512"><ele>101.647</ele><time>2026-04-20T19:01:00.076Z</time><hdop>4.25</hdop><vdop>2.5</vdop><extensions><gom:speed>0.065</gom:speed></extensions></trkpt>
   <trkpt lat="59.0686897349" lon="30.0292326626"><ele>102.347</ele><time>2026-04-20T19:01:01.075Z</time><hdop>4.125</hdop><vdop>2.5</vdop><extensions><gom:speed>0.08</gom:speed></extensions></trkpt>
   <trkpt lat="59.0686900282" lon="30.0292336684"><ele>102.765</ele><time>2026-04-20T19:01:01.902Z</time><hdop>4.125</hdop><vdop>2.5</vdop><extensions><gom:speed>0.071</gom:speed></extensions></trkpt>
   <trkpt lat="59.0686933391" lon="30.029245906"><ele>103.142</ele><time>2026-04-20T19:01:03.075Z</time><hdop>3.875</hdop><vdop>2.5</vdop><extensions><gom:speed>0.07</gom:speed></extensions></trkpt>
   <trkpt lat="59.0686958537" lon="30.0292531983"><ele>103.769</ele><time>2026-04-20T19:01:04.075Z</time><hdop>3.875</hdop><vdop>2.5</vdop><extensions><gom:speed>0.06</gom:speed></extensions></trkpt>
   <trkpt lat="59.0686978234" lon="30.0292595685"><ele>104.382</ele><time>2026-04-20T19:01:05.075Z</time><hdop>3.75</hdop><vdop>2.5</vdop><extensions><gom:speed>0.094</gom:speed></extensions></trkpt>
   <trkpt lat="59.0686996255" lon="30.0292645138"><ele>104.95</ele><time>2026-04-20T19:01:06.075Z</time><hdop>3.5</hdop><vdop>2.5</vdop><extensions><gom:speed>0.067</gom:speed></extensions></trkpt>
   <trkpt lat="59.0687001284" lon="30.0292663578"><ele>105.577</ele><time>2026-04-20T19:01:06.996Z</time><hdop>3.5</hdop><vdop>2.875</vdop><extensions><gom:speed>0.065</gom:speed></extensions></trkpt>
   <trkpt lat="59.0687018467" lon="30.0292718061"><ele>105.82</ele><time>2026-04-20T19:01:08.075Z</time><hdop>3.375</hdop><vdop>3.125</vdop><extensions><gom:speed>0.101</gom:speed></extensions></trkpt>
   <trkpt lat="59.0687028526" lon="30.0292754103"><ele>105.633</ele><time>2026-04-20T19:01:09.075Z</time><hdop>3.375</hdop><vdop>3.0</vdop><extensions><gom:speed>0.288</gom:speed></extensions></trkpt>
   <trkpt lat="59.0687039422" lon="30.0292832893"><ele>105.395</ele><time>2026-04-20T19:01:10.075Z</time><hdop>3.375</hdop><vdop>3.0</vdop><extensions><gom:speed>0.389</gom:speed></extensions></trkpt>
   <trkpt lat="59.0687047385" lon="30.0292920903"><ele>105.392</ele><time>2026-04-20T19:01:11.075Z</time><hdop>3.5</hdop><vdop>3.125</vdop><extensions><gom:speed>0.417</gom:speed></extensions></trkpt>
   <trkpt lat="59.0687048223" lon="30.0293001369"><ele>105.507</ele><time>2026-04-20T19:01:12.075Z</time><hdop>3.5</hdop><vdop>2.75</vdop><extensions><gom:speed>0.317</gom:speed></extensions></trkpt>
   <trkpt lat="59.0687052414" lon="30.0293052499"><ele>105.799</ele><time>2026-04-20T19:01:13.075Z</time><hdop>3.625</hdop><vdop>3.0</vdop><extensions><gom:speed>0.352</gom:speed></extensions></trkpt>
   <trkpt lat="59.0687059539" lon="30.0293104467"><ele>106.055</ele><time>2026-04-20T19:01:14.075Z</time><hdop>3.625</hdop><vdop>2.75</vdop><extensions><gom:speed>0.353</gom:speed></extensions></trkpt>
   <trkpt lat="59.0687073369" lon="30.0293163978"><ele>106.349</ele><time>2026-04-20T19:01:15.075Z</time><hdop>3.75</hdop><vdop>2.875</vdop><extensions><gom:speed>0.373</gom:speed></extensions></trkpt>
   <trkpt lat="59.0687080493" lon="30.0293207564"><ele>106.652</ele><time>2026-04-20T19:01:16.075Z</time><hdop>3.875</hdop><vdop>2.875</vdop><extensions><gom:speed>0.491</gom:speed></extensions></trkpt>
   <trkpt lat="59.0687086361" lon="30.0293270428"><ele>106.815</ele><time>2026-04-20T19:01:17.075Z</time><hdop>3.875</hdop><vdop>2.625</vdop><extensions><gom:speed>0.365</gom:speed></extensions></trkpt>
   <trkpt lat="59.0687094323" lon="30.0293324072"><ele>106.945</ele><time>2026-04-20T19:01:18.075Z</time><hdop>4.0</hdop><vdop>8.5</vdop><extensions><gom:speed>0.384</gom:speed></extensions></trkpt>
   <trkpt lat="59.0687106477" lon="30.0293378555"><ele>106.968</ele><time>2026-04-20T19:01:19.075Z</time><hdop>4.25</hdop><vdop>8.125</vdop><extensions><gom:speed>0.407</gom:speed></extensions></trkpt>
   <trkpt lat="59.0687118212" lon="30.0293433037"><ele>106.904</ele><time>2026-04-20T19:01:20.076Z</time><hdop>4.5</hdop><vdop>7.875</vdop><extensions><gom:speed>0.403</gom:speed></extensions></trkpt>
   <trkpt lat="59.0687136233" lon="30.029349171"><ele>106.874</ele><time>2026-04-20T19:01:21.076Z</time><hdop>4.875</hdop><vdop>7.5</vdop><extensions><gom:speed>0.395</gom:speed></extensions></trkpt>
   <trkpt lat="59.068715132" lon="30.0293522724"><ele>106.918</ele><time>2026-04-20T19:01:22.076Z</time><hdop>5.125</hdop><vdop>7.375</vdop><extensions><gom:speed>0.385</gom:speed></extensions></trkpt>
   <trkpt lat="59.0687168503" lon="30.0293550384"><ele>106.889</ele><time>2026-04-20T19:01:23.075Z</time><hdop>5.375</hdop><vdop>7.25</vdop><extensions><gom:speed>0.381</gom:speed></extensions></trkpt>
   <trkpt lat="59.0687184429" lon="30.0293578044"><ele>106.721</ele><time>2026-04-20T19:01:24.075Z</time><hdop>5.5</hdop><vdop>7.125</vdop><extensions><gom:speed>0.379</gom:speed></extensions></trkpt>
   <trkpt lat="59.0687197421" lon="30.0293600675"><ele>106.612</ele><time>2026-04-20T19:01:25.076Z</time><hdop>5.75</hdop><vdop>7.125</vdop><extensions><gom:speed>0.379</gom:speed></extensions></trkpt>
   <trkpt lat="59.0687210413" lon="30.029362163"><ele>106.511</ele><time>2026-04-20T19:01:26.075Z</time><hdop>5.875</hdop><vdop>7.125</vdop><extensions><gom:speed>0.376</gom:speed></extensions></trkpt>
   <trkpt lat="59.0687214185" lon="30.029362163"><ele>106.451</ele><time>2026-04-20T19:01:26.661Z</time><hdop>6.0</hdop><vdop>7.125</vdop><extensions><gom:speed>0.371</gom:speed></extensions></trkpt>
   <trkpt lat="59.0687256513" lon="30.0293609895"><ele>106.341</ele><time>2026-04-20T19:01:28.075Z</time><hdop>6.25</hdop><vdop>7.0</vdop><extensions><gom:speed>0.398</gom:speed></extensions></trkpt>
   <trkpt lat="59.0687284174" lon="30.0293583911"><ele>106.203</ele><time>2026-04-20T19:01:29.075Z</time><hdop>6.25</hdop><vdop>6.75</vdop><extensions><gom:speed>0.443</gom:speed></extensions></trkpt>
   <trkpt lat="59.0687312253" lon="30.0293547869"><ele>106.009</ele><time>2026-04-20T19:01:30.075Z</time><hdop>6.375</hdop><vdop>6.5</vdop><extensions><gom:speed>0.462</gom:speed></extensions></trkpt>
   <trkpt lat="59.0687333208" lon="30.0293490872"><ele>105.827</ele><time>2026-04-20T19:01:31.076Z</time><hdop>6.375</hdop><vdop>6.5</vdop><extensions><gom:speed>0.473</gom:speed></extensions></trkpt>
   <trkpt lat="59.0687344523" lon="30.0293422141"><ele>105.693</ele><time>2026-04-20T19:01:32.075Z</time><hdop>6.375</hdop><vdop>6.375</vdop><extensions><gom:speed>0.512</gom:speed></extensions></trkpt>
   <trkpt lat="59.0687351229" lon="30.0293371849"><ele>105.612</ele><time>2026-04-20T19:01:32.816Z</time><hdop>6.375</hdop><vdop>6.375</vdop><extensions><gom:speed>0.524</gom:speed></extensions></trkpt>
   <trkpt lat="59.0687358353" lon="30.0293303118"><ele>105.536</ele><time>2026-04-20T19:01:33.613Z</time><hdop>6.5</hdop><vdop>6.125</vdop><extensions><gom:speed>0.556</gom:speed></extensions></trkpt>
   <trkpt lat="59.0687362544" lon="30.0293283001"><ele>105.439</ele><time>2026-04-20T19:01:34.075Z</time><hdop>6.5</hdop><vdop>6.625</vdop><extensions><gom:speed>0.562</gom:speed></extensions></trkpt>
   <trkpt lat="59.0687373441" lon="30.0293231871"><ele>105.353</ele><time>2026-04-20T19:01:35.075Z</time><hdop>6.5</hdop><vdop>6.75</vdop><extensions><gom:speed>0.555</gom:speed></extensions></trkpt>
   <trkpt lat="59.0687386433" lon="30.0293187447"><ele>105.277</ele><time>2026-04-20T19:01:36.076Z</time><hdop>6.625</hdop><vdop>6.875</vdop><extensions><gom:speed>0.56</gom:speed></extensions></trkpt>
   <trkpt lat="59.0687385176" lon="30.0293201697"><ele>105.219</ele><time>2026-04-20T19:01:36.968Z</time><hdop>6.75</hdop><vdop>7.0</vdop><extensions><gom:speed>0.423</gom:speed></extensions></trkpt>
   <trkpt lat="59.0687394396" lon="30.029320002"><ele>105.185</ele><time>2026-04-20T19:01:37.904Z</time><hdop>6.875</hdop><vdop>7.0</vdop><extensions><gom:speed>0.476</gom:speed></extensions></trkpt>
   <trkpt lat="59.0687427504" lon="30.0293167331"><ele>105.162</ele><time>2026-04-20T19:01:38.698Z</time><hdop>7.125</hdop><vdop>7.25</vdop><extensions><gom:speed>0.559</gom:speed></extensions></trkpt>
   <trkpt lat="59.0687487435" lon="30.0293154758"><ele>105.159</ele><time>2026-04-20T19:01:39.656Z</time><hdop>7.25</hdop><vdop>7.125</vdop><extensions><gom:speed>0.494</gom:speed></extensions></trkpt>
   <trkpt lat="59.0687519286" lon="30.0293158111"><ele>105.186</ele><time>2026-04-20T19:01:40.634Z</time><hdop>7.375</hdop><vdop>6.875</vdop><extensions><gom:speed>0.479</gom:speed></extensions></trkpt>
   <trkpt lat="59.0687557424" lon="30.0293137156"><ele>105.198</ele><time>2026-04-20T19:01:41.452Z</time><hdop>7.5</hdop><vdop>6.75</vdop><extensions><gom:speed>0.535</gom:speed></extensions></trkpt>
   <trkpt lat="59.0687588437" lon="30.0293113687"><ele>105.2</ele><time>2026-04-20T19:01:42.063Z</time><hdop>7.5</hdop><vdop>6.5</vdop><extensions><gom:speed>0.56</gom:speed></extensions></trkpt>
   <trkpt lat="59.0687653396" lon="30.0293068424"><ele>103.453</ele><time>2026-04-20T19:01:43.075Z</time><hdop>7.625</hdop><vdop>5.5</vdop><extensions><gom:speed>0.528</gom:speed></extensions></trkpt>
   <trkpt lat="59.0687705364" lon="30.0293010589"><ele>102.41</ele><time>2026-04-20T19:01:44.079Z</time><hdop>7.5</hdop><vdop>5.5</vdop><extensions><gom:speed>0.503</gom:speed></extensions></trkpt>
   <trkpt lat="59.0687788345" lon="30.029288067"><ele>101.983</ele><time>2026-04-20T19:01:44.838Z</time><hdop>7.5</hdop><vdop>4.875</vdop><extensions><gom:speed>0.583</gom:speed></extensions></trkpt>
   <trkpt lat="59.0687914493" lon="30.0292640109"><ele>101.075</ele><time>2026-04-20T19:01:45.539Z</time><hdop>7.0</hdop><vdop>4.625</vdop><extensions><gom:speed>0.676</gom:speed></extensions></trkpt>
   <trkpt lat="59.068796227" lon="30.0292534497"><ele>99.635</ele><time>2026-04-20T19:01:46.075Z</time><hdop>6.75</hdop><vdop>4.5</vdop><extensions><gom:speed>0.688</gom:speed></extensions></trkpt>
   <trkpt lat="59.0688007532" lon="30.0292395358"><ele>98.775</ele><time>2026-04-20T19:01:47.081Z</time><hdop>6.125</hdop><vdop>4.5</vdop><extensions><gom:speed>0.729</gom:speed></extensions></trkpt>
   <trkpt lat="59.0688097218" lon="30.0292226881"><ele>98.374</ele><time>2026-04-20T19:01:47.859Z</time><hdop>5.875</hdop><vdop>4.375</vdop><extensions><gom:speed>0.82</gom:speed></extensions></trkpt>
   <trkpt lat="59.0688226299" lon="30.0292030745"><ele>97.462</ele><time>2026-04-20T19:01:48.542Z</time><hdop>5.625</hdop><vdop>4.375</vdop><extensions><gom:speed>0.896</gom:speed></extensions></trkpt>
   <trkpt lat="59.0688333169" lon="30.0291871489"><ele>96.512</ele><time>2026-04-20T19:01:49.075Z</time><hdop>5.75</hdop><vdop>4.125</vdop><extensions><gom:speed>0.911</gom:speed></extensions></trkpt>
   <trkpt lat="59.0688524276" lon="30.029161165"><ele>95.659</ele><time>2026-04-20T19:01:50.076Z</time><hdop>5.5</hdop><vdop>4.0</vdop><extensions><gom:speed>0.866</gom:speed></extensions></trkpt>
   <trkpt lat="59.0688632403" lon="30.029148173"><ele>95.15</ele><time>2026-04-20T19:01:50.941Z</time><hdop>5.75</hdop><vdop>4.0</vdop><extensions><gom:speed>0.879</gom:speed></extensions></trkpt>
   <trkpt lat="59.0688836502" lon="30.0291232788"><ele>94.767</ele><time>2026-04-20T19:01:51.778Z</time><hdop>5.875</hdop><vdop>4.125</vdop><extensions><gom:speed>0.906</gom:speed></extensions></trkpt>
   <trkpt lat="59.0688979413" lon="30.0291073531"><ele>94.517</ele><time>2026-04-20T19:01:52.579Z</time><hdop>5.75</hdop><vdop>3.75</vdop><extensions><gom:speed>0.874</gom:speed></extensions></trkpt>
   <trkpt lat="59.0689067423" lon="30.0290972949"><ele>94.02</ele><time>2026-04-20T19:01:53.075Z</time><hdop>5.75</hdop><vdop>3.375</vdop><extensions><gom:speed>0.846</gom:speed></extensions></trkpt>
   <trkpt lat="59.0689194409" lon="30.0290827942"><ele>93.55</ele><time>2026-04-20T19:01:54.075Z</time><hdop>5.5</hdop><vdop>3.375</vdop><extensions><gom:speed>0.867</gom:speed></extensions></trkpt>
   <trkpt lat="59.0689275295" lon="30.029073155"><ele>93.27</ele><time>2026-04-20T19:01:54.858Z</time><hdop>5.25</hdop><vdop>3.375</vdop><extensions><gom:speed>0.917</gom:speed></extensions></trkpt>
   <trkpt lat="59.0689352408" lon="30.0290648569"><ele>93.017</ele><time>2026-04-20T19:01:55.579Z</time><hdop>4.875</hdop><vdop>3.375</vdop><extensions><gom:speed>0.918</gom:speed></extensions></trkpt>
   <trkpt lat="59.0689399347" lon="30.029059241"><ele>92.898</ele><time>2026-04-20T19:01:56.075Z</time><hdop>4.625</hdop><vdop>9.75</vdop><extensions><gom:speed>0.92</gom:speed></extensions></trkpt>
   <trkpt lat="59.0689472269" lon="30.029048596"><ele>92.866</ele><time>2026-04-20T19:01:56.989Z</time><hdop>4.375</hdop><vdop>9.75</vdop><extensions><gom:speed>0.925</gom:speed></extensions></trkpt>
   <trkpt lat="59.0689489452" lon="30.0290461652"><ele>92.846</ele><time>2026-04-20T19:01:57.462Z</time><hdop>4.375</hdop><vdop>9.75</vdop><extensions><gom:speed>0.918</gom:speed></extensions></trkpt>
   <trkpt lat="59.0689553574" lon="30.0290366099"><ele>92.834</ele><time>2026-04-20T19:01:57.919Z</time><hdop>4.25</hdop><vdop>9.75</vdop><extensions><gom:speed>0.909</gom:speed></extensions></trkpt>
   <trkpt lat="59.0689605542" lon="30.0290294853"><ele>92.807</ele><time>2026-04-20T19:01:58.759Z</time><hdop>4.25</hdop><vdop>9.125</vdop><extensions><gom:speed>0.892</gom:speed></extensions></trkpt>
   <trkpt lat="59.0689660443" lon="30.0290209357"><ele>92.763</ele><time>2026-04-20T19:01:59.577Z</time><hdop>4.375</hdop><vdop>8.375</vdop><extensions><gom:speed>0.851</gom:speed></extensions></trkpt>
   <trkpt lat="59.0689718278" lon="30.0290118833"><ele>92.684</ele><time>2026-04-20T19:02:00.421Z</time><hdop>4.5</hdop><vdop>8.0</vdop><extensions><gom:speed>0.826</gom:speed></extensions></trkpt>
   <trkpt lat="59.0689750549" lon="30.029008279"><ele>92.6</ele><time>2026-04-20T19:02:01.075Z</time><hdop>4.625</hdop><vdop>8.0</vdop><extensions><gom:speed>0.803</gom:speed></extensions></trkpt>
   <trkpt lat="59.0689802516" lon="30.0289998971"><ele>92.55</ele><time>2026-04-20T19:02:01.976Z</time><hdop>4.75</hdop><vdop>8.0</vdop><extensions><gom:speed>0.815</gom:speed></extensions></trkpt>
   <trkpt lat="59.0689851551" lon="30.0289910123"><ele>92.498</ele><time>2026-04-20T19:02:02.736Z</time><hdop>4.875</hdop><vdop>8.0</vdop><extensions><gom:speed>0.808</gom:speed></extensions></trkpt>
   <trkpt lat="59.068991651" lon="30.028983301"><ele>92.495</ele><time>2026-04-20T19:02:03.595Z</time><hdop>5.125</hdop><vdop>8.0</vdop><extensions><gom:speed>0.826</gom:speed></extensions></trkpt>
   <trkpt lat="59.0689957162" lon="30.0289834686"><ele>92.422</ele><time>2026-04-20T19:02:04.076Z</time><hdop>5.25</hdop><vdop>8.0</vdop><extensions><gom:speed>0.817</gom:speed></extensions></trkpt>
   <trkpt lat="59.069000452" lon="30.0289817922"><ele>92.24</ele><time>2026-04-20T19:02:05.044Z</time><hdop>5.375</hdop><vdop>8.25</vdop><extensions><gom:speed>0.811</gom:speed></extensions></trkpt>
   <trkpt lat="59.0690076186" lon="30.0289755896"><ele>92.131</ele><time>2026-04-20T19:02:06.053Z</time><hdop>5.5</hdop><vdop>8.25</vdop><extensions><gom:speed>0.83</gom:speed></extensions></trkpt>
   <trkpt lat="59.0690133182" lon="30.0289688841"><ele>91.986</ele><time>2026-04-20T19:02:06.794Z</time><hdop>5.625</hdop><vdop>8.5</vdop><extensions><gom:speed>0.856</gom:speed></extensions></trkpt>
   <trkpt lat="59.0690170482" lon="30.0289698061"><ele>91.989</ele><time>2026-04-20T19:02:07.593Z</time><hdop>5.75</hdop><vdop>8.375</vdop><extensions><gom:speed>0.84</gom:speed></extensions></trkpt>
   <trkpt lat="59.0690233346" lon="30.0289677106"><ele>92.095</ele><time>2026-04-20T19:02:08.410Z</time><hdop>6.0</hdop><vdop>8.125</vdop><extensions><gom:speed>0.805</gom:speed></extensions></trkpt>
   <trkpt lat="59.0690280285" lon="30.0289653637"><ele>92.218</ele><time>2026-04-20T19:02:08.953Z</time><hdop>6.125</hdop><vdop>7.75</vdop><extensions><gom:speed>0.8</gom:speed></extensions></trkpt>
   <trkpt lat="59.0690305431" lon="30.0289643579"><ele>92.291</ele><time>2026-04-20T19:02:09.782Z</time><hdop>6.375</hdop><vdop>7.75</vdop><extensions><gom:speed>0.812</gom:speed></extensions></trkpt>
   <trkpt lat="59.0690359494" lon="30.0289648608"><ele>92.381</ele><time>2026-04-20T19:02:10.772Z</time><hdop>6.75</hdop><vdop>7.5</vdop><extensions><gom:speed>0.842</gom:speed></extensions></trkpt>
   <trkpt lat="59.0690394279" lon="30.0289648608"><ele>92.45</ele><time>2026-04-20T19:02:11.581Z</time><hdop>6.875</hdop><vdop>7.125</vdop><extensions><gom:speed>0.855</gom:speed></extensions></trkpt>
   <trkpt lat="59.0690426549" lon="30.0289631006"><ele>92.541</ele><time>2026-04-20T19:02:12.033Z</time><hdop>7.0</hdop><vdop>6.875</vdop><extensions><gom:speed>0.853</gom:speed></extensions></trkpt>
   <trkpt lat="59.0690504501" lon="30.0289586582"><ele>92.595</ele><time>2026-04-20T19:02:13.093Z</time><hdop>7.375</hdop><vdop>6.875</vdop><extensions><gom:speed>0.86</gom:speed></extensions></trkpt>
   <trkpt lat="59.0690569461" lon="30.0289539643"><ele>92.67</ele><time>2026-04-20T19:02:13.852Z</time><hdop>7.5</hdop><vdop>6.75</vdop><extensions><gom:speed>0.885</gom:speed></extensions></trkpt>
   <trkpt lat="59.0690638192" lon="30.0289477617"><ele>92.756</ele><time>2026-04-20T19:02:14.661Z</time><hdop>7.625</hdop><vdop>6.75</vdop><extensions><gom:speed>0.848</gom:speed></extensions></trkpt>
   <trkpt lat="59.0690705247" lon="30.0289429002"><ele>92.841</ele><time>2026-04-20T19:02:15.441Z</time><hdop>7.875</hdop><vdop>6.625</vdop><extensions><gom:speed>0.846</gom:speed></extensions></trkpt>
   <trkpt lat="59.0690720335" lon="30.028942062"><ele>92.891</ele><time>2026-04-20T19:02:15.942Z</time><hdop>8.0</hdop><vdop>6.625</vdop><extensions><gom:speed>0.848</gom:speed></extensions></trkpt>
   <trkpt lat="59.0690674234" lon="30.0289501086"><ele>92.917</ele><time>2026-04-20T19:02:17.009Z</time><hdop>8.125</hdop><vdop>6.5</vdop><extensions><gom:speed>0.818</gom:speed></extensions></trkpt>
   <trkpt lat="59.0690718239" lon="30.0289472588"><ele>92.932</ele><time>2026-04-20T19:02:17.939Z</time><hdop>8.125</hdop><vdop>6.5</vdop><extensions><gom:speed>0.842</gom:speed></extensions></trkpt>
   <trkpt lat="59.0690774398" lon="30.0289436546"><ele>92.945</ele><time>2026-04-20T19:02:18.780Z</time><hdop>8.25</hdop><vdop>6.625</vdop><extensions><gom:speed>0.838</gom:speed></extensions></trkpt>
   <trkpt lat="59.0690843549" lon="30.028939296"><ele>92.952</ele><time>2026-04-20T19:02:19.679Z</time><hdop>8.375</hdop><vdop>6.5</vdop><extensions><gom:speed>0.842</gom:speed></extensions></trkpt>
   <trkpt lat="59.0690911442" lon="30.0289353565"><ele>92.953</ele><time>2026-04-20T19:02:20.576Z</time><hdop>8.375</hdop><vdop>6.5</vdop><extensions><gom:speed>0.79</gom:speed></extensions></trkpt>
   <trkpt lat="59.0690947484" lon="30.0289338477"><ele>92.957</ele><time>2026-04-20T19:02:21.036Z</time><hdop>8.5</hdop><vdop>6.125</vdop><extensions><gom:speed>0.789</gom:speed></extensions></trkpt>
   <trkpt lat="59.0691018311" lon="30.0289317523"><ele>92.954</ele><time>2026-04-20T19:02:21.984Z</time><hdop>8.75</hdop><vdop>6.25</vdop><extensions><gom:speed>0.772</gom:speed></extensions></trkpt>
   <trkpt lat="59.0691128533" lon="30.0289278966"><ele>92.953</ele><time>2026-04-20T19:02:22.974Z</time><hdop>9.125</hdop><vdop>6.25</vdop><extensions><gom:speed>0.769</gom:speed></extensions></trkpt>
   <trkpt lat="59.0691160385" lon="30.0289234542"><ele>92.949</ele><time>2026-04-20T19:02:23.736Z</time><hdop>9.375</hdop><vdop>6.75</vdop><extensions><gom:speed>0.792</gom:speed></extensions></trkpt>
   <trkpt lat="59.0691211514" lon="30.0289171678"><ele>92.946</ele><time>2026-04-20T19:02:24.514Z</time><hdop>9.625</hdop><vdop>6.875</vdop><extensions><gom:speed>0.829</gom:speed></extensions></trkpt>
   <trkpt lat="59.0691142364" lon="30.028922616"><ele>91.535</ele><time>2026-04-20T19:02:25.075Z</time><hdop>9.625</hdop><vdop>5.625</vdop><extensions><gom:speed>0.8</gom:speed></extensions></trkpt>
   <trkpt lat="59.0691073213" lon="30.028935105"><ele>91.026</ele><time>2026-04-20T19:02:26.075Z</time><hdop>9.75</hdop><vdop>4.75</vdop><extensions><gom:speed>0.797</gom:speed></extensions></trkpt>
   <trkpt lat="59.0691070279" lon="30.0289406371"><ele>90.721</ele><time>2026-04-20T19:02:26.953Z</time><hdop>9.625</hdop><vdop>4.75</vdop><extensions><gom:speed>0.831</gom:speed></extensions></trkpt>
   <trkpt lat="59.0691098359" lon="30.0289534614"><ele>90.755</ele><time>2026-04-20T19:02:27.783Z</time><hdop>9.625</hdop><vdop>4.25</vdop><extensions><gom:speed>0.837</gom:speed></extensions></trkpt>
   <trkpt lat="59.0691141525" lon="30.0289732427"><ele>90.755</ele><time>2026-04-20T19:02:28.382Z</time><hdop>9.375</hdop><vdop>3.875</vdop><extensions><gom:speed>0.835</gom:speed></extensions></trkpt>
   <trkpt lat="59.0691270188" lon="30.0289954547"><ele>91.172</ele><time>2026-04-20T19:02:29.076Z</time><hdop>9.0</hdop><vdop>3.75</vdop><extensions><gom:speed>0.849</gom:speed></extensions></trkpt>
   <trkpt lat="59.0691405555" lon="30.0290147331"><ele>92.121</ele><time>2026-04-20T19:02:30.075Z</time><hdop>8.375</hdop><vdop>3.375</vdop><extensions><gom:speed>0.946</gom:speed></extensions></trkpt>
   <trkpt lat="59.06915053" lon="30.0290186726"><ele>92.688</ele><time>2026-04-20T19:02:31.022Z</time><hdop>7.875</hdop><vdop>3.375</vdop><extensions><gom:speed>0.877</gom:speed></extensions></trkpt>
   <trkpt lat="59.0691691378" lon="30.0290221092"><ele>93.779</ele><time>2026-04-20T19:02:32.075Z</time><hdop>7.0</hdop><vdop>3.25</vdop><extensions><gom:speed>0.857</gom:speed></extensions></trkpt>
   <trkpt lat="59.0691837223" lon="30.0290288985"><ele>94.678</ele><time>2026-04-20T19:02:33.075Z</time><hdop>6.25</hdop><vdop>3.375</vdop><extensions><gom:speed>0.935</gom:speed></extensions></trkpt>
   <trkpt lat="59.0691983488" lon="30.029035185"><ele>94.762</ele><time>2026-04-20T19:02:34.075Z</time><hdop>5.625</hdop><vdop>3.625</vdop><extensions><gom:speed>0.971</gom:speed></extensions></trkpt>
   <trkpt lat="59.0692106282" lon="30.0290352688"><ele>94.813</ele><time>2026-04-20T19:02:35.079Z</time><hdop>5.25</hdop><vdop>3.625</vdop><extensions><gom:speed>0.988</gom:speed></extensions></trkpt>
   <trkpt lat="59.0692247518" lon="30.0290326704"><ele>94.659</ele><time>2026-04-20T19:02:35.901Z</time><hdop>5.125</hdop><vdop>3.875</vdop><extensions><gom:speed>0.962</gom:speed></extensions></trkpt>
   <trkpt lat="59.0692333432" lon="30.0290304073"><ele>94.451</ele><time>2026-04-20T19:02:36.696Z</time><hdop>5.0</hdop><vdop>4.125</vdop><extensions><gom:speed>0.927</gom:speed></extensions></trkpt>
   <trkpt lat="59.0692426471" lon="30.029026384"><ele>93.98</ele><time>2026-04-20T19:02:37.516Z</time><hdop>5.125</hdop><vdop>4.125</vdop><extensions><gom:speed>0.877</gom:speed></extensions></trkpt>
   <trkpt lat="59.069248724" lon="30.029023115"><ele>93.083</ele><time>2026-04-20T19:02:38.076Z</time><hdop>5.125</hdop><vdop>4.25</vdop><extensions><gom:speed>0.884</gom:speed></extensions></trkpt>
   <trkpt lat="59.0692586566" lon="30.0290169962"><ele>92.554</ele><time>2026-04-20T19:02:39.075Z</time><hdop>5.125</hdop><vdop>4.25</vdop><extensions><gom:speed>0.855</gom:speed></extensions></trkpt>
   <trkpt lat="59.0692664517" lon="30.0290121347"><ele>92.238</ele><time>2026-04-20T19:02:39.973Z</time><hdop>5.125</hdop><vdop>4.25</vdop><extensions><gom:speed>0.856</gom:speed></extensions></trkpt>
   <trkpt lat="59.0692742469" lon="30.029006435"><ele>92.418</ele><time>2026-04-20T19:02:40.793Z</time><hdop>5.125</hdop><vdop>4.125</vdop><extensions><gom:speed>0.843</gom:speed></extensions></trkpt>
   <trkpt lat="59.069278354" lon="30.0290040043"><ele>92.39</ele><time>2026-04-20T19:02:41.412Z</time><hdop>5.125</hdop><vdop>4.0</vdop><extensions><gom:speed>0.778</gom:speed></extensions></trkpt>
   <trkpt lat="59.0692873227" lon="30.0289993942"><ele>92.604</ele><time>2026-04-20T19:02:42.075Z</time><hdop>5.125</hdop><vdop>3.875</vdop><extensions><gom:speed>0.719</gom:speed></extensions></trkpt>
   <trkpt lat="59.069293651" lon="30.0289986399"><ele>92.711</ele><time>2026-04-20T19:02:43.075Z</time><hdop>5.125</hdop><vdop>3.625</vdop><extensions><gom:speed>0.675</gom:speed></extensions></trkpt>
   <trkpt lat="59.0692963332" lon="30.0289984722"><ele>92.776</ele><time>2026-04-20T19:02:43.581Z</time><hdop>5.25</hdop><vdop>3.625</vdop><extensions><gom:speed>0.605</gom:speed></extensions></trkpt>
   <trkpt lat="59.0693000212" lon="30.0289975502"><ele>92.384</ele><time>2026-04-20T19:02:44.076Z</time><hdop>5.125</hdop><vdop>3.5</vdop><extensions><gom:speed>0.612</gom:speed></extensions></trkpt>
   <trkpt lat="59.0693060562" lon="30.0289936107"><ele>91.762</ele><time>2026-04-20T19:02:45.075Z</time><hdop>5.125</hdop><vdop>3.75</vdop><extensions><gom:speed>0.548</gom:speed></extensions></trkpt>
   <trkpt lat="59.0693121331" lon="30.0289901741"><ele>91.134</ele><time>2026-04-20T19:02:46.075Z</time><hdop>5.125</hdop><vdop>3.75</vdop><extensions><gom:speed>0.504</gom:speed></extensions></trkpt>
   <trkpt lat="59.0693181262" lon="30.0289884139"><ele>90.758</ele><time>2026-04-20T19:02:46.973Z</time><hdop>5.125</hdop><vdop>3.75</vdop><extensions><gom:speed>0.595</gom:speed></extensions></trkpt>
   <trkpt lat="59.0693219399" lon="30.0289871566"><ele>90.537</ele><time>2026-04-20T19:02:47.573Z</time><hdop>5.0</hdop><vdop>3.875</vdop><extensions><gom:speed>0.662</gom:speed></extensions></trkpt>
   <trkpt lat="59.0693308247" lon="30.0289835524"><ele>90.392</ele><time>2026-04-20T19:02:48.076Z</time><hdop>5.0</hdop><vdop>3.75</vdop><extensions><gom:speed>0.719</gom:speed></extensions></trkpt>
   <trkpt lat="59.0693349319" lon="30.0289827142"><ele>90.306</ele><time>2026-04-20T19:02:48.622Z</time><hdop>5.0</hdop><vdop>3.75</vdop><extensions><gom:speed>0.745</gom:speed></extensions></trkpt>
   <trkpt lat="59.0693399191" lon="30.0289824628"><ele>89.989</ele><time>2026-04-20T19:02:49.075Z</time><hdop>5.0</hdop><vdop>3.875</vdop><extensions><gom:speed>0.79</gom:speed></extensions></trkpt>
   <trkpt lat="59.0693499355" lon="30.0289820437"><ele>90.068</ele><time>2026-04-20T19:02:50.075Z</time><hdop>4.875</hdop><vdop>4.0</vdop><extensions><gom:speed>0.778</gom:speed></extensions></trkpt>
   <trkpt lat="59.0693588203" lon="30.0289807026"><ele>90.116</ele><time>2026-04-20T19:02:51.040Z</time><hdop>4.875</hdop><vdop>4.0</vdop><extensions><gom:speed>0.81</gom:speed></extensions></trkpt>
   <trkpt lat="59.06936913" lon="30.0289791938"><ele>90.215</ele><time>2026-04-20T19:02:51.919Z</time><hdop>4.875</hdop><vdop>4.125</vdop><extensions><gom:speed>0.854</gom:speed></extensions></trkpt>
   <trkpt lat="59.0693797331" lon="30.0289777689"><ele>90.103</ele><time>2026-04-20T19:02:52.661Z</time><hdop>4.875</hdop><vdop>4.0</vdop><extensions><gom:speed>0.889</gom:speed></extensions></trkpt>
   <trkpt lat="59.0693901267" lon="30.0289747514"><ele>89.835</ele><time>2026-04-20T19:02:53.419Z</time><hdop>4.75</hdop><vdop>3.875</vdop><extensions><gom:speed>0.864</gom:speed></extensions></trkpt>
   <trkpt lat="59.0694003526" lon="30.0289701414"><ele>89.654</ele><time>2026-04-20T19:02:54.075Z</time><hdop>4.75</hdop><vdop>3.875</vdop><extensions><gom:speed>0.866</gom:speed></extensions></trkpt>
   <trkpt lat="59.0694090279" lon="30.0289664533"><ele>89.578</ele><time>2026-04-20T19:02:55.075Z</time><hdop>4.75</hdop><vdop>4.125</vdop><extensions><gom:speed>0.856</gom:speed></extensions></trkpt>
   <trkpt lat="59.0694168231" lon="30.028964777"><ele>89.533</ele><time>2026-04-20T19:02:55.917Z</time><hdop>4.75</hdop><vdop>4.125</vdop><extensions><gom:speed>0.859</gom:speed></extensions></trkpt>
   <trkpt lat="59.0694255402" lon="30.0289646093"><ele>89.406</ele><time>2026-04-20T19:02:56.796Z</time><hdop>4.625</hdop><vdop>4.125</vdop><extensions><gom:speed>0.809</gom:speed></extensions></trkpt>
   <trkpt lat="59.0694341317" lon="30.0289636035"><ele>89.254</ele><time>2026-04-20T19:02:57.694Z</time><hdop>4.5</hdop><vdop>3.875</vdop><extensions><gom:speed>0.765</gom:speed></extensions></trkpt>
   <trkpt lat="59.0694413401" lon="30.0289605022"><ele>89.053</ele><time>2026-04-20T19:02:58.494Z</time><hdop>4.5</hdop><vdop>3.875</vdop><extensions><gom:speed>0.754</gom:speed></extensions></trkpt>
   <trkpt lat="59.0694466207" lon="30.028958742"><ele>88.858</ele><time>2026-04-20T19:02:59.075Z</time><hdop>4.375</hdop><vdop>3.75</vdop><extensions><gom:speed>0.763</gom:speed></extensions></trkpt>
   <trkpt lat="59.0694508536" lon="30.0289566465"><ele>88.742</ele><time>2026-04-20T19:03:00.011Z</time><hdop>4.375</hdop><vdop>3.75</vdop><extensions><gom:speed>0.726</gom:speed></extensions></trkpt>
   <trkpt lat="59.0694631331" lon="30.0289563112"><ele>89.187</ele><time>2026-04-20T19:03:01.077Z</time><hdop>4.5</hdop><vdop>3.25</vdop><extensions><gom:speed>0.712</gom:speed></extensions></trkpt>
   <trkpt lat="59.069471054" lon="30.028955054"><ele>89.453</ele><time>2026-04-20T19:03:01.880Z</time><hdop>4.5</hdop><vdop>3.25</vdop><extensions><gom:speed>0.791</gom:speed></extensions></trkpt>
   <trkpt lat="59.0694799388" lon="30.0289542996"><ele>89.883</ele><time>2026-04-20T19:03:02.740Z</time><hdop>4.5</hdop><vdop>3.375</vdop><extensions><gom:speed>0.795</gom:speed></extensions></trkpt>
   <trkpt lat="59.0694888236" lon="30.0289518688"><ele>90.181</ele><time>2026-04-20T19:03:03.578Z</time><hdop>4.625</hdop><vdop>3.375</vdop><extensions><gom:speed>0.829</gom:speed></extensions></trkpt>
   <trkpt lat="59.0694938528" lon="30.028950863"><ele>90.57</ele><time>2026-04-20T19:03:04.075Z</time><hdop>4.5</hdop><vdop>3.25</vdop><extensions><gom:speed>0.83</gom:speed></extensions></trkpt>
   <trkpt lat="59.0695038272" lon="30.0289491866"><ele>90.907</ele><time>2026-04-20T19:03:05.076Z</time><hdop>4.625</hdop><vdop>3.375</vdop><extensions><gom:speed>0.828</gom:speed></extensions></trkpt>
   <trkpt lat="59.069512251" lon="30.0289466721"><ele>90.862</ele><time>2026-04-20T19:03:06.075Z</time><hdop>4.625</hdop><vdop>3.5</vdop><extensions><gom:speed>0.792</gom:speed></extensions></trkpt>
   <trkpt lat="59.0695209263" lon="30.0289403018"><ele>90.835</ele><time>2026-04-20T19:03:07.073Z</time><hdop>4.625</hdop><vdop>3.5</vdop><extensions><gom:speed>0.801</gom:speed></extensions></trkpt>
   <trkpt lat="59.0695285538" lon="30.0289372005"><ele>90.955</ele><time>2026-04-20T19:03:07.922Z</time><hdop>4.75</hdop><vdop>3.75</vdop><extensions><gom:speed>0.818</gom:speed></extensions></trkpt>
   <trkpt lat="59.0695373548" lon="30.0289336801"><ele>91.241</ele><time>2026-04-20T19:03:08.820Z</time><hdop>4.75</hdop><vdop>4.125</vdop><extensions><gom:speed>0.798</gom:speed></extensions></trkpt>
   <trkpt lat="59.0695459463" lon="30.0289299083"><ele>91.076</ele><time>2026-04-20T19:03:09.620Z</time><hdop>4.75</hdop><vdop>4.125</vdop><extensions><gom:speed>0.796</gom:speed></extensions></trkpt>
   <trkpt lat="59.0695499277" lon="30.0289268908"><ele>90.81</ele><time>2026-04-20T19:03:10.081Z</time><hdop>4.75</hdop><vdop>4.125</vdop><extensions><gom:speed>0.795</gom:speed></extensions></trkpt>
   <trkpt lat="59.0695598183" lon="30.0289243762"><ele>90.954</ele><time>2026-04-20T19:03:11.075Z</time><hdop>4.75</hdop><vdop>3.875</vdop><extensions><gom:speed>0.8</gom:speed></extensions></trkpt>
   <trkpt lat="59.0695677392" lon="30.0289223645"><ele>91.04</ele><time>2026-04-20T19:03:12.078Z</time><hdop>4.75</hdop><vdop>3.875</vdop><extensions><gom:speed>0.753</gom:speed></extensions></trkpt>
   <trkpt lat="59.0695754506" lon="30.0289245438"><ele>91.099</ele><time>2026-04-20T19:03:13.042Z</time><hdop>4.75</hdop><vdop>3.875</vdop><extensions><gom:speed>0.657</gom:speed></extensions></trkpt>
   <trkpt lat="59.0695783423" lon="30.0289265555"><ele>90.796</ele><time>2026-04-20T19:03:13.990Z</time><hdop>4.75</hdop><vdop>4.0</vdop><extensions><gom:speed>0.519</gom:speed></extensions></trkpt>
   <trkpt lat="59.0695788453" lon="30.0289271422"><ele>90.646</ele><time>2026-04-20T19:03:15.056Z</time><hdop>4.875</hdop><vdop>3.875</vdop><extensions><gom:speed>0.377</gom:speed></extensions></trkpt>
   <trkpt lat="59.069574319" lon="30.0289263879"><ele>90.236</ele><time>2026-04-20T19:03:16.005Z</time><hdop>5.0</hdop><vdop>3.875</vdop><extensions><gom:speed>0.125</gom:speed></extensions></trkpt>
   <trkpt lat="59.0695719302" lon="30.0289274775"><ele>89.821</ele><time>2026-04-20T19:03:17.075Z</time><hdop>5.125</hdop><vdop>3.75</vdop><extensions><gom:speed>0.073</gom:speed></extensions></trkpt>
   <trkpt lat="59.0695710501" lon="30.0289268069"><ele>89.431</ele><time>2026-04-20T19:03:18.019Z</time><hdop>5.125</hdop><vdop>3.75</vdop><extensions><gom:speed>0.078</gom:speed></extensions></trkpt>
   <trkpt lat="59.0695707567" lon="30.0289256335"><ele>89.198</ele><time>2026-04-20T19:03:18.493Z</time><hdop>5.125</hdop><vdop>3.75</vdop><extensions><gom:speed>0.073</gom:speed></extensions></trkpt>
   <trkpt lat="59.0695716368" lon="30.0289238733"><ele>89.013</ele><time>2026-04-20T19:03:19.075Z</time><hdop>5.125</hdop><vdop>3.625</vdop><extensions><gom:speed>0.103</gom:speed></extensions></trkpt>
   <trkpt lat="59.0695721397" lon="30.0289222807"><ele>88.847</ele><time>2026-04-20T19:03:20.033Z</time><hdop>5.0</hdop><vdop>12.125</vdop><extensions><gom:speed>0.068</gom:speed></extensions></trkpt>
   <trkpt lat="59.0695716368" lon="30.0289211073"><ele>88.747</ele><time>2026-04-20T19:03:21.022Z</time><hdop>5.0</hdop><vdop>12.125</vdop><extensions><gom:speed>0.075</gom:speed></extensions></trkpt>
   <trkpt lat="59.0695724331" lon="30.0289208558"><ele>88.543</ele><time>2026-04-20T19:03:22.046Z</time><hdop>4.875</hdop><vdop>10.875</vdop><extensions><gom:speed>0.113</gom:speed></extensions></trkpt>
   <trkpt lat="59.0695727265" lon="30.0289209396"><ele>88.366</ele><time>2026-04-20T19:03:23.075Z</time><hdop>4.875</hdop><vdop>10.625</vdop><extensions><gom:speed>0.078</gom:speed></extensions></trkpt>
   <trkpt lat="59.0695733551" lon="30.0289202691"><ele>88.26</ele><time>2026-04-20T19:03:23.895Z</time><hdop>4.75</hdop><vdop>10.625</vdop><extensions><gom:speed>0.083</gom:speed></extensions></trkpt>
   <trkpt lat="59.0695742352" lon="30.0289196823"><ele>88.212</ele><time>2026-04-20T19:03:24.654Z</time><hdop>4.75</hdop><vdop>10.125</vdop><extensions><gom:speed>0.087</gom:speed></extensions></trkpt>
   <trkpt lat="59.0695748219" lon="30.0289180898"><ele>88.338</ele><time>2026-04-20T19:03:25.535Z</time><hdop>4.75</hdop><vdop>9.625</vdop><extensions><gom:speed>0.13</gom:speed></extensions></trkpt>
   <trkpt lat="59.0695753249" lon="30.0289171678"><ele>88.491</ele><time>2026-04-20T19:03:26.074Z</time><hdop>4.875</hdop><vdop>9.375</vdop><extensions><gom:speed>0.157</gom:speed></extensions></trkpt>
   <trkpt lat="59.0695773365" lon="30.0289164972"><ele>88.721</ele><time>2026-04-20T19:03:27.021Z</time><hdop>4.875</hdop><vdop>8.875</vdop><extensions><gom:speed>0.197</gom:speed></extensions></trkpt>
   <trkpt lat="59.0695822399" lon="30.0289176707"><ele>88.858</ele><time>2026-04-20T19:03:27.793Z</time><hdop>5.0</hdop><vdop>8.875</vdop><extensions><gom:speed>0.46</gom:speed></extensions></trkpt>
   <trkpt lat="59.0695900351" lon="30.0289201014"><ele>89.034</ele><time>2026-04-20T19:03:28.515Z</time><hdop>5.25</hdop><vdop>8.75</vdop><extensions><gom:speed>0.684</gom:speed></extensions></trkpt>
   <trkpt lat="59.069595651" lon="30.0289221131"><ele>89.067</ele><time>2026-04-20T19:03:29.035Z</time><hdop>5.375</hdop><vdop>8.875</vdop><extensions><gom:speed>0.689</gom:speed></extensions></trkpt>
   <trkpt lat="59.069604452" lon="30.0289273099"><ele>89.087</ele><time>2026-04-20T19:03:29.995Z</time><hdop>5.625</hdop><vdop>8.875</vdop><extensions><gom:speed>0.77</gom:speed></extensions></trkpt>
   <trkpt lat="59.0696125405" lon="30.0289306626"><ele>89.143</ele><time>2026-04-20T19:03:30.875Z</time><hdop>5.875</hdop><vdop>9.125</vdop><extensions><gom:speed>0.785</gom:speed></extensions></trkpt>
   <trkpt lat="59.069614636" lon="30.0289283995"><ele>89.254</ele><time>2026-04-20T19:03:31.753Z</time><hdop>6.25</hdop><vdop>8.75</vdop><extensions><gom:speed>0.747</gom:speed></extensions></trkpt>
   <trkpt lat="59.0696194556" lon="30.0289242924"><ele>89.34</ele><time>2026-04-20T19:03:32.512Z</time><hdop>6.5</hdop><vdop>8.5</vdop><extensions><gom:speed>0.776</gom:speed></extensions></trkpt>
   <trkpt lat="59.0696238561" lon="30.028920772"><ele>89.389</ele><time>2026-04-20T19:03:33.116Z</time><hdop>6.75</hdop><vdop>8.375</vdop><extensions><gom:speed>0.775</gom:speed></extensions></trkpt>
   <trkpt lat="59.0696295558" lon="30.0289180898"><ele>89.418</ele><time>2026-04-20T19:03:33.776Z</time><hdop>6.75</hdop><vdop>8.375</vdop><extensions><gom:speed>0.842</gom:speed></extensions></trkpt>
   <trkpt lat="59.0696358422" lon="30.0289154076"><ele>89.436</ele><time>2026-04-20T19:03:34.499Z</time><hdop>7.0</hdop><vdop>8.5</vdop><extensions><gom:speed>0.865</gom:speed></extensions></trkpt>
   <trkpt lat="59.0696403265" lon="30.0289128092"><ele>89.456</ele><time>2026-04-20T19:03:34.959Z</time><hdop>7.125</hdop><vdop>8.25</vdop><extensions><gom:speed>0.871</gom:speed></extensions></trkpt>
   <trkpt lat="59.0696480379" lon="30.0289081153"><ele>89.468</ele><time>2026-04-20T19:03:35.940Z</time><hdop>7.25</hdop><vdop>8.25</vdop><extensions><gom:speed>0.938</gom:speed></extensions></trkpt>
   <trkpt lat="59.0696545338" lon="30.0289033376"><ele>89.471</ele><time>2026-04-20T19:03:36.639Z</time><hdop>7.375</hdop><vdop>8.0</vdop><extensions><gom:speed>0.948</gom:speed></extensions></trkpt>
   <trkpt lat="59.069658641" lon="30.0288991467"><ele>89.506</ele><time>2026-04-20T19:03:37.091Z</time><hdop>7.625</hdop><vdop>8.0</vdop><extensions><gom:speed>0.95</gom:speed></extensions></trkpt>
   <trkpt lat="59.0696666457" lon="30.0288897589"><ele>89.527</ele><time>2026-04-20T19:03:37.559Z</time><hdop>7.875</hdop><vdop>8.0</vdop><extensions><gom:speed>0.864</gom:speed></extensions></trkpt>
   <trkpt lat="59.0696681544" lon="30.02888649"><ele>89.597</ele><time>2026-04-20T19:03:38.038Z</time><hdop>7.875</hdop><vdop>8.25</vdop><extensions><gom:speed>0.861</gom:speed></extensions></trkpt>
   <trkpt lat="59.069660946" lon="30.0288777728"><ele>89.657</ele><time>2026-04-20T19:03:39.075Z</time><hdop>8.25</hdop><vdop>8.5</vdop><extensions><gom:speed>0.719</gom:speed></extensions></trkpt>
   <trkpt lat="59.0696563359" lon="30.0288729951"><ele>89.699</ele><time>2026-04-20T19:03:40.052Z</time><hdop>8.375</hdop><vdop>8.75</vdop><extensions><gom:speed>0.669</gom:speed></extensions></trkpt>
   <trkpt lat="59.0696581381" lon="30.0288711511"><ele>89.724</ele><time>2026-04-20T19:03:40.894Z</time><hdop>8.375</hdop><vdop>8.75</vdop><extensions><gom:speed>0.719</gom:speed></extensions></trkpt>
   <trkpt lat="59.0696634187" lon="30.0288683851"><ele>89.731</ele><time>2026-04-20T19:03:41.713Z</time><hdop>8.625</hdop><vdop>9.0</vdop><extensions><gom:speed>0.756</gom:speed></extensions></trkpt>
   <trkpt lat="59.0696696213" lon="30.0288632721"><ele>89.734</ele><time>2026-04-20T19:03:42.477Z</time><hdop>8.75</hdop><vdop>9.125</vdop><extensions><gom:speed>0.77</gom:speed></extensions></trkpt>
   <trkpt lat="59.0696741475" lon="30.0288596679"><ele>89.742</ele><time>2026-04-20T19:03:43.014Z</time><hdop>8.75</hdop><vdop>8.875</vdop><extensions><gom:speed>0.768</gom:speed></extensions></trkpt>
   <trkpt lat="59.0696842477" lon="30.0288515375"><ele>89.748</ele><time>2026-04-20T19:03:43.963Z</time><hdop>8.875</hdop><vdop>8.75</vdop><extensions><gom:speed>0.787</gom:speed></extensions></trkpt>
   <trkpt lat="59.0696906179" lon="30.0288481847"><ele>89.756</ele><time>2026-04-20T19:03:45.028Z</time><hdop>9.125</hdop><vdop>8.625</vdop><extensions><gom:speed>0.756</gom:speed></extensions></trkpt>
   <trkpt lat="59.0696970301" lon="30.0288437423"><ele>89.763</ele><time>2026-04-20T19:03:45.976Z</time><hdop>9.5</hdop><vdop>8.625</vdop><extensions><gom:speed>0.747</gom:speed></extensions></trkpt>
   <trkpt lat="59.0697033165" lon="30.0288392999"><ele>89.77</ele><time>2026-04-20T19:03:47.043Z</time><hdop>9.75</hdop><vdop>9.0</vdop><extensions><gom:speed>0.668</gom:speed></extensions></trkpt>
   <trkpt lat="59.0697085552" lon="30.0288338516"><ele>89.765</ele><time>2026-04-20T19:03:47.989Z</time><hdop>10.0</hdop><vdop>9.0</vdop><extensions><gom:speed>0.628</gom:speed></extensions></trkpt>
   <trkpt lat="59.0697138358" lon="30.0288265594"><ele>89.762</ele><time>2026-04-20T19:03:49.097Z</time><hdop>10.375</hdop><vdop>9.0</vdop><extensions><gom:speed>0.635</gom:speed></extensions></trkpt>
   <trkpt lat="59.0697214214" lon="30.0288162496"><ele>89.76</ele><time>2026-04-20T19:03:49.957Z</time><hdop>10.375</hdop><vdop>8.625</vdop><extensions><gom:speed>0.644</gom:speed></extensions></trkpt>
   <trkpt lat="59.0697256543" lon="30.0288144894"><ele>89.796</ele><time>2026-04-20T19:03:50.796Z</time><hdop>10.625</hdop><vdop>8.25</vdop><extensions><gom:speed>0.701</gom:speed></extensions></trkpt>
   <trkpt lat="59.069731354" lon="30.0288125616"><ele>89.816</ele><time>2026-04-20T19:03:51.655Z</time><hdop>10.75</hdop><vdop>8.5</vdop><extensions><gom:speed>0.751</gom:speed></extensions></trkpt>
   <trkpt lat="59.0697376404" lon="30.0288106338"><ele>89.83</ele><time>2026-04-20T19:03:52.474Z</time><hdop>10.875</hdop><vdop>8.75</vdop><extensions><gom:speed>0.773</gom:speed></extensions></trkpt>
   <trkpt lat="59.0697420409" lon="30.0288088736"><ele>89.831</ele><time>2026-04-20T19:03:52.965Z</time><hdop>10.875</hdop><vdop>8.375</vdop><extensions><gom:speed>0.766</gom:speed></extensions></trkpt>
   <trkpt lat="59.0697497523" lon="30.0288042635"><ele>89.85</ele><time>2026-04-20T19:03:54.031Z</time><hdop>11.0</hdop><vdop>8.125</vdop><extensions><gom:speed>0.74</gom:speed></extensions></trkpt>
   <trkpt lat="59.0697572541" lon="30.0288000726"><ele>89.881</ele><time>2026-04-20T19:03:54.979Z</time><hdop>11.25</hdop><vdop>8.125</vdop><extensions><gom:speed>0.703</gom:speed></extensions></trkpt>
   <trkpt lat="59.0697592238" lon="30.0287990667"><ele>89.899</ele><time>2026-04-20T19:03:55.571Z</time><hdop>11.25</hdop><vdop>8.125</vdop><extensions><gom:speed>0.703</gom:speed></extensions></trkpt>
   <trkpt lat="59.0697677314" lon="30.0287940376"><ele>89.91</ele><time>2026-04-20T19:03:56.038Z</time><hdop>11.25</hdop><vdop>8.125</vdop><extensions><gom:speed>0.71</gom:speed></extensions></trkpt>
   <trkpt lat="59.069772551" lon="30.0287895952"><ele>89.918</ele><time>2026-04-20T19:03:56.896Z</time><hdop>11.375</hdop><vdop>8.375</vdop><extensions><gom:speed>0.701</gom:speed></extensions></trkpt>
   <trkpt lat="59.0697778316" lon="30.0287825544"><ele>89.928</ele><time>2026-04-20T19:03:57.795Z</time><hdop>11.375</hdop><vdop>8.375</vdop><extensions><gom:speed>0.727</gom:speed></extensions></trkpt>
   <trkpt lat="59.069781352" lon="30.0287757651"><ele>89.935</ele><time>2026-04-20T19:03:58.437Z</time><hdop>11.375</hdop><vdop>8.0</vdop><extensions><gom:speed>0.735</gom:speed></extensions></trkpt>
   <trkpt lat="59.0697619479" lon="30.0287750945"><ele>89.901</ele><time>2026-04-20T19:03:59.075Z</time><hdop>11.25</hdop><vdop>7.625</vdop><extensions><gom:speed>0.677</gom:speed></extensions></trkpt>
   <trkpt lat="59.0697510515" lon="30.0287714065"><ele>89.881</ele><time>2026-04-20T19:03:59.937Z</time><hdop>11.125</hdop><vdop>7.625</vdop><extensions><gom:speed>0.66</gom:speed></extensions></trkpt>
   <trkpt lat="59.069730432" lon="30.0287914392"><ele>89.845</ele><time>2026-04-20T19:04:00.818Z</time><hdop>10.75</hdop><vdop>5.625</vdop><extensions><gom:speed>0.618</gom:speed></extensions></trkpt>
   <trkpt lat="59.069719745" lon="30.0288102147"><ele>88.737</ele><time>2026-04-20T19:04:01.497Z</time><hdop>10.125</hdop><vdop>5.5</vdop><extensions><gom:speed>0.519</gom:speed></extensions></trkpt>
   <trkpt lat="59.0697139196" lon="30.0288227875"><ele>87.989</ele><time>2026-04-20T19:04:02.076Z</time><hdop>9.625</hdop><vdop>5.0</vdop><extensions><gom:speed>0.493</gom:speed></extensions></trkpt>
   <trkpt lat="59.0697102316" lon="30.0288326782"><ele>87.175</ele><time>2026-04-20T19:04:03.075Z</time><hdop>8.875</hdop><vdop>5.0</vdop><extensions><gom:speed>0.454</gom:speed></extensions></trkpt>
   <trkpt lat="59.0697089324" lon="30.0288297445"><ele>86.689</ele><time>2026-04-20T19:04:04.014Z</time><hdop>7.875</hdop><vdop>5.0</vdop><extensions><gom:speed>0.525</gom:speed></extensions></trkpt>
   <trkpt lat="59.0697102316" lon="30.0288235419"><ele>86.804</ele><time>2026-04-20T19:04:04.795Z</time><hdop>7.25</hdop><vdop>9.25</vdop><extensions><gom:speed>0.594</gom:speed></extensions></trkpt>
   <trkpt lat="59.0697179429" lon="30.0288115558"><ele>87.295</ele><time>2026-04-20T19:04:06.075Z</time><hdop>6.125</hdop><vdop>9.125</vdop><extensions><gom:speed>0.541</gom:speed></extensions></trkpt>
   <trkpt lat="59.0697223434" lon="30.028812394"><ele>87.588</ele><time>2026-04-20T19:04:06.958Z</time><hdop>5.625</hdop><vdop>9.125</vdop><extensions><gom:speed>0.45</gom:speed></extensions></trkpt>
   <trkpt lat="59.0697288394" lon="30.0288077001"><ele>88.149</ele><time>2026-04-20T19:04:07.716Z</time><hdop>5.125</hdop><vdop>8.75</vdop><extensions><gom:speed>0.588</gom:speed></extensions></trkpt>
   <trkpt lat="59.0697369279" lon="30.0288006593"><ele>88.48</ele><time>2026-04-20T19:04:08.359Z</time><hdop>4.875</hdop><vdop>8.625</vdop><extensions><gom:speed>0.6</gom:speed></extensions></trkpt>
   <trkpt lat="59.0697440526" lon="30.0287949596"><ele>88.868</ele><time>2026-04-20T19:04:09.075Z</time><hdop>4.75</hdop><vdop>8.25</vdop><extensions><gom:speed>0.702</gom:speed></extensions></trkpt>
   <trkpt lat="59.0697519316" lon="30.0287922774"><ele>89.1</ele><time>2026-04-20T19:04:09.879Z</time><hdop>4.75</hdop><vdop>8.25</vdop><extensions><gom:speed>0.753</gom:speed></extensions></trkpt>
   <trkpt lat="59.0697593495" lon="30.0287955463"><ele>89.099</ele><time>2026-04-20T19:04:10.579Z</time><hdop>4.75</hdop><vdop>7.75</vdop><extensions><gom:speed>0.848</gom:speed></extensions></trkpt>
   <trkpt lat="59.0697652169" lon="30.0287964684"><ele>89.424</ele><time>2026-04-20T19:04:11.075Z</time><hdop>4.875</hdop><vdop>7.625</vdop><extensions><gom:speed>0.829</gom:speed></extensions></trkpt>
   <trkpt lat="59.0697742274" lon="30.0288010784"><ele>89.612</ele><time>2026-04-20T19:04:12.039Z</time><hdop>4.875</hdop><vdop>7.375</vdop><extensions><gom:speed>0.846</gom:speed></extensions></trkpt>
   <trkpt lat="59.0697823579" lon="30.0288037606"><ele>89.724</ele><time>2026-04-20T19:04:12.921Z</time><hdop>5.125</hdop><vdop>7.375</vdop><extensions><gom:speed>0.89</gom:speed></extensions></trkpt>
   <trkpt lat="59.0697900273" lon="30.0287994858"><ele>89.972</ele><time>2026-04-20T19:04:13.541Z</time><hdop>5.25</hdop><vdop>7.125</vdop><extensions><gom:speed>0.92</gom:speed></extensions></trkpt>
   <trkpt lat="59.0697952241" lon="30.0288007431"><ele>90.225</ele><time>2026-04-20T19:04:14.052Z</time><hdop>5.375</hdop><vdop>6.75</vdop><extensions><gom:speed>0.921</gom:speed></extensions></trkpt>
   <trkpt lat="59.0698044442" lon="30.0287990667"><ele>90.52</ele><time>2026-04-20T19:04:15.076Z</time><hdop>5.5</hdop><vdop>6.375</vdop><extensions><gom:speed>0.858</gom:speed></extensions></trkpt>
   <trkpt lat="59.0698120298" lon="30.0288015813"><ele>90.697</ele><time>2026-04-20T19:04:16.040Z</time><hdop>5.625</hdop><vdop>6.375</vdop><extensions><gom:speed>0.868</gom:speed></extensions></trkpt>
   <trkpt lat="59.069818442" lon="30.0288092088"><ele>90.878</ele><time>2026-04-20T19:04:16.857Z</time><hdop>5.75</hdop><vdop>6.125</vdop><extensions><gom:speed>0.961</gom:speed></extensions></trkpt>
   <trkpt lat="59.0698239321" lon="30.028810969"><ele>91.083</ele><time>2026-04-20T19:04:17.658Z</time><hdop>5.75</hdop><vdop>6.25</vdop><extensions><gom:speed>1.012</gom:speed></extensions></trkpt>
   <trkpt lat="59.0698298413" lon="30.0288177584"><ele>91.283</ele><time>2026-04-20T19:04:18.476Z</time><hdop>5.875</hdop><vdop>6.375</vdop><extensions><gom:speed>1.019</gom:speed></extensions></trkpt>
   <trkpt lat="59.0698347448" lon="30.0288227037"><ele>91.398</ele><time>2026-04-20T19:04:19.027Z</time><hdop>5.875</hdop><vdop>6.375</vdop><extensions><gom:speed>1.006</gom:speed></extensions></trkpt>
   <trkpt lat="59.0698427495" lon="30.0288244639"><ele>91.467</ele><time>2026-04-20T19:04:19.899Z</time><hdop>6.0</hdop><vdop>6.375</vdop><extensions><gom:speed>0.971</gom:speed></extensions></trkpt>
   <trkpt lat="59.0698510476" lon="30.0288064428"><ele>91.57</ele><time>2026-04-20T19:04:20.699Z</time><hdop>6.0</hdop><vdop>6.375</vdop><extensions><gom:speed>0.87</gom:speed></extensions></trkpt>
   <trkpt lat="59.069857334" lon="30.0287992344"><ele>91.642</ele><time>2026-04-20T19:04:21.853Z</time><hdop>6.0</hdop><vdop>6.25</vdop><extensions><gom:speed>0.804</gom:speed></extensions></trkpt>
   <trkpt lat="59.0698625308" lon="30.0287947082"><ele>91.696</ele><time>2026-04-20T19:04:22.673Z</time><hdop>6.125</hdop><vdop>6.375</vdop><extensions><gom:speed>0.741</gom:speed></extensions></trkpt>
   <trkpt lat="59.0698695297" lon="30.0287866615"><ele>91.765</ele><time>2026-04-20T19:04:24.003Z</time><hdop>6.25</hdop><vdop>6.5</vdop><extensions><gom:speed>0.657</gom:speed></extensions></trkpt>
   <trkpt lat="59.0698688172" lon="30.0287828059"><ele>91.846</ele><time>2026-04-20T19:04:24.950Z</time><hdop>6.375</hdop><vdop>6.625</vdop><extensions><gom:speed>0.388</gom:speed></extensions></trkpt>
   <trkpt lat="59.0698588427" lon="30.0287786149"><ele>91.896</ele><time>2026-04-20T19:04:26.075Z</time><hdop>6.375</hdop><vdop>6.625</vdop><extensions><gom:speed>0.152</gom:speed></extensions></trkpt>
   <trkpt lat="59.0698515505" lon="30.028776268"><ele>91.926</ele><time>2026-04-20T19:04:26.937Z</time><hdop>6.375</hdop><vdop>6.625</vdop><extensions><gom:speed>0.117</gom:speed></extensions></trkpt>
   <trkpt lat="59.0698506285" lon="30.028775346"><ele>91.968</ele><time>2026-04-20T19:04:27.776Z</time><hdop>6.25</hdop><vdop>6.625</vdop><extensions><gom:speed>0.166</gom:speed></extensions></trkpt>
   <trkpt lat="59.0698517181" lon="30.0287735858"><ele>91.993</ele><time>2026-04-20T19:04:28.675Z</time><hdop>6.25</hdop><vdop>6.5</vdop><extensions><gom:speed>0.226</gom:speed></extensions></trkpt>
   <trkpt lat="59.0698564539" lon="30.0287704845"><ele>92.006</ele><time>2026-04-20T19:04:29.553Z</time><hdop>6.25</hdop><vdop>6.375</vdop><extensions><gom:speed>0.427</gom:speed></extensions></trkpt>
   <trkpt lat="59.0698598486" lon="30.0287678861"><ele>92.009</ele><time>2026-04-20T19:04:30.045Z</time><hdop>6.375</hdop><vdop>6.375</vdop><extensions><gom:speed>0.44</gom:speed></extensions></trkpt>
   <trkpt lat="59.0698690267" lon="30.0287598394"><ele>92.009</ele><time>2026-04-20T19:04:30.992Z</time><hdop>6.5</hdop><vdop>6.375</vdop><extensions><gom:speed>0.624</gom:speed></extensions></trkpt>
   <trkpt lat="59.0698757323" lon="30.0287530501"><ele>92.008</ele><time>2026-04-20T19:04:31.940Z</time><hdop>6.75</hdop><vdop>6.375</vdop><extensions><gom:speed>0.634</gom:speed></extensions></trkpt>
   <trkpt lat="59.0698777439" lon="30.0287502002"><ele>92.008</ele><time>2026-04-20T19:04:32.651Z</time><hdop>7.0</hdop><vdop>6.375</vdop><extensions><gom:speed>0.648</gom:speed></extensions></trkpt>
   <trkpt lat="59.0698867545" lon="30.0287327659"><ele>92.007</ele><time>2026-04-20T19:04:33.838Z</time><hdop>7.375</hdop><vdop>6.375</vdop><extensions><gom:speed>0.693</gom:speed></extensions></trkpt>
   <trkpt lat="59.0698917417" lon="30.0287250545"><ele>92.023</ele><time>2026-04-20T19:04:34.737Z</time><hdop>7.75</hdop><vdop>6.375</vdop><extensions><gom:speed>0.735</gom:speed></extensions></trkpt>
   <trkpt lat="59.0698983215" lon="30.0287289102"><ele>91.2</ele><time>2026-04-20T19:04:35.496Z</time><hdop>7.75</hdop><vdop>4.875</vdop><extensions><gom:speed>0.843</gom:speed></extensions></trkpt>
   <trkpt lat="59.0699060328" lon="30.0287356157"><ele>92.546</ele><time>2026-04-20T19:04:36.076Z</time><hdop>7.75</hdop><vdop>3.875</vdop><extensions><gom:speed>0.844</gom:speed></extensions></trkpt>
   <trkpt lat="59.0699157559" lon="30.0287429918"><ele>93.351</ele><time>2026-04-20T19:04:37.038Z</time><hdop>7.625</hdop><vdop>3.875</vdop><extensions><gom:speed>0.851</gom:speed></extensions></trkpt>
   <trkpt lat="59.0699287478" lon="30.0287517928"><ele>93.182</ele><time>2026-04-20T19:04:37.876Z</time><hdop>7.375</hdop><vdop>3.5</vdop><extensions><gom:speed>0.876</gom:speed></extensions></trkpt>
   <trkpt lat="59.0699431228" lon="30.028757241"><ele>93.151</ele><time>2026-04-20T19:04:38.715Z</time><hdop>7.125</hdop><vdop>3.5</vdop><extensions><gom:speed>0.861</gom:speed></extensions></trkpt>
   <trkpt lat="59.0699607248" lon="30.0287606776"><ele>92.661</ele><time>2026-04-20T19:04:39.534Z</time><hdop>6.625</hdop><vdop>3.625</vdop><extensions><gom:speed>0.871</gom:speed></extensions></trkpt>
   <trkpt lat="59.0699688552" lon="30.0287622702"><ele>92.094</ele><time>2026-04-20T19:04:40.076Z</time><hdop>6.375</hdop><vdop>3.5</vdop><extensions><gom:speed>0.856</gom:speed></extensions></trkpt>
   <trkpt lat="59.0699784525" lon="30.0287576601"><ele>91.755</ele><time>2026-04-20T19:04:41.035Z</time><hdop>6.0</hdop><vdop>3.5</vdop><extensions><gom:speed>0.84</gom:speed></extensions></trkpt>
   <trkpt lat="59.0699890556" lon="30.0287554808"><ele>91.048</ele><time>2026-04-20T19:04:41.854Z</time><hdop>5.75</hdop><vdop>3.375</vdop><extensions><gom:speed>0.842</gom:speed></extensions></trkpt>
   <trkpt lat="59.0699997425" lon="30.0287541397"><ele>89.936</ele><time>2026-04-20T19:04:42.637Z</time><hdop>5.5</hdop><vdop>3.25</vdop><extensions><gom:speed>0.865</gom:speed></extensions></trkpt>
   <trkpt lat="59.0700082502" lon="30.0287541397"><ele>89.317</ele><time>2026-04-20T19:04:43.275Z</time><hdop>5.25</hdop><vdop>3.125</vdop><extensions><gom:speed>0.878</gom:speed></extensions></trkpt>
   <trkpt lat="59.0700167578" lon="30.0287525472"><ele>88.948</ele><time>2026-04-20T19:04:44.017Z</time><hdop>5.125</hdop><vdop>3.125</vdop><extensions><gom:speed>0.922</gom:speed></extensions></trkpt>
   <trkpt lat="59.0700274447" lon="30.0287525472"><ele>88.429</ele><time>2026-04-20T19:04:44.718Z</time><hdop>5.0</hdop><vdop>3.125</vdop><extensions><gom:speed>0.943</gom:speed></extensions></trkpt>
   <trkpt lat="59.0700380478" lon="30.028750787"><ele>87.075</ele><time>2026-04-20T19:04:45.418Z</time><hdop>4.75</hdop><vdop>3.125</vdop><extensions><gom:speed>0.994</gom:speed></extensions></trkpt>
   <trkpt lat="59.0700463459" lon="30.0287481886"><ele>85.616</ele><time>2026-04-20T19:04:46.075Z</time><hdop>4.625</hdop><vdop>3.125</vdop><extensions><gom:speed>0.988</gom:speed></extensions></trkpt>
   <trkpt lat="59.0700552307" lon="30.0287439976"><ele>84.745</ele><time>2026-04-20T19:04:46.901Z</time><hdop>4.5</hdop><vdop>3.125</vdop><extensions><gom:speed>0.991</gom:speed></extensions></trkpt>
   <trkpt lat="59.0700642413" lon="30.0287436624"><ele>84.068</ele><time>2026-04-20T19:04:47.698Z</time><hdop>4.375</hdop><vdop>3.0</vdop><extensions><gom:speed>0.975</gom:speed></extensions></trkpt>
   <trkpt lat="59.0700726232" lon="30.0287439976"><ele>83.485</ele><time>2026-04-20T19:04:48.479Z</time><hdop>4.25</hdop><vdop>3.0</vdop><extensions><gom:speed>0.944</gom:speed></extensions></trkpt>
   <trkpt lat="59.070078742" lon="30.0287439138"><ele>83.002</ele><time>2026-04-20T19:04:49.075Z</time><hdop>4.125</hdop><vdop>3.125</vdop><extensions><gom:speed>0.944</gom:speed></extensions></trkpt>
   <trkpt lat="59.0700884231" lon="30.0287409802"><ele>82.714</ele><time>2026-04-20T19:04:49.999Z</time><hdop>4.125</hdop><vdop>3.125</vdop><extensions><gom:speed>0.968</gom:speed></extensions></trkpt>
   <trkpt lat="59.0700970564" lon="30.0287399743"><ele>82.207</ele><time>2026-04-20T19:04:50.681Z</time><hdop>4.125</hdop><vdop>3.125</vdop><extensions><gom:speed>1.015</gom:speed></extensions></trkpt>
   <trkpt lat="59.0701036362" lon="30.0287399743"><ele>81.788</ele><time>2026-04-20T19:04:51.250Z</time><hdop>4.125</hdop><vdop>3.5</vdop><extensions><gom:speed>1.023</gom:speed></extensions></trkpt>
   <trkpt lat="59.070115329" lon="30.0287367054"><ele>81.814</ele><time>2026-04-20T19:04:52.075Z</time><hdop>4.125</hdop><vdop>3.375</vdop><extensions><gom:speed>0.998</gom:speed></extensions></trkpt>
   <trkpt lat="59.0701228308" lon="30.0287339394"><ele>81.83</ele><time>2026-04-20T19:04:52.901Z</time><hdop>4.125</hdop><vdop>3.375</vdop><extensions><gom:speed>0.993</gom:speed></extensions></trkpt>
   <trkpt lat="59.0701312546" lon="30.0287349452"><ele>82.048</ele><time>2026-04-20T19:04:53.662Z</time><hdop>4.125</hdop><vdop>3.625</vdop><extensions><gom:speed>0.967</gom:speed></extensions></trkpt>
   <trkpt lat="59.0701402232" lon="30.0287339394"><ele>82.167</ele><time>2026-04-20T19:04:54.460Z</time><hdop>4.125</hdop><vdop>3.625</vdop><extensions><gom:speed>0.911</gom:speed></extensions></trkpt>
   <trkpt lat="59.0701472221" lon="30.0287320953"><ele>82.286</ele><time>2026-04-20T19:04:55.075Z</time><hdop>4.125</hdop><vdop>3.625</vdop><extensions><gom:speed>0.919</gom:speed></extensions></trkpt>
   <trkpt lat="59.0701554364" lon="30.0287276529"><ele>82.357</ele><time>2026-04-20T19:04:55.893Z</time><hdop>4.125</hdop><vdop>3.625</vdop><extensions><gom:speed>0.942</gom:speed></extensions></trkpt>
   <trkpt lat="59.0701649498" lon="30.0287265633"><ele>82.152</ele><time>2026-04-20T19:04:56.703Z</time><hdop>4.125</hdop><vdop>3.625</vdop><extensions><gom:speed>0.927</gom:speed></extensions></trkpt>
   <trkpt lat="59.0701743376" lon="30.0287248869"><ele>81.935</ele><time>2026-04-20T19:04:57.483Z</time><hdop>4.125</hdop><vdop>3.75</vdop><extensions><gom:speed>0.913</gom:speed></extensions></trkpt>
   <trkpt lat="59.0701812526" lon="30.0287243002"><ele>81.565</ele><time>2026-04-20T19:04:58.076Z</time><hdop>4.125</hdop><vdop>3.75</vdop><extensions><gom:speed>0.912</gom:speed></extensions></trkpt>
   <trkpt lat="59.0701933226" lon="30.0287269824"><ele>81.401</ele><time>2026-04-20T19:04:59.075Z</time><hdop>4.125</hdop><vdop>3.875</vdop><extensions><gom:speed>0.908</gom:speed></extensions></trkpt>
   <trkpt lat="59.0702019559" lon="30.0287308381"><ele>81.303</ele><time>2026-04-20T19:04:59.939Z</time><hdop>4.25</hdop><vdop>3.875</vdop><extensions><gom:speed>0.882</gom:speed></extensions></trkpt>
   <trkpt lat="59.0702111341" lon="30.0287343584"><ele>81.018</ele><time>2026-04-20T19:05:00.739Z</time><hdop>4.25</hdop><vdop>3.875</vdop><extensions><gom:speed>0.864</gom:speed></extensions></trkpt>
   <trkpt lat="59.0702206476" lon="30.0287374598"><ele>80.864</ele><time>2026-04-20T19:05:01.519Z</time><hdop>4.25</hdop><vdop>3.875</vdop><extensions><gom:speed>0.837</gom:speed></extensions></trkpt>
   <trkpt lat="59.0702276465" lon="30.0287399743"><ele>80.499</ele><time>2026-04-20T19:05:02.076Z</time><hdop>4.25</hdop><vdop>3.75</vdop><extensions><gom:speed>0.866</gom:speed></extensions></trkpt>
   <trkpt lat="59.0702388363" lon="30.0287416507"><ele>79.986</ele><time>2026-04-20T19:05:03.075Z</time><hdop>4.125</hdop><vdop>3.875</vdop><extensions><gom:speed>0.799</gom:speed></extensions></trkpt>
   <trkpt lat="59.0702421472" lon="30.0287413992"><ele>79.68</ele><time>2026-04-20T19:05:03.570Z</time><hdop>4.125</hdop><vdop>3.875</vdop><extensions><gom:speed>0.809</gom:speed></extensions></trkpt>
   <trkpt lat="59.0702511577" lon="30.0287414831"><ele>79.207</ele><time>2026-04-20T19:05:04.075Z</time><hdop>4.125</hdop><vdop>3.75</vdop><extensions><gom:speed>0.857</gom:speed></extensions></trkpt>
   <trkpt lat="59.0702574441" lon="30.0287413992"><ele>78.925</ele><time>2026-04-20T19:05:04.816Z</time><hdop>4.125</hdop><vdop>3.75</vdop><extensions><gom:speed>0.85</gom:speed></extensions></trkpt>
   <trkpt lat="59.0702669576" lon="30.0287424051"><ele>78.728</ele><time>2026-04-20T19:05:05.636Z</time><hdop>4.125</hdop><vdop>3.75</vdop><extensions><gom:speed>0.835</gom:speed></extensions></trkpt>
   <trkpt lat="59.0702764291" lon="30.0287436624"><ele>78.755</ele><time>2026-04-20T19:05:06.417Z</time><hdop>4.125</hdop><vdop>3.625</vdop><extensions><gom:speed>0.858</gom:speed></extensions></trkpt>
   <trkpt lat="59.0702840567" lon="30.0287453387"><ele>78.764</ele><time>2026-04-20T19:05:07.075Z</time><hdop>4.25</hdop><vdop>3.625</vdop><extensions><gom:speed>0.867</gom:speed></extensions></trkpt>
   <trkpt lat="59.0702925224" lon="30.028746596"><ele>78.769</ele><time>2026-04-20T19:05:07.897Z</time><hdop>4.25</hdop><vdop>3.625</vdop><extensions><gom:speed>0.889</gom:speed></extensions></trkpt>
   <trkpt lat="59.0703016168" lon="30.0287470989"><ele>78.867</ele><time>2026-04-20T19:05:08.676Z</time><hdop>4.375</hdop><vdop>3.5</vdop><extensions><gom:speed>0.901</gom:speed></extensions></trkpt>
   <trkpt lat="59.0703109207" lon="30.0287476857"><ele>78.541</ele><time>2026-04-20T19:05:09.417Z</time><hdop>4.375</hdop><vdop>3.375</vdop><extensions><gom:speed>0.923</gom:speed></extensions></trkpt>
   <trkpt lat="59.0703210209" lon="30.0287486915"><ele>78.145</ele><time>2026-04-20T19:05:10.075Z</time><hdop>4.5</hdop><vdop>3.25</vdop><extensions><gom:speed>0.922</gom:speed></extensions></trkpt>
   <trkpt lat="59.0703278521" lon="30.0287488591"><ele>77.908</ele><time>2026-04-20T19:05:10.898Z</time><hdop>4.5</hdop><vdop>3.25</vdop><extensions><gom:speed>0.939</gom:speed></extensions></trkpt>
   <trkpt lat="59.070334851" lon="30.0287491944"><ele>77.594</ele><time>2026-04-20T19:05:11.623Z</time><hdop>4.625</hdop><vdop>3.125</vdop><extensions><gom:speed>0.948</gom:speed></extensions></trkpt>
   <trkpt lat="59.0703391258" lon="30.0287494459"><ele>77.411</ele><time>2026-04-20T19:05:12.075Z</time><hdop>4.625</hdop><vdop>3.125</vdop><extensions><gom:speed>0.948</gom:speed></extensions></trkpt>
   <trkpt lat="59.0703488488" lon="30.0287486915"><ele>77.058</ele><time>2026-04-20T19:05:13.075Z</time><hdop>4.625</hdop><vdop>3.0</vdop><extensions><gom:speed>0.978</gom:speed></extensions></trkpt>
   <trkpt lat="59.0703570211" lon="30.0287452549"><ele>76.847</ele><time>2026-04-20T19:05:13.958Z</time><hdop>4.75</hdop><vdop>3.0</vdop><extensions><gom:speed>0.973</gom:speed></extensions></trkpt>
   <trkpt lat="59.0703631399" lon="30.0287419022"><ele>76.642</ele><time>2026-04-20T19:05:14.659Z</time><hdop>4.75</hdop><vdop>3.0</vdop><extensions><gom:speed>0.964</gom:speed></extensions></trkpt>
   <trkpt lat="59.0703701388" lon="30.0287399743"><ele>76.416</ele><time>2026-04-20T19:05:15.420Z</time><hdop>4.75</hdop><vdop>3.0</vdop><extensions><gom:speed>0.957</gom:speed></extensions></trkpt>
   <trkpt lat="59.0703722343" lon="30.0287393876"><ele>76.281</ele><time>2026-04-20T19:05:16.009Z</time><hdop>4.75</hdop><vdop>3.0</vdop><extensions><gom:speed>0.956</gom:speed></extensions></trkpt>
   <trkpt lat="59.0703839271" lon="30.0287375436"><ele>76.04</ele><time>2026-04-20T19:05:16.940Z</time><hdop>4.625</hdop><vdop>3.0</vdop><extensions><gom:speed>0.969</gom:speed></extensions></trkpt>
   <trkpt lat="59.0703898363" lon="30.0287369568"><ele>75.946</ele><time>2026-04-20T19:05:17.740Z</time><hdop>4.75</hdop><vdop>3.0</vdop><extensions><gom:speed>0.948</gom:speed></extensions></trkpt>
   <trkpt lat="59.0703950331" lon="30.0287341908"><ele>75.334</ele><time>2026-04-20T19:05:18.499Z</time><hdop>4.75</hdop><vdop>3.0</vdop><extensions><gom:speed>0.92</gom:speed></extensions></trkpt>
   <trkpt lat="59.0703990564" lon="30.0287315086"><ele>74.792</ele><time>2026-04-20T19:05:19.075Z</time><hdop>4.75</hdop><vdop>2.875</vdop><extensions><gom:speed>0.924</gom:speed></extensions></trkpt>
   <trkpt lat="59.0704068516" lon="30.0287277367"><ele>74.469</ele><time>2026-04-20T19:05:20.000Z</time><hdop>4.75</hdop><vdop>2.875</vdop><extensions><gom:speed>0.923</gom:speed></extensions></trkpt>
   <trkpt lat="59.0704119226" lon="30.028724384"><ele>74.12</ele><time>2026-04-20T19:05:20.820Z</time><hdop>4.875</hdop><vdop>3.0</vdop><extensions><gom:speed>0.893</gom:speed></extensions></trkpt>
   <trkpt lat="59.0704162393" lon="30.0287217018"><ele>73.992</ele><time>2026-04-20T19:05:21.678Z</time><hdop>4.875</hdop><vdop>3.0</vdop><extensions><gom:speed>0.873</gom:speed></extensions></trkpt>
   <trkpt lat="59.0704178319" lon="30.028721115"><ele>73.917</ele><time>2026-04-20T19:05:22.169Z</time><hdop>4.875</hdop><vdop>3.125</vdop><extensions><gom:speed>0.892</gom:speed></extensions></trkpt>
   <trkpt lat="59.0704244536" lon="30.0287202769"><ele>74.058</ele><time>2026-04-20T19:05:23.075Z</time><hdop>5.0</hdop><vdop>3.125</vdop><extensions><gom:speed>0.862</gom:speed></extensions></trkpt>
   <trkpt lat="59.0704309495" lon="30.028716505"><ele>74.142</ele><time>2026-04-20T19:05:23.982Z</time><hdop>5.0</hdop><vdop>3.125</vdop><extensions><gom:speed>0.907</gom:speed></extensions></trkpt>
   <trkpt lat="59.0704360206" lon="30.0287163374"><ele>74.256</ele><time>2026-04-20T19:05:24.758Z</time><hdop>5.125</hdop><vdop>3.0</vdop><extensions><gom:speed>0.912</gom:speed></extensions></trkpt>
   <trkpt lat="59.0704413431" lon="30.0287187681"><ele>73.968</ele><time>2026-04-20T19:05:25.598Z</time><hdop>5.125</hdop><vdop>3.0</vdop><extensions><gom:speed>0.91</gom:speed></extensions></trkpt>
   <trkpt lat="59.0704437319" lon="30.0287218694"><ele>73.792</ele><time>2026-04-20T19:05:26.075Z</time><hdop>5.125</hdop><vdop>2.875</vdop><extensions><gom:speed>0.901</gom:speed></extensions></trkpt>
   <trkpt lat="59.0704498507" lon="30.0287245516"><ele>73.426</ele><time>2026-04-20T19:05:27.075Z</time><hdop>5.125</hdop><vdop>2.875</vdop><extensions><gom:speed>0.881</gom:speed></extensions></trkpt>
   <trkpt lat="59.0704566401" lon="30.0287251384"><ele>73.207</ele><time>2026-04-20T19:05:27.877Z</time><hdop>5.125</hdop><vdop>2.875</vdop><extensions><gom:speed>0.924</gom:speed></extensions></trkpt>
   <trkpt lat="59.0704579393" lon="30.0287287426"><ele>73.281</ele><time>2026-04-20T19:05:28.351Z</time><hdop>5.125</hdop><vdop>3.0</vdop><extensions><gom:speed>0.924</gom:speed></extensions></trkpt>
   <trkpt lat="59.0704652315" lon="30.0287315086"><ele>73.193</ele><time>2026-04-20T19:05:29.075Z</time><hdop>5.125</hdop><vdop>3.0</vdop><extensions><gom:speed>0.909</gom:speed></extensions></trkpt>
   <trkpt lat="59.0704714341" lon="30.0287351128"><ele>73.094</ele><time>2026-04-20T19:05:30.076Z</time><hdop>5.125</hdop><vdop>3.125</vdop><extensions><gom:speed>0.898</gom:speed></extensions></trkpt>
   <trkpt lat="59.0704788521" lon="30.0287363701"><ele>73.034</ele><time>2026-04-20T19:05:30.957Z</time><hdop>5.125</hdop><vdop>3.125</vdop><extensions><gom:speed>0.919</gom:speed></extensions></trkpt>
   <trkpt lat="59.0704848452" lon="30.0287404772"><ele>72.586</ele><time>2026-04-20T19:05:31.700Z</time><hdop>5.125</hdop><vdop>3.25</vdop><extensions><gom:speed>0.919</gom:speed></extensions></trkpt>
   <trkpt lat="59.0704905449" lon="30.0287435785"><ele>72.457</ele><time>2026-04-20T19:05:32.438Z</time><hdop>5.125</hdop><vdop>3.25</vdop><extensions><gom:speed>0.923</gom:speed></extensions></trkpt>
   <trkpt lat="59.0704955321" lon="30.0287452549"><ele>72.255</ele><time>2026-04-20T19:05:33.076Z</time><hdop>5.125</hdop><vdop>3.25</vdop><extensions><gom:speed>0.927</gom:speed></extensions></trkpt>
   <trkpt lat="59.0705027405" lon="30.0287476019"><ele>72.135</ele><time>2026-04-20T19:05:33.899Z</time><hdop>5.0</hdop><vdop>3.25</vdop><extensions><gom:speed>0.912</gom:speed></extensions></trkpt>
   <trkpt lat="59.0705045426" lon="30.0287491944"><ele>71.426</ele><time>2026-04-20T19:05:34.490Z</time><hdop>5.0</hdop><vdop>3.25</vdop><extensions><gom:speed>0.911</gom:speed></extensions></trkpt>
   <trkpt lat="59.0705120444" lon="30.0287520443"><ele>70.805</ele><time>2026-04-20T19:05:35.075Z</time><hdop>5.0</hdop><vdop>3.25</vdop><extensions><gom:speed>0.897</gom:speed></extensions></trkpt>
   <trkpt lat="59.0705185404" lon="30.0287513737"><ele>69.684</ele><time>2026-04-20T19:05:36.076Z</time><hdop>5.0</hdop><vdop>3.25</vdop><extensions><gom:speed>0.854</gom:speed></extensions></trkpt>
   <trkpt lat="59.0705245335" lon="30.0287514575"><ele>68.589</ele><time>2026-04-20T19:05:37.076Z</time><hdop>4.875</hdop><vdop>3.25</vdop><extensions><gom:speed>0.837</gom:speed></extensions></trkpt>
   <trkpt lat="59.0705309456" lon="30.0287514575"><ele>67.935</ele><time>2026-04-20T19:05:37.897Z</time><hdop>4.875</hdop><vdop>3.25</vdop><extensions><gom:speed>0.851</gom:speed></extensions></trkpt>
   <trkpt lat="59.0705368549" lon="30.0287518766"><ele>66.908</ele><time>2026-04-20T19:05:38.658Z</time><hdop>4.75</hdop><vdop>3.25</vdop><extensions><gom:speed>0.914</gom:speed></extensions></trkpt>
   <trkpt lat="59.0705427222" lon="30.0287510384"><ele>65.872</ele><time>2026-04-20T19:05:39.419Z</time><hdop>4.75</hdop><vdop>3.125</vdop><extensions><gom:speed>0.901</gom:speed></extensions></trkpt>
   <trkpt lat="59.070547458" lon="30.0287508708"><ele>65.089</ele><time>2026-04-20T19:05:40.075Z</time><hdop>4.625</hdop><vdop>3.0</vdop><extensions><gom:speed>0.897</gom:speed></extensions></trkpt>
   <trkpt lat="59.0705493439" lon="30.0287505355"><ele>64.621</ele><time>2026-04-20T19:05:40.649Z</time><hdop>4.625</hdop><vdop>3.0</vdop><extensions><gom:speed>0.889</gom:speed></extensions></trkpt>
   <trkpt lat="59.0705609528" lon="30.0287463446"><ele>63.817</ele><time>2026-04-20T19:05:41.836Z</time><hdop>4.625</hdop><vdop>2.875</vdop><extensions><gom:speed>0.867</gom:speed></extensions></trkpt>
   <trkpt lat="59.0705650181" lon="30.0287420698"><ele>63.155</ele><time>2026-04-20T19:05:42.676Z</time><hdop>4.625</hdop><vdop>2.875</vdop><extensions><gom:speed>0.833</gom:speed></extensions></trkpt>
   <trkpt lat="59.0705679517" lon="30.0287384656"><ele>62.429</ele><time>2026-04-20T19:05:43.515Z</time><hdop>4.625</hdop><vdop>2.75</vdop><extensions><gom:speed>0.783</gom:speed></extensions></trkpt>
   <trkpt lat="59.0705694186" lon="30.0287351966"><ele>61.906</ele><time>2026-04-20T19:05:44.075Z</time><hdop>4.625</hdop><vdop>3.0</vdop><extensions><gom:speed>0.765</gom:speed></extensions></trkpt>
   <trkpt lat="59.0705722265" lon="30.0287284911"><ele>61.436</ele><time>2026-04-20T19:05:45.075Z</time><hdop>4.625</hdop><vdop>3.125</vdop><extensions><gom:speed>0.699</gom:speed></extensions></trkpt>
   <trkpt lat="59.0705776328" lon="30.0287243002"><ele>61.155</ele><time>2026-04-20T19:05:46.083Z</time><hdop>4.75</hdop><vdop>3.125</vdop><extensions><gom:speed>0.683</gom:speed></extensions></trkpt>
   <trkpt lat="59.0705810275" lon="30.0287244678"><ele>61.304</ele><time>2026-04-20T19:05:46.902Z</time><hdop>4.75</hdop><vdop>3.375</vdop><extensions><gom:speed>0.692</gom:speed></extensions></trkpt>
   <trkpt lat="59.0705842545" lon="30.0287281558"><ele>61.659</ele><time>2026-04-20T19:05:47.780Z</time><hdop>4.875</hdop><vdop>3.625</vdop><extensions><gom:speed>0.72</gom:speed></extensions></trkpt>
   <trkpt lat="59.0705868529" lon="30.0287294969"><ele>61.633</ele><time>2026-04-20T19:05:48.521Z</time><hdop>4.875</hdop><vdop>3.875</vdop><extensions><gom:speed>0.77</gom:speed></extensions></trkpt>
   <trkpt lat="59.0705915468" lon="30.0287274853"><ele>61.515</ele><time>2026-04-20T19:05:49.201Z</time><hdop>5.0</hdop><vdop>3.875</vdop><extensions><gom:speed>0.772</gom:speed></extensions></trkpt>
   <trkpt lat="59.0705982523" lon="30.028724384"><ele>61.089</ele><time>2026-04-20T19:05:50.008Z</time><hdop>5.0</hdop><vdop>3.875</vdop><extensions><gom:speed>0.795</gom:speed></extensions></trkpt>
   <trkpt lat="59.0706064247" lon="30.0287208636"><ele>60.835</ele><time>2026-04-20T19:05:51.058Z</time><hdop>5.25</hdop><vdop>3.875</vdop><extensions><gom:speed>0.777</gom:speed></extensions></trkpt>
   <trkpt lat="59.0706084363" lon="30.0287194387"><ele>60.983</ele><time>2026-04-20T19:05:51.939Z</time><hdop>5.375</hdop><vdop>4.125</vdop><extensions><gom:speed>0.772</gom:speed></extensions></trkpt>
   <trkpt lat="59.0706085201" lon="30.0287180137"><ele>61.151</ele><time>2026-04-20T19:05:52.656Z</time><hdop>5.5</hdop><vdop>4.0</vdop><extensions><gom:speed>0.791</gom:speed></extensions></trkpt>
   <trkpt lat="59.0706106575" lon="30.0287134875"><ele>60.911</ele><time>2026-04-20T19:05:53.575Z</time><hdop>5.625</hdop><vdop>4.0</vdop><extensions><gom:speed>0.764</gom:speed></extensions></trkpt>
   <trkpt lat="59.0706099451" lon="30.0287120626"><ele>60.836</ele><time>2026-04-20T19:05:54.075Z</time><hdop>5.625</hdop><vdop>9.375</vdop><extensions><gom:speed>0.758</gom:speed></extensions></trkpt>
   <trkpt lat="59.0706110347" lon="30.0287092127"><ele>60.552</ele><time>2026-04-20T19:05:55.075Z</time><hdop>5.75</hdop><vdop>9.0</vdop><extensions><gom:speed>0.757</gom:speed></extensions></trkpt>
   <trkpt lat="59.0706153514" lon="30.028704938"><ele>60.382</ele><time>2026-04-20T19:05:55.973Z</time><hdop>5.875</hdop><vdop>9.0</vdop><extensions><gom:speed>0.764</gom:speed></extensions></trkpt>
   <trkpt lat="59.0706205482" lon="30.028698903"><ele>60.264</ele><time>2026-04-20T19:05:56.773Z</time><hdop>6.0</hdop><vdop>8.625</vdop><extensions><gom:speed>0.768</gom:speed></extensions></trkpt>
   <trkpt lat="59.0706256192" lon="30.0286930357"><ele>60.104</ele><time>2026-04-20T19:05:57.474Z</time><hdop>6.125</hdop><vdop>8.375</vdop><extensions><gom:speed>0.816</gom:speed></extensions></trkpt>
   <trkpt lat="59.070625745" lon="30.0286857434"><ele>60.36</ele><time>2026-04-20T19:05:58.075Z</time><hdop>6.125</hdop><vdop>7.25</vdop><extensions><gom:speed>0.8</gom:speed></extensions></trkpt>
   <trkpt lat="59.0706288463" lon="30.0286771101"><ele>60.514</ele><time>2026-04-20T19:05:58.915Z</time><hdop>6.375</hdop><vdop>7.25</vdop><extensions><gom:speed>0.855</gom:speed></extensions></trkpt>
   <trkpt lat="59.0706299359" lon="30.0286605977"><ele>60.775</ele><time>2026-04-20T19:05:59.597Z</time><hdop>6.5</hdop><vdop>8.625</vdop><extensions><gom:speed>0.89</gom:speed></extensions></trkpt>
   <trkpt lat="59.0706285529" lon="30.0286544789"><ele>61.443</ele><time>2026-04-20T19:06:00.075Z</time><hdop>6.375</hdop><vdop>8.5</vdop><extensions><gom:speed>0.883</gom:speed></extensions></trkpt>
   <trkpt lat="59.0706336239" lon="30.0286431633"><ele>61.842</ele><time>2026-04-20T19:06:01.059Z</time><hdop>6.5</hdop><vdop>8.5</vdop><extensions><gom:speed>0.944</gom:speed></extensions></trkpt>
   <trkpt lat="59.0706372282" lon="30.0286331889"><ele>61.815</ele><time>2026-04-20T19:06:01.838Z</time><hdop>6.375</hdop><vdop>7.375</vdop><extensions><gom:speed>0.954</gom:speed></extensions></trkpt>
   <trkpt lat="59.0706407486" lon="30.0286258966"><ele>62.346</ele><time>2026-04-20T19:06:02.519Z</time><hdop>6.25</hdop><vdop>6.5</vdop><extensions><gom:speed>0.873</gom:speed></extensions></trkpt>
   <trkpt lat="59.0706439337" lon="30.0286217895"><ele>62.966</ele><time>2026-04-20T19:06:03.076Z</time><hdop>6.25</hdop><vdop>5.875</vdop><extensions><gom:speed>0.863</gom:speed></extensions></trkpt>
   <trkpt lat="59.0706513517" lon="30.0286188558"><ele>63.337</ele><time>2026-04-20T19:06:04.098Z</time><hdop>6.0</hdop><vdop>5.875</vdop><extensions><gom:speed>0.833</gom:speed></extensions></trkpt>
   <trkpt lat="59.0706571352" lon="30.0286145811"><ele>64.51</ele><time>2026-04-20T19:06:04.819Z</time><hdop>5.875</hdop><vdop>5.125</vdop><extensions><gom:speed>0.836</gom:speed></extensions></trkpt>
   <trkpt lat="59.0706606556" lon="30.0286096357"><ele>65.869</ele><time>2026-04-20T19:06:05.408Z</time><hdop>5.75</hdop><vdop>5.125</vdop><extensions><gom:speed>0.824</gom:speed></extensions></trkpt>
   <trkpt lat="59.0706694566" lon="30.0286027626"><ele>65.769</ele><time>2026-04-20T19:06:06.076Z</time><hdop>5.5</hdop><vdop>5.0</vdop><extensions><gom:speed>0.81</gom:speed></extensions></trkpt>
   <trkpt lat="59.0706779223" lon="30.0285975658"><ele>65.47</ele><time>2026-04-20T19:06:07.075Z</time><hdop>5.375</hdop><vdop>4.75</vdop><extensions><gom:speed>0.812</gom:speed></extensions></trkpt>
   <trkpt lat="59.0706854241" lon="30.028592369"><ele>65.291</ele><time>2026-04-20T19:06:07.899Z</time><hdop>5.25</hdop><vdop>4.75</vdop><extensions><gom:speed>0.824</gom:speed></extensions></trkpt>
   <trkpt lat="59.0706920458" lon="30.0285883457"><ele>65.294</ele><time>2026-04-20T19:06:08.698Z</time><hdop>5.25</hdop><vdop>8.125</vdop><extensions><gom:speed>0.816</gom:speed></extensions></trkpt>
   <trkpt lat="59.0706976198" lon="30.0285839871"><ele>65.191</ele><time>2026-04-20T19:06:09.478Z</time><hdop>5.25</hdop><vdop>8.0</vdop><extensions><gom:speed>0.827</gom:speed></extensions></trkpt>
   <trkpt lat="59.070701224" lon="30.0285813887"><ele>64.812</ele><time>2026-04-20T19:06:10.076Z</time><hdop>5.25</hdop><vdop>7.75</vdop><extensions><gom:speed>0.817</gom:speed></extensions></trkpt>
   <trkpt lat="59.0707071332" lon="30.0285752699"><ele>64.586</ele><time>2026-04-20T19:06:10.959Z</time><hdop>5.25</hdop><vdop>7.75</vdop><extensions><gom:speed>0.848</gom:speed></extensions></trkpt>
   <trkpt lat="59.0707092287" lon="30.0285736774"><ele>64.449</ele><time>2026-04-20T19:06:11.570Z</time><hdop>5.25</hdop><vdop>7.625</vdop><extensions><gom:speed>0.841</gom:speed></extensions></trkpt>
   <trkpt lat="59.0707171496" lon="30.0285660498"><ele>64.342</ele><time>2026-04-20T19:06:12.042Z</time><hdop>5.375</hdop><vdop>7.5</vdop><extensions><gom:speed>0.836</gom:speed></extensions></trkpt>
   <trkpt lat="59.0707218435" lon="30.0285609369"><ele>64.277</ele><time>2026-04-20T19:06:12.716Z</time><hdop>5.5</hdop><vdop>7.5</vdop><extensions><gom:speed>0.837</gom:speed></extensions></trkpt>
   <trkpt lat="59.0707245257" lon="30.0285587576"><ele>62.846</ele><time>2026-04-20T19:06:13.438Z</time><hdop>5.5</hdop><vdop>6.5</vdop><extensions><gom:speed>0.876</gom:speed></extensions></trkpt>
   <trkpt lat="59.0707278365" lon="30.0285549019"><ele>62.926</ele><time>2026-04-20T19:06:14.075Z</time><hdop>5.5</hdop><vdop>5.5</vdop><extensions><gom:speed>0.901</gom:speed></extensions></trkpt>
   <trkpt lat="59.0707336201" lon="30.0285478611"><ele>62.974</ele><time>2026-04-20T19:06:14.921Z</time><hdop>5.625</hdop><vdop>5.5</vdop><extensions><gom:speed>0.919</gom:speed></extensions></trkpt>
   <trkpt lat="59.0707380206" lon="30.0285400659"><ele>63.44</ele><time>2026-04-20T19:06:15.758Z</time><hdop>5.625</hdop><vdop>4.875</vdop><extensions><gom:speed>0.888</gom:speed></extensions></trkpt>
   <trkpt lat="59.0707433431" lon="30.028533109"><ele>64.837</ele><time>2026-04-20T19:06:16.537Z</time><hdop>5.75</hdop><vdop>4.75</vdop><extensions><gom:speed>0.907</gom:speed></extensions></trkpt>
   <trkpt lat="59.0707480369" lon="30.0285286665"><ele>66.428</ele><time>2026-04-20T19:06:17.075Z</time><hdop>5.625</hdop><vdop>4.25</vdop><extensions><gom:speed>0.918</gom:speed></extensions></trkpt>
   <trkpt lat="59.0707564188" lon="30.0285224639"><ele>67.378</ele><time>2026-04-20T19:06:17.979Z</time><hdop>5.625</hdop><vdop>4.25</vdop><extensions><gom:speed>0.947</gom:speed></extensions></trkpt>
   <trkpt lat="59.070768824" lon="30.028517351"><ele>68.934</ele><time>2026-04-20T19:06:18.738Z</time><hdop>5.625</hdop><vdop>3.75</vdop><extensions><gom:speed>0.931</gom:speed></extensions></trkpt>
   <trkpt lat="59.0707767449" lon="30.0285134115"><ele>70.765</ele><time>2026-04-20T19:06:19.558Z</time><hdop>5.625</hdop><vdop>3.625</vdop><extensions><gom:speed>0.917</gom:speed></extensions></trkpt>
   <trkpt lat="59.0707834505" lon="30.0285096396"><ele>72.649</ele><time>2026-04-20T19:06:20.075Z</time><hdop>5.5</hdop><vdop>3.625</vdop><extensions><gom:speed>0.93</gom:speed></extensions></trkpt>
   <trkpt lat="59.0707931316" lon="30.0285033532"><ele>73.775</ele><time>2026-04-20T19:06:21.001Z</time><hdop>5.5</hdop><vdop>3.625</vdop><extensions><gom:speed>0.936</gom:speed></extensions></trkpt>
   <trkpt lat="59.0708027288" lon="30.028497905"><ele>74.761</ele><time>2026-04-20T19:06:21.681Z</time><hdop>5.375</hdop><vdop>3.625</vdop><extensions><gom:speed>0.961</gom:speed></extensions></trkpt>
   <trkpt lat="59.0708153436" lon="30.0284908642"><ele>74.979</ele><time>2026-04-20T19:06:22.540Z</time><hdop>5.375</hdop><vdop>3.75</vdop><extensions><gom:speed>0.944</gom:speed></extensions></trkpt>
   <trkpt lat="59.0708234321" lon="30.0284852483"><ele>75.693</ele><time>2026-04-20T19:06:23.075Z</time><hdop>5.25</hdop><vdop>3.75</vdop><extensions><gom:speed>0.95</gom:speed></extensions></trkpt>
   <trkpt lat="59.0708363403" lon="30.0284767826"><ele>75.936</ele><time>2026-04-20T19:06:24.075Z</time><hdop>5.125</hdop><vdop>3.875</vdop><extensions><gom:speed>0.877</gom:speed></extensions></trkpt>
   <trkpt lat="59.0708470272" lon="30.0284675625"><ele>76.082</ele><time>2026-04-20T19:06:24.919Z</time><hdop>4.875</hdop><vdop>3.875</vdop><extensions><gom:speed>0.906</gom:speed></extensions></trkpt>
   <trkpt lat="59.0708557444" lon="30.0284616113"><ele>76.215</ele><time>2026-04-20T19:06:25.679Z</time><hdop>4.875</hdop><vdop>4.0</vdop><extensions><gom:speed>0.914</gom:speed></extensions></trkpt>
   <trkpt lat="59.0708659284" lon="30.0284546543"><ele>76.052</ele><time>2026-04-20T19:06:26.478Z</time><hdop>4.75</hdop><vdop>4.125</vdop><extensions><gom:speed>0.889</gom:speed></extensions></trkpt>
   <trkpt lat="59.0708709575" lon="30.0284511339"><ele>75.341</ele><time>2026-04-20T19:06:26.970Z</time><hdop>4.75</hdop><vdop>4.125</vdop><extensions><gom:speed>0.889</gom:speed></extensions></trkpt>
   <trkpt lat="59.070879549" lon="30.0284466915"><ele>74.916</ele><time>2026-04-20T19:06:27.978Z</time><hdop>4.875</hdop><vdop>4.125</vdop><extensions><gom:speed>0.879</gom:speed></extensions></trkpt>
   <trkpt lat="59.0708876375" lon="30.0284410757"><ele>74.732</ele><time>2026-04-20T19:06:28.956Z</time><hdop>5.0</hdop><vdop>4.0</vdop><extensions><gom:speed>0.875</gom:speed></extensions></trkpt>
   <trkpt lat="59.0708937563" lon="30.0284373038"><ele>74.332</ele><time>2026-04-20T19:06:29.617Z</time><hdop>5.125</hdop><vdop>3.75</vdop><extensions><gom:speed>0.879</gom:speed></extensions></trkpt>
   <trkpt lat="59.0708969414" lon="30.0284357112"><ele>74.202</ele><time>2026-04-20T19:06:30.075Z</time><hdop>5.25</hdop><vdop>8.25</vdop><extensions><gom:speed>0.878</gom:speed></extensions></trkpt>
   <trkpt lat="59.0709072512" lon="30.028425653"><ele>74.124</ele><time>2026-04-20T19:06:31.079Z</time><hdop>5.5</hdop><vdop>8.25</vdop><extensions><gom:speed>0.898</gom:speed></extensions></trkpt>
   <trkpt lat="59.0709123222" lon="30.0284212944"><ele>74.136</ele><time>2026-04-20T19:06:31.802Z</time><hdop>5.5</hdop><vdop>7.875</vdop><extensions><gom:speed>0.924</gom:speed></extensions></trkpt>
   <trkpt lat="59.0709179381" lon="30.0284151756"><ele>74.069</ele><time>2026-04-20T19:06:32.599Z</time><hdop>5.625</hdop><vdop>7.5</vdop><extensions><gom:speed>0.931</gom:speed></extensions></trkpt>
   <trkpt lat="59.0709243503" lon="30.0284086377"><ele>74.136</ele><time>2026-04-20T19:06:33.359Z</time><hdop>5.75</hdop><vdop>7.125</vdop><extensions><gom:speed>0.919</gom:speed></extensions></trkpt>
   <trkpt lat="59.0709280383" lon="30.0284093082"><ele>74.24</ele><time>2026-04-20T19:06:34.075Z</time><hdop>5.75</hdop><vdop>7.0</vdop><extensions><gom:speed>0.907</gom:speed></extensions></trkpt>
   <trkpt lat="59.0709336542" lon="30.0284085539"><ele>74.302</ele><time>2026-04-20T19:06:34.840Z</time><hdop>5.875</hdop><vdop>7.0</vdop><extensions><gom:speed>0.902</gom:speed></extensions></trkpt>
   <trkpt lat="59.0709393539" lon="30.0284054526"><ele>74.306</ele><time>2026-04-20T19:06:35.540Z</time><hdop>6.0</hdop><vdop>7.125</vdop><extensions><gom:speed>0.905</gom:speed></extensions></trkpt>
   <trkpt lat="59.0709410302" lon="30.0284081348"><ele>74.292</ele><time>2026-04-20T19:06:36.075Z</time><hdop>6.0</hdop><vdop>7.125</vdop><extensions><gom:speed>0.894</gom:speed></extensions></trkpt>
   <trkpt lat="59.0709415332" lon="30.0284093921"><ele>74.284</ele><time>2026-04-20T19:06:36.683Z</time><hdop>6.0</hdop><vdop>7.125</vdop><extensions><gom:speed>0.905</gom:speed></extensions></trkpt>
   <trkpt lat="59.0709493283" lon="30.0284072128"><ele>73.567</ele><time>2026-04-20T19:06:37.673Z</time><hdop>6.0</hdop><vdop>6.25</vdop><extensions><gom:speed>0.933</gom:speed></extensions></trkpt>
   <trkpt lat="59.0709538546" lon="30.0284064584"><ele>74.9</ele><time>2026-04-20T19:06:38.433Z</time><hdop>5.75</hdop><vdop>5.25</vdop><extensions><gom:speed>0.939</gom:speed></extensions></trkpt>
   <trkpt lat="59.0709594285" lon="30.028404782"><ele>78.886</ele><time>2026-04-20T19:06:39.075Z</time><hdop>5.75</hdop><vdop>4.375</vdop><extensions><gom:speed>0.925</gom:speed></extensions></trkpt>
   <trkpt lat="59.0709663436" lon="30.0284016807"><ele>81.268</ele><time>2026-04-20T19:06:39.835Z</time><hdop>5.625</hdop><vdop>4.375</vdop><extensions><gom:speed>0.931</gom:speed></extensions></trkpt>
   <trkpt lat="59.0709744321" lon="30.0284034409"><ele>82.898</ele><time>2026-04-20T19:06:40.516Z</time><hdop>5.5</hdop><vdop>3.75</vdop><extensions><gom:speed>0.934</gom:speed></extensions></trkpt>
   <trkpt lat="59.0709822273" lon="30.0284026027"><ele>84.615</ele><time>2026-04-20T19:06:41.075Z</time><hdop>5.375</hdop><vdop>7.875</vdop><extensions><gom:speed>0.94</gom:speed></extensions></trkpt>
   <trkpt lat="59.0709920341" lon="30.0283964839"><ele>85.642</ele><time>2026-04-20T19:06:42.016Z</time><hdop>5.125</hdop><vdop>7.875</vdop><extensions><gom:speed>0.926</gom:speed></extensions></trkpt>
   <trkpt lat="59.0710030563" lon="30.0283912033"><ele>86.974</ele><time>2026-04-20T19:06:42.837Z</time><hdop>5.125</hdop><vdop>8.125</vdop><extensions><gom:speed>0.904</gom:speed></extensions></trkpt>
   <trkpt lat="59.0710177247" lon="30.0283888564"><ele>88.322</ele><time>2026-04-20T19:06:43.735Z</time><hdop>5.125</hdop><vdop>8.25</vdop><extensions><gom:speed>0.857</gom:speed></extensions></trkpt>
   <trkpt lat="59.0710282439" lon="30.0283905328"><ele>89.367</ele><time>2026-04-20T19:06:44.435Z</time><hdop>5.125</hdop><vdop>8.375</vdop><extensions><gom:speed>0.843</gom:speed></extensions></trkpt>
   <trkpt lat="59.0710382184" lon="30.0283917062"><ele>89.983</ele><time>2026-04-20T19:06:45.075Z</time><hdop>5.125</hdop><vdop>8.0</vdop><extensions><gom:speed>0.854</gom:speed></extensions></trkpt>
   <trkpt lat="59.0710483186" lon="30.028390449"><ele>90.352</ele><time>2026-04-20T19:06:46.035Z</time><hdop>5.0</hdop><vdop>8.0</vdop><extensions><gom:speed>0.862</gom:speed></extensions></trkpt>
   <trkpt lat="59.0710587541" lon="30.02838718"><ele>91.04</ele><time>2026-04-20T19:06:46.874Z</time><hdop>5.0</hdop><vdop>8.375</vdop><extensions><gom:speed>0.846</gom:speed></extensions></trkpt>
   <trkpt lat="59.0710686447" lon="30.0283830729"><ele>91.407</ele><time>2026-04-20T19:06:47.654Z</time><hdop>5.0</hdop><vdop>8.75</vdop><extensions><gom:speed>0.863</gom:speed></extensions></trkpt>
   <trkpt lat="59.0710783258" lon="30.0283803907"><ele>91.69</ele><time>2026-04-20T19:06:48.374Z</time><hdop>5.0</hdop><vdop>8.875</vdop><extensions><gom:speed>0.87</gom:speed></extensions></trkpt>
   <trkpt lat="59.0710875459" lon="30.0283787981"><ele>91.917</ele><time>2026-04-20T19:06:49.076Z</time><hdop>5.0</hdop><vdop>8.875</vdop><extensions><gom:speed>0.912</gom:speed></extensions></trkpt>
   <trkpt lat="59.0711001188" lon="30.0283761159"><ele>92.052</ele><time>2026-04-20T19:06:49.894Z</time><hdop>5.0</hdop><vdop>8.875</vdop><extensions><gom:speed>0.939</gom:speed></extensions></trkpt>
   <trkpt lat="59.07110695" lon="30.0283739366"><ele>92.01</ele><time>2026-04-20T19:06:50.616Z</time><hdop>5.0</hdop><vdop>8.75</vdop><extensions><gom:speed>0.924</gom:speed></extensions></trkpt>
   <trkpt lat="59.0711122306" lon="30.0283723441"><ele>91.976</ele><time>2026-04-20T19:06:51.075Z</time><hdop>5.0</hdop><vdop>8.5</vdop><extensions><gom:speed>0.93</gom:speed></extensions></trkpt>
   <trkpt lat="59.0711209478" lon="30.0283673987"><ele>92.031</ele><time>2026-04-20T19:06:51.966Z</time><hdop>5.0</hdop><vdop>8.25</vdop><extensions><gom:speed>0.921</gom:speed></extensions></trkpt>
   <trkpt lat="59.0711282401" lon="30.0283617829"><ele>92.064</ele><time>2026-04-20T19:06:52.856Z</time><hdop>5.125</hdop><vdop>8.25</vdop><extensions><gom:speed>0.911</gom:speed></extensions></trkpt>
   <trkpt lat="59.071135658" lon="30.0283562508"><ele>92.086</ele><time>2026-04-20T19:06:53.597Z</time><hdop>5.375</hdop><vdop>7.875</vdop><extensions><gom:speed>0.918</gom:speed></extensions></trkpt>
   <trkpt lat="59.071142154" lon="30.028352898"><ele>92.159</ele><time>2026-04-20T19:06:54.317Z</time><hdop>5.5</hdop><vdop>7.5</vdop><extensions><gom:speed>0.934</gom:speed></extensions></trkpt>
   <trkpt lat="59.0711482309" lon="30.0283530657"><ele>92.198</ele><time>2026-04-20T19:06:55.045Z</time><hdop>5.625</hdop><vdop>7.5</vdop><extensions><gom:speed>0.939</gom:speed></extensions></trkpt>
   <trkpt lat="59.0711558165" lon="30.0283717573"><ele>92.226</ele><time>2026-04-20T19:06:55.993Z</time><hdop>5.875</hdop><vdop>7.5</vdop><extensions><gom:speed>0.981</gom:speed></extensions></trkpt>
   <trkpt lat="59.0711616419" lon="30.0283717573"><ele>92.243</ele><time>2026-04-20T19:06:56.836Z</time><hdop>6.0</hdop><vdop>7.5</vdop><extensions><gom:speed>0.958</gom:speed></extensions></trkpt>
   <trkpt lat="59.0711680541" lon="30.0283643812"><ele>92.214</ele><time>2026-04-20T19:06:57.614Z</time><hdop>6.25</hdop><vdop>7.125</vdop><extensions><gom:speed>0.951</gom:speed></extensions></trkpt>
   <trkpt lat="59.0711726222" lon="30.0283573404"><ele>92.053</ele><time>2026-04-20T19:06:58.075Z</time><hdop>6.25</hdop><vdop>4.875</vdop><extensions><gom:speed>0.973</gom:speed></extensions></trkpt>
   <trkpt lat="59.0711830577" lon="30.0283416663"><ele>92.16</ele><time>2026-04-20T19:06:59.075Z</time><hdop>6.375</hdop><vdop>3.625</vdop><extensions><gom:speed>0.944</gom:speed></extensions></trkpt>
   <trkpt lat="59.0711906433" lon="30.0283280038"><ele>92.225</ele><time>2026-04-20T19:06:59.935Z</time><hdop>6.375</hdop><vdop>3.625</vdop><extensions><gom:speed>0.953</gom:speed></extensions></trkpt>
   <trkpt lat="59.0712013303" lon="30.02831585"><ele>92.505</ele><time>2026-04-20T19:07:00.773Z</time><hdop>6.25</hdop><vdop>3.0</vdop><extensions><gom:speed>0.899</gom:speed></extensions></trkpt>
   <trkpt lat="59.0712094188" lon="30.0283114914"><ele>92.197</ele><time>2026-04-20T19:07:01.442Z</time><hdop>6.125</hdop><vdop>2.75</vdop><extensions><gom:speed>0.869</gom:speed></extensions></trkpt>
   <trkpt lat="59.0712228298" lon="30.0283073843"><ele>91.788</ele><time>2026-04-20T19:07:02.075Z</time><hdop>6.0</hdop><vdop>2.75</vdop><extensions><gom:speed>0.855</gom:speed></extensions></trkpt>
   <trkpt lat="59.071235738" lon="30.0283049536"><ele>91.805</ele><time>2026-04-20T19:07:03.075Z</time><hdop>5.75</hdop><vdop>2.75</vdop><extensions><gom:speed>0.886</gom:speed></extensions></trkpt>
   <trkpt lat="59.0712451257" lon="30.0283032772"><ele>91.815</ele><time>2026-04-20T19:07:03.913Z</time><hdop>5.625</hdop><vdop>2.75</vdop><extensions><gom:speed>0.885</gom:speed></extensions></trkpt>
   <trkpt lat="59.0712578243" lon="30.0282975775"><ele>91.704</ele><time>2026-04-20T19:07:04.693Z</time><hdop>5.5</hdop><vdop>2.875</vdop><extensions><gom:speed>0.914</gom:speed></extensions></trkpt>
   <trkpt lat="59.071269517" lon="30.028290369"><ele>91.505</ele><time>2026-04-20T19:07:05.413Z</time><hdop>5.375</hdop><vdop>2.875</vdop><extensions><gom:speed>0.909</gom:speed></extensions></trkpt>
   <trkpt lat="59.0712795334" lon="30.0282839988"><ele>91.385</ele><time>2026-04-20T19:07:06.075Z</time><hdop>5.25</hdop><vdop>3.0</vdop><extensions><gom:speed>0.909</gom:speed></extensions></trkpt>
   <trkpt lat="59.0712902203" lon="30.0282782153"><ele>91.314</ele><time>2026-04-20T19:07:07.032Z</time><hdop>5.125</hdop><vdop>3.0</vdop><extensions><gom:speed>0.931</gom:speed></extensions></trkpt>
   <trkpt lat="59.0712956267" lon="30.0282748625"><ele>91.294</ele><time>2026-04-20T19:07:07.603Z</time><hdop>5.125</hdop><vdop>3.0</vdop><extensions><gom:speed>0.934</gom:speed></extensions></trkpt>
   <trkpt lat="59.0713088282" lon="30.0282677379"><ele>91.794</ele><time>2026-04-20T19:07:08.075Z</time><hdop>5.125</hdop><vdop>3.125</vdop><extensions><gom:speed>0.954</gom:speed></extensions></trkpt>
   <trkpt lat="59.0713142345" lon="30.0282646366"><ele>92.093</ele><time>2026-04-20T19:07:08.593Z</time><hdop>5.0</hdop><vdop>3.125</vdop><extensions><gom:speed>0.933</gom:speed></extensions></trkpt>
   <trkpt lat="59.0713213172" lon="30.0282617867"><ele>91.852</ele><time>2026-04-20T19:07:09.075Z</time><hdop>5.0</hdop><vdop>2.875</vdop><extensions><gom:speed>0.943</gom:speed></extensions></trkpt>
   <trkpt lat="59.0713346444" lon="30.028255668"><ele>91.639</ele><time>2026-04-20T19:07:10.075Z</time><hdop>5.0</hdop><vdop>2.625</vdop><extensions><gom:speed>0.904</gom:speed></extensions></trkpt>
   <trkpt lat="59.0713477202" lon="30.0282539916"><ele>91.344</ele><time>2026-04-20T19:07:11.076Z</time><hdop>5.0</hdop><vdop>2.625</vdop><extensions><gom:speed>0.903</gom:speed></extensions></trkpt>
   <trkpt lat="59.0713572336" lon="30.0282552489"><ele>91.167</ele><time>2026-04-20T19:07:11.940Z</time><hdop>5.0</hdop><vdop>2.625</vdop><extensions><gom:speed>0.902</gom:speed></extensions></trkpt>
   <trkpt lat="59.0713682559" lon="30.0282591045"><ele>91.127</ele><time>2026-04-20T19:07:12.640Z</time><hdop>4.875</hdop><vdop>2.5</vdop><extensions><gom:speed>0.928</gom:speed></extensions></trkpt>
   <trkpt lat="59.0713794457" lon="30.0282634631"><ele>91.229</ele><time>2026-04-20T19:07:13.321Z</time><hdop>4.875</hdop><vdop>2.5</vdop><extensions><gom:speed>0.941</gom:speed></extensions></trkpt>
   <trkpt lat="59.0713937368" lon="30.0282676541"><ele>91.32</ele><time>2026-04-20T19:07:14.075Z</time><hdop>4.875</hdop><vdop>2.5</vdop><extensions><gom:speed>0.97</gom:speed></extensions></trkpt>
   <trkpt lat="59.0714021187" lon="30.0282684085"><ele>91.374</ele><time>2026-04-20T19:07:14.901Z</time><hdop>5.0</hdop><vdop>2.5</vdop><extensions><gom:speed>0.953</gom:speed></extensions></trkpt>
   <trkpt lat="59.0714123447" lon="30.0282686599"><ele>91.489</ele><time>2026-04-20T19:07:15.641Z</time><hdop>4.875</hdop><vdop>2.5</vdop><extensions><gom:speed>0.955</gom:speed></extensions></trkpt>
   <trkpt lat="59.0714232411" lon="30.0282680732"><ele>91.271</ele><time>2026-04-20T19:07:16.481Z</time><hdop>4.875</hdop><vdop>2.5</vdop><extensions><gom:speed>0.935</gom:speed></extensions></trkpt>
   <trkpt lat="59.0714312459" lon="30.0282668159"><ele>91.083</ele><time>2026-04-20T19:07:17.075Z</time><hdop>4.875</hdop><vdop>2.5</vdop><extensions><gom:speed>0.955</gom:speed></extensions></trkpt>
   <trkpt lat="59.0714429386" lon="30.0282627088"><ele>90.928</ele><time>2026-04-20T19:07:18.076Z</time><hdop>4.75</hdop><vdop>2.5</vdop><extensions><gom:speed>0.893</gom:speed></extensions></trkpt>
   <trkpt lat="59.071449225" lon="30.0282591884"><ele>90.836</ele><time>2026-04-20T19:07:18.760Z</time><hdop>4.625</hdop><vdop>2.5</vdop><extensions><gom:speed>0.893</gom:speed></extensions></trkpt>
   <trkpt lat="59.0714577327" lon="30.0282582663"><ele>90.783</ele><time>2026-04-20T19:07:19.523Z</time><hdop>4.5</hdop><vdop>2.625</vdop><extensions><gom:speed>0.937</gom:speed></extensions></trkpt>
   <trkpt lat="59.0714672461" lon="30.0282570929"><ele>90.946</ele><time>2026-04-20T19:07:20.075Z</time><hdop>4.5</hdop><vdop>2.5</vdop><extensions><gom:speed>0.942</gom:speed></extensions></trkpt>
   <trkpt lat="59.0714750413" lon="30.028254243"><ele>91.043</ele><time>2026-04-20T19:07:21.081Z</time><hdop>4.375</hdop><vdop>2.5</vdop><extensions><gom:speed>0.887</gom:speed></extensions></trkpt>
   <trkpt lat="59.0714829203" lon="30.0282480404"><ele>91.334</ele><time>2026-04-20T19:07:21.940Z</time><hdop>4.375</hdop><vdop>2.5</vdop><extensions><gom:speed>0.902</gom:speed></extensions></trkpt>
   <trkpt lat="59.0714906316" lon="30.0282401614"><ele>91.366</ele><time>2026-04-20T19:07:22.740Z</time><hdop>4.375</hdop><vdop>2.5</vdop><extensions><gom:speed>0.884</gom:speed></extensions></trkpt>
   <trkpt lat="59.0714971276" lon="30.0282342103"><ele>91.264</ele><time>2026-04-20T19:07:23.520Z</time><hdop>4.25</hdop><vdop>2.5</vdop><extensions><gom:speed>0.849</gom:speed></extensions></trkpt>
   <trkpt lat="59.0715019472" lon="30.0282319472"><ele>91.423</ele><time>2026-04-20T19:07:24.075Z</time><hdop>4.25</hdop><vdop>2.5</vdop><extensions><gom:speed>0.839</gom:speed></extensions></trkpt>
   <trkpt lat="59.0715104548" lon="30.028232953"><ele>91.794</ele><time>2026-04-20T19:07:25.075Z</time><hdop>4.25</hdop><vdop>2.5</vdop><extensions><gom:speed>0.827</gom:speed></extensions></trkpt>
   <trkpt lat="59.0715175375" lon="30.0282363896"><ele>92.015</ele><time>2026-04-20T19:07:25.918Z</time><hdop>4.25</hdop><vdop>2.5</vdop><extensions><gom:speed>0.849</gom:speed></extensions></trkpt>
   <trkpt lat="59.0715272186" lon="30.0282395747"><ele>92.207</ele><time>2026-04-20T19:07:26.618Z</time><hdop>4.125</hdop><vdop>2.5</vdop><extensions><gom:speed>0.881</gom:speed></extensions></trkpt>
   <trkpt lat="59.0715300266" lon="30.0282395747"><ele>92.457</ele><time>2026-04-20T19:07:27.075Z</time><hdop>4.125</hdop><vdop>2.5</vdop><extensions><gom:speed>0.871</gom:speed></extensions></trkpt>
   <trkpt lat="59.0715379475" lon="30.0282384012"><ele>92.599</ele><time>2026-04-20T19:07:28.075Z</time><hdop>4.125</hdop><vdop>2.5</vdop><extensions><gom:speed>0.844</gom:speed></extensions></trkpt>
   <trkpt lat="59.0715449464" lon="30.0282374792"><ele>92.683</ele><time>2026-04-20T19:07:28.940Z</time><hdop>4.125</hdop><vdop>2.5</vdop><extensions><gom:speed>0.819</gom:speed></extensions></trkpt>
   <trkpt lat="59.0715507299" lon="30.0282352999"><ele>92.711</ele><time>2026-04-20T19:07:29.758Z</time><hdop>4.125</hdop><vdop>2.5</vdop><extensions><gom:speed>0.775</gom:speed></extensions></trkpt>
   <trkpt lat="59.0715559267" lon="30.0282321148"><ele>92.663</ele><time>2026-04-20T19:07:30.597Z</time><hdop>4.25</hdop><vdop>2.5</vdop><extensions><gom:speed>0.753</gom:speed></extensions></trkpt>
   <trkpt lat="59.0715586508" lon="30.0282306899"><ele>92.466</ele><time>2026-04-20T19:07:31.075Z</time><hdop>4.25</hdop><vdop>2.5</vdop><extensions><gom:speed>0.751</gom:speed></extensions></trkpt>
   <trkpt lat="59.071563638" lon="30.0282294326"><ele>92.35</ele><time>2026-04-20T19:07:32.075Z</time><hdop>4.25</hdop><vdop>2.5</vdop><extensions><gom:speed>0.666</gom:speed></extensions></trkpt>
   <trkpt lat="59.0715681223" lon="30.0282317795"><ele>92.592</ele><time>2026-04-20T19:07:33.075Z</time><hdop>4.25</hdop><vdop>2.5</vdop><extensions><gom:speed>0.641</gom:speed></extensions></trkpt>
   <trkpt lat="59.0715727324" lon="30.0282378983"><ele>92.785</ele><time>2026-04-20T19:07:34.075Z</time><hdop>4.25</hdop><vdop>2.5</vdop><extensions><gom:speed>0.648</gom:speed></extensions></trkpt>
   <trkpt lat="59.0715756241" lon="30.0282405805"><ele>92.901</ele><time>2026-04-20T19:07:34.536Z</time><hdop>4.375</hdop><vdop>2.5</vdop><extensions><gom:speed>0.708</gom:speed></extensions></trkpt>
   <trkpt lat="59.0715793541" lon="30.0282461126"><ele>93.255</ele><time>2026-04-20T19:07:35.076Z</time><hdop>4.375</hdop><vdop>2.625</vdop><extensions><gom:speed>0.767</gom:speed></extensions></trkpt>
   <trkpt lat="59.071583545" lon="30.0282498006"><ele>93.467</ele><time>2026-04-20T19:07:35.558Z</time><hdop>4.375</hdop><vdop>2.625</vdop><extensions><gom:speed>0.825</gom:speed></extensions></trkpt>
   <trkpt lat="59.0715881551" lon="30.0282510579"><ele>93.594</ele><time>2026-04-20T19:07:36.058Z</time><hdop>4.375</hdop><vdop>2.625</vdop><extensions><gom:speed>0.83</gom:speed></extensions></trkpt>
   <trkpt lat="59.071592346" lon="30.0282509741"><ele>93.473</ele><time>2026-04-20T19:07:36.758Z</time><hdop>4.5</hdop><vdop>2.75</vdop><extensions><gom:speed>0.758</gom:speed></extensions></trkpt>
   <trkpt lat="59.0715934357" lon="30.028242676"><ele>93.506</ele><time>2026-04-20T19:07:37.913Z</time><hdop>4.5</hdop><vdop>2.875</vdop><extensions><gom:speed>0.627</gom:speed></extensions></trkpt>
   <trkpt lat="59.0715935195" lon="30.0282443524"><ele>93.347</ele><time>2026-04-20T19:07:38.522Z</time><hdop>4.5</hdop><vdop>3.0</vdop><extensions><gom:speed>0.636</gom:speed></extensions></trkpt>
   <trkpt lat="59.0715972494" lon="30.0282418378"><ele>92.946</ele><time>2026-04-20T19:07:39.075Z</time><hdop>4.625</hdop><vdop>3.375</vdop><extensions><gom:speed>0.651</gom:speed></extensions></trkpt>
   <trkpt lat="59.0716035359" lon="30.0282413349"><ele>92.25</ele><time>2026-04-20T19:07:40.075Z</time><hdop>4.625</hdop><vdop>3.375</vdop><extensions><gom:speed>0.762</gom:speed></extensions></trkpt>
   <trkpt lat="59.0716102414" lon="30.0282361381"><ele>91.835</ele><time>2026-04-20T19:07:40.854Z</time><hdop>4.625</hdop><vdop>3.375</vdop><extensions><gom:speed>0.886</gom:speed></extensions></trkpt>
   <trkpt lat="59.0716161506" lon="30.028232953"><ele>91.421</ele><time>2026-04-20T19:07:41.535Z</time><hdop>4.625</hdop><vdop>3.375</vdop><extensions><gom:speed>0.923</gom:speed></extensions></trkpt>
   <trkpt lat="59.071620132" lon="30.0282313604"><ele>91.04</ele><time>2026-04-20T19:07:42.075Z</time><hdop>4.625</hdop><vdop>3.25</vdop><extensions><gom:speed>0.908</gom:speed></extensions></trkpt>
   <trkpt lat="59.0716277177" lon="30.028228343"><ele>90.812</ele><time>2026-04-20T19:07:42.958Z</time><hdop>4.625</hdop><vdop>3.25</vdop><extensions><gom:speed>0.948</gom:speed></extensions></trkpt>
   <trkpt lat="59.0716343394" lon="30.0282306061"><ele>90.771</ele><time>2026-04-20T19:07:43.678Z</time><hdop>4.625</hdop><vdop>3.25</vdop><extensions><gom:speed>0.995</gom:speed></extensions></trkpt>
   <trkpt lat="59.0716420507" lon="30.0282312766"><ele>91.783</ele><time>2026-04-20T19:07:44.419Z</time><hdop>4.625</hdop><vdop>3.0</vdop><extensions><gom:speed>1.005</gom:speed></extensions></trkpt>
   <trkpt lat="59.0716509355" lon="30.0282296841"><ele>92.388</ele><time>2026-04-20T19:07:45.060Z</time><hdop>4.75</hdop><vdop>3.0</vdop><extensions><gom:speed>1.006</gom:speed></extensions></trkpt>
   <trkpt lat="59.0716579344" lon="30.0282280077"><ele>92.744</ele><time>2026-04-20T19:07:45.939Z</time><hdop>4.75</hdop><vdop>2.875</vdop><extensions><gom:speed>0.995</gom:speed></extensions></trkpt>
   <trkpt lat="59.0716649333" lon="30.0282264989"><ele>92.919</ele><time>2026-04-20T19:07:46.659Z</time><hdop>4.75</hdop><vdop>2.75</vdop><extensions><gom:speed>0.987</gom:speed></extensions></trkpt>
   <trkpt lat="59.0716724351" lon="30.0282285944"><ele>93.116</ele><time>2026-04-20T19:07:47.380Z</time><hdop>4.875</hdop><vdop>2.625</vdop><extensions><gom:speed>0.967</gom:speed></extensions></trkpt>
   <trkpt lat="59.0716793502" lon="30.0282319472"><ele>93.204</ele><time>2026-04-20T19:07:48.075Z</time><hdop>4.875</hdop><vdop>2.625</vdop><extensions><gom:speed>0.963</gom:speed></extensions></trkpt>
   <trkpt lat="59.0716864329" lon="30.0282368087"><ele>93.257</ele><time>2026-04-20T19:07:49.019Z</time><hdop>5.0</hdop><vdop>2.625</vdop><extensions><gom:speed>0.89</gom:speed></extensions></trkpt>
   <trkpt lat="59.0716934318" lon="30.0282428436"><ele>93.278</ele><time>2026-04-20T19:07:49.858Z</time><hdop>5.125</hdop><vdop>2.75</vdop><extensions><gom:speed>0.835</gom:speed></extensions></trkpt>
   <trkpt lat="59.0717005564" lon="30.0282482081"><ele>93.485</ele><time>2026-04-20T19:07:50.816Z</time><hdop>5.25</hdop><vdop>8.875</vdop><extensions><gom:speed>0.794</gom:speed></extensions></trkpt>
   <trkpt lat="59.0717075553" lon="30.0282487948"><ele>93.71</ele><time>2026-04-20T19:07:51.537Z</time><hdop>5.375</hdop><vdop>8.625</vdop><extensions><gom:speed>0.767</gom:speed></extensions></trkpt>
   <trkpt lat="59.0717105309" lon="30.0282482919"><ele>93.938</ele><time>2026-04-20T19:07:52.075Z</time><hdop>5.375</hdop><vdop>8.5</vdop><extensions><gom:speed>0.73</gom:speed></extensions></trkpt>
   <trkpt lat="59.0717178231" lon="30.028246364"><ele>94.074</ele><time>2026-04-20T19:07:52.998Z</time><hdop>5.5</hdop><vdop>8.5</vdop><extensions><gom:speed>0.833</gom:speed></extensions></trkpt>
   <trkpt lat="59.0717252411" lon="30.028243598"><ele>94.096</ele><time>2026-04-20T19:07:53.777Z</time><hdop>5.625</hdop><vdop>8.125</vdop><extensions><gom:speed>0.881</gom:speed></extensions></trkpt>
   <trkpt lat="59.0717326172" lon="30.0282404129"><ele>94.015</ele><time>2026-04-20T19:07:54.458Z</time><hdop>5.75</hdop><vdop>8.125</vdop><extensions><gom:speed>0.934</gom:speed></extensions></trkpt>
   <trkpt lat="59.0717369339" lon="30.0282392394"><ele>93.918</ele><time>2026-04-20T19:07:55.075Z</time><hdop>5.875</hdop><vdop>8.0</vdop><extensions><gom:speed>0.893</gom:speed></extensions></trkpt>
   <trkpt lat="59.071745651" lon="30.0282368087"><ele>93.861</ele><time>2026-04-20T19:07:56.057Z</time><hdop>6.125</hdop><vdop>8.0</vdop><extensions><gom:speed>0.95</gom:speed></extensions></trkpt>
   <trkpt lat="59.0717537396" lon="30.0282325339"><ele>93.708</ele><time>2026-04-20T19:07:56.857Z</time><hdop>6.25</hdop><vdop>7.875</vdop><extensions><gom:speed>0.977</gom:speed></extensions></trkpt>
   <trkpt lat="59.0717602356" lon="30.0282259122"><ele>93.638</ele><time>2026-04-20T19:07:57.578Z</time><hdop>6.5</hdop><vdop>7.5</vdop><extensions><gom:speed>0.963</gom:speed></extensions></trkpt>
   <trkpt lat="59.0717641331" lon="30.0282231462"><ele>93.567</ele><time>2026-04-20T19:07:58.342Z</time><hdop>6.625</hdop><vdop>7.25</vdop><extensions><gom:speed>0.971</gom:speed></extensions></trkpt>
   <trkpt lat="59.0717702519" lon="30.0282207154"><ele>93.423</ele><time>2026-04-20T19:07:59.016Z</time><hdop>6.75</hdop><vdop>6.875</vdop><extensions><gom:speed>0.991</gom:speed></extensions></trkpt>
   <trkpt lat="59.071777628" lon="30.0282167759"><ele>93.337</ele><time>2026-04-20T19:07:59.858Z</time><hdop>6.875</hdop><vdop>6.875</vdop><extensions><gom:speed>0.991</gom:speed></extensions></trkpt>
   <trkpt lat="59.0717786338" lon="30.0282142614"><ele>93.282</ele><time>2026-04-20T19:08:00.638Z</time><hdop>7.0</hdop><vdop>6.75</vdop><extensions><gom:speed>0.929</gom:speed></extensions></trkpt>
   <trkpt lat="59.0717837468" lon="30.0282090646"><ele>93.312</ele><time>2026-04-20T19:08:01.459Z</time><hdop>7.0</hdop><vdop>6.75</vdop><extensions><gom:speed>0.889</gom:speed></extensions></trkpt>
   <trkpt lat="59.0717881473" lon="30.0282059633"><ele>93.43</ele><time>2026-04-20T19:08:01.978Z</time><hdop>7.125</hdop><vdop>6.625</vdop><extensions><gom:speed>0.886</gom:speed></extensions></trkpt>
   <trkpt lat="59.0717963196" lon="30.028202862"><ele>93.592</ele><time>2026-04-20T19:08:03.044Z</time><hdop>7.25</hdop><vdop>6.75</vdop><extensions><gom:speed>0.855</gom:speed></extensions></trkpt>
   <trkpt lat="59.071806336" lon="30.0282008503"><ele>93.689</ele><time>2026-04-20T19:08:03.856Z</time><hdop>7.5</hdop><vdop>6.75</vdop><extensions><gom:speed>0.842</gom:speed></extensions></trkpt>
   <trkpt lat="59.0718016422" lon="30.0282043707"><ele>93.752</ele><time>2026-04-20T19:08:04.675Z</time><hdop>7.5</hdop><vdop>7.0</vdop><extensions><gom:speed>0.792</gom:speed></extensions></trkpt>
   <trkpt lat="59.0718054559" lon="30.0282062986"><ele>93.828</ele><time>2026-04-20T19:08:05.633Z</time><hdop>7.625</hdop><vdop>7.25</vdop><extensions><gom:speed>0.797</gom:speed></extensions></trkpt>
   <trkpt lat="59.0718111556" lon="30.028207472"><ele>93.893</ele><time>2026-04-20T19:08:06.473Z</time><hdop>7.875</hdop><vdop>7.25</vdop><extensions><gom:speed>0.807</gom:speed></extensions></trkpt>
   <trkpt lat="59.0718154304" lon="30.0282086455"><ele>93.964</ele><time>2026-04-20T19:08:06.953Z</time><hdop>8.0</hdop><vdop>7.125</vdop><extensions><gom:speed>0.806</gom:speed></extensions></trkpt>
   <trkpt lat="59.0718229322" lon="30.0282114953"><ele>94.006</ele><time>2026-04-20T19:08:08.032Z</time><hdop>8.125</hdop><vdop>7.125</vdop><extensions><gom:speed>0.808</gom:speed></extensions></trkpt>
   <trkpt lat="59.0718295539" lon="30.0282119144"><ele>94.052</ele><time>2026-04-20T19:08:08.792Z</time><hdop>8.25</hdop><vdop>7.125</vdop><extensions><gom:speed>0.836</gom:speed></extensions></trkpt>
   <trkpt lat="59.0718331162" lon="30.0282109924"><ele>94.126</ele><time>2026-04-20T19:08:09.441Z</time><hdop>8.5</hdop><vdop>7.0</vdop><extensions><gom:speed>0.84</gom:speed></extensions></trkpt>
   <trkpt lat="59.0718433421" lon="30.0282111601"><ele>94.205</ele><time>2026-04-20T19:08:10.034Z</time><hdop>8.75</hdop><vdop>6.875</vdop><extensions><gom:speed>0.847</gom:speed></extensions></trkpt>
   <trkpt lat="59.0718471559" lon="30.0282125012"><ele>94.252</ele><time>2026-04-20T19:08:10.599Z</time><hdop>8.875</hdop><vdop>6.875</vdop><extensions><gom:speed>0.82</gom:speed></extensions></trkpt>
   <trkpt lat="59.0718403246" lon="30.0282120821"><ele>94.312</ele><time>2026-04-20T19:08:11.075Z</time><hdop>8.875</hdop><vdop>6.625</vdop><extensions><gom:speed>0.763</gom:speed></extensions></trkpt>
   <trkpt lat="59.0718384387" lon="30.0282133393"><ele>94.348</ele><time>2026-04-20T19:08:11.922Z</time><hdop>9.0</hdop><vdop>6.625</vdop><extensions><gom:speed>0.844</gom:speed></extensions></trkpt>
   <trkpt lat="59.0718424201" lon="30.0282148481"><ele>94.383</ele><time>2026-04-20T19:08:12.741Z</time><hdop>9.0</hdop><vdop>6.875</vdop><extensions><gom:speed>0.854</gom:speed></extensions></trkpt>
   <trkpt lat="59.0718479522" lon="30.0282147643"><ele>94.411</ele><time>2026-04-20T19:08:13.503Z</time><hdop>9.0</hdop><vdop>7.0</vdop><extensions><gom:speed>0.825</gom:speed></extensions></trkpt>
   <trkpt lat="59.0718546577" lon="30.0282131717"><ele>94.458</ele><time>2026-04-20T19:08:14.381Z</time><hdop>9.0</hdop><vdop>6.625</vdop><extensions><gom:speed>0.817</gom:speed></extensions></trkpt>
   <trkpt lat="59.0718493352" lon="30.0282088131"><ele>93.177</ele><time>2026-04-20T19:08:15.076Z</time><hdop>9.0</hdop><vdop>5.25</vdop><extensions><gom:speed>0.767</gom:speed></extensions></trkpt>
   <trkpt lat="59.0718445575" lon="30.0282069691"><ele>92.411</ele><time>2026-04-20T19:08:15.601Z</time><hdop>8.75</hdop><vdop>5.25</vdop><extensions><gom:speed>0.771</gom:speed></extensions></trkpt>
   <trkpt lat="59.0718425458" lon="30.0282031134"><ele>90.993</ele><time>2026-04-20T19:08:16.075Z</time><hdop>8.625</hdop><vdop>4.75</vdop><extensions><gom:speed>0.777</gom:speed></extensions></trkpt>
   <trkpt lat="59.0718425458" lon="30.0282006827"><ele>90.145</ele><time>2026-04-20T19:08:16.740Z</time><hdop>8.5</hdop><vdop>4.75</vdop><extensions><gom:speed>0.823</gom:speed></extensions></trkpt>
   <trkpt lat="59.0718417496" lon="30.0282029458"><ele>89.369</ele><time>2026-04-20T19:08:17.598Z</time><hdop>8.25</hdop><vdop>4.125</vdop><extensions><gom:speed>0.829</gom:speed></extensions></trkpt>
   <trkpt lat="59.0718430488" lon="30.0282058795"><ele>90.433</ele><time>2026-04-20T19:08:18.075Z</time><hdop>8.0</hdop><vdop>3.75</vdop><extensions><gom:speed>0.841</gom:speed></extensions></trkpt>
   <trkpt lat="59.0718491256" lon="30.0282062986"><ele>90.851</ele><time>2026-04-20T19:08:19.076Z</time><hdop>7.625</hdop><vdop>3.75</vdop><extensions><gom:speed>0.82</gom:speed></extensions></trkpt>
   <trkpt lat="59.0718558312" lon="30.028202862"><ele>90.989</ele><time>2026-04-20T19:08:20.076Z</time><hdop>7.0</hdop><vdop>3.625</vdop><extensions><gom:speed>0.81</gom:speed></extensions></trkpt>
   <trkpt lat="59.0718619499" lon="30.0281975814"><ele>91.071</ele><time>2026-04-20T19:08:20.955Z</time><hdop>6.625</hdop><vdop>3.625</vdop><extensions><gom:speed>0.808</gom:speed></extensions></trkpt>
   <trkpt lat="59.071867021" lon="30.0281921331"><ele>90.904</ele><time>2026-04-20T19:08:21.657Z</time><hdop>6.25</hdop><vdop>3.625</vdop><extensions><gom:speed>0.773</gom:speed></extensions></trkpt>
   <trkpt lat="59.0718749419" lon="30.0281857629"><ele>90.944</ele><time>2026-04-20T19:08:22.593Z</time><hdop>6.0</hdop><vdop>3.5</vdop><extensions><gom:speed>0.725</gom:speed></extensions></trkpt>
   <trkpt lat="59.0718786299" lon="30.0281851762"><ele>91.04</ele><time>2026-04-20T19:08:23.075Z</time><hdop>5.875</hdop><vdop>3.375</vdop><extensions><gom:speed>0.726</gom:speed></extensions></trkpt>
   <trkpt lat="59.0718874309" lon="30.0281824939"><ele>91.436</ele><time>2026-04-20T19:08:24.075Z</time><hdop>5.75</hdop><vdop>3.125</vdop><extensions><gom:speed>0.7</gom:speed></extensions></trkpt>
   <trkpt lat="59.0718948489" lon="30.0281796441"><ele>91.673</ele><time>2026-04-20T19:08:24.914Z</time><hdop>5.625</hdop><vdop>3.125</vdop><extensions><gom:speed>0.734</gom:speed></extensions></trkpt>
   <trkpt lat="59.0719055358" lon="30.0281770457"><ele>92.042</ele><time>2026-04-20T19:08:26.075Z</time><hdop>5.375</hdop><vdop>2.875</vdop><extensions><gom:speed>0.598</gom:speed></extensions></trkpt>
   <trkpt lat="59.0719116546" lon="30.0281746988"><ele>92.66</ele><time>2026-04-20T19:08:27.075Z</time><hdop>5.25</hdop><vdop>2.5</vdop><extensions><gom:speed>0.46</gom:speed></extensions></trkpt>
   <trkpt lat="59.0719109422" lon="30.0281752017"><ele>93.03</ele><time>2026-04-20T19:08:27.922Z</time><hdop>5.125</hdop><vdop>2.5</vdop><extensions><gom:speed>0.323</gom:speed></extensions></trkpt>
   <trkpt lat="59.0719169352" lon="30.0281703402"><ele>93.261</ele><time>2026-04-20T19:08:29.075Z</time><hdop>4.875</hdop><vdop>2.5</vdop><extensions><gom:speed>0.154</gom:speed></extensions></trkpt>
   <trkpt lat="59.0719201204" lon="30.0281675742"><ele>93.215</ele><time>2026-04-20T19:08:30.075Z</time><hdop>4.75</hdop><vdop>2.5</vdop><extensions><gom:speed>0.087</gom:speed></extensions></trkpt>
   <trkpt lat="59.0719211262" lon="30.0281669036"><ele>93.187</ele><time>2026-04-20T19:08:30.700Z</time><hdop>4.625</hdop><vdop>2.5</vdop><extensions><gom:speed>0.045</gom:speed></extensions></trkpt>
   <trkpt lat="59.0719253171" lon="30.0281620421"><ele>92.927</ele><time>2026-04-20T19:08:31.577Z</time><hdop>4.625</hdop><vdop>2.5</vdop><extensions><gom:speed>0.083</gom:speed></extensions></trkpt>
   <trkpt lat="59.071928628" lon="30.0281581026"><ele>92.968</ele><time>2026-04-20T19:08:32.075Z</time><hdop>4.5</hdop><vdop>2.5</vdop><extensions><gom:speed>0.129</gom:speed></extensions></trkpt>
   <trkpt lat="59.0719297176" lon="30.0281565939"><ele>92.993</ele><time>2026-04-20T19:08:32.536Z</time><hdop>4.375</hdop><vdop>2.5</vdop><extensions><gom:speed>0.071</gom:speed></extensions></trkpt>
   <trkpt lat="59.071933238" lon="30.0281527382"><ele>93.19</ele><time>2026-04-20T19:08:33.075Z</time><hdop>4.375</hdop><vdop>2.5</vdop><extensions><gom:speed>0.15</gom:speed></extensions></trkpt>
   <trkpt lat="59.0719392311" lon="30.0281459488"><ele>93.122</ele><time>2026-04-20T19:08:34.076Z</time><hdop>4.25</hdop><vdop>2.5</vdop><extensions><gom:speed>0.201</gom:speed></extensions></trkpt>
   <trkpt lat="59.0719480321" lon="30.0281374831"><ele>92.714</ele><time>2026-04-20T19:08:35.076Z</time><hdop>4.25</hdop><vdop>2.5</vdop><extensions><gom:speed>0.362</gom:speed></extensions></trkpt>
   <trkpt lat="59.0719555339" lon="30.0281294365"><ele>92.47</ele><time>2026-04-20T19:08:36.019Z</time><hdop>4.25</hdop><vdop>2.5</vdop><extensions><gom:speed>0.475</gom:speed></extensions></trkpt>
   <trkpt lat="59.0719659275" lon="30.0281218928"><ele>92.407</ele><time>2026-04-20T19:08:37.018Z</time><hdop>4.25</hdop><vdop>2.5</vdop><extensions><gom:speed>0.534</gom:speed></extensions></trkpt>
   <trkpt lat="59.0719753571" lon="30.0281192106"><ele>92.183</ele><time>2026-04-20T19:08:37.737Z</time><hdop>4.25</hdop><vdop>2.5</vdop><extensions><gom:speed>0.62</gom:speed></extensions></trkpt>
   <trkpt lat="59.071985122" lon="30.0281197135"><ele>92.323</ele><time>2026-04-20T19:08:38.596Z</time><hdop>4.375</hdop><vdop>2.75</vdop><extensions><gom:speed>0.622</gom:speed></extensions></trkpt>
   <trkpt lat="59.0719901512" lon="30.0281209708"><ele>92.656</ele><time>2026-04-20T19:08:39.075Z</time><hdop>4.375</hdop><vdop>8.25</vdop><extensions><gom:speed>0.622</gom:speed></extensions></trkpt>
   <trkpt lat="59.071999036" lon="30.0281270057"><ele>92.854</ele><time>2026-04-20T19:08:39.961Z</time><hdop>4.375</hdop><vdop>8.25</vdop><extensions><gom:speed>0.816</gom:speed></extensions></trkpt>
   <trkpt lat="59.0720097229" lon="30.0281428475"><ele>92.97</ele><time>2026-04-20T19:08:40.935Z</time><hdop>4.5</hdop><vdop>8.375</vdop><extensions><gom:speed>0.838</gom:speed></extensions></trkpt>
   <trkpt lat="59.0720154226" lon="30.0281493016"><ele>93.091</ele><time>2026-04-20T19:08:41.776Z</time><hdop>4.625</hdop><vdop>8.125</vdop><extensions><gom:speed>0.918</gom:speed></extensions></trkpt>
   <trkpt lat="59.072024056" lon="30.02814729"><ele>93.402</ele><time>2026-04-20T19:08:42.515Z</time><hdop>4.625</hdop><vdop>7.875</vdop><extensions><gom:speed>0.923</gom:speed></extensions></trkpt>
   <trkpt lat="59.0720285403" lon="30.028143099"><ele>93.656</ele><time>2026-04-20T19:08:42.968Z</time><hdop>4.75</hdop><vdop>7.5</vdop><extensions><gom:speed>0.929</gom:speed></extensions></trkpt>
   <trkpt lat="59.0720361259" lon="30.0281340465"><ele>93.903</ele><time>2026-04-20T19:08:44.075Z</time><hdop>4.875</hdop><vdop>7.375</vdop><extensions><gom:speed>0.831</gom:speed></extensions></trkpt>
   <trkpt lat="59.0720417418" lon="30.0281291012"><ele>93.938</ele><time>2026-04-20T19:08:44.982Z</time><hdop>5.0</hdop><vdop>7.0</vdop><extensions><gom:speed>0.759</gom:speed></extensions></trkpt>
   <trkpt lat="59.0720458489" lon="30.0281265028"><ele>93.959</ele><time>2026-04-20T19:08:45.713Z</time><hdop>5.0</hdop><vdop>7.0</vdop><extensions><gom:speed>0.681</gom:speed></extensions></trkpt>
   <trkpt lat="59.0720486568" lon="30.0281234853"><ele>93.927</ele><time>2026-04-20T19:08:46.522Z</time><hdop>5.125</hdop><vdop>7.0</vdop><extensions><gom:speed>0.66</gom:speed></extensions></trkpt>
   <trkpt lat="59.0720538536" lon="30.0281162769"><ele>93.844</ele><time>2026-04-20T19:08:46.995Z</time><hdop>5.25</hdop><vdop>6.625</vdop><extensions><gom:speed>0.661</gom:speed></extensions></trkpt>
   <trkpt lat="59.072056452" lon="30.0281105772"><ele>93.795</ele><time>2026-04-20T19:08:47.916Z</time><hdop>5.375</hdop><vdop>6.625</vdop><extensions><gom:speed>0.582</gom:speed></extensions></trkpt>
   <trkpt lat="59.072058757" lon="30.0281035364"><ele>93.739</ele><time>2026-04-20T19:08:48.775Z</time><hdop>5.5</hdop><vdop>6.375</vdop><extensions><gom:speed>0.612</gom:speed></extensions></trkpt>
   <trkpt lat="59.0720618164" lon="30.0280962442"><ele>93.684</ele><time>2026-04-20T19:08:49.557Z</time><hdop>5.75</hdop><vdop>6.5</vdop><extensions><gom:speed>0.622</gom:speed></extensions></trkpt>
   <trkpt lat="59.0720627384" lon="30.0281006866"><ele>93.703</ele><time>2026-04-20T19:08:50.076Z</time><hdop>5.75</hdop><vdop>6.5</vdop><extensions><gom:speed>0.593</gom:speed></extensions></trkpt>
   <trkpt lat="59.072066636" lon="30.0280964118"><ele>93.712</ele><time>2026-04-20T19:08:51.023Z</time><hdop>6.0</hdop><vdop>6.25</vdop><extensions><gom:speed>0.673</gom:speed></extensions></trkpt>
   <trkpt lat="59.0720712461" lon="30.0280887843"><ele>93.78</ele><time>2026-04-20T19:08:51.970Z</time><hdop>6.125</hdop><vdop>6.125</vdop><extensions><gom:speed>0.697</gom:speed></extensions></trkpt>
   <trkpt lat="59.0720729225" lon="30.0280867726"><ele>93.821</ele><time>2026-04-20T19:08:52.681Z</time><hdop>6.25</hdop><vdop>6.125</vdop><extensions><gom:speed>0.749</gom:speed></extensions></trkpt>
   <trkpt lat="59.0720852438" lon="30.0280737807"><ele>93.89</ele><time>2026-04-20T19:08:53.840Z</time><hdop>6.5</hdop><vdop>6.0</vdop><extensions><gom:speed>0.797</gom:speed></extensions></trkpt>
   <trkpt lat="59.0720908178" lon="30.0280695897"><ele>93.986</ele><time>2026-04-20T19:08:54.658Z</time><hdop>6.75</hdop><vdop>5.875</vdop><extensions><gom:speed>0.773</gom:speed></extensions></trkpt>
   <trkpt lat="59.072099535" lon="30.0280614593"><ele>94.051</ele><time>2026-04-20T19:08:55.998Z</time><hdop>7.0</hdop><vdop>5.625</vdop><extensions><gom:speed>0.719</gom:speed></extensions></trkpt>
   <trkpt lat="59.0721056538" lon="30.0280577712"><ele>94.09</ele><time>2026-04-20T19:08:57.058Z</time><hdop>7.125</hdop><vdop>5.625</vdop><extensions><gom:speed>0.668</gom:speed></extensions></trkpt>
   <trkpt lat="59.0721048575" lon="30.0280741998"><ele>94.176</ele><time>2026-04-20T19:08:58.075Z</time><hdop>7.25</hdop><vdop>5.75</vdop><extensions><gom:speed>0.454</gom:speed></extensions></trkpt>
   <trkpt lat="59.0721030554" lon="30.0280801509"><ele>94.227</ele><time>2026-04-20T19:08:58.841Z</time><hdop>7.125</hdop><vdop>5.75</vdop><extensions><gom:speed>0.419</gom:speed></extensions></trkpt>
   <trkpt lat="59.0721053185" lon="30.0280817435"><ele>94.323</ele><time>2026-04-20T19:08:59.475Z</time><hdop>7.0</hdop><vdop>5.625</vdop><extensions><gom:speed>0.356</gom:speed></extensions></trkpt>
   <trkpt lat="59.0721066177" lon="30.0280810729"><ele>94.39</ele><time>2026-04-20T19:09:00.026Z</time><hdop>7.0</hdop><vdop>5.5</vdop><extensions><gom:speed>0.362</gom:speed></extensions></trkpt>
   <trkpt lat="59.0721089227" lon="30.0280780554"><ele>94.473</ele><time>2026-04-20T19:09:00.974Z</time><hdop>7.0</hdop><vdop>5.375</vdop><extensions><gom:speed>0.36</gom:speed></extensions></trkpt>
   <trkpt lat="59.0721087551" lon="30.0280845933"><ele>93.417</ele><time>2026-04-20T19:09:02.075Z</time><hdop>6.75</hdop><vdop>4.625</vdop><extensions><gom:speed>0.456</gom:speed></extensions></trkpt>
   <trkpt lat="59.0721116468" lon="30.0280848448"><ele>92.785</ele><time>2026-04-20T19:09:03.041Z</time><hdop>6.75</hdop><vdop>4.625</vdop><extensions><gom:speed>0.537</gom:speed></extensions></trkpt>
   <trkpt lat="59.0721123174" lon="30.0280855153"><ele>92.905</ele><time>2026-04-20T19:09:03.977Z</time><hdop>6.75</hdop><vdop>3.75</vdop><extensions><gom:speed>0.639</gom:speed></extensions></trkpt>
   <trkpt lat="59.0721110182" lon="30.0280824978"><ele>93.867</ele><time>2026-04-20T19:09:04.876Z</time><hdop>6.5</hdop><vdop>3.625</vdop><extensions><gom:speed>0.693</gom:speed></extensions></trkpt>
   <trkpt lat="59.0721093418" lon="30.028076882"><ele>94.755</ele><time>2026-04-20T19:09:05.892Z</time><hdop>6.25</hdop><vdop>3.125</vdop><extensions><gom:speed>0.657</gom:speed></extensions></trkpt>
   <trkpt lat="59.0721096352" lon="30.0280732777"><ele>95.628</ele><time>2026-04-20T19:09:06.673Z</time><hdop>5.875</hdop><vdop>3.125</vdop><extensions><gom:speed>0.544</gom:speed></extensions></trkpt>
   <trkpt lat="59.072113449" lon="30.028066656"><ele>96.48</ele><time>2026-04-20T19:09:07.522Z</time><hdop>5.625</hdop><vdop>3.0</vdop><extensions><gom:speed>0.534</gom:speed></extensions></trkpt>
   <trkpt lat="59.0721178495" lon="30.0280597829"><ele>96.888</ele><time>2026-04-20T19:09:08.075Z</time><hdop>5.5</hdop><vdop>2.875</vdop><extensions><gom:speed>0.585</gom:speed></extensions></trkpt>
   <trkpt lat="59.0721254351" lon="30.0280501437"><ele>97.202</ele><time>2026-04-20T19:09:09.075Z</time><hdop>5.25</hdop><vdop>3.0</vdop><extensions><gom:speed>0.555</gom:speed></extensions></trkpt>
   <trkpt lat="59.0721349485" lon="30.0280484673"><ele>97.626</ele><time>2026-04-20T19:09:10.076Z</time><hdop>5.125</hdop><vdop>5.75</vdop><extensions><gom:speed>0.641</gom:speed></extensions></trkpt>
   <trkpt lat="59.0721414445" lon="30.0280565978"><ele>97.761</ele><time>2026-04-20T19:09:11.044Z</time><hdop>5.0</hdop><vdop>5.75</vdop><extensions><gom:speed>0.803</gom:speed></extensions></trkpt>
   <trkpt lat="59.0721464317" lon="30.0280651473"><ele>97.731</ele><time>2026-04-20T19:09:11.991Z</time><hdop>5.0</hdop><vdop>5.75</vdop><extensions><gom:speed>0.627</gom:speed></extensions></trkpt>
   <trkpt lat="59.0721456355" lon="30.02805928"><ele>97.762</ele><time>2026-04-20T19:09:13.075Z</time><hdop>5.0</hdop><vdop>5.875</vdop><extensions><gom:speed>0.34</gom:speed></extensions></trkpt>
   <trkpt lat="59.0721445458" lon="30.0280545023"><ele>97.781</ele><time>2026-04-20T19:09:13.820Z</time><hdop>5.0</hdop><vdop>5.875</vdop><extensions><gom:speed>0.291</gom:speed></extensions></trkpt>
   <trkpt lat="59.0721452164" lon="30.028048635"><ele>97.618</ele><time>2026-04-20T19:09:14.818Z</time><hdop>5.125</hdop><vdop>6.0</vdop><extensions><gom:speed>0.331</gom:speed></extensions></trkpt>
   <trkpt lat="59.0721494492" lon="30.0280421809"><ele>97.328</ele><time>2026-04-20T19:09:15.716Z</time><hdop>5.5</hdop><vdop>5.875</vdop><extensions><gom:speed>0.441</gom:speed></extensions></trkpt>
   <trkpt lat="59.0721579569" lon="30.0280337152"><ele>97.106</ele><time>2026-04-20T19:09:16.574Z</time><hdop>5.75</hdop><vdop>6.0</vdop><extensions><gom:speed>0.605</gom:speed></extensions></trkpt>
   <trkpt lat="59.0721631536" lon="30.028027764"><ele>96.986</ele><time>2026-04-20T19:09:17.075Z</time><hdop>5.75</hdop><vdop>5.875</vdop><extensions><gom:speed>0.604</gom:speed></extensions></trkpt>
   <trkpt lat="59.0721723318" lon="30.0280175381"><ele>96.903</ele><time>2026-04-20T19:09:18.033Z</time><hdop>5.875</hdop><vdop>6.0</vdop><extensions><gom:speed>0.69</gom:speed></extensions></trkpt>
   <trkpt lat="59.0721789535" lon="30.0280142691"><ele>96.981</ele><time>2026-04-20T19:09:18.981Z</time><hdop>6.125</hdop><vdop>6.125</vdop><extensions><gom:speed>0.655</gom:speed></extensions></trkpt>
   <trkpt lat="59.0721874192" lon="30.0280108326"><ele>97.028</ele><time>2026-04-20T19:09:19.962Z</time><hdop>6.25</hdop><vdop>6.125</vdop><extensions><gom:speed>0.782</gom:speed></extensions></trkpt>
   <trkpt lat="59.0721939571" lon="30.0280071445"><ele>97.028</ele><time>2026-04-20T19:09:20.839Z</time><hdop>6.25</hdop><vdop>5.875</vdop><extensions><gom:speed>0.831</gom:speed></extensions></trkpt>
   <trkpt lat="59.0722007465" lon="30.0280056358"><ele>97.168</ele><time>2026-04-20T19:09:21.579Z</time><hdop>6.25</hdop><vdop>6.0</vdop><extensions><gom:speed>0.854</gom:speed></extensions></trkpt>
   <trkpt lat="59.0722035544" lon="30.0280053843"><ele>97.599</ele><time>2026-04-20T19:09:22.075Z</time><hdop>6.25</hdop><vdop>4.75</vdop><extensions><gom:speed>0.857</gom:speed></extensions></trkpt>
   <trkpt lat="59.0722112239" lon="30.0280097429"><ele>98.353</ele><time>2026-04-20T19:09:23.075Z</time><hdop>6.125</hdop><vdop>4.0</vdop><extensions><gom:speed>0.857</gom:speed></extensions></trkpt>
   <trkpt lat="59.0722141575" lon="30.0280122575"><ele>98.803</ele><time>2026-04-20T19:09:23.601Z</time><hdop>6.125</hdop><vdop>4.0</vdop><extensions><gom:speed>0.867</gom:speed></extensions></trkpt>
   <trkpt lat="59.0722219527" lon="30.0280187954"><ele>99.072</ele><time>2026-04-20T19:09:24.078Z</time><hdop>6.0</hdop><vdop>4.0</vdop><extensions><gom:speed>0.884</gom:speed></extensions></trkpt>
   <trkpt lat="59.0722280296" lon="30.0280265067"><ele>99.624</ele><time>2026-04-20T19:09:24.938Z</time><hdop>6.0</hdop><vdop>3.875</vdop><extensions><gom:speed>0.881</gom:speed></extensions></trkpt>
   <trkpt lat="59.0722341484" lon="30.0280353915"><ele>99.907</ele><time>2026-04-20T19:09:25.562Z</time><hdop>5.75</hdop><vdop>3.625</vdop><extensions><gom:speed>0.892</gom:speed></extensions></trkpt>
   <trkpt lat="59.0722402252" lon="30.0280432705"><ele>100.512</ele><time>2026-04-20T19:09:26.075Z</time><hdop>5.75</hdop><vdop>3.25</vdop><extensions><gom:speed>0.917</gom:speed></extensions></trkpt>
   <trkpt lat="59.0722521275" lon="30.0280529097"><ele>99.932</ele><time>2026-04-20T19:09:27.076Z</time><hdop>5.625</hdop><vdop>3.125</vdop><extensions><gom:speed>0.892</gom:speed></extensions></trkpt>
   <trkpt lat="59.0722633174" lon="30.0280565139"><ele>99.413</ele><time>2026-04-20T19:09:28.076Z</time><hdop>5.5</hdop><vdop>2.875</vdop><extensions><gom:speed>0.871</gom:speed></extensions></trkpt>
   <trkpt lat="59.0722712383" lon="30.0280599505"><ele>99.102</ele><time>2026-04-20T19:09:28.954Z</time><hdop>5.375</hdop><vdop>2.875</vdop><extensions><gom:speed>0.854</gom:speed></extensions></trkpt>
   <trkpt lat="59.0722804165" lon="30.0280648958"><ele>99.577</ele><time>2026-04-20T19:09:29.796Z</time><hdop>5.375</hdop><vdop>2.875</vdop><extensions><gom:speed>0.815</gom:speed></extensions></trkpt>
   <trkpt lat="59.0722896366" lon="30.0280695059"><ele>100.027</ele><time>2026-04-20T19:09:30.682Z</time><hdop>5.25</hdop><vdop>2.75</vdop><extensions><gom:speed>0.759</gom:speed></extensions></trkpt>
   <trkpt lat="59.0722994434" lon="30.0280765467"><ele>100.382</ele><time>2026-04-20T19:09:32.056Z</time><hdop>5.125</hdop><vdop>2.875</vdop><extensions><gom:speed>0.62</gom:speed></extensions></trkpt>
   <trkpt lat="59.0723083282" lon="30.0280799833"><ele>100.786</ele><time>2026-04-20T19:09:33.075Z</time><hdop>5.0</hdop><vdop>2.75</vdop><extensions><gom:speed>0.544</gom:speed></extensions></trkpt>
   <trkpt lat="59.0723133573" lon="30.0280814082"><ele>101.028</ele><time>2026-04-20T19:09:33.802Z</time><hdop>5.0</hdop><vdop>2.75</vdop><extensions><gom:speed>0.535</gom:speed></extensions></trkpt>
   <trkpt lat="59.0723196438" lon="30.028082414"><ele>101.108</ele><time>2026-04-20T19:09:34.474Z</time><hdop>4.875</hdop><vdop>2.625</vdop><extensions><gom:speed>0.515</gom:speed></extensions></trkpt>
   <trkpt lat="59.0723241281" lon="30.0280804862"><ele>100.758</ele><time>2026-04-20T19:09:35.075Z</time><hdop>4.875</hdop><vdop>5.25</vdop><extensions><gom:speed>0.511</gom:speed></extensions></trkpt>
   <trkpt lat="59.0723250501" lon="30.0280774687"><ele>100.549</ele><time>2026-04-20T19:09:35.921Z</time><hdop>4.75</hdop><vdop>5.25</vdop><extensions><gom:speed>0.414</gom:speed></extensions></trkpt>
   <trkpt lat="59.0723252177" lon="30.0280698412"><ele>99.786</ele><time>2026-04-20T19:09:36.987Z</time><hdop>4.625</hdop><vdop>4.625</vdop><extensions><gom:speed>0.362</gom:speed></extensions></trkpt>
   <trkpt lat="59.0723239185" lon="30.0280661531"><ele>99.226</ele><time>2026-04-20T19:09:38.054Z</time><hdop>4.625</hdop><vdop>4.5</vdop><extensions><gom:speed>0.317</gom:speed></extensions></trkpt>
   <trkpt lat="59.0723276485" lon="30.0280643091"><ele>98.89</ele><time>2026-04-20T19:09:39.076Z</time><hdop>4.625</hdop><vdop>4.5</vdop><extensions><gom:speed>0.292</gom:speed></extensions></trkpt>
   <trkpt lat="59.0723300373" lon="30.0280648958"><ele>98.574</ele><time>2026-04-20T19:09:39.950Z</time><hdop>4.5</hdop><vdop>4.5</vdop><extensions><gom:speed>0.209</gom:speed></extensions></trkpt>
   <trkpt lat="59.0723306241" lon="30.028065734"><ele>98.385</ele><time>2026-04-20T19:09:40.576Z</time><hdop>4.5</hdop><vdop>4.5</vdop><extensions><gom:speed>0.168</gom:speed></extensions></trkpt>
   <trkpt lat="59.0723318394" lon="30.028065734"><ele>98.229</ele><time>2026-04-20T19:09:41.452Z</time><hdop>4.625</hdop><vdop>4.5</vdop><extensions><gom:speed>0.195</gom:speed></extensions></trkpt>
   <trkpt lat="59.0723328453" lon="30.0280659017"><ele>98.132</ele><time>2026-04-20T19:09:41.964Z</time><hdop>4.625</hdop><vdop>4.625</vdop><extensions><gom:speed>0.218</gom:speed></extensions></trkpt>
   <trkpt lat="59.0723344378" lon="30.0280664046"><ele>98.075</ele><time>2026-04-20T19:09:42.519Z</time><hdop>4.75</hdop><vdop>4.625</vdop><extensions><gom:speed>0.21</gom:speed></extensions></trkpt>
   <trkpt lat="59.0723372458" lon="30.0280674942"><ele>98.047</ele><time>2026-04-20T19:09:43.075Z</time><hdop>4.75</hdop><vdop>4.75</vdop><extensions><gom:speed>0.219</gom:speed></extensions></trkpt>
   <trkpt lat="59.0723394251" lon="30.0280677457"><ele>98.031</ele><time>2026-04-20T19:09:43.657Z</time><hdop>4.75</hdop><vdop>4.75</vdop><extensions><gom:speed>0.253</gom:speed></extensions></trkpt>
   <trkpt lat="59.0723419396" lon="30.0280674104"><ele>98.039</ele><time>2026-04-20T19:09:44.532Z</time><hdop>4.75</hdop><vdop>5.0</vdop><extensions><gom:speed>0.249</gom:speed></extensions></trkpt>
   <trkpt lat="59.0723433226" lon="30.0280669075"><ele>98.099</ele><time>2026-04-20T19:09:45.043Z</time><hdop>4.875</hdop><vdop>5.0</vdop><extensions><gom:speed>0.273</gom:speed></extensions></trkpt>
   <trkpt lat="59.0723463401" lon="30.0280659017"><ele>98.089</ele><time>2026-04-20T19:09:45.991Z</time><hdop>4.875</hdop><vdop>5.125</vdop><extensions><gom:speed>0.313</gom:speed></extensions></trkpt>
   <trkpt lat="59.0723476393" lon="30.0280655664"><ele>98.083</ele><time>2026-04-20T19:09:46.458Z</time><hdop>5.0</hdop><vdop>5.125</vdop><extensions><gom:speed>0.319</gom:speed></extensions></trkpt>
   <trkpt lat="59.0723507406" lon="30.0280659855"><ele>98.129</ele><time>2026-04-20T19:09:47.076Z</time><hdop>5.0</hdop><vdop>5.375</vdop><extensions><gom:speed>0.312</gom:speed></extensions></trkpt>
   <trkpt lat="59.0723567337" lon="30.0280644767"><ele>98.156</ele><time>2026-04-20T19:09:48.041Z</time><hdop>5.0</hdop><vdop>5.375</vdop><extensions><gom:speed>0.46</gom:speed></extensions></trkpt>
   <trkpt lat="59.0723677559" lon="30.0280586932"><ele>98.226</ele><time>2026-04-20T19:09:48.837Z</time><hdop>5.25</hdop><vdop>5.375</vdop><extensions><gom:speed>0.71</gom:speed></extensions></trkpt>
   <trkpt lat="59.0723755511" lon="30.0280535803"><ele>98.287</ele><time>2026-04-20T19:09:49.735Z</time><hdop>5.5</hdop><vdop>5.25</vdop><extensions><gom:speed>0.817</gom:speed></extensions></trkpt>
   <trkpt lat="59.0723822566" lon="30.0280482997"><ele>98.309</ele><time>2026-04-20T19:09:50.496Z</time><hdop>5.75</hdop><vdop>5.25</vdop><extensions><gom:speed>0.791</gom:speed></extensions></trkpt>
   <trkpt lat="59.0723853579" lon="30.0280422647"><ele>98.344</ele><time>2026-04-20T19:09:50.967Z</time><hdop>5.875</hdop><vdop>5.0</vdop><extensions><gom:speed>0.769</gom:speed></extensions></trkpt>
   <trkpt lat="59.0723845197" lon="30.0280306139"><ele>98.368</ele><time>2026-04-20T19:09:52.033Z</time><hdop>6.0</hdop><vdop>4.75</vdop><extensions><gom:speed>0.665</gom:speed></extensions></trkpt>
   <trkpt lat="59.0723828433" lon="30.0280235731"><ele>98.383</ele><time>2026-04-20T19:09:53.052Z</time><hdop>6.5</hdop><vdop>4.75</vdop><extensions><gom:speed>0.567</gom:speed></extensions></trkpt>
   <trkpt lat="59.0723853579" lon="30.0280144368"><ele>98.394</ele><time>2026-04-20T19:09:53.902Z</time><hdop>6.75</hdop><vdop>4.75</vdop><extensions><gom:speed>0.592</gom:speed></extensions></trkpt>
   <trkpt lat="59.0723861542" lon="30.0280104973"><ele>98.396</ele><time>2026-04-20T19:09:54.403Z</time><hdop>6.75</hdop><vdop>4.875</vdop><extensions><gom:speed>0.615</gom:speed></extensions></trkpt>
   <trkpt lat="59.0723892555" lon="30.0279987626"><ele>98.392</ele><time>2026-04-20T19:09:54.994Z</time><hdop>7.0</hdop><vdop>5.0</vdop><extensions><gom:speed>0.638</gom:speed></extensions></trkpt>
   <trkpt lat="59.0723947456" lon="30.0279887043"><ele>98.395</ele><time>2026-04-20T19:09:55.943Z</time><hdop>7.25</hdop><vdop>5.125</vdop><extensions><gom:speed>0.757</gom:speed></extensions></trkpt>
   <trkpt lat="59.0724011578" lon="30.0279794843"><ele>98.397</ele><time>2026-04-20T19:09:56.852Z</time><hdop>7.5</hdop><vdop>5.125</vdop><extensions><gom:speed>0.864</gom:speed></extensions></trkpt>
   <trkpt lat="59.0724083243" lon="30.0279716053"><ele>98.396</ele><time>2026-04-20T19:09:57.556Z</time><hdop>7.625</hdop><vdop>5.125</vdop><extensions><gom:speed>0.928</gom:speed></extensions></trkpt>
   <trkpt lat="59.0724166224" lon="30.0279654027"><ele>98.408</ele><time>2026-04-20T19:09:58.393Z</time><hdop>7.875</hdop><vdop>5.25</vdop><extensions><gom:speed>0.941</gom:speed></extensions></trkpt>
   <trkpt lat="59.0724231184" lon="30.0279626366"><ele>98.416</ele><time>2026-04-20T19:09:59.022Z</time><hdop>8.0</hdop><vdop>5.375</vdop><extensions><gom:speed>0.927</gom:speed></extensions></trkpt>
   <trkpt lat="59.0724317517" lon="30.0279581104"><ele>98.425</ele><time>2026-04-20T19:09:59.970Z</time><hdop>8.25</hdop><vdop>5.5</vdop><extensions><gom:speed>0.887</gom:speed></extensions></trkpt>
   <trkpt lat="59.0724327576" lon="30.0279571046"><ele>98.431</ele><time>2026-04-20T19:10:00.562Z</time><hdop>8.375</hdop><vdop>5.5</vdop><extensions><gom:speed>0.837</gom:speed></extensions></trkpt>
   <trkpt lat="59.0724411395" lon="30.0279532489"><ele>98.435</ele><time>2026-04-20T19:10:01.036Z</time><hdop>8.5</hdop><vdop>5.625</vdop><extensions><gom:speed>0.768</gom:speed></extensions></trkpt>
   <trkpt lat="59.0724320451" lon="30.0279643968"><ele>98.444</ele><time>2026-04-20T19:10:02.075Z</time><hdop>8.625</hdop><vdop>5.75</vdop><extensions><gom:speed>0.605</gom:speed></extensions></trkpt>
   <trkpt lat="59.0724272255" lon="30.027970348"><ele>98.467</ele><time>2026-04-20T19:10:03.051Z</time><hdop>8.625</hdop><vdop>5.625</vdop><extensions><gom:speed>0.569</gom:speed></extensions></trkpt>
   <trkpt lat="59.0724285247" lon="30.027972192"><ele>98.48</ele><time>2026-04-20T19:10:03.998Z</time><hdop>8.625</hdop><vdop>5.625</vdop><extensions><gom:speed>0.541</gom:speed></extensions></trkpt>
   <trkpt lat="59.072429321" lon="30.0279723596"><ele>98.487</ele><time>2026-04-20T19:10:04.454Z</time><hdop>8.625</hdop><vdop>5.625</vdop><extensions><gom:speed>0.533</gom:speed></extensions></trkpt>
   <trkpt lat="59.0724310393" lon="30.0279711862"><ele>98.492</ele><time>2026-04-20T19:10:04.939Z</time><hdop>8.625</hdop><vdop>5.625</vdop><extensions><gom:speed>0.539</gom:speed></extensions></trkpt>
   <trkpt lat="59.0724342244" lon="30.0279664085"><ele>98.51</ele><time>2026-04-20T19:10:05.719Z</time><hdop>8.5</hdop><vdop>5.5</vdop><extensions><gom:speed>0.604</gom:speed></extensions></trkpt>
   <trkpt lat="59.0724391278" lon="30.0279586133"><ele>98.53</ele><time>2026-04-20T19:10:06.637Z</time><hdop>8.5</hdop><vdop>5.375</vdop><extensions><gom:speed>0.626</gom:speed></extensions></trkpt>
   <trkpt lat="59.0724470487" lon="30.0279533327"><ele>98.551</ele><time>2026-04-20T19:10:07.673Z</time><hdop>8.75</hdop><vdop>5.0</vdop><extensions><gom:speed>0.611</gom:speed></extensions></trkpt>
   <trkpt lat="59.0724516168" lon="30.0279535842"><ele>98.567</ele><time>2026-04-20T19:10:08.600Z</time><hdop>8.875</hdop><vdop>5.125</vdop><extensions><gom:speed>0.63</gom:speed></extensions></trkpt>
   <trkpt lat="59.0724420196" lon="30.0279705994"><ele>97.527</ele><time>2026-04-20T19:10:09.076Z</time><hdop>8.875</hdop><vdop>4.375</vdop><extensions><gom:speed>0.584</gom:speed></extensions></trkpt>
   <trkpt lat="59.0724324223" lon="30.0279913866"><ele>96.791</ele><time>2026-04-20T19:10:10.075Z</time><hdop>8.625</hdop><vdop>4.25</vdop><extensions><gom:speed>0.486</gom:speed></extensions></trkpt>
   <trkpt lat="59.0724291533" lon="30.0279990141"><ele>95.668</ele><time>2026-04-20T19:10:11.075Z</time><hdop>8.125</hdop><vdop>4.375</vdop><extensions><gom:speed>0.401</gom:speed></extensions></trkpt>
   <trkpt lat="59.0724310393" lon="30.0279982597"><ele>94.996</ele><time>2026-04-20T19:10:11.937Z</time><hdop>7.625</hdop><vdop>4.375</vdop><extensions><gom:speed>0.471</gom:speed></extensions></trkpt>
   <trkpt lat="59.0724357331" lon="30.0279956613"><ele>94.231</ele><time>2026-04-20T19:10:12.697Z</time><hdop>7.0</hdop><vdop>4.375</vdop><extensions><gom:speed>0.543</gom:speed></extensions></trkpt>
   <trkpt lat="59.0724433188" lon="30.0279929791"><ele>93.806</ele><time>2026-04-20T19:10:13.360Z</time><hdop>6.5</hdop><vdop>4.375</vdop><extensions><gom:speed>0.588</gom:speed></extensions></trkpt>
   <trkpt lat="59.0724510301" lon="30.027989794"><ele>93.759</ele><time>2026-04-20T19:10:14.075Z</time><hdop>6.125</hdop><vdop>4.25</vdop><extensions><gom:speed>0.672</gom:speed></extensions></trkpt>
   <trkpt lat="59.0724564364" lon="30.0279842619"><ele>93.731</ele><time>2026-04-20T19:10:14.978Z</time><hdop>5.875</hdop><vdop>4.25</vdop><extensions><gom:speed>0.589</gom:speed></extensions></trkpt>
   <trkpt lat="59.0724635191" lon="30.0279776402"><ele>94.391</ele><time>2026-04-20T19:10:15.648Z</time><hdop>5.625</hdop><vdop>4.125</vdop><extensions><gom:speed>0.575</gom:speed></extensions></trkpt>
   <trkpt lat="59.0724729488" lon="30.0279732816"><ele>95.039</ele><time>2026-04-20T19:10:16.281Z</time><hdop>5.625</hdop><vdop>4.25</vdop><extensions><gom:speed>0.585</gom:speed></extensions></trkpt>
   <trkpt lat="59.0724795286" lon="30.0279692583"><ele>95.427</ele><time>2026-04-20T19:10:17.023Z</time><hdop>5.625</hdop><vdop>4.25</vdop><extensions><gom:speed>0.676</gom:speed></extensions></trkpt>
   <trkpt lat="59.0724924367" lon="30.0279626366"><ele>95.58</ele><time>2026-04-20T19:10:17.773Z</time><hdop>5.625</hdop><vdop>4.25</vdop><extensions><gom:speed>0.77</gom:speed></extensions></trkpt>
   <trkpt lat="59.0725067279" lon="30.0279524945"><ele>95.903</ele><time>2026-04-20T19:10:18.582Z</time><hdop>5.5</hdop><vdop>3.875</vdop><extensions><gom:speed>0.805</gom:speed></extensions></trkpt>
   <trkpt lat="59.0725158222" lon="30.0279444479"><ele>96.0</ele><time>2026-04-20T19:10:19.075Z</time><hdop>5.5</hdop><vdop>3.625</vdop><extensions><gom:speed>0.813</gom:speed></extensions></trkpt>
   <trkpt lat="59.07252982" lon="30.0279279355"><ele>95.98</ele><time>2026-04-20T19:10:20.076Z</time><hdop>5.25</hdop><vdop>3.5</vdop><extensions><gom:speed>0.839</gom:speed></extensions></trkpt>
   <trkpt lat="59.0725362321" lon="30.027919386"><ele>95.968</ele><time>2026-04-20T19:10:20.793Z</time><hdop>5.125</hdop><vdop>3.5</vdop><extensions><gom:speed>0.913</gom:speed></extensions></trkpt>
   <trkpt lat="59.0725470448" lon="30.0279097468"><ele>96.138</ele><time>2026-04-20T19:10:21.533Z</time><hdop>5.0</hdop><vdop>3.5</vdop><extensions><gom:speed>0.959</gom:speed></extensions></trkpt>
   <trkpt lat="59.0725555524" lon="30.0279032928"><ele>96.333</ele><time>2026-04-20T19:10:22.075Z</time><hdop>4.875</hdop><vdop>3.625</vdop><extensions><gom:speed>1.006</gom:speed></extensions></trkpt>
   <trkpt lat="59.0725667423" lon="30.0278954138"><ele>96.45</ele><time>2026-04-20T19:10:22.975Z</time><hdop>4.625</hdop><vdop>3.625</vdop><extensions><gom:speed>1.027</gom:speed></extensions></trkpt>
   <trkpt lat="59.0725774292" lon="30.0278905523"><ele>96.517</ele><time>2026-04-20T19:10:23.656Z</time><hdop>4.5</hdop><vdop>3.625</vdop><extensions><gom:speed>1.039</gom:speed></extensions></trkpt>
   <trkpt lat="59.0725892477" lon="30.027886948"><ele>96.155</ele><time>2026-04-20T19:10:24.401Z</time><hdop>4.375</hdop><vdop>3.375</vdop><extensions><gom:speed>0.98</gom:speed></extensions></trkpt>
   <trkpt lat="59.0725989288" lon="30.0278846849"><ele>95.931</ele><time>2026-04-20T19:10:25.075Z</time><hdop>4.5</hdop><vdop>3.25</vdop><extensions><gom:speed>0.978</gom:speed></extensions></trkpt>
   <trkpt lat="59.0726110406" lon="30.0278807454"><ele>95.797</ele><time>2026-04-20T19:10:25.936Z</time><hdop>4.5</hdop><vdop>3.25</vdop><extensions><gom:speed>0.989</gom:speed></extensions></trkpt>
   <trkpt lat="59.0726206379" lon="30.0278773089"><ele>96.179</ele><time>2026-04-20T19:10:26.677Z</time><hdop>4.5</hdop><vdop>3.0</vdop><extensions><gom:speed>1.025</gom:speed></extensions></trkpt>
   <trkpt lat="59.0726319535" lon="30.0278750457"><ele>96.887</ele><time>2026-04-20T19:10:27.377Z</time><hdop>4.5</hdop><vdop>3.0</vdop><extensions><gom:speed>1.037</gom:speed></extensions></trkpt>
   <trkpt lat="59.0726424309" lon="30.027875381"><ele>97.427</ele><time>2026-04-20T19:10:28.075Z</time><hdop>4.625</hdop><vdop>2.75</vdop><extensions><gom:speed>1.012</gom:speed></extensions></trkpt>
   <trkpt lat="59.0726524472" lon="30.0278787338"><ele>97.75</ele><time>2026-04-20T19:10:29.017Z</time><hdop>4.625</hdop><vdop>2.75</vdop><extensions><gom:speed>0.972</gom:speed></extensions></trkpt>
   <trkpt lat="59.0726646429" lon="30.027882338"><ele>97.967</ele><time>2026-04-20T19:10:29.837Z</time><hdop>4.625</hdop><vdop>2.875</vdop><extensions><gom:speed>0.949</gom:speed></extensions></trkpt>
   <trkpt lat="59.0726777187" lon="30.027884182"><ele>98.311</ele><time>2026-04-20T19:10:30.755Z</time><hdop>4.75</hdop><vdop>2.75</vdop><extensions><gom:speed>0.889</gom:speed></extensions></trkpt>
   <trkpt lat="59.0726853462" lon="30.0278846849"><ele>98.706</ele><time>2026-04-20T19:10:31.601Z</time><hdop>4.625</hdop><vdop>2.625</vdop><extensions><gom:speed>0.834</gom:speed></extensions></trkpt>
   <trkpt lat="59.0726952369" lon="30.02788787"><ele>99.132</ele><time>2026-04-20T19:10:32.076Z</time><hdop>4.625</hdop><vdop>2.625</vdop><extensions><gom:speed>0.815</gom:speed></extensions></trkpt>
   <trkpt lat="59.0727017328" lon="30.0278944079"><ele>99.386</ele><time>2026-04-20T19:10:32.820Z</time><hdop>4.75</hdop><vdop>2.625</vdop><extensions><gom:speed>0.898</gom:speed></extensions></trkpt>
   <trkpt lat="59.0727097375" lon="30.0279065617"><ele>99.393</ele><time>2026-04-20T19:10:33.696Z</time><hdop>4.75</hdop><vdop>2.5</vdop><extensions><gom:speed>0.899</gom:speed></extensions></trkpt>
   <trkpt lat="59.072716024" lon="30.0279198889"><ele>99.311</ele><time>2026-04-20T19:10:34.654Z</time><hdop>4.625</hdop><vdop>2.75</vdop><extensions><gom:speed>0.837</gom:speed></extensions></trkpt>
   <trkpt lat="59.0727199216" lon="30.0279333838"><ele>99.375</ele><time>2026-04-20T19:10:35.681Z</time><hdop>4.625</hdop><vdop>2.625</vdop><extensions><gom:speed>0.759</gom:speed></extensions></trkpt>
   <trkpt lat="59.0727178261" lon="30.0279364851"><ele>99.025</ele><time>2026-04-20T19:10:37.076Z</time><hdop>4.5</hdop><vdop>2.5</vdop><extensions><gom:speed>0.596</gom:speed></extensions></trkpt>
   <trkpt lat="59.0727185385" lon="30.0279344734"><ele>98.816</ele><time>2026-04-20T19:10:37.761Z</time><hdop>4.5</hdop><vdop>2.5</vdop><extensions><gom:speed>0.551</gom:speed></extensions></trkpt>
   <trkpt lat="59.0727178261" lon="30.0279358984"><ele>98.164</ele><time>2026-04-20T19:10:38.945Z</time><hdop>4.375</hdop><vdop>4.875</vdop><extensions><gom:speed>0.316</gom:speed></extensions></trkpt>
   <trkpt lat="59.0727179518" lon="30.0279374909"><ele>97.603</ele><time>2026-04-20T19:10:40.012Z</time><hdop>4.5</hdop><vdop>4.625</vdop><extensions><gom:speed>0.242</gom:speed></extensions></trkpt>
   <trkpt lat="59.0727179518" lon="30.0279387482"><ele>97.444</ele><time>2026-04-20T19:10:40.960Z</time><hdop>4.5</hdop><vdop>4.5</vdop><extensions><gom:speed>0.166</gom:speed></extensions></trkpt>
   <trkpt lat="59.0727186224" lon="30.0279403408"><ele>97.512</ele><time>2026-04-20T19:10:42.025Z</time><hdop>4.625</hdop><vdop>4.375</vdop><extensions><gom:speed>0.114</gom:speed></extensions></trkpt>
   <trkpt lat="59.0727193348" lon="30.0279412628"><ele>97.643</ele><time>2026-04-20T19:10:42.973Z</time><hdop>4.75</hdop><vdop>4.375</vdop><extensions><gom:speed>0.095</gom:speed></extensions></trkpt>
   <trkpt lat="59.0727197539" lon="30.0279417657"><ele>97.721</ele><time>2026-04-20T19:10:43.921Z</time><hdop>4.875</hdop><vdop>4.375</vdop><extensions><gom:speed>0.094</gom:speed></extensions></trkpt>
   <trkpt lat="59.0727195444" lon="30.0279428553"><ele>97.721</ele><time>2026-04-20T19:10:44.987Z</time><hdop>5.0</hdop><vdop>4.375</vdop><extensions><gom:speed>0.078</gom:speed></extensions></trkpt>
   <trkpt lat="59.0727214303" lon="30.0279433582"><ele>97.733</ele><time>2026-04-20T19:10:46.075Z</time><hdop>5.0</hdop><vdop>4.25</vdop><extensions><gom:speed>0.1</gom:speed></extensions></trkpt>
   <trkpt lat="59.0727217237" lon="30.0279437773"><ele>97.724</ele><time>2026-04-20T19:10:47.001Z</time><hdop>5.0</hdop><vdop>4.125</vdop><extensions><gom:speed>0.07</gom:speed></extensions></trkpt>
   <trkpt lat="59.0727243221" lon="30.027943945"><ele>97.709</ele><time>2026-04-20T19:10:48.075Z</time><hdop>4.875</hdop><vdop>3.75</vdop><extensions><gom:speed>0.066</gom:speed></extensions></trkpt>
   <trkpt lat="59.0727270462" lon="30.0279444479"><ele>97.706</ele><time>2026-04-20T19:10:49.075Z</time><hdop>4.75</hdop><vdop>3.625</vdop><extensions><gom:speed>0.069</gom:speed></extensions></trkpt>
   <trkpt lat="59.0727284292" lon="30.027941179"><ele>97.711</ele><time>2026-04-20T19:10:50.075Z</time><hdop>4.75</hdop><vdop>3.5</vdop><extensions><gom:speed>0.095</gom:speed></extensions></trkpt>
   <trkpt lat="59.0727306504" lon="30.0279395864"><ele>97.711</ele><time>2026-04-20T19:10:51.075Z</time><hdop>4.625</hdop><vdop>3.25</vdop><extensions><gom:speed>0.064</gom:speed></extensions></trkpt>
   <trkpt lat="59.0727324525" lon="30.0279366527"><ele>97.727</ele><time>2026-04-20T19:10:52.075Z</time><hdop>4.5</hdop><vdop>3.125</vdop><extensions><gom:speed>0.065</gom:speed></extensions></trkpt>
   <trkpt lat="59.0727339193" lon="30.0279338867"><ele>97.732</ele><time>2026-04-20T19:10:53.075Z</time><hdop>4.375</hdop><vdop>3.0</vdop><extensions><gom:speed>0.1</gom:speed></extensions></trkpt>
   <trkpt lat="59.0727354281" lon="30.0279317912"><ele>97.745</ele><time>2026-04-20T19:10:54.075Z</time><hdop>4.375</hdop><vdop>3.125</vdop><extensions><gom:speed>0.066</gom:speed></extensions></trkpt>
   <trkpt lat="59.072735931" lon="30.0279312045"><ele>97.753</ele><time>2026-04-20T19:10:55.075Z</time><hdop>4.25</hdop><vdop>3.125</vdop><extensions><gom:speed>0.064</gom:speed></extensions></trkpt>
   <trkpt lat="59.0727371464" lon="30.0279305339"><ele>97.773</ele><time>2026-04-20T19:10:56.075Z</time><hdop>4.125</hdop><vdop>3.125</vdop><extensions><gom:speed>0.066</gom:speed></extensions></trkpt>
   <trkpt lat="59.0727379426" lon="30.0279298634"><ele>97.796</ele><time>2026-04-20T19:10:57.075Z</time><hdop>4.0</hdop><vdop>3.125</vdop><extensions><gom:speed>0.067</gom:speed></extensions></trkpt>
   <trkpt lat="59.0727383198" lon="30.0279301148"><ele>97.806</ele><time>2026-04-20T19:10:58.076Z</time><hdop>3.875</hdop><vdop>2.875</vdop><extensions><gom:speed>0.074</gom:speed></extensions></trkpt>
   <trkpt lat="59.0727386551" lon="30.0279294443"><ele>97.819</ele><time>2026-04-20T19:10:59.075Z</time><hdop>3.875</hdop><vdop>2.75</vdop><extensions><gom:speed>0.079</gom:speed></extensions></trkpt>
   <trkpt lat="59.0727388227" lon="30.0279284385"><ele>97.825</ele><time>2026-04-20T19:11:00.075Z</time><hdop>3.75</hdop><vdop>2.75</vdop><extensions><gom:speed>0.081</gom:speed></extensions></trkpt>
   <trkpt lat="59.0727390323" lon="30.0279282708"><ele>97.83</ele><time>2026-04-20T19:11:01.075Z</time><hdop>3.75</hdop><vdop>2.625</vdop><extensions><gom:speed>0.087</gom:speed></extensions></trkpt>
   <trkpt lat="59.072739158" lon="30.0279273488"><ele>97.826</ele><time>2026-04-20T19:11:02.075Z</time><hdop>3.625</hdop><vdop>2.5</vdop><extensions><gom:speed>0.091</gom:speed></extensions></trkpt>
   <trkpt lat="59.072739158" lon="30.0279267621"><ele>97.826</ele><time>2026-04-20T19:11:03.076Z</time><hdop>3.625</hdop><vdop>2.5</vdop><extensions><gom:speed>0.091</gom:speed></extensions></trkpt>
   <trkpt lat="59.0727393257" lon="30.0279262592"><ele>97.825</ele><time>2026-04-20T19:11:04.076Z</time><hdop>3.625</hdop><vdop>2.5</vdop><extensions><gom:speed>0.094</gom:speed></extensions></trkpt>
   <trkpt lat="59.0727395352" lon="30.0279257563"><ele>97.819</ele><time>2026-04-20T19:11:05.076Z</time><hdop>3.625</hdop><vdop>2.5</vdop><extensions><gom:speed>0.097</gom:speed></extensions></trkpt>
   <trkpt lat="59.072739619" lon="30.0279251695"><ele>97.809</ele><time>2026-04-20T19:11:06.076Z</time><hdop>3.625</hdop><vdop>2.5</vdop><extensions><gom:speed>0.097</gom:speed></extensions></trkpt>
   <trkpt lat="59.072739619" lon="30.0279245828"><ele>97.805</ele><time>2026-04-20T19:11:07.075Z</time><hdop>3.625</hdop><vdop>2.5</vdop><extensions><gom:speed>0.103</gom:speed></extensions></trkpt>
   <trkpt lat="59.0727397448" lon="30.0279240799"><ele>97.804</ele><time>2026-04-20T19:11:08.075Z</time><hdop>3.625</hdop><vdop>2.5</vdop><extensions><gom:speed>0.156</gom:speed></extensions></trkpt>
   <trkpt lat="59.0727397448" lon="30.0279240799"><ele>97.804</ele><time>2026-04-20T19:11:08.680Z</time><hdop>3.625</hdop><vdop>2.5</vdop><extensions><gom:speed>0.156</gom:speed></extensions></trkpt>
   <trkpt lat="59.0727400381" lon="30.0279226549"><ele>97.808</ele><time>2026-04-20T19:11:10.075Z</time><hdop>3.75</hdop><vdop>2.5</vdop><extensions><gom:speed>0.21</gom:speed></extensions></trkpt>
   <trkpt lat="59.0727401219" lon="30.0279217329"><ele>97.813</ele><time>2026-04-20T19:11:11.075Z</time><hdop>3.875</hdop><vdop>2.5</vdop><extensions><gom:speed>0.227</gom:speed></extensions></trkpt>
   <trkpt lat="59.0727401219" lon="30.0279208947"><ele>97.817</ele><time>2026-04-20T19:11:12.076Z</time><hdop>3.875</hdop><vdop>2.5</vdop><extensions><gom:speed>0.239</gom:speed></extensions></trkpt>
   <trkpt lat="59.0727403315" lon="30.0279196375"><ele>97.823</ele><time>2026-04-20T19:11:13.076Z</time><hdop>4.0</hdop><vdop>2.5</vdop><extensions><gom:speed>0.219</gom:speed></extensions></trkpt>
   <trkpt lat="59.0727406249" lon="30.0279187155"><ele>97.83</ele><time>2026-04-20T19:11:14.075Z</time><hdop>4.125</hdop><vdop>2.5</vdop><extensions><gom:speed>0.204</gom:speed></extensions></trkpt>
   <trkpt lat="59.0727407506" lon="30.0279187155"><ele>97.834</ele><time>2026-04-20T19:11:14.841Z</time><hdop>4.125</hdop><vdop>2.5</vdop><extensions><gom:speed>0.204</gom:speed></extensions></trkpt>
   <trkpt lat="59.0727412535" lon="30.0279162847"><ele>97.842</ele><time>2026-04-20T19:11:16.075Z</time><hdop>4.5</hdop><vdop>2.625</vdop><extensions><gom:speed>0.17</gom:speed></extensions></trkpt>
   <trkpt lat="59.0727414211" lon="30.0279153627"><ele>97.848</ele><time>2026-04-20T19:11:17.075Z</time><hdop>4.625</hdop><vdop>2.75</vdop><extensions><gom:speed>0.158</gom:speed></extensions></trkpt>
   <trkpt lat="59.0727418402" lon="30.0279146083"><ele>97.853</ele><time>2026-04-20T19:11:18.075Z</time><hdop>4.625</hdop><vdop>2.625</vdop><extensions><gom:speed>0.147</gom:speed></extensions></trkpt>
   <trkpt lat="59.0727421336" lon="30.0279138539"><ele>97.857</ele><time>2026-04-20T19:11:19.075Z</time><hdop>4.75</hdop><vdop>2.625</vdop><extensions><gom:speed>0.141</gom:speed></extensions></trkpt>
   <trkpt lat="59.072742427" lon="30.0279131834"><ele>97.86</ele><time>2026-04-20T19:11:20.075Z</time><hdop>4.75</hdop><vdop>2.625</vdop><extensions><gom:speed>0.138</gom:speed></extensions></trkpt>
   <trkpt lat="59.072742427" lon="30.0279130158"><ele>97.862</ele><time>2026-04-20T19:11:21.001Z</time><hdop>4.75</hdop><vdop>2.625</vdop><extensions><gom:speed>0.138</gom:speed></extensions></trkpt>
   <trkpt lat="59.0727431394" lon="30.0279122614"><ele>97.865</ele><time>2026-04-20T19:11:22.075Z</time><hdop>4.75</hdop><vdop>2.75</vdop><extensions><gom:speed>0.127</gom:speed></extensions></trkpt>
   <trkpt lat="59.072743349" lon="30.0279118423"><ele>97.867</ele><time>2026-04-20T19:11:23.075Z</time><hdop>4.75</hdop><vdop>2.875</vdop><extensions><gom:speed>0.122</gom:speed></extensions></trkpt>
   <trkpt lat="59.0727434328" lon="30.0279112556"><ele>97.868</ele><time>2026-04-20T19:11:24.075Z</time><hdop>4.75</hdop><vdop>2.875</vdop><extensions><gom:speed>0.12</gom:speed></extensions></trkpt>
   <trkpt lat="59.0727435166" lon="30.0279107526"><ele>97.87</ele><time>2026-04-20T19:11:25.075Z</time><hdop>4.75</hdop><vdop>2.875</vdop><extensions><gom:speed>0.114</gom:speed></extensions></trkpt>
   <trkpt lat="59.0727436423" lon="30.0279103335"><ele>97.871</ele><time>2026-04-20T19:11:26.075Z</time><hdop>4.75</hdop><vdop>2.875</vdop><extensions><gom:speed>0.112</gom:speed></extensions></trkpt>
   <trkpt lat="59.0727438519" lon="30.0279099983"><ele>97.872</ele><time>2026-04-20T19:11:27.075Z</time><hdop>4.75</hdop><vdop>2.875</vdop><extensions><gom:speed>0.112</gom:speed></extensions></trkpt>
   <trkpt lat="59.0727441453" lon="30.0279095792"><ele>97.871</ele><time>2026-04-20T19:11:28.075Z</time><hdop>4.75</hdop><vdop>2.875</vdop><extensions><gom:speed>0.114</gom:speed></extensions></trkpt>
   <trkpt lat="59.0727443548" lon="30.0279092439"><ele>97.871</ele><time>2026-04-20T19:11:29.075Z</time><hdop>4.625</hdop><vdop>2.75</vdop><extensions><gom:speed>0.114</gom:speed></extensions></trkpt>
   <trkpt lat="59.0727446482" lon="30.0279090763"><ele>97.871</ele><time>2026-04-20T19:11:30.075Z</time><hdop>4.625</hdop><vdop>2.75</vdop><extensions><gom:speed>0.145</gom:speed></extensions></trkpt>
   <trkpt lat="59.0727450254" lon="30.0279079028"><ele>97.873</ele><time>2026-04-20T19:11:31.076Z</time><hdop>4.625</hdop><vdop>2.875</vdop><extensions><gom:speed>0.185</gom:speed></extensions></trkpt>
   <trkpt lat="59.0727451511" lon="30.0279071484"><ele>97.874</ele><time>2026-04-20T19:11:31.735Z</time><hdop>4.625</hdop><vdop>2.875</vdop><extensions><gom:speed>0.186</gom:speed></extensions></trkpt>
   <trkpt lat="59.0727455283" lon="30.0279064779"><ele>97.875</ele><time>2026-04-20T19:11:32.534Z</time><hdop>4.625</hdop><vdop>3.125</vdop><extensions><gom:speed>0.251</gom:speed></extensions></trkpt>
   <trkpt lat="59.0727457378" lon="30.0279060588"><ele>97.875</ele><time>2026-04-20T19:11:33.075Z</time><hdop>4.625</hdop><vdop>3.375</vdop><extensions><gom:speed>0.241</gom:speed></extensions></trkpt>
   <trkpt lat="59.0727463246" lon="30.0279051368"><ele>97.877</ele><time>2026-04-20T19:11:34.075Z</time><hdop>4.75</hdop><vdop>3.125</vdop><extensions><gom:speed>0.223</gom:speed></extensions></trkpt>
   <trkpt lat="59.0727467436" lon="30.0279043824"><ele>97.879</ele><time>2026-04-20T19:11:35.075Z</time><hdop>4.75</hdop><vdop>3.125</vdop><extensions><gom:speed>0.205</gom:speed></extensions></trkpt>
   <trkpt lat="59.0727472466" lon="30.0279032089"><ele>97.88</ele><time>2026-04-20T19:11:36.075Z</time><hdop>4.875</hdop><vdop>3.125</vdop><extensions><gom:speed>0.205</gom:speed></extensions></trkpt>
   <trkpt lat="59.0727478333" lon="30.0279030413"><ele>97.884</ele><time>2026-04-20T19:11:37.075Z</time><hdop>4.875</hdop><vdop>3.125</vdop><extensions><gom:speed>0.23</gom:speed></extensions></trkpt>
   <trkpt lat="59.07274842" lon="30.0279024546"><ele>97.889</ele><time>2026-04-20T19:11:38.075Z</time><hdop>5.125</hdop><vdop>3.25</vdop><extensions><gom:speed>0.227</gom:speed></extensions></trkpt>
   <trkpt lat="59.0727489229" lon="30.0279015326"><ele>97.894</ele><time>2026-04-20T19:11:39.076Z</time><hdop>5.125</hdop><vdop>3.125</vdop><extensions><gom:speed>0.217</gom:speed></extensions></trkpt>
   <trkpt lat="59.072749342" lon="30.0279004429"><ele>97.896</ele><time>2026-04-20T19:11:40.076Z</time><hdop>5.25</hdop><vdop>3.0</vdop><extensions><gom:speed>0.204</gom:speed></extensions></trkpt>
   <trkpt lat="59.0727494259" lon="30.0278997724"><ele>97.898</ele><time>2026-04-20T19:11:41.075Z</time><hdop>5.375</hdop><vdop>3.0</vdop><extensions><gom:speed>0.191</gom:speed></extensions></trkpt>
   <trkpt lat="59.0727497192" lon="30.0278989342"><ele>97.898</ele><time>2026-04-20T19:11:42.076Z</time><hdop>5.375</hdop><vdop>2.875</vdop><extensions><gom:speed>0.178</gom:speed></extensions></trkpt>
   <trkpt lat="59.0727504317" lon="30.0278982636"><ele>97.899</ele><time>2026-04-20T19:11:43.075Z</time><hdop>5.375</hdop><vdop>2.875</vdop><extensions><gom:speed>0.174</gom:speed></extensions></trkpt>
   <trkpt lat="59.0727509346" lon="30.0278980122"><ele>97.899</ele><time>2026-04-20T19:11:44.075Z</time><hdop>5.375</hdop><vdop>3.0</vdop><extensions><gom:speed>0.167</gom:speed></extensions></trkpt>
   <trkpt lat="59.0727513537" lon="30.0278978445"><ele>97.899</ele><time>2026-04-20T19:11:45.075Z</time><hdop>5.375</hdop><vdop>3.0</vdop><extensions><gom:speed>0.157</gom:speed></extensions></trkpt>
   <trkpt lat="59.0727513537" lon="30.0278980122"><ele>97.899</ele><time>2026-04-20T19:11:45.643Z</time><hdop>5.375</hdop><vdop>3.0</vdop><extensions><gom:speed>0.157</gom:speed></extensions></trkpt>
   <trkpt lat="59.0727519404" lon="30.0278978445"><ele>97.901</ele><time>2026-04-20T19:11:47.075Z</time><hdop>5.375</hdop><vdop>3.0</vdop><extensions><gom:speed>0.143</gom:speed></extensions></trkpt>
   <trkpt lat="59.0727520242" lon="30.0278980122"><ele>97.903</ele><time>2026-04-20T19:11:48.075Z</time><hdop>5.375</hdop><vdop>3.125</vdop><extensions><gom:speed>0.138</gom:speed></extensions></trkpt>
   <trkpt lat="59.07275215" lon="30.027898096"><ele>97.904</ele><time>2026-04-20T19:11:49.075Z</time><hdop>5.25</hdop><vdop>3.0</vdop><extensions><gom:speed>0.13</gom:speed></extensions></trkpt>
   <trkpt lat="59.0727522338" lon="30.0278980122"><ele>97.907</ele><time>2026-04-20T19:11:50.076Z</time><hdop>5.25</hdop><vdop>3.0</vdop><extensions><gom:speed>0.127</gom:speed></extensions></trkpt>
   <trkpt lat="59.0727523176" lon="30.0278980122"><ele>97.908</ele><time>2026-04-20T19:11:51.075Z</time><hdop>5.125</hdop><vdop>2.875</vdop><extensions><gom:speed>0.124</gom:speed></extensions></trkpt>
   <trkpt lat="59.0727522338" lon="30.027898096"><ele>97.909</ele><time>2026-04-20T19:11:51.921Z</time><hdop>5.125</hdop><vdop>2.875</vdop><extensions><gom:speed>0.124</gom:speed></extensions></trkpt>
   <trkpt lat="59.0727524433" lon="30.0278981798"><ele>97.911</ele><time>2026-04-20T19:11:53.075Z</time><hdop>5.125</hdop><vdop>2.75</vdop><extensions><gom:speed>0.118</gom:speed></extensions></trkpt>
   <trkpt lat="59.0727524433" lon="30.0278983474"><ele>97.913</ele><time>2026-04-20T19:11:54.075Z</time><hdop>5.125</hdop><vdop>2.875</vdop><extensions><gom:speed>0.117</gom:speed></extensions></trkpt>
   <trkpt lat="59.0727524433" lon="30.0278986827"><ele>97.915</ele><time>2026-04-20T19:11:55.075Z</time><hdop>5.0</hdop><vdop>2.75</vdop><extensions><gom:speed>0.117</gom:speed></extensions></trkpt>
   <trkpt lat="59.0727524433" lon="30.0278988503"><ele>97.917</ele><time>2026-04-20T19:11:56.075Z</time><hdop>5.0</hdop><vdop>2.625</vdop><extensions><gom:speed>0.118</gom:speed></extensions></trkpt>
   <trkpt lat="59.0727523176" lon="30.0278992694"><ele>97.92</ele><time>2026-04-20T19:11:57.075Z</time><hdop>4.875</hdop><vdop>2.5</vdop><extensions><gom:speed>0.118</gom:speed></extensions></trkpt>
   <trkpt lat="59.0727524433" lon="30.0279002753"><ele>97.922</ele><time>2026-04-20T19:11:58.075Z</time><hdop>4.875</hdop><vdop>2.5</vdop><extensions><gom:speed>0.122</gom:speed></extensions></trkpt>
   <trkpt lat="59.0727526529" lon="30.0279006944"><ele>97.924</ele><time>2026-04-20T19:11:59.075Z</time><hdop>4.875</hdop><vdop>2.5</vdop><extensions><gom:speed>0.119</gom:speed></extensions></trkpt>
   <trkpt lat="59.0727525272" lon="30.027900862"><ele>97.927</ele><time>2026-04-20T19:12:00.076Z</time><hdop>4.875</hdop><vdop>2.5</vdop><extensions><gom:speed>0.116</gom:speed></extensions></trkpt>
   <trkpt lat="59.0727525272" lon="30.0279009458"><ele>97.929</ele><time>2026-04-20T19:12:01.076Z</time><hdop>4.75</hdop><vdop>2.5</vdop><extensions><gom:speed>0.114</gom:speed></extensions></trkpt>
   <trkpt lat="59.0727525272" lon="30.0279009458"><ele>97.932</ele><time>2026-04-20T19:12:02.075Z</time><hdop>4.75</hdop><vdop>2.5</vdop><extensions><gom:speed>0.139</gom:speed></extensions></trkpt>
   <trkpt lat="59.0727526529" lon="30.0279009458"><ele>97.935</ele><time>2026-04-20T19:12:03.075Z</time><hdop>4.75</hdop><vdop>2.625</vdop><extensions><gom:speed>0.14</gom:speed></extensions></trkpt>
   <trkpt lat="59.0727527367" lon="30.027900862"><ele>97.939</ele><time>2026-04-20T19:12:04.076Z</time><hdop>4.75</hdop><vdop>2.625</vdop><extensions><gom:speed>0.138</gom:speed></extensions></trkpt>
   <trkpt lat="59.0727529463" lon="30.027900862"><ele>97.942</ele><time>2026-04-20T19:12:05.075Z</time><hdop>4.75</hdop><vdop>2.5</vdop><extensions><gom:speed>0.136</gom:speed></extensions></trkpt>
   <trkpt lat="59.0727530301" lon="30.0279007782"><ele>97.946</ele><time>2026-04-20T19:12:06.075Z</time><hdop>4.75</hdop><vdop>2.625</vdop><extensions><gom:speed>0.136</gom:speed></extensions></trkpt>
   <trkpt lat="59.0727525272" lon="30.0279011973"><ele>97.95</ele><time>2026-04-20T19:12:07.076Z</time><hdop>4.75</hdop><vdop>2.5</vdop><extensions><gom:speed>0.139</gom:speed></extensions></trkpt>
   <trkpt lat="59.0727527367" lon="30.0279009458"><ele>97.955</ele><time>2026-04-20T19:12:08.075Z</time><hdop>4.875</hdop><vdop>2.5</vdop><extensions><gom:speed>0.136</gom:speed></extensions></trkpt>
   <trkpt lat="59.0727530301" lon="30.0279006944"><ele>97.957</ele><time>2026-04-20T19:12:09.075Z</time><hdop>4.875</hdop><vdop>2.5</vdop><extensions><gom:speed>0.133</gom:speed></extensions></trkpt>
   <trkpt lat="59.0727533234" lon="30.0279001914"><ele>97.958</ele><time>2026-04-20T19:12:10.075Z</time><hdop>4.875</hdop><vdop>2.5</vdop><extensions><gom:speed>0.133</gom:speed></extensions></trkpt>
   <trkpt lat="59.072753533" lon="30.0278997724"><ele>97.959</ele><time>2026-04-20T19:12:11.075Z</time><hdop>4.875</hdop><vdop>2.5</vdop><extensions><gom:speed>0.13</gom:speed></extensions></trkpt>
   <trkpt lat="59.0727537425" lon="30.0278994371"><ele>97.962</ele><time>2026-04-20T19:12:12.075Z</time><hdop>4.875</hdop><vdop>2.5</vdop><extensions><gom:speed>0.13</gom:speed></extensions></trkpt>
   <trkpt lat="59.0727539521" lon="30.0278991856"><ele>97.963</ele><time>2026-04-20T19:12:13.075Z</time><hdop>4.875</hdop><vdop>2.625</vdop><extensions><gom:speed>0.126</gom:speed></extensions></trkpt>
   <trkpt lat="59.0727540359" lon="30.0278989342"><ele>97.963</ele><time>2026-04-20T19:12:14.075Z</time><hdop>4.875</hdop><vdop>2.75</vdop><extensions><gom:speed>0.124</gom:speed></extensions></trkpt>
   <trkpt lat="59.0727537425" lon="30.0278980122"><ele>97.965</ele><time>2026-04-20T19:12:15.075Z</time><hdop>4.875</hdop><vdop>2.75</vdop><extensions><gom:speed>0.121</gom:speed></extensions></trkpt>
   <trkpt lat="59.0727537425" lon="30.0278978445"><ele>97.964</ele><time>2026-04-20T19:12:16.075Z</time><hdop>4.875</hdop><vdop>2.875</vdop><extensions><gom:speed>0.117</gom:speed></extensions></trkpt>
   <trkpt lat="59.0727536168" lon="30.0278978445"><ele>97.963</ele><time>2026-04-20T19:12:16.562Z</time><hdop>4.875</hdop><vdop>2.875</vdop><extensions><gom:speed>0.117</gom:speed></extensions></trkpt>
   <trkpt lat="59.072753533" lon="30.0278985151"><ele>97.962</ele><time>2026-04-20T19:12:17.075Z</time><hdop>4.875</hdop><vdop>2.875</vdop><extensions><gom:speed>0.113</gom:speed></extensions></trkpt>
   <trkpt lat="59.072753533" lon="30.0278985989"><ele>97.963</ele><time>2026-04-20T19:12:18.075Z</time><hdop>4.875</hdop><vdop>2.875</vdop><extensions><gom:speed>0.113</gom:speed></extensions></trkpt>
   <trkpt lat="59.072753533" lon="30.0278986827"><ele>97.963</ele><time>2026-04-20T19:12:19.075Z</time><hdop>4.875</hdop><vdop>2.875</vdop><extensions><gom:speed>0.11</gom:speed></extensions></trkpt>
   <trkpt lat="59.072753533" lon="30.0278987665"><ele>97.962</ele><time>2026-04-20T19:12:20.075Z</time><hdop>4.875</hdop><vdop>2.875</vdop><extensions><gom:speed>0.111</gom:speed></extensions></trkpt>
   <trkpt lat="59.0727534492" lon="30.0278989342"><ele>97.96</ele><time>2026-04-20T19:12:21.075Z</time><hdop>4.75</hdop><vdop>3.0</vdop><extensions><gom:speed>0.11</gom:speed></extensions></trkpt>
   <trkpt lat="59.0727534492" lon="30.0278992694"><ele>97.958</ele><time>2026-04-20T19:12:22.076Z</time><hdop>4.75</hdop><vdop>3.0</vdop><extensions><gom:speed>0.112</gom:speed></extensions></trkpt>
   <trkpt lat="59.0727534492" lon="30.0278991856"><ele>97.957</ele><time>2026-04-20T19:12:22.722Z</time><hdop>4.75</hdop><vdop>3.0</vdop><extensions><gom:speed>0.112</gom:speed></extensions></trkpt>
   <trkpt lat="59.0727533234" lon="30.0279002753"><ele>97.952</ele><time>2026-04-20T19:12:24.075Z</time><hdop>4.75</hdop><vdop>3.0</vdop><extensions><gom:speed>0.11</gom:speed></extensions></trkpt>
   <trkpt lat="59.0727532396" lon="30.0279004429"><ele>97.95</ele><time>2026-04-20T19:12:25.075Z</time><hdop>4.75</hdop><vdop>3.0</vdop><extensions><gom:speed>0.115</gom:speed></extensions></trkpt>
   <trkpt lat="59.0727531558" lon="30.0279006944"><ele>97.949</ele><time>2026-04-20T19:12:26.075Z</time><hdop>4.75</hdop><vdop>2.875</vdop><extensions><gom:speed>0.116</gom:speed></extensions></trkpt>
   <trkpt lat="59.0727530301" lon="30.0279009458"><ele>97.947</ele><time>2026-04-20T19:12:27.075Z</time><hdop>4.75</hdop><vdop>2.875</vdop><extensions><gom:speed>0.114</gom:speed></extensions></trkpt>
   <trkpt lat="59.0727529463" lon="30.0279012811"><ele>97.947</ele><time>2026-04-20T19:12:28.075Z</time><hdop>4.75</hdop><vdop>2.875</vdop><extensions><gom:speed>0.113</gom:speed></extensions></trkpt>
   <trkpt lat="59.0727529463" lon="30.0279011973"><ele>97.947</ele><time>2026-04-20T19:12:28.882Z</time><hdop>4.75</hdop><vdop>2.875</vdop><extensions><gom:speed>0.113</gom:speed></extensions></trkpt>
   <trkpt lat="59.0727526529" lon="30.027901784"><ele>97.945</ele><time>2026-04-20T19:12:30.075Z</time><hdop>4.75</hdop><vdop>2.875</vdop><extensions><gom:speed>0.115</gom:speed></extensions></trkpt>
   <trkpt lat="59.0727524433" lon="30.0279020355"><ele>97.944</ele><time>2026-04-20T19:12:31.076Z</time><hdop>4.75</hdop><vdop>2.75</vdop><extensions><gom:speed>0.117</gom:speed></extensions></trkpt>
   <trkpt lat="59.0727523176" lon="30.0279022031"><ele>97.943</ele><time>2026-04-20T19:12:32.076Z</time><hdop>4.75</hdop><vdop>2.75</vdop><extensions><gom:speed>0.119</gom:speed></extensions></trkpt>
   <trkpt lat="59.07275215" lon="30.0279020355"><ele>97.942</ele><time>2026-04-20T19:12:33.076Z</time><hdop>4.75</hdop><vdop>2.75</vdop><extensions><gom:speed>0.12</gom:speed></extensions></trkpt>
   <trkpt lat="59.0727518566" lon="30.0279020355"><ele>97.939</ele><time>2026-04-20T19:12:34.075Z</time><hdop>4.75</hdop><vdop>2.75</vdop><extensions><gom:speed>0.119</gom:speed></extensions></trkpt>
   <trkpt lat="59.0727517309" lon="30.0279019516"><ele>97.938</ele><time>2026-04-20T19:12:35.075Z</time><hdop>4.75</hdop><vdop>2.625</vdop><extensions><gom:speed>0.122</gom:speed></extensions></trkpt>
   <trkpt lat="59.0727516471" lon="30.0279018678"><ele>97.939</ele><time>2026-04-20T19:12:36.075Z</time><hdop>4.75</hdop><vdop>2.5</vdop><extensions><gom:speed>0.118</gom:speed></extensions></trkpt>
   <trkpt lat="59.0727515213" lon="30.0279017002"><ele>97.942</ele><time>2026-04-20T19:12:37.075Z</time><hdop>4.75</hdop><vdop>2.5</vdop><extensions><gom:speed>0.115</gom:speed></extensions></trkpt>
   <trkpt lat="59.0727489229" lon="30.0278976769"><ele>97.944</ele><time>2026-04-20T19:12:38.075Z</time><hdop>5.5</hdop><vdop>2.5</vdop><extensions><gom:speed>0.0</gom:speed></extensions></trkpt>
   <trkpt lat="59.0727489229" lon="30.0278975931"><ele>97.947</ele><time>2026-04-20T19:12:39.075Z</time><hdop>6.5</hdop><vdop>2.5</vdop><extensions><gom:speed>0.0</gom:speed></extensions></trkpt>
   <trkpt lat="59.0727489229" lon="30.0278975092"><ele>97.95</ele><time>2026-04-20T19:12:40.075Z</time><hdop>7.375</hdop><vdop>2.5</vdop><extensions><gom:speed>0.0</gom:speed></extensions></trkpt>
   <trkpt lat="59.0727489229" lon="30.0278972578"><ele>97.955</ele><time>2026-04-20T19:12:41.075Z</time><hdop>8.125</hdop><vdop>2.5</vdop><extensions><gom:speed>0.0</gom:speed></extensions></trkpt>
   <trkpt lat="59.0727489229" lon="30.027897174"><ele>97.957</ele><time>2026-04-20T19:12:42.075Z</time><hdop>9.0</hdop><vdop>2.5</vdop><extensions><gom:speed>0.0</gom:speed></extensions></trkpt>
   <trkpt lat="59.0727489229" lon="30.0278970901"><ele>97.961</ele><time>2026-04-20T19:12:43.075Z</time><hdop>9.875</hdop><vdop>2.5</vdop><extensions><gom:speed>0.0</gom:speed></extensions></trkpt>
   <trkpt lat="59.0727489229" lon="30.0278970063"><ele>97.963</ele><time>2026-04-20T19:12:44.076Z</time><hdop>9.875</hdop><vdop>2.5</vdop><extensions><gom:speed>0.0</gom:speed></extensions></trkpt>
   <trkpt lat="59.0727489229" lon="30.0278968387"><ele>97.964</ele><time>2026-04-20T19:12:45.075Z</time><hdop>9.875</hdop><vdop>2.5</vdop><extensions><gom:speed>0.0</gom:speed></extensions></trkpt>
   <trkpt lat="59.0727489229" lon="30.0278967549"><ele>97.965</ele><time>2026-04-20T19:12:46.075Z</time><hdop>9.875</hdop><vdop>2.5</vdop><extensions><gom:speed>0.0</gom:speed></extensions></trkpt>
   <trkpt lat="59.0727489229" lon="30.027896671"><ele>97.967</ele><time>2026-04-20T19:12:47.076Z</time><hdop>9.875</hdop><vdop>2.5</vdop><extensions><gom:speed>0.0</gom:speed></extensions></trkpt>
   <trkpt lat="59.0727489229" lon="30.0278965872"><ele>97.968</ele><time>2026-04-20T19:12:48.075Z</time><hdop>9.875</hdop><vdop>2.5</vdop><extensions><gom:speed>0.0</gom:speed></extensions></trkpt>
   <trkpt lat="59.0727490487" lon="30.0278965034"><ele>97.969</ele><time>2026-04-20T19:12:49.075Z</time><hdop>9.875</hdop><vdop>2.5</vdop><extensions><gom:speed>0.0</gom:speed></extensions></trkpt>
   <trkpt lat="59.0727490487" lon="30.0278963358"><ele>97.97</ele><time>2026-04-20T19:12:50.075Z</time><hdop>9.875</hdop><vdop>2.625</vdop><extensions><gom:speed>0.0</gom:speed></extensions></trkpt>
   <trkpt lat="59.0727490487" lon="30.027896252"><ele>97.971</ele><time>2026-04-20T19:12:51.076Z</time><hdop>9.875</hdop><vdop>2.625</vdop><extensions><gom:speed>0.0</gom:speed></extensions></trkpt>
   <trkpt lat="59.0727490487" lon="30.0278961681"><ele>97.971</ele><time>2026-04-20T19:12:52.076Z</time><hdop>9.875</hdop><vdop>2.75</vdop><extensions><gom:speed>0.0</gom:speed></extensions></trkpt>
   <trkpt lat="59.0727490487" lon="30.0278960843"><ele>97.97</ele><time>2026-04-20T19:12:53.075Z</time><hdop>9.875</hdop><vdop>2.875</vdop><extensions><gom:speed>0.0</gom:speed></extensions></trkpt>
   <trkpt lat="59.0727490487" lon="30.0278960005"><ele>97.971</ele><time>2026-04-20T19:12:54.075Z</time><hdop>9.875</hdop><vdop>2.75</vdop><extensions><gom:speed>0.0</gom:speed></extensions></trkpt>
   <trkpt lat="59.0727490487" lon="30.0278958329"><ele>97.971</ele><time>2026-04-20T19:12:55.075Z</time><hdop>9.875</hdop><vdop>2.75</vdop><extensions><gom:speed>0.0</gom:speed></extensions></trkpt>
   <trkpt lat="59.0727490487" lon="30.027895749"><ele>97.972</ele><time>2026-04-20T19:12:56.075Z</time><hdop>9.875</hdop><vdop>2.75</vdop><extensions><gom:speed>0.0</gom:speed></extensions></trkpt>
   <trkpt lat="59.0727490487" lon="30.0278956652"><ele>97.972</ele><time>2026-04-20T19:12:57.075Z</time><hdop>9.875</hdop><vdop>2.875</vdop><extensions><gom:speed>0.0</gom:speed></extensions></trkpt>
   <trkpt lat="59.0727491325" lon="30.0278955814"><ele>97.972</ele><time>2026-04-20T19:12:58.075Z</time><hdop>9.875</hdop><vdop>3.0</vdop><extensions><gom:speed>0.0</gom:speed></extensions></trkpt>
   <trkpt lat="59.0727490487" lon="30.0278954976"><ele>97.976</ele><time>2026-04-20T19:12:59.076Z</time><hdop>10.0</hdop><vdop>3.25</vdop><extensions><gom:speed>0.0</gom:speed></extensions></trkpt>
   <trkpt lat="59.0727490487" lon="30.0278952461"><ele>97.983</ele><time>2026-04-20T19:13:00.075Z</time><hdop>10.0</hdop><vdop>3.5</vdop><extensions><gom:speed>0.0</gom:speed></extensions></trkpt>
   <trkpt lat="59.0727490487" lon="30.0278950785"><ele>97.989</ele><time>2026-04-20T19:13:01.075Z</time><hdop>10.0</hdop><vdop>3.625</vdop><extensions><gom:speed>0.0</gom:speed></extensions></trkpt>
   <trkpt lat="59.0727490487" lon="30.0278949108"><ele>97.995</ele><time>2026-04-20T19:13:02.076Z</time><hdop>10.125</hdop><vdop>3.75</vdop><extensions><gom:speed>0.0</gom:speed></extensions></trkpt>
   <trkpt lat="59.0727489229" lon="30.0278947432"><ele>98.0</ele><time>2026-04-20T19:13:03.075Z</time><hdop>10.25</hdop><vdop>3.875</vdop><extensions><gom:speed>0.0</gom:speed></extensions></trkpt>
   <trkpt lat="59.0727489229" lon="30.0278946594"><ele>98.005</ele><time>2026-04-20T19:13:04.075Z</time><hdop>10.25</hdop><vdop>3.875</vdop><extensions><gom:speed>0.0</gom:speed></extensions></trkpt>
   <trkpt lat="59.0727489229" lon="30.0278945756"><ele>98.01</ele><time>2026-04-20T19:13:05.075Z</time><hdop>10.25</hdop><vdop>3.875</vdop><extensions><gom:speed>0.0</gom:speed></extensions></trkpt>
   <trkpt lat="59.0727489229" lon="30.0278944079"><ele>98.014</ele><time>2026-04-20T19:13:06.076Z</time><hdop>10.25</hdop><vdop>3.75</vdop><extensions><gom:speed>0.0</gom:speed></extensions></trkpt>
   <trkpt lat="59.0727489229" lon="30.0278942403"><ele>98.016</ele><time>2026-04-20T19:13:07.075Z</time><hdop>10.25</hdop><vdop>3.625</vdop><extensions><gom:speed>0.0</gom:speed></extensions></trkpt>
   <trkpt lat="59.0727488391" lon="30.0278940727"><ele>98.02</ele><time>2026-04-20T19:13:08.075Z</time><hdop>10.25</hdop><vdop>3.5</vdop><extensions><gom:speed>0.0</gom:speed></extensions></trkpt>
   <trkpt lat="59.0727488391" lon="30.0278939888"><ele>98.023</ele><time>2026-04-20T19:13:09.075Z</time><hdop>10.25</hdop><vdop>3.375</vdop><extensions><gom:speed>0.0</gom:speed></extensions></trkpt>
   <trkpt lat="59.0727488391" lon="30.027893905"><ele>98.026</ele><time>2026-04-20T19:13:10.075Z</time><hdop>10.25</hdop><vdop>3.375</vdop><extensions><gom:speed>0.0</gom:speed></extensions></trkpt>
   <trkpt lat="59.0727488391" lon="30.0278937374"><ele>98.03</ele><time>2026-04-20T19:13:11.075Z</time><hdop>10.125</hdop><vdop>3.25</vdop><extensions><gom:speed>0.0</gom:speed></extensions></trkpt>
   <trkpt lat="59.0727488391" lon="30.0278936536"><ele>98.031</ele><time>2026-04-20T19:13:12.075Z</time><hdop>10.125</hdop><vdop>3.25</vdop><extensions><gom:speed>0.0</gom:speed></extensions></trkpt>
   <trkpt lat="59.0727488391" lon="30.0278935697"><ele>98.032</ele><time>2026-04-20T19:13:13.075Z</time><hdop>10.0</hdop><vdop>3.125</vdop><extensions><gom:speed>0.0</gom:speed></extensions></trkpt>
   <trkpt lat="59.0727488391" lon="30.0278935697"><ele>98.034</ele><time>2026-04-20T19:13:14.075Z</time><hdop>10.0</hdop><vdop>3.125</vdop><extensions><gom:speed>0.0</gom:speed></extensions></trkpt>
   <trkpt lat="59.0727488391" lon="30.0278934859"><ele>98.036</ele><time>2026-04-20T19:13:15.075Z</time><hdop>10.0</hdop><vdop>3.125</vdop><extensions><gom:speed>0.0</gom:speed></extensions></trkpt>
   <trkpt lat="59.0727488391" lon="30.0278932345"><ele>98.04</ele><time>2026-04-20T19:13:16.076Z</time><hdop>10.0</hdop><vdop>3.25</vdop><extensions><gom:speed>0.0</gom:speed></extensions></trkpt>
   <trkpt lat="59.0727488391" lon="30.0278931506"><ele>98.045</ele><time>2026-04-20T19:13:17.075Z</time><hdop>9.875</hdop><vdop>3.125</vdop><extensions><gom:speed>0.0</gom:speed></extensions></trkpt>
   <trkpt lat="59.0727488391" lon="30.027892983"><ele>98.051</ele><time>2026-04-20T19:13:18.075Z</time><hdop>9.875</hdop><vdop>3.125</vdop><extensions><gom:speed>0.0</gom:speed></extensions></trkpt>
   <trkpt lat="59.0727487553" lon="30.0278928154"><ele>98.057</ele><time>2026-04-20T19:13:19.075Z</time><hdop>9.875</hdop><vdop>3.25</vdop><extensions><gom:speed>0.0</gom:speed></extensions></trkpt>
   <trkpt lat="59.0727487553" lon="30.0278925639"><ele>98.063</ele><time>2026-04-20T19:13:20.075Z</time><hdop>9.875</hdop><vdop>3.0</vdop><extensions><gom:speed>0.0</gom:speed></extensions></trkpt>
   <trkpt lat="59.0727487553" lon="30.0278924801"><ele>98.067</ele><time>2026-04-20T19:13:21.075Z</time><hdop>9.875</hdop><vdop>3.0</vdop><extensions><gom:speed>0.0</gom:speed></extensions></trkpt>
   <trkpt lat="59.0727487553" lon="30.0278923125"><ele>98.071</ele><time>2026-04-20T19:13:22.075Z</time><hdop>9.875</hdop><vdop>3.0</vdop><extensions><gom:speed>0.0</gom:speed></extensions></trkpt>
   <trkpt lat="59.0727487553" lon="30.027892061"><ele>98.075</ele><time>2026-04-20T19:13:23.076Z</time><hdop>9.875</hdop><vdop>3.0</vdop><extensions><gom:speed>0.0</gom:speed></extensions></trkpt>
   <trkpt lat="59.0727486296" lon="30.0278918934"><ele>98.076</ele><time>2026-04-20T19:13:24.075Z</time><hdop>9.875</hdop><vdop>3.0</vdop><extensions><gom:speed>0.0</gom:speed></extensions></trkpt>
   <trkpt lat="59.0727486296" lon="30.0278918095"><ele>98.079</ele><time>2026-04-20T19:13:25.075Z</time><hdop>9.875</hdop><vdop>3.0</vdop><extensions><gom:speed>0.0</gom:speed></extensions></trkpt>
   <trkpt lat="59.0727486296" lon="30.0278915581"><ele>98.081</ele><time>2026-04-20T19:13:26.075Z</time><hdop>9.875</hdop><vdop>2.875</vdop><extensions><gom:speed>0.0</gom:speed></extensions></trkpt>
   <trkpt lat="59.0727486296" lon="30.0278914743"><ele>98.081</ele><time>2026-04-20T19:13:27.075Z</time><hdop>9.875</hdop><vdop>2.875</vdop><extensions><gom:speed>0.0</gom:speed></extensions></trkpt>
   <trkpt lat="59.0727485458" lon="30.0278913066"><ele>98.084</ele><time>2026-04-20T19:13:28.075Z</time><hdop>9.875</hdop><vdop>2.875</vdop><extensions><gom:speed>0.0</gom:speed></extensions></trkpt>
   <trkpt lat="59.0727485458" lon="30.0278910552"><ele>98.085</ele><time>2026-04-20T19:13:29.075Z</time><hdop>9.875</hdop><vdop>2.875</vdop><extensions><gom:speed>0.0</gom:speed></extensions></trkpt>
   <trkpt lat="59.0727485458" lon="30.0278909714"><ele>98.084</ele><time>2026-04-20T19:13:30.075Z</time><hdop>9.875</hdop><vdop>2.75</vdop><extensions><gom:speed>0.0</gom:speed></extensions></trkpt>
   <trkpt lat="59.0727485458" lon="30.0278908875"><ele>98.082</ele><time>2026-04-20T19:13:31.075Z</time><hdop>9.875</hdop><vdop>2.625</vdop><extensions><gom:speed>0.0</gom:speed></extensions></trkpt>
   <trkpt lat="59.0727485458" lon="30.0278906361"><ele>98.082</ele><time>2026-04-20T19:13:32.075Z</time><hdop>9.875</hdop><vdop>2.5</vdop><extensions><gom:speed>0.0</gom:speed></extensions></trkpt>
   <trkpt lat="59.0727485458" lon="30.0278905523"><ele>98.082</ele><time>2026-04-20T19:13:33.075Z</time><hdop>9.875</hdop><vdop>2.5</vdop><extensions><gom:speed>0.0</gom:speed></extensions></trkpt>
   <trkpt lat="59.07274842" lon="30.0278904684"><ele>98.082</ele><time>2026-04-20T19:13:34.075Z</time><hdop>9.875</hdop><vdop>2.5</vdop><extensions><gom:speed>0.0</gom:speed></extensions></trkpt>
   <trkpt lat="59.07274842" lon="30.0278903008"><ele>98.082</ele><time>2026-04-20T19:13:35.075Z</time><hdop>9.875</hdop><vdop>2.5</vdop><extensions><gom:speed>0.0</gom:speed></extensions></trkpt>
   <trkpt lat="59.07274842" lon="30.0278901332"><ele>98.082</ele><time>2026-04-20T19:13:36.075Z</time><hdop>9.875</hdop><vdop>2.5</vdop><extensions><gom:speed>0.0</gom:speed></extensions></trkpt>
   <trkpt lat="59.07274842" lon="30.0278900493"><ele>98.082</ele><time>2026-04-20T19:13:37.075Z</time><hdop>9.875</hdop><vdop>2.5</vdop><extensions><gom:speed>0.0</gom:speed></extensions></trkpt>
   <trkpt lat="59.07274842" lon="30.0278899655"><ele>98.08</ele><time>2026-04-20T19:13:38.075Z</time><hdop>9.875</hdop><vdop>2.5</vdop><extensions><gom:speed>0.0</gom:speed></extensions></trkpt>
   <trkpt lat="59.07274842" lon="30.0278898817"><ele>98.079</ele><time>2026-04-20T19:13:39.075Z</time><hdop>9.875</hdop><vdop>2.5</vdop><extensions><gom:speed>0.0</gom:speed></extensions></trkpt>
   <trkpt lat="59.07274842" lon="30.0278897141"><ele>98.077</ele><time>2026-04-20T19:13:40.076Z</time><hdop>9.875</hdop><vdop>2.5</vdop><extensions><gom:speed>0.0</gom:speed></extensions></trkpt>
   <trkpt lat="59.0727483362" lon="30.0278894626"><ele>98.076</ele><time>2026-04-20T19:13:41.075Z</time><hdop>9.875</hdop><vdop>2.5</vdop><extensions><gom:speed>0.0</gom:speed></extensions></trkpt>
   <trkpt lat="59.0727483362" lon="30.0278893788"><ele>98.075</ele><time>2026-04-20T19:13:42.075Z</time><hdop>9.875</hdop><vdop>2.5</vdop><extensions><gom:speed>0.0</gom:speed></extensions></trkpt>
   <trkpt lat="59.0727483362" lon="30.027889295"><ele>98.074</ele><time>2026-04-20T19:13:43.076Z</time><hdop>9.875</hdop><vdop>2.5</vdop><extensions><gom:speed>0.0</gom:speed></extensions></trkpt>
   <trkpt lat="59.0727483362" lon="30.027889295"><ele>98.071</ele><time>2026-04-20T19:13:44.075Z</time><hdop>9.875</hdop><vdop>2.5</vdop><extensions><gom:speed>0.0</gom:speed></extensions></trkpt>
   <trkpt lat="59.0727483362" lon="30.0278892112"><ele>98.069</ele><time>2026-04-20T19:13:45.075Z</time><hdop>9.875</hdop><vdop>2.5</vdop><extensions><gom:speed>0.0</gom:speed></extensions></trkpt>
   <trkpt lat="59.0727483362" lon="30.0278890435"><ele>98.065</ele><time>2026-04-20T19:13:46.075Z</time><hdop>9.875</hdop><vdop>2.5</vdop><extensions><gom:speed>0.0</gom:speed></extensions></trkpt>
   <trkpt lat="59.0727483362" lon="30.0278890435"><ele>98.061</ele><time>2026-04-20T19:13:47.075Z</time><hdop>9.875</hdop><vdop>2.5</vdop><extensions><gom:speed>0.0</gom:speed></extensions></trkpt>
   <trkpt lat="59.0727482524" lon="30.0278889597"><ele>98.061</ele><time>2026-04-20T19:13:48.075Z</time><hdop>9.875</hdop><vdop>2.5</vdop><extensions><gom:speed>0.0</gom:speed></extensions></trkpt>
   <trkpt lat="59.0727482524" lon="30.0278887921"><ele>98.06</ele><time>2026-04-20T19:13:49.075Z</time><hdop>9.875</hdop><vdop>2.5</vdop><extensions><gom:speed>0.0</gom:speed></extensions></trkpt>
   <trkpt lat="59.0727482524" lon="30.0278885406"><ele>98.06</ele><time>2026-04-20T19:13:50.075Z</time><hdop>9.875</hdop><vdop>2.5</vdop><extensions><gom:speed>0.0</gom:speed></extensions></trkpt>
   <trkpt lat="59.0727482524" lon="30.027888373"><ele>98.06</ele><time>2026-04-20T19:13:51.075Z</time><hdop>9.875</hdop><vdop>2.5</vdop><extensions><gom:speed>0.0</gom:speed></extensions></trkpt>
   <trkpt lat="59.0727481267" lon="30.0278882891"><ele>98.06</ele><time>2026-04-20T19:13:52.075Z</time><hdop>9.875</hdop><vdop>2.5</vdop><extensions><gom:speed>0.0</gom:speed></extensions></trkpt>
   <trkpt lat="59.0727481267" lon="30.0278880377"><ele>98.06</ele><time>2026-04-20T19:13:53.075Z</time><hdop>9.875</hdop><vdop>2.5</vdop><extensions><gom:speed>0.0</gom:speed></extensions></trkpt>
   <trkpt lat="59.0727481267" lon="30.0278879539"><ele>98.06</ele><time>2026-04-20T19:13:54.075Z</time><hdop>9.875</hdop><vdop>2.5</vdop><extensions><gom:speed>0.0</gom:speed></extensions></trkpt>
   <trkpt lat="59.0727481267" lon="30.0278877862"><ele>98.061</ele><time>2026-04-20T19:13:55.076Z</time><hdop>9.875</hdop><vdop>2.5</vdop><extensions><gom:speed>0.0</gom:speed></extensions></trkpt>
   <trkpt lat="59.0727480428" lon="30.0278877024"><ele>98.062</ele><time>2026-04-20T19:13:56.076Z</time><hdop>9.875</hdop><vdop>2.5</vdop><extensions><gom:speed>0.0</gom:speed></extensions></trkpt>
   <trkpt lat="59.0727480428" lon="30.027887451"><ele>98.063</ele><time>2026-04-20T19:13:57.075Z</time><hdop>9.875</hdop><vdop>2.5</vdop><extensions><gom:speed>0.0</gom:speed></extensions></trkpt>
   <trkpt lat="59.0727480428" lon="30.0278872833"><ele>98.064</ele><time>2026-04-20T19:13:58.075Z</time><hdop>9.875</hdop><vdop>2.5</vdop><extensions><gom:speed>0.0</gom:speed></extensions></trkpt>
   <trkpt lat="59.0727479171" lon="30.0278871157"><ele>98.065</ele><time>2026-04-20T19:13:59.075Z</time><hdop>9.875</hdop><vdop>2.5</vdop><extensions><gom:speed>0.0</gom:speed></extensions></trkpt>
   <trkpt lat="59.0727479171" lon="30.027886948"><ele>98.066</ele><time>2026-04-20T19:14:00.075Z</time><hdop>9.875</hdop><vdop>2.5</vdop><extensions><gom:speed>0.0</gom:speed></extensions></trkpt>
   <trkpt lat="59.0727479171" lon="30.0278867804"><ele>98.066</ele><time>2026-04-20T19:14:01.075Z</time><hdop>9.875</hdop><vdop>2.5</vdop><extensions><gom:speed>0.0</gom:speed></extensions></trkpt>
   <trkpt lat="59.0727479171" lon="30.0278866966"><ele>98.067</ele><time>2026-04-20T19:14:02.075Z</time><hdop>9.875</hdop><vdop>2.5</vdop><extensions><gom:speed>0.0</gom:speed></extensions></trkpt>
   <trkpt lat="59.0727478333" lon="30.0278866128"><ele>98.069</ele><time>2026-04-20T19:14:03.075Z</time><hdop>9.875</hdop><vdop>2.5</vdop><extensions><gom:speed>0.0</gom:speed></extensions></trkpt>
   <trkpt lat="59.0727478333" lon="30.0278863613"><ele>98.071</ele><time>2026-04-20T19:14:04.076Z</time><hdop>9.875</hdop><vdop>2.5</vdop><extensions><gom:speed>0.0</gom:speed></extensions></trkpt>
   <trkpt lat="59.0727478333" lon="30.0278862775"><ele>98.073</ele><time>2026-04-20T19:14:05.075Z</time><hdop>9.875</hdop><vdop>2.5</vdop><extensions><gom:speed>0.0</gom:speed></extensions></trkpt>
   <trkpt lat="59.0727477495" lon="30.0278861098"><ele>98.075</ele><time>2026-04-20T19:14:06.076Z</time><hdop>9.875</hdop><vdop>2.5</vdop><extensions><gom:speed>0.0</gom:speed></extensions></trkpt>
   <trkpt lat="59.0727477495" lon="30.0278859422"><ele>98.076</ele><time>2026-04-20T19:14:07.075Z</time><hdop>9.875</hdop><vdop>2.5</vdop><extensions><gom:speed>0.0</gom:speed></extensions></trkpt>
   <trkpt lat="59.0727477495" lon="30.0278858584"><ele>98.076</ele><time>2026-04-20T19:14:08.075Z</time><hdop>9.875</hdop><vdop>2.5</vdop><extensions><gom:speed>0.0</gom:speed></extensions></trkpt>
   <trkpt lat="59.0727477495" lon="30.0278856908"><ele>98.076</ele><time>2026-04-20T19:14:09.075Z</time><hdop>9.875</hdop><vdop>2.5</vdop><extensions><gom:speed>0.0</gom:speed></extensions></trkpt>
   <trkpt lat="59.0727477495" lon="30.0278854393"><ele>98.078</ele><time>2026-04-20T19:14:10.075Z</time><hdop>9.875</hdop><vdop>2.5</vdop><extensions><gom:speed>0.0</gom:speed></extensions></trkpt>
   <trkpt lat="59.0727476237" lon="30.0278853555"><ele>98.079</ele><time>2026-04-20T19:14:11.075Z</time><hdop>9.875</hdop><vdop>2.5</vdop><extensions><gom:speed>0.0</gom:speed></extensions></trkpt>
   <trkpt lat="59.0727476237" lon="30.0278851878"><ele>98.08</ele><time>2026-04-20T19:14:12.075Z</time><hdop>9.875</hdop><vdop>2.5</vdop><extensions><gom:speed>0.0</gom:speed></extensions></trkpt>
   <trkpt lat="59.0727477495" lon="30.027885104"><ele>98.079</ele><time>2026-04-20T19:14:13.076Z</time><hdop>9.875</hdop><vdop>2.5</vdop><extensions><gom:speed>0.0</gom:speed></extensions></trkpt>
   <trkpt lat="59.0727477495" lon="30.0278849364"><ele>98.078</ele><time>2026-04-20T19:14:14.075Z</time><hdop>9.875</hdop><vdop>2.5</vdop><extensions><gom:speed>0.0</gom:speed></extensions></trkpt>
   <trkpt lat="59.0727477495" lon="30.0278847687"><ele>98.076</ele><time>2026-04-20T19:14:15.075Z</time><hdop>9.875</hdop><vdop>2.5</vdop><extensions><gom:speed>0.0</gom:speed></extensions></trkpt>
   <trkpt lat="59.0727476237" lon="30.0278847687"><ele>98.076</ele><time>2026-04-20T19:14:16.075Z</time><hdop>9.875</hdop><vdop>2.5</vdop><extensions><gom:speed>0.0</gom:speed></extensions></trkpt>
   <trkpt lat="59.0727476237" lon="30.0278846849"><ele>98.075</ele><time>2026-04-20T19:14:17.076Z</time><hdop>9.875</hdop><vdop>2.75</vdop><extensions><gom:speed>0.0</gom:speed></extensions></trkpt>
   <trkpt lat="59.0727476237" lon="30.0278846011"><ele>98.073</ele><time>2026-04-20T19:14:18.075Z</time><hdop>9.875</hdop><vdop>2.625</vdop><extensions><gom:speed>0.0</gom:speed></extensions></trkpt>
   <trkpt lat="59.0727476237" lon="30.0278844335"><ele>98.073</ele><time>2026-04-20T19:14:19.075Z</time><hdop>9.875</hdop><vdop>2.625</vdop><extensions><gom:speed>0.0</gom:speed></extensions></trkpt>
   <trkpt lat="59.0727476237" lon="30.0278843496"><ele>98.073</ele><time>2026-04-20T19:14:20.075Z</time><hdop>9.875</hdop><vdop>2.5</vdop><extensions><gom:speed>0.0</gom:speed></extensions></trkpt>
   <trkpt lat="59.0727476237" lon="30.0278842658"><ele>98.072</ele><time>2026-04-20T19:14:21.076Z</time><hdop>9.875</hdop><vdop>2.5</vdop><extensions><gom:speed>0.0</gom:speed></extensions></trkpt>
   <trkpt lat="59.0727476237" lon="30.027884182"><ele>98.07</ele><time>2026-04-20T19:14:22.075Z</time><hdop>9.875</hdop><vdop>2.5</vdop><extensions><gom:speed>0.0</gom:speed></extensions></trkpt>
   <trkpt lat="59.0727476237" lon="30.0278840982"><ele>98.069</ele><time>2026-04-20T19:14:23.075Z</time><hdop>9.875</hdop><vdop>2.5</vdop><extensions><gom:speed>0.0</gom:speed></extensions></trkpt>
   <trkpt lat="59.0727476237" lon="30.0278840144"><ele>98.067</ele><time>2026-04-20T19:14:24.076Z</time><hdop>9.875</hdop><vdop>2.5</vdop><extensions><gom:speed>0.0</gom:speed></extensions></trkpt>
   <trkpt lat="59.0727475399" lon="30.0278838467"><ele>98.068</ele><time>2026-04-20T19:14:25.075Z</time><hdop>9.875</hdop><vdop>2.5</vdop><extensions><gom:speed>0.0</gom:speed></extensions></trkpt>
   <trkpt lat="59.0727475399" lon="30.0278837629"><ele>98.068</ele><time>2026-04-20T19:14:26.075Z</time><hdop>9.875</hdop><vdop>2.5</vdop><extensions><gom:speed>0.0</gom:speed></extensions></trkpt>
   <trkpt lat="59.0727475399" lon="30.0278836791"><ele>98.069</ele><time>2026-04-20T19:14:27.076Z</time><hdop>9.875</hdop><vdop>2.5</vdop><extensions><gom:speed>0.0</gom:speed></extensions></trkpt>
   <trkpt lat="59.0727475399" lon="30.0278835953"><ele>98.072</ele><time>2026-04-20T19:14:28.075Z</time><hdop>9.875</hdop><vdop>2.5</vdop><extensions><gom:speed>0.0</gom:speed></extensions></trkpt>
   <trkpt lat="59.0727475399" lon="30.0278833438"><ele>98.076</ele><time>2026-04-20T19:14:29.075Z</time><hdop>9.875</hdop><vdop>2.5</vdop><extensions><gom:speed>0.0</gom:speed></extensions></trkpt>
   <trkpt lat="59.0727474561" lon="30.0278831762"><ele>98.08</ele><time>2026-04-20T19:14:30.076Z</time><hdop>9.875</hdop><vdop>2.5</vdop><extensions><gom:speed>0.0</gom:speed></extensions></trkpt>
   <trkpt lat="59.0727474561" lon="30.0278830924"><ele>98.086</ele><time>2026-04-20T19:14:31.075Z</time><hdop>9.875</hdop><vdop>2.5</vdop><extensions><gom:speed>0.0</gom:speed></extensions></trkpt>
   <trkpt lat="59.0727474561" lon="30.0278828409"><ele>98.093</ele><time>2026-04-20T19:14:32.075Z</time><hdop>9.875</hdop><vdop>2.75</vdop><extensions><gom:speed>0.0</gom:speed></extensions></trkpt>
   <trkpt lat="59.0727473304" lon="30.0278825894"><ele>98.1</ele><time>2026-04-20T19:14:33.075Z</time><hdop>9.875</hdop><vdop>2.75</vdop><extensions><gom:speed>0.0</gom:speed></extensions></trkpt>
   <trkpt lat="59.0727473304" lon="30.0278825056"><ele>98.104</ele><time>2026-04-20T19:14:34.076Z</time><hdop>9.875</hdop><vdop>2.625</vdop><extensions><gom:speed>0.0</gom:speed></extensions></trkpt>
   <trkpt lat="59.0727472466" lon="30.0278822542"><ele>98.107</ele><time>2026-04-20T19:14:35.076Z</time><hdop>9.875</hdop><vdop>2.625</vdop><extensions><gom:speed>0.0</gom:speed></extensions></trkpt>
   <trkpt lat="59.0727472466" lon="30.0278820865"><ele>98.108</ele><time>2026-04-20T19:14:36.075Z</time><hdop>9.875</hdop><vdop>2.5</vdop><extensions><gom:speed>0.0</gom:speed></extensions></trkpt>
   <trkpt lat="59.0727472466" lon="30.0278818351"><ele>98.109</ele><time>2026-04-20T19:14:37.075Z</time><hdop>9.875</hdop><vdop>2.5</vdop><extensions><gom:speed>0.0</gom:speed></extensions></trkpt>
   <trkpt lat="59.0727472466" lon="30.0278817513"><ele>98.108</ele><time>2026-04-20T19:14:38.075Z</time><hdop>9.875</hdop><vdop>2.5</vdop><extensions><gom:speed>0.0</gom:speed></extensions></trkpt>
   <trkpt lat="59.0727472466" lon="30.0278816674"><ele>98.107</ele><time>2026-04-20T19:14:39.075Z</time><hdop>9.875</hdop><vdop>2.5</vdop><extensions><gom:speed>0.0</gom:speed></extensions></trkpt>
   <trkpt lat="59.0727472466" lon="30.0278815836"><ele>98.107</ele><time>2026-04-20T19:14:40.075Z</time><hdop>9.875</hdop><vdop>2.5</vdop><extensions><gom:speed>0.0</gom:speed></extensions></trkpt>
   <trkpt lat="59.0727472466" lon="30.0278814998"><ele>98.108</ele><time>2026-04-20T19:14:41.075Z</time><hdop>9.875</hdop><vdop>2.5</vdop><extensions><gom:speed>0.0</gom:speed></extensions></trkpt>
   <trkpt lat="59.0727472466" lon="30.027881416"><ele>98.108</ele><time>2026-04-20T19:14:42.075Z</time><hdop>9.875</hdop><vdop>2.5</vdop><extensions><gom:speed>0.0</gom:speed></extensions></trkpt>
   <trkpt lat="59.0727472466" lon="30.0278812483"><ele>98.108</ele><time>2026-04-20T19:14:43.075Z</time><hdop>9.875</hdop><vdop>2.5</vdop><extensions><gom:speed>0.0</gom:speed></extensions></trkpt>
   <trkpt lat="59.0727471208" lon="30.0278811645"><ele>98.108</ele><time>2026-04-20T19:14:44.076Z</time><hdop>9.875</hdop><vdop>2.5</vdop><extensions><gom:speed>0.0</gom:speed></extensions></trkpt>
   <trkpt lat="59.0727471208" lon="30.0278810807"><ele>98.107</ele><time>2026-04-20T19:14:45.075Z</time><hdop>9.875</hdop><vdop>2.5</vdop><extensions><gom:speed>0.0</gom:speed></extensions></trkpt>
   <trkpt lat="59.0727471208" lon="30.0278809131"><ele>98.106</ele><time>2026-04-20T19:14:46.075Z</time><hdop>9.875</hdop><vdop>2.5</vdop><extensions><gom:speed>0.0</gom:speed></extensions></trkpt>
   <trkpt lat="59.0727471208" lon="30.0278807454"><ele>98.105</ele><time>2026-04-20T19:14:47.076Z</time><hdop>9.875</hdop><vdop>2.5</vdop><extensions><gom:speed>0.0</gom:speed></extensions></trkpt>
   <trkpt lat="59.0727471208" lon="30.0278806616"><ele>98.104</ele><time>2026-04-20T19:14:48.075Z</time><hdop>9.875</hdop><vdop>2.5</vdop><extensions><gom:speed>0.0</gom:speed></extensions></trkpt>
   <trkpt lat="59.0727471208" lon="30.0278805778"><ele>98.103</ele><time>2026-04-20T19:14:49.076Z</time><hdop>9.875</hdop><vdop>2.5</vdop><extensions><gom:speed>0.0</gom:speed></extensions></trkpt>
   <trkpt lat="59.0727471208" lon="30.027880494"><ele>98.102</ele><time>2026-04-20T19:14:50.075Z</time><hdop>9.875</hdop><vdop>2.5</vdop><extensions><gom:speed>0.0</gom:speed></extensions></trkpt>
   <trkpt lat="59.0727471208" lon="30.027880494"><ele>98.101</ele><time>2026-04-20T19:14:51.075Z</time><hdop>9.875</hdop><vdop>2.5</vdop><extensions><gom:speed>0.0</gom:speed></extensions></trkpt>
   <trkpt lat="59.0727471208" lon="30.0278804102"><ele>98.1</ele><time>2026-04-20T19:14:52.075Z</time><hdop>9.875</hdop><vdop>2.5</vdop><extensions><gom:speed>0.0</gom:speed></extensions></trkpt>
   <trkpt lat="59.0727471208" lon="30.0278801587"><ele>98.099</ele><time>2026-04-20T19:14:53.075Z</time><hdop>9.875</hdop><vdop>2.5</vdop><extensions><gom:speed>0.0</gom:speed></extensions></trkpt>
   <trkpt lat="59.072747037" lon="30.0278801587"><ele>98.098</ele><time>2026-04-20T19:14:54.075Z</time><hdop>9.875</hdop><vdop>2.5</vdop><extensions><gom:speed>0.0</gom:speed></extensions></trkpt>
   <trkpt lat="59.072747037" lon="30.0278799911"><ele>98.098</ele><time>2026-04-20T19:14:55.076Z</time><hdop>9.875</hdop><vdop>2.5</vdop><extensions><gom:speed>0.0</gom:speed></extensions></trkpt>
   <trkpt lat="59.072747037" lon="30.0278799072"><ele>98.099</ele><time>2026-04-20T19:14:56.075Z</time><hdop>9.875</hdop><vdop>2.5</vdop><extensions><gom:speed>0.0</gom:speed></extensions></trkpt>
   <trkpt lat="59.072747037" lon="30.0278797396"><ele>98.1</ele><time>2026-04-20T19:14:57.075Z</time><hdop>9.875</hdop><vdop>2.5</vdop><extensions><gom:speed>0.0</gom:speed></extensions></trkpt>
   <trkpt lat="59.072747037" lon="30.0278796558"><ele>98.102</ele><time>2026-04-20T19:14:58.075Z</time><hdop>9.875</hdop><vdop>2.5</vdop><extensions><gom:speed>0.0</gom:speed></extensions></trkpt>
   <trkpt lat="59.072747037" lon="30.0278794881"><ele>98.105</ele><time>2026-04-20T19:14:59.075Z</time><hdop>9.875</hdop><vdop>2.5</vdop><extensions><gom:speed>0.0</gom:speed></extensions></trkpt>
   <trkpt lat="59.0727469532" lon="30.0278794043"><ele>98.108</ele><time>2026-04-20T19:15:00.076Z</time><hdop>9.875</hdop><vdop>2.5</vdop><extensions><gom:speed>0.0</gom:speed></extensions></trkpt>
   <trkpt lat="59.0727469532" lon="30.0278791529"><ele>98.111</ele><time>2026-04-20T19:15:01.075Z</time><hdop>9.875</hdop><vdop>2.5</vdop><extensions><gom:speed>0.0</gom:speed></extensions></trkpt>
   <trkpt lat="59.0727469532" lon="30.0278790691"><ele>98.113</ele><time>2026-04-20T19:15:02.076Z</time><hdop>9.875</hdop><vdop>2.5</vdop><extensions><gom:speed>0.0</gom:speed></extensions></trkpt>
   <trkpt lat="59.0727469532" lon="30.0278789014"><ele>98.118</ele><time>2026-04-20T19:15:03.076Z</time><hdop>9.875</hdop><vdop>2.5</vdop><extensions><gom:speed>0.0</gom:speed></extensions></trkpt>
   <trkpt lat="59.0727468275" lon="30.02787865"><ele>98.122</ele><time>2026-04-20T19:15:04.075Z</time><hdop>9.875</hdop><vdop>2.5</vdop><extensions><gom:speed>0.0</gom:speed></extensions></trkpt>
   <trkpt lat="59.0727468275" lon="30.0278784823"><ele>98.127</ele><time>2026-04-20T19:15:05.075Z</time><hdop>9.875</hdop><vdop>2.5</vdop><extensions><gom:speed>0.0</gom:speed></extensions></trkpt>
   <trkpt lat="59.0727468275" lon="30.0278783147"><ele>98.13</ele><time>2026-04-20T19:15:06.075Z</time><hdop>9.875</hdop><vdop>2.5</vdop><extensions><gom:speed>0.0</gom:speed></extensions></trkpt>
   <trkpt lat="59.0727468275" lon="30.027878147"><ele>98.133</ele><time>2026-04-20T19:15:07.075Z</time><hdop>9.875</hdop><vdop>2.5</vdop><extensions><gom:speed>0.0</gom:speed></extensions></trkpt>
   <trkpt lat="59.0727468275" lon="30.0278779794"><ele>98.137</ele><time>2026-04-20T19:15:08.075Z</time><hdop>9.875</hdop><vdop>2.5</vdop><extensions><gom:speed>0.0</gom:speed></extensions></trkpt>
   <trkpt lat="59.0727467436" lon="30.0278778956"><ele>98.141</ele><time>2026-04-20T19:15:09.075Z</time><hdop>9.875</hdop><vdop>2.5</vdop><extensions><gom:speed>0.0</gom:speed></extensions></trkpt>
   <trkpt lat="59.0727467436" lon="30.0278776441"><ele>98.145</ele><time>2026-04-20T19:15:10.075Z</time><hdop>9.875</hdop><vdop>2.5</vdop><extensions><gom:speed>0.0</gom:speed></extensions></trkpt>
   <trkpt lat="59.0727467436" lon="30.0278774765"><ele>98.15</ele><time>2026-04-20T19:15:11.075Z</time><hdop>9.875</hdop><vdop>2.5</vdop><extensions><gom:speed>0.0</gom:speed></extensions></trkpt>
   <trkpt lat="59.0727467436" lon="30.0278773089"><ele>98.153</ele><time>2026-04-20T19:15:12.075Z</time><hdop>9.875</hdop><vdop>2.5</vdop><extensions><gom:speed>0.0</gom:speed></extensions></trkpt>
   <trkpt lat="59.0727466179" lon="30.0278770574"><ele>98.154</ele><time>2026-04-20T19:15:13.075Z</time><hdop>9.875</hdop><vdop>2.5</vdop><extensions><gom:speed>0.0</gom:speed></extensions></trkpt>
   <trkpt lat="59.0727466179" lon="30.0278768898"><ele>98.156</ele><time>2026-04-20T19:15:14.075Z</time><hdop>9.875</hdop><vdop>2.5</vdop><extensions><gom:speed>0.0</gom:speed></extensions></trkpt>
   <trkpt lat="59.0727466179" lon="30.0278766383"><ele>98.158</ele><time>2026-04-20T19:15:15.075Z</time><hdop>9.875</hdop><vdop>2.5</vdop><extensions><gom:speed>0.0</gom:speed></extensions></trkpt>
   <trkpt lat="59.0727466179" lon="30.0278764707"><ele>98.161</ele><time>2026-04-20T19:15:16.076Z</time><hdop>9.875</hdop><vdop>2.5</vdop><extensions><gom:speed>0.0</gom:speed></extensions></trkpt>
   <trkpt lat="59.0727466179" lon="30.027876303"><ele>98.162</ele><time>2026-04-20T19:15:17.075Z</time><hdop>9.875</hdop><vdop>2.5</vdop><extensions><gom:speed>0.0</gom:speed></extensions></trkpt>
   <trkpt lat="59.0727466179" lon="30.0278760516"><ele>98.163</ele><time>2026-04-20T19:15:18.075Z</time><hdop>9.875</hdop><vdop>2.5</vdop><extensions><gom:speed>0.0</gom:speed></extensions></trkpt>
   <trkpt lat="59.0727466179" lon="30.0278759677"><ele>98.164</ele><time>2026-04-20T19:15:19.075Z</time><hdop>9.875</hdop><vdop>2.5</vdop><extensions><gom:speed>0.0</gom:speed></extensions></trkpt>
   <trkpt lat="59.0727466179" lon="30.0278758001"><ele>98.163</ele><time>2026-04-20T19:15:20.075Z</time><hdop>9.875</hdop><vdop>2.5</vdop><extensions><gom:speed>0.0</gom:speed></extensions></trkpt>
   <trkpt lat="59.0727466179" lon="30.0278756325"><ele>98.163</ele><time>2026-04-20T19:15:21.075Z</time><hdop>9.875</hdop><vdop>2.5</vdop><extensions><gom:speed>0.0</gom:speed></extensions></trkpt>
   <trkpt lat="59.0727466179" lon="30.0278755487"><ele>98.165</ele><time>2026-04-20T19:15:22.075Z</time><hdop>9.875</hdop><vdop>2.5</vdop><extensions><gom:speed>0.0</gom:speed></extensions></trkpt>
   <trkpt lat="59.0727466179" lon="30.0278754648"><ele>98.169</ele><time>2026-04-20T19:15:23.075Z</time><hdop>9.875</hdop><vdop>2.5</vdop><extensions><gom:speed>0.0</gom:speed></extensions></trkpt>
   <trkpt lat="59.0727466179" lon="30.0278752972"><ele>98.175</ele><time>2026-04-20T19:15:24.075Z</time><hdop>9.875</hdop><vdop>2.5</vdop><extensions><gom:speed>0.0</gom:speed></extensions></trkpt>
   <trkpt lat="59.0727466179" lon="30.0278752134"><ele>98.179</ele><time>2026-04-20T19:15:25.075Z</time><hdop>9.875</hdop><vdop>2.5</vdop><extensions><gom:speed>0.0</gom:speed></extensions></trkpt>
   <trkpt lat="59.0727466179" lon="30.0278750457"><ele>98.184</ele><time>2026-04-20T19:15:26.075Z</time><hdop>9.875</hdop><vdop>2.5</vdop><extensions><gom:speed>0.0</gom:speed></extensions></trkpt>
   <trkpt lat="59.0727466179" lon="30.0278748781"><ele>98.188</ele><time>2026-04-20T19:15:27.075Z</time><hdop>9.875</hdop><vdop>2.5</vdop><extensions><gom:speed>0.0</gom:speed></extensions></trkpt>
   <trkpt lat="59.0727466179" lon="30.0278747943"><ele>98.191</ele><time>2026-04-20T19:15:28.075Z</time><hdop>9.875</hdop><vdop>2.5</vdop><extensions><gom:speed>0.0</gom:speed></extensions></trkpt>
   <trkpt lat="59.0727466179" lon="30.0278747943"><ele>98.194</ele><time>2026-04-20T19:15:29.075Z</time><hdop>9.875</hdop><vdop>2.5</vdop><extensions><gom:speed>0.0</gom:speed></extensions></trkpt>
   <trkpt lat="59.0727466179" lon="30.0278747105"><ele>98.196</ele><time>2026-04-20T19:15:30.075Z</time><hdop>9.875</hdop><vdop>2.5</vdop><extensions><gom:speed>0.0</gom:speed></extensions></trkpt>
   <trkpt lat="59.0727466179" lon="30.0278745428"><ele>98.198</ele><time>2026-04-20T19:15:31.075Z</time><hdop>9.875</hdop><vdop>2.5</vdop><extensions><gom:speed>0.0</gom:speed></extensions></trkpt>
   <trkpt lat="59.0727466179" lon="30.027874459"><ele>98.199</ele><time>2026-04-20T19:15:32.075Z</time><hdop>9.875</hdop><vdop>2.5</vdop><extensions><gom:speed>0.0</gom:speed></extensions></trkpt>
   <trkpt lat="59.0727466179" lon="30.0278743752"><ele>98.2</ele><time>2026-04-20T19:15:33.075Z</time><hdop>9.875</hdop><vdop>2.5</vdop><extensions><gom:speed>0.0</gom:speed></extensions></trkpt>
   <trkpt lat="59.0727466179" lon="30.0278742914"><ele>98.202</ele><time>2026-04-20T19:15:34.075Z</time><hdop>9.875</hdop><vdop>2.5</vdop><extensions><gom:speed>0.0</gom:speed></extensions></trkpt>
   <trkpt lat="59.0727465341" lon="30.0278742075"><ele>98.203</ele><time>2026-04-20T19:15:35.075Z</time><hdop>9.875</hdop><vdop>2.5</vdop><extensions><gom:speed>0.0</gom:speed></extensions></trkpt>
   <trkpt lat="59.0727465341" lon="30.0278739561"><ele>98.206</ele><time>2026-04-20T19:15:36.075Z</time><hdop>9.875</hdop><vdop>2.5</vdop><extensions><gom:speed>0.0</gom:speed></extensions></trkpt>
   <trkpt lat="59.0727465341" lon="30.0278738723"><ele>98.208</ele><time>2026-04-20T19:15:37.075Z</time><hdop>9.875</hdop><vdop>2.5</vdop><extensions><gom:speed>0.0</gom:speed></extensions></trkpt>
   <trkpt lat="59.0727465341" lon="30.0278737046"><ele>98.211</ele><time>2026-04-20T19:15:38.075Z</time><hdop>9.875</hdop><vdop>2.5</vdop><extensions><gom:speed>0.0</gom:speed></extensions></trkpt>
   <trkpt lat="59.0727465341" lon="30.027873537"><ele>98.213</ele><time>2026-04-20T19:15:39.075Z</time><hdop>9.875</hdop><vdop>2.5</vdop><extensions><gom:speed>0.0</gom:speed></extensions></trkpt>
   <trkpt lat="59.0727465341" lon="30.0278733694"><ele>98.212</ele><time>2026-04-20T19:15:40.076Z</time><hdop>9.875</hdop><vdop>2.5</vdop><extensions><gom:speed>0.0</gom:speed></extensions></trkpt>
   <trkpt lat="59.0727465341" lon="30.0278733694"><ele>98.212</ele><time>2026-04-20T19:15:41.075Z</time><hdop>9.875</hdop><vdop>2.5</vdop><extensions><gom:speed>0.0</gom:speed></extensions></trkpt>
   <trkpt lat="59.0727465341" lon="30.0278732855"><ele>98.212</ele><time>2026-04-20T19:15:42.076Z</time><hdop>9.875</hdop><vdop>2.5</vdop><extensions><gom:speed>0.0</gom:speed></extensions></trkpt>
   <trkpt lat="59.0727465341" lon="30.0278732017"><ele>98.215</ele><time>2026-04-20T19:15:43.075Z</time><hdop>9.875</hdop><vdop>2.5</vdop><extensions><gom:speed>0.0</gom:speed></extensions></trkpt>
   <trkpt lat="59.0727465341" lon="30.0278730341"><ele>98.217</ele><time>2026-04-20T19:15:44.075Z</time><hdop>9.875</hdop><vdop>2.5</vdop><extensions><gom:speed>0.0</gom:speed></extensions></trkpt>
   <trkpt lat="59.0727465341" lon="30.0278728664"><ele>98.22</ele><time>2026-04-20T19:15:45.075Z</time><hdop>9.875</hdop><vdop>2.5</vdop><extensions><gom:speed>0.0</gom:speed></extensions></trkpt>
   <trkpt lat="59.0727464503" lon="30.0278727826"><ele>98.223</ele><time>2026-04-20T19:15:46.075Z</time><hdop>9.875</hdop><vdop>2.5</vdop><extensions><gom:speed>0.0</gom:speed></extensions></trkpt>
   <trkpt lat="59.0727464503" lon="30.0278726988"><ele>98.228</ele><time>2026-04-20T19:15:47.075Z</time><hdop>9.875</hdop><vdop>2.5</vdop><extensions><gom:speed>0.0</gom:speed></extensions></trkpt>
   <trkpt lat="59.0727464503" lon="30.0278724473"><ele>98.232</ele><time>2026-04-20T19:15:48.076Z</time><hdop>9.875</hdop><vdop>2.5</vdop><extensions><gom:speed>0.0</gom:speed></extensions></trkpt>
   <trkpt lat="59.0727464503" lon="30.0278723635"><ele>98.237</ele><time>2026-04-20T19:15:49.076Z</time><hdop>9.875</hdop><vdop>2.5</vdop><extensions><gom:speed>0.0</gom:speed></extensions></trkpt>
   <trkpt lat="59.0727464503" lon="30.0278721959"><ele>98.242</ele><time>2026-04-20T19:15:50.075Z</time><hdop>9.875</hdop><vdop>2.5</vdop><extensions><gom:speed>0.0</gom:speed></extensions></trkpt>
   <trkpt lat="59.0727464503" lon="30.0278719444"><ele>98.248</ele><time>2026-04-20T19:15:51.075Z</time><hdop>9.875</hdop><vdop>2.5</vdop><extensions><gom:speed>0.0</gom:speed></extensions></trkpt>
   <trkpt lat="59.0727464503" lon="30.0278717768"><ele>98.253</ele><time>2026-04-20T19:15:52.075Z</time><hdop>9.875</hdop><vdop>2.5</vdop><extensions><gom:speed>0.0</gom:speed></extensions></trkpt>
   <trkpt lat="59.0727464503" lon="30.027871693"><ele>98.258</ele><time>2026-04-20T19:15:53.075Z</time><hdop>9.875</hdop><vdop>2.5</vdop><extensions><gom:speed>0.0</gom:speed></extensions></trkpt>
   <trkpt lat="59.0727463246" lon="30.0278714415"><ele>98.261</ele><time>2026-04-20T19:15:54.075Z</time><hdop>9.875</hdop><vdop>2.5</vdop><extensions><gom:speed>0.0</gom:speed></extensions></trkpt>
   <trkpt lat="59.0727464503" lon="30.0278713577"><ele>98.266</ele><time>2026-04-20T19:15:55.075Z</time><hdop>9.875</hdop><vdop>2.5</vdop><extensions><gom:speed>0.0</gom:speed></extensions></trkpt>
   <trkpt lat="59.0727464503" lon="30.0278712739"><ele>98.269</ele><time>2026-04-20T19:15:56.075Z</time><hdop>9.875</hdop><vdop>2.5</vdop><extensions><gom:speed>0.0</gom:speed></extensions></trkpt>
   <trkpt lat="59.0727463246" lon="30.0278711901"><ele>98.272</ele><time>2026-04-20T19:15:57.075Z</time><hdop>9.875</hdop><vdop>2.875</vdop><extensions><gom:speed>0.0</gom:speed></extensions></trkpt>
   <trkpt lat="59.0727464503" lon="30.0278711062"><ele>98.274</ele><time>2026-04-20T19:15:58.075Z</time><hdop>9.875</hdop><vdop>3.25</vdop><extensions><gom:speed>0.0</gom:speed></extensions></trkpt>
   <trkpt lat="59.0727464503" lon="30.0278711062"><ele>98.275</ele><time>2026-04-20T19:15:59.075Z</time><hdop>9.875</hdop><vdop>3.75</vdop><extensions><gom:speed>0.0</gom:speed></extensions></trkpt>
   <trkpt lat="59.0727464503" lon="30.0278709386"><ele>98.276</ele><time>2026-04-20T19:16:00.075Z</time><hdop>10.0</hdop><vdop>4.0</vdop><extensions><gom:speed>0.0</gom:speed></extensions></trkpt>
   <trkpt lat="59.0727464503" lon="30.0278708548"><ele>98.276</ele><time>2026-04-20T19:16:01.075Z</time><hdop>10.0</hdop><vdop>3.75</vdop><extensions><gom:speed>0.0</gom:speed></extensions></trkpt>
   <trkpt lat="59.0727464503" lon="30.027870771"><ele>98.278</ele><time>2026-04-20T19:16:02.076Z</time><hdop>10.0</hdop><vdop>3.75</vdop><extensions><gom:speed>0.0</gom:speed></extensions></trkpt>
   <trkpt lat="59.0727464503" lon="30.0278706033"><ele>98.283</ele><time>2026-04-20T19:16:03.075Z</time><hdop>10.0</hdop><vdop>3.625</vdop><extensions><gom:speed>0.0</gom:speed></extensions></trkpt>
   <trkpt lat="59.0727463246" lon="30.0278703519"><ele>98.288</ele><time>2026-04-20T19:16:04.075Z</time><hdop>10.0</hdop><vdop>3.5</vdop><extensions><gom:speed>0.0</gom:speed></extensions></trkpt>
   <trkpt lat="59.0727463246" lon="30.0278701842"><ele>98.291</ele><time>2026-04-20T19:16:05.076Z</time><hdop>10.0</hdop><vdop>3.375</vdop><extensions><gom:speed>0.0</gom:speed></extensions></trkpt>
   <trkpt lat="59.0727463246" lon="30.027869849"><ele>98.296</ele><time>2026-04-20T19:16:06.075Z</time><hdop>10.0</hdop><vdop>3.375</vdop><extensions><gom:speed>0.0</gom:speed></extensions></trkpt>
   <trkpt lat="59.0727462407" lon="30.0278696813"><ele>98.301</ele><time>2026-04-20T19:16:07.075Z</time><hdop>10.0</hdop><vdop>3.5</vdop><extensions><gom:speed>0.0</gom:speed></extensions></trkpt>
   <trkpt lat="59.0727462407" lon="30.0278695137"><ele>98.306</ele><time>2026-04-20T19:16:08.075Z</time><hdop>10.0</hdop><vdop>3.375</vdop><extensions><gom:speed>0.0</gom:speed></extensions></trkpt>
   <trkpt lat="59.0727461569" lon="30.0278691784"><ele>98.309</ele><time>2026-04-20T19:16:09.075Z</time><hdop>10.0</hdop><vdop>3.375</vdop><extensions><gom:speed>0.0</gom:speed></extensions></trkpt>
   <trkpt lat="59.0727461569" lon="30.0278690108"><ele>98.31</ele><time>2026-04-20T19:16:10.075Z</time><hdop>9.875</hdop><vdop>3.25</vdop><extensions><gom:speed>0.0</gom:speed></extensions></trkpt>
   <trkpt lat="59.0727461569" lon="30.0278688431"><ele>98.311</ele><time>2026-04-20T19:16:11.075Z</time><hdop>9.875</hdop><vdop>3.125</vdop><extensions><gom:speed>0.0</gom:speed></extensions></trkpt>
   <trkpt lat="59.0727461569" lon="30.0278687593"><ele>98.311</ele><time>2026-04-20T19:16:12.075Z</time><hdop>9.875</hdop><vdop>3.125</vdop><extensions><gom:speed>0.0</gom:speed></extensions></trkpt>
   <trkpt lat="59.0727461569" lon="30.0278685917"><ele>98.311</ele><time>2026-04-20T19:16:13.075Z</time><hdop>9.875</hdop><vdop>3.125</vdop><extensions><gom:speed>0.0</gom:speed></extensions></trkpt>
   <trkpt lat="59.0727461569" lon="30.0278685079"><ele>98.31</ele><time>2026-04-20T19:16:14.076Z</time><hdop>9.875</hdop><vdop>3.125</vdop><extensions><gom:speed>0.0</gom:speed></extensions></trkpt>
   <trkpt lat="59.0727461569" lon="30.0278683402"><ele>98.309</ele><time>2026-04-20T19:16:15.075Z</time><hdop>9.875</hdop><vdop>3.125</vdop><extensions><gom:speed>0.0</gom:speed></extensions></trkpt>
   <trkpt lat="59.0727461569" lon="30.0278683402"><ele>98.307</ele><time>2026-04-20T19:16:16.075Z</time><hdop>9.875</hdop><vdop>3.0</vdop><extensions><gom:speed>0.0</gom:speed></extensions></trkpt>
   <trkpt lat="59.0727461569" lon="30.0278683402"><ele>98.305</ele><time>2026-04-20T19:16:17.076Z</time><hdop>9.875</hdop><vdop>2.875</vdop><extensions><gom:speed>0.0</gom:speed></extensions></trkpt>
   <trkpt lat="59.0727461569" lon="30.0278682564"><ele>98.303</ele><time>2026-04-20T19:16:18.075Z</time><hdop>9.875</hdop><vdop>2.875</vdop><extensions><gom:speed>0.0</gom:speed></extensions></trkpt>
   <trkpt lat="59.0727461569" lon="30.0278682564"><ele>98.3</ele><time>2026-04-20T19:16:19.075Z</time><hdop>9.875</hdop><vdop>2.875</vdop><extensions><gom:speed>0.0</gom:speed></extensions></trkpt>
   <trkpt lat="59.0727461569" lon="30.0278682564"><ele>98.297</ele><time>2026-04-20T19:16:20.075Z</time><hdop>9.875</hdop><vdop>3.0</vdop><extensions><gom:speed>0.0</gom:speed></extensions></trkpt>
   <trkpt lat="59.0727461569" lon="30.0278681726"><ele>98.295</ele><time>2026-04-20T19:16:21.075Z</time><hdop>9.875</hdop><vdop>3.125</vdop><extensions><gom:speed>0.0</gom:speed></extensions></trkpt>
   <trkpt lat="59.0727461569" lon="30.0278681726"><ele>98.293</ele><time>2026-04-20T19:16:22.075Z</time><hdop>9.875</hdop><vdop>3.25</vdop><extensions><gom:speed>0.0</gom:speed></extensions></trkpt>
   <trkpt lat="59.0727461569" lon="30.0278681726"><ele>98.291</ele><time>2026-04-20T19:16:23.075Z</time><hdop>9.875</hdop><vdop>3.5</vdop><extensions><gom:speed>0.0</gom:speed></extensions></trkpt>
   <trkpt lat="59.0727461569" lon="30.0278681726"><ele>98.29</ele><time>2026-04-20T19:16:24.075Z</time><hdop>10.0</hdop><vdop>3.5</vdop><extensions><gom:speed>0.0</gom:speed></extensions></trkpt>
   <trkpt lat="59.0727461569" lon="30.0278680888"><ele>98.29</ele><time>2026-04-20T19:16:25.075Z</time><hdop>10.125</hdop><vdop>3.75</vdop><extensions><gom:speed>0.0</gom:speed></extensions></trkpt>
   <trkpt lat="59.0727461569" lon="30.0278680888"><ele>98.29</ele><time>2026-04-20T19:16:26.075Z</time><hdop>10.25</hdop><vdop>3.875</vdop><extensions><gom:speed>0.0</gom:speed></extensions></trkpt>
   <trkpt lat="59.0727461569" lon="30.0278680049"><ele>98.289</ele><time>2026-04-20T19:16:27.075Z</time><hdop>10.375</hdop><vdop>4.0</vdop><extensions><gom:speed>0.0</gom:speed></extensions></trkpt>
   <trkpt lat="59.0727461569" lon="30.0278680049"><ele>98.289</ele><time>2026-04-20T19:16:28.075Z</time><hdop>10.625</hdop><vdop>4.25</vdop><extensions><gom:speed>0.0</gom:speed></extensions></trkpt>
   <trkpt lat="59.0727461569" lon="30.0278678373"><ele>98.287</ele><time>2026-04-20T19:16:29.075Z</time><hdop>10.75</hdop><vdop>4.375</vdop><extensions><gom:speed>0.0</gom:speed></extensions></trkpt>
   <trkpt lat="59.0727461569" lon="30.0278678373"><ele>98.285</ele><time>2026-04-20T19:16:30.075Z</time><hdop>10.875</hdop><vdop>4.5</vdop><extensions><gom:speed>0.0</gom:speed></extensions></trkpt>
   <trkpt lat="59.0727461569" lon="30.0278677535"><ele>98.285</ele><time>2026-04-20T19:16:31.075Z</time><hdop>10.875</hdop><vdop>4.0</vdop><extensions><gom:speed>0.0</gom:speed></extensions></trkpt>
   <trkpt lat="59.0727461569" lon="30.0278675858"><ele>98.287</ele><time>2026-04-20T19:16:32.075Z</time><hdop>10.875</hdop><vdop>3.875</vdop><extensions><gom:speed>0.0</gom:speed></extensions></trkpt>
   <trkpt lat="59.0727460312" lon="30.0278673344"><ele>98.291</ele><time>2026-04-20T19:16:33.075Z</time><hdop>10.75</hdop><vdop>3.625</vdop><extensions><gom:speed>0.0</gom:speed></extensions></trkpt>
   <trkpt lat="59.0727460312" lon="30.0278672506"><ele>98.294</ele><time>2026-04-20T19:16:34.075Z</time><hdop>10.5</hdop><vdop>3.375</vdop><extensions><gom:speed>0.0</gom:speed></extensions></trkpt>
   <trkpt lat="59.0727459474" lon="30.0278670829"><ele>98.299</ele><time>2026-04-20T19:16:35.075Z</time><hdop>10.25</hdop><vdop>3.25</vdop><extensions><gom:speed>0.0</gom:speed></extensions></trkpt>
   <trkpt lat="59.0727459474" lon="30.0278669153"><ele>98.306</ele><time>2026-04-20T19:16:36.075Z</time><hdop>10.125</hdop><vdop>3.125</vdop><extensions><gom:speed>0.0</gom:speed></extensions></trkpt>
   <trkpt lat="59.0727458216" lon="30.0278666638"><ele>98.31</ele><time>2026-04-20T19:16:37.075Z</time><hdop>10.0</hdop><vdop>3.125</vdop><extensions><gom:speed>0.0</gom:speed></extensions></trkpt>
   <trkpt lat="59.0727458216" lon="30.02786658"><ele>98.314</ele><time>2026-04-20T19:16:38.076Z</time><hdop>9.875</hdop><vdop>3.0</vdop><extensions><gom:speed>0.0</gom:speed></extensions></trkpt>
   <trkpt lat="59.0727458216" lon="30.0278664962"><ele>98.312</ele><time>2026-04-20T19:16:39.075Z</time><hdop>9.875</hdop><vdop>3.0</vdop><extensions><gom:speed>0.0</gom:speed></extensions></trkpt>
   <trkpt lat="59.0727458216" lon="30.0278662447"><ele>98.311</ele><time>2026-04-20T19:16:40.075Z</time><hdop>9.875</hdop><vdop>3.0</vdop><extensions><gom:speed>0.0</gom:speed></extensions></trkpt>
   <trkpt lat="59.0727457378" lon="30.0278660771"><ele>98.311</ele><time>2026-04-20T19:16:41.075Z</time><hdop>9.875</hdop><vdop>3.125</vdop><extensions><gom:speed>0.0</gom:speed></extensions></trkpt>
   <trkpt lat="59.0727457378" lon="30.0278659933"><ele>98.313</ele><time>2026-04-20T19:16:42.075Z</time><hdop>9.875</hdop><vdop>3.0</vdop><extensions><gom:speed>0.0</gom:speed></extensions></trkpt>
   <trkpt lat="59.072745654" lon="30.0278657418"><ele>98.316</ele><time>2026-04-20T19:16:43.075Z</time><hdop>9.875</hdop><vdop>3.125</vdop><extensions><gom:speed>0.0</gom:speed></extensions></trkpt>
   <trkpt lat="59.072745654" lon="30.0278655742"><ele>98.319</ele><time>2026-04-20T19:16:44.076Z</time><hdop>9.875</hdop><vdop>3.0</vdop><extensions><gom:speed>0.0</gom:speed></extensions></trkpt>
   <trkpt lat="59.0727455283" lon="30.0278654065"><ele>98.32</ele><time>2026-04-20T19:16:45.076Z</time><hdop>9.875</hdop><vdop>3.0</vdop><extensions><gom:speed>0.0</gom:speed></extensions></trkpt>
   <trkpt lat="59.0727455283" lon="30.0278651551"><ele>98.323</ele><time>2026-04-20T19:16:46.075Z</time><hdop>9.875</hdop><vdop>2.875</vdop><extensions><gom:speed>0.0</gom:speed></extensions></trkpt>
   <trkpt lat="59.0727454445" lon="30.0278649875"><ele>98.325</ele><time>2026-04-20T19:16:47.075Z</time><hdop>9.875</hdop><vdop>3.0</vdop><extensions><gom:speed>0.0</gom:speed></extensions></trkpt>
   <trkpt lat="59.0727453187" lon="30.027864736"><ele>98.325</ele><time>2026-04-20T19:16:48.076Z</time><hdop>9.875</hdop><vdop>3.0</vdop><extensions><gom:speed>0.0</gom:speed></extensions></trkpt>
   <trkpt lat="59.0727453187" lon="30.0278644845"><ele>98.326</ele><time>2026-04-20T19:16:49.076Z</time><hdop>9.875</hdop><vdop>3.25</vdop><extensions><gom:speed>0.0</gom:speed></extensions></trkpt>
   <trkpt lat="59.0727452349" lon="30.0278642331"><ele>98.326</ele><time>2026-04-20T19:16:50.075Z</time><hdop>9.875</hdop><vdop>3.25</vdop><extensions><gom:speed>0.0</gom:speed></extensions></trkpt>
   <trkpt lat="59.0727452349" lon="30.0278640654"><ele>98.324</ele><time>2026-04-20T19:16:51.076Z</time><hdop>9.875</hdop><vdop>3.375</vdop><extensions><gom:speed>0.0</gom:speed></extensions></trkpt>
   <trkpt lat="59.0727451511" lon="30.0278638978"><ele>98.322</ele><time>2026-04-20T19:16:52.075Z</time><hdop>9.875</hdop><vdop>3.375</vdop><extensions><gom:speed>0.0</gom:speed></extensions></trkpt>
   <trkpt lat="59.0727451511" lon="30.0278636463"><ele>98.321</ele><time>2026-04-20T19:16:53.075Z</time><hdop>9.875</hdop><vdop>3.5</vdop><extensions><gom:speed>0.0</gom:speed></extensions></trkpt>
   <trkpt lat="59.0727450254" lon="30.0278634787"><ele>98.319</ele><time>2026-04-20T19:16:54.075Z</time><hdop>9.875</hdop><vdop>3.75</vdop><extensions><gom:speed>0.0</gom:speed></extensions></trkpt>
   <trkpt lat="59.0727450254" lon="30.0278633111"><ele>98.317</ele><time>2026-04-20T19:16:55.075Z</time><hdop>9.875</hdop><vdop>3.75</vdop><extensions><gom:speed>0.0</gom:speed></extensions></trkpt>
   <trkpt lat="59.0727450254" lon="30.0278630596"><ele>98.316</ele><time>2026-04-20T19:16:56.075Z</time><hdop>9.875</hdop><vdop>3.875</vdop><extensions><gom:speed>0.0</gom:speed></extensions></trkpt>
   <trkpt lat="59.0727449415" lon="30.027862892"><ele>98.314</ele><time>2026-04-20T19:16:57.076Z</time><hdop>9.875</hdop><vdop>3.875</vdop><extensions><gom:speed>0.0</gom:speed></extensions></trkpt>
   <trkpt lat="59.0727449415" lon="30.0278628082"><ele>98.311</ele><time>2026-04-20T19:16:58.075Z</time><hdop>9.875</hdop><vdop>3.875</vdop><extensions><gom:speed>0.0</gom:speed></extensions></trkpt>
   <trkpt lat="59.0727449415" lon="30.0278628082"><ele>98.308</ele><time>2026-04-20T19:16:59.075Z</time><hdop>10.0</hdop><vdop>4.0</vdop><extensions><gom:speed>0.0</gom:speed></extensions></trkpt>
   <trkpt lat="59.0727449415" lon="30.0278626405"><ele>98.306</ele><time>2026-04-20T19:17:00.075Z</time><hdop>10.0</hdop><vdop>4.125</vdop><extensions><gom:speed>0.0</gom:speed></extensions></trkpt>
   <trkpt lat="59.0727449415" lon="30.0278626405"><ele>98.303</ele><time>2026-04-20T19:17:01.075Z</time><hdop>10.125</hdop><vdop>4.125</vdop><extensions><gom:speed>0.0</gom:speed></extensions></trkpt>
   <trkpt lat="59.0727449415" lon="30.0278626405"><ele>98.3</ele><time>2026-04-20T19:17:02.076Z</time><hdop>10.125</hdop><vdop>4.25</vdop><extensions><gom:speed>0.0</gom:speed></extensions></trkpt>
   <trkpt lat="59.0727449415" lon="30.0278626405"><ele>98.298</ele><time>2026-04-20T19:17:03.075Z</time><hdop>10.25</hdop><vdop>4.125</vdop><extensions><gom:speed>0.0</gom:speed></extensions></trkpt>
   <trkpt lat="59.0727449415" lon="30.0278625567"><ele>98.296</ele><time>2026-04-20T19:17:04.075Z</time><hdop>10.25</hdop><vdop>4.125</vdop><extensions><gom:speed>0.0</gom:speed></extensions></trkpt>
   <trkpt lat="59.0727448577" lon="30.0278625567"><ele>98.294</ele><time>2026-04-20T19:17:05.076Z</time><hdop>10.375</hdop><vdop>4.125</vdop><extensions><gom:speed>0.0</gom:speed></extensions></trkpt>
   <trkpt lat="59.0727448577" lon="30.0278624729"><ele>98.29</ele><time>2026-04-20T19:17:06.075Z</time><hdop>10.375</hdop><vdop>4.25</vdop><extensions><gom:speed>0.0</gom:speed></extensions></trkpt>
   <trkpt lat="59.0727448577" lon="30.0278623891"><ele>98.286</ele><time>2026-04-20T19:17:07.075Z</time><hdop>10.375</hdop><vdop>4.375</vdop><extensions><gom:speed>0.0</gom:speed></extensions></trkpt>
   <trkpt lat="59.0727448577" lon="30.0278623052"><ele>98.283</ele><time>2026-04-20T19:17:08.075Z</time><hdop>10.375</hdop><vdop>4.625</vdop><extensions><gom:speed>0.0</gom:speed></extensions></trkpt>
   <trkpt lat="59.0727448577" lon="30.0278621376"><ele>98.281</ele><time>2026-04-20T19:17:09.075Z</time><hdop>10.375</hdop><vdop>4.75</vdop><extensions><gom:speed>0.0</gom:speed></extensions></trkpt>
   <trkpt lat="59.072744732" lon="30.0278621376"><ele>98.279</ele><time>2026-04-20T19:17:10.076Z</time><hdop>10.375</hdop><vdop>4.75</vdop><extensions><gom:speed>0.0</gom:speed></extensions></trkpt>
   <trkpt lat="59.072744732" lon="30.0278620538"><ele>98.277</ele><time>2026-04-20T19:17:11.076Z</time><hdop>10.375</hdop><vdop>4.875</vdop><extensions><gom:speed>0.0</gom:speed></extensions></trkpt>
   <trkpt lat="59.072744732" lon="30.02786197"><ele>98.275</ele><time>2026-04-20T19:17:12.076Z</time><hdop>10.5</hdop><vdop>4.75</vdop><extensions><gom:speed>0.0</gom:speed></extensions></trkpt>
   <trkpt lat="59.072744732" lon="30.0278618861"><ele>98.273</ele><time>2026-04-20T19:17:13.075Z</time><hdop>10.5</hdop><vdop>4.75</vdop><extensions><gom:speed>0.0</gom:speed></extensions></trkpt>
   <trkpt lat="59.072744732" lon="30.0278618023"><ele>98.27</ele><time>2026-04-20T19:17:14.076Z</time><hdop>10.375</hdop><vdop>4.75</vdop><extensions><gom:speed>0.0</gom:speed></extensions></trkpt>
   <trkpt lat="59.072744732" lon="30.0278618023"><ele>98.268</ele><time>2026-04-20T19:17:15.075Z</time><hdop>10.375</hdop><vdop>4.75</vdop><extensions><gom:speed>0.0</gom:speed></extensions></trkpt>
   <trkpt lat="59.072744732" lon="30.0278616347"><ele>98.266</ele><time>2026-04-20T19:17:16.075Z</time><hdop>10.375</hdop><vdop>4.5</vdop><extensions><gom:speed>0.0</gom:speed></extensions></trkpt>
   <trkpt lat="59.0727446482" lon="30.0278616347"><ele>98.264</ele><time>2026-04-20T19:17:17.075Z</time><hdop>10.375</hdop><vdop>4.375</vdop><extensions><gom:speed>0.0</gom:speed></extensions></trkpt>
   <trkpt lat="59.0727446482" lon="30.0278615509"><ele>98.261</ele><time>2026-04-20T19:17:18.076Z</time><hdop>10.375</hdop><vdop>4.375</vdop><extensions><gom:speed>0.0</gom:speed></extensions></trkpt>
   <trkpt lat="59.0727446482" lon="30.0278614671"><ele>98.259</ele><time>2026-04-20T19:17:19.075Z</time><hdop>10.25</hdop><vdop>4.125</vdop><extensions><gom:speed>0.0</gom:speed></extensions></trkpt>
   <trkpt lat="59.0727446482" lon="30.0278614671"><ele>98.26</ele><time>2026-04-20T19:17:20.075Z</time><hdop>10.25</hdop><vdop>4.0</vdop><extensions><gom:speed>0.0</gom:speed></extensions></trkpt>
   <trkpt lat="59.0727446482" lon="30.0278613832"><ele>98.26</ele><time>2026-04-20T19:17:21.075Z</time><hdop>10.25</hdop><vdop>3.875</vdop><extensions><gom:speed>0.0</gom:speed></extensions></trkpt>
   <trkpt lat="59.0727446482" lon="30.0278613832"><ele>98.26</ele><time>2026-04-20T19:17:22.075Z</time><hdop>10.25</hdop><vdop>3.75</vdop><extensions><gom:speed>0.0</gom:speed></extensions></trkpt>
   <trkpt lat="59.0727446482" lon="30.0278612994"><ele>98.262</ele><time>2026-04-20T19:17:23.075Z</time><hdop>10.125</hdop><vdop>3.875</vdop><extensions><gom:speed>0.0</gom:speed></extensions></trkpt>
   <trkpt lat="59.0727446482" lon="30.0278613832"><ele>98.264</ele><time>2026-04-20T19:17:24.075Z</time><hdop>10.125</hdop><vdop>3.875</vdop><extensions><gom:speed>0.0</gom:speed></extensions></trkpt>
   <trkpt lat="59.072744732" lon="30.0278613832"><ele>98.265</ele><time>2026-04-20T19:17:25.075Z</time><hdop>10.125</hdop><vdop>3.875</vdop><extensions><gom:speed>0.0</gom:speed></extensions></trkpt>
   <trkpt lat="59.072744732" lon="30.0278613832"><ele>98.266</ele><time>2026-04-20T19:17:26.075Z</time><hdop>10.125</hdop><vdop>4.125</vdop><extensions><gom:speed>0.0</gom:speed></extensions></trkpt>
   <trkpt lat="59.072744732" lon="30.0278614671"><ele>98.266</ele><time>2026-04-20T19:17:27.075Z</time><hdop>10.125</hdop><vdop>4.125</vdop><extensions><gom:speed>0.0</gom:speed></extensions></trkpt>
   <trkpt lat="59.072744732" lon="30.0278614671"><ele>98.267</ele><time>2026-04-20T19:17:28.076Z</time><hdop>10.125</hdop><vdop>4.125</vdop><extensions><gom:speed>0.0</gom:speed></extensions></trkpt>
   <trkpt lat="59.072744732" lon="30.0278614671"><ele>98.268</ele><time>2026-04-20T19:17:29.075Z</time><hdop>10.125</hdop><vdop>4.25</vdop><extensions><gom:speed>0.0</gom:speed></extensions></trkpt>
   <trkpt lat="59.072744732" lon="30.0278615509"><ele>98.27</ele><time>2026-04-20T19:17:30.075Z</time><hdop>10.125</hdop><vdop>4.25</vdop><extensions><gom:speed>0.0</gom:speed></extensions></trkpt>
   <trkpt lat="59.072744732" lon="30.0278615509"><ele>98.274</ele><time>2026-04-20T19:17:31.075Z</time><hdop>10.125</hdop><vdop>4.375</vdop><extensions><gom:speed>0.0</gom:speed></extensions></trkpt>
   <trkpt lat="59.072744732" lon="30.0278615509"><ele>98.277</ele><time>2026-04-20T19:17:32.075Z</time><hdop>10.125</hdop><vdop>4.625</vdop><extensions><gom:speed>0.0</gom:speed></extensions></trkpt>
   <trkpt lat="59.072744732" lon="30.0278615509"><ele>98.279</ele><time>2026-04-20T19:17:33.075Z</time><hdop>10.125</hdop><vdop>4.625</vdop><extensions><gom:speed>0.0</gom:speed></extensions></trkpt>
   <trkpt lat="59.0727448577" lon="30.0278616347"><ele>98.281</ele><time>2026-04-20T19:17:34.075Z</time><hdop>10.125</hdop><vdop>4.875</vdop><extensions><gom:speed>0.0</gom:speed></extensions></trkpt>
   <trkpt lat="59.0727448577" lon="30.0278616347"><ele>98.283</ele><time>2026-04-20T19:17:35.075Z</time><hdop>10.125</hdop><vdop>5.0</vdop><extensions><gom:speed>0.0</gom:speed></extensions></trkpt>
   <trkpt lat="59.0727448577" lon="30.0278616347"><ele>98.285</ele><time>2026-04-20T19:17:36.076Z</time><hdop>10.25</hdop><vdop>5.125</vdop><extensions><gom:speed>0.0</gom:speed></extensions></trkpt>
   <trkpt lat="59.0727448577" lon="30.0278618023"><ele>98.287</ele><time>2026-04-20T19:17:37.075Z</time><hdop>10.25</hdop><vdop>5.125</vdop><extensions><gom:speed>0.0</gom:speed></extensions></trkpt>
   <trkpt lat="59.0727448577" lon="30.0278618023"><ele>98.288</ele><time>2026-04-20T19:17:38.075Z</time><hdop>10.25</hdop><vdop>5.375</vdop><extensions><gom:speed>0.0</gom:speed></extensions></trkpt>
   <trkpt lat="59.0727448577" lon="30.0278618861"><ele>98.289</ele><time>2026-04-20T19:17:39.075Z</time><hdop>10.25</hdop><vdop>5.5</vdop><extensions><gom:speed>0.0</gom:speed></extensions></trkpt>
   <trkpt lat="59.0727448577" lon="30.0278618861"><ele>98.29</ele><time>2026-04-20T19:17:40.076Z</time><hdop>10.25</hdop><vdop>5.625</vdop><extensions><gom:speed>0.0</gom:speed></extensions></trkpt>
   <trkpt lat="59.0727448577" lon="30.02786197"><ele>98.29</ele><time>2026-04-20T19:17:41.075Z</time><hdop>10.375</hdop><vdop>5.625</vdop><extensions><gom:speed>0.0</gom:speed></extensions></trkpt>
   <trkpt lat="59.0727448577" lon="30.02786197"><ele>98.291</ele><time>2026-04-20T19:17:42.076Z</time><hdop>10.375</hdop><vdop>5.75</vdop><extensions><gom:speed>0.0</gom:speed></extensions></trkpt>
   <trkpt lat="59.0727448577" lon="30.0278620538"><ele>98.291</ele><time>2026-04-20T19:17:43.075Z</time><hdop>10.5</hdop><vdop>6.0</vdop><extensions><gom:speed>0.0</gom:speed></extensions></trkpt>
   <trkpt lat="59.0727448577" lon="30.0278620538"><ele>98.29</ele><time>2026-04-20T19:17:44.076Z</time><hdop>10.5</hdop><vdop>6.125</vdop><extensions><gom:speed>0.0</gom:speed></extensions></trkpt>
   <trkpt lat="59.0727448577" lon="30.0278621376"><ele>98.289</ele><time>2026-04-20T19:17:45.076Z</time><hdop>10.625</hdop><vdop>6.25</vdop><extensions><gom:speed>0.0</gom:speed></extensions></trkpt>
   <trkpt lat="59.0727449415" lon="30.0278623052"><ele>98.289</ele><time>2026-04-20T19:17:46.075Z</time><hdop>10.625</hdop><vdop>6.0</vdop><extensions><gom:speed>0.0</gom:speed></extensions></trkpt>
   <trkpt lat="59.0727449415" lon="30.0278623052"><ele>98.289</ele><time>2026-04-20T19:17:47.075Z</time><hdop>10.625</hdop><vdop>6.25</vdop><extensions><gom:speed>0.0</gom:speed></extensions></trkpt>
   <trkpt lat="59.0727449415" lon="30.0278623891"><ele>98.288</ele><time>2026-04-20T19:17:48.075Z</time><hdop>10.625</hdop><vdop>6.125</vdop><extensions><gom:speed>0.0</gom:speed></extensions></trkpt>
   <trkpt lat="59.0727449415" lon="30.0278624729"><ele>98.287</ele><time>2026-04-20T19:17:49.075Z</time><hdop>10.625</hdop><vdop>5.625</vdop><extensions><gom:speed>0.0</gom:speed></extensions></trkpt>
   <trkpt lat="59.0727449415" lon="30.0278625567"><ele>98.287</ele><time>2026-04-20T19:17:50.075Z</time><hdop>10.5</hdop><vdop>5.5</vdop><extensions><gom:speed>0.0</gom:speed></extensions></trkpt>
   <trkpt lat="59.0727449415" lon="30.0278626405"><ele>98.286</ele><time>2026-04-20T19:17:51.075Z</time><hdop>10.5</hdop><vdop>5.5</vdop><extensions><gom:speed>0.0</gom:speed></extensions></trkpt>
   <trkpt lat="59.0727449415" lon="30.0278628082"><ele>98.286</ele><time>2026-04-20T19:17:52.075Z</time><hdop>10.5</hdop><vdop>5.5</vdop><extensions><gom:speed>0.0</gom:speed></extensions></trkpt>
   <trkpt lat="59.0727602385" lon="30.0279639777"><ele>98.284</ele><time>2026-04-20T19:17:53.006Z</time><hdop>10.375</hdop><vdop>5.5</vdop><extensions><gom:speed>0.71</gom:speed></extensions></trkpt>
   <trkpt lat="59.072760951" lon="30.0279773888"><ele>98.287</ele><time>2026-04-20T19:17:53.955Z</time><hdop>10.375</hdop><vdop>5.625</vdop><extensions><gom:speed>0.695</gom:speed></extensions></trkpt>
   <trkpt lat="59.0727628369" lon="30.0279902131"><ele>98.289</ele><time>2026-04-20T19:17:54.935Z</time><hdop>10.375</hdop><vdop>5.625</vdop><extensions><gom:speed>0.702</gom:speed></extensions></trkpt>
   <trkpt lat="59.0727666507" lon="30.028002283"><ele>98.291</ele><time>2026-04-20T19:17:55.832Z</time><hdop>10.5</hdop><vdop>5.75</vdop><extensions><gom:speed>0.83</gom:speed></extensions></trkpt>
   <trkpt lat="59.0727723504" lon="30.0280128442"><ele>98.291</ele><time>2026-04-20T19:17:56.661Z</time><hdop>10.75</hdop><vdop>5.75</vdop><extensions><gom:speed>0.885</gom:speed></extensions></trkpt>
   <trkpt lat="59.0727811514" lon="30.0280297757"><ele>98.292</ele><time>2026-04-20T19:17:57.540Z</time><hdop>11.25</hdop><vdop>5.75</vdop><extensions><gom:speed>0.944</gom:speed></extensions></trkpt>
   <trkpt lat="59.0727855519" lon="30.0280376547"><ele>98.291</ele><time>2026-04-20T19:17:58.418Z</time><hdop>11.875</hdop><vdop>5.625</vdop><extensions><gom:speed>0.913</gom:speed></extensions></trkpt>
   <trkpt lat="59.0727886532" lon="30.0280443602"><ele>98.291</ele><time>2026-04-20T19:17:59.049Z</time><hdop>12.125</hdop><vdop>5.625</vdop><extensions><gom:speed>0.911</gom:speed></extensions></trkpt>
   <trkpt lat="59.0727938499" lon="30.0280543346"><ele>98.29</ele><time>2026-04-20T19:17:59.996Z</time><hdop>13.125</hdop><vdop>5.625</vdop><extensions><gom:speed>0.875</gom:speed></extensions></trkpt>
   <trkpt lat="59.0727981247" lon="30.028064812"><ele>98.289</ele><time>2026-04-20T19:18:00.996Z</time><hdop>14.125</hdop><vdop>5.625</vdop><extensions><gom:speed>0.868</gom:speed></extensions></trkpt>
   <trkpt lat="59.0728016451" lon="30.0280767143"><ele>98.288</ele><time>2026-04-20T19:18:01.835Z</time><hdop>14.75</hdop><vdop>5.625</vdop><extensions><gom:speed>0.823</gom:speed></extensions></trkpt>
   <trkpt lat="59.0728044531" lon="30.0280894548"><ele>98.287</ele><time>2026-04-20T19:18:02.694Z</time><hdop>15.375</hdop><vdop>5.75</vdop><extensions><gom:speed>0.786</gom:speed></extensions></trkpt>
   <trkpt lat="59.0727967417" lon="30.0280887004"><ele>98.616</ele><time>2026-04-20T19:18:03.194Z</time><hdop>14.75</hdop><vdop>4.75</vdop><extensions><gom:speed>0.736</gom:speed></extensions></trkpt>
   <trkpt lat="59.0727899524" lon="30.0281024468"><ele>99.469</ele><time>2026-04-20T19:18:04.075Z</time><hdop>14.0</hdop><vdop>4.25</vdop><extensions><gom:speed>0.784</gom:speed></extensions></trkpt>
   <trkpt lat="59.0727835402" lon="30.0281114154"><ele>101.132</ele><time>2026-04-20T19:18:05.075Z</time><hdop>13.0</hdop><vdop>3.75</vdop><extensions><gom:speed>0.726</gom:speed></extensions></trkpt>
   <trkpt lat="59.0727778405" lon="30.0281223957"><ele>101.847</ele><time>2026-04-20T19:18:06.075Z</time><hdop>11.125</hdop><vdop>3.625</vdop><extensions><gom:speed>0.659</gom:speed></extensions></trkpt>
   <trkpt lat="59.0727760384" lon="30.0281270057"><ele>102.274</ele><time>2026-04-20T19:18:06.533Z</time><hdop>10.875</hdop><vdop>3.625</vdop><extensions><gom:speed>0.606</gom:speed></extensions></trkpt>
   <trkpt lat="59.0727735238" lon="30.0281335436"><ele>102.297</ele><time>2026-04-20T19:18:07.075Z</time><hdop>9.875</hdop><vdop>3.5</vdop><extensions><gom:speed>0.591</gom:speed></extensions></trkpt>
   <trkpt lat="59.0727717217" lon="30.0281410873"><ele>102.311</ele><time>2026-04-20T19:18:07.798Z</time><hdop>8.375</hdop><vdop>3.5</vdop><extensions><gom:speed>0.573</gom:speed></extensions></trkpt>
   <trkpt lat="59.0727680337" lon="30.0281565939"><ele>102.297</ele><time>2026-04-20T19:18:09.061Z</time><hdop>7.5</hdop><vdop>3.5</vdop><extensions><gom:speed>0.503</gom:speed></extensions></trkpt>
   <trkpt lat="59.072763256" lon="30.0281705078"><ele>101.864</ele><time>2026-04-20T19:18:09.673Z</time><hdop>6.75</hdop><vdop>3.375</vdop><extensions><gom:speed>0.554</gom:speed></extensions></trkpt>
   <trkpt lat="59.0727608252" lon="30.028183835"><ele>101.213</ele><time>2026-04-20T19:18:10.493Z</time><hdop>6.25</hdop><vdop>3.125</vdop><extensions><gom:speed>0.62</gom:speed></extensions></trkpt>
   <trkpt lat="59.0727597356" lon="30.0281967432"><ele>100.869</ele><time>2026-04-20T19:18:11.075Z</time><hdop>6.25</hdop><vdop>3.25</vdop><extensions><gom:speed>0.649</gom:speed></extensions></trkpt>
   <trkpt lat="59.0727595261" lon="30.0282184523"><ele>100.781</ele><time>2026-04-20T19:18:12.076Z</time><hdop>5.875</hdop><vdop>3.0</vdop><extensions><gom:speed>0.63</gom:speed></extensions></trkpt>
   <trkpt lat="59.0727589393" lon="30.0282350485"><ele>100.729</ele><time>2026-04-20T19:18:13.062Z</time><hdop>5.5</hdop><vdop>3.0</vdop><extensions><gom:speed>0.684</gom:speed></extensions></trkpt>
   <trkpt lat="59.0727596518" lon="30.0282546621"><ele>100.775</ele><time>2026-04-20T19:18:13.977Z</time><hdop>5.375</hdop><vdop>3.0</vdop><extensions><gom:speed>0.703</gom:speed></extensions></trkpt>
   <trkpt lat="59.0727620406" lon="30.0282748625"><ele>100.815</ele><time>2026-04-20T19:18:14.896Z</time><hdop>5.0</hdop><vdop>2.875</vdop><extensions><gom:speed>0.704</gom:speed></extensions></trkpt>
   <trkpt lat="59.072763717" lon="30.0282845855"><ele>101.159</ele><time>2026-04-20T19:18:15.515Z</time><hdop>5.0</hdop><vdop>7.75</vdop><extensions><gom:speed>0.714</gom:speed></extensions></trkpt>
   <trkpt lat="59.0727666507" lon="30.0283026066"><ele>101.374</ele><time>2026-04-20T19:18:16.075Z</time><hdop>4.875</hdop><vdop>7.625</vdop><extensions><gom:speed>0.726</gom:speed></extensions></trkpt>
   <trkpt lat="59.0727681175" lon="30.0283132516"><ele>101.502</ele><time>2026-04-20T19:18:16.761Z</time><hdop>4.75</hdop><vdop>7.625</vdop><extensions><gom:speed>0.74</gom:speed></extensions></trkpt>
   <trkpt lat="59.072769752" lon="30.0283231423"><ele>101.62</ele><time>2026-04-20T19:18:17.501Z</time><hdop>4.875</hdop><vdop>7.5</vdop><extensions><gom:speed>0.701</gom:speed></extensions></trkpt>
   <trkpt lat="59.0727709254" lon="30.0283328653"><ele>101.793</ele><time>2026-04-20T19:18:18.075Z</time><hdop>4.875</hdop><vdop>7.5</vdop><extensions><gom:speed>0.708</gom:speed></extensions></trkpt>
   <trkpt lat="59.0727700453" lon="30.0283468631"><ele>101.968</ele><time>2026-04-20T19:18:18.951Z</time><hdop>4.875</hdop><vdop>7.375</vdop><extensions><gom:speed>0.689</gom:speed></extensions></trkpt>
   <trkpt lat="59.0727678241" lon="30.028360777"><ele>102.109</ele><time>2026-04-20T19:18:20.075Z</time><hdop>5.0</hdop><vdop>7.25</vdop><extensions><gom:speed>0.657</gom:speed></extensions></trkpt>
   <trkpt lat="59.0727654353" lon="30.0283716735"><ele>102.24</ele><time>2026-04-20T19:18:20.964Z</time><hdop>5.125</hdop><vdop>7.375</vdop><extensions><gom:speed>0.639</gom:speed></extensions></trkpt>
   <trkpt lat="59.072764639" lon="30.0283742719"><ele>102.319</ele><time>2026-04-20T19:18:21.675Z</time><hdop>5.25</hdop><vdop>7.375</vdop><extensions><gom:speed>0.621</gom:speed></extensions></trkpt>
   <trkpt lat="59.0727626274" lon="30.0283949752"><ele>102.305</ele><time>2026-04-20T19:18:23.061Z</time><hdop>5.5</hdop><vdop>7.25</vdop><extensions><gom:speed>0.626</gom:speed></extensions></trkpt>
   <trkpt lat="59.0727636332" lon="30.0284049497"><ele>102.287</ele><time>2026-04-20T19:18:23.781Z</time><hdop>5.625</hdop><vdop>7.125</vdop><extensions><gom:speed>0.673</gom:speed></extensions></trkpt>
   <trkpt lat="59.0727668183" lon="30.0284160976"><ele>102.248</ele><time>2026-04-20T19:18:24.659Z</time><hdop>5.75</hdop><vdop>6.875</vdop><extensions><gom:speed>0.632</gom:speed></extensions></trkpt>
   <trkpt lat="59.0727640523" lon="30.0284259044"><ele>102.203</ele><time>2026-04-20T19:18:25.774Z</time><hdop>5.875</hdop><vdop>6.75</vdop><extensions><gom:speed>0.561</gom:speed></extensions></trkpt>
   <trkpt lat="59.0727604481" lon="30.0284290895"><ele>102.13</ele><time>2026-04-20T19:18:26.515Z</time><hdop>6.125</hdop><vdop>6.5</vdop><extensions><gom:speed>0.591</gom:speed></extensions></trkpt>
   <trkpt lat="59.0727573468" lon="30.0284297601"><ele>102.109</ele><time>2026-04-20T19:18:27.007Z</time><hdop>6.125</hdop><vdop>6.375</vdop><extensions><gom:speed>0.591</gom:speed></extensions></trkpt>
   <trkpt lat="59.072754455" lon="30.0284288381"><ele>102.097</ele><time>2026-04-20T19:18:27.836Z</time><hdop>6.25</hdop><vdop>6.375</vdop><extensions><gom:speed>0.614</gom:speed></extensions></trkpt>
   <trkpt lat="59.0727430556" lon="30.0284264073"><ele>102.043</ele><time>2026-04-20T19:18:28.916Z</time><hdop>6.375</hdop><vdop>6.25</vdop><extensions><gom:speed>0.703</gom:speed></extensions></trkpt>
   <trkpt lat="59.0727421336" lon="30.0284280837"><ele>101.985</ele><time>2026-04-20T19:18:29.792Z</time><hdop>6.375</hdop><vdop>6.25</vdop><extensions><gom:speed>0.69</gom:speed></extensions></trkpt>
   <trkpt lat="59.0727373559" lon="30.028432107"><ele>101.939</ele><time>2026-04-20T19:18:30.621Z</time><hdop>6.375</hdop><vdop>6.25</vdop><extensions><gom:speed>0.704</gom:speed></extensions></trkpt>
   <trkpt lat="59.0727304408" lon="30.0284380582"><ele>101.905</ele><time>2026-04-20T19:18:31.422Z</time><hdop>6.375</hdop><vdop>6.125</vdop><extensions><gom:speed>0.803</gom:speed></extensions></trkpt>
   <trkpt lat="59.0727252441" lon="30.0284440093"><ele>101.885</ele><time>2026-04-20T19:18:32.053Z</time><hdop>6.5</hdop><vdop>6.125</vdop><extensions><gom:speed>0.801</gom:speed></extensions></trkpt>
   <trkpt lat="59.0727189576" lon="30.0284549058"><ele>101.864</ele><time>2026-04-20T19:18:33.043Z</time><hdop>6.5</hdop><vdop>6.25</vdop><extensions><gom:speed>0.787</gom:speed></extensions></trkpt>
   <trkpt lat="59.072716024" lon="30.0284658861"><ele>101.848</ele><time>2026-04-20T19:18:33.919Z</time><hdop>6.625</hdop><vdop>6.25</vdop><extensions><gom:speed>0.755</gom:speed></extensions></trkpt>
   <trkpt lat="59.0727144314" lon="30.0284748547"><ele>101.835</ele><time>2026-04-20T19:18:34.798Z</time><hdop>6.875</hdop><vdop>6.5</vdop><extensions><gom:speed>0.689</gom:speed></extensions></trkpt>
   <trkpt lat="59.0727238191" lon="30.0284823146"><ele>101.226</ele><time>2026-04-20T19:18:35.637Z</time><hdop>7.0</hdop><vdop>5.75</vdop><extensions><gom:speed>0.62</gom:speed></extensions></trkpt>
   <trkpt lat="59.0727346318" lon="30.0284934626"><ele>101.162</ele><time>2026-04-20T19:18:36.517Z</time><hdop>6.875</hdop><vdop>5.0</vdop><extensions><gom:speed>0.529</gom:speed></extensions></trkpt>
   <trkpt lat="59.0727402477" lon="30.0285022636"><ele>100.529</ele><time>2026-04-20T19:18:37.076Z</time><hdop>6.75</hdop><vdop>4.75</vdop><extensions><gom:speed>0.514</gom:speed></extensions></trkpt>
   <trkpt lat="59.0727454445" lon="30.0285172672"><ele>100.21</ele><time>2026-04-20T19:18:38.076Z</time><hdop>6.5</hdop><vdop>6.125</vdop><extensions><gom:speed>0.517</gom:speed></extensions></trkpt>
   <trkpt lat="59.0727463246" lon="30.0285222963"><ele>100.019</ele><time>2026-04-20T19:18:38.776Z</time><hdop>6.375</hdop><vdop>6.125</vdop><extensions><gom:speed>0.476</gom:speed></extensions></trkpt>
   <trkpt lat="59.0727505574" lon="30.0285338633"><ele>99.976</ele><time>2026-04-20T19:18:39.562Z</time><hdop>6.0</hdop><vdop>6.125</vdop><extensions><gom:speed>0.494</gom:speed></extensions></trkpt>
   <trkpt lat="59.0727530301" lon="30.0285445083"><ele>99.714</ele><time>2026-04-20T19:18:40.075Z</time><hdop>5.75</hdop><vdop>6.25</vdop><extensions><gom:speed>0.463</gom:speed></extensions></trkpt>
   <trkpt lat="59.0727567181" lon="30.0285607692"><ele>99.475</ele><time>2026-04-20T19:18:41.075Z</time><hdop>5.5</hdop><vdop>6.25</vdop><extensions><gom:speed>0.558</gom:speed></extensions></trkpt>
   <trkpt lat="59.0727595261" lon="30.0285633676"><ele>99.333</ele><time>2026-04-20T19:18:41.975Z</time><hdop>5.625</hdop><vdop>6.25</vdop><extensions><gom:speed>0.784</gom:speed></extensions></trkpt>
   <trkpt lat="59.0727626274" lon="30.0285577518"><ele>99.556</ele><time>2026-04-20T19:18:42.835Z</time><hdop>5.875</hdop><vdop>6.375</vdop><extensions><gom:speed>0.782</gom:speed></extensions></trkpt>
   <trkpt lat="59.0727626274" lon="30.0285745156"><ele>99.412</ele><time>2026-04-20T19:18:43.496Z</time><hdop>6.25</hdop><vdop>6.5</vdop><extensions><gom:speed>0.927</gom:speed></extensions></trkpt>
   <trkpt lat="59.0727622502" lon="30.0285830651"><ele>99.416</ele><time>2026-04-20T19:18:44.065Z</time><hdop>6.5</hdop><vdop>6.75</vdop><extensions><gom:speed>0.909</gom:speed></extensions></trkpt>
   <trkpt lat="59.0727594422" lon="30.028595135"><ele>98.887</ele><time>2026-04-20T19:18:45.013Z</time><hdop>7.5</hdop><vdop>6.875</vdop><extensions><gom:speed>0.819</gom:speed></extensions></trkpt>
   <trkpt lat="59.0727553351" lon="30.0286047742"><ele>98.572</ele><time>2026-04-20T19:18:45.973Z</time><hdop>8.5</hdop><vdop>6.875</vdop><extensions><gom:speed>0.849</gom:speed></extensions></trkpt>
   <trkpt lat="59.0727546226" lon="30.028621538"><ele>98.184</ele><time>2026-04-20T19:18:46.434Z</time><hdop>8.625</hdop><vdop>6.75</vdop><extensions><gom:speed>0.852</gom:speed></extensions></trkpt>
   <trkpt lat="59.0727507251" lon="30.0286492821"><ele>97.698</ele><time>2026-04-20T19:18:47.027Z</time><hdop>9.625</hdop><vdop>6.75</vdop><extensions><gom:speed>0.833</gom:speed></extensions></trkpt>
   <trkpt lat="59.0727489229" lon="30.028658586"><ele>97.408</ele><time>2026-04-20T19:18:47.641Z</time><hdop>9.875</hdop><vdop>6.75</vdop><extensions><gom:speed>0.812</gom:speed></extensions></trkpt>
   <trkpt lat="59.0727446482" lon="30.0286694825"><ele>97.157</ele><time>2026-04-20T19:18:48.658Z</time><hdop>10.5</hdop><vdop>6.75</vdop><extensions><gom:speed>0.76</gom:speed></extensions></trkpt>
   <trkpt lat="59.0727421336" lon="30.0286818039"><ele>97.047</ele><time>2026-04-20T19:18:49.477Z</time><hdop>10.5</hdop><vdop>6.625</vdop><extensions><gom:speed>0.714</gom:speed></extensions></trkpt>
   <trkpt lat="59.0727404572" lon="30.0286892638"><ele>97.022</ele><time>2026-04-20T19:18:49.989Z</time><hdop>10.5</hdop><vdop>6.5</vdop><extensions><gom:speed>0.718</gom:speed></extensions></trkpt>
   <trkpt lat="59.0727378169" lon="30.0287053571"><ele>96.932</ele><time>2026-04-20T19:18:51.055Z</time><hdop>10.375</hdop><vdop>6.375</vdop><extensions><gom:speed>0.76</gom:speed></extensions></trkpt>
   <trkpt lat="59.0727344223" lon="30.0287198578"><ele>96.878</ele><time>2026-04-20T19:18:51.857Z</time><hdop>10.5</hdop><vdop>6.375</vdop><extensions><gom:speed>0.739</gom:speed></extensions></trkpt>
   <trkpt lat="59.0727344223" lon="30.0287223723"><ele>96.821</ele><time>2026-04-20T19:18:52.595Z</time><hdop>10.25</hdop><vdop>6.0</vdop><extensions><gom:speed>0.645</gom:speed></extensions></trkpt>
   <trkpt lat="59.0727305247" lon="30.0287333526"><ele>96.808</ele><time>2026-04-20T19:18:54.016Z</time><hdop>9.875</hdop><vdop>5.375</vdop><extensions><gom:speed>0.391</gom:speed></extensions></trkpt>
   <trkpt lat="59.0727298541" lon="30.0287289102"><ele>96.792</ele><time>2026-04-20T19:18:54.964Z</time><hdop>9.875</hdop><vdop>5.375</vdop><extensions><gom:speed>0.252</gom:speed></extensions></trkpt>
   <trkpt lat="59.0727321172" lon="30.0287253898"><ele>96.846</ele><time>2026-04-20T19:18:56.030Z</time><hdop>9.75</hdop><vdop>5.625</vdop><extensions><gom:speed>0.149</gom:speed></extensions></trkpt>
   <trkpt lat="59.0727353443" lon="30.0287228752"><ele>96.912</ele><time>2026-04-20T19:18:56.979Z</time><hdop>9.5</hdop><vdop>6.25</vdop><extensions><gom:speed>0.094</gom:speed></extensions></trkpt>
   <trkpt lat="59.0727383198" lon="30.0287217018"><ele>97.036</ele><time>2026-04-20T19:18:58.044Z</time><hdop>9.625</hdop><vdop>6.625</vdop><extensions><gom:speed>0.086</gom:speed></extensions></trkpt>
   <trkpt lat="59.0727399543" lon="30.0287206959"><ele>97.11</ele><time>2026-04-20T19:18:58.755Z</time><hdop>9.625</hdop><vdop>6.625</vdop><extensions><gom:speed>0.078</gom:speed></extensions></trkpt>
   <trkpt lat="59.0727428461" lon="30.0287196063"><ele>97.204</ele><time>2026-04-20T19:18:59.941Z</time><hdop>9.625</hdop><vdop>7.125</vdop><extensions><gom:speed>0.101</gom:speed></extensions></trkpt>
   <trkpt lat="59.0727442291" lon="30.0287191034"><ele>97.261</ele><time>2026-04-20T19:19:01.001Z</time><hdop>9.625</hdop><vdop>7.125</vdop><extensions><gom:speed>0.116</gom:speed></extensions></trkpt>
   <trkpt lat="59.0727459474" lon="30.0287180137"><ele>97.306</ele><time>2026-04-20T19:19:01.838Z</time><hdop>9.75</hdop><vdop>7.375</vdop><extensions><gom:speed>0.094</gom:speed></extensions></trkpt>
   <trkpt lat="59.0727477495" lon="30.0287085422"><ele>97.435</ele><time>2026-04-20T19:19:03.076Z</time><hdop>9.75</hdop><vdop>6.875</vdop><extensions><gom:speed>0.094</gom:speed></extensions></trkpt>
   <trkpt lat="59.0727486296" lon="30.028701669"><ele>97.56</ele><time>2026-04-20T19:19:03.969Z</time><hdop>9.75</hdop><vdop>6.75</vdop><extensions><gom:speed>0.139</gom:speed></extensions></trkpt>
   <trkpt lat="59.0727492163" lon="30.0286950473"><ele>97.636</ele><time>2026-04-20T19:19:04.858Z</time><hdop>9.875</hdop><vdop>6.75</vdop><extensions><gom:speed>0.193</gom:speed></extensions></trkpt>
   <trkpt lat="59.0727499288" lon="30.028685492"><ele>97.723</ele><time>2026-04-20T19:19:05.916Z</time><hdop>10.125</hdop><vdop>6.625</vdop><extensions><gom:speed>0.238</gom:speed></extensions></trkpt>
   <trkpt lat="59.0727481267" lon="30.0286788703"><ele>97.795</ele><time>2026-04-20T19:19:06.943Z</time><hdop>10.625</hdop><vdop>6.75</vdop><extensions><gom:speed>0.259</gom:speed></extensions></trkpt>
   <trkpt lat="59.0727428461" lon="30.0286723324"><ele>97.868</ele><time>2026-04-20T19:19:07.995Z</time><hdop>11.25</hdop><vdop>6.75</vdop><extensions><gom:speed>0.295</gom:speed></extensions></trkpt>
   <trkpt lat="59.0727403315" lon="30.0286701531"><ele>97.93</ele><time>2026-04-20T19:19:09.075Z</time><hdop>11.75</hdop><vdop>6.75</vdop><extensions><gom:speed>0.294</gom:speed></extensions></trkpt>
   <trkpt lat="59.0727404572" lon="30.0286694825"><ele>97.967</ele><time>2026-04-20T19:19:09.795Z</time><hdop>11.75</hdop><vdop>6.75</vdop><extensions><gom:speed>0.182</gom:speed></extensions></trkpt>
   <trkpt lat="59.0727420498" lon="30.0286696502"><ele>98.029</ele><time>2026-04-20T19:19:10.920Z</time><hdop>12.0</hdop><vdop>6.625</vdop><extensions><gom:speed>0.184</gom:speed></extensions></trkpt>
   <trkpt lat="59.0727442291" lon="30.0286722485"><ele>98.093</ele><time>2026-04-20T19:19:11.820Z</time><hdop>11.875</hdop><vdop>6.875</vdop><extensions><gom:speed>0.213</gom:speed></extensions></trkpt>
   <trkpt lat="59.0727473304" lon="30.028674344"><ele>98.145</ele><time>2026-04-20T19:19:12.717Z</time><hdop>11.5</hdop><vdop>7.0</vdop><extensions><gom:speed>0.185</gom:speed></extensions></trkpt>
   <trkpt lat="59.07275215" lon="30.028675266"><ele>98.208</ele><time>2026-04-20T19:19:13.635Z</time><hdop>11.0</hdop><vdop>7.0</vdop><extensions><gom:speed>0.227</gom:speed></extensions></trkpt>
   <trkpt lat="59.0727571372" lon="30.0286750984"><ele>98.313</ele><time>2026-04-20T19:19:14.455Z</time><hdop>10.875</hdop><vdop>6.875</vdop><extensions><gom:speed>0.245</gom:speed></extensions></trkpt>
   <trkpt lat="59.0727596518" lon="30.0286751822"><ele>98.387</ele><time>2026-04-20T19:19:14.985Z</time><hdop>10.75</hdop><vdop>6.75</vdop><extensions><gom:speed>0.262</gom:speed></extensions></trkpt>
   <trkpt lat="59.0727653515" lon="30.0286767748"><ele>98.442</ele><time>2026-04-20T19:19:16.051Z</time><hdop>10.625</hdop><vdop>6.625</vdop><extensions><gom:speed>0.29</gom:speed></extensions></trkpt>
   <trkpt lat="59.0727682432" lon="30.0286789541"><ele>98.49</ele><time>2026-04-20T19:19:16.999Z</time><hdop>10.5</hdop><vdop>6.625</vdop><extensions><gom:speed>0.273</gom:speed></extensions></trkpt>
   <trkpt lat="59.072768327" lon="30.0286844861"><ele>98.526</ele><time>2026-04-20T19:19:18.065Z</time><hdop>10.5</hdop><vdop>6.625</vdop><extensions><gom:speed>0.218</gom:speed></extensions></trkpt>
   <trkpt lat="59.0727668183" lon="30.0286842347"><ele>98.547</ele><time>2026-04-20T19:19:18.661Z</time><hdop>10.5</hdop><vdop>6.625</vdop><extensions><gom:speed>0.179</gom:speed></extensions></trkpt>
   <trkpt lat="59.0727617473" lon="30.0286864978"><ele>98.594</ele><time>2026-04-20T19:19:20.033Z</time><hdop>10.25</hdop><vdop>6.75</vdop><extensions><gom:speed>0.173</gom:speed></extensions></trkpt>
   <trkpt lat="59.0727593165" lon="30.0286883418"><ele>98.629</ele><time>2026-04-20T19:19:20.862Z</time><hdop>10.25</hdop><vdop>6.875</vdop><extensions><gom:speed>0.179</gom:speed></extensions></trkpt>
   <trkpt lat="59.0727564247" lon="30.0286906049"><ele>98.714</ele><time>2026-04-20T19:19:21.975Z</time><hdop>9.875</hdop><vdop>6.5</vdop><extensions><gom:speed>0.175</gom:speed></extensions></trkpt>
   <trkpt lat="59.0727539521" lon="30.0286922813"><ele>98.781</ele><time>2026-04-20T19:19:23.042Z</time><hdop>9.625</hdop><vdop>6.25</vdop><extensions><gom:speed>0.183</gom:speed></extensions></trkpt>
   <trkpt lat="59.0727532396" lon="30.0286932033"><ele>98.821</ele><time>2026-04-20T19:19:23.515Z</time><hdop>9.5</hdop><vdop>6.25</vdop><extensions><gom:speed>0.211</gom:speed></extensions></trkpt>
   <trkpt lat="59.0727508508" lon="30.0286959693"><ele>98.867</ele><time>2026-04-20T19:19:23.989Z</time><hdop>9.125</hdop><vdop>6.125</vdop><extensions><gom:speed>0.26</gom:speed></extensions></trkpt>
   <trkpt lat="59.0727489229" lon="30.0286985677"><ele>98.908</ele><time>2026-04-20T19:19:25.055Z</time><hdop>9.125</hdop><vdop>6.0</vdop><extensions><gom:speed>0.286</gom:speed></extensions></trkpt>
   <trkpt lat="59.0727479171" lon="30.0287009147"><ele>98.932</ele><time>2026-04-20T19:19:25.680Z</time><hdop>9.25</hdop><vdop>6.0</vdop><extensions><gom:speed>0.271</gom:speed></extensions></trkpt>
   <trkpt lat="59.0727458216" lon="30.0287072849"><ele>98.967</ele><time>2026-04-20T19:19:26.951Z</time><hdop>9.25</hdop><vdop>6.0</vdop><extensions><gom:speed>0.304</gom:speed></extensions></trkpt>
   <trkpt lat="59.0727450254" lon="30.0287105538"><ele>98.988</ele><time>2026-04-20T19:19:27.940Z</time><hdop>9.375</hdop><vdop>6.0</vdop><extensions><gom:speed>0.247</gom:speed></extensions></trkpt>
   <trkpt lat="59.0727450254" lon="30.0287130684"><ele>99.01</ele><time>2026-04-20T19:19:28.965Z</time><hdop>9.625</hdop><vdop>5.875</vdop><extensions><gom:speed>0.189</gom:speed></extensions></trkpt>
   <trkpt lat="59.0727450254" lon="30.0287123979"><ele>99.023</ele><time>2026-04-20T19:19:29.675Z</time><hdop>9.625</hdop><vdop>5.875</vdop><extensions><gom:speed>0.176</gom:speed></extensions></trkpt>
   <trkpt lat="59.072744732" lon="30.0287144095"><ele>99.037</ele><time>2026-04-20T19:19:30.978Z</time><hdop>10.125</hdop><vdop>5.625</vdop><extensions><gom:speed>0.242</gom:speed></extensions></trkpt>
   <trkpt lat="59.0727427203" lon="30.028712314"><ele>99.065</ele><time>2026-04-20T19:19:32.044Z</time><hdop>10.625</hdop><vdop>5.875</vdop><extensions><gom:speed>0.281</gom:speed></extensions></trkpt>
   <trkpt lat="59.0727366435" lon="30.0286966399"><ele>99.092</ele><time>2026-04-20T19:19:32.992Z</time><hdop>11.125</hdop><vdop>5.875</vdop><extensions><gom:speed>0.141</gom:speed></extensions></trkpt>
   <trkpt lat="59.0727289321" lon="30.0286761042"><ele>99.114</ele><time>2026-04-20T19:19:33.941Z</time><hdop>11.625</hdop><vdop>5.875</vdop><extensions><gom:speed>0.083</gom:speed></extensions></trkpt>
   <trkpt lat="59.0727245316" lon="30.0286626094"><ele>99.131</ele><time>2026-04-20T19:19:35.006Z</time><hdop>12.125</hdop><vdop>5.875</vdop><extensions><gom:speed>0.077</gom:speed></extensions></trkpt>
   <trkpt lat="59.0727227295" lon="30.0286560715"><ele>99.141</ele><time>2026-04-20T19:19:35.836Z</time><hdop>12.25</hdop><vdop>5.875</vdop><extensions><gom:speed>0.069</gom:speed></extensions></trkpt>
   <trkpt lat="59.0727194186" lon="30.0286471867"><ele>99.169</ele><time>2026-04-20T19:19:37.020Z</time><hdop>12.75</hdop><vdop>6.0</vdop><extensions><gom:speed>0.066</gom:speed></extensions></trkpt>
   <trkpt lat="59.0727239449" lon="30.0286571611"><ele>99.192</ele><time>2026-04-20T19:19:38.075Z</time><hdop>12.625</hdop><vdop>5.875</vdop><extensions><gom:speed>0.096</gom:speed></extensions></trkpt>
   <trkpt lat="59.0727277167" lon="30.0286639505"><ele>99.213</ele><time>2026-04-20T19:19:39.035Z</time><hdop>12.375</hdop><vdop>6.0</vdop><extensions><gom:speed>0.071</gom:speed></extensions></trkpt>
   <trkpt lat="59.0727300218" lon="30.028666465"><ele>99.23</ele><time>2026-04-20T19:19:39.983Z</time><hdop>12.0</hdop><vdop>6.375</vdop><extensions><gom:speed>0.066</gom:speed></extensions></trkpt>
   <trkpt lat="59.0727312371" lon="30.0286673032"><ele>99.247</ele><time>2026-04-20T19:19:41.048Z</time><hdop>11.75</hdop><vdop>6.625</vdop><extensions><gom:speed>0.105</gom:speed></extensions></trkpt>
   <trkpt lat="59.0727318239" lon="30.0286669679"><ele>99.258</ele><time>2026-04-20T19:19:41.996Z</time><hdop>11.75</hdop><vdop>6.625</vdop><extensions><gom:speed>0.089</gom:speed></extensions></trkpt>
   <trkpt lat="59.0727314467" lon="30.0286679738"><ele>99.268</ele><time>2026-04-20T19:19:43.063Z</time><hdop>11.25</hdop><vdop>6.0</vdop><extensions><gom:speed>0.077</gom:speed></extensions></trkpt>
   <trkpt lat="59.0727314467" lon="30.0286670518"><ele>99.274</ele><time>2026-04-20T19:19:43.775Z</time><hdop>11.25</hdop><vdop>6.0</vdop><extensions><gom:speed>0.043</gom:speed></extensions></trkpt>
   <trkpt lat="59.0727310276" lon="30.0286660459"><ele>99.283</ele><time>2026-04-20T19:19:45.076Z</time><hdop>11.5</hdop><vdop>6.0</vdop><extensions><gom:speed>0.105</gom:speed></extensions></trkpt>
   <trkpt lat="59.0727299379" lon="30.0286657107"><ele>99.289</ele><time>2026-04-20T19:19:46.023Z</time><hdop>11.625</hdop><vdop>6.375</vdop><extensions><gom:speed>0.087</gom:speed></extensions></trkpt>
   <trkpt lat="59.0727290578" lon="30.0286647048"><ele>99.293</ele><time>2026-04-20T19:19:46.598Z</time><hdop>11.75</hdop><vdop>6.375</vdop><extensions><gom:speed>0.082</gom:speed></extensions></trkpt>
   <trkpt lat="59.0727287226" lon="30.0286644534"><ele>99.296</ele><time>2026-04-20T19:19:47.537Z</time><hdop>11.75</hdop><vdop>6.625</vdop><extensions><gom:speed>0.121</gom:speed></extensions></trkpt>
   <trkpt lat="59.0727291417" lon="30.0286648725"><ele>99.299</ele><time>2026-04-20T19:19:48.037Z</time><hdop>11.875</hdop><vdop>6.25</vdop><extensions><gom:speed>0.144</gom:speed></extensions></trkpt>
   <trkpt lat="59.0727283454" lon="30.0286637828"><ele>99.305</ele><time>2026-04-20T19:19:48.985Z</time><hdop>12.0</hdop><vdop>6.125</vdop><extensions><gom:speed>0.133</gom:speed></extensions></trkpt>
   <trkpt lat="59.0727284292" lon="30.028663699"><ele>99.303</ele><time>2026-04-20T19:19:50.051Z</time><hdop>12.125</hdop><vdop>6.375</vdop><extensions><gom:speed>0.127</gom:speed></extensions></trkpt>
   <trkpt lat="59.0727299379" lon="30.0286771939"><ele>97.213</ele><time>2026-04-20T19:19:51.075Z</time><hdop>12.0</hdop><vdop>5.375</vdop><extensions><gom:speed>0.153</gom:speed></extensions></trkpt>
   <trkpt lat="59.0727304408" lon="30.0286841508"><ele>95.964</ele><time>2026-04-20T19:19:51.595Z</time><hdop>11.75</hdop><vdop>5.375</vdop><extensions><gom:speed>0.176</gom:speed></extensions></trkpt>
   <trkpt lat="59.0727274234" lon="30.0286997412"><ele>95.762</ele><time>2026-04-20T19:19:52.075Z</time><hdop>11.375</hdop><vdop>4.5</vdop><extensions><gom:speed>0.196</gom:speed></extensions></trkpt>
   <trkpt lat="59.0727198377" lon="30.0287188519"><ele>95.975</ele><time>2026-04-20T19:19:53.075Z</time><hdop>10.5</hdop><vdop>4.0</vdop><extensions><gom:speed>0.208</gom:speed></extensions></trkpt>
   <trkpt lat="59.0727113301" lon="30.0287363701"><ele>96.761</ele><time>2026-04-20T19:19:54.076Z</time><hdop>9.0</hdop><vdop>3.75</vdop><extensions><gom:speed>0.232</gom:speed></extensions></trkpt>
   <trkpt lat="59.0727019424" lon="30.0287551456"><ele>97.101</ele><time>2026-04-20T19:19:55.076Z</time><hdop>7.625</hdop><vdop>3.625</vdop><extensions><gom:speed>0.275</gom:speed></extensions></trkpt>
   <trkpt lat="59.0726998469" lon="30.0287574925"><ele>97.304</ele><time>2026-04-20T19:19:55.661Z</time><hdop>6.25</hdop><vdop>3.625</vdop><extensions><gom:speed>0.268</gom:speed></extensions></trkpt>
   <trkpt lat="59.072692848" lon="30.0287695624"><ele>96.982</ele><time>2026-04-20T19:19:56.540Z</time><hdop>5.625</hdop><vdop>3.625</vdop><extensions><gom:speed>0.305</gom:speed></extensions></trkpt>
   <trkpt lat="59.0726886571" lon="30.0287803751"><ele>97.179</ele><time>2026-04-20T19:19:57.075Z</time><hdop>5.25</hdop><vdop>3.75</vdop><extensions><gom:speed>0.34</gom:speed></extensions></trkpt>
   <trkpt lat="59.0726857234" lon="30.0287874159"><ele>97.296</ele><time>2026-04-20T19:19:57.715Z</time><hdop>5.0</hdop><vdop>3.75</vdop><extensions><gom:speed>0.375</gom:speed></extensions></trkpt>
   <trkpt lat="59.0726798561" lon="30.0288040121"><ele>97.253</ele><time>2026-04-20T19:19:58.861Z</time><hdop>4.625</hdop><vdop>4.0</vdop><extensions><gom:speed>0.341</gom:speed></extensions></trkpt>
   <trkpt lat="59.0726758327" lon="30.0288201053"><ele>97.928</ele><time>2026-04-20T19:19:59.838Z</time><hdop>4.5</hdop><vdop>4.0</vdop><extensions><gom:speed>0.36</gom:speed></extensions></trkpt>
   <trkpt lat="59.0726735277" lon="30.0288325944"><ele>98.42</ele><time>2026-04-20T19:20:00.477Z</time><hdop>4.375</hdop><vdop>4.25</vdop><extensions><gom:speed>0.401</gom:speed></extensions></trkpt>
   <trkpt lat="59.0726705521" lon="30.0288527947"><ele>98.38</ele><time>2026-04-20T19:20:01.076Z</time><hdop>4.375</hdop><vdop>3.875</vdop><extensions><gom:speed>0.434</gom:speed></extensions></trkpt>
   <trkpt lat="59.0726701331" lon="30.0288559799"><ele>98.356</ele><time>2026-04-20T19:20:01.734Z</time><hdop>4.375</hdop><vdop>3.875</vdop><extensions><gom:speed>0.317</gom:speed></extensions></trkpt>
   <trkpt lat="59.0726697559" lon="30.0288704806"><ele>98.294</ele><time>2026-04-20T19:20:02.977Z</time><hdop>4.375</hdop><vdop>3.875</vdop><extensions><gom:speed>0.244</gom:speed></extensions></trkpt>
   <trkpt lat="59.072669253" lon="30.0288963806"><ele>98.824</ele><time>2026-04-20T19:20:04.076Z</time><hdop>4.375</hdop><vdop>3.875</vdop><extensions><gom:speed>0.242</gom:speed></extensions></trkpt>
   <trkpt lat="59.0726669479" lon="30.0289123063"><ele>98.985</ele><time>2026-04-20T19:20:05.075Z</time><hdop>4.5</hdop><vdop>3.875</vdop><extensions><gom:speed>0.249</gom:speed></extensions></trkpt>
   <trkpt lat="59.0726647267" lon="30.0289263879"><ele>99.189</ele><time>2026-04-20T19:20:06.075Z</time><hdop>4.625</hdop><vdop>3.375</vdop><extensions><gom:speed>0.225</gom:speed></extensions></trkpt>
   <trkpt lat="59.0726646429" lon="30.0289283157"><ele>99.311</ele><time>2026-04-20T19:20:06.637Z</time><hdop>4.625</hdop><vdop>3.375</vdop><extensions><gom:speed>0.201</gom:speed></extensions></trkpt>
   <trkpt lat="59.0726610387" lon="30.0289435708"><ele>99.211</ele><time>2026-04-20T19:20:07.320Z</time><hdop>4.75</hdop><vdop>3.125</vdop><extensions><gom:speed>0.206</gom:speed></extensions></trkpt>
   <trkpt lat="59.0726584403" lon="30.0289503601"><ele>99.141</ele><time>2026-04-20T19:20:08.075Z</time><hdop>4.75</hdop><vdop>9.375</vdop><extensions><gom:speed>0.222</gom:speed></extensions></trkpt>
   <trkpt lat="59.0726537464" lon="30.0289599993"><ele>99.161</ele><time>2026-04-20T19:20:09.075Z</time><hdop>4.75</hdop><vdop>9.375</vdop><extensions><gom:speed>0.298</gom:speed></extensions></trkpt>
   <trkpt lat="59.0726500165" lon="30.0289679621"><ele>98.949</ele><time>2026-04-20T19:20:10.075Z</time><hdop>4.625</hdop><vdop>8.75</vdop><extensions><gom:speed>0.275</gom:speed></extensions></trkpt>
   <trkpt lat="59.0726467475" lon="30.0289722369"><ele>98.744</ele><time>2026-04-20T19:20:11.020Z</time><hdop>4.75</hdop><vdop>8.25</vdop><extensions><gom:speed>0.296</gom:speed></extensions></trkpt>
   <trkpt lat="59.0726452388" lon="30.0289727398"><ele>98.622</ele><time>2026-04-20T19:20:11.595Z</time><hdop>4.75</hdop><vdop>8.25</vdop><extensions><gom:speed>0.312</gom:speed></extensions></trkpt>
   <trkpt lat="59.0726413412" lon="30.028977266"><ele>98.244</ele><time>2026-04-20T19:20:12.076Z</time><hdop>4.75</hdop><vdop>7.75</vdop><extensions><gom:speed>0.347</gom:speed></extensions></trkpt>
   <trkpt lat="59.0726392457" lon="30.0289786071"><ele>98.019</ele><time>2026-04-20T19:20:12.917Z</time><hdop>4.875</hdop><vdop>7.75</vdop><extensions><gom:speed>0.336</gom:speed></extensions></trkpt>
   <trkpt lat="59.0726353482" lon="30.028978188"><ele>97.816</ele><time>2026-04-20T19:20:14.073Z</time><hdop>5.0</hdop><vdop>7.125</vdop><extensions><gom:speed>0.316</gom:speed></extensions></trkpt>
   <trkpt lat="59.0726310315" lon="30.0289812055"><ele>97.559</ele><time>2026-04-20T19:20:14.963Z</time><hdop>5.125</hdop><vdop>6.875</vdop><extensions><gom:speed>0.398</gom:speed></extensions></trkpt>
   <trkpt lat="59.0726216437" lon="30.0289936945"><ele>97.413</ele><time>2026-04-20T19:20:15.712Z</time><hdop>5.25</hdop><vdop>6.625</vdop><extensions><gom:speed>0.525</gom:speed></extensions></trkpt>
   <trkpt lat="59.0726154411" lon="30.0290009868"><ele>97.211</ele><time>2026-04-20T19:20:16.493Z</time><hdop>5.375</hdop><vdop>6.5</vdop><extensions><gom:speed>0.58</gom:speed></extensions></trkpt>
   <trkpt lat="59.0726092385" lon="30.0290102069"><ele>97.13</ele><time>2026-04-20T19:20:17.075Z</time><hdop>5.375</hdop><vdop>6.375</vdop><extensions><gom:speed>0.617</gom:speed></extensions></trkpt>
   <trkpt lat="59.0726047542" lon="30.0290162419"><ele>97.082</ele><time>2026-04-20T19:20:17.617Z</time><hdop>5.5</hdop><vdop>6.375</vdop><extensions><gom:speed>0.602</gom:speed></extensions></trkpt>
   <trkpt lat="59.0725995574" lon="30.0290245399"><ele>97.1</ele><time>2026-04-20T19:20:18.418Z</time><hdop>5.625</hdop><vdop>6.375</vdop><extensions><gom:speed>0.66</gom:speed></extensions></trkpt>
   <trkpt lat="59.0725940254" lon="30.0290348497"><ele>97.091</ele><time>2026-04-20T19:20:19.075Z</time><hdop>5.75</hdop><vdop>6.5</vdop><extensions><gom:speed>0.678</gom:speed></extensions></trkpt>
   <trkpt lat="59.0725880323" lon="30.0290459976"><ele>97.086</ele><time>2026-04-20T19:20:19.532Z</time><hdop>5.75</hdop><vdop>6.5</vdop><extensions><gom:speed>0.753</gom:speed></extensions></trkpt>
   <trkpt lat="59.0725857273" lon="30.0290499371"><ele>97.096</ele><time>2026-04-20T19:20:20.024Z</time><hdop>5.875</hdop><vdop>6.625</vdop><extensions><gom:speed>0.756</gom:speed></extensions></trkpt>
   <trkpt lat="59.0725824164" lon="30.0290600792"><ele>97.118</ele><time>2026-04-20T19:20:21.075Z</time><hdop>6.0</hdop><vdop>6.375</vdop><extensions><gom:speed>0.629</gom:speed></extensions></trkpt>
   <trkpt lat="59.0725805305" lon="30.0290701375"><ele>97.138</ele><time>2026-04-20T19:20:22.038Z</time><hdop>6.0</hdop><vdop>6.25</vdop><extensions><gom:speed>0.603</gom:speed></extensions></trkpt>
   <trkpt lat="59.0725789379" lon="30.0290789385"><ele>97.171</ele><time>2026-04-20T19:20:22.985Z</time><hdop>6.125</hdop><vdop>6.25</vdop><extensions><gom:speed>0.579</gom:speed></extensions></trkpt>
   <trkpt lat="59.0725786446" lon="30.0290827942"><ele>97.191</ele><time>2026-04-20T19:20:23.501Z</time><hdop>6.25</hdop><vdop>6.25</vdop><extensions><gom:speed>0.541</gom:speed></extensions></trkpt>
   <trkpt lat="59.0725776388" lon="30.029087488"><ele>97.201</ele><time>2026-04-20T19:20:24.053Z</time><hdop>6.25</hdop><vdop>6.375</vdop><extensions><gom:speed>0.538</gom:speed></extensions></trkpt>
   <trkpt lat="59.0725758366" lon="30.0290949479"><ele>97.204</ele><time>2026-04-20T19:20:24.999Z</time><hdop>6.375</hdop><vdop>6.625</vdop><extensions><gom:speed>0.532</gom:speed></extensions></trkpt>
   <trkpt lat="59.0725716457" lon="30.02910048"><ele>97.206</ele><time>2026-04-20T19:20:25.920Z</time><hdop>6.5</hdop><vdop>6.625</vdop><extensions><gom:speed>0.525</gom:speed></extensions></trkpt>
   <trkpt lat="59.0725666165" lon="30.0291042518"><ele>97.201</ele><time>2026-04-20T19:20:26.917Z</time><hdop>6.625</hdop><vdop>6.5</vdop><extensions><gom:speed>0.593</gom:speed></extensions></trkpt>
   <trkpt lat="59.0725609169" lon="30.0291091972"><ele>97.197</ele><time>2026-04-20T19:20:27.737Z</time><hdop>6.875</hdop><vdop>6.5</vdop><extensions><gom:speed>0.681</gom:speed></extensions></trkpt>
   <trkpt lat="59.0725536246" lon="30.0291133043"><ele>97.194</ele><time>2026-04-20T19:20:28.615Z</time><hdop>7.125</hdop><vdop>6.625</vdop><extensions><gom:speed>0.738</gom:speed></extensions></trkpt>
   <trkpt lat="59.0725510262" lon="30.0291110412"><ele>97.193</ele><time>2026-04-20T19:20:29.075Z</time><hdop>7.125</hdop><vdop>6.125</vdop><extensions><gom:speed>0.727</gom:speed></extensions></trkpt>
   <trkpt lat="59.0725442369" lon="30.0291110412"><ele>97.179</ele><time>2026-04-20T19:20:29.975Z</time><hdop>7.25</hdop><vdop>6.0</vdop><extensions><gom:speed>0.75</gom:speed></extensions></trkpt>
   <trkpt lat="59.0725362321" lon="30.0291130528"><ele>97.175</ele><time>2026-04-20T19:20:31.041Z</time><hdop>7.5</hdop><vdop>6.0</vdop><extensions><gom:speed>0.764</gom:speed></extensions></trkpt>
   <trkpt lat="59.0725259224" lon="30.0291140587"><ele>97.174</ele><time>2026-04-20T19:20:31.989Z</time><hdop>7.5</hdop><vdop>6.125</vdop><extensions><gom:speed>0.742</gom:speed></extensions></trkpt>
   <trkpt lat="59.0725229468" lon="30.0291161541"><ele>97.173</ele><time>2026-04-20T19:20:32.692Z</time><hdop>7.625</hdop><vdop>6.125</vdop><extensions><gom:speed>0.701</gom:speed></extensions></trkpt>
   <trkpt lat="59.0725184206" lon="30.0291210156"><ele>97.171</ele><time>2026-04-20T19:20:33.582Z</time><hdop>7.625</hdop><vdop>6.5</vdop><extensions><gom:speed>0.729</gom:speed></extensions></trkpt>
   <trkpt lat="59.0725125533" lon="30.029127805"><ele>97.174</ele><time>2026-04-20T19:20:34.558Z</time><hdop>7.875</hdop><vdop>6.75</vdop><extensions><gom:speed>0.716</gom:speed></extensions></trkpt>
   <trkpt lat="59.0725065183" lon="30.0291332532"><ele>97.175</ele><time>2026-04-20T19:20:35.437Z</time><hdop>8.25</hdop><vdop>7.0</vdop><extensions><gom:speed>0.703</gom:speed></extensions></trkpt>
   <trkpt lat="59.0725022435" lon="30.0291364383"><ele>97.175</ele><time>2026-04-20T19:20:36.017Z</time><hdop>8.25</hdop><vdop>7.125</vdop><extensions><gom:speed>0.696</gom:speed></extensions></trkpt>
   <trkpt lat="59.072495538" lon="30.0291385338"><ele>97.175</ele><time>2026-04-20T19:20:36.938Z</time><hdop>8.625</hdop><vdop>7.125</vdop><extensions><gom:speed>0.747</gom:speed></extensions></trkpt>
   <trkpt lat="59.0724931492" lon="30.02913845"><ele>97.173</ele><time>2026-04-20T19:20:37.557Z</time><hdop>8.75</hdop><vdop>7.125</vdop><extensions><gom:speed>0.756</gom:speed></extensions></trkpt>
   <trkpt lat="59.0724840548" lon="30.0291369413"><ele>97.173</ele><time>2026-04-20T19:20:38.031Z</time><hdop>9.0</hdop><vdop>7.125</vdop><extensions><gom:speed>0.773</gom:speed></extensions></trkpt>
   <trkpt lat="59.0724814564" lon="30.0291361869"><ele>97.172</ele><time>2026-04-20T19:20:38.794Z</time><hdop>9.125</hdop><vdop>7.125</vdop><extensions><gom:speed>0.674</gom:speed></extensions></trkpt>
   <trkpt lat="59.0724801572" lon="30.0291394558"><ele>97.171</ele><time>2026-04-20T19:20:39.761Z</time><hdop>9.25</hdop><vdop>7.375</vdop><extensions><gom:speed>0.697</gom:speed></extensions></trkpt>
   <trkpt lat="59.0724782294" lon="30.0291409646"><ele>97.17</ele><time>2026-04-20T19:20:40.718Z</time><hdop>9.5</hdop><vdop>7.375</vdop><extensions><gom:speed>0.709</gom:speed></extensions></trkpt>
   <trkpt lat="59.0724752538" lon="30.0291420542"><ele>97.167</ele><time>2026-04-20T19:20:41.795Z</time><hdop>9.75</hdop><vdop>7.125</vdop><extensions><gom:speed>0.656</gom:speed></extensions></trkpt>
   <trkpt lat="59.072471943" lon="30.0291428086"><ele>97.164</ele><time>2026-04-20T19:20:42.980Z</time><hdop>10.125</hdop><vdop>7.125</vdop><extensions><gom:speed>0.54</gom:speed></extensions></trkpt>
   <trkpt lat="59.0724727392" lon="30.0291416351"><ele>97.151</ele><time>2026-04-20T19:20:43.717Z</time><hdop>10.375</hdop><vdop>6.875</vdop><extensions><gom:speed>0.491</gom:speed></extensions></trkpt>
   <trkpt lat="59.0724684226" lon="30.0291449879"><ele>97.141</ele><time>2026-04-20T19:20:44.836Z</time><hdop>10.875</hdop><vdop>6.75</vdop><extensions><gom:speed>0.388</gom:speed></extensions></trkpt>
   <trkpt lat="59.072467752" lon="30.0291466643"><ele>97.13</ele><time>2026-04-20T19:20:45.892Z</time><hdop>11.375</hdop><vdop>6.875</vdop><extensions><gom:speed>0.361</gom:speed></extensions></trkpt>
   <trkpt lat="59.0724662433" lon="30.0291495979"><ele>97.122</ele><time>2026-04-20T19:20:46.702Z</time><hdop>11.625</hdop><vdop>6.75</vdop><extensions><gom:speed>0.443</gom:speed></extensions></trkpt>
   <trkpt lat="59.072461717" lon="30.0291539565"><ele>97.115</ele><time>2026-04-20T19:20:47.759Z</time><hdop>12.0</hdop><vdop>6.625</vdop><extensions><gom:speed>0.471</gom:speed></extensions></trkpt>
   <trkpt lat="59.0724810373" lon="30.0291508552"><ele>95.077</ele><time>2026-04-20T19:20:48.972Z</time><hdop>11.875</hdop><vdop>6.0</vdop><extensions><gom:speed>0.498</gom:speed></extensions></trkpt>
   <trkpt lat="59.0725008186" lon="30.0291552138"><ele>90.857</ele><time>2026-04-20T19:20:49.879Z</time><hdop>11.375</hdop><vdop>6.0</vdop><extensions><gom:speed>0.547</gom:speed></extensions></trkpt>
   <trkpt lat="59.0725227373" lon="30.0291809463"><ele>87.078</ele><time>2026-04-20T19:20:50.917Z</time><hdop>10.375</hdop><vdop>6.125</vdop><extensions><gom:speed>0.553</gom:speed></extensions></trkpt>
   <trkpt lat="59.0725320412" lon="30.0292001408"><ele>84.402</ele><time>2026-04-20T19:20:51.816Z</time><hdop>9.375</hdop><vdop>6.25</vdop><extensions><gom:speed>0.581</gom:speed></extensions></trkpt>
   <trkpt lat="59.0725352263" lon="30.0292267114"><ele>84.384</ele><time>2026-04-20T19:20:52.921Z</time><hdop>8.375</hdop><vdop>7.125</vdop><extensions><gom:speed>0.562</gom:speed></extensions></trkpt>
   <trkpt lat="59.0725332566" lon="30.0292529468"><ele>85.242</ele><time>2026-04-20T19:20:53.781Z</time><hdop>7.875</hdop><vdop>5.875</vdop><extensions><gom:speed>0.623</gom:speed></extensions></trkpt>
   <trkpt lat="59.0725279341" lon="30.0292830378"><ele>85.387</ele><time>2026-04-20T19:20:54.619Z</time><hdop>7.25</hdop><vdop>5.125</vdop><extensions><gom:speed>0.696</gom:speed></extensions></trkpt>
   <trkpt lat="59.0725243298" lon="30.0293008913"><ele>85.654</ele><time>2026-04-20T19:20:55.075Z</time><hdop>6.875</hdop><vdop>5.0</vdop><extensions><gom:speed>0.695</gom:speed></extensions></trkpt>
   <trkpt lat="59.0725175405" lon="30.029326959"><ele>85.212</ele><time>2026-04-20T19:20:56.075Z</time><hdop>6.5</hdop><vdop>4.625</vdop><extensions><gom:speed>0.72</gom:speed></extensions></trkpt>
   <trkpt lat="59.072511757" lon="30.0293471594"><ele>85.082</ele><time>2026-04-20T19:20:57.075Z</time><hdop>6.25</hdop><vdop>4.625</vdop><extensions><gom:speed>0.697</gom:speed></extensions></trkpt>
   <trkpt lat="59.072504339" lon="30.0293614924"><ele>85.066</ele><time>2026-04-20T19:20:58.075Z</time><hdop>6.0</hdop><vdop>4.5</vdop><extensions><gom:speed>0.678</gom:speed></extensions></trkpt>
   <trkpt lat="59.0724996451" lon="30.0293736462"><ele>85.056</ele><time>2026-04-20T19:20:59.053Z</time><hdop>5.875</hdop><vdop>4.5</vdop><extensions><gom:speed>0.7</gom:speed></extensions></trkpt>
   <trkpt lat="59.0724920176" lon="30.0293847103"><ele>84.818</ele><time>2026-04-20T19:20:59.942Z</time><hdop>5.75</hdop><vdop>4.625</vdop><extensions><gom:speed>0.746</gom:speed></extensions></trkpt>
   <trkpt lat="59.0724835519" lon="30.0293972832"><ele>84.169</ele><time>2026-04-20T19:21:00.879Z</time><hdop>5.625</hdop><vdop>4.625</vdop><extensions><gom:speed>0.763</gom:speed></extensions></trkpt>
   <trkpt lat="59.0724739546" lon="30.029409856"><ele>84.009</ele><time>2026-04-20T19:21:01.896Z</time><hdop>5.5</hdop><vdop>4.875</vdop><extensions><gom:speed>0.71</gom:speed></extensions></trkpt>
   <trkpt lat="59.0724618428" lon="30.0294241891"><ele>84.729</ele><time>2026-04-20T19:21:02.813Z</time><hdop>5.25</hdop><vdop>4.875</vdop><extensions><gom:speed>0.754</gom:speed></extensions></trkpt>
   <trkpt lat="59.0724544248" lon="30.0294360076"><ele>85.547</ele><time>2026-04-20T19:21:03.673Z</time><hdop>5.125</hdop><vdop>4.625</vdop><extensions><gom:speed>0.778</gom:speed></extensions></trkpt>
   <trkpt lat="59.0724467553" lon="30.0294506759"><ele>86.479</ele><time>2026-04-20T19:21:04.492Z</time><hdop>5.0</hdop><vdop>4.625</vdop><extensions><gom:speed>0.749</gom:speed></extensions></trkpt>
   <trkpt lat="59.0724414328" lon="30.0294612371"><ele>86.872</ele><time>2026-04-20T19:21:05.075Z</time><hdop>4.875</hdop><vdop>4.875</vdop><extensions><gom:speed>0.722</gom:speed></extensions></trkpt>
   <trkpt lat="59.0724375352" lon="30.0294721336"><ele>87.107</ele><time>2026-04-20T19:21:05.992Z</time><hdop>4.75</hdop><vdop>4.875</vdop><extensions><gom:speed>0.591</gom:speed></extensions></trkpt>
   <trkpt lat="59.072431626" lon="30.0294832815"><ele>87.229</ele><time>2026-04-20T19:21:06.793Z</time><hdop>4.625</hdop><vdop>5.125</vdop><extensions><gom:speed>0.505</gom:speed></extensions></trkpt>
   <trkpt lat="59.0724254234" lon="30.0294951"><ele>87.039</ele><time>2026-04-20T19:21:07.662Z</time><hdop>4.625</hdop><vdop>5.25</vdop><extensions><gom:speed>0.559</gom:speed></extensions></trkpt>
   <trkpt lat="59.072418634" lon="30.0295060803"><ele>86.729</ele><time>2026-04-20T19:21:08.480Z</time><hdop>4.5</hdop><vdop>5.375</vdop><extensions><gom:speed>0.646</gom:speed></extensions></trkpt>
   <trkpt lat="59.072412641" lon="30.0295144622"><ele>85.985</ele><time>2026-04-20T19:21:09.075Z</time><hdop>4.375</hdop><vdop>5.25</vdop><extensions><gom:speed>0.692</gom:speed></extensions></trkpt>
   <trkpt lat="59.0724030437" lon="30.0295277894"><ele>85.685</ele><time>2026-04-20T19:21:10.075Z</time><hdop>4.375</hdop><vdop>5.0</vdop><extensions><gom:speed>0.675</gom:speed></extensions></trkpt>
   <trkpt lat="59.0723972183" lon="30.0295403623"><ele>85.506</ele><time>2026-04-20T19:21:11.001Z</time><hdop>4.25</hdop><vdop>5.0</vdop><extensions><gom:speed>0.725</gom:speed></extensions></trkpt>
   <trkpt lat="59.0723907223" lon="30.0295567908"><ele>85.202</ele><time>2026-04-20T19:21:11.977Z</time><hdop>4.25</hdop><vdop>4.875</vdop><extensions><gom:speed>0.752</gom:speed></extensions></trkpt>
   <trkpt lat="59.0723855255" lon="30.0295722973"><ele>84.804</ele><time>2026-04-20T19:21:12.874Z</time><hdop>4.25</hdop><vdop>5.0</vdop><extensions><gom:speed>0.755</gom:speed></extensions></trkpt>
   <trkpt lat="59.0723805383" lon="30.0295878877"><ele>85.035</ele><time>2026-04-20T19:21:13.773Z</time><hdop>4.25</hdop><vdop>4.875</vdop><extensions><gom:speed>0.751</gom:speed></extensions></trkpt>
   <trkpt lat="59.0723749224" lon="30.0296031427"><ele>85.085</ele><time>2026-04-20T19:21:14.601Z</time><hdop>4.25</hdop><vdop>4.75</vdop><extensions><gom:speed>0.758</gom:speed></extensions></trkpt>
   <trkpt lat="59.072369558" lon="30.0296166376"><ele>85.332</ele><time>2026-04-20T19:21:15.076Z</time><hdop>4.125</hdop><vdop>4.875</vdop><extensions><gom:speed>0.752</gom:speed></extensions></trkpt>
   <trkpt lat="59.0723622238" lon="30.0296266959"><ele>85.189</ele><time>2026-04-20T19:21:16.075Z</time><hdop>4.125</hdop><vdop>5.0</vdop><extensions><gom:speed>0.723</gom:speed></extensions></trkpt>
   <trkpt lat="59.0723526266" lon="30.0296366703"><ele>85.041</ele><time>2026-04-20T19:21:17.075Z</time><hdop>4.125</hdop><vdop>5.25</vdop><extensions><gom:speed>0.765</gom:speed></extensions></trkpt>
   <trkpt lat="59.0723444542" lon="30.0296430406"><ele>84.952</ele><time>2026-04-20T19:21:18.017Z</time><hdop>4.125</hdop><vdop>5.25</vdop><extensions><gom:speed>0.791</gom:speed></extensions></trkpt>
   <trkpt lat="59.0723358208" lon="30.0296479859"><ele>84.835</ele><time>2026-04-20T19:21:18.877Z</time><hdop>4.125</hdop><vdop>5.375</vdop><extensions><gom:speed>0.762</gom:speed></extensions></trkpt>
   <trkpt lat="59.072327858" lon="30.0296551105"><ele>84.715</ele><time>2026-04-20T19:21:19.636Z</time><hdop>4.125</hdop><vdop>5.125</vdop><extensions><gom:speed>0.784</gom:speed></extensions></trkpt>
   <trkpt lat="59.0723191409" lon="30.0296682701"><ele>84.642</ele><time>2026-04-20T19:21:20.615Z</time><hdop>4.125</hdop><vdop>5.0</vdop><extensions><gom:speed>0.78</gom:speed></extensions></trkpt>
   <trkpt lat="59.0723130221" lon="30.0296786637"><ele>85.095</ele><time>2026-04-20T19:21:21.075Z</time><hdop>4.125</hdop><vdop>5.0</vdop><extensions><gom:speed>0.766</gom:speed></extensions></trkpt>
   <trkpt lat="59.0723101303" lon="30.0296827708"><ele>85.366</ele><time>2026-04-20T19:21:21.701Z</time><hdop>4.125</hdop><vdop>5.0</vdop><extensions><gom:speed>0.733</gom:speed></extensions></trkpt>
   <trkpt lat="59.0723049335" lon="30.0296870456"><ele>85.147</ele><time>2026-04-20T19:21:22.501Z</time><hdop>4.25</hdop><vdop>5.0</vdop><extensions><gom:speed>0.627</gom:speed></extensions></trkpt>
   <trkpt lat="59.0723010359" lon="30.0296898116"><ele>84.961</ele><time>2026-04-20T19:21:23.075Z</time><hdop>4.25</hdop><vdop>4.875</vdop><extensions><gom:speed>0.62</gom:speed></extensions></trkpt>
   <trkpt lat="59.0722975575" lon="30.0296935834"><ele>84.849</ele><time>2026-04-20T19:21:23.773Z</time><hdop>4.25</hdop><vdop>4.875</vdop><extensions><gom:speed>0.555</gom:speed></extensions></trkpt>
   <trkpt lat="59.072293157" lon="30.0296997022"><ele>84.296</ele><time>2026-04-20T19:21:24.841Z</time><hdop>4.375</hdop><vdop>4.75</vdop><extensions><gom:speed>0.542</gom:speed></extensions></trkpt>
   <trkpt lat="59.0722884212" lon="30.0297083356"><ele>83.794</ele><time>2026-04-20T19:21:25.777Z</time><hdop>4.5</hdop><vdop>4.625</vdop><extensions><gom:speed>0.593</gom:speed></extensions></trkpt>
   <trkpt lat="59.0722844398" lon="30.0297176395"><ele>83.526</ele><time>2026-04-20T19:21:26.499Z</time><hdop>4.5</hdop><vdop>4.375</vdop><extensions><gom:speed>0.594</gom:speed></extensions></trkpt>
   <trkpt lat="59.0722834339" lon="30.0297193997"><ele>83.366</ele><time>2026-04-20T19:21:26.959Z</time><hdop>4.5</hdop><vdop>4.375</vdop><extensions><gom:speed>0.581</gom:speed></extensions></trkpt>
   <trkpt lat="59.0722773571" lon="30.0297287874"><ele>82.997</ele><time>2026-04-20T19:21:27.495Z</time><hdop>4.625</hdop><vdop>4.375</vdop><extensions><gom:speed>0.619</gom:speed></extensions></trkpt>
   <trkpt lat="59.0722732499" lon="30.0297339004"><ele>82.501</ele><time>2026-04-20T19:21:28.075Z</time><hdop>4.625</hdop><vdop>4.5</vdop><extensions><gom:speed>0.634</gom:speed></extensions></trkpt>
   <trkpt lat="59.0722700229" lon="30.0297386781"><ele>82.205</ele><time>2026-04-20T19:21:28.541Z</time><hdop>4.625</hdop><vdop>4.5</vdop><extensions><gom:speed>0.663</gom:speed></extensions></trkpt>
   <trkpt lat="59.0722661253" lon="30.0297463894"><ele>81.754</ele><time>2026-04-20T19:21:29.075Z</time><hdop>4.75</hdop><vdop>4.75</vdop><extensions><gom:speed>0.704</gom:speed></extensions></trkpt>
   <trkpt lat="59.0722594198" lon="30.0297614769"><ele>81.665</ele><time>2026-04-20T19:21:30.076Z</time><hdop>4.75</hdop><vdop>4.875</vdop><extensions><gom:speed>0.714</gom:speed></extensions></trkpt>
   <trkpt lat="59.0722543487" lon="30.0297754746"><ele>82.002</ele><time>2026-04-20T19:21:31.075Z</time><hdop>4.625</hdop><vdop>4.625</vdop><extensions><gom:speed>0.683</gom:speed></extensions></trkpt>
   <trkpt lat="59.0722479366" lon="30.0297908973"><ele>81.934</ele><time>2026-04-20T19:21:32.076Z</time><hdop>4.75</hdop><vdop>4.625</vdop><extensions><gom:speed>0.75</gom:speed></extensions></trkpt>
   <trkpt lat="59.0722413568" lon="30.0298043922"><ele>81.958</ele><time>2026-04-20T19:21:33.076Z</time><hdop>4.75</hdop><vdop>4.625</vdop><extensions><gom:speed>0.739</gom:speed></extensions></trkpt>
   <trkpt lat="59.0722333521" lon="30.0298149534"><ele>81.852</ele><time>2026-04-20T19:21:34.075Z</time><hdop>4.75</hdop><vdop>4.25</vdop><extensions><gom:speed>0.687</gom:speed></extensions></trkpt>
   <trkpt lat="59.0722282391" lon="30.0298209884"><ele>81.788</ele><time>2026-04-20T19:21:35.019Z</time><hdop>4.75</hdop><vdop>4.25</vdop><extensions><gom:speed>0.691</gom:speed></extensions></trkpt>
   <trkpt lat="59.0722223299" lon="30.0298328907"><ele>82.056</ele><time>2026-04-20T19:21:36.076Z</time><hdop>4.75</hdop><vdop>4.125</vdop><extensions><gom:speed>0.682</gom:speed></extensions></trkpt>
   <trkpt lat="59.0722174265" lon="30.029840602"><ele>82.073</ele><time>2026-04-20T19:21:37.076Z</time><hdop>4.875</hdop><vdop>4.125</vdop><extensions><gom:speed>0.602</gom:speed></extensions></trkpt>
   <trkpt lat="59.0722118525" lon="30.0298443739"><ele>82.083</ele><time>2026-04-20T19:21:38.039Z</time><hdop>4.875</hdop><vdop>4.125</vdop><extensions><gom:speed>0.656</gom:speed></extensions></trkpt>
   <trkpt lat="59.0722056499" lon="30.0298500736"><ele>81.795</ele><time>2026-04-20T19:21:38.960Z</time><hdop>4.875</hdop><vdop>4.0</vdop><extensions><gom:speed>0.693</gom:speed></extensions></trkpt>
   <trkpt lat="59.0721988186" lon="30.0298615568"><ele>81.332</ele><time>2026-04-20T19:21:39.876Z</time><hdop>5.0</hdop><vdop>4.25</vdop><extensions><gom:speed>0.692</gom:speed></extensions></trkpt>
   <trkpt lat="59.0721946277" lon="30.0298644066"><ele>80.959</ele><time>2026-04-20T19:21:40.814Z</time><hdop>5.0</hdop><vdop>4.5</vdop><extensions><gom:speed>0.658</gom:speed></extensions></trkpt>
   <trkpt lat="59.0721915264" lon="30.0298753869"><ele>80.585</ele><time>2026-04-20T19:21:42.075Z</time><hdop>5.0</hdop><vdop>4.25</vdop><extensions><gom:speed>0.618</gom:speed></extensions></trkpt>
   <trkpt lat="59.0721874192" lon="30.0298838527"><ele>80.174</ele><time>2026-04-20T19:21:43.075Z</time><hdop>5.0</hdop><vdop>4.375</vdop><extensions><gom:speed>0.592</gom:speed></extensions></trkpt>
   <trkpt lat="59.0721830187" lon="30.0298944138"><ele>79.793</ele><time>2026-04-20T19:21:44.075Z</time><hdop>5.0</hdop><vdop>4.375</vdop><extensions><gom:speed>0.613</gom:speed></extensions></trkpt>
   <trkpt lat="59.0721802527" lon="30.0299069867"><ele>79.457</ele><time>2026-04-20T19:21:45.076Z</time><hdop>5.0</hdop><vdop>8.375</vdop><extensions><gom:speed>0.574</gom:speed></extensions></trkpt>
   <trkpt lat="59.0721802527" lon="30.0299113453"><ele>79.256</ele><time>2026-04-20T19:21:45.559Z</time><hdop>4.875</hdop><vdop>8.375</vdop><extensions><gom:speed>0.53</gom:speed></extensions></trkpt>
   <trkpt lat="59.0721809233" lon="30.0299236667"><ele>78.973</ele><time>2026-04-20T19:21:46.075Z</time><hdop>4.875</hdop><vdop>8.375</vdop><extensions><gom:speed>0.506</gom:speed></extensions></trkpt>
   <trkpt lat="59.0721818453" lon="30.0299354014"><ele>78.673</ele><time>2026-04-20T19:21:47.075Z</time><hdop>4.875</hdop><vdop>8.25</vdop><extensions><gom:speed>0.545</gom:speed></extensions></trkpt>
   <trkpt lat="59.072182432" lon="30.0299488124"><ele>78.495</ele><time>2026-04-20T19:21:47.981Z</time><hdop>4.875</hdop><vdop>8.25</vdop><extensions><gom:speed>0.632</gom:speed></extensions></trkpt>
   <trkpt lat="59.0721831445" lon="30.0299628102"><ele>78.232</ele><time>2026-04-20T19:21:48.840Z</time><hdop>4.75</hdop><vdop>8.0</vdop><extensions><gom:speed>0.653</gom:speed></extensions></trkpt>
   <trkpt lat="59.0721793307" lon="30.0299721141"><ele>78.289</ele><time>2026-04-20T19:21:49.742Z</time><hdop>4.875</hdop><vdop>7.75</vdop><extensions><gom:speed>0.676</gom:speed></extensions></trkpt>
   <trkpt lat="59.0721734215" lon="30.0299771432"><ele>78.29</ele><time>2026-04-20T19:21:50.577Z</time><hdop>4.875</hdop><vdop>7.375</vdop><extensions><gom:speed>0.719</gom:speed></extensions></trkpt>
   <trkpt lat="59.0721717451" lon="30.0299817533"><ele>78.226</ele><time>2026-04-20T19:21:51.075Z</time><hdop>4.875</hdop><vdop>7.125</vdop><extensions><gom:speed>0.691</gom:speed></extensions></trkpt>
   <trkpt lat="59.0721700268" lon="30.0299866986"><ele>78.188</ele><time>2026-04-20T19:21:51.555Z</time><hdop>5.0</hdop><vdop>7.125</vdop><extensions><gom:speed>0.689</gom:speed></extensions></trkpt>
   <trkpt lat="59.0721665483" lon="30.0299963378"><ele>78.081</ele><time>2026-04-20T19:21:52.453Z</time><hdop>5.125</hdop><vdop>6.75</vdop><extensions><gom:speed>0.631</gom:speed></extensions></trkpt>
   <trkpt lat="59.0721669255" lon="30.0300024566"><ele>77.69</ele><time>2026-04-20T19:21:53.075Z</time><hdop>5.125</hdop><vdop>6.5</vdop><extensions><gom:speed>0.609</gom:speed></extensions></trkpt>
   <trkpt lat="59.0721689372" lon="30.0300157838"><ele>77.357</ele><time>2026-04-20T19:21:54.075Z</time><hdop>5.125</hdop><vdop>6.25</vdop><extensions><gom:speed>0.638</gom:speed></extensions></trkpt>
   <trkpt lat="59.0721717451" lon="30.0300273508"><ele>77.159</ele><time>2026-04-20T19:21:54.961Z</time><hdop>5.125</hdop><vdop>6.25</vdop><extensions><gom:speed>0.693</gom:speed></extensions></trkpt>
   <trkpt lat="59.0721775286" lon="30.0300387502"><ele>77.036</ele><time>2026-04-20T19:21:55.824Z</time><hdop>5.125</hdop><vdop>6.375</vdop><extensions><gom:speed>0.717</gom:speed></extensions></trkpt>
   <trkpt lat="59.072181049" lon="30.0300540053"><ele>76.882</ele><time>2026-04-20T19:21:56.718Z</time><hdop>5.0</hdop><vdop>6.375</vdop><extensions><gom:speed>0.712</gom:speed></extensions></trkpt>
   <trkpt lat="59.0721800432" lon="30.0300687574"><ele>76.581</ele><time>2026-04-20T19:21:57.678Z</time><hdop>5.0</hdop><vdop>6.375</vdop><extensions><gom:speed>0.69</gom:speed></extensions></trkpt>
   <trkpt lat="59.0721772352" lon="30.0300809112"><ele>75.621</ele><time>2026-04-20T19:21:58.593Z</time><hdop>4.875</hdop><vdop>6.0</vdop><extensions><gom:speed>0.671</gom:speed></extensions></trkpt>
   <trkpt lat="59.0721771514" lon="30.0300875329"><ele>74.863</ele><time>2026-04-20T19:21:59.075Z</time><hdop>4.875</hdop><vdop>5.875</vdop><extensions><gom:speed>0.675</gom:speed></extensions></trkpt>
   <trkpt lat="59.0721762294" lon="30.0300944061"><ele>74.41</ele><time>2026-04-20T19:21:59.620Z</time><hdop>4.875</hdop><vdop>5.875</vdop><extensions><gom:speed>0.639</gom:speed></extensions></trkpt>
   <trkpt lat="59.0721773191" lon="30.0301017821"><ele>74.336</ele><time>2026-04-20T19:22:00.076Z</time><hdop>4.875</hdop><vdop>5.625</vdop><extensions><gom:speed>0.642</gom:speed></extensions></trkpt>
   <trkpt lat="59.0721769419" lon="30.0301177916"><ele>74.499</ele><time>2026-04-20T19:22:01.076Z</time><hdop>4.875</hdop><vdop>5.25</vdop><extensions><gom:speed>0.688</gom:speed></extensions></trkpt>
   <trkpt lat="59.0721756427" lon="30.0301306159"><ele>74.331</ele><time>2026-04-20T19:22:02.076Z</time><hdop>4.875</hdop><vdop>5.0</vdop><extensions><gom:speed>0.663</gom:speed></extensions></trkpt>
   <trkpt lat="59.0721728347" lon="30.0301433564"><ele>74.23</ele><time>2026-04-20T19:22:02.957Z</time><hdop>4.875</hdop><vdop>5.0</vdop><extensions><gom:speed>0.724</gom:speed></extensions></trkpt>
   <trkpt lat="59.0721711164" lon="30.0301578571"><ele>74.155</ele><time>2026-04-20T19:22:03.935Z</time><hdop>4.875</hdop><vdop>4.625</vdop><extensions><gom:speed>0.749</gom:speed></extensions></trkpt>
   <trkpt lat="59.0721686438" lon="30.0301688374"><ele>74.418</ele><time>2026-04-20T19:22:04.734Z</time><hdop>5.0</hdop><vdop>4.5</vdop><extensions><gom:speed>0.769</gom:speed></extensions></trkpt>
   <trkpt lat="59.0721659197" lon="30.0301773869"><ele>74.486</ele><time>2026-04-20T19:22:05.554Z</time><hdop>5.0</hdop><vdop>4.625</vdop><extensions><gom:speed>0.723</gom:speed></extensions></trkpt>
   <trkpt lat="59.0721641176" lon="30.0301826675"><ele>74.556</ele><time>2026-04-20T19:22:06.055Z</time><hdop>5.0</hdop><vdop>4.75</vdop><extensions><gom:speed>0.717</gom:speed></extensions></trkpt>
   <trkpt lat="59.07216022" lon="30.0301923067"><ele>74.526</ele><time>2026-04-20T19:22:07.076Z</time><hdop>5.125</hdop><vdop>4.75</vdop><extensions><gom:speed>0.738</gom:speed></extensions></trkpt>
   <trkpt lat="59.072156951" lon="30.0302016106"><ele>74.603</ele><time>2026-04-20T19:22:08.075Z</time><hdop>5.125</hdop><vdop>4.75</vdop><extensions><gom:speed>0.712</gom:speed></extensions></trkpt>
   <trkpt lat="59.0721544365" lon="30.0302117527"><ele>73.837</ele><time>2026-04-20T19:22:09.075Z</time><hdop>5.125</hdop><vdop>4.5</vdop><extensions><gom:speed>0.691</gom:speed></extensions></trkpt>
   <trkpt lat="59.0721524248" lon="30.0302192964"><ele>73.322</ele><time>2026-04-20T19:22:10.075Z</time><hdop>5.125</hdop><vdop>4.25</vdop><extensions><gom:speed>0.596</gom:speed></extensions></trkpt>
   <trkpt lat="59.072149533" lon="30.0302246608"><ele>73.251</ele><time>2026-04-20T19:22:11.076Z</time><hdop>5.125</hdop><vdop>4.0</vdop><extensions><gom:speed>0.529</gom:speed></extensions></trkpt>
   <trkpt lat="59.0721463479" lon="30.030225499"><ele>73.13</ele><time>2026-04-20T19:22:12.075Z</time><hdop>5.0</hdop><vdop>4.0</vdop><extensions><gom:speed>0.415</gom:speed></extensions></trkpt>
   <trkpt lat="59.0721445458" lon="30.0302254152"><ele>73.002</ele><time>2026-04-20T19:22:13.045Z</time><hdop>5.0</hdop><vdop>3.75</vdop><extensions><gom:speed>0.318</gom:speed></extensions></trkpt>
   <trkpt lat="59.0721450487" lon="30.0302260858"><ele>72.719</ele><time>2026-04-20T19:22:13.992Z</time><hdop>5.0</hdop><vdop>3.625</vdop><extensions><gom:speed>0.162</gom:speed></extensions></trkpt>
   <trkpt lat="59.0721451325" lon="30.0302255828"><ele>72.693</ele><time>2026-04-20T19:22:15.075Z</time><hdop>4.875</hdop><vdop>3.75</vdop><extensions><gom:speed>0.115</gom:speed></extensions></trkpt>
   <trkpt lat="59.0721452164" lon="30.0302256667"><ele>72.379</ele><time>2026-04-20T19:22:16.007Z</time><hdop>4.875</hdop><vdop>3.875</vdop><extensions><gom:speed>0.107</gom:speed></extensions></trkpt>
   <trkpt lat="59.0721445458" lon="30.0302270078"><ele>71.84</ele><time>2026-04-20T19:22:17.076Z</time><hdop>5.0</hdop><vdop>9.0</vdop><extensions><gom:speed>0.127</gom:speed></extensions></trkpt>
   <trkpt lat="59.0721451325" lon="30.0302275945"><ele>71.517</ele><time>2026-04-20T19:22:18.012Z</time><hdop>5.0</hdop><vdop>9.0</vdop><extensions><gom:speed>0.104</gom:speed></extensions></trkpt>
   <trkpt lat="59.0721451325" lon="30.0302298576"><ele>71.136</ele><time>2026-04-20T19:22:19.075Z</time><hdop>5.0</hdop><vdop>8.25</vdop><extensions><gom:speed>0.126</gom:speed></extensions></trkpt>
   <trkpt lat="59.0721455516" lon="30.0302322045"><ele>70.811</ele><time>2026-04-20T19:22:20.034Z</time><hdop>5.0</hdop><vdop>8.0</vdop><extensions><gom:speed>0.118</gom:speed></extensions></trkpt>
   <trkpt lat="59.0721446296" lon="30.0302348868"><ele>70.759</ele><time>2026-04-20T19:22:21.075Z</time><hdop>5.125</hdop><vdop>7.75</vdop><extensions><gom:speed>0.141</gom:speed></extensions></trkpt>
   <trkpt lat="59.0721451325" lon="30.0302355573"><ele>70.615</ele><time>2026-04-20T19:22:22.048Z</time><hdop>5.125</hdop><vdop>7.625</vdop><extensions><gom:speed>0.09</gom:speed></extensions></trkpt>
   <trkpt lat="59.0721452164" lon="30.0302337971"><ele>70.529</ele><time>2026-04-20T19:22:22.522Z</time><hdop>5.0</hdop><vdop>7.625</vdop><extensions><gom:speed>0.039</gom:speed></extensions></trkpt>
   <trkpt lat="59.0721454259" lon="30.0302325398"><ele>70.569</ele><time>2026-04-20T19:22:22.995Z</time><hdop>5.125</hdop><vdop>7.375</vdop><extensions><gom:speed>0.068</gom:speed></extensions></trkpt>
   <trkpt lat="59.072144923" lon="30.0302339647"><ele>70.378</ele><time>2026-04-20T19:22:23.943Z</time><hdop>5.0</hdop><vdop>7.375</vdop><extensions><gom:speed>0.07</gom:speed></extensions></trkpt>
   <trkpt lat="59.0721445458" lon="30.0302368984"><ele>70.057</ele><time>2026-04-20T19:22:25.075Z</time><hdop>5.0</hdop><vdop>7.5</vdop><extensions><gom:speed>0.073</gom:speed></extensions></trkpt>
   <trkpt lat="59.0721438334" lon="30.0302379042"><ele>70.037</ele><time>2026-04-20T19:22:25.957Z</time><hdop>5.0</hdop><vdop>7.375</vdop><extensions><gom:speed>0.075</gom:speed></extensions></trkpt>
   <trkpt lat="59.07214354" lon="30.0302389101"><ele>70.072</ele><time>2026-04-20T19:22:27.023Z</time><hdop>5.125</hdop><vdop>7.125</vdop><extensions><gom:speed>0.081</gom:speed></extensions></trkpt>
   <trkpt lat="59.0721422408" lon="30.0302415923"><ele>70.235</ele><time>2026-04-20T19:22:28.075Z</time><hdop>5.125</hdop><vdop>7.0</vdop><extensions><gom:speed>0.108</gom:speed></extensions></trkpt>
   <trkpt lat="59.0721418217" lon="30.0302418437"><ele>70.332</ele><time>2026-04-20T19:22:28.682Z</time><hdop>5.125</hdop><vdop>7.0</vdop><extensions><gom:speed>0.068</gom:speed></extensions></trkpt>
   <trkpt lat="59.0721414445" lon="30.0302437716"><ele>70.448</ele><time>2026-04-20T19:22:29.861Z</time><hdop>5.125</hdop><vdop>7.0</vdop><extensions><gom:speed>0.109</gom:speed></extensions></trkpt>
   <trkpt lat="59.0721415283" lon="30.0302446098"><ele>70.591</ele><time>2026-04-20T19:22:30.679Z</time><hdop>5.125</hdop><vdop>7.25</vdop><extensions><gom:speed>0.109</gom:speed></extensions></trkpt>
   <trkpt lat="59.0721397262" lon="30.0302478787"><ele>70.77</ele><time>2026-04-20T19:22:31.617Z</time><hdop>5.125</hdop><vdop>7.125</vdop><extensions><gom:speed>0.169</gom:speed></extensions></trkpt>
   <trkpt lat="59.0721383432" lon="30.0302524888"><ele>71.006</ele><time>2026-04-20T19:22:32.495Z</time><hdop>5.125</hdop><vdop>7.0</vdop><extensions><gom:speed>0.288</gom:speed></extensions></trkpt>
   <trkpt lat="59.0721379241" lon="30.0302560092"><ele>71.225</ele><time>2026-04-20T19:22:32.947Z</time><hdop>5.25</hdop><vdop>6.625</vdop><extensions><gom:speed>0.326</gom:speed></extensions></trkpt>
   <trkpt lat="59.0721367506" lon="30.0302615412"><ele>71.355</ele><time>2026-04-20T19:22:33.493Z</time><hdop>5.25</hdop><vdop>6.625</vdop><extensions><gom:speed>0.442</gom:speed></extensions></trkpt>
   <trkpt lat="59.0721357448" lon="30.03026766"><ele>71.431</ele><time>2026-04-20T19:22:34.075Z</time><hdop>5.25</hdop><vdop>6.375</vdop><extensions><gom:speed>0.456</gom:speed></extensions></trkpt>
   <trkpt lat="59.0721350324" lon="30.0302703422"><ele>71.477</ele><time>2026-04-20T19:22:34.961Z</time><hdop>5.375</hdop><vdop>6.375</vdop><extensions><gom:speed>0.426</gom:speed></extensions></trkpt>
   <trkpt lat="59.0721352419" lon="30.0302721862"><ele>72.929</ele><time>2026-04-20T19:22:36.075Z</time><hdop>5.375</hdop><vdop>5.5</vdop><extensions><gom:speed>0.291</gom:speed></extensions></trkpt>
   <trkpt lat="59.0721362477" lon="30.0302706775"><ele>74.792</ele><time>2026-04-20T19:22:36.975Z</time><hdop>5.375</hdop><vdop>5.75</vdop><extensions><gom:speed>0.236</gom:speed></extensions></trkpt>
   <trkpt lat="59.0721366249" lon="30.0302677438"><ele>75.353</ele><time>2026-04-20T19:22:38.041Z</time><hdop>5.5</hdop><vdop>5.625</vdop><extensions><gom:speed>0.17</gom:speed></extensions></trkpt>
   <trkpt lat="59.0721373374" lon="30.0302653131"><ele>76.163</ele><time>2026-04-20T19:22:39.075Z</time><hdop>5.5</hdop><vdop>5.375</vdop><extensions><gom:speed>0.117</gom:speed></extensions></trkpt>
   <trkpt lat="59.0721375469" lon="30.0302633014"><ele>76.426</ele><time>2026-04-20T19:22:40.075Z</time><hdop>5.5</hdop><vdop>5.25</vdop><extensions><gom:speed>0.108</gom:speed></extensions></trkpt>
   <trkpt lat="59.0721389299" lon="30.0302653131"><ele>75.798</ele><time>2026-04-20T19:22:41.076Z</time><hdop>5.375</hdop><vdop>5.375</vdop><extensions><gom:speed>0.143</gom:speed></extensions></trkpt>
   <trkpt lat="59.0721405225" lon="30.030271348"><ele>75.4</ele><time>2026-04-20T19:22:42.075Z</time><hdop>5.375</hdop><vdop>5.375</vdop><extensions><gom:speed>0.198</gom:speed></extensions></trkpt>
   <trkpt lat="59.0721431209" lon="30.030281071"><ele>75.162</ele><time>2026-04-20T19:22:42.980Z</time><hdop>5.25</hdop><vdop>5.375</vdop><extensions><gom:speed>0.379</gom:speed></extensions></trkpt>
   <trkpt lat="59.0721491559" lon="30.030298673"><ele>74.621</ele><time>2026-04-20T19:22:44.056Z</time><hdop>5.25</hdop><vdop>7.75</vdop><extensions><gom:speed>0.544</gom:speed></extensions></trkpt>
   <trkpt lat="59.0721542269" lon="30.0303151854"><ele>73.854</ele><time>2026-04-20T19:22:44.995Z</time><hdop>5.375</hdop><vdop>7.875</vdop><extensions><gom:speed>0.65</gom:speed></extensions></trkpt>
   <trkpt lat="59.0721590465" lon="30.0303317816"><ele>73.319</ele><time>2026-04-20T19:22:46.060Z</time><hdop>5.5</hdop><vdop>7.625</vdop><extensions><gom:speed>0.681</gom:speed></extensions></trkpt>
   <trkpt lat="59.0721635308" lon="30.0303422589"><ele>72.771</ele><time>2026-04-20T19:22:47.076Z</time><hdop>5.625</hdop><vdop>7.375</vdop><extensions><gom:speed>0.64</gom:speed></extensions></trkpt>
   <trkpt lat="59.0721672189" lon="30.0303516467"><ele>72.275</ele><time>2026-04-20T19:22:48.075Z</time><hdop>5.625</hdop><vdop>7.25</vdop><extensions><gom:speed>0.546</gom:speed></extensions></trkpt>
   <trkpt lat="59.0721688533" lon="30.030359358"><ele>71.978</ele><time>2026-04-20T19:22:48.913Z</time><hdop>5.625</hdop><vdop>7.25</vdop><extensions><gom:speed>0.642</gom:speed></extensions></trkpt>
   <trkpt lat="59.0721729186" lon="30.0303733558"><ele>71.817</ele><time>2026-04-20T19:22:49.980Z</time><hdop>5.625</hdop><vdop>6.75</vdop><extensions><gom:speed>0.693</gom:speed></extensions></trkpt>
   <trkpt lat="59.0721762294" lon="30.0303879403"><ele>71.146</ele><time>2026-04-20T19:22:50.859Z</time><hdop>5.625</hdop><vdop>6.375</vdop><extensions><gom:speed>0.685</gom:speed></extensions></trkpt>
   <trkpt lat="59.0721785344" lon="30.0304042012"><ele>70.641</ele><time>2026-04-20T19:22:51.737Z</time><hdop>5.5</hdop><vdop>6.0</vdop><extensions><gom:speed>0.671</gom:speed></extensions></trkpt>
   <trkpt lat="59.0721791212" lon="30.0304142595"><ele>69.76</ele><time>2026-04-20T19:22:52.457Z</time><hdop>5.625</hdop><vdop>5.375</vdop><extensions><gom:speed>0.572</gom:speed></extensions></trkpt>
   <trkpt lat="59.0721790373" lon="30.030420043"><ele>69.301</ele><time>2026-04-20T19:22:53.075Z</time><hdop>5.625</hdop><vdop>6.5</vdop><extensions><gom:speed>0.553</gom:speed></extensions></trkpt>
   <trkpt lat="59.0721773191" lon="30.0304229767"><ele>69.026</ele><time>2026-04-20T19:22:54.034Z</time><hdop>5.625</hdop><vdop>6.625</vdop><extensions><gom:speed>0.396</gom:speed></extensions></trkpt>
   <trkpt lat="59.0721797498" lon="30.0304275867"><ele>68.806</ele><time>2026-04-20T19:22:55.075Z</time><hdop>5.625</hdop><vdop>6.75</vdop><extensions><gom:speed>0.242</gom:speed></extensions></trkpt>
   <trkpt lat="59.0721803365" lon="30.0304277543"><ele>68.418</ele><time>2026-04-20T19:22:56.048Z</time><hdop>5.625</hdop><vdop>7.0</vdop><extensions><gom:speed>0.116</gom:speed></extensions></trkpt>
   <trkpt lat="59.0721828511" lon="30.0304352981"><ele>67.904</ele><time>2026-04-20T19:22:57.075Z</time><hdop>5.625</hdop><vdop>7.0</vdop><extensions><gom:speed>0.085</gom:speed></extensions></trkpt>
   <trkpt lat="59.0721844437" lon="30.0304383155"><ele>67.288</ele><time>2026-04-20T19:22:57.944Z</time><hdop>5.75</hdop><vdop>7.125</vdop><extensions><gom:speed>0.077</gom:speed></extensions></trkpt>
   <trkpt lat="59.0721873354" lon="30.0304458593"><ele>66.722</ele><time>2026-04-20T19:22:59.076Z</time><hdop>5.75</hdop><vdop>6.75</vdop><extensions><gom:speed>0.077</gom:speed></extensions></trkpt>
   <trkpt lat="59.0721883413" lon="30.0304482062"><ele>66.383</ele><time>2026-04-20T19:22:59.602Z</time><hdop>5.75</hdop><vdop>6.75</vdop><extensions><gom:speed>0.048</gom:speed></extensions></trkpt>
   <trkpt lat="59.0721886346" lon="30.0304508046"><ele>66.058</ele><time>2026-04-20T19:23:00.643Z</time><hdop>5.75</hdop><vdop>6.625</vdop><extensions><gom:speed>0.07</gom:speed></extensions></trkpt>
   <trkpt lat="59.072193538" lon="30.0304643833"><ele>65.67</ele><time>2026-04-20T19:23:01.994Z</time><hdop>5.875</hdop><vdop>6.5</vdop><extensions><gom:speed>0.114</gom:speed></extensions></trkpt>
   <trkpt lat="59.0721981481" lon="30.0304791354"><ele>65.225</ele><time>2026-04-20T19:23:03.001Z</time><hdop>5.875</hdop><vdop>6.375</vdop><extensions><gom:speed>0.153</gom:speed></extensions></trkpt>
   <trkpt lat="59.0721990282" lon="30.0304827396"><ele>65.071</ele><time>2026-04-20T19:23:03.514Z</time><hdop>5.875</hdop><vdop>6.375</vdop><extensions><gom:speed>0.142</gom:speed></extensions></trkpt>
   <trkpt lat="59.0721992377" lon="30.0304846675"><ele>65.117</ele><time>2026-04-20T19:23:03.986Z</time><hdop>5.875</hdop><vdop>6.5</vdop><extensions><gom:speed>0.171</gom:speed></extensions></trkpt>
   <trkpt lat="59.0721994473" lon="30.0304866791"><ele>65.145</ele><time>2026-04-20T19:23:04.778Z</time><hdop>6.0</hdop><vdop>6.5</vdop><extensions><gom:speed>0.189</gom:speed></extensions></trkpt>
   <trkpt lat="59.0721991539" lon="30.0304901157"><ele>65.362</ele><time>2026-04-20T19:23:05.697Z</time><hdop>6.125</hdop><vdop>6.5</vdop><extensions><gom:speed>0.233</gom:speed></extensions></trkpt>
   <trkpt lat="59.0722005369" lon="30.0305037782"><ele>65.571</ele><time>2026-04-20T19:23:06.829Z</time><hdop>6.125</hdop><vdop>6.25</vdop><extensions><gom:speed>0.335</gom:speed></extensions></trkpt>
   <trkpt lat="59.072202339" lon="30.030516854"><ele>65.971</ele><time>2026-04-20T19:23:07.838Z</time><hdop>6.125</hdop><vdop>6.125</vdop><extensions><gom:speed>0.431</gom:speed></extensions></trkpt>
   <trkpt lat="59.0722040573" lon="30.0305260741"><ele>66.375</ele><time>2026-04-20T19:23:08.639Z</time><hdop>6.125</hdop><vdop>6.0</vdop><extensions><gom:speed>0.506</gom:speed></extensions></trkpt>
   <trkpt lat="59.0722059433" lon="30.0305323605"><ele>66.833</ele><time>2026-04-20T19:23:09.557Z</time><hdop>6.0</hdop><vdop>6.25</vdop><extensions><gom:speed>0.484</gom:speed></extensions></trkpt>
   <trkpt lat="59.0722060271" lon="30.0305373058"><ele>67.156</ele><time>2026-04-20T19:23:10.027Z</time><hdop>6.0</hdop><vdop>6.25</vdop><extensions><gom:speed>0.484</gom:speed></extensions></trkpt>
   <trkpt lat="59.0722047279" lon="30.0305430055"><ele>67.349</ele><time>2026-04-20T19:23:10.554Z</time><hdop>5.875</hdop><vdop>6.25</vdop><extensions><gom:speed>0.523</gom:speed></extensions></trkpt>
   <trkpt lat="59.0722026324" lon="30.0305445143"><ele>67.613</ele><time>2026-04-20T19:23:11.076Z</time><hdop>5.875</hdop><vdop>6.25</vdop><extensions><gom:speed>0.508</gom:speed></extensions></trkpt>
   <trkpt lat="59.072200034" lon="30.0305497949"><ele>67.771</ele><time>2026-04-20T19:23:11.923Z</time><hdop>5.75</hdop><vdop>6.25</vdop><extensions><gom:speed>0.588</gom:speed></extensions></trkpt>
   <trkpt lat="59.0721936219" lon="30.0305531476"><ele>68.72</ele><time>2026-04-20T19:23:12.557Z</time><hdop>5.75</hdop><vdop>5.5</vdop><extensions><gom:speed>0.615</gom:speed></extensions></trkpt>
   <trkpt lat="59.0721886346" lon="30.0305503816"><ele>70.923</ele><time>2026-04-20T19:23:13.076Z</time><hdop>5.625</hdop><vdop>4.75</vdop><extensions><gom:speed>0.624</gom:speed></extensions></trkpt>
   <trkpt lat="59.0721779477" lon="30.030547867"><ele>72.296</ele><time>2026-04-20T19:23:14.075Z</time><hdop>5.5</hdop><vdop>4.625</vdop><extensions><gom:speed>0.622</gom:speed></extensions></trkpt>
   <trkpt lat="59.0721744273" lon="30.0305499625"><ele>73.116</ele><time>2026-04-20T19:23:14.542Z</time><hdop>5.5</hdop><vdop>4.625</vdop><extensions><gom:speed>0.619</gom:speed></extensions></trkpt>
   <trkpt lat="59.0721675541" lon="30.0305482861"><ele>73.221</ele><time>2026-04-20T19:23:15.075Z</time><hdop>5.5</hdop><vdop>4.875</vdop><extensions><gom:speed>0.601</gom:speed></extensions></trkpt>
   <trkpt lat="59.0721644528" lon="30.0305510521"><ele>73.284</ele><time>2026-04-20T19:23:15.599Z</time><hdop>5.375</hdop><vdop>4.875</vdop><extensions><gom:speed>0.608</gom:speed></extensions></trkpt>
   <trkpt lat="59.0721582502" lon="30.030549711"><ele>73.096</ele><time>2026-04-20T19:23:16.075Z</time><hdop>5.375</hdop><vdop>5.0</vdop><extensions><gom:speed>0.603</gom:speed></extensions></trkpt>
   <trkpt lat="59.0721482339" lon="30.0305523094"><ele>72.653</ele><time>2026-04-20T19:23:17.075Z</time><hdop>5.25</hdop><vdop>5.0</vdop><extensions><gom:speed>0.653</gom:speed></extensions></trkpt>
   <trkpt lat="59.072133817" lon="30.0305572548"><ele>72.728</ele><time>2026-04-20T19:23:18.075Z</time><hdop>5.25</hdop><vdop>4.875</vdop><extensions><gom:speed>0.731</gom:speed></extensions></trkpt>
   <trkpt lat="59.0721187296" lon="30.0305653014"><ele>73.141</ele><time>2026-04-20T19:23:19.075Z</time><hdop>5.125</hdop><vdop>4.625</vdop><extensions><gom:speed>0.755</gom:speed></extensions></trkpt>
   <trkpt lat="59.0721109344" lon="30.0305746891"><ele>73.388</ele><time>2026-04-20T19:23:19.981Z</time><hdop>5.0</hdop><vdop>4.625</vdop><extensions><gom:speed>0.799</gom:speed></extensions></trkpt>
   <trkpt lat="59.0720996188" lon="30.0305844959"><ele>73.786</ele><time>2026-04-20T19:23:20.958Z</time><hdop>4.75</hdop><vdop>4.375</vdop><extensions><gom:speed>0.84</gom:speed></extensions></trkpt>
   <trkpt lat="59.0720897282" lon="30.0305914529"><ele>73.145</ele><time>2026-04-20T19:23:21.876Z</time><hdop>4.375</hdop><vdop>4.375</vdop><extensions><gom:speed>0.852</gom:speed></extensions></trkpt>
   <trkpt lat="59.0720801309" lon="30.0305958115"><ele>72.385</ele><time>2026-04-20T19:23:22.776Z</time><hdop>4.0</hdop><vdop>4.375</vdop><extensions><gom:speed>0.833</gom:speed></extensions></trkpt>
   <trkpt lat="59.0720707432" lon="30.0306003377"><ele>71.6</ele><time>2026-04-20T19:23:23.674Z</time><hdop>3.875</hdop><vdop>4.375</vdop><extensions><gom:speed>0.867</gom:speed></extensions></trkpt>
   <trkpt lat="59.0720644567" lon="30.0306024332"><ele>71.084</ele><time>2026-04-20T19:23:24.362Z</time><hdop>3.875</hdop><vdop>4.25</vdop><extensions><gom:speed>0.86</gom:speed></extensions></trkpt>
   <trkpt lat="59.0720544404" lon="30.0306054507"><ele>71.032</ele><time>2026-04-20T19:23:25.075Z</time><hdop>3.75</hdop><vdop>4.25</vdop><extensions><gom:speed>0.844</gom:speed></extensions></trkpt>
   <trkpt lat="59.0720484473" lon="30.0306042772"><ele>71.0</ele><time>2026-04-20T19:23:25.820Z</time><hdop>3.875</hdop><vdop>4.25</vdop><extensions><gom:speed>0.81</gom:speed></extensions></trkpt>
   <trkpt lat="59.072040233" lon="30.0306028523"><ele>70.867</ele><time>2026-04-20T19:23:26.872Z</time><hdop>4.0</hdop><vdop>4.125</vdop><extensions><gom:speed>0.715</gom:speed></extensions></trkpt>
   <trkpt lat="59.0720321445" lon="30.0306031038"><ele>70.755</ele><time>2026-04-20T19:23:28.076Z</time><hdop>4.125</hdop><vdop>4.0</vdop><extensions><gom:speed>0.626</gom:speed></extensions></trkpt>
   <trkpt lat="59.0720266543" lon="30.0306029361"><ele>70.687</ele><time>2026-04-20T19:23:28.976Z</time><hdop>4.25</hdop><vdop>4.0</vdop><extensions><gom:speed>0.59</gom:speed></extensions></trkpt>
   <trkpt lat="59.0720202422" lon="30.0306017627"><ele>70.732</ele><time>2026-04-20T19:23:29.874Z</time><hdop>4.375</hdop><vdop>4.125</vdop><extensions><gom:speed>0.604</gom:speed></extensions></trkpt>
   <trkpt lat="59.0720174343" lon="30.0306031038"><ele>70.779</ele><time>2026-04-20T19:23:30.522Z</time><hdop>4.375</hdop><vdop>4.0</vdop><extensions><gom:speed>0.577</gom:speed></extensions></trkpt>
   <trkpt lat="59.0720108545" lon="30.030604864"><ele>71.303</ele><time>2026-04-20T19:23:31.075Z</time><hdop>4.375</hdop><vdop>4.125</vdop><extensions><gom:speed>0.567</gom:speed></extensions></trkpt>
   <trkpt lat="59.0720072502" lon="30.0306046963"><ele>71.615</ele><time>2026-04-20T19:23:31.822Z</time><hdop>4.5</hdop><vdop>4.125</vdop><extensions><gom:speed>0.573</gom:speed></extensions></trkpt>
   <trkpt lat="59.0720011315" lon="30.030603439"><ele>72.0</ele><time>2026-04-20T19:23:32.736Z</time><hdop>4.5</hdop><vdop>3.875</vdop><extensions><gom:speed>0.628</gom:speed></extensions></trkpt>
   <trkpt lat="59.071996228" lon="30.0306026008"><ele>72.694</ele><time>2026-04-20T19:23:33.556Z</time><hdop>4.5</hdop><vdop>3.625</vdop><extensions><gom:speed>0.533</gom:speed></extensions></trkpt>
   <trkpt lat="59.0719936296" lon="30.0306022656"><ele>73.725</ele><time>2026-04-20T19:23:34.075Z</time><hdop>4.5</hdop><vdop>3.5</vdop><extensions><gom:speed>0.525</gom:speed></extensions></trkpt>
   <trkpt lat="59.071990235" lon="30.0306024332"><ele>74.628</ele><time>2026-04-20T19:23:35.075Z</time><hdop>4.5</hdop><vdop>3.375</vdop><extensions><gom:speed>0.347</gom:speed></extensions></trkpt>
   <trkpt lat="59.0719887262" lon="30.0306037743"><ele>75.167</ele><time>2026-04-20T19:23:35.856Z</time><hdop>4.625</hdop><vdop>3.375</vdop><extensions><gom:speed>0.284</gom:speed></extensions></trkpt>
   <trkpt lat="59.0719871337" lon="30.0306049478"><ele>75.068</ele><time>2026-04-20T19:23:36.684Z</time><hdop>4.5</hdop><vdop>3.5</vdop><extensions><gom:speed>0.26</gom:speed></extensions></trkpt>
   <trkpt lat="59.0719831523" lon="30.0306044449"><ele>75.05</ele><time>2026-04-20T19:23:37.743Z</time><hdop>4.5</hdop><vdop>3.625</vdop><extensions><gom:speed>0.2</gom:speed></extensions></trkpt>
   <trkpt lat="59.0719801348" lon="30.0306020979"><ele>75.27</ele><time>2026-04-20T19:23:39.076Z</time><hdop>4.5</hdop><vdop>7.125</vdop><extensions><gom:speed>0.176</gom:speed></extensions></trkpt>
   <trkpt lat="59.0719777459" lon="30.0306001701"><ele>75.806</ele><time>2026-04-20T19:23:40.075Z</time><hdop>4.5</hdop><vdop>7.125</vdop><extensions><gom:speed>0.215</gom:speed></extensions></trkpt>
   <trkpt lat="59.0719770335" lon="30.0305964821"><ele>76.266</ele><time>2026-04-20T19:23:41.066Z</time><hdop>4.375</hdop><vdop>7.0</vdop><extensions><gom:speed>0.233</gom:speed></extensions></trkpt>
   <trkpt lat="59.071974938" lon="30.030594638"><ele>76.651</ele><time>2026-04-20T19:23:42.075Z</time><hdop>4.375</hdop><vdop>7.125</vdop><extensions><gom:speed>0.188</gom:speed></extensions></trkpt>
   <trkpt lat="59.0719744351" lon="30.0305954762"><ele>76.882</ele><time>2026-04-20T19:23:42.843Z</time><hdop>4.375</hdop><vdop>7.125</vdop><extensions><gom:speed>0.17</gom:speed></extensions></trkpt>
   <trkpt lat="59.0719731359" lon="30.030595141"><ele>77.095</ele><time>2026-04-20T19:23:44.029Z</time><hdop>4.375</hdop><vdop>7.25</vdop><extensions><gom:speed>0.099</gom:speed></extensions></trkpt>
   <trkpt lat="59.0719711242" lon="30.0305954762"><ele>77.277</ele><time>2026-04-20T19:23:45.075Z</time><hdop>4.375</hdop><vdop>7.5</vdop><extensions><gom:speed>0.115</gom:speed></extensions></trkpt>
   <trkpt lat="59.0719700346" lon="30.0305963144"><ele>77.592</ele><time>2026-04-20T19:23:46.042Z</time><hdop>4.375</hdop><vdop>7.125</vdop><extensions><gom:speed>0.077</gom:speed></extensions></trkpt>
   <trkpt lat="59.0719676457" lon="30.0305974879"><ele>77.956</ele><time>2026-04-20T19:23:47.075Z</time><hdop>4.375</hdop><vdop>6.625</vdop><extensions><gom:speed>0.083</gom:speed></extensions></trkpt>
   <trkpt lat="59.0719666399" lon="30.0305985775"><ele>78.133</ele><time>2026-04-20T19:23:47.937Z</time><hdop>4.375</hdop><vdop>6.375</vdop><extensions><gom:speed>0.08</gom:speed></extensions></trkpt>
   <trkpt lat="59.0719670171" lon="30.0305994157"><ele>78.251</ele><time>2026-04-20T19:23:49.004Z</time><hdop>4.375</hdop><vdop>6.0</vdop><extensions><gom:speed>0.064</gom:speed></extensions></trkpt>
   <trkpt lat="59.0719646283" lon="30.0306007568"><ele>78.389</ele><time>2026-04-20T19:23:50.075Z</time><hdop>4.375</hdop><vdop>5.625</vdop><extensions><gom:speed>0.082</gom:speed></extensions></trkpt>
   <trkpt lat="59.071964754" lon="30.0305982423"><ele>78.53</ele><time>2026-04-20T19:23:51.018Z</time><hdop>4.375</hdop><vdop>5.375</vdop><extensions><gom:speed>0.065</gom:speed></extensions></trkpt>
   <trkpt lat="59.0719648378" lon="30.0305958953"><ele>78.639</ele><time>2026-04-20T19:23:51.965Z</time><hdop>4.375</hdop><vdop>5.25</vdop><extensions><gom:speed>0.066</gom:speed></extensions></trkpt>
   <trkpt lat="59.0719639577" lon="30.0305943866"><ele>78.752</ele><time>2026-04-20T19:23:53.031Z</time><hdop>4.375</hdop><vdop>5.0</vdop><extensions><gom:speed>0.071</gom:speed></extensions></trkpt>
   <trkpt lat="59.0719612336" lon="30.0305949733"><ele>78.893</ele><time>2026-04-20T19:23:54.075Z</time><hdop>4.5</hdop><vdop>5.0</vdop><extensions><gom:speed>0.07</gom:speed></extensions></trkpt>
   <trkpt lat="59.0719591381" lon="30.0305948895"><ele>79.013</ele><time>2026-04-20T19:23:55.075Z</time><hdop>4.5</hdop><vdop>4.875</vdop><extensions><gom:speed>0.066</gom:speed></extensions></trkpt>
   <trkpt lat="59.0719570426" lon="30.0305941351"><ele>79.088</ele><time>2026-04-20T19:23:56.075Z</time><hdop>4.5</hdop><vdop>4.625</vdop><extensions><gom:speed>0.127</gom:speed></extensions></trkpt>
   <trkpt lat="59.0719555339" lon="30.0305925426"><ele>79.131</ele><time>2026-04-20T19:23:57.076Z</time><hdop>4.375</hdop><vdop>4.625</vdop><extensions><gom:speed>0.188</gom:speed></extensions></trkpt>
   <trkpt lat="59.0719538575" lon="30.0305904471"><ele>79.165</ele><time>2026-04-20T19:23:58.075Z</time><hdop>4.375</hdop><vdop>4.625</vdop><extensions><gom:speed>0.261</gom:speed></extensions></trkpt>
   <trkpt lat="59.0719524326" lon="30.030587262"><ele>79.185</ele><time>2026-04-20T19:23:59.075Z</time><hdop>4.25</hdop><vdop>4.625</vdop><extensions><gom:speed>0.299</gom:speed></extensions></trkpt>
   <trkpt lat="59.0719513429" lon="30.0305844121"><ele>79.198</ele><time>2026-04-20T19:24:00.075Z</time><hdop>4.25</hdop><vdop>4.875</vdop><extensions><gom:speed>0.343</gom:speed></extensions></trkpt>
   <trkpt lat="59.0719502533" lon="30.0305813108"><ele>79.205</ele><time>2026-04-20T19:24:01.076Z</time><hdop>4.25</hdop><vdop>4.875</vdop><extensions><gom:speed>0.339</gom:speed></extensions></trkpt>
   <trkpt lat="59.0719490379" lon="30.030578461"><ele>79.211</ele><time>2026-04-20T19:24:02.075Z</time><hdop>4.25</hdop><vdop>4.875</vdop><extensions><gom:speed>0.308</gom:speed></extensions></trkpt>
   <trkpt lat="59.0719481578" lon="30.0305765331"><ele>79.229</ele><time>2026-04-20T19:24:03.076Z</time><hdop>4.25</hdop><vdop>5.0</vdop><extensions><gom:speed>0.306</gom:speed></extensions></trkpt>
   <trkpt lat="59.0719472358" lon="30.0305751082"><ele>79.246</ele><time>2026-04-20T19:24:04.075Z</time><hdop>4.375</hdop><vdop>5.0</vdop><extensions><gom:speed>0.3</gom:speed></extensions></trkpt>
   <trkpt lat="59.0719464395" lon="30.0305739347"><ele>79.258</ele><time>2026-04-20T19:24:05.075Z</time><hdop>4.375</hdop><vdop>5.0</vdop><extensions><gom:speed>0.294</gom:speed></extensions></trkpt>
   <trkpt lat="59.0719461462" lon="30.0305710011"><ele>79.265</ele><time>2026-04-20T19:24:05.958Z</time><hdop>4.625</hdop><vdop>5.0</vdop><extensions><gom:speed>0.295</gom:speed></extensions></trkpt>
   <trkpt lat="59.071943925" lon="30.0305718393"><ele>79.275</ele><time>2026-04-20T19:24:07.075Z</time><hdop>4.75</hdop><vdop>5.125</vdop><extensions><gom:speed>0.285</gom:speed></extensions></trkpt>
   <trkpt lat="59.0719436316" lon="30.030571504"><ele>79.28</ele><time>2026-04-20T19:24:07.603Z</time><hdop>4.75</hdop><vdop>5.125</vdop><extensions><gom:speed>0.285</gom:speed></extensions></trkpt>
   <trkpt lat="59.0719421229" lon="30.0305716716"><ele>79.29</ele><time>2026-04-20T19:24:08.076Z</time><hdop>4.875</hdop><vdop>5.375</vdop><extensions><gom:speed>0.264</gom:speed></extensions></trkpt>
   <trkpt lat="59.0719402369" lon="30.0305725098"><ele>79.318</ele><time>2026-04-20T19:24:09.075Z</time><hdop>4.875</hdop><vdop>5.375</vdop><extensions><gom:speed>0.244</gom:speed></extensions></trkpt>
   <trkpt lat="59.0719382253" lon="30.0305736833"><ele>79.383</ele><time>2026-04-20T19:24:10.075Z</time><hdop>5.0</hdop><vdop>5.375</vdop><extensions><gom:speed>0.226</gom:speed></extensions></trkpt>
   <trkpt lat="59.0719366327" lon="30.03057427"><ele>79.48</ele><time>2026-04-20T19:24:11.075Z</time><hdop>5.0</hdop><vdop>5.375</vdop><extensions><gom:speed>0.215</gom:speed></extensions></trkpt>
   <trkpt lat="59.0719353335" lon="30.0305751082"><ele>79.588</ele><time>2026-04-20T19:24:12.075Z</time><hdop>5.125</hdop><vdop>5.375</vdop><extensions><gom:speed>0.205</gom:speed></extensions></trkpt>
   <trkpt lat="59.0719334476" lon="30.0305756949"><ele>79.688</ele><time>2026-04-20T19:24:13.075Z</time><hdop>5.125</hdop><vdop>5.25</vdop><extensions><gom:speed>0.206</gom:speed></extensions></trkpt>
   <trkpt lat="59.0719331542" lon="30.0305756949"><ele>79.747</ele><time>2026-04-20T19:24:13.763Z</time><hdop>5.125</hdop><vdop>5.25</vdop><extensions><gom:speed>0.206</gom:speed></extensions></trkpt>
   <trkpt lat="59.0719292566" lon="30.0305773713"><ele>79.811</ele><time>2026-04-20T19:24:15.076Z</time><hdop>5.25</hdop><vdop>5.0</vdop><extensions><gom:speed>0.218</gom:speed></extensions></trkpt>
   <trkpt lat="59.0719271192" lon="30.0305785448"><ele>79.863</ele><time>2026-04-20T19:24:16.075Z</time><hdop>5.25</hdop><vdop>4.875</vdop><extensions><gom:speed>0.215</gom:speed></extensions></trkpt>
   <trkpt lat="59.071926323" lon="30.0305790477"><ele>79.894</ele><time>2026-04-20T19:24:16.659Z</time><hdop>5.25</hdop><vdop>4.875</vdop><extensions><gom:speed>0.215</gom:speed></extensions></trkpt>
   <trkpt lat="59.0719239341" lon="30.0305826519"><ele>79.94</ele><time>2026-04-20T19:24:17.813Z</time><hdop>5.25</hdop><vdop>4.625</vdop><extensions><gom:speed>0.251</gom:speed></extensions></trkpt>
   <trkpt lat="59.0719235569" lon="30.0305841607"><ele>79.979</ele><time>2026-04-20T19:24:18.515Z</time><hdop>5.375</hdop><vdop>4.625</vdop><extensions><gom:speed>0.283</gom:speed></extensions></trkpt>
   <trkpt lat="59.0719231378" lon="30.0305851665"><ele>80.008</ele><time>2026-04-20T19:24:18.976Z</time><hdop>5.375</hdop><vdop>4.625</vdop><extensions><gom:speed>0.284</gom:speed></extensions></trkpt>
   <trkpt lat="59.0719225511" lon="30.0305857532"><ele>80.025</ele><time>2026-04-20T19:24:19.453Z</time><hdop>5.375</hdop><vdop>4.625</vdop><extensions><gom:speed>0.304</gom:speed></extensions></trkpt>
   <trkpt lat="59.0719223416" lon="30.0305860047"><ele>80.035</ele><time>2026-04-20T19:24:19.924Z</time><hdop>5.5</hdop><vdop>4.625</vdop><extensions><gom:speed>0.309</gom:speed></extensions></trkpt>
   <trkpt lat="59.0719202461" lon="30.0305870943"><ele>80.056</ele><time>2026-04-20T19:24:20.401Z</time><hdop>5.625</hdop><vdop>4.625</vdop><extensions><gom:speed>0.345</gom:speed></extensions></trkpt>
   <trkpt lat="59.0719148398" lon="30.0305922911"><ele>80.26</ele><time>2026-04-20T19:24:21.075Z</time><hdop>5.625</hdop><vdop>3.875</vdop><extensions><gom:speed>0.418</gom:speed></extensions></trkpt>
   <trkpt lat="59.0719104393" lon="30.0305971526"><ele>80.382</ele><time>2026-04-20T19:24:22.000Z</time><hdop>5.75</hdop><vdop>3.875</vdop><extensions><gom:speed>0.478</gom:speed></extensions></trkpt>
   <trkpt lat="59.07190453" lon="30.0306051154"><ele>80.706</ele><time>2026-04-20T19:24:23.077Z</time><hdop>5.875</hdop><vdop>3.875</vdop><extensions><gom:speed>0.42</gom:speed></extensions></trkpt>
   <trkpt lat="59.0718990399" lon="30.0306119886"><ele>80.558</ele><time>2026-04-20T19:24:23.954Z</time><hdop>5.75</hdop><vdop>3.75</vdop><extensions><gom:speed>0.468</gom:speed></extensions></trkpt>
   <trkpt lat="59.0718926277" lon="30.0306212087"><ele>80.499</ele><time>2026-04-20T19:24:24.697Z</time><hdop>5.75</hdop><vdop>3.875</vdop><extensions><gom:speed>0.534</gom:speed></extensions></trkpt>
   <trkpt lat="59.0718887301" lon="30.0306317699"><ele>80.152</ele><time>2026-04-20T19:24:25.672Z</time><hdop>5.5</hdop><vdop>5.75</vdop><extensions><gom:speed>0.535</gom:speed></extensions></trkpt>
   <trkpt lat="59.0718886463" lon="30.0306420796"><ele>79.79</ele><time>2026-04-20T19:24:26.581Z</time><hdop>5.25</hdop><vdop>6.25</vdop><extensions><gom:speed>0.546</gom:speed></extensions></trkpt>
   <trkpt lat="59.0718890235" lon="30.0306466897"><ele>79.197</ele><time>2026-04-20T19:24:27.075Z</time><hdop>5.125</hdop><vdop>6.875</vdop><extensions><gom:speed>0.528</gom:speed></extensions></trkpt>
   <trkpt lat="59.0718889397" lon="30.0306545686"><ele>78.596</ele><time>2026-04-20T19:24:28.076Z</time><hdop>5.0</hdop><vdop>6.75</vdop><extensions><gom:speed>0.483</gom:speed></extensions></trkpt>
   <trkpt lat="59.0718883529" lon="30.0306623638"><ele>78.327</ele><time>2026-04-20T19:24:29.075Z</time><hdop>4.75</hdop><vdop>6.625</vdop><extensions><gom:speed>0.431</gom:speed></extensions></trkpt>
   <trkpt lat="59.0718873471" lon="30.0306670577"><ele>78.167</ele><time>2026-04-20T19:24:29.700Z</time><hdop>4.75</hdop><vdop>6.625</vdop><extensions><gom:speed>0.417</gom:speed></extensions></trkpt>
   <trkpt lat="59.0718866347" lon="30.0306777027"><ele>77.941</ele><time>2026-04-20T19:24:30.797Z</time><hdop>4.75</hdop><vdop>6.375</vdop><extensions><gom:speed>0.409</gom:speed></extensions></trkpt>
   <trkpt lat="59.071885545" lon="30.0306815584"><ele>77.914</ele><time>2026-04-20T19:24:32.008Z</time><hdop>4.75</hdop><vdop>6.25</vdop><extensions><gom:speed>0.287</gom:speed></extensions></trkpt>
   <trkpt lat="59.0718856288" lon="30.0306800496"><ele>77.837</ele><time>2026-04-20T19:24:33.075Z</time><hdop>4.875</hdop><vdop>6.375</vdop><extensions><gom:speed>0.186</gom:speed></extensions></trkpt>
   <trkpt lat="59.071885545" lon="30.0306794629"><ele>77.824</ele><time>2026-04-20T19:24:34.021Z</time><hdop>4.875</hdop><vdop>6.125</vdop><extensions><gom:speed>0.171</gom:speed></extensions></trkpt>
   <trkpt lat="59.0718859222" lon="30.030678038"><ele>77.675</ele><time>2026-04-20T19:24:34.969Z</time><hdop>5.0</hdop><vdop>6.125</vdop><extensions><gom:speed>0.141</gom:speed></extensions></trkpt>
   <trkpt lat="59.0718862575" lon="30.0306794629"><ele>77.549</ele><time>2026-04-20T19:24:36.075Z</time><hdop>5.0</hdop><vdop>6.125</vdop><extensions><gom:speed>0.115</gom:speed></extensions></trkpt>
   <trkpt lat="59.0718865508" lon="30.03067896"><ele>77.474</ele><time>2026-04-20T19:24:36.680Z</time><hdop>4.875</hdop><vdop>6.125</vdop><extensions><gom:speed>0.106</gom:speed></extensions></trkpt>
   <trkpt lat="59.0718866347" lon="30.0306788762"><ele>77.559</ele><time>2026-04-20T19:24:37.993Z</time><hdop>4.875</hdop><vdop>6.0</vdop><extensions><gom:speed>0.105</gom:speed></extensions></trkpt>
   <trkpt lat="59.0718867185" lon="30.0306783733"><ele>77.733</ele><time>2026-04-20T19:24:38.524Z</time><hdop>4.875</hdop><vdop>6.0</vdop><extensions><gom:speed>0.083</gom:speed></extensions></trkpt>
   <trkpt lat="59.0718864251" lon="30.03067896"><ele>77.854</ele><time>2026-04-20T19:24:38.998Z</time><hdop>5.0</hdop><vdop>6.125</vdop><extensions><gom:speed>0.106</gom:speed></extensions></trkpt>
   <trkpt lat="59.0718861317" lon="30.0306792114"><ele>77.927</ele><time>2026-04-20T19:24:40.037Z</time><hdop>5.0</hdop><vdop>6.125</vdop><extensions><gom:speed>0.137</gom:speed></extensions></trkpt>
   <trkpt lat="59.0718857546" lon="30.0306830671"><ele>78.051</ele><time>2026-04-20T19:24:41.011Z</time><hdop>5.0</hdop><vdop>5.875</vdop><extensions><gom:speed>0.111</gom:speed></extensions></trkpt>
   <trkpt lat="59.0718854193" lon="30.0306831509"><ele>78.191</ele><time>2026-04-20T19:24:41.959Z</time><hdop>5.0</hdop><vdop>5.625</vdop><extensions><gom:speed>0.082</gom:speed></extensions></trkpt>
   <trkpt lat="59.0718858384" lon="30.0306819775"><ele>78.307</ele><time>2026-04-20T19:24:43.025Z</time><hdop>5.0</hdop><vdop>5.25</vdop><extensions><gom:speed>0.075</gom:speed></extensions></trkpt>
   <trkpt lat="59.0718860479" lon="30.0306845759"><ele>78.388</ele><time>2026-04-20T19:24:44.075Z</time><hdop>5.0</hdop><vdop>5.0</vdop><extensions><gom:speed>0.113</gom:speed></extensions></trkpt>
   <trkpt lat="59.0718858384" lon="30.0306847435"><ele>78.437</ele><time>2026-04-20T19:24:44.684Z</time><hdop>5.0</hdop><vdop>5.0</vdop><extensions><gom:speed>0.095</gom:speed></extensions></trkpt>
   <trkpt lat="59.071884623" lon="30.0306865037"><ele>78.485</ele><time>2026-04-20T19:24:45.988Z</time><hdop>4.875</hdop><vdop>5.25</vdop><extensions><gom:speed>0.072</gom:speed></extensions></trkpt>
   <trkpt lat="59.0718834495" lon="30.0306876772"><ele>78.529</ele><time>2026-04-20T19:24:46.935Z</time><hdop>4.875</hdop><vdop>5.25</vdop><extensions><gom:speed>0.062</gom:speed></extensions></trkpt>
   <trkpt lat="59.0718820246" lon="30.0306893535"><ele>78.564</ele><time>2026-04-20T19:24:48.001Z</time><hdop>5.0</hdop><vdop>5.125</vdop><extensions><gom:speed>0.072</gom:speed></extensions></trkpt>
   <trkpt lat="59.0718811445" lon="30.0306883477"><ele>78.586</ele><time>2026-04-20T19:24:49.068Z</time><hdop>5.0</hdop><vdop>5.125</vdop><extensions><gom:speed>0.078</gom:speed></extensions></trkpt>
   <trkpt lat="59.0718806416" lon="30.0306896888"><ele>78.613</ele><time>2026-04-20T19:24:50.016Z</time><hdop>5.125</hdop><vdop>5.25</vdop><extensions><gom:speed>0.081</gom:speed></extensions></trkpt>
   <trkpt lat="59.0718808511" lon="30.0306901917"><ele>78.628</ele><time>2026-04-20T19:24:50.845Z</time><hdop>5.125</hdop><vdop>5.25</vdop><extensions><gom:speed>0.072</gom:speed></extensions></trkpt>
   <trkpt lat="59.0718824437" lon="30.0306927901"><ele>78.678</ele><time>2026-04-20T19:24:52.075Z</time><hdop>5.25</hdop><vdop>5.5</vdop><extensions><gom:speed>0.097</gom:speed></extensions></trkpt>
   <trkpt lat="59.0718837429" lon="30.0306929578"><ele>78.71</ele><time>2026-04-20T19:24:52.976Z</time><hdop>5.25</hdop><vdop>6.0</vdop><extensions><gom:speed>0.104</gom:speed></extensions></trkpt>
   <trkpt lat="59.0718844554" lon="30.0306933769"><ele>78.729</ele><time>2026-04-20T19:24:53.840Z</time><hdop>5.25</hdop><vdop>6.0</vdop><extensions><gom:speed>0.099</gom:speed></extensions></trkpt>
   <trkpt lat="59.0718851259" lon="30.0306943827"><ele>78.796</ele><time>2026-04-20T19:24:54.677Z</time><hdop>5.25</hdop><vdop>6.375</vdop><extensions><gom:speed>0.113</gom:speed></extensions></trkpt>
   <trkpt lat="59.0718851259" lon="30.0306951371"><ele>78.998</ele><time>2026-04-20T19:24:56.076Z</time><hdop>5.25</hdop><vdop>6.625</vdop><extensions><gom:speed>0.121</gom:speed></extensions></trkpt>
   <trkpt lat="59.0718854193" lon="30.0306953885"><ele>79.201</ele><time>2026-04-20T19:24:57.004Z</time><hdop>5.25</hdop><vdop>7.0</vdop><extensions><gom:speed>0.124</gom:speed></extensions></trkpt>
   <trkpt lat="59.0718854193" lon="30.0306966458"><ele>79.447</ele><time>2026-04-20T19:24:58.075Z</time><hdop>5.25</hdop><vdop>6.5</vdop><extensions><gom:speed>0.146</gom:speed></extensions></trkpt>
   <trkpt lat="59.071885545" lon="30.0306972325"><ele>79.657</ele><time>2026-04-20T19:24:59.018Z</time><hdop>5.25</hdop><vdop>6.0</vdop><extensions><gom:speed>0.12</gom:speed></extensions></trkpt>
   <trkpt lat="59.0718851259" lon="30.0306979031"><ele>79.875</ele><time>2026-04-20T19:25:00.075Z</time><hdop>5.125</hdop><vdop>5.75</vdop><extensions><gom:speed>0.142</gom:speed></extensions></trkpt>
   <trkpt lat="59.0718851259" lon="30.0306981545"><ele>80.053</ele><time>2026-04-20T19:25:01.075Z</time><hdop>5.125</hdop><vdop>6.0</vdop><extensions><gom:speed>0.164</gom:speed></extensions></trkpt>
   <trkpt lat="59.0718851259" lon="30.0306999986"><ele>80.219</ele><time>2026-04-20T19:25:02.075Z</time><hdop>5.125</hdop><vdop>6.0</vdop><extensions><gom:speed>0.181</gom:speed></extensions></trkpt>
   <trkpt lat="59.0718847487" lon="30.030703016"><ele>80.398</ele><time>2026-04-20T19:25:03.076Z</time><hdop>5.0</hdop><vdop>5.875</vdop><extensions><gom:speed>0.183</gom:speed></extensions></trkpt>
   <trkpt lat="59.0718851259" lon="30.0307056983"><ele>80.505</ele><time>2026-04-20T19:25:03.878Z</time><hdop>4.875</hdop><vdop>5.875</vdop><extensions><gom:speed>0.184</gom:speed></extensions></trkpt>
   <trkpt lat="59.0718852516" lon="30.0307056144"><ele>80.732</ele><time>2026-04-20T19:25:04.817Z</time><hdop>4.875</hdop><vdop>5.875</vdop><extensions><gom:speed>0.191</gom:speed></extensions></trkpt>
   <trkpt lat="59.0718824437" lon="30.0307079614"><ele>80.06</ele><time>2026-04-20T19:25:05.439Z</time><hdop>4.875</hdop><vdop>5.75</vdop><extensions><gom:speed>0.12</gom:speed></extensions></trkpt>
   <trkpt lat="59.0718806416" lon="30.0307120685"><ele>79.273</ele><time>2026-04-20T19:25:06.075Z</time><hdop>4.875</hdop><vdop>6.0</vdop><extensions><gom:speed>0.145</gom:speed></extensions></trkpt>
   <trkpt lat="59.0718800549" lon="30.0307129905"><ele>78.803</ele><time>2026-04-20T19:25:06.979Z</time><hdop>4.75</hdop><vdop>6.0</vdop><extensions><gom:speed>0.12</gom:speed></extensions></trkpt>
   <trkpt lat="59.0718796358" lon="30.0307186064"><ele>78.238</ele><time>2026-04-20T19:25:08.015Z</time><hdop>4.75</hdop><vdop>6.0</vdop><extensions><gom:speed>0.167</gom:speed></extensions></trkpt>
   <trkpt lat="59.0718797196" lon="30.0307228812"><ele>77.746</ele><time>2026-04-20T19:25:09.081Z</time><hdop>4.625</hdop><vdop>6.0</vdop><extensions><gom:speed>0.191</gom:speed></extensions></trkpt>
   <trkpt lat="59.0718819408" lon="30.0307280779"><ele>77.527</ele><time>2026-04-20T19:25:09.821Z</time><hdop>4.625</hdop><vdop>6.0</vdop><extensions><gom:speed>0.269</gom:speed></extensions></trkpt>
   <trkpt lat="59.0718853355" lon="30.0307249766"><ele>77.855</ele><time>2026-04-20T19:25:10.937Z</time><hdop>4.625</hdop><vdop>6.125</vdop><extensions><gom:speed>0.362</gom:speed></extensions></trkpt>
   <trkpt lat="59.0718852516" lon="30.0307429977"><ele>78.695</ele><time>2026-04-20T19:25:12.075Z</time><hdop>4.75</hdop><vdop>6.0</vdop><extensions><gom:speed>0.305</gom:speed></extensions></trkpt>
   <trkpt lat="59.0718873471" lon="30.0307474401"><ele>79.197</ele><time>2026-04-20T19:25:13.039Z</time><hdop>4.75</hdop><vdop>6.0</vdop><extensions><gom:speed>0.35</gom:speed></extensions></trkpt>
   <trkpt lat="59.0718889397" lon="30.0307616894"><ele>79.685</ele><time>2026-04-20T19:25:13.860Z</time><hdop>5.0</hdop><vdop>5.75</vdop><extensions><gom:speed>0.443</gom:speed></extensions></trkpt>
   <trkpt lat="59.0718891492" lon="30.0307804648"><ele>80.246</ele><time>2026-04-20T19:25:15.011Z</time><hdop>5.25</hdop><vdop>5.625</vdop><extensions><gom:speed>0.429</gom:speed></extensions></trkpt>
   <trkpt lat="59.0718885206" lon="30.0307824765"><ele>80.581</ele><time>2026-04-20T19:25:15.604Z</time><hdop>5.375</hdop><vdop>5.625</vdop><extensions><gom:speed>0.398</gom:speed></extensions></trkpt>
   <trkpt lat="59.0718876405" lon="30.030794295"><ele>81.072</ele><time>2026-04-20T19:25:16.075Z</time><hdop>5.5</hdop><vdop>5.625</vdop><extensions><gom:speed>0.357</gom:speed></extensions></trkpt>
   <trkpt lat="59.0718899455" lon="30.0308027607"><ele>81.611</ele><time>2026-04-20T19:25:17.025Z</time><hdop>5.625</hdop><vdop>5.75</vdop><extensions><gom:speed>0.474</gom:speed></extensions></trkpt>
   <trkpt lat="59.0718972378" lon="30.030814663"><ele>81.933</ele><time>2026-04-20T19:25:17.996Z</time><hdop>6.0</hdop><vdop>5.75</vdop><extensions><gom:speed>0.668</gom:speed></extensions></trkpt>
   <trkpt lat="59.0719024345" lon="30.0308389705"><ele>82.251</ele><time>2026-04-20T19:25:18.935Z</time><hdop>6.5</hdop><vdop>5.75</vdop><extensions><gom:speed>0.824</gom:speed></extensions></trkpt>
   <trkpt lat="59.0719124509" lon="30.0308627751"><ele>82.625</ele><time>2026-04-20T19:25:19.988Z</time><hdop>6.875</hdop><vdop>5.875</vdop><extensions><gom:speed>0.99</gom:speed></extensions></trkpt>
   <trkpt lat="59.0719209166" lon="30.0308759347"><ele>82.871</ele><time>2026-04-20T19:25:20.935Z</time><hdop>7.375</hdop><vdop>5.875</vdop><extensions><gom:speed>0.968</gom:speed></extensions></trkpt>
   <trkpt lat="59.0719231378" lon="30.0308759347"><ele>83.018</ele><time>2026-04-20T19:25:21.764Z</time><hdop>7.625</hdop><vdop>5.875</vdop><extensions><gom:speed>0.906</gom:speed></extensions></trkpt>
   <trkpt lat="59.0719188212" lon="30.0309053552"><ele>83.294</ele><time>2026-04-20T19:25:22.950Z</time><hdop>8.875</hdop><vdop>5.875</vdop><extensions><gom:speed>0.704</gom:speed></extensions></trkpt>
   <trkpt lat="59.0719196174" lon="30.0309041817"><ele>83.459</ele><time>2026-04-20T19:25:23.474Z</time><hdop>9.25</hdop><vdop>5.875</vdop><extensions><gom:speed>0.601</gom:speed></extensions></trkpt>
   <trkpt lat="59.0719216291" lon="30.030903595"><ele>83.57</ele><time>2026-04-20T19:25:24.015Z</time><hdop>9.5</hdop><vdop>5.75</vdop><extensions><gom:speed>0.582</gom:speed></extensions></trkpt>
   <trkpt lat="59.071923054" lon="30.0309040979"><ele>83.637</ele><time>2026-04-20T19:25:24.524Z</time><hdop>9.75</hdop><vdop>5.75</vdop><extensions><gom:speed>0.596</gom:speed></extensions></trkpt>
   <trkpt lat="59.0719261553" lon="30.0309047685"><ele>83.758</ele><time>2026-04-20T19:25:25.972Z</time><hdop>10.125</hdop><vdop>5.875</vdop><extensions><gom:speed>0.446</gom:speed></extensions></trkpt>
   <trkpt lat="59.0719080504" lon="30.0309051037"><ele>83.94</ele><time>2026-04-20T19:25:27.075Z</time><hdop>10.125</hdop><vdop>6.25</vdop><extensions><gom:speed>0.179</gom:speed></extensions></trkpt>
   <trkpt lat="59.0718996266" lon="30.030901751"><ele>84.048</ele><time>2026-04-20T19:25:27.924Z</time><hdop>10.0</hdop><vdop>6.25</vdop><extensions><gom:speed>0.198</gom:speed></extensions></trkpt>
   <trkpt lat="59.0718979502" lon="30.030906361"><ele>84.207</ele><time>2026-04-20T19:25:28.992Z</time><hdop>9.75</hdop><vdop>6.875</vdop><extensions><gom:speed>0.282</gom:speed></extensions></trkpt>
   <trkpt lat="59.0719002552" lon="30.0309140724"><ele>84.372</ele><time>2026-04-20T19:25:29.938Z</time><hdop>9.75</hdop><vdop>7.25</vdop><extensions><gom:speed>0.33</gom:speed></extensions></trkpt>
   <trkpt lat="59.0718916219" lon="30.0309182633"><ele>84.534</ele><time>2026-04-20T19:25:31.075Z</time><hdop>9.5</hdop><vdop>7.5</vdop><extensions><gom:speed>0.247</gom:speed></extensions></trkpt>
   <trkpt lat="59.0718856288" lon="30.0309284054"><ele>84.63</ele><time>2026-04-20T19:25:32.054Z</time><hdop>9.5</hdop><vdop>7.5</vdop><extensions><gom:speed>0.379</gom:speed></extensions></trkpt>
   <trkpt lat="59.071884623" lon="30.0309473485"><ele>84.727</ele><time>2026-04-20T19:25:32.913Z</time><hdop>9.875</hdop><vdop>7.625</vdop><extensions><gom:speed>0.55</gom:speed></extensions></trkpt>
   <trkpt lat="59.0718843296" lon="30.0309726619"><ele>84.846</ele><time>2026-04-20T19:25:33.712Z</time><hdop>10.5</hdop><vdop>7.625</vdop><extensions><gom:speed>0.68</gom:speed></extensions></trkpt>
   <trkpt lat="59.0718728464" lon="30.0309913535"><ele>84.97</ele><time>2026-04-20T19:25:34.582Z</time><hdop>10.625</hdop><vdop>7.5</vdop><extensions><gom:speed>0.678</gom:speed></extensions></trkpt>
   <trkpt lat="59.0718712539" lon="30.0309962988"><ele>85.064</ele><time>2026-04-20T19:25:35.033Z</time><hdop>10.625</hdop><vdop>7.25</vdop><extensions><gom:speed>0.68</gom:speed></extensions></trkpt>
   <trkpt lat="59.0718701223" lon="30.0310043455"><ele>85.121</ele><time>2026-04-20T19:25:35.756Z</time><hdop>10.5</hdop><vdop>7.25</vdop><extensions><gom:speed>0.682</gom:speed></extensions></trkpt>
   <trkpt lat="59.071870248" lon="30.0310167507"><ele>85.174</ele><time>2026-04-20T19:25:36.793Z</time><hdop>11.0</hdop><vdop>7.125</vdop><extensions><gom:speed>0.665</gom:speed></extensions></trkpt>
   <trkpt lat="59.0718705414" lon="30.0310278986"><ele>85.226</ele><time>2026-04-20T19:25:37.760Z</time><hdop>11.0</hdop><vdop>7.375</vdop><extensions><gom:speed>0.62</gom:speed></extensions></trkpt>
   <trkpt lat="59.0718696194" lon="30.03103561"><ele>85.271</ele><time>2026-04-20T19:25:38.738Z</time><hdop>11.0</hdop><vdop>7.375</vdop><extensions><gom:speed>0.535</gom:speed></extensions></trkpt>
   <trkpt lat="59.0718671467" lon="30.0310389627"><ele>85.32</ele><time>2026-04-20T19:25:40.002Z</time><hdop>11.125</hdop><vdop>7.5</vdop><extensions><gom:speed>0.461</gom:speed></extensions></trkpt>
   <trkpt lat="59.0718667276" lon="30.0310419802"><ele>85.365</ele><time>2026-04-20T19:25:40.672Z</time><hdop>11.25</hdop><vdop>7.5</vdop><extensions><gom:speed>0.384</gom:speed></extensions></trkpt>
   <trkpt lat="59.0718685297" lon="30.0310447462"><ele>85.401</ele><time>2026-04-20T19:25:41.620Z</time><hdop>11.375</hdop><vdop>7.5</vdop><extensions><gom:speed>0.416</gom:speed></extensions></trkpt>
   <trkpt lat="59.0718715472" lon="30.0310484343"><ele>85.445</ele><time>2026-04-20T19:25:42.597Z</time><hdop>11.375</hdop><vdop>7.625</vdop><extensions><gom:speed>0.432</gom:speed></extensions></trkpt>
   <trkpt lat="59.071873517" lon="30.0310545531"><ele>85.479</ele><time>2026-04-20T19:25:43.456Z</time><hdop>11.625</hdop><vdop>7.625</vdop><extensions><gom:speed>0.534</gom:speed></extensions></trkpt>
   <trkpt lat="59.0718750257" lon="30.0310608395"><ele>85.506</ele><time>2026-04-20T19:25:44.036Z</time><hdop>11.75</hdop><vdop>7.875</vdop><extensions><gom:speed>0.55</gom:speed></extensions></trkpt>
   <trkpt lat="59.0718682364" lon="30.0310636055"><ele>87.332</ele><time>2026-04-20T19:25:45.076Z</time><hdop>11.875</hdop><vdop>5.5</vdop><extensions><gom:speed>0.711</gom:speed></extensions></trkpt>
   <trkpt lat="59.0718481198" lon="30.0310653657"><ele>88.709</ele><time>2026-04-20T19:25:46.075Z</time><hdop>11.625</hdop><vdop>4.25</vdop><extensions><gom:speed>0.721</gom:speed></extensions></trkpt>
   <trkpt lat="59.0718277518" lon="30.0310791959"><ele>89.531</ele><time>2026-04-20T19:25:47.040Z</time><hdop>11.25</hdop><vdop>4.25</vdop><extensions><gom:speed>0.778</gom:speed></extensions></trkpt>
   <trkpt lat="59.0718079286" lon="30.0310838897"><ele>91.048</ele><time>2026-04-20T19:25:47.801Z</time><hdop>10.75</hdop><vdop>3.5</vdop><extensions><gom:speed>0.765</gom:speed></extensions></trkpt>
   <trkpt lat="59.0717903266" lon="30.0310936127"><ele>92.67</ele><time>2026-04-20T19:25:48.718Z</time><hdop>9.75</hdop><vdop>3.125</vdop><extensions><gom:speed>0.732</gom:speed></extensions></trkpt>
   <trkpt lat="59.0717783405" lon="30.031100905"><ele>93.651</ele><time>2026-04-20T19:25:49.617Z</time><hdop>8.5</hdop><vdop>2.75</vdop><extensions><gom:speed>0.718</gom:speed></extensions></trkpt>
   <trkpt lat="59.0717737304" lon="30.0311042578"><ele>93.603</ele><time>2026-04-20T19:25:50.076Z</time><hdop>8.25</hdop><vdop>2.5</vdop><extensions><gom:speed>0.706</gom:speed></extensions></trkpt>
   <trkpt lat="59.0717658514" lon="30.0311061856"><ele>93.333</ele><time>2026-04-20T19:25:51.075Z</time><hdop>7.0</hdop><vdop>2.5</vdop><extensions><gom:speed>0.674</gom:speed></extensions></trkpt>
   <trkpt lat="59.0717618281" lon="30.0311030843"><ele>93.171</ele><time>2026-04-20T19:25:51.897Z</time><hdop>6.375</hdop><vdop>2.5</vdop><extensions><gom:speed>0.577</gom:speed></extensions></trkpt>
   <trkpt lat="59.0717603194" lon="30.0311046768"><ele>93.043</ele><time>2026-04-20T19:25:52.684Z</time><hdop>5.75</hdop><vdop>7.75</vdop><extensions><gom:speed>0.52</gom:speed></extensions></trkpt>
   <trkpt lat="59.0717524404" lon="30.0311112986"><ele>92.847</ele><time>2026-04-20T19:25:53.962Z</time><hdop>5.0</hdop><vdop>7.5</vdop><extensions><gom:speed>0.489</gom:speed></extensions></trkpt>
   <trkpt lat="59.0717480399" lon="30.0311207701"><ele>92.68</ele><time>2026-04-20T19:25:54.939Z</time><hdop>4.875</hdop><vdop>7.5</vdop><extensions><gom:speed>0.502</gom:speed></extensions></trkpt>
   <trkpt lat="59.0717439328" lon="30.0311252963"><ele>92.51</ele><time>2026-04-20T19:25:55.758Z</time><hdop>4.875</hdop><vdop>7.5</vdop><extensions><gom:speed>0.541</gom:speed></extensions></trkpt>
   <trkpt lat="59.0717386522" lon="30.0311340973"><ele>92.488</ele><time>2026-04-20T19:25:56.577Z</time><hdop>4.875</hdop><vdop>7.625</vdop><extensions><gom:speed>0.66</gom:speed></extensions></trkpt>
   <trkpt lat="59.0717324495" lon="30.0311372825"><ele>92.419</ele><time>2026-04-20T19:25:57.411Z</time><hdop>5.0</hdop><vdop>7.375</vdop><extensions><gom:speed>0.741</gom:speed></extensions></trkpt>
   <trkpt lat="59.0717283424" lon="30.0311436527"><ele>92.357</ele><time>2026-04-20T19:25:58.075Z</time><hdop>5.125</hdop><vdop>7.25</vdop><extensions><gom:speed>0.706</gom:speed></extensions></trkpt>
   <trkpt lat="59.0717244448" lon="30.0311489333"><ele>92.319</ele><time>2026-04-20T19:25:58.845Z</time><hdop>5.25</hdop><vdop>7.25</vdop><extensions><gom:speed>0.793</gom:speed></extensions></trkpt>
   <trkpt lat="59.0717143446" lon="30.0311607518"><ele>92.369</ele><time>2026-04-20T19:26:00.076Z</time><hdop>5.375</hdop><vdop>6.75</vdop><extensions><gom:speed>0.717</gom:speed></extensions></trkpt>
   <trkpt lat="59.0717097346" lon="30.0311690499"><ele>92.398</ele><time>2026-04-20T19:26:00.861Z</time><hdop>5.5</hdop><vdop>6.75</vdop><extensions><gom:speed>0.773</gom:speed></extensions></trkpt>
   <trkpt lat="59.0717037415" lon="30.0311804493"><ele>92.514</ele><time>2026-04-20T19:26:01.721Z</time><hdop>5.625</hdop><vdop>6.875</vdop><extensions><gom:speed>0.858</gom:speed></extensions></trkpt>
   <trkpt lat="59.0716985447" lon="30.0311928545"><ele>92.541</ele><time>2026-04-20T19:26:02.520Z</time><hdop>5.875</hdop><vdop>7.125</vdop><extensions><gom:speed>0.878</gom:speed></extensions></trkpt>
   <trkpt lat="59.0716971198" lon="30.0312027451"><ele>92.551</ele><time>2026-04-20T19:26:03.075Z</time><hdop>5.875</hdop><vdop>7.25</vdop><extensions><gom:speed>0.85</gom:speed></extensions></trkpt>
   <trkpt lat="59.0716923421" lon="30.0312152342"><ele>92.579</ele><time>2026-04-20T19:26:04.057Z</time><hdop>6.125</hdop><vdop>7.375</vdop><extensions><gom:speed>0.853</gom:speed></extensions></trkpt>
   <trkpt lat="59.0716874387" lon="30.031225041"><ele>92.596</ele><time>2026-04-20T19:26:04.860Z</time><hdop>6.25</hdop><vdop>7.375</vdop><extensions><gom:speed>0.886</gom:speed></extensions></trkpt>
   <trkpt lat="59.0716805237" lon="30.0312359375"><ele>92.606</ele><time>2026-04-20T19:26:05.896Z</time><hdop>6.5</hdop><vdop>7.125</vdop><extensions><gom:speed>0.869</gom:speed></extensions></trkpt>
   <trkpt lat="59.071674321" lon="30.0312439841"><ele>92.607</ele><time>2026-04-20T19:26:06.775Z</time><hdop>6.75</hdop><vdop>7.125</vdop><extensions><gom:speed>0.836</gom:speed></extensions></trkpt>
   <trkpt lat="59.0716674479" lon="30.0312516116"><ele>92.618</ele><time>2026-04-20T19:26:07.782Z</time><hdop>7.0</hdop><vdop>7.25</vdop><extensions><gom:speed>0.819</gom:speed></extensions></trkpt>
   <trkpt lat="59.0716680346" lon="30.0312527013"><ele>92.622</ele><time>2026-04-20T19:26:08.581Z</time><hdop>7.25</hdop><vdop>7.375</vdop><extensions><gom:speed>0.824</gom:speed></extensions></trkpt>
   <trkpt lat="59.0716656458" lon="30.0312525336"><ele>92.618</ele><time>2026-04-20T19:26:09.033Z</time><hdop>7.25</hdop><vdop>6.625</vdop><extensions><gom:speed>0.825</gom:speed></extensions></trkpt>
   <trkpt lat="59.0716635503" lon="30.031251444"><ele>92.616</ele><time>2026-04-20T19:26:09.500Z</time><hdop>7.375</hdop><vdop>6.625</vdop><extensions><gom:speed>0.781</gom:speed></extensions></trkpt>
   <trkpt lat="59.0716601556" lon="30.0312511925"><ele>92.614</ele><time>2026-04-20T19:26:09.981Z</time><hdop>7.5</hdop><vdop>6.25</vdop><extensions><gom:speed>0.787</gom:speed></extensions></trkpt>
   <trkpt lat="59.0716561323" lon="30.0312521145"><ele>92.612</ele><time>2026-04-20T19:26:10.674Z</time><hdop>7.625</hdop><vdop>6.25</vdop><extensions><gom:speed>0.719</gom:speed></extensions></trkpt>
   <trkpt lat="59.0716527376" lon="30.0312540424"><ele>92.616</ele><time>2026-04-20T19:26:11.239Z</time><hdop>7.75</hdop><vdop>5.875</vdop><extensions><gom:speed>0.71</gom:speed></extensions></trkpt>
   <trkpt lat="59.0716494268" lon="30.0312550482"><ele>92.619</ele><time>2026-04-20T19:26:11.760Z</time><hdop>7.875</hdop><vdop>5.875</vdop><extensions><gom:speed>0.702</gom:speed></extensions></trkpt>
   <trkpt lat="59.0716420507" lon="30.0312555511"><ele>92.616</ele><time>2026-04-20T19:26:12.942Z</time><hdop>8.0</hdop><vdop>5.625</vdop><extensions><gom:speed>0.575</gom:speed></extensions></trkpt>
   <trkpt lat="59.0716397457" lon="30.0312604964"><ele>92.615</ele><time>2026-04-20T19:26:14.008Z</time><hdop>8.25</hdop><vdop>5.625</vdop><extensions><gom:speed>0.301</gom:speed></extensions></trkpt>
   <trkpt lat="59.0716399552" lon="30.0312621728"><ele>92.613</ele><time>2026-04-20T19:26:14.957Z</time><hdop>8.375</hdop><vdop>5.75</vdop><extensions><gom:speed>0.211</gom:speed></extensions></trkpt>
   <trkpt lat="59.0716414221" lon="30.0312601612"><ele>92.618</ele><time>2026-04-20T19:26:16.022Z</time><hdop>8.5</hdop><vdop>5.75</vdop><extensions><gom:speed>0.172</gom:speed></extensions></trkpt>
   <trkpt lat="59.0716436433" lon="30.031257898"><ele>92.621</ele><time>2026-04-20T19:26:17.032Z</time><hdop>8.75</hdop><vdop>5.75</vdop><extensions><gom:speed>0.166</gom:speed></extensions></trkpt>
   <trkpt lat="59.0716436433" lon="30.0312568084"><ele>92.628</ele><time>2026-04-20T19:26:18.036Z</time><hdop>8.875</hdop><vdop>5.5</vdop><extensions><gom:speed>0.185</gom:speed></extensions></trkpt>
   <trkpt lat="59.0716425536" lon="30.0312578142"><ele>92.632</ele><time>2026-04-20T19:26:18.919Z</time><hdop>8.875</hdop><vdop>5.5</vdop><extensions><gom:speed>0.231</gom:speed></extensions></trkpt>
   <trkpt lat="59.0716394523" lon="30.0312590715"><ele>92.613</ele><time>2026-04-20T19:26:19.855Z</time><hdop>9.0</hdop><vdop>5.25</vdop><extensions><gom:speed>0.295</gom:speed></extensions></trkpt>
   <trkpt lat="59.071635429" lon="30.0312596582"><ele>92.588</ele><time>2026-04-20T19:26:20.596Z</time><hdop>9.125</hdop><vdop>5.25</vdop><extensions><gom:speed>0.397</gom:speed></extensions></trkpt>
   <trkpt lat="59.071629436" lon="30.0312589877"><ele>92.57</ele><time>2026-04-20T19:26:21.613Z</time><hdop>9.375</hdop><vdop>5.125</vdop><extensions><gom:speed>0.473</gom:speed></extensions></trkpt>
   <trkpt lat="59.071626628" lon="30.031258401"><ele>92.558</ele><time>2026-04-20T19:26:22.064Z</time><hdop>9.5</hdop><vdop>5.25</vdop><extensions><gom:speed>0.48</gom:speed></extensions></trkpt>
   <trkpt lat="59.07162294" lon="30.0312589039"><ele>92.55</ele><time>2026-04-20T19:26:22.640Z</time><hdop>9.625</hdop><vdop>5.25</vdop><extensions><gom:speed>0.55</gom:speed></extensions></trkpt>
   <trkpt lat="59.0716310285" lon="30.0312724825"><ele>92.11</ele><time>2026-04-20T19:26:23.604Z</time><hdop>9.5</hdop><vdop>4.0</vdop><extensions><gom:speed>0.57</gom:speed></extensions></trkpt>
   <trkpt lat="59.0716364348" lon="30.0312901684"><ele>92.534</ele><time>2026-04-20T19:26:24.076Z</time><hdop>9.25</hdop><vdop>3.125</vdop><extensions><gom:speed>0.638</gom:speed></extensions></trkpt>
   <trkpt lat="59.0716353452" lon="30.0313032441"><ele>92.787</ele><time>2026-04-20T19:26:25.039Z</time><hdop>9.125</hdop><vdop>3.125</vdop><extensions><gom:speed>0.704</gom:speed></extensions></trkpt>
   <trkpt lat="59.0716339203" lon="30.0313239474"><ele>93.642</ele><time>2026-04-20T19:26:25.898Z</time><hdop>8.625</hdop><vdop>2.75</vdop><extensions><gom:speed>0.786</gom:speed></extensions></trkpt>
   <trkpt lat="59.0716288492" lon="30.0313400407"><ele>94.057</ele><time>2026-04-20T19:26:26.721Z</time><hdop>8.125</hdop><vdop>2.5</vdop><extensions><gom:speed>0.805</gom:speed></extensions></trkpt>
   <trkpt lat="59.0716209283" lon="30.0313501828"><ele>94.847</ele><time>2026-04-20T19:26:27.536Z</time><hdop>7.5</hdop><vdop>2.5</vdop><extensions><gom:speed>0.843</gom:speed></extensions></trkpt>
   <trkpt lat="59.0716143485" lon="30.0313573074"><ele>95.245</ele><time>2026-04-20T19:26:28.075Z</time><hdop>6.875</hdop><vdop>6.5</vdop><extensions><gom:speed>0.824</gom:speed></extensions></trkpt>
   <trkpt lat="59.0716024462" lon="30.0313698803"><ele>95.329</ele><time>2026-04-20T19:26:29.075Z</time><hdop>6.375</hdop><vdop>6.75</vdop><extensions><gom:speed>0.84</gom:speed></extensions></trkpt>
   <trkpt lat="59.0715981295" lon="30.0313766696"><ele>95.38</ele><time>2026-04-20T19:26:29.766Z</time><hdop>6.25</hdop><vdop>6.75</vdop><extensions><gom:speed>0.836</gom:speed></extensions></trkpt>
   <trkpt lat="59.0715909211" lon="30.0313910027"><ele>95.423</ele><time>2026-04-20T19:26:30.241Z</time><hdop>5.875</hdop><vdop>6.875</vdop><extensions><gom:speed>0.819</gom:speed></extensions></trkpt>
   <trkpt lat="59.0715868559" lon="30.0314011448"><ele>95.449</ele><time>2026-04-20T19:26:31.081Z</time><hdop>5.75</hdop><vdop>6.875</vdop><extensions><gom:speed>0.85</gom:speed></extensions></trkpt>
   <trkpt lat="59.0715827488" lon="30.0314078503"><ele>95.185</ele><time>2026-04-20T19:26:31.694Z</time><hdop>5.75</hdop><vdop>7.0</vdop><extensions><gom:speed>0.892</gom:speed></extensions></trkpt>
   <trkpt lat="59.0715751212" lon="30.0314164836"><ele>95.171</ele><time>2026-04-20T19:26:32.525Z</time><hdop>5.625</hdop><vdop>7.0</vdop><extensions><gom:speed>0.89</gom:speed></extensions></trkpt>
   <trkpt lat="59.0715684576" lon="30.0314227701"><ele>95.052</ele><time>2026-04-20T19:26:33.341Z</time><hdop>5.5</hdop><vdop>6.875</vdop><extensions><gom:speed>0.894</gom:speed></extensions></trkpt>
   <trkpt lat="59.0715617521" lon="30.0314272963"><ele>94.981</ele><time>2026-04-20T19:26:34.032Z</time><hdop>5.625</hdop><vdop>6.875</vdop><extensions><gom:speed>0.971</gom:speed></extensions></trkpt>
   <trkpt lat="59.0715536216" lon="30.0314309843"><ele>94.859</ele><time>2026-04-20T19:26:34.901Z</time><hdop>5.625</hdop><vdop>7.0</vdop><extensions><gom:speed>0.942</gom:speed></extensions></trkpt>
   <trkpt lat="59.0715504365" lon="30.0314319902"><ele>94.645</ele><time>2026-04-20T19:26:35.925Z</time><hdop>5.625</hdop><vdop>6.625</vdop><extensions><gom:speed>0.909</gom:speed></extensions></trkpt>
   <trkpt lat="59.0715396239" lon="30.0314360973"><ele>94.46</ele><time>2026-04-20T19:26:36.935Z</time><hdop>5.75</hdop><vdop>6.625</vdop><extensions><gom:speed>0.791</gom:speed></extensions></trkpt>
   <trkpt lat="59.0715350557" lon="30.031441797"><ele>94.243</ele><time>2026-04-20T19:26:37.813Z</time><hdop>5.875</hdop><vdop>6.5</vdop><extensions><gom:speed>0.764</gom:speed></extensions></trkpt>
   <trkpt lat="59.0715324573" lon="30.0314493407"><ele>94.104</ele><time>2026-04-20T19:26:38.652Z</time><hdop>5.875</hdop><vdop>6.375</vdop><extensions><gom:speed>0.767</gom:speed></extensions></trkpt>
   <trkpt lat="59.0715291465" lon="30.0314585608"><ele>94.013</ele><time>2026-04-20T19:26:39.414Z</time><hdop>5.875</hdop><vdop>6.125</vdop><extensions><gom:speed>0.77</gom:speed></extensions></trkpt>
   <trkpt lat="59.0715279311" lon="30.0314638414"><ele>93.959</ele><time>2026-04-20T19:26:40.075Z</time><hdop>5.875</hdop><vdop>6.0</vdop><extensions><gom:speed>0.726</gom:speed></extensions></trkpt>
   <trkpt lat="59.0715256261" lon="30.0314734806"><ele>93.926</ele><time>2026-04-20T19:26:40.953Z</time><hdop>5.875</hdop><vdop>6.0</vdop><extensions><gom:speed>0.793</gom:speed></extensions></trkpt>
   <trkpt lat="59.0715210579" lon="30.0314827845"><ele>93.906</ele><time>2026-04-20T19:26:41.753Z</time><hdop>5.875</hdop><vdop>6.125</vdop><extensions><gom:speed>0.84</gom:speed></extensions></trkpt>
   <trkpt lat="59.0715107482" lon="30.0314930942"><ele>93.903</ele><time>2026-04-20T19:26:42.720Z</time><hdop>6.125</hdop><vdop>6.0</vdop><extensions><gom:speed>0.82</gom:speed></extensions></trkpt>
   <trkpt lat="59.0715074374" lon="30.0314969499"><ele>93.903</ele><time>2026-04-20T19:26:43.482Z</time><hdop>6.25</hdop><vdop>6.0</vdop><extensions><gom:speed>0.796</gom:speed></extensions></trkpt>
   <trkpt lat="59.0715047551" lon="30.031502482"><ele>93.918</ele><time>2026-04-20T19:26:43.981Z</time><hdop>6.375</hdop><vdop>6.0</vdop><extensions><gom:speed>0.794</gom:speed></extensions></trkpt>
   <trkpt lat="59.071500648" lon="30.0315137137"><ele>93.927</ele><time>2026-04-20T19:26:44.941Z</time><hdop>6.5</hdop><vdop>6.0</vdop><extensions><gom:speed>0.846</gom:speed></extensions></trkpt>
   <trkpt lat="59.0714963313" lon="30.0315253646"><ele>93.949</ele><time>2026-04-20T19:26:45.824Z</time><hdop>6.75</hdop><vdop>6.125</vdop><extensions><gom:speed>0.835</gom:speed></extensions></trkpt>
   <trkpt lat="59.0714990555" lon="30.031523772"><ele>93.965</ele><time>2026-04-20T19:26:46.561Z</time><hdop>6.875</hdop><vdop>6.25</vdop><extensions><gom:speed>0.789</gom:speed></extensions></trkpt>
   <trkpt lat="59.0714988459" lon="30.0315305613"><ele>93.96</ele><time>2026-04-20T19:26:47.321Z</time><hdop>6.875</hdop><vdop>6.375</vdop><extensions><gom:speed>0.781</gom:speed></extensions></trkpt>
   <trkpt lat="59.0714978401" lon="30.0315415416"><ele>93.957</ele><time>2026-04-20T19:26:48.044Z</time><hdop>6.875</hdop><vdop>6.375</vdop><extensions><gom:speed>0.818</gom:speed></extensions></trkpt>
   <trkpt lat="59.0714958284" lon="30.031562664"><ele>93.95</ele><time>2026-04-20T19:26:49.018Z</time><hdop>6.875</hdop><vdop>6.375</vdop><extensions><gom:speed>0.837</gom:speed></extensions></trkpt>
   <trkpt lat="59.0714950321" lon="30.0315726385"><ele>93.945</ele><time>2026-04-20T19:26:49.799Z</time><hdop>6.875</hdop><vdop>6.5</vdop><extensions><gom:speed>0.832</gom:speed></extensions></trkpt>
   <trkpt lat="59.0714933558" lon="30.0315795955"><ele>93.935</ele><time>2026-04-20T19:26:50.420Z</time><hdop>6.875</hdop><vdop>6.625</vdop><extensions><gom:speed>0.773</gom:speed></extensions></trkpt>
   <trkpt lat="59.0714961218" lon="30.0315770809"><ele>92.832</ele><time>2026-04-20T19:26:51.075Z</time><hdop>6.875</hdop><vdop>5.625</vdop><extensions><gom:speed>0.749</gom:speed></extensions></trkpt>
   <trkpt lat="59.0714984268" lon="30.0315736443"><ele>92.905</ele><time>2026-04-20T19:26:52.076Z</time><hdop>6.75</hdop><vdop>4.75</vdop><extensions><gom:speed>0.709</gom:speed></extensions></trkpt>
   <trkpt lat="59.0714961218" lon="30.0315761589"><ele>92.949</ele><time>2026-04-20T19:26:52.801Z</time><hdop>6.625</hdop><vdop>4.75</vdop><extensions><gom:speed>0.812</gom:speed></extensions></trkpt>
   <trkpt lat="59.0714931462" lon="30.0315811042"><ele>92.231</ele><time>2026-04-20T19:26:53.619Z</time><hdop>6.375</hdop><vdop>4.375</vdop><extensions><gom:speed>0.863</gom:speed></extensions></trkpt>
   <trkpt lat="59.0714919308" lon="30.0315868039"><ele>91.998</ele><time>2026-04-20T19:26:54.075Z</time><hdop>6.25</hdop><vdop>3.875</vdop><extensions><gom:speed>0.841</gom:speed></extensions></trkpt>
   <trkpt lat="59.0714850577" lon="30.0316050765"><ele>91.77</ele><time>2026-04-20T19:26:55.076Z</time><hdop>6.0</hdop><vdop>3.75</vdop><extensions><gom:speed>0.866</gom:speed></extensions></trkpt>
   <trkpt lat="59.0714792322" lon="30.0316144642"><ele>91.634</ele><time>2026-04-20T19:26:56.077Z</time><hdop>5.625</hdop><vdop>3.75</vdop><extensions><gom:speed>0.866</gom:speed></extensions></trkpt>
   <trkpt lat="59.0714724429" lon="30.0316265341"><ele>91.82</ele><time>2026-04-20T19:26:56.916Z</time><hdop>5.5</hdop><vdop>3.375</vdop><extensions><gom:speed>0.9</gom:speed></extensions></trkpt>
   <trkpt lat="59.0714649411" lon="30.0316453096"><ele>91.734</ele><time>2026-04-20T19:26:57.873Z</time><hdop>5.25</hdop><vdop>3.25</vdop><extensions><gom:speed>0.893</gom:speed></extensions></trkpt>
   <trkpt lat="59.0714575231" lon="30.0316617381"><ele>91.938</ele><time>2026-04-20T19:26:58.772Z</time><hdop>5.0</hdop><vdop>3.25</vdop><extensions><gom:speed>0.877</gom:speed></extensions></trkpt>
   <trkpt lat="59.0714511529" lon="30.0316782505"><ele>91.982</ele><time>2026-04-20T19:26:59.553Z</time><hdop>4.875</hdop><vdop>3.125</vdop><extensions><gom:speed>0.921</gom:speed></extensions></trkpt>
   <trkpt lat="59.0714468362" lon="30.0316897337"><ele>92.32</ele><time>2026-04-20T19:27:00.075Z</time><hdop>4.875</hdop><vdop>3.125</vdop><extensions><gom:speed>0.929</gom:speed></extensions></trkpt>
   <trkpt lat="59.0714437349" lon="30.0316969421"><ele>92.522</ele><time>2026-04-20T19:27:00.685Z</time><hdop>4.75</hdop><vdop>3.125</vdop><extensions><gom:speed>0.903</gom:speed></extensions></trkpt>
   <trkpt lat="59.0714356464" lon="30.0317139574"><ele>92.432</ele><time>2026-04-20T19:27:01.379Z</time><hdop>4.625</hdop><vdop>3.0</vdop><extensions><gom:speed>0.929</gom:speed></extensions></trkpt>
   <trkpt lat="59.0714300305" lon="30.031725273"><ele>92.101</ele><time>2026-04-20T19:27:02.076Z</time><hdop>4.625</hdop><vdop>2.875</vdop><extensions><gom:speed>0.9</gom:speed></extensions></trkpt>
   <trkpt lat="59.0714204332" lon="30.0317392707"><ele>91.946</ele><time>2026-04-20T19:27:03.075Z</time><hdop>4.5</hdop><vdop>2.875</vdop><extensions><gom:speed>0.887</gom:speed></extensions></trkpt>
   <trkpt lat="59.0714102492" lon="30.0317503348"><ele>91.754</ele><time>2026-04-20T19:27:04.075Z</time><hdop>4.5</hdop><vdop>3.0</vdop><extensions><gom:speed>0.898</gom:speed></extensions></trkpt>
   <trkpt lat="59.0714007357" lon="30.0317609799"><ele>91.56</ele><time>2026-04-20T19:27:05.075Z</time><hdop>4.5</hdop><vdop>3.0</vdop><extensions><gom:speed>0.799</gom:speed></extensions></trkpt>
   <trkpt lat="59.071392731" lon="30.0317709543"><ele>91.443</ele><time>2026-04-20T19:27:06.058Z</time><hdop>4.5</hdop><vdop>3.0</vdop><extensions><gom:speed>0.84</gom:speed></extensions></trkpt>
   <trkpt lat="59.0713856483" lon="30.0317806773"><ele>91.405</ele><time>2026-04-20T19:27:06.779Z</time><hdop>4.625</hdop><vdop>8.375</vdop><extensions><gom:speed>0.83</gom:speed></extensions></trkpt>
   <trkpt lat="59.0713768473" lon="30.0317945913"><ele>91.347</ele><time>2026-04-20T19:27:07.775Z</time><hdop>4.75</hdop><vdop>8.0</vdop><extensions><gom:speed>0.756</gom:speed></extensions></trkpt>
   <trkpt lat="59.0713746261" lon="30.0318059069"><ele>91.192</ele><time>2026-04-20T19:27:08.675Z</time><hdop>4.875</hdop><vdop>7.875</vdop><extensions><gom:speed>0.737</gom:speed></extensions></trkpt>
   <trkpt lat="59.0713731174" lon="30.0318212458"><ele>91.076</ele><time>2026-04-20T19:27:09.682Z</time><hdop>5.0</hdop><vdop>7.75</vdop><extensions><gom:speed>0.695</gom:speed></extensions></trkpt>
   <trkpt lat="59.0713716505" lon="30.0318334833"><ele>91.014</ele><time>2026-04-20T19:27:10.737Z</time><hdop>5.125</hdop><vdop>7.875</vdop><extensions><gom:speed>0.645</gom:speed></extensions></trkpt>
   <trkpt lat="59.071368633" lon="30.0318430387"><ele>90.902</ele><time>2026-04-20T19:27:11.598Z</time><hdop>5.25</hdop><vdop>8.125</vdop><extensions><gom:speed>0.64</gom:speed></extensions></trkpt>
   <trkpt lat="59.0713636458" lon="30.0318535161"><ele>90.66</ele><time>2026-04-20T19:27:12.613Z</time><hdop>5.375</hdop><vdop>8.375</vdop><extensions><gom:speed>0.701</gom:speed></extensions></trkpt>
   <trkpt lat="59.071360754" lon="30.0318585452"><ele>90.562</ele><time>2026-04-20T19:27:13.075Z</time><hdop>5.375</hdop><vdop>8.25</vdop><extensions><gom:speed>0.711</gom:speed></extensions></trkpt>
   <trkpt lat="59.0713548448" lon="30.0318668433"><ele>90.417</ele><time>2026-04-20T19:27:13.953Z</time><hdop>5.5</hdop><vdop>7.75</vdop><extensions><gom:speed>0.713</gom:speed></extensions></trkpt>
   <trkpt lat="59.0713481393" lon="30.0318741356"><ele>90.331</ele><time>2026-04-20T19:27:15.083Z</time><hdop>5.75</hdop><vdop>7.75</vdop><extensions><gom:speed>0.708</gom:speed></extensions></trkpt>
   <trkpt lat="59.07134223" lon="30.0318811764"><ele>90.199</ele><time>2026-04-20T19:27:16.003Z</time><hdop>5.75</hdop><vdop>8.0</vdop><extensions><gom:speed>0.758</gom:speed></extensions></trkpt>
   <trkpt lat="59.0713370333" lon="30.0318885524"><ele>90.136</ele><time>2026-04-20T19:27:16.798Z</time><hdop>5.875</hdop><vdop>8.25</vdop><extensions><gom:speed>0.805</gom:speed></extensions></trkpt>
   <trkpt lat="59.0713332195" lon="30.031899868"><ele>90.175</ele><time>2026-04-20T19:27:17.779Z</time><hdop>5.875</hdop><vdop>8.5</vdop><extensions><gom:speed>0.792</gom:speed></extensions></trkpt>
   <trkpt lat="59.0713299506" lon="30.0319111836"><ele>90.242</ele><time>2026-04-20T19:27:18.556Z</time><hdop>6.0</hdop><vdop>8.375</vdop><extensions><gom:speed>0.848</gom:speed></extensions></trkpt>
   <trkpt lat="59.0713276455" lon="30.0319191464"><ele>90.312</ele><time>2026-04-20T19:27:19.047Z</time><hdop>6.125</hdop><vdop>8.0</vdop><extensions><gom:speed>0.854</gom:speed></extensions></trkpt>
   <trkpt lat="59.0713216525" lon="30.031940185"><ele>90.353</ele><time>2026-04-20T19:27:19.997Z</time><hdop>6.25</hdop><vdop>8.0</vdop><extensions><gom:speed>0.912</gom:speed></extensions></trkpt>
   <trkpt lat="59.0713181321" lon="30.031949908"><ele>90.427</ele><time>2026-04-20T19:27:20.761Z</time><hdop>6.25</hdop><vdop>7.875</vdop><extensions><gom:speed>0.945</gom:speed></extensions></trkpt>
   <trkpt lat="59.0713169167" lon="30.0319510814"><ele>90.495</ele><time>2026-04-20T19:27:21.419Z</time><hdop>6.375</hdop><vdop>7.625</vdop><extensions><gom:speed>0.952</gom:speed></extensions></trkpt>
   <trkpt lat="59.0713131448" lon="30.0319574517"><ele>90.546</ele><time>2026-04-20T19:27:22.010Z</time><hdop>6.375</hdop><vdop>7.875</vdop><extensions><gom:speed>0.952</gom:speed></extensions></trkpt>
   <trkpt lat="59.0713058526" lon="30.0319677614"><ele>90.577</ele><time>2026-04-20T19:27:23.038Z</time><hdop>6.625</hdop><vdop>7.875</vdop><extensions><gom:speed>0.987</gom:speed></extensions></trkpt>
   <trkpt lat="59.0713002367" lon="30.031976311"><ele>90.594</ele><time>2026-04-20T19:27:23.821Z</time><hdop>6.75</hdop><vdop>7.75</vdop><extensions><gom:speed>0.984</gom:speed></extensions></trkpt>
   <trkpt lat="59.0712935312" lon="30.0319843576"><ele>90.592</ele><time>2026-04-20T19:27:24.657Z</time><hdop>6.875</hdop><vdop>7.5</vdop><extensions><gom:speed>0.992</gom:speed></extensions></trkpt>
   <trkpt lat="59.0712868257" lon="30.0319921528"><ele>90.597</ele><time>2026-04-20T19:27:25.437Z</time><hdop>7.0</hdop><vdop>7.5</vdop><extensions><gom:speed>0.965</gom:speed></extensions></trkpt>
   <trkpt lat="59.0712839339" lon="30.0319947511"><ele>90.596</ele><time>2026-04-20T19:27:26.076Z</time><hdop>7.125</hdop><vdop>7.5</vdop><extensions><gom:speed>0.921</gom:speed></extensions></trkpt>
   <trkpt lat="59.0712822575" lon="30.031997601"><ele>90.596</ele><time>2026-04-20T19:27:26.919Z</time><hdop>7.25</hdop><vdop>7.5</vdop><extensions><gom:speed>0.947</gom:speed></extensions></trkpt>
   <trkpt lat="59.0712771446" lon="30.0320048094"><ele>90.596</ele><time>2026-04-20T19:27:27.778Z</time><hdop>7.375</hdop><vdop>7.25</vdop><extensions><gom:speed>0.943</gom:speed></extensions></trkpt>
   <trkpt lat="59.0712708162" lon="30.0320121855"><ele>90.59</ele><time>2026-04-20T19:27:28.597Z</time><hdop>7.5</hdop><vdop>7.125</vdop><extensions><gom:speed>0.935</gom:speed></extensions></trkpt>
   <trkpt lat="59.0712647393" lon="30.032019813"><ele>90.59</ele><time>2026-04-20T19:27:29.377Z</time><hdop>7.625</hdop><vdop>6.875</vdop><extensions><gom:speed>0.93</gom:speed></extensions></trkpt>
   <trkpt lat="59.0712594168" lon="30.032025848"><ele>90.594</ele><time>2026-04-20T19:27:29.947Z</time><hdop>7.75</hdop><vdop>6.875</vdop><extensions><gom:speed>0.918</gom:speed></extensions></trkpt>
   <trkpt lat="59.0712509511" lon="30.0320338946"><ele>90.597</ele><time>2026-04-20T19:27:30.975Z</time><hdop>7.875</hdop><vdop>6.875</vdop><extensions><gom:speed>0.938</gom:speed></extensions></trkpt>
   <trkpt lat="59.0712447485" lon="30.0320392591"><ele>90.602</ele><time>2026-04-20T19:27:31.656Z</time><hdop>8.25</hdop><vdop>6.625</vdop><extensions><gom:speed>0.96</gom:speed></extensions></trkpt>
   <trkpt lat="59.0712363247" lon="30.0320447073"><ele>90.614</ele><time>2026-04-20T19:27:32.535Z</time><hdop>8.5</hdop><vdop>6.625</vdop><extensions><gom:speed>0.921</gom:speed></extensions></trkpt>
   <trkpt lat="59.0712423178" lon="30.0320369959"><ele>90.62</ele><time>2026-04-20T19:27:33.076Z</time><hdop>8.5</hdop><vdop>7.0</vdop><extensions><gom:speed>0.869</gom:speed></extensions></trkpt>
   <trkpt lat="59.071242653" lon="30.0320321344"><ele>90.624</ele><time>2026-04-20T19:27:33.974Z</time><hdop>8.625</hdop><vdop>7.0</vdop><extensions><gom:speed>0.873</gom:speed></extensions></trkpt>
   <trkpt lat="59.0712382525" lon="30.0320245069"><ele>90.628</ele><time>2026-04-20T19:27:35.040Z</time><hdop>8.625</hdop><vdop>6.875</vdop><extensions><gom:speed>0.778</gom:speed></extensions></trkpt>
   <trkpt lat="59.0712408509" lon="30.032011934"><ele>90.631</ele><time>2026-04-20T19:27:35.988Z</time><hdop>8.625</hdop><vdop>6.75</vdop><extensions><gom:speed>0.619</gom:speed></extensions></trkpt>
   <trkpt lat="59.0712451257" lon="30.03200548"><ele>90.637</ele><time>2026-04-20T19:27:36.936Z</time><hdop>8.625</hdop><vdop>6.75</vdop><extensions><gom:speed>0.374</gom:speed></extensions></trkpt>
   <trkpt lat="59.0712466344" lon="30.0320058153"><ele>90.64</ele><time>2026-04-20T19:27:37.765Z</time><hdop>8.625</hdop><vdop>6.75</vdop><extensions><gom:speed>0.242</gom:speed></extensions></trkpt>
   <trkpt lat="59.071248227" lon="30.032001289"><ele>90.655</ele><time>2026-04-20T19:27:38.950Z</time><hdop>8.625</hdop><vdop>7.0</vdop><extensions><gom:speed>0.144</gom:speed></extensions></trkpt>
   <trkpt lat="59.0712485204" lon="30.0320002832"><ele>90.681</ele><time>2026-04-20T19:27:40.016Z</time><hdop>8.625</hdop><vdop>6.75</vdop><extensions><gom:speed>0.128</gom:speed></extensions></trkpt>
   <trkpt lat="59.0712489395" lon="30.0320008699"><ele>90.697</ele><time>2026-04-20T19:27:40.492Z</time><hdop>8.625</hdop><vdop>6.75</vdop><extensions><gom:speed>0.101</gom:speed></extensions></trkpt>
   <trkpt lat="59.0712488556" lon="30.0320009538"><ele>90.707</ele><time>2026-04-20T19:27:41.076Z</time><hdop>8.625</hdop><vdop>6.75</vdop><extensions><gom:speed>0.135</gom:speed></extensions></trkpt>
   <trkpt lat="59.0712476403" lon="30.032001289"><ele>90.718</ele><time>2026-04-20T19:27:42.031Z</time><hdop>8.75</hdop><vdop>6.875</vdop><extensions><gom:speed>0.167</gom:speed></extensions></trkpt>
   <trkpt lat="59.071245922" lon="30.0320035521"><ele>90.724</ele><time>2026-04-20T19:27:42.921Z</time><hdop>8.875</hdop><vdop>6.875</vdop><extensions><gom:speed>0.222</gom:speed></extensions></trkpt>
   <trkpt lat="59.0712439522" lon="30.0320077431"><ele>90.73</ele><time>2026-04-20T19:27:43.878Z</time><hdop>9.0</hdop><vdop>7.25</vdop><extensions><gom:speed>0.278</gom:speed></extensions></trkpt>
   <trkpt lat="59.0712402223" lon="30.0320148677"><ele>90.736</ele><time>2026-04-20T19:27:44.620Z</time><hdop>9.125</hdop><vdop>7.5</vdop><extensions><gom:speed>0.414</gom:speed></extensions></trkpt>
   <trkpt lat="59.0712360313" lon="30.0320209027"><ele>90.764</ele><time>2026-04-20T19:27:45.416Z</time><hdop>9.25</hdop><vdop>7.25</vdop><extensions><gom:speed>0.539</gom:speed></extensions></trkpt>
   <trkpt lat="59.0712326367" lon="30.0320257642"><ele>90.779</ele><time>2026-04-20T19:27:45.939Z</time><hdop>9.375</hdop><vdop>7.375</vdop><extensions><gom:speed>0.57</gom:speed></extensions></trkpt>
   <trkpt lat="59.0712258473" lon="30.032037415"><ele>90.789</ele><time>2026-04-20T19:27:47.040Z</time><hdop>9.5</hdop><vdop>7.375</vdop><extensions><gom:speed>0.72</gom:speed></extensions></trkpt>
   <trkpt lat="59.0712421501" lon="30.0320390914"><ele>89.415</ele><time>2026-04-20T19:27:47.799Z</time><hdop>9.25</hdop><vdop>5.875</vdop><extensions><gom:speed>0.779</gom:speed></extensions></trkpt>
   <trkpt lat="59.0712532561" lon="30.032040684"><ele>87.571</ele><time>2026-04-20T19:27:48.578Z</time><hdop>8.75</hdop><vdop>5.5</vdop><extensions><gom:speed>0.751</gom:speed></extensions></trkpt>
   <trkpt lat="59.0712576566" lon="30.032040684"><ele>86.242</ele><time>2026-04-20T19:27:49.075Z</time><hdop>8.5</hdop><vdop>5.375</vdop><extensions><gom:speed>0.718</gom:speed></extensions></trkpt>
   <trkpt lat="59.0712582434" lon="30.0320466351"><ele>85.393</ele><time>2026-04-20T19:27:50.075Z</time><hdop>7.75</hdop><vdop>5.125</vdop><extensions><gom:speed>0.684</gom:speed></extensions></trkpt>
   <trkpt lat="59.0712566508" lon="30.0320598785"><ele>84.885</ele><time>2026-04-20T19:27:51.095Z</time><hdop>6.625</hdop><vdop>5.125</vdop><extensions><gom:speed>0.703</gom:speed></extensions></trkpt>
   <trkpt lat="59.0712571537" lon="30.0320717808"><ele>84.631</ele><time>2026-04-20T19:27:51.994Z</time><hdop>6.25</hdop><vdop>5.0</vdop><extensions><gom:speed>0.706</gom:speed></extensions></trkpt>
   <trkpt lat="59.0712560222" lon="30.032088377"><ele>84.833</ele><time>2026-04-20T19:27:52.892Z</time><hdop>5.5</hdop><vdop>5.125</vdop><extensions><gom:speed>0.744</gom:speed></extensions></trkpt>
   <trkpt lat="59.0712515379" lon="30.0321079907"><ele>84.87</ele><time>2026-04-20T19:27:53.839Z</time><hdop>5.25</hdop><vdop>5.125</vdop><extensions><gom:speed>0.771</gom:speed></extensions></trkpt>
   <trkpt lat="59.0712448323" lon="30.0321247545"><ele>85.488</ele><time>2026-04-20T19:27:54.798Z</time><hdop>5.125</hdop><vdop>5.0</vdop><extensions><gom:speed>0.762</gom:speed></extensions></trkpt>
   <trkpt lat="59.071238043" lon="30.0321364891"><ele>86.142</ele><time>2026-04-20T19:27:55.558Z</time><hdop>5.0</hdop><vdop>4.625</vdop><extensions><gom:speed>0.79</gom:speed></extensions></trkpt>
   <trkpt lat="59.0712321337" lon="30.0321426079"><ele>86.508</ele><time>2026-04-20T19:27:56.075Z</time><hdop>5.0</hdop><vdop>4.375</vdop><extensions><gom:speed>0.836</gom:speed></extensions></trkpt>
   <trkpt lat="59.071219058" lon="30.0321525824"><ele>86.708</ele><time>2026-04-20T19:27:57.075Z</time><hdop>4.875</hdop><vdop>4.25</vdop><extensions><gom:speed>0.837</gom:speed></extensions></trkpt>
   <trkpt lat="59.071210718" lon="30.0321607966"><ele>86.9</ele><time>2026-04-20T19:27:58.075Z</time><hdop>4.75</hdop><vdop>4.375</vdop><extensions><gom:speed>0.787</gom:speed></extensions></trkpt>
   <trkpt lat="59.0712053536" lon="30.0321633112"><ele>87.014</ele><time>2026-04-20T19:27:58.677Z</time><hdop>4.75</hdop><vdop>4.375</vdop><extensions><gom:speed>0.822</gom:speed></extensions></trkpt>
   <trkpt lat="59.0711982289" lon="30.0321690947"><ele>87.173</ele><time>2026-04-20T19:27:59.339Z</time><hdop>4.75</hdop><vdop>4.375</vdop><extensions><gom:speed>0.824</gom:speed></extensions></trkpt>
   <trkpt lat="59.0711913558" lon="30.0321765546"><ele>87.33</ele><time>2026-04-20T19:28:00.075Z</time><hdop>4.625</hdop><vdop>4.0</vdop><extensions><gom:speed>0.821</gom:speed></extensions></trkpt>
   <trkpt lat="59.0711832253" lon="30.0321905524"><ele>87.294</ele><time>2026-04-20T19:28:01.075Z</time><hdop>4.625</hdop><vdop>9.0</vdop><extensions><gom:speed>0.778</gom:speed></extensions></trkpt>
   <trkpt lat="59.0711799564" lon="30.0322033767"><ele>87.272</ele><time>2026-04-20T19:28:01.974Z</time><hdop>4.625</hdop><vdop>9.0</vdop><extensions><gom:speed>0.726</gom:speed></extensions></trkpt>
   <trkpt lat="59.0711795373" lon="30.0322116748"><ele>86.985</ele><time>2026-04-20T19:28:02.525Z</time><hdop>4.625</hdop><vdop>8.875</vdop><extensions><gom:speed>0.741</gom:speed></extensions></trkpt>
   <trkpt lat="59.0711807527" lon="30.0322307017"><ele>86.751</ele><time>2026-04-20T19:28:03.075Z</time><hdop>4.625</hdop><vdop>8.75</vdop><extensions><gom:speed>0.783</gom:speed></extensions></trkpt>
   <trkpt lat="59.0711814232" lon="30.0322423526"><ele>86.612</ele><time>2026-04-20T19:28:03.745Z</time><hdop>4.625</hdop><vdop>8.75</vdop><extensions><gom:speed>0.822</gom:speed></extensions></trkpt>
   <trkpt lat="59.0711760169" lon="30.0322592002"><ele>86.456</ele><time>2026-04-20T19:28:04.620Z</time><hdop>4.625</hdop><vdop>8.625</vdop><extensions><gom:speed>0.87</gom:speed></extensions></trkpt>
   <trkpt lat="59.0711719517" lon="30.0322669954"><ele>86.279</ele><time>2026-04-20T19:28:05.075Z</time><hdop>4.625</hdop><vdop>8.625</vdop><extensions><gom:speed>0.885</gom:speed></extensions></trkpt>
   <trkpt lat="59.0711645337" lon="30.0322821666"><ele>86.118</ele><time>2026-04-20T19:28:06.079Z</time><hdop>4.75</hdop><vdop>8.625</vdop><extensions><gom:speed>0.892</gom:speed></extensions></trkpt>
   <trkpt lat="59.0711582473" lon="30.0322955777"><ele>85.883</ele><time>2026-04-20T19:28:07.075Z</time><hdop>4.75</hdop><vdop>8.375</vdop><extensions><gom:speed>0.863</gom:speed></extensions></trkpt>
   <trkpt lat="59.071152338" lon="30.0323064741"><ele>85.665</ele><time>2026-04-20T19:28:07.974Z</time><hdop>4.875</hdop><vdop>8.25</vdop><extensions><gom:speed>0.855</gom:speed></extensions></trkpt>
   <trkpt lat="59.0711504521" lon="30.0323089887"><ele>85.536</ele><time>2026-04-20T19:28:08.685Z</time><hdop>5.0</hdop><vdop>8.25</vdop><extensions><gom:speed>0.853</gom:speed></extensions></trkpt>
   <trkpt lat="59.0711401424" lon="30.0323216454"><ele>85.406</ele><time>2026-04-20T19:28:09.694Z</time><hdop>5.125</hdop><vdop>7.75</vdop><extensions><gom:speed>0.799</gom:speed></extensions></trkpt>
   <trkpt lat="59.0711355323" lon="30.0323257525"><ele>85.312</ele><time>2026-04-20T19:28:10.436Z</time><hdop>5.25</hdop><vdop>7.5</vdop><extensions><gom:speed>0.77</gom:speed></extensions></trkpt>
   <trkpt lat="59.0711325567" lon="30.0323294405"><ele>85.324</ele><time>2026-04-20T19:28:11.075Z</time><hdop>5.25</hdop><vdop>7.0</vdop><extensions><gom:speed>0.738</gom:speed></extensions></trkpt>
   <trkpt lat="59.0711263541" lon="30.0323312846"><ele>85.363</ele><time>2026-04-20T19:28:12.002Z</time><hdop>5.375</hdop><vdop>7.0</vdop><extensions><gom:speed>0.707</gom:speed></extensions></trkpt>
   <trkpt lat="59.0711193552" lon="30.0323271774"><ele>85.387</ele><time>2026-04-20T19:28:13.061Z</time><hdop>5.375</hdop><vdop>7.0</vdop><extensions><gom:speed>0.759</gom:speed></extensions></trkpt>
   <trkpt lat="59.0711142423" lon="30.0323246629"><ele>85.435</ele><time>2026-04-20T19:28:13.920Z</time><hdop>5.5</hdop><vdop>6.625</vdop><extensions><gom:speed>0.787</gom:speed></extensions></trkpt>
   <trkpt lat="59.0711073272" lon="30.032322735"><ele>85.523</ele><time>2026-04-20T19:28:14.761Z</time><hdop>5.625</hdop><vdop>6.5</vdop><extensions><gom:speed>0.808</gom:speed></extensions></trkpt>
   <trkpt lat="59.0710982328" lon="30.032321813"><ele>85.596</ele><time>2026-04-20T19:28:15.539Z</time><hdop>5.75</hdop><vdop>6.375</vdop><extensions><gom:speed>0.84</gom:speed></extensions></trkpt>
   <trkpt lat="59.0710969336" lon="30.0323239085"><ele>85.691</ele><time>2026-04-20T19:28:16.075Z</time><hdop>5.75</hdop><vdop>6.375</vdop><extensions><gom:speed>0.797</gom:speed></extensions></trkpt>
   <trkpt lat="59.0710911501" lon="30.0323312846"><ele>85.784</ele><time>2026-04-20T19:28:16.978Z</time><hdop>5.75</hdop><vdop>6.5</vdop><extensions><gom:speed>0.852</gom:speed></extensions></trkpt>
   <trkpt lat="59.0710856181" lon="30.0323390797"><ele>85.84</ele><time>2026-04-20T19:28:17.901Z</time><hdop>5.875</hdop><vdop>6.5</vdop><extensions><gom:speed>0.837</gom:speed></extensions></trkpt>
   <trkpt lat="59.0710768171" lon="30.032339415"><ele>85.879</ele><time>2026-04-20T19:28:19.053Z</time><hdop>6.125</hdop><vdop>6.5</vdop><extensions><gom:speed>0.788</gom:speed></extensions></trkpt>
   <trkpt lat="59.0710705307" lon="30.0323348888"><ele>85.891</ele><time>2026-04-20T19:28:20.001Z</time><hdop>6.375</hdop><vdop>6.75</vdop><extensions><gom:speed>0.751</gom:speed></extensions></trkpt>
   <trkpt lat="59.0710714527" lon="30.0323322904"><ele>85.907</ele><time>2026-04-20T19:28:20.861Z</time><hdop>6.375</hdop><vdop>6.75</vdop><extensions><gom:speed>0.707</gom:speed></extensions></trkpt>
   <trkpt lat="59.0710670522" lon="30.0323301949"><ele>85.919</ele><time>2026-04-20T19:28:21.660Z</time><hdop>6.5</hdop><vdop>7.0</vdop><extensions><gom:speed>0.721</gom:speed></extensions></trkpt>
   <trkpt lat="59.0710582512" lon="30.0323301111"><ele>85.96</ele><time>2026-04-20T19:28:23.020Z</time><hdop>6.625</hdop><vdop>7.0</vdop><extensions><gom:speed>0.621</gom:speed></extensions></trkpt>
   <trkpt lat="59.0710551499" lon="30.0323276803"><ele>86.005</ele><time>2026-04-20T19:28:24.086Z</time><hdop>6.75</hdop><vdop>6.875</vdop><extensions><gom:speed>0.437</gom:speed></extensions></trkpt>
   <trkpt lat="59.0710545212" lon="30.0323255849"><ele>86.032</ele><time>2026-04-20T19:28:24.779Z</time><hdop>6.875</hdop><vdop>6.875</vdop><extensions><gom:speed>0.372</gom:speed></extensions></trkpt>
   <trkpt lat="59.0710534316" lon="30.0323244952"><ele>86.059</ele><time>2026-04-20T19:28:25.599Z</time><hdop>7.125</hdop><vdop>6.875</vdop><extensions><gom:speed>0.313</gom:speed></extensions></trkpt>
   <trkpt lat="59.07106064" lon="30.0323244114"><ele>86.076</ele><time>2026-04-20T19:28:27.075Z</time><hdop>7.375</hdop><vdop>6.625</vdop><extensions><gom:speed>0.226</gom:speed></extensions></trkpt>
   <trkpt lat="59.0710665492" lon="30.0323249143"><ele>86.086</ele><time>2026-04-20T19:28:27.633Z</time><hdop>7.5</hdop><vdop>6.625</vdop><extensions><gom:speed>0.193</gom:speed></extensions></trkpt>
   <trkpt lat="59.0710678484" lon="30.0323242438"><ele>86.085</ele><time>2026-04-20T19:28:28.393Z</time><hdop>7.5</hdop><vdop>6.625</vdop><extensions><gom:speed>0.208</gom:speed></extensions></trkpt>
   <trkpt lat="59.0710669264" lon="30.0323249143"><ele>86.095</ele><time>2026-04-20T19:28:29.062Z</time><hdop>7.625</hdop><vdop>6.75</vdop><extensions><gom:speed>0.237</gom:speed></extensions></trkpt>
   <trkpt lat="59.0710661302" lon="30.0323258363"><ele>86.107</ele><time>2026-04-20T19:28:30.009Z</time><hdop>7.625</hdop><vdop>6.75</vdop><extensions><gom:speed>0.244</gom:speed></extensions></trkpt>
   <trkpt lat="59.0710653339" lon="30.0323284347"><ele>86.123</ele><time>2026-04-20T19:28:30.958Z</time><hdop>7.75</hdop><vdop>6.625</vdop><extensions><gom:speed>0.228</gom:speed></extensions></trkpt>
   <trkpt lat="59.0710626517" lon="30.0323317037"><ele>86.133</ele><time>2026-04-20T19:28:31.897Z</time><hdop>7.75</hdop><vdop>6.625</vdop><extensions><gom:speed>0.379</gom:speed></extensions></trkpt>
   <trkpt lat="59.0710600533" lon="30.0323385768"><ele>86.146</ele><time>2026-04-20T19:28:33.032Z</time><hdop>8.0</hdop><vdop>6.75</vdop><extensions><gom:speed>0.389</gom:speed></extensions></trkpt>
   <trkpt lat="59.0710596342" lon="30.0323458691"><ele>86.171</ele><time>2026-04-20T19:28:33.874Z</time><hdop>8.125</hdop><vdop>6.75</vdop><extensions><gom:speed>0.363</gom:speed></extensions></trkpt>
   <trkpt lat="59.0710589217" lon="30.0323493895"><ele>86.205</ele><time>2026-04-20T19:28:34.820Z</time><hdop>8.25</hdop><vdop>6.625</vdop><extensions><gom:speed>0.4</gom:speed></extensions></trkpt>
   <trkpt lat="59.0710584188" lon="30.0323527422"><ele>86.272</ele><time>2026-04-20T19:28:35.816Z</time><hdop>8.5</hdop><vdop>6.875</vdop><extensions><gom:speed>0.326</gom:speed></extensions></trkpt>
   <trkpt lat="59.0710707402" lon="30.0323441927"><ele>86.368</ele><time>2026-04-20T19:28:37.000Z</time><hdop>8.5</hdop><vdop>7.125</vdop><extensions><gom:speed>0.196</gom:speed></extensions></trkpt>
   <trkpt lat="59.0710738415" lon="30.0323423487"><ele>86.442</ele><time>2026-04-20T19:28:37.947Z</time><hdop>8.5</hdop><vdop>7.0</vdop><extensions><gom:speed>0.183</gom:speed></extensions></trkpt>
   <trkpt lat="59.0710746378" lon="30.0323428516"><ele>86.487</ele><time>2026-04-20T19:28:38.542Z</time><hdop>8.5</hdop><vdop>7.0</vdop><extensions><gom:speed>0.213</gom:speed></extensions></trkpt>
   <trkpt lat="59.0710791221" lon="30.0323436898"><ele>85.231</ele><time>2026-04-20T19:28:39.076Z</time><hdop>8.25</hdop><vdop>6.625</vdop><extensions><gom:speed>0.238</gom:speed></extensions></trkpt>
   <trkpt lat="59.0710818462" lon="30.0323451985"><ele>84.481</ele><time>2026-04-20T19:28:39.606Z</time><hdop>8.125</hdop><vdop>6.625</vdop><extensions><gom:speed>0.268</gom:speed></extensions></trkpt>
   <trkpt lat="59.0710859534" lon="30.0323524908"><ele>84.375</ele><time>2026-04-20T19:28:40.076Z</time><hdop>7.75</hdop><vdop>6.125</vdop><extensions><gom:speed>0.307</gom:speed></extensions></trkpt>
   <trkpt lat="59.0710903539" lon="30.0323662371"><ele>84.701</ele><time>2026-04-20T19:28:41.075Z</time><hdop>7.375</hdop><vdop>7.25</vdop><extensions><gom:speed>0.339</gom:speed></extensions></trkpt>
   <trkpt lat="59.0710932456" lon="30.0323790614"><ele>85.819</ele><time>2026-04-20T19:28:42.075Z</time><hdop>7.125</hdop><vdop>7.25</vdop><extensions><gom:speed>0.267</gom:speed></extensions></trkpt>
   <trkpt lat="59.0710953411" lon="30.0323831685"><ele>86.488</ele><time>2026-04-20T19:28:42.738Z</time><hdop>6.75</hdop><vdop>7.25</vdop><extensions><gom:speed>0.265</gom:speed></extensions></trkpt>
   <trkpt lat="59.0710959278" lon="30.032394065"><ele>86.786</ele><time>2026-04-20T19:28:43.439Z</time><hdop>6.375</hdop><vdop>7.125</vdop><extensions><gom:speed>0.308</gom:speed></extensions></trkpt>
   <trkpt lat="59.0710955506" lon="30.0324037042"><ele>87.223</ele><time>2026-04-20T19:28:44.075Z</time><hdop>6.0</hdop><vdop>6.75</vdop><extensions><gom:speed>0.307</gom:speed></extensions></trkpt>
   <trkpt lat="59.0710939162" lon="30.0324159418"><ele>87.104</ele><time>2026-04-20T19:28:45.075Z</time><hdop>5.375</hdop><vdop>6.375</vdop><extensions><gom:speed>0.255</gom:speed></extensions></trkpt>
   <trkpt lat="59.0710937485" lon="30.0324192945"><ele>87.033</ele><time>2026-04-20T19:28:45.765Z</time><hdop>5.25</hdop><vdop>6.375</vdop><extensions><gom:speed>0.262</gom:speed></extensions></trkpt>
   <trkpt lat="59.0710938323" lon="30.0324268383"><ele>87.211</ele><time>2026-04-20T19:28:46.617Z</time><hdop>5.0</hdop><vdop>6.25</vdop><extensions><gom:speed>0.334</gom:speed></extensions></trkpt>
   <trkpt lat="59.0710927427" lon="30.0324332923"><ele>87.3</ele><time>2026-04-20T19:28:47.075Z</time><hdop>5.0</hdop><vdop>6.25</vdop><extensions><gom:speed>0.323</gom:speed></extensions></trkpt>
   <trkpt lat="59.0710947544" lon="30.0324365613"><ele>87.353</ele><time>2026-04-20T19:28:47.920Z</time><hdop>4.875</hdop><vdop>6.25</vdop><extensions><gom:speed>0.399</gom:speed></extensions></trkpt>
   <trkpt lat="59.0710936228" lon="30.0324462005"><ele>87.455</ele><time>2026-04-20T19:28:48.473Z</time><hdop>4.75</hdop><vdop>6.25</vdop><extensions><gom:speed>0.417</gom:speed></extensions></trkpt>
   <trkpt lat="59.0710927427" lon="30.0324555044"><ele>87.445</ele><time>2026-04-20T19:28:49.075Z</time><hdop>4.75</hdop><vdop>6.125</vdop><extensions><gom:speed>0.4</gom:speed></extensions></trkpt>
   <trkpt lat="59.0710927427" lon="30.0324754533"><ele>87.518</ele><time>2026-04-20T19:28:50.075Z</time><hdop>4.75</hdop><vdop>6.0</vdop><extensions><gom:speed>0.521</gom:speed></extensions></trkpt>
   <trkpt lat="59.0710941257" lon="30.0324895349"><ele>87.684</ele><time>2026-04-20T19:28:50.979Z</time><hdop>4.75</hdop><vdop>5.875</vdop><extensions><gom:speed>0.584</gom:speed></extensions></trkpt>
   <trkpt lat="59.0710956345" lon="30.0324964081"><ele>87.784</ele><time>2026-04-20T19:28:51.926Z</time><hdop>4.875</hdop><vdop>5.875</vdop><extensions><gom:speed>0.625</gom:speed></extensions></trkpt>
   <trkpt lat="59.0710979395" lon="30.0325268344"><ele>88.151</ele><time>2026-04-20T19:28:52.993Z</time><hdop>5.125</hdop><vdop>6.0</vdop><extensions><gom:speed>0.739</gom:speed></extensions></trkpt>
   <trkpt lat="59.0711027172" lon="30.0325380661"><ele>88.37</ele><time>2026-04-20T19:28:54.002Z</time><hdop>5.5</hdop><vdop>6.0</vdop><extensions><gom:speed>0.749</gom:speed></extensions></trkpt>
   <trkpt lat="59.0711089198" lon="30.032548292"><ele>88.542</ele><time>2026-04-20T19:28:54.826Z</time><hdop>5.75</hdop><vdop>6.125</vdop><extensions><gom:speed>0.841</gom:speed></extensions></trkpt>
   <trkpt lat="59.0711053575" lon="30.0325623736"><ele>88.591</ele><time>2026-04-20T19:28:55.759Z</time><hdop>6.125</hdop><vdop>6.125</vdop><extensions><gom:speed>0.858</gom:speed></extensions></trkpt>
   <trkpt lat="59.0711022562" lon="30.0325790536"><ele>88.617</ele><time>2026-04-20T19:28:57.020Z</time><hdop>6.75</hdop><vdop>6.125</vdop><extensions><gom:speed>0.749</gom:speed></extensions></trkpt>
   <trkpt lat="59.0710964307" lon="30.0325843342"><ele>88.599</ele><time>2026-04-20T19:28:57.968Z</time><hdop>7.125</hdop><vdop>6.0</vdop><extensions><gom:speed>0.679</gom:speed></extensions></trkpt>
   <trkpt lat="59.0710902281" lon="30.032581652"><ele>88.496</ele><time>2026-04-20T19:28:59.034Z</time><hdop>7.75</hdop><vdop>6.0</vdop><extensions><gom:speed>0.451</gom:speed></extensions></trkpt>
   <trkpt lat="59.0710854504" lon="30.0325718452"><ele>88.399</ele><time>2026-04-20T19:29:00.075Z</time><hdop>8.0</hdop><vdop>6.125</vdop><extensions><gom:speed>0.31</gom:speed></extensions></trkpt>
   <trkpt lat="59.0710826425" lon="30.0325655588"><ele>88.323</ele><time>2026-04-20T19:29:01.048Z</time><hdop>8.25</hdop><vdop>5.875</vdop><extensions><gom:speed>0.248</gom:speed></extensions></trkpt>
   <trkpt lat="59.0710822234" lon="30.0325627927"><ele>88.263</ele><time>2026-04-20T19:29:01.995Z</time><hdop>8.375</hdop><vdop>5.375</vdop><extensions><gom:speed>0.21</gom:speed></extensions></trkpt>
   <trkpt lat="59.071083355" lon="30.0325612002"><ele>88.228</ele><time>2026-04-20T19:29:03.097Z</time><hdop>8.375</hdop><vdop>5.375</vdop><extensions><gom:speed>0.177</gom:speed></extensions></trkpt>
   <trkpt lat="59.0710837321" lon="30.0325635471"><ele>88.183</ele><time>2026-04-20T19:29:04.009Z</time><hdop>8.5</hdop><vdop>5.25</vdop><extensions><gom:speed>0.21</gom:speed></extensions></trkpt>
   <trkpt lat="59.0710836483" lon="30.0325698335"><ele>88.156</ele><time>2026-04-20T19:29:04.861Z</time><hdop>8.5</hdop><vdop>5.25</vdop><extensions><gom:speed>0.288</gom:speed></extensions></trkpt>
   <trkpt lat="59.0710814271" lon="30.0325768743"><ele>88.129</ele><time>2026-04-20T19:29:05.603Z</time><hdop>8.75</hdop><vdop>5.375</vdop><extensions><gom:speed>0.372</gom:speed></extensions></trkpt>
   <trkpt lat="59.0710749312" lon="30.0325800594"><ele>88.106</ele><time>2026-04-20T19:29:06.075Z</time><hdop>8.75</hdop><vdop>5.5</vdop><extensions><gom:speed>0.372</gom:speed></extensions></trkpt>
   <trkpt lat="59.0710701535" lon="30.032583496"><ele>88.092</ele><time>2026-04-20T19:29:06.971Z</time><hdop>8.75</hdop><vdop>5.75</vdop><extensions><gom:speed>0.296</gom:speed></extensions></trkpt>
   <trkpt lat="59.0710698182" lon="30.0325834122"><ele>88.084</ele><time>2026-04-20T19:29:07.695Z</time><hdop>8.75</hdop><vdop>5.75</vdop><extensions><gom:speed>0.162</gom:speed></extensions></trkpt>
   <trkpt lat="59.0710698182" lon="30.0325827417"><ele>88.074</ele><time>2026-04-20T19:29:08.217Z</time><hdop>8.75</hdop><vdop>5.5</vdop><extensions><gom:speed>0.177</gom:speed></extensions></trkpt>
   <trkpt lat="59.0710692315" lon="30.0325830769"><ele>88.062</ele><time>2026-04-20T19:29:08.985Z</time><hdop>8.75</hdop><vdop>5.5</vdop><extensions><gom:speed>0.191</gom:speed></extensions></trkpt>
   <trkpt lat="59.0710692315" lon="30.0325824902"><ele>88.05</ele><time>2026-04-20T19:29:10.051Z</time><hdop>8.75</hdop><vdop>5.5</vdop><extensions><gom:speed>0.159</gom:speed></extensions></trkpt>
   <trkpt lat="59.0710699439" lon="30.0325815682"><ele>88.042</ele><time>2026-04-20T19:29:10.526Z</time><hdop>8.625</hdop><vdop>5.5</vdop><extensions><gom:speed>0.113</gom:speed></extensions></trkpt>
   <trkpt lat="59.0710699439" lon="30.0325812329"><ele>88.034</ele><time>2026-04-20T19:29:10.999Z</time><hdop>8.5</hdop><vdop>5.5</vdop><extensions><gom:speed>0.128</gom:speed></extensions></trkpt>
   <trkpt lat="59.0710706564" lon="30.0325795565"><ele>88.025</ele><time>2026-04-20T19:29:11.948Z</time><hdop>8.5</hdop><vdop>5.5</vdop><extensions><gom:speed>0.135</gom:speed></extensions></trkpt>
   <trkpt lat="59.071070824" lon="30.0325784669"><ele>88.016</ele><time>2026-04-20T19:29:13.013Z</time><hdop>8.5</hdop><vdop>5.625</vdop><extensions><gom:speed>0.116</gom:speed></extensions></trkpt>
   <trkpt lat="59.0710715365" lon="30.0325783831"><ele>88.008</ele><time>2026-04-20T19:29:13.961Z</time><hdop>8.5</hdop><vdop>5.75</vdop><extensions><gom:speed>0.073</gom:speed></extensions></trkpt>
   <trkpt lat="59.0710714527" lon="30.0325793889"><ele>88.024</ele><time>2026-04-20T19:29:15.027Z</time><hdop>8.5</hdop><vdop>5.875</vdop><extensions><gom:speed>0.08</gom:speed></extensions></trkpt>
   <trkpt lat="59.0710710336" lon="30.0325778802"><ele>88.033</ele><time>2026-04-20T19:29:15.898Z</time><hdop>8.5</hdop><vdop>5.875</vdop><extensions><gom:speed>0.082</gom:speed></extensions></trkpt>
   <trkpt lat="59.0710711174" lon="30.0325764552"><ele>88.014</ele><time>2026-04-20T19:29:16.560Z</time><hdop>8.625</hdop><vdop>6.0</vdop><extensions><gom:speed>0.08</gom:speed></extensions></trkpt>
   <trkpt lat="59.0710710336" lon="30.0325763714"><ele>88.0</ele><time>2026-04-20T19:29:17.042Z</time><hdop>8.625</hdop><vdop>6.0</vdop><extensions><gom:speed>0.11</gom:speed></extensions></trkpt>
   <trkpt lat="59.0710706564" lon="30.0325778802"><ele>87.982</ele><time>2026-04-20T19:29:17.990Z</time><hdop>8.625</hdop><vdop>6.0</vdop><extensions><gom:speed>0.103</gom:speed></extensions></trkpt>
   <trkpt lat="59.0710702373" lon="30.0325799756"><ele>87.971</ele><time>2026-04-20T19:29:18.978Z</time><hdop>8.75</hdop><vdop>6.0</vdop><extensions><gom:speed>0.157</gom:speed></extensions></trkpt>
   <trkpt lat="59.0710698182" lon="30.0325837475"><ele>87.955</ele><time>2026-04-20T19:29:20.004Z</time><hdop>8.875</hdop><vdop>6.75</vdop><extensions><gom:speed>0.169</gom:speed></extensions></trkpt>
   <trkpt lat="59.071069441" lon="30.032587687"><ele>87.945</ele><time>2026-04-20T19:29:21.061Z</time><hdop>9.0</hdop><vdop>6.75</vdop><extensions><gom:speed>0.173</gom:speed></extensions></trkpt>
   <trkpt lat="59.0710679323" lon="30.0325912074"><ele>87.924</ele><time>2026-04-20T19:29:22.017Z</time><hdop>9.125</hdop><vdop>7.0</vdop><extensions><gom:speed>0.204</gom:speed></extensions></trkpt>
   <trkpt lat="59.0710670522" lon="30.0325915427"><ele>87.912</ele><time>2026-04-20T19:29:22.846Z</time><hdop>9.25</hdop><vdop>7.0</vdop><extensions><gom:speed>0.204</gom:speed></extensions></trkpt>
   <trkpt lat="59.0710640347" lon="30.0325954821"><ele>87.9</ele><time>2026-04-20T19:29:23.737Z</time><hdop>9.5</hdop><vdop>6.75</vdop><extensions><gom:speed>0.232</gom:speed></extensions></trkpt>
   <trkpt lat="59.0710576225" lon="30.0325915427"><ele>87.899</ele><time>2026-04-20T19:29:24.378Z</time><hdop>9.375</hdop><vdop>6.5</vdop><extensions><gom:speed>0.249</gom:speed></extensions></trkpt>
   <trkpt lat="59.0710550241" lon="30.0325934705"><ele>87.898</ele><time>2026-04-20T19:29:24.978Z</time><hdop>9.375</hdop><vdop>6.5</vdop><extensions><gom:speed>0.285</gom:speed></extensions></trkpt>
   <trkpt lat="59.0710485282" lon="30.0325984158"><ele>86.631</ele><time>2026-04-20T19:29:26.075Z</time><hdop>9.125</hdop><vdop>6.125</vdop><extensions><gom:speed>0.325</gom:speed></extensions></trkpt>
   <trkpt lat="59.0710443372" lon="30.0326031097"><ele>85.874</ele><time>2026-04-20T19:29:27.034Z</time><hdop>8.875</hdop><vdop>6.125</vdop><extensions><gom:speed>0.336</gom:speed></extensions></trkpt>
   <trkpt lat="59.0710362487" lon="30.0326155987"><ele>86.262</ele><time>2026-04-20T19:29:28.075Z</time><hdop>8.25</hdop><vdop>5.75</vdop><extensions><gom:speed>0.303</gom:speed></extensions></trkpt>
   <trkpt lat="59.0710334407" lon="30.0326223881"><ele>86.493</ele><time>2026-04-20T19:29:29.019Z</time><hdop>7.75</hdop><vdop>5.75</vdop><extensions><gom:speed>0.33</gom:speed></extensions></trkpt>
   <trkpt lat="59.0710276572" lon="30.0326389842"><ele>86.662</ele><time>2026-04-20T19:29:30.016Z</time><hdop>7.375</hdop><vdop>5.5</vdop><extensions><gom:speed>0.437</gom:speed></extensions></trkpt>
   <trkpt lat="59.0710147491" lon="30.0326596037"><ele>86.995</ele><time>2026-04-20T19:29:31.076Z</time><hdop>6.875</hdop><vdop>4.5</vdop><extensions><gom:speed>0.43</gom:speed></extensions></trkpt>
   <trkpt lat="59.0710085465" lon="30.0326679018"><ele>87.193</ele><time>2026-04-20T19:29:31.851Z</time><hdop>6.5</hdop><vdop>4.5</vdop><extensions><gom:speed>0.513</gom:speed></extensions></trkpt>
   <trkpt lat="59.0709966442" lon="30.0326834921"><ele>86.903</ele><time>2026-04-20T19:29:32.682Z</time><hdop>6.25</hdop><vdop>4.25</vdop><extensions><gom:speed>0.669</gom:speed></extensions></trkpt>
   <trkpt lat="59.070983736" lon="30.0326990825"><ele>86.45</ele><time>2026-04-20T19:29:33.501Z</time><hdop>6.125</hdop><vdop>4.0</vdop><extensions><gom:speed>0.712</gom:speed></extensions></trkpt>
   <trkpt lat="59.0709747255" lon="30.032709476"><ele>86.303</ele><time>2026-04-20T19:29:34.075Z</time><hdop>6.0</hdop><vdop>3.75</vdop><extensions><gom:speed>0.728</gom:speed></extensions></trkpt>
   <trkpt lat="59.0709634518" lon="30.0327275809"><ele>86.118</ele><time>2026-04-20T19:29:35.075Z</time><hdop>5.875</hdop><vdop>3.75</vdop><extensions><gom:speed>0.704</gom:speed></extensions></trkpt>
   <trkpt lat="59.0709552376" lon="30.0327487872"><ele>85.692</ele><time>2026-04-20T19:29:36.076Z</time><hdop>5.875</hdop><vdop>3.875</vdop><extensions><gom:speed>0.677</gom:speed></extensions></trkpt>
   <trkpt lat="59.0709497474" lon="30.0327705801"><ele>85.537</ele><time>2026-04-20T19:29:37.076Z</time><hdop>5.75</hdop><vdop>3.875</vdop><extensions><gom:speed>0.776</gom:speed></extensions></trkpt>
   <trkpt lat="59.0709507533" lon="30.0327976537"><ele>85.633</ele><time>2026-04-20T19:29:38.075Z</time><hdop>5.625</hdop><vdop>4.0</vdop><extensions><gom:speed>0.883</gom:speed></extensions></trkpt>
   <trkpt lat="59.0709548185" lon="30.0328158424"><ele>85.69</ele><time>2026-04-20T19:29:39.040Z</time><hdop>5.5</hdop><vdop>4.0</vdop><extensions><gom:speed>0.844</gom:speed></extensions></trkpt>
   <trkpt lat="59.0709575426" lon="30.0328359589"><ele>85.663</ele><time>2026-04-20T19:29:39.741Z</time><hdop>5.375</hdop><vdop>4.125</vdop><extensions><gom:speed>0.911</gom:speed></extensions></trkpt>
   <trkpt lat="59.0709572492" lon="30.0328582548"><ele>85.277</ele><time>2026-04-20T19:29:40.598Z</time><hdop>5.25</hdop><vdop>4.0</vdop><extensions><gom:speed>0.838</gom:speed></extensions></trkpt>
   <trkpt lat="59.0709568301" lon="30.0328692351"><ele>85.009</ele><time>2026-04-20T19:29:41.075Z</time><hdop>5.25</hdop><vdop>4.125</vdop><extensions><gom:speed>0.816</gom:speed></extensions></trkpt>
   <trkpt lat="59.0709547347" lon="30.0328880944"><ele>85.23</ele><time>2026-04-20T19:29:42.076Z</time><hdop>5.0</hdop><vdop>4.125</vdop><extensions><gom:speed>0.717</gom:speed></extensions></trkpt>
   <trkpt lat="59.0709546508" lon="30.0329004996"><ele>85.271</ele><time>2026-04-20T19:29:43.075Z</time><hdop>4.875</hdop><vdop>4.25</vdop><extensions><gom:speed>0.639</gom:speed></extensions></trkpt>
   <trkpt lat="59.0709547347" lon="30.0329028465"><ele>85.296</ele><time>2026-04-20T19:29:43.601Z</time><hdop>4.875</hdop><vdop>4.25</vdop><extensions><gom:speed>0.517</gom:speed></extensions></trkpt>
   <trkpt lat="59.0709553214" lon="30.0329111446"><ele>85.073</ele><time>2026-04-20T19:29:44.075Z</time><hdop>4.75</hdop><vdop>4.5</vdop><extensions><gom:speed>0.53</gom:speed></extensions></trkpt>
   <trkpt lat="59.0709572492" lon="30.0329264835"><ele>84.96</ele><time>2026-04-20T19:29:45.075Z</time><hdop>4.75</hdop><vdop>4.625</vdop><extensions><gom:speed>0.473</gom:speed></extensions></trkpt>
   <trkpt lat="59.0709596381" lon="30.0329440017"><ele>84.848</ele><time>2026-04-20T19:29:46.076Z</time><hdop>4.625</hdop><vdop>4.625</vdop><extensions><gom:speed>0.507</gom:speed></extensions></trkpt>
   <trkpt lat="59.0709614402" lon="30.0329632801"><ele>84.302</ele><time>2026-04-20T19:29:47.075Z</time><hdop>4.5</hdop><vdop>4.625</vdop><extensions><gom:speed>0.504</gom:speed></extensions></trkpt>
   <trkpt lat="59.0709613564" lon="30.0329690636"><ele>83.975</ele><time>2026-04-20T19:29:47.605Z</time><hdop>4.5</hdop><vdop>4.625</vdop><extensions><gom:speed>0.491</gom:speed></extensions></trkpt>
   <trkpt lat="59.0709621526" lon="30.0329849054"><ele>83.147</ele><time>2026-04-20T19:29:48.075Z</time><hdop>4.5</hdop><vdop>4.5</vdop><extensions><gom:speed>0.49</gom:speed></extensions></trkpt>
   <trkpt lat="59.0709634518" lon="30.032998987"><ele>81.902</ele><time>2026-04-20T19:29:49.075Z</time><hdop>4.375</hdop><vdop>4.5</vdop><extensions><gom:speed>0.457</gom:speed></extensions></trkpt>
   <trkpt lat="59.0709632423" lon="30.0330040999"><ele>81.159</ele><time>2026-04-20T19:29:49.553Z</time><hdop>4.375</hdop><vdop>4.5</vdop><extensions><gom:speed>0.459</gom:speed></extensions></trkpt>
   <trkpt lat="59.0709599314" lon="30.0330100511"><ele>80.714</ele><time>2026-04-20T19:29:50.521Z</time><hdop>4.375</hdop><vdop>4.5</vdop><extensions><gom:speed>0.49</gom:speed></extensions></trkpt>
   <trkpt lat="59.0709575426" lon="30.0330137391"><ele>80.449</ele><time>2026-04-20T19:29:51.418Z</time><hdop>4.375</hdop><vdop>4.5</vdop><extensions><gom:speed>0.416</gom:speed></extensions></trkpt>
   <trkpt lat="59.0709556567" lon="30.0330186006"><ele>80.29</ele><time>2026-04-20T19:29:52.404Z</time><hdop>4.5</hdop><vdop>4.5</vdop><extensions><gom:speed>0.398</gom:speed></extensions></trkpt>
   <trkpt lat="59.0709552376" lon="30.0330212828"><ele>80.195</ele><time>2026-04-20T19:29:53.766Z</time><hdop>4.625</hdop><vdop>4.5</vdop><extensions><gom:speed>0.287</gom:speed></extensions></trkpt>
   <trkpt lat="59.0709594285" lon="30.0330237136"><ele>79.718</ele><time>2026-04-20T19:29:55.076Z</time><hdop>4.875</hdop><vdop>4.875</vdop><extensions><gom:speed>0.158</gom:speed></extensions></trkpt>
   <trkpt lat="59.0709604344" lon="30.0330229592"><ele>79.433</ele><time>2026-04-20T19:29:55.792Z</time><hdop>4.875</hdop><vdop>4.875</vdop><extensions><gom:speed>0.125</gom:speed></extensions></trkpt>
   <trkpt lat="59.0709619431" lon="30.0330227078"><ele>79.478</ele><time>2026-04-20T19:29:56.493Z</time><hdop>4.875</hdop><vdop>4.875</vdop><extensions><gom:speed>0.088</gom:speed></extensions></trkpt>
   <trkpt lat="59.0709619431" lon="30.0330213666"><ele>79.617</ele><time>2026-04-20T19:29:57.075Z</time><hdop>4.875</hdop><vdop>4.75</vdop><extensions><gom:speed>0.126</gom:speed></extensions></trkpt>
   <trkpt lat="59.0709617335" lon="30.0330227078"><ele>79.7</ele><time>2026-04-20T19:29:57.658Z</time><hdop>4.75</hdop><vdop>4.75</vdop><extensions><gom:speed>0.1</gom:speed></extensions></trkpt>
   <trkpt lat="59.070960141" lon="30.0330207799"><ele>79.866</ele><time>2026-04-20T19:29:58.815Z</time><hdop>4.625</hdop><vdop>4.25</vdop><extensions><gom:speed>0.116</gom:speed></extensions></trkpt>
   <trkpt lat="59.0709566206" lon="30.0330186844"><ele>80.235</ele><time>2026-04-20T19:29:59.938Z</time><hdop>4.625</hdop><vdop>3.75</vdop><extensions><gom:speed>0.176</gom:speed></extensions></trkpt>
   <trkpt lat="59.0709498312" lon="30.033017511"><ele>81.285</ele><time>2026-04-20T19:30:00.777Z</time><hdop>4.625</hdop><vdop>3.375</vdop><extensions><gom:speed>0.302</gom:speed></extensions></trkpt>
   <trkpt lat="59.0709381385" lon="30.0330158346"><ele>82.399</ele><time>2026-04-20T19:30:01.814Z</time><hdop>4.625</hdop><vdop>2.875</vdop><extensions><gom:speed>0.423</gom:speed></extensions></trkpt>
   <trkpt lat="59.0709251465" lon="30.033016086"><ele>82.627</ele><time>2026-04-20T19:30:02.803Z</time><hdop>4.75</hdop><vdop>2.875</vdop><extensions><gom:speed>0.515</gom:speed></extensions></trkpt>
   <trkpt lat="59.0709137472" lon="30.0330194388"><ele>82.286</ele><time>2026-04-20T19:30:03.699Z</time><hdop>4.75</hdop><vdop>2.875</vdop><extensions><gom:speed>0.617</gom:speed></extensions></trkpt>
   <trkpt lat="59.0709027249" lon="30.0330214505"><ele>81.743</ele><time>2026-04-20T19:30:04.638Z</time><hdop>4.625</hdop><vdop>2.875</vdop><extensions><gom:speed>0.627</gom:speed></extensions></trkpt>
   <trkpt lat="59.0708926248" lon="30.0330203608"><ele>81.052</ele><time>2026-04-20T19:30:05.516Z</time><hdop>4.625</hdop><vdop>3.0</vdop><extensions><gom:speed>0.64</gom:speed></extensions></trkpt>
   <trkpt lat="59.0708864221" lon="30.0330171757"><ele>80.733</ele><time>2026-04-20T19:30:06.075Z</time><hdop>4.625</hdop><vdop>2.875</vdop><extensions><gom:speed>0.637</gom:speed></extensions></trkpt>
   <trkpt lat="59.0708757352" lon="30.0330064469"><ele>80.502</ele><time>2026-04-20T19:30:07.076Z</time><hdop>4.375</hdop><vdop>2.875</vdop><extensions><gom:speed>0.645</gom:speed></extensions></trkpt>
   <trkpt lat="59.0708727177" lon="30.0330021721"><ele>80.363</ele><time>2026-04-20T19:30:07.584Z</time><hdop>4.375</hdop><vdop>2.875</vdop><extensions><gom:speed>0.605</gom:speed></extensions></trkpt>
   <trkpt lat="59.0708683172" lon="30.0329973106"><ele>80.6</ele><time>2026-04-20T19:30:08.076Z</time><hdop>4.375</hdop><vdop>3.0</vdop><extensions><gom:speed>0.606</gom:speed></extensions></trkpt>
   <trkpt lat="59.070865635" lon="30.0329932873"><ele>80.742</ele><time>2026-04-20T19:30:08.581Z</time><hdop>4.25</hdop><vdop>3.0</vdop><extensions><gom:speed>0.548</gom:speed></extensions></trkpt>
   <trkpt lat="59.0708613183" lon="30.0329893478"><ele>81.297</ele><time>2026-04-20T19:30:09.075Z</time><hdop>4.25</hdop><vdop>3.125</vdop><extensions><gom:speed>0.56</gom:speed></extensions></trkpt>
   <trkpt lat="59.0708571274" lon="30.0329849892"><ele>81.628</ele><time>2026-04-20T19:30:09.675Z</time><hdop>4.25</hdop><vdop>3.125</vdop><extensions><gom:speed>0.58</gom:speed></extensions></trkpt>
   <trkpt lat="59.0708493322" lon="30.0329764396"><ele>81.676</ele><time>2026-04-20T19:30:10.601Z</time><hdop>4.125</hdop><vdop>3.125</vdop><extensions><gom:speed>0.593</gom:speed></extensions></trkpt>
   <trkpt lat="59.0708441354" lon="30.0329717458"><ele>81.601</ele><time>2026-04-20T19:30:11.075Z</time><hdop>4.125</hdop><vdop>3.0</vdop><extensions><gom:speed>0.614</gom:speed></extensions></trkpt>
   <trkpt lat="59.0708404474" lon="30.0329691474"><ele>81.556</ele><time>2026-04-20T19:30:11.538Z</time><hdop>4.125</hdop><vdop>3.0</vdop><extensions><gom:speed>0.596</gom:speed></extensions></trkpt>
   <trkpt lat="59.0708340353" lon="30.0329666328"><ele>81.301</ele><time>2026-04-20T19:30:12.075Z</time><hdop>4.125</hdop><vdop>3.0</vdop><extensions><gom:speed>0.625</gom:speed></extensions></trkpt>
   <trkpt lat="59.0708255276" lon="30.0329662975"><ele>81.069</ele><time>2026-04-20T19:30:13.076Z</time><hdop>4.125</hdop><vdop>2.875</vdop><extensions><gom:speed>0.557</gom:speed></extensions></trkpt>
   <trkpt lat="59.0708161399" lon="30.0329638668"><ele>81.286</ele><time>2026-04-20T19:30:14.076Z</time><hdop>4.125</hdop><vdop>2.75</vdop><extensions><gom:speed>0.55</gom:speed></extensions></trkpt>
   <trkpt lat="59.0708057463" lon="30.0329636992"><ele>81.198</ele><time>2026-04-20T19:30:15.075Z</time><hdop>4.125</hdop><vdop>2.625</vdop><extensions><gom:speed>0.619</gom:speed></extensions></trkpt>
   <trkpt lat="59.0707960233" lon="30.0329663814"><ele>80.899</ele><time>2026-04-20T19:30:16.075Z</time><hdop>4.125</hdop><vdop>9.25</vdop><extensions><gom:speed>0.651</gom:speed></extensions></trkpt>
   <trkpt lat="59.0707887311" lon="30.0329694827"><ele>80.813</ele><time>2026-04-20T19:30:16.985Z</time><hdop>4.25</hdop><vdop>9.125</vdop><extensions><gom:speed>0.652</gom:speed></extensions></trkpt>
   <trkpt lat="59.070781355" lon="30.032973506"><ele>80.761</ele><time>2026-04-20T19:30:18.055Z</time><hdop>4.375</hdop><vdop>9.125</vdop><extensions><gom:speed>0.665</gom:speed></extensions></trkpt>
   <trkpt lat="59.0707724283" lon="30.0329792895"><ele>80.559</ele><time>2026-04-20T19:30:19.076Z</time><hdop>4.5</hdop><vdop>8.625</vdop><extensions><gom:speed>0.651</gom:speed></extensions></trkpt>
   <trkpt lat="59.0707684469" lon="30.0329818879"><ele>80.398</ele><time>2026-04-20T19:30:19.948Z</time><hdop>4.625</hdop><vdop>8.25</vdop><extensions><gom:speed>0.589</gom:speed></extensions></trkpt>
   <trkpt lat="59.0707640464" lon="30.0329849892"><ele>80.367</ele><time>2026-04-20T19:30:21.076Z</time><hdop>4.875</hdop><vdop>7.875</vdop><extensions><gom:speed>0.594</gom:speed></extensions></trkpt>
   <trkpt lat="59.0707587239" lon="30.0329881743"><ele>80.348</ele><time>2026-04-20T19:30:22.033Z</time><hdop>5.0</hdop><vdop>7.875</vdop><extensions><gom:speed>0.623</gom:speed></extensions></trkpt>
   <trkpt lat="59.0707546167" lon="30.0329891801"><ele>80.216</ele><time>2026-04-20T19:30:23.075Z</time><hdop>5.0</hdop><vdop>7.5</vdop><extensions><gom:speed>0.589</gom:speed></extensions></trkpt>
   <trkpt lat="59.0707523536" lon="30.0329886772"><ele>80.138</ele><time>2026-04-20T19:30:23.800Z</time><hdop>5.125</hdop><vdop>7.5</vdop><extensions><gom:speed>0.512</gom:speed></extensions></trkpt>
   <trkpt lat="59.0707519345" lon="30.0329882581"><ele>80.02</ele><time>2026-04-20T19:30:24.568Z</time><hdop>5.125</hdop><vdop>7.375</vdop><extensions><gom:speed>0.439</gom:speed></extensions></trkpt>
   <trkpt lat="59.0707523536" lon="30.0329885096"><ele>80.011</ele><time>2026-04-20T19:30:25.075Z</time><hdop>5.25</hdop><vdop>7.25</vdop><extensions><gom:speed>0.366</gom:speed></extensions></trkpt>
   <trkpt lat="59.0707545329" lon="30.0329861627"><ele>80.151</ele><time>2026-04-20T19:30:25.990Z</time><hdop>5.375</hdop><vdop>7.25</vdop><extensions><gom:speed>0.203</gom:speed></extensions></trkpt>
   <trkpt lat="59.0707567541" lon="30.0329844863"><ele>80.302</ele><time>2026-04-20T19:30:26.937Z</time><hdop>5.5</hdop><vdop>7.125</vdop><extensions><gom:speed>0.085</gom:speed></extensions></trkpt>
   <trkpt lat="59.0707579276" lon="30.0329831452"><ele>80.393</ele><time>2026-04-20T19:30:28.003Z</time><hdop>5.5</hdop><vdop>7.0</vdop><extensions><gom:speed>0.085</gom:speed></extensions></trkpt>
   <trkpt lat="59.0707574247" lon="30.0329836481"><ele>80.533</ele><time>2026-04-20T19:30:28.951Z</time><hdop>5.625</hdop><vdop>7.125</vdop><extensions><gom:speed>0.085</gom:speed></extensions></trkpt>
   <trkpt lat="59.070760023" lon="30.0329846539"><ele>80.67</ele><time>2026-04-20T19:30:30.075Z</time><hdop>5.625</hdop><vdop>7.375</vdop><extensions><gom:speed>0.101</gom:speed></extensions></trkpt>
   <trkpt lat="59.0707611546" lon="30.032985073"><ele>80.752</ele><time>2026-04-20T19:30:30.728Z</time><hdop>5.625</hdop><vdop>7.375</vdop><extensions><gom:speed>0.103</gom:speed></extensions></trkpt>
   <trkpt lat="59.070760023" lon="30.032985995"><ele>80.854</ele><time>2026-04-20T19:30:32.014Z</time><hdop>5.625</hdop><vdop>7.75</vdop><extensions><gom:speed>0.176</gom:speed></extensions></trkpt>
   <trkpt lat="59.0707587239" lon="30.0329860788"><ele>81.037</ele><time>2026-04-20T19:30:32.834Z</time><hdop>5.75</hdop><vdop>7.625</vdop><extensions><gom:speed>0.241</gom:speed></extensions></trkpt>
   <trkpt lat="59.0707591429" lon="30.0329849054"><ele>81.164</ele><time>2026-04-20T19:30:33.781Z</time><hdop>5.625</hdop><vdop>7.625</vdop><extensions><gom:speed>0.281</gom:speed></extensions></trkpt>
   <trkpt lat="59.0707574247" lon="30.0329807982"><ele>81.313</ele><time>2026-04-20T19:30:34.992Z</time><hdop>5.625</hdop><vdop>7.5</vdop><extensions><gom:speed>0.263</gom:speed></extensions></trkpt>
   <trkpt lat="59.0707585562" lon="30.0329803791"><ele>81.44</ele><time>2026-04-20T19:30:36.075Z</time><hdop>5.625</hdop><vdop>7.5</vdop><extensions><gom:speed>0.191</gom:speed></extensions></trkpt>
   <trkpt lat="59.0707587239" lon="30.0329805468"><ele>81.516</ele><time>2026-04-20T19:30:37.007Z</time><hdop>5.625</hdop><vdop>7.5</vdop><extensions><gom:speed>0.211</gom:speed></extensions></trkpt>
   <trkpt lat="59.0707568379" lon="30.032976272"><ele>81.607</ele><time>2026-04-20T19:30:37.954Z</time><hdop>5.625</hdop><vdop>7.5</vdop><extensions><gom:speed>0.256</gom:speed></extensions></trkpt>
   <trkpt lat="59.0707544491" lon="30.0329732545"><ele>81.661</ele><time>2026-04-20T19:30:38.797Z</time><hdop>5.75</hdop><vdop>7.5</vdop><extensions><gom:speed>0.34</gom:speed></extensions></trkpt>
   <trkpt lat="59.0707495457" lon="30.032970237"><ele>81.725</ele><time>2026-04-20T19:30:39.655Z</time><hdop>5.875</hdop><vdop>7.625</vdop><extensions><gom:speed>0.458</gom:speed></extensions></trkpt>
   <trkpt lat="59.0707456481" lon="30.0329693988"><ele>81.791</ele><time>2026-04-20T19:30:40.740Z</time><hdop>6.0</hdop><vdop>7.625</vdop><extensions><gom:speed>0.533</gom:speed></extensions></trkpt>
   <trkpt lat="59.0707419181" lon="30.0329645373"><ele>81.857</ele><time>2026-04-20T19:30:41.481Z</time><hdop>6.125</hdop><vdop>7.75</vdop><extensions><gom:speed>0.606</gom:speed></extensions></trkpt>
   <trkpt lat="59.0707391521" lon="30.0329600949"><ele>81.928</ele><time>2026-04-20T19:30:41.982Z</time><hdop>6.125</hdop><vdop>8.0</vdop><extensions><gom:speed>0.609</gom:speed></extensions></trkpt>
   <trkpt lat="59.0707367214" lon="30.0329562393"><ele>81.97</ele><time>2026-04-20T19:30:42.499Z</time><hdop>6.25</hdop><vdop>8.0</vdop><extensions><gom:speed>0.599</gom:speed></extensions></trkpt>
   <trkpt lat="59.0707338296" lon="30.0329520483"><ele>82.027</ele><time>2026-04-20T19:30:43.048Z</time><hdop>6.25</hdop><vdop>7.875</vdop><extensions><gom:speed>0.584</gom:speed></extensions></trkpt>
   <trkpt lat="59.0707284233" lon="30.0329458457"><ele>82.061</ele><time>2026-04-20T19:30:43.840Z</time><hdop>6.5</hdop><vdop>7.875</vdop><extensions><gom:speed>0.552</gom:speed></extensions></trkpt>
   <trkpt lat="59.0707249448" lon="30.0329440855"><ele>82.095</ele><time>2026-04-20T19:30:44.945Z</time><hdop>6.75</hdop><vdop>7.625</vdop><extensions><gom:speed>0.499</gom:speed></extensions></trkpt>
   <trkpt lat="59.070722053" lon="30.0329442531"><ele>82.119</ele><time>2026-04-20T19:30:46.011Z</time><hdop>6.875</hdop><vdop>7.375</vdop><extensions><gom:speed>0.426</gom:speed></extensions></trkpt>
   <trkpt lat="59.070721131" lon="30.0329471868"><ele>82.134</ele><time>2026-04-20T19:30:46.980Z</time><hdop>7.125</hdop><vdop>7.375</vdop><extensions><gom:speed>0.341</gom:speed></extensions></trkpt>
   <trkpt lat="59.0707208377" lon="30.0329502881"><ele>82.171</ele><time>2026-04-20T19:30:48.024Z</time><hdop>7.5</hdop><vdop>7.75</vdop><extensions><gom:speed>0.26</gom:speed></extensions></trkpt>
   <trkpt lat="59.0707209215" lon="30.0329533056"><ele>82.199</ele><time>2026-04-20T19:30:48.972Z</time><hdop>7.625</hdop><vdop>8.375</vdop><extensions><gom:speed>0.245</gom:speed></extensions></trkpt>
   <trkpt lat="59.0707181554" lon="30.0329535571"><ele>82.215</ele><time>2026-04-20T19:30:49.676Z</time><hdop>7.75</hdop><vdop>8.375</vdop><extensions><gom:speed>0.307</gom:speed></extensions></trkpt>
   <trkpt lat="59.0707201252" lon="30.0329538085"><ele>82.243</ele><time>2026-04-20T19:30:51.075Z</time><hdop>7.875</hdop><vdop>8.875</vdop><extensions><gom:speed>0.295</gom:speed></extensions></trkpt>
   <trkpt lat="59.0707208377" lon="30.0329538923"><ele>82.268</ele><time>2026-04-20T19:30:52.052Z</time><hdop>7.875</hdop><vdop>9.125</vdop><extensions><gom:speed>0.254</gom:speed></extensions></trkpt>
   <trkpt lat="59.0707209215" lon="30.0329536409"><ele>82.283</ele><time>2026-04-20T19:30:52.716Z</time><hdop>7.875</hdop><vdop>9.125</vdop><extensions><gom:speed>0.255</gom:speed></extensions></trkpt>
   <trkpt lat="59.0707207538" lon="30.032953138"><ele>82.296</ele><time>2026-04-20T19:30:53.199Z</time><hdop>7.75</hdop><vdop>9.125</vdop><extensions><gom:speed>0.256</gom:speed></extensions></trkpt>
   <trkpt lat="59.0707196223" lon="30.032953138"><ele>82.268</ele><time>2026-04-20T19:30:53.948Z</time><hdop>7.75</hdop><vdop>8.875</vdop><extensions><gom:speed>0.255</gom:speed></extensions></trkpt>
   <trkpt lat="59.0707198318" lon="30.0329535571"><ele>82.251</ele><time>2026-04-20T19:30:54.414Z</time><hdop>7.75</hdop><vdop>8.875</vdop><extensions><gom:speed>0.178</gom:speed></extensions></trkpt>
   <trkpt lat="59.0707196223" lon="30.032953138"><ele>82.245</ele><time>2026-04-20T19:30:55.013Z</time><hdop>7.75</hdop><vdop>8.5</vdop><extensions><gom:speed>0.196</gom:speed></extensions></trkpt>
   <trkpt lat="59.0707201252" lon="30.03295406"><ele>82.24</ele><time>2026-04-20T19:30:55.487Z</time><hdop>7.75</hdop><vdop>8.5</vdop><extensions><gom:speed>0.168</gom:speed></extensions></trkpt>
   <trkpt lat="59.0707237294" lon="30.0329574965"><ele>82.225</ele><time>2026-04-20T19:30:56.075Z</time><hdop>7.75</hdop><vdop>8.5</vdop><extensions><gom:speed>0.164</gom:speed></extensions></trkpt>
   <trkpt lat="59.0707255315" lon="30.0329592567"><ele>82.228</ele><time>2026-04-20T19:30:57.027Z</time><hdop>7.625</hdop><vdop>7.875</vdop><extensions><gom:speed>0.175</gom:speed></extensions></trkpt>
   <trkpt lat="59.0707249448" lon="30.0329598435"><ele>82.229</ele><time>2026-04-20T19:30:57.820Z</time><hdop>7.625</hdop><vdop>7.875</vdop><extensions><gom:speed>0.192</gom:speed></extensions></trkpt>
   <trkpt lat="59.0707235199" lon="30.0329603464"><ele>82.239</ele><time>2026-04-20T19:30:58.837Z</time><hdop>7.625</hdop><vdop>7.75</vdop><extensions><gom:speed>0.221</gom:speed></extensions></trkpt>
   <trkpt lat="59.0707214244" lon="30.0329609331"><ele>82.26</ele><time>2026-04-20T19:30:59.990Z</time><hdop>7.5</hdop><vdop>7.375</vdop><extensions><gom:speed>0.224</gom:speed></extensions></trkpt>
   <trkpt lat="59.0707198318" lon="30.0329603464"><ele>82.273</ele><time>2026-04-20T19:31:00.781Z</time><hdop>7.5</hdop><vdop>7.375</vdop><extensions><gom:speed>0.27</gom:speed></extensions></trkpt>
   <trkpt lat="59.0707175268" lon="30.0329670519"><ele>81.116</ele><time>2026-04-20T19:31:01.492Z</time><hdop>7.5</hdop><vdop>5.625</vdop><extensions><gom:speed>0.418</gom:speed></extensions></trkpt>
   <trkpt lat="59.0707101507" lon="30.0329727516"><ele>82.003</ele><time>2026-04-20T19:31:02.075Z</time><hdop>7.375</hdop><vdop>4.875</vdop><extensions><gom:speed>0.453</gom:speed></extensions></trkpt>
   <trkpt lat="59.0706980389" lon="30.0329821393"><ele>83.354</ele><time>2026-04-20T19:31:03.075Z</time><hdop>7.375</hdop><vdop>4.625</vdop><extensions><gom:speed>0.404</gom:speed></extensions></trkpt>
   <trkpt lat="59.070694728" lon="30.0329876714"><ele>84.162</ele><time>2026-04-20T19:31:03.941Z</time><hdop>7.25</hdop><vdop>4.625</vdop><extensions><gom:speed>0.262</gom:speed></extensions></trkpt>
   <trkpt lat="59.0706819456" lon="30.0329925329"><ele>85.074</ele><time>2026-04-20T19:31:04.762Z</time><hdop>7.0</hdop><vdop>4.125</vdop><extensions><gom:speed>0.241</gom:speed></extensions></trkpt>
   <trkpt lat="59.0706553331" lon="30.0329932873"><ele>86.126</ele><time>2026-04-20T19:31:06.075Z</time><hdop>6.625</hdop><vdop>3.875</vdop><extensions><gom:speed>0.214</gom:speed></extensions></trkpt>
   <trkpt lat="59.0706420478" lon="30.0329921138"><ele>86.843</ele><time>2026-04-20T19:31:07.075Z</time><hdop>6.125</hdop><vdop>3.5</vdop><extensions><gom:speed>0.127</gom:speed></extensions></trkpt>
   <trkpt lat="59.0706407486" lon="30.0329921976"><ele>87.272</ele><time>2026-04-20T19:31:07.926Z</time><hdop>6.125</hdop><vdop>3.5</vdop><extensions><gom:speed>0.095</gom:speed></extensions></trkpt>
   <trkpt lat="59.0706191233" lon="30.0329921138"><ele>87.821</ele><time>2026-04-20T19:31:09.075Z</time><hdop>5.5</hdop><vdop>3.125</vdop><extensions><gom:speed>0.082</gom:speed></extensions></trkpt>
   <trkpt lat="59.0706116215" lon="30.0329932873"><ele>88.493</ele><time>2026-04-20T19:31:10.075Z</time><hdop>4.875</hdop><vdop>2.875</vdop><extensions><gom:speed>0.072</gom:speed></extensions></trkpt>
   <trkpt lat="59.0706055446" lon="30.0329917785"><ele>89.089</ele><time>2026-04-20T19:31:11.075Z</time><hdop>4.5</hdop><vdop>2.75</vdop><extensions><gom:speed>0.073</gom:speed></extensions></trkpt>
   <trkpt lat="59.0706004316" lon="30.0329893478"><ele>89.376</ele><time>2026-04-20T19:31:12.076Z</time><hdop>3.75</hdop><vdop>2.5</vdop><extensions><gom:speed>0.101</gom:speed></extensions></trkpt>
   <trkpt lat="59.0705988391" lon="30.0329885934"><ele>89.772</ele><time>2026-04-20T19:31:13.139Z</time><hdop>3.375</hdop><vdop>6.75</vdop><extensions><gom:speed>0.08</gom:speed></extensions></trkpt>
   <trkpt lat="59.0705932232" lon="30.0329856597"><ele>89.964</ele><time>2026-04-20T19:31:14.076Z</time><hdop>3.125</hdop><vdop>6.75</vdop><extensions><gom:speed>0.067</gom:speed></extensions></trkpt>
   <trkpt lat="59.070591924" lon="30.0329854083"><ele>90.156</ele><time>2026-04-20T19:31:15.034Z</time><hdop>3.125</hdop><vdop>6.5</vdop><extensions><gom:speed>0.066</gom:speed></extensions></trkpt>
   <trkpt lat="59.0705922173" lon="30.0329854083"><ele>90.27</ele><time>2026-04-20T19:31:15.621Z</time><hdop>3.125</hdop><vdop>6.5</vdop><extensions><gom:speed>0.06</gom:speed></extensions></trkpt>
   <trkpt lat="59.0705895351" lon="30.0329831452"><ele>90.299</ele><time>2026-04-20T19:31:16.075Z</time><hdop>3.125</hdop><vdop>6.125</vdop><extensions><gom:speed>0.099</gom:speed></extensions></trkpt>
   <trkpt lat="59.0705876492" lon="30.0329803791"><ele>90.314</ele><time>2026-04-20T19:31:17.048Z</time><hdop>3.25</hdop><vdop>5.75</vdop><extensions><gom:speed>0.068</gom:speed></extensions></trkpt>
   <trkpt lat="59.0705866434" lon="30.032979038"><ele>90.303</ele><time>2026-04-20T19:31:17.996Z</time><hdop>3.375</hdop><vdop>5.5</vdop><extensions><gom:speed>0.068</gom:speed></extensions></trkpt>
   <trkpt lat="59.0705860566" lon="30.032979038"><ele>90.194</ele><time>2026-04-20T19:31:19.062Z</time><hdop>3.375</hdop><vdop>5.375</vdop><extensions><gom:speed>0.102</gom:speed></extensions></trkpt>
   <trkpt lat="59.0705813209" lon="30.0329766911"><ele>90.131</ele><time>2026-04-20T19:31:20.076Z</time><hdop>3.5</hdop><vdop>5.375</vdop><extensions><gom:speed>0.07</gom:speed></extensions></trkpt>
   <trkpt lat="59.070578932" lon="30.032973506"><ele>89.978</ele><time>2026-04-20T19:31:20.958Z</time><hdop>3.75</hdop><vdop>5.25</vdop><extensions><gom:speed>0.075</gom:speed></extensions></trkpt>
   <trkpt lat="59.0705749506" lon="30.0329712429"><ele>89.85</ele><time>2026-04-20T19:31:22.075Z</time><hdop>3.875</hdop><vdop>5.25</vdop><extensions><gom:speed>0.071</gom:speed></extensions></trkpt>
   <trkpt lat="59.0705737353" lon="30.0329701532"><ele>89.825</ele><time>2026-04-20T19:31:22.972Z</time><hdop>4.0</hdop><vdop>5.25</vdop><extensions><gom:speed>0.065</gom:speed></extensions></trkpt>
   <trkpt lat="59.0705717236" lon="30.0329691474"><ele>89.851</ele><time>2026-04-20T19:31:24.076Z</time><hdop>4.0</hdop><vdop>5.375</vdop><extensions><gom:speed>0.114</gom:speed></extensions></trkpt>
   <trkpt lat="59.0705689576" lon="30.0329675548"><ele>89.883</ele><time>2026-04-20T19:31:25.075Z</time><hdop>4.0</hdop><vdop>5.375</vdop><extensions><gom:speed>0.193</gom:speed></extensions></trkpt>
   <trkpt lat="59.0705657305" lon="30.0329654594"><ele>89.918</ele><time>2026-04-20T19:31:26.076Z</time><hdop>4.125</hdop><vdop>5.25</vdop><extensions><gom:speed>0.293</gom:speed></extensions></trkpt>
   <trkpt lat="59.07056133" lon="30.0329633639"><ele>89.98</ele><time>2026-04-20T19:31:27.075Z</time><hdop>4.125</hdop><vdop>5.125</vdop><extensions><gom:speed>0.385</gom:speed></extensions></trkpt>
   <trkpt lat="59.0705589412" lon="30.0329626095"><ele>90.018</ele><time>2026-04-20T19:31:27.772Z</time><hdop>4.125</hdop><vdop>5.125</vdop><extensions><gom:speed>0.398</gom:speed></extensions></trkpt>
   <trkpt lat="59.0705535349" lon="30.0329611846"><ele>89.863</ele><time>2026-04-20T19:31:29.075Z</time><hdop>4.25</hdop><vdop>3.375</vdop><extensions><gom:speed>0.379</gom:speed></extensions></trkpt>
   <trkpt lat="59.0705490505" lon="30.0329597597"><ele>89.402</ele><time>2026-04-20T19:31:30.075Z</time><hdop>4.375</hdop><vdop>2.5</vdop><extensions><gom:speed>0.368</gom:speed></extensions></trkpt>
   <trkpt lat="59.070544231" lon="30.032957748"><ele>88.993</ele><time>2026-04-20T19:31:31.076Z</time><hdop>4.5</hdop><vdop>2.5</vdop><extensions><gom:speed>0.401</gom:speed></extensions></trkpt>
   <trkpt lat="59.0705390342" lon="30.0329559878"><ele>89.403</ele><time>2026-04-20T19:31:32.075Z</time><hdop>4.625</hdop><vdop>2.5</vdop><extensions><gom:speed>0.403</gom:speed></extensions></trkpt>
   <trkpt lat="59.0705381541" lon="30.032955904"><ele>89.648</ele><time>2026-04-20T19:31:32.568Z</time><hdop>4.75</hdop><vdop>2.5</vdop><extensions><gom:speed>0.403</gom:speed></extensions></trkpt>
   <trkpt lat="59.0705325382" lon="30.0329541438"><ele>90.664</ele><time>2026-04-20T19:31:33.076Z</time><hdop>5.0</hdop><vdop>2.5</vdop><extensions><gom:speed>0.404</gom:speed></extensions></trkpt>
   <trkpt lat="59.0705272576" lon="30.0329528865"><ele>91.775</ele><time>2026-04-20T19:31:34.075Z</time><hdop>5.125</hdop><vdop>2.5</vdop><extensions><gom:speed>0.469</gom:speed></extensions></trkpt>
   <trkpt lat="59.0705207197" lon="30.0329504557"><ele>92.483</ele><time>2026-04-20T19:31:35.075Z</time><hdop>5.375</hdop><vdop>2.5</vdop><extensions><gom:speed>0.498</gom:speed></extensions></trkpt>
   <trkpt lat="59.0705144333" lon="30.0329466001"><ele>93.154</ele><time>2026-04-20T19:31:36.075Z</time><hdop>5.5</hdop><vdop>2.5</vdop><extensions><gom:speed>0.387</gom:speed></extensions></trkpt>
   <trkpt lat="59.0705092365" lon="30.0329412357"><ele>93.722</ele><time>2026-04-20T19:31:37.075Z</time><hdop>5.75</hdop><vdop>5.625</vdop><extensions><gom:speed>0.336</gom:speed></extensions></trkpt>
   <trkpt lat="59.0705041235" lon="30.0329353683"><ele>94.125</ele><time>2026-04-20T19:31:38.075Z</time><hdop>6.0</hdop><vdop>5.75</vdop><extensions><gom:speed>0.331</gom:speed></extensions></trkpt>
   <trkpt lat="59.0705029501" lon="30.0329346139"><ele>94.366</ele><time>2026-04-20T19:31:38.847Z</time><hdop>6.125</hdop><vdop>5.75</vdop><extensions><gom:speed>0.331</gom:speed></extensions></trkpt>
   <trkpt lat="59.0704929337" lon="30.0329259806"><ele>94.736</ele><time>2026-04-20T19:31:40.075Z</time><hdop>6.375</hdop><vdop>5.75</vdop><extensions><gom:speed>0.359</gom:speed></extensions></trkpt>
   <trkpt lat="59.0704874436" lon="30.0329207"><ele>95.032</ele><time>2026-04-20T19:31:41.075Z</time><hdop>6.5</hdop><vdop>5.75</vdop><extensions><gom:speed>0.368</gom:speed></extensions></trkpt>
   <trkpt lat="59.0704817439" lon="30.0329145812"><ele>95.242</ele><time>2026-04-20T19:31:42.075Z</time><hdop>6.625</hdop><vdop>5.625</vdop><extensions><gom:speed>0.37</gom:speed></extensions></trkpt>
   <trkpt lat="59.0704766309" lon="30.0329082948"><ele>95.161</ele><time>2026-04-20T19:31:43.075Z</time><hdop>6.625</hdop><vdop>5.625</vdop><extensions><gom:speed>0.363</gom:speed></extensions></trkpt>
   <trkpt lat="59.0704720209" lon="30.0329015893"><ele>95.058</ele><time>2026-04-20T19:31:44.075Z</time><hdop>6.75</hdop><vdop>5.875</vdop><extensions><gom:speed>0.356</gom:speed></extensions></trkpt>
   <trkpt lat="59.0704680395" lon="30.0328954705"><ele>94.876</ele><time>2026-04-20T19:31:45.076Z</time><hdop>6.75</hdop><vdop>6.0</vdop><extensions><gom:speed>0.343</gom:speed></extensions></trkpt>
   <trkpt lat="59.0704633456" lon="30.0328887649"><ele>94.825</ele><time>2026-04-20T19:31:46.075Z</time><hdop>6.75</hdop><vdop>6.0</vdop><extensions><gom:speed>0.359</gom:speed></extensions></trkpt>
   <trkpt lat="59.0704604538" lon="30.0328855798"><ele>94.686</ele><time>2026-04-20T19:31:47.075Z</time><hdop>6.75</hdop><vdop>6.0</vdop><extensions><gom:speed>0.346</gom:speed></extensions></trkpt>
   <trkpt lat="59.0704574363" lon="30.0328867533"><ele>94.549</ele><time>2026-04-20T19:31:48.076Z</time><hdop>6.625</hdop><vdop>6.125</vdop><extensions><gom:speed>0.329</gom:speed></extensions></trkpt>
   <trkpt lat="59.0704560533" lon="30.032890609"><ele>94.467</ele><time>2026-04-20T19:31:48.939Z</time><hdop>6.5</hdop><vdop>6.125</vdop><extensions><gom:speed>0.339</gom:speed></extensions></trkpt>
   <trkpt lat="59.0704544189" lon="30.0328939617"><ele>94.408</ele><time>2026-04-20T19:31:50.075Z</time><hdop>6.375</hdop><vdop>6.625</vdop><extensions><gom:speed>0.317</gom:speed></extensions></trkpt>
   <trkpt lat="59.0704532454" lon="30.0328963087"><ele>94.402</ele><time>2026-04-20T19:31:51.075Z</time><hdop>6.25</hdop><vdop>6.875</vdop><extensions><gom:speed>0.314</gom:speed></extensions></trkpt>
   <trkpt lat="59.0704518205" lon="30.0328989909"><ele>94.435</ele><time>2026-04-20T19:31:52.075Z</time><hdop>6.125</hdop><vdop>6.75</vdop><extensions><gom:speed>0.302</gom:speed></extensions></trkpt>
   <trkpt lat="59.0704511499" lon="30.0329004158"><ele>94.465</ele><time>2026-04-20T19:31:53.075Z</time><hdop>6.0</hdop><vdop>6.75</vdop><extensions><gom:speed>0.288</gom:speed></extensions></trkpt>
   <trkpt lat="59.0704504375" lon="30.0329011702"><ele>94.518</ele><time>2026-04-20T19:31:54.075Z</time><hdop>5.75</hdop><vdop>6.75</vdop><extensions><gom:speed>0.285</gom:speed></extensions></trkpt>
   <trkpt lat="59.0704496412" lon="30.0329025951"><ele>94.549</ele><time>2026-04-20T19:31:54.753Z</time><hdop>5.625</hdop><vdop>6.75</vdop><extensions><gom:speed>0.286</gom:speed></extensions></trkpt>
   <trkpt lat="59.0704494316" lon="30.0329025951"><ele>94.56</ele><time>2026-04-20T19:31:55.355Z</time><hdop>5.5</hdop><vdop>7.0</vdop><extensions><gom:speed>0.289</gom:speed></extensions></trkpt>
   <trkpt lat="59.0704491383" lon="30.0329038524"><ele>94.567</ele><time>2026-04-20T19:31:55.840Z</time><hdop>5.5</hdop><vdop>7.0</vdop><extensions><gom:speed>0.289</gom:speed></extensions></trkpt>
   <trkpt lat="59.0704521557" lon="30.0329027627"><ele>94.571</ele><time>2026-04-20T19:31:56.935Z</time><hdop>5.5</hdop><vdop>6.875</vdop><extensions><gom:speed>0.152</gom:speed></extensions></trkpt>
   <trkpt lat="59.0704535388" lon="30.0329015893"><ele>94.565</ele><time>2026-04-20T19:31:57.533Z</time><hdop>5.5</hdop><vdop>6.75</vdop><extensions><gom:speed>0.118</gom:speed></extensions></trkpt>
   <trkpt lat="59.0704537483" lon="30.0329018407"><ele>94.574</ele><time>2026-04-20T19:31:58.039Z</time><hdop>5.5</hdop><vdop>6.375</vdop><extensions><gom:speed>0.15</gom:speed></extensions></trkpt>
   <trkpt lat="59.0704530358" lon="30.0329020083"><ele>95.028</ele><time>2026-04-20T19:31:59.075Z</time><hdop>5.375</hdop><vdop>4.75</vdop><extensions><gom:speed>0.154</gom:speed></extensions></trkpt>
   <trkpt lat="59.0704523234" lon="30.0329004996"><ele>94.555</ele><time>2026-04-20T19:32:00.075Z</time><hdop>5.375</hdop><vdop>6.25</vdop><extensions><gom:speed>0.118</gom:speed></extensions></trkpt>
   <trkpt lat="59.0704525329" lon="30.0328997452"><ele>94.137</ele><time>2026-04-20T19:32:01.075Z</time><hdop>5.125</hdop><vdop>6.125</vdop><extensions><gom:speed>0.105</gom:speed></extensions></trkpt>
   <trkpt lat="59.0704528263" lon="30.0328986556"><ele>93.887</ele><time>2026-04-20T19:32:01.537Z</time><hdop>5.125</hdop><vdop>6.125</vdop><extensions><gom:speed>0.071</gom:speed></extensions></trkpt>
   <trkpt lat="59.0704541255" lon="30.0329000805"><ele>93.363</ele><time>2026-04-20T19:32:03.075Z</time><hdop>4.875</hdop><vdop>6.0</vdop><extensions><gom:speed>0.126</gom:speed></extensions></trkpt>
   <trkpt lat="59.070454335" lon="30.0328999967"><ele>93.049</ele><time>2026-04-20T19:32:03.725Z</time><hdop>4.875</hdop><vdop>6.0</vdop><extensions><gom:speed>0.103</gom:speed></extensions></trkpt>
   <trkpt lat="59.0704554247" lon="30.0329053611"><ele>92.16</ele><time>2026-04-20T19:32:05.028Z</time><hdop>4.75</hdop><vdop>6.0</vdop><extensions><gom:speed>0.082</gom:speed></extensions></trkpt>
   <trkpt lat="59.0704574363" lon="30.0329074566"><ele>91.56</ele><time>2026-04-20T19:32:06.075Z</time><hdop>4.75</hdop><vdop>5.75</vdop><extensions><gom:speed>0.086</gom:speed></extensions></trkpt>
   <trkpt lat="59.0704575202" lon="30.0329088815"><ele>91.415</ele><time>2026-04-20T19:32:07.042Z</time><hdop>4.625</hdop><vdop>5.75</vdop><extensions><gom:speed>0.102</gom:speed></extensions></trkpt>
   <trkpt lat="59.070459448" lon="30.0329119828"><ele>91.24</ele><time>2026-04-20T19:32:08.076Z</time><hdop>4.625</hdop><vdop>5.75</vdop><extensions><gom:speed>0.066</gom:speed></extensions></trkpt>
   <trkpt lat="59.070459448" lon="30.0329135754"><ele>91.205</ele><time>2026-04-20T19:32:09.056Z</time><hdop>4.625</hdop><vdop>5.625</vdop><extensions><gom:speed>0.07</gom:speed></extensions></trkpt>
   <trkpt lat="59.0704593223" lon="30.0329142459"><ele>91.185</ele><time>2026-04-20T19:32:09.885Z</time><hdop>4.625</hdop><vdop>5.625</vdop><extensions><gom:speed>0.076</gom:speed></extensions></trkpt>
   <trkpt lat="59.0704591546" lon="30.0329153356"><ele>91.298</ele><time>2026-04-20T19:32:10.952Z</time><hdop>4.625</hdop><vdop>5.5</vdop><extensions><gom:speed>0.07</gom:speed></extensions></trkpt>
   <trkpt lat="59.0704598252" lon="30.0329167605"><ele>91.467</ele><time>2026-04-20T19:32:12.018Z</time><hdop>4.75</hdop><vdop>5.5</vdop><extensions><gom:speed>0.067</gom:speed></extensions></trkpt>
   <trkpt lat="59.0704620464" lon="30.0329168443"><ele>91.525</ele><time>2026-04-20T19:32:13.075Z</time><hdop>4.75</hdop><vdop>5.5</vdop><extensions><gom:speed>0.073</gom:speed></extensions></trkpt>
   <trkpt lat="59.0704613339" lon="30.0329196103"><ele>91.578</ele><time>2026-04-20T19:32:14.032Z</time><hdop>4.75</hdop><vdop>5.5</vdop><extensions><gom:speed>0.06</gom:speed></extensions></trkpt>
   <trkpt lat="59.0704615435" lon="30.0329213705"><ele>91.57</ele><time>2026-04-20T19:32:14.980Z</time><hdop>4.75</hdop><vdop>5.5</vdop><extensions><gom:speed>0.066</gom:speed></extensions></trkpt>
   <trkpt lat="59.0704624236" lon="30.0329217896"><ele>91.586</ele><time>2026-04-20T19:32:16.046Z</time><hdop>4.75</hdop><vdop>5.5</vdop><extensions><gom:speed>0.069</gom:speed></extensions></trkpt>
   <trkpt lat="59.0704626331" lon="30.0329232984"><ele>91.59</ele><time>2026-04-20T19:32:16.995Z</time><hdop>4.625</hdop><vdop>5.5</vdop><extensions><gom:speed>0.081</gom:speed></extensions></trkpt>
   <trkpt lat="59.070463639" lon="30.0329246395"><ele>91.596</ele><time>2026-04-20T19:32:17.942Z</time><hdop>4.625</hdop><vdop>5.25</vdop><extensions><gom:speed>0.073</gom:speed></extensions></trkpt>
   <trkpt lat="59.0704633456" lon="30.0329245557"><ele>91.604</ele><time>2026-04-20T19:32:19.008Z</time><hdop>4.625</hdop><vdop>5.25</vdop><extensions><gom:speed>0.086</gom:speed></extensions></trkpt>
   <trkpt lat="59.0704642257" lon="30.0329271541"><ele>91.613</ele><time>2026-04-20T19:32:20.075Z</time><hdop>4.625</hdop><vdop>5.0</vdop><extensions><gom:speed>0.057</gom:speed></extensions></trkpt>
   <trkpt lat="59.0704648543" lon="30.0329280761"><ele>91.623</ele><time>2026-04-20T19:32:21.075Z</time><hdop>4.625</hdop><vdop>4.875</vdop><extensions><gom:speed>0.067</gom:speed></extensions></trkpt>
   <trkpt lat="59.0704652315" lon="30.0329287466"><ele>91.638</ele><time>2026-04-20T19:32:22.075Z</time><hdop>4.625</hdop><vdop>4.75</vdop><extensions><gom:speed>0.072</gom:speed></extensions></trkpt>
   <trkpt lat="59.0704656506" lon="30.032929501"><ele>91.655</ele><time>2026-04-20T19:32:23.075Z</time><hdop>4.625</hdop><vdop>4.625</vdop><extensions><gom:speed>0.078</gom:speed></extensions></trkpt>
   <trkpt lat="59.070465944" lon="30.0329300039"><ele>91.671</ele><time>2026-04-20T19:32:24.075Z</time><hdop>4.5</hdop><vdop>4.625</vdop><extensions><gom:speed>0.082</gom:speed></extensions></trkpt>
   <trkpt lat="59.0704658182" lon="30.0329301715"><ele>91.68</ele><time>2026-04-20T19:32:24.876Z</time><hdop>4.5</hdop><vdop>4.625</vdop><extensions><gom:speed>0.082</gom:speed></extensions></trkpt>
   <trkpt lat="59.0704665307" lon="30.0329311774"><ele>91.695</ele><time>2026-04-20T19:32:26.075Z</time><hdop>4.375</hdop><vdop>4.625</vdop><extensions><gom:speed>0.09</gom:speed></extensions></trkpt>
   <trkpt lat="59.0704667403" lon="30.0329317641"><ele>91.705</ele><time>2026-04-20T19:32:27.076Z</time><hdop>4.375</hdop><vdop>4.5</vdop><extensions><gom:speed>0.094</gom:speed></extensions></trkpt>
   <trkpt lat="59.0704669498" lon="30.0329323508"><ele>91.714</ele><time>2026-04-20T19:32:28.076Z</time><hdop>4.25</hdop><vdop>4.5</vdop><extensions><gom:speed>0.094</gom:speed></extensions></trkpt>
   <trkpt lat="59.0704668241" lon="30.0329326861"><ele>91.719</ele><time>2026-04-20T19:32:28.778Z</time><hdop>4.25</hdop><vdop>4.5</vdop><extensions><gom:speed>0.095</gom:speed></extensions></trkpt>
   <trkpt lat="59.070467327" lon="30.0329336919"><ele>91.741</ele><time>2026-04-20T19:32:30.075Z</time><hdop>4.25</hdop><vdop>4.25</vdop><extensions><gom:speed>0.1</gom:speed></extensions></trkpt>
   <trkpt lat="59.0704676204" lon="30.0329342787"><ele>91.764</ele><time>2026-04-20T19:32:31.075Z</time><hdop>4.125</hdop><vdop>4.125</vdop><extensions><gom:speed>0.102</gom:speed></extensions></trkpt>
   <trkpt lat="59.0704677461" lon="30.0329346139"><ele>91.784</ele><time>2026-04-20T19:32:32.075Z</time><hdop>4.125</hdop><vdop>4.0</vdop><extensions><gom:speed>0.103</gom:speed></extensions></trkpt>
   <trkpt lat="59.0704679556" lon="30.0329348654"><ele>91.861</ele><time>2026-04-20T19:32:33.076Z</time><hdop>4.125</hdop><vdop>3.875</vdop><extensions><gom:speed>0.104</gom:speed></extensions></trkpt>
   <trkpt lat="59.0704680395" lon="30.032935033"><ele>91.942</ele><time>2026-04-20T19:32:34.075Z</time><hdop>4.125</hdop><vdop>3.875</vdop><extensions><gom:speed>0.107</gom:speed></extensions></trkpt>
   <trkpt lat="59.0704680395" lon="30.032935033"><ele>91.99</ele><time>2026-04-20T19:32:34.647Z</time><hdop>4.125</hdop><vdop>3.875</vdop><extensions><gom:speed>0.107</gom:speed></extensions></trkpt>
   <trkpt lat="59.0704683328" lon="30.0329359551"><ele>92.185</ele><time>2026-04-20T19:32:36.075Z</time><hdop>4.0</hdop><vdop>3.75</vdop><extensions><gom:speed>0.11</gom:speed></extensions></trkpt>
   <trkpt lat="59.0704685424" lon="30.0329359551"><ele>92.389</ele><time>2026-04-20T19:32:37.075Z</time><hdop>4.0</hdop><vdop>3.75</vdop><extensions><gom:speed>0.109</gom:speed></extensions></trkpt>
   <trkpt lat="59.0704688357" lon="30.032935536"><ele>92.598</ele><time>2026-04-20T19:32:38.075Z</time><hdop>4.0</hdop><vdop>3.75</vdop><extensions><gom:speed>0.114</gom:speed></extensions></trkpt>
   <trkpt lat="59.0704693386" lon="30.0329354521"><ele>92.784</ele><time>2026-04-20T19:32:39.075Z</time><hdop>4.0</hdop><vdop>3.75</vdop><extensions><gom:speed>0.117</gom:speed></extensions></trkpt>
   <trkpt lat="59.070469632" lon="30.0329354521"><ele>92.945</ele><time>2026-04-20T19:32:40.076Z</time><hdop>4.0</hdop><vdop>3.75</vdop><extensions><gom:speed>0.119</gom:speed></extensions></trkpt>
   <trkpt lat="59.0704697577" lon="30.0329353683"><ele>93.042</ele><time>2026-04-20T19:32:40.926Z</time><hdop>4.0</hdop><vdop>3.75</vdop><extensions><gom:speed>0.119</gom:speed></extensions></trkpt>
   <trkpt lat="59.0704702187" lon="30.032935536"><ele>93.148</ele><time>2026-04-20T19:32:42.075Z</time><hdop>4.0</hdop><vdop>3.875</vdop><extensions><gom:speed>0.118</gom:speed></extensions></trkpt>
   <trkpt lat="59.0704704283" lon="30.0329357036"><ele>93.229</ele><time>2026-04-20T19:32:43.075Z</time><hdop>4.0</hdop><vdop>3.875</vdop><extensions><gom:speed>0.119</gom:speed></extensions></trkpt>
   <trkpt lat="59.0704707217" lon="30.0329359551"><ele>93.304</ele><time>2026-04-20T19:32:44.075Z</time><hdop>4.0</hdop><vdop>3.875</vdop><extensions><gom:speed>0.119</gom:speed></extensions></trkpt>
   <trkpt lat="59.0704707217" lon="30.0329359551"><ele>93.349</ele><time>2026-04-20T19:32:44.739Z</time><hdop>4.125</hdop><vdop>3.875</vdop><extensions><gom:speed>0.119</gom:speed></extensions></trkpt>
   <trkpt lat="59.0704713503" lon="30.0329362903"><ele>93.4</ele><time>2026-04-20T19:32:46.075Z</time><hdop>4.125</hdop><vdop>4.125</vdop><extensions><gom:speed>0.126</gom:speed></extensions></trkpt>
   <trkpt lat="59.0704714341" lon="30.0329362903"><ele>93.43</ele><time>2026-04-20T19:32:46.578Z</time><hdop>4.125</hdop><vdop>4.125</vdop><extensions><gom:speed>0.126</gom:speed></extensions></trkpt>
   <trkpt lat="59.0704717275" lon="30.0329363741"><ele>93.496</ele><time>2026-04-20T19:32:47.075Z</time><hdop>4.125</hdop><vdop>4.125</vdop><extensions><gom:speed>0.124</gom:speed></extensions></trkpt>
   <trkpt lat="59.07047244" lon="30.0329377991"><ele>93.565</ele><time>2026-04-20T19:32:48.075Z</time><hdop>4.125</hdop><vdop>4.0</vdop><extensions><gom:speed>0.121</gom:speed></extensions></trkpt>
   <trkpt lat="59.0704734458" lon="30.0329393916"><ele>93.614</ele><time>2026-04-20T19:32:48.982Z</time><hdop>4.125</hdop><vdop>4.125</vdop><extensions><gom:speed>0.087</gom:speed></extensions></trkpt>
   <trkpt lat="59.0704741163" lon="30.0329394755"><ele>93.651</ele><time>2026-04-20T19:32:50.049Z</time><hdop>4.125</hdop><vdop>4.125</vdop><extensions><gom:speed>0.112</gom:speed></extensions></trkpt>
   <trkpt lat="59.0704750383" lon="30.032941068"><ele>93.678</ele><time>2026-04-20T19:32:51.075Z</time><hdop>4.25</hdop><vdop>4.125</vdop><extensions><gom:speed>0.089</gom:speed></extensions></trkpt>
   <trkpt lat="59.0704755413" lon="30.0329417386"><ele>93.698</ele><time>2026-04-20T19:32:52.075Z</time><hdop>4.25</hdop><vdop>4.125</vdop><extensions><gom:speed>0.095</gom:speed></extensions></trkpt>
   <trkpt lat="59.0704759184" lon="30.0329424929"><ele>93.713</ele><time>2026-04-20T19:32:53.075Z</time><hdop>4.25</hdop><vdop>4.25</vdop><extensions><gom:speed>0.096</gom:speed></extensions></trkpt>
   <trkpt lat="59.0704763375" lon="30.0329431635"><ele>93.743</ele><time>2026-04-20T19:32:54.076Z</time><hdop>4.25</hdop><vdop>4.25</vdop><extensions><gom:speed>0.097</gom:speed></extensions></trkpt>
   <trkpt lat="59.0704766309" lon="30.0329435826"><ele>93.792</ele><time>2026-04-20T19:32:55.075Z</time><hdop>4.25</hdop><vdop>4.125</vdop><extensions><gom:speed>0.1</gom:speed></extensions></trkpt>
   <trkpt lat="59.0704767566" lon="30.032943834"><ele>93.829</ele><time>2026-04-20T19:32:56.075Z</time><hdop>4.25</hdop><vdop>4.0</vdop><extensions><gom:speed>0.102</gom:speed></extensions></trkpt>
   <trkpt lat="59.0704769243" lon="30.0329442531"><ele>93.865</ele><time>2026-04-20T19:32:57.075Z</time><hdop>4.25</hdop><vdop>3.875</vdop><extensions><gom:speed>0.105</gom:speed></extensions></trkpt>
   <trkpt lat="59.07047705" lon="30.0329445884"><ele>93.897</ele><time>2026-04-20T19:32:58.075Z</time><hdop>4.25</hdop><vdop>3.75</vdop><extensions><gom:speed>0.109</gom:speed></extensions></trkpt>
   <trkpt lat="59.07047705" lon="30.0329446722"><ele>93.916</ele><time>2026-04-20T19:32:58.816Z</time><hdop>4.375</hdop><vdop>3.75</vdop><extensions><gom:speed>0.109</gom:speed></extensions></trkpt>
   <trkpt lat="59.0704769243" lon="30.0329448399"><ele>93.945</ele><time>2026-04-20T19:32:59.999Z</time><hdop>4.375</hdop><vdop>3.75</vdop><extensions><gom:speed>0.096</gom:speed></extensions></trkpt>
   <trkpt lat="59.0704774272" lon="30.0329466001"><ele>93.967</ele><time>2026-04-20T19:33:00.947Z</time><hdop>4.375</hdop><vdop>3.75</vdop><extensions><gom:speed>0.107</gom:speed></extensions></trkpt>
   <trkpt lat="59.0704775529" lon="30.0329482765"><ele>93.98</ele><time>2026-04-20T19:33:01.603Z</time><hdop>4.375</hdop><vdop>3.75</vdop><extensions><gom:speed>0.086</gom:speed></extensions></trkpt>
   <trkpt lat="59.0704777205" lon="30.0329491146"><ele>93.988</ele><time>2026-04-20T19:33:02.056Z</time><hdop>4.5</hdop><vdop>3.75</vdop><extensions><gom:speed>0.117</gom:speed></extensions></trkpt>
   <trkpt lat="59.0704775529" lon="30.0329497014"><ele>94.007</ele><time>2026-04-20T19:33:02.961Z</time><hdop>4.5</hdop><vdop>3.625</vdop><extensions><gom:speed>0.096</gom:speed></extensions></trkpt>
   <trkpt lat="59.0704773434" lon="30.0329502881"><ele>94.018</ele><time>2026-04-20T19:33:04.002Z</time><hdop>4.625</hdop><vdop>3.625</vdop><extensions><gom:speed>0.121</gom:speed></extensions></trkpt>
   <trkpt lat="59.0704768404" lon="30.0329491985"><ele>94.035</ele><time>2026-04-20T19:33:04.975Z</time><hdop>4.625</hdop><vdop>3.5</vdop><extensions><gom:speed>0.119</gom:speed></extensions></trkpt>
   <trkpt lat="59.070476128" lon="30.0329473544"><ele>94.045</ele><time>2026-04-20T19:33:05.581Z</time><hdop>4.75</hdop><vdop>3.5</vdop><extensions><gom:speed>0.099</gom:speed></extensions></trkpt>
   <trkpt lat="59.0704757508" lon="30.0329464324"><ele>94.074</ele><time>2026-04-20T19:33:06.041Z</time><hdop>4.75</hdop><vdop>3.625</vdop><extensions><gom:speed>0.129</gom:speed></extensions></trkpt>
   <trkpt lat="59.0704750383" lon="30.032946181"><ele>94.09</ele><time>2026-04-20T19:33:06.677Z</time><hdop>4.75</hdop><vdop>3.625</vdop><extensions><gom:speed>0.11</gom:speed></extensions></trkpt>
   <trkpt lat="59.070483546" lon="30.0329455942"><ele>94.113</ele><time>2026-04-20T19:33:08.075Z</time><hdop>5.75</hdop><vdop>4.25</vdop><extensions><gom:speed>0.0</gom:speed></extensions></trkpt>
   <trkpt lat="59.0704834202" lon="30.0329457619"><ele>94.131</ele><time>2026-04-20T19:33:09.076Z</time><hdop>6.5</hdop><vdop>4.5</vdop><extensions><gom:speed>0.0</gom:speed></extensions></trkpt>
   <trkpt lat="59.0704833364" lon="30.0329458457"><ele>94.144</ele><time>2026-04-20T19:33:10.075Z</time><hdop>7.125</hdop><vdop>4.875</vdop><extensions><gom:speed>0.0</gom:speed></extensions></trkpt>
   <trkpt lat="59.0704833364" lon="30.0329460133"><ele>94.154</ele><time>2026-04-20T19:33:11.076Z</time><hdop>8.875</hdop><vdop>5.25</vdop><extensions><gom:speed>0.0</gom:speed></extensions></trkpt>
   <trkpt lat="59.0704832526" lon="30.0329460133"><ele>94.162</ele><time>2026-04-20T19:33:12.075Z</time><hdop>10.5</hdop><vdop>5.5</vdop><extensions><gom:speed>0.0</gom:speed></extensions></trkpt>
   <trkpt lat="59.0704832526" lon="30.0329460972"><ele>94.168</ele><time>2026-04-20T19:33:13.075Z</time><hdop>11.625</hdop><vdop>5.75</vdop><extensions><gom:speed>0.0</gom:speed></extensions></trkpt>
   <trkpt lat="59.0704832526" lon="30.0329460972"><ele>94.172</ele><time>2026-04-20T19:33:14.075Z</time><hdop>11.75</hdop><vdop>6.0</vdop><extensions><gom:speed>0.0</gom:speed></extensions></trkpt>
   <trkpt lat="59.0704832526" lon="30.0329462648"><ele>94.179</ele><time>2026-04-20T19:33:15.075Z</time><hdop>11.875</hdop><vdop>6.0</vdop><extensions><gom:speed>0.0</gom:speed></extensions></trkpt>
   <trkpt lat="59.0704832526" lon="30.0329463486"><ele>94.189</ele><time>2026-04-20T19:33:16.075Z</time><hdop>11.875</hdop><vdop>5.75</vdop><extensions><gom:speed>0.0</gom:speed></extensions></trkpt>
   <trkpt lat="59.0704831269" lon="30.0329464324"><ele>94.196</ele><time>2026-04-20T19:33:17.075Z</time><hdop>11.875</hdop><vdop>5.5</vdop><extensions><gom:speed>0.0</gom:speed></extensions></trkpt>
   <trkpt lat="59.0704831269" lon="30.0329466001"><ele>94.203</ele><time>2026-04-20T19:33:18.075Z</time><hdop>11.625</hdop><vdop>5.375</vdop><extensions><gom:speed>0.0</gom:speed></extensions></trkpt>
   <trkpt lat="59.0704831269" lon="30.0329466839"><ele>94.209</ele><time>2026-04-20T19:33:19.075Z</time><hdop>11.375</hdop><vdop>5.25</vdop><extensions><gom:speed>0.0</gom:speed></extensions></trkpt>
   <trkpt lat="59.0704831269" lon="30.0329467677"><ele>94.214</ele><time>2026-04-20T19:33:20.076Z</time><hdop>11.125</hdop><vdop>5.375</vdop><extensions><gom:speed>0.0</gom:speed></extensions></trkpt>
   <trkpt lat="59.0704831269" lon="30.0329468515"><ele>94.22</ele><time>2026-04-20T19:33:21.075Z</time><hdop>10.875</hdop><vdop>5.125</vdop><extensions><gom:speed>0.0</gom:speed></extensions></trkpt>
   <trkpt lat="59.0704831269" lon="30.0329469353"><ele>94.227</ele><time>2026-04-20T19:33:22.076Z</time><hdop>10.75</hdop><vdop>5.125</vdop><extensions><gom:speed>0.0</gom:speed></extensions></trkpt>
   <trkpt lat="59.0704831269" lon="30.0329471868"><ele>94.234</ele><time>2026-04-20T19:33:23.075Z</time><hdop>10.625</hdop><vdop>5.0</vdop><extensions><gom:speed>0.0</gom:speed></extensions></trkpt>
   <trkpt lat="59.0704831269" lon="30.0329472706"><ele>94.242</ele><time>2026-04-20T19:33:24.075Z</time><hdop>10.625</hdop><vdop>5.0</vdop><extensions><gom:speed>0.0</gom:speed></extensions></trkpt>
   <trkpt lat="59.0704831269" lon="30.0329474383"><ele>94.252</ele><time>2026-04-20T19:33:25.076Z</time><hdop>10.5</hdop><vdop>4.625</vdop><extensions><gom:speed>0.0</gom:speed></extensions></trkpt>
   <trkpt lat="59.0704830431" lon="30.0329476059"><ele>94.255</ele><time>2026-04-20T19:33:26.075Z</time><hdop>10.375</hdop><vdop>4.625</vdop><extensions><gom:speed>0.0</gom:speed></extensions></trkpt>
   <trkpt lat="59.0704830431" lon="30.0329476897"><ele>94.261</ele><time>2026-04-20T19:33:27.075Z</time><hdop>10.25</hdop><vdop>4.75</vdop><extensions><gom:speed>0.0</gom:speed></extensions></trkpt>
   <trkpt lat="59.0704830431" lon="30.0329477735"><ele>94.268</ele><time>2026-04-20T19:33:28.075Z</time><hdop>10.25</hdop><vdop>4.75</vdop><extensions><gom:speed>0.0</gom:speed></extensions></trkpt>
   <trkpt lat="59.0704829173" lon="30.0329478574"><ele>94.28</ele><time>2026-04-20T19:33:29.075Z</time><hdop>10.125</hdop><vdop>4.875</vdop><extensions><gom:speed>0.0</gom:speed></extensions></trkpt>
   <trkpt lat="59.0704828335" lon="30.0329481088"><ele>94.293</ele><time>2026-04-20T19:33:30.075Z</time><hdop>10.125</hdop><vdop>4.875</vdop><extensions><gom:speed>0.0</gom:speed></extensions></trkpt>
   <trkpt lat="59.0704828335" lon="30.0329482765"><ele>94.307</ele><time>2026-04-20T19:33:31.075Z</time><hdop>10.125</hdop><vdop>4.875</vdop><extensions><gom:speed>0.0</gom:speed></extensions></trkpt>
   <trkpt lat="59.0704828335" lon="30.0329483603"><ele>94.317</ele><time>2026-04-20T19:33:32.076Z</time><hdop>10.125</hdop><vdop>5.0</vdop><extensions><gom:speed>0.0</gom:speed></extensions></trkpt>
   <trkpt lat="59.0704827497" lon="30.0329486117"><ele>94.328</ele><time>2026-04-20T19:33:33.076Z</time><hdop>10.125</hdop><vdop>4.875</vdop><extensions><gom:speed>0.0</gom:speed></extensions></trkpt>
   <trkpt lat="59.0704827497" lon="30.0329487794"><ele>94.341</ele><time>2026-04-20T19:33:34.075Z</time><hdop>10.125</hdop><vdop>4.875</vdop><extensions><gom:speed>0.0</gom:speed></extensions></trkpt>
   <trkpt lat="59.070482624" lon="30.032948947"><ele>94.349</ele><time>2026-04-20T19:33:35.075Z</time><hdop>10.125</hdop><vdop>5.125</vdop><extensions><gom:speed>0.0</gom:speed></extensions></trkpt>
   <trkpt lat="59.070482624" lon="30.0329491146"><ele>94.357</ele><time>2026-04-20T19:33:36.076Z</time><hdop>10.125</hdop><vdop>5.25</vdop><extensions><gom:speed>0.0</gom:speed></extensions></trkpt>
   <trkpt lat="59.070482624" lon="30.0329491985"><ele>94.362</ele><time>2026-04-20T19:33:37.076Z</time><hdop>10.125</hdop><vdop>5.375</vdop><extensions><gom:speed>0.0</gom:speed></extensions></trkpt>
   <trkpt lat="59.070482624" lon="30.0329492823"><ele>94.364</ele><time>2026-04-20T19:33:38.075Z</time><hdop>10.125</hdop><vdop>5.5</vdop><extensions><gom:speed>0.0</gom:speed></extensions></trkpt>
   <trkpt lat="59.0704825401" lon="30.0329492823"><ele>94.362</ele><time>2026-04-20T19:33:39.076Z</time><hdop>10.25</hdop><vdop>5.75</vdop><extensions><gom:speed>0.0</gom:speed></extensions></trkpt>
   <trkpt lat="59.0704825401" lon="30.0329492823"><ele>94.357</ele><time>2026-04-20T19:33:40.075Z</time><hdop>10.25</hdop><vdop>5.875</vdop><extensions><gom:speed>0.0</gom:speed></extensions></trkpt>
   <trkpt lat="59.0704824563" lon="30.0329491985"><ele>94.351</ele><time>2026-04-20T19:33:41.075Z</time><hdop>10.375</hdop><vdop>5.625</vdop><extensions><gom:speed>0.0</gom:speed></extensions></trkpt>
   <trkpt lat="59.0704824563" lon="30.0329491985"><ele>94.345</ele><time>2026-04-20T19:33:42.075Z</time><hdop>10.375</hdop><vdop>5.375</vdop><extensions><gom:speed>0.0</gom:speed></extensions></trkpt>
   <trkpt lat="59.0704823306" lon="30.0329491146"><ele>94.341</ele><time>2026-04-20T19:33:43.075Z</time><hdop>10.375</hdop><vdop>5.25</vdop><extensions><gom:speed>0.0</gom:speed></extensions></trkpt>
   <trkpt lat="59.0704822468" lon="30.032948947"><ele>94.337</ele><time>2026-04-20T19:33:44.076Z</time><hdop>10.375</hdop><vdop>5.125</vdop><extensions><gom:speed>0.0</gom:speed></extensions></trkpt>
   <trkpt lat="59.0704822468" lon="30.032948947"><ele>94.337</ele><time>2026-04-20T19:33:45.075Z</time><hdop>10.5</hdop><vdop>5.375</vdop><extensions><gom:speed>0.0</gom:speed></extensions></trkpt>
   <trkpt lat="59.070482121" lon="30.032948947"><ele>94.339</ele><time>2026-04-20T19:33:46.075Z</time><hdop>10.5</hdop><vdop>5.25</vdop><extensions><gom:speed>0.0</gom:speed></extensions></trkpt>
   <trkpt lat="59.0704820372" lon="30.032948947"><ele>94.337</ele><time>2026-04-20T19:33:47.076Z</time><hdop>10.5</hdop><vdop>5.375</vdop><extensions><gom:speed>0.0</gom:speed></extensions></trkpt>
   <trkpt lat="59.0704819534" lon="30.032948947"><ele>94.333</ele><time>2026-04-20T19:33:48.075Z</time><hdop>10.5</hdop><vdop>5.375</vdop><extensions><gom:speed>0.0</gom:speed></extensions></trkpt>
   <trkpt lat="59.0704818277" lon="30.032948947"><ele>94.328</ele><time>2026-04-20T19:33:49.075Z</time><hdop>10.625</hdop><vdop>5.375</vdop><extensions><gom:speed>0.0</gom:speed></extensions></trkpt>
   <trkpt lat="59.0704817439" lon="30.0329488632"><ele>94.323</ele><time>2026-04-20T19:33:50.076Z</time><hdop>10.625</hdop><vdop>5.25</vdop><extensions><gom:speed>0.0</gom:speed></extensions></trkpt>
   <trkpt lat="59.0704816181" lon="30.0329488632"><ele>94.319</ele><time>2026-04-20T19:33:51.075Z</time><hdop>10.625</hdop><vdop>5.125</vdop><extensions><gom:speed>0.0</gom:speed></extensions></trkpt>
   <trkpt lat="59.0704815343" lon="30.0329487794"><ele>94.315</ele><time>2026-04-20T19:33:52.075Z</time><hdop>10.625</hdop><vdop>5.25</vdop><extensions><gom:speed>0.0</gom:speed></extensions></trkpt>
   <trkpt lat="59.0704815343" lon="30.0329486955"><ele>94.31</ele><time>2026-04-20T19:33:53.075Z</time><hdop>10.625</hdop><vdop>5.25</vdop><extensions><gom:speed>0.0</gom:speed></extensions></trkpt>
   <trkpt lat="59.0704814505" lon="30.0329486955"><ele>94.307</ele><time>2026-04-20T19:33:54.076Z</time><hdop>10.5</hdop><vdop>5.25</vdop><extensions><gom:speed>0.0</gom:speed></extensions></trkpt>
   <trkpt lat="59.0704813248" lon="30.0329486117"><ele>94.303</ele><time>2026-04-20T19:33:55.076Z</time><hdop>10.5</hdop><vdop>5.5</vdop><extensions><gom:speed>0.0</gom:speed></extensions></trkpt>
   <trkpt lat="59.0704812409" lon="30.0329484441"><ele>94.299</ele><time>2026-04-20T19:33:56.075Z</time><hdop>10.5</hdop><vdop>5.375</vdop><extensions><gom:speed>0.0</gom:speed></extensions></trkpt>
   <trkpt lat="59.0704811571" lon="30.0329483603"><ele>94.295</ele><time>2026-04-20T19:33:57.075Z</time><hdop>10.5</hdop><vdop>5.25</vdop><extensions><gom:speed>0.0</gom:speed></extensions></trkpt>
   <trkpt lat="59.0704811571" lon="30.0329483603"><ele>94.291</ele><time>2026-04-20T19:33:58.075Z</time><hdop>10.5</hdop><vdop>5.375</vdop><extensions><gom:speed>0.0</gom:speed></extensions></trkpt>
   <trkpt lat="59.0704810314" lon="30.0329482765"><ele>94.29</ele><time>2026-04-20T19:33:59.075Z</time><hdop>10.5</hdop><vdop>5.375</vdop><extensions><gom:speed>0.0</gom:speed></extensions></trkpt>
   <trkpt lat="59.0704809476" lon="30.0329482765"><ele>94.291</ele><time>2026-04-20T19:34:00.075Z</time><hdop>10.5</hdop><vdop>5.5</vdop><extensions><gom:speed>0.0</gom:speed></extensions></trkpt>
   <trkpt lat="59.0704809476" lon="30.0329483603"><ele>94.294</ele><time>2026-04-20T19:34:01.075Z</time><hdop>10.5</hdop><vdop>5.625</vdop><extensions><gom:speed>0.0</gom:speed></extensions></trkpt>
   <trkpt lat="59.0704808219" lon="30.0329483603"><ele>94.297</ele><time>2026-04-20T19:34:02.075Z</time><hdop>10.625</hdop><vdop>5.875</vdop><extensions><gom:speed>0.0</gom:speed></extensions></trkpt>
   <trkpt lat="59.0704808219" lon="30.0329484441"><ele>94.301</ele><time>2026-04-20T19:34:03.075Z</time><hdop>10.75</hdop><vdop>6.125</vdop><extensions><gom:speed>0.0</gom:speed></extensions></trkpt>
   <trkpt lat="59.070480738" lon="30.0329484441"><ele>94.305</ele><time>2026-04-20T19:34:04.076Z</time><hdop>10.875</hdop><vdop>6.25</vdop><extensions><gom:speed>0.0</gom:speed></extensions></trkpt>
   <trkpt lat="59.0704806542" lon="30.0329484441"><ele>94.307</ele><time>2026-04-20T19:34:05.075Z</time><hdop>11.125</hdop><vdop>6.25</vdop><extensions><gom:speed>0.0</gom:speed></extensions></trkpt>
   <trkpt lat="59.0704806542" lon="30.0329484441"><ele>94.31</ele><time>2026-04-20T19:34:06.075Z</time><hdop>11.5</hdop><vdop>6.5</vdop><extensions><gom:speed>0.0</gom:speed></extensions></trkpt>
   <trkpt lat="59.0704805285" lon="30.0329484441"><ele>94.31</ele><time>2026-04-20T19:34:07.076Z</time><hdop>11.75</hdop><vdop>6.375</vdop><extensions><gom:speed>0.0</gom:speed></extensions></trkpt>
   <trkpt lat="59.0704805285" lon="30.0329483603"><ele>94.311</ele><time>2026-04-20T19:34:08.075Z</time><hdop>12.0</hdop><vdop>6.375</vdop><extensions><gom:speed>0.0</gom:speed></extensions></trkpt>
   <trkpt lat="59.0704804447" lon="30.0329483603"><ele>94.31</ele><time>2026-04-20T19:34:09.075Z</time><hdop>12.375</hdop><vdop>6.25</vdop><extensions><gom:speed>0.0</gom:speed></extensions></trkpt>
   <trkpt lat="59.0704803189" lon="30.0329482765"><ele>94.307</ele><time>2026-04-20T19:34:10.075Z</time><hdop>12.5</hdop><vdop>6.25</vdop><extensions><gom:speed>0.0</gom:speed></extensions></trkpt>
   <trkpt lat="59.0704803189" lon="30.0329481926"><ele>94.304</ele><time>2026-04-20T19:34:11.075Z</time><hdop>12.75</hdop><vdop>6.25</vdop><extensions><gom:speed>0.0</gom:speed></extensions></trkpt>
   <trkpt lat="59.0704802351" lon="30.0329481926"><ele>94.302</ele><time>2026-04-20T19:34:12.076Z</time><hdop>12.875</hdop><vdop>6.375</vdop><extensions><gom:speed>0.0</gom:speed></extensions></trkpt>
   <trkpt lat="59.0704802351" lon="30.0329481926"><ele>94.301</ele><time>2026-04-20T19:34:13.076Z</time><hdop>12.875</hdop><vdop>6.625</vdop><extensions><gom:speed>0.0</gom:speed></extensions></trkpt>
   <trkpt lat="59.0704801513" lon="30.0329481926"><ele>94.3</ele><time>2026-04-20T19:34:14.075Z</time><hdop>12.875</hdop><vdop>6.5</vdop><extensions><gom:speed>0.0</gom:speed></extensions></trkpt>
   <trkpt lat="59.0704801513" lon="30.0329481926"><ele>94.296</ele><time>2026-04-20T19:34:15.075Z</time><hdop>12.875</hdop><vdop>6.25</vdop><extensions><gom:speed>0.0</gom:speed></extensions></trkpt>
   <trkpt lat="59.0704800256" lon="30.0329481926"><ele>94.291</ele><time>2026-04-20T19:34:16.075Z</time><hdop>12.875</hdop><vdop>6.125</vdop><extensions><gom:speed>0.0</gom:speed></extensions></trkpt>
   <trkpt lat="59.0704799418" lon="30.0329481088"><ele>94.288</ele><time>2026-04-20T19:34:17.075Z</time><hdop>12.75</hdop><vdop>5.75</vdop><extensions><gom:speed>0.0</gom:speed></extensions></trkpt>
   <trkpt lat="59.0704799418" lon="30.0329479412"><ele>94.284</ele><time>2026-04-20T19:34:18.075Z</time><hdop>12.75</hdop><vdop>5.625</vdop><extensions><gom:speed>0.0</gom:speed></extensions></trkpt>
   <trkpt lat="59.0704798579" lon="30.0329479412"><ele>94.282</ele><time>2026-04-20T19:34:19.075Z</time><hdop>12.625</hdop><vdop>5.25</vdop><extensions><gom:speed>0.0</gom:speed></extensions></trkpt>
   <trkpt lat="59.0704798579" lon="30.0329478574"><ele>94.28</ele><time>2026-04-20T19:34:20.076Z</time><hdop>12.375</hdop><vdop>5.25</vdop><extensions><gom:speed>0.0</gom:speed></extensions></trkpt>
   <trkpt lat="59.0704798579" lon="30.0329477735"><ele>94.277</ele><time>2026-04-20T19:34:21.076Z</time><hdop>12.25</hdop><vdop>4.875</vdop><extensions><gom:speed>0.0</gom:speed></extensions></trkpt>
   <trkpt lat="59.0704797322" lon="30.0329477735"><ele>94.27</ele><time>2026-04-20T19:34:22.076Z</time><hdop>12.0</hdop><vdop>4.875</vdop><extensions><gom:speed>0.0</gom:speed></extensions></trkpt>
   <trkpt lat="59.0704796484" lon="30.0329476897"><ele>94.268</ele><time>2026-04-20T19:34:23.076Z</time><hdop>11.875</hdop><vdop>5.125</vdop><extensions><gom:speed>0.0</gom:speed></extensions></trkpt>
   <trkpt lat="59.0704796484" lon="30.0329476897"><ele>94.267</ele><time>2026-04-20T19:34:24.075Z</time><hdop>11.75</hdop><vdop>5.375</vdop><extensions><gom:speed>0.0</gom:speed></extensions></trkpt>
   <trkpt lat="59.0704796484" lon="30.0329476897"><ele>94.266</ele><time>2026-04-20T19:34:25.076Z</time><hdop>11.875</hdop><vdop>5.625</vdop><extensions><gom:speed>0.0</gom:speed></extensions></trkpt>
   <trkpt lat="59.0704796484" lon="30.0329477735"><ele>94.266</ele><time>2026-04-20T19:34:26.076Z</time><hdop>12.0</hdop><vdop>5.875</vdop><extensions><gom:speed>0.0</gom:speed></extensions></trkpt>
   <trkpt lat="59.0704795227" lon="30.0329477735"><ele>94.267</ele><time>2026-04-20T19:34:27.075Z</time><hdop>12.375</hdop><vdop>6.25</vdop><extensions><gom:speed>0.0</gom:speed></extensions></trkpt>
   <trkpt lat="59.0704796484" lon="30.0329478574"><ele>94.269</ele><time>2026-04-20T19:34:28.075Z</time><hdop>12.625</hdop><vdop>6.25</vdop><extensions><gom:speed>0.0</gom:speed></extensions></trkpt>
   <trkpt lat="59.0704796484" lon="30.0329478574"><ele>94.271</ele><time>2026-04-20T19:34:29.075Z</time><hdop>13.125</hdop><vdop>6.25</vdop><extensions><gom:speed>0.0</gom:speed></extensions></trkpt>
   <trkpt lat="59.0704796484" lon="30.0329479412"><ele>94.274</ele><time>2026-04-20T19:34:30.075Z</time><hdop>13.625</hdop><vdop>6.375</vdop><extensions><gom:speed>0.0</gom:speed></extensions></trkpt>
   <trkpt lat="59.0704796484" lon="30.0329481088"><ele>94.276</ele><time>2026-04-20T19:34:31.075Z</time><hdop>14.125</hdop><vdop>6.625</vdop><extensions><gom:speed>0.0</gom:speed></extensions></trkpt>
   <trkpt lat="59.0704796484" lon="30.0329481088"><ele>94.279</ele><time>2026-04-20T19:34:32.075Z</time><hdop>14.625</hdop><vdop>6.625</vdop><extensions><gom:speed>0.0</gom:speed></extensions></trkpt>
   <trkpt lat="59.0704796484" lon="30.0329481926"><ele>94.282</ele><time>2026-04-20T19:34:33.076Z</time><hdop>15.0</hdop><vdop>6.5</vdop><extensions><gom:speed>0.0</gom:speed></extensions></trkpt>
   <trkpt lat="59.0704796484" lon="30.0329482765"><ele>94.284</ele><time>2026-04-20T19:34:34.075Z</time><hdop>15.375</hdop><vdop>6.25</vdop><extensions><gom:speed>0.0</gom:speed></extensions></trkpt>
   <trkpt lat="59.0704795227" lon="30.0329482765"><ele>94.286</ele><time>2026-04-20T19:34:35.075Z</time><hdop>15.625</hdop><vdop>5.875</vdop><extensions><gom:speed>0.0</gom:speed></extensions></trkpt>
   <trkpt lat="59.0704795227" lon="30.0329482765"><ele>94.286</ele><time>2026-04-20T19:34:36.075Z</time><hdop>15.875</hdop><vdop>5.625</vdop><extensions><gom:speed>0.0</gom:speed></extensions></trkpt>
   <trkpt lat="59.0704795227" lon="30.0329483603"><ele>94.286</ele><time>2026-04-20T19:34:37.075Z</time><hdop>15.75</hdop><vdop>5.625</vdop><extensions><gom:speed>0.0</gom:speed></extensions></trkpt>
   <trkpt lat="59.0704795227" lon="30.0329483603"><ele>94.286</ele><time>2026-04-20T19:34:38.075Z</time><hdop>15.75</hdop><vdop>5.5</vdop><extensions><gom:speed>0.0</gom:speed></extensions></trkpt>
   <trkpt lat="59.0704795227" lon="30.0329484441"><ele>94.285</ele><time>2026-04-20T19:34:39.075Z</time><hdop>15.75</hdop><vdop>5.625</vdop><extensions><gom:speed>0.0</gom:speed></extensions></trkpt>
   <trkpt lat="59.0704795227" lon="30.0329484441"><ele>94.283</ele><time>2026-04-20T19:34:40.075Z</time><hdop>15.875</hdop><vdop>6.0</vdop><extensions><gom:speed>0.0</gom:speed></extensions></trkpt>
   <trkpt lat="59.0704795227" lon="30.0329484441"><ele>94.281</ele><time>2026-04-20T19:34:41.075Z</time><hdop>16.25</hdop><vdop>6.375</vdop><extensions><gom:speed>0.0</gom:speed></extensions></trkpt>
   <trkpt lat="59.0704795227" lon="30.0329484441"><ele>94.278</ele><time>2026-04-20T19:34:42.075Z</time><hdop>16.25</hdop><vdop>6.625</vdop><extensions><gom:speed>0.0</gom:speed></extensions></trkpt>
   <trkpt lat="59.0704794388" lon="30.0329484441"><ele>94.276</ele><time>2026-04-20T19:34:43.076Z</time><hdop>16.25</hdop><vdop>6.875</vdop><extensions><gom:speed>0.0</gom:speed></extensions></trkpt>
   <trkpt lat="59.0704794388" lon="30.0329484441"><ele>94.275</ele><time>2026-04-20T19:34:44.075Z</time><hdop>16.125</hdop><vdop>7.125</vdop><extensions><gom:speed>0.0</gom:speed></extensions></trkpt>
   <trkpt lat="59.070479355" lon="30.0329484441"><ele>94.274</ele><time>2026-04-20T19:34:45.075Z</time><hdop>16.0</hdop><vdop>7.5</vdop><extensions><gom:speed>0.0</gom:speed></extensions></trkpt>
   <trkpt lat="59.070479355" lon="30.0329484441"><ele>94.272</ele><time>2026-04-20T19:34:46.076Z</time><hdop>15.5</hdop><vdop>7.25</vdop><extensions><gom:speed>0.0</gom:speed></extensions></trkpt>
   <trkpt lat="59.070479355" lon="30.0329483603"><ele>94.268</ele><time>2026-04-20T19:34:47.076Z</time><hdop>14.875</hdop><vdop>7.875</vdop><extensions><gom:speed>0.0</gom:speed></extensions></trkpt>
   <trkpt lat="59.0704792293" lon="30.0329483603"><ele>94.264</ele><time>2026-04-20T19:34:48.075Z</time><hdop>14.5</hdop><vdop>8.125</vdop><extensions><gom:speed>0.0</gom:speed></extensions></trkpt>
   <trkpt lat="59.0704792293" lon="30.0329483603"><ele>94.26</ele><time>2026-04-20T19:34:49.075Z</time><hdop>14.125</hdop><vdop>8.375</vdop><extensions><gom:speed>0.0</gom:speed></extensions></trkpt>
   <trkpt lat="59.0704792293" lon="30.0329483603"><ele>94.259</ele><time>2026-04-20T19:34:50.076Z</time><hdop>14.0</hdop><vdop>8.75</vdop><extensions><gom:speed>0.0</gom:speed></extensions></trkpt>
   <trkpt lat="59.0704791455" lon="30.0329484441"><ele>94.26</ele><time>2026-04-20T19:34:51.075Z</time><hdop>13.625</hdop><vdop>8.875</vdop><extensions><gom:speed>0.0</gom:speed></extensions></trkpt>
   <trkpt lat="59.0704791455" lon="30.0329484441"><ele>94.256</ele><time>2026-04-20T19:34:52.075Z</time><hdop>13.625</hdop><vdop>9.125</vdop><extensions><gom:speed>0.0</gom:speed></extensions></trkpt>
   <trkpt lat="59.0704791455" lon="30.0329483603"><ele>94.251</ele><time>2026-04-20T19:34:53.075Z</time><hdop>13.625</hdop><vdop>9.25</vdop><extensions><gom:speed>0.0</gom:speed></extensions></trkpt>
   <trkpt lat="59.0704790197" lon="30.0329483603"><ele>94.248</ele><time>2026-04-20T19:34:54.075Z</time><hdop>13.75</hdop><vdop>9.25</vdop><extensions><gom:speed>0.0</gom:speed></extensions></trkpt>
   <trkpt lat="59.0704790197" lon="30.0329483603"><ele>94.246</ele><time>2026-04-20T19:34:55.076Z</time><hdop>13.75</hdop><vdop>9.375</vdop><extensions><gom:speed>0.0</gom:speed></extensions></trkpt>
   <trkpt lat="59.0704789359" lon="30.0329482765"><ele>94.245</ele><time>2026-04-20T19:34:56.075Z</time><hdop>13.875</hdop><vdop>9.75</vdop><extensions><gom:speed>0.0</gom:speed></extensions></trkpt>
   <trkpt lat="59.0704789359" lon="30.0329483603"><ele>94.244</ele><time>2026-04-20T19:34:57.075Z</time><hdop>14.0</hdop><vdop>10.0</vdop><extensions><gom:speed>0.0</gom:speed></extensions></trkpt>
   <trkpt lat="59.0704789359" lon="30.0329483603"><ele>94.245</ele><time>2026-04-20T19:34:58.075Z</time><hdop>14.125</hdop><vdop>10.25</vdop><extensions><gom:speed>0.0</gom:speed></extensions></trkpt>
   <trkpt lat="59.0704789359" lon="30.0329483603"><ele>94.245</ele><time>2026-04-20T19:34:59.075Z</time><hdop>14.625</hdop><vdop>10.5</vdop><extensions><gom:speed>0.0</gom:speed></extensions></trkpt>
   <trkpt lat="59.0704789359" lon="30.0329483603"><ele>94.245</ele><time>2026-04-20T19:35:00.075Z</time><hdop>15.25</hdop><vdop>10.25</vdop><extensions><gom:speed>0.0</gom:speed></extensions></trkpt>
   <trkpt lat="59.0704789359" lon="30.0329484441"><ele>94.245</ele><time>2026-04-20T19:35:01.075Z</time><hdop>16.125</hdop><vdop>10.125</vdop><extensions><gom:speed>0.0</gom:speed></extensions></trkpt>
   <trkpt lat="59.0704789359" lon="30.0329484441"><ele>94.246</ele><time>2026-04-20T19:35:02.075Z</time><hdop>17.75</hdop><vdop>9.875</vdop><extensions><gom:speed>0.0</gom:speed></extensions></trkpt>
   <trkpt lat="59.0704789359" lon="30.0329486117"><ele>94.248</ele><time>2026-04-20T19:35:03.075Z</time><hdop>19.0</hdop><vdop>9.75</vdop><extensions><gom:speed>0.0</gom:speed></extensions></trkpt>
   <trkpt lat="59.0704789359" lon="30.0329486117"><ele>94.251</ele><time>2026-04-20T19:35:04.075Z</time><hdop>20.375</hdop><vdop>9.75</vdop><extensions><gom:speed>0.0</gom:speed></extensions></trkpt>
   <trkpt lat="59.0704789359" lon="30.0329486955"><ele>94.252</ele><time>2026-04-20T19:35:05.075Z</time><hdop>21.875</hdop><vdop>9.625</vdop><extensions><gom:speed>0.0</gom:speed></extensions></trkpt>
   <trkpt lat="59.0704789359" lon="30.0329486955"><ele>94.254</ele><time>2026-04-20T19:35:06.076Z</time><hdop>23.5</hdop><vdop>9.25</vdop><extensions><gom:speed>0.0</gom:speed></extensions></trkpt>
   <trkpt lat="59.0704789359" lon="30.0329486955"><ele>94.254</ele><time>2026-04-20T19:35:07.075Z</time><hdop>25.375</hdop><vdop>8.875</vdop><extensions><gom:speed>0.0</gom:speed></extensions></trkpt>
   <trkpt lat="59.0704789359" lon="30.0329487794"><ele>94.255</ele><time>2026-04-20T19:35:08.075Z</time><hdop>26.5</hdop><vdop>8.5</vdop><extensions><gom:speed>0.0</gom:speed></extensions></trkpt>
   <trkpt lat="59.0704789359" lon="30.0329487794"><ele>94.255</ele><time>2026-04-20T19:35:09.075Z</time><hdop>27.75</hdop><vdop>8.25</vdop><extensions><gom:speed>0.0</gom:speed></extensions></trkpt>
   <trkpt lat="59.0704789359" lon="30.0329487794"><ele>94.255</ele><time>2026-04-20T19:35:10.075Z</time><hdop>28.625</hdop><vdop>7.875</vdop><extensions><gom:speed>0.0</gom:speed></extensions></trkpt>
   <trkpt lat="59.0704789359" lon="30.0329487794"><ele>94.254</ele><time>2026-04-20T19:35:11.075Z</time><hdop>29.375</hdop><vdop>7.625</vdop><extensions><gom:speed>0.0</gom:speed></extensions></trkpt>
   <trkpt lat="59.0704789359" lon="30.0329487794"><ele>94.253</ele><time>2026-04-20T19:35:12.075Z</time><hdop>30.375</hdop><vdop>7.5</vdop><extensions><gom:speed>0.0</gom:speed></extensions></trkpt>
   <trkpt lat="59.0704789359" lon="30.0329487794"><ele>94.253</ele><time>2026-04-20T19:35:13.075Z</time><hdop>31.5</hdop><vdop>7.5</vdop><extensions><gom:speed>0.0</gom:speed></extensions></trkpt>
   <trkpt lat="59.0704789359" lon="30.0329487794"><ele>94.253</ele><time>2026-04-20T19:35:14.075Z</time><hdop>33.875</hdop><vdop>8.625</vdop><extensions><gom:speed>0.0</gom:speed></extensions></trkpt>
   <trkpt lat="59.0704789359" lon="30.0329488632"><ele>94.254</ele><time>2026-04-20T19:35:15.076Z</time><hdop>37.5</hdop><vdop>9.875</vdop><extensions><gom:speed>0.0</gom:speed></extensions></trkpt>
   <trkpt lat="59.0704790197" lon="30.0329488632"><ele>94.255</ele><time>2026-04-20T19:35:16.075Z</time><hdop>42.625</hdop><vdop>11.375</vdop><extensions><gom:speed>0.0</gom:speed></extensions></trkpt>
   <trkpt lat="59.0704790197" lon="30.0329488632"><ele>94.256</ele><time>2026-04-20T19:35:17.076Z</time><hdop>49.625</hdop><vdop>12.875</vdop><extensions><gom:speed>0.0</gom:speed></extensions></trkpt>
   <trkpt lat="59.0704790197" lon="30.0329488632"><ele>94.257</ele><time>2026-04-20T19:35:18.075Z</time><hdop>57.125</hdop><vdop>13.125</vdop><extensions><gom:speed>0.0</gom:speed></extensions></trkpt>
   <trkpt lat="59.0704790197" lon="30.032948947"><ele>94.259</ele><time>2026-04-20T19:35:19.075Z</time><hdop>63.0</hdop><vdop>12.125</vdop><extensions><gom:speed>0.0</gom:speed></extensions></trkpt>
   <trkpt lat="59.0704790197" lon="30.032948947"><ele>94.261</ele><time>2026-04-20T19:35:20.075Z</time><hdop>66.625</hdop><vdop>10.875</vdop><extensions><gom:speed>0.0</gom:speed></extensions></trkpt>
   <trkpt lat="59.0704790197" lon="30.032948947"><ele>94.262</ele><time>2026-04-20T19:35:21.076Z</time><hdop>68.125</hdop><vdop>9.875</vdop><extensions><gom:speed>0.0</gom:speed></extensions></trkpt>
   <trkpt lat="59.0704790197" lon="30.032948947"><ele>94.261</ele><time>2026-04-20T19:35:22.075Z</time><hdop>67.25</hdop><vdop>9.0</vdop><extensions><gom:speed>0.0</gom:speed></extensions></trkpt>
   <trkpt lat="59.0704790197" lon="30.0329488632"><ele>94.26</ele><time>2026-04-20T19:35:23.075Z</time><hdop>64.0</hdop><vdop>8.25</vdop><extensions><gom:speed>0.0</gom:speed></extensions></trkpt>
   <trkpt lat="59.0704790197" lon="30.0329488632"><ele>94.26</ele><time>2026-04-20T19:35:24.075Z</time><hdop>60.25</hdop><vdop>8.25</vdop><extensions><gom:speed>0.0</gom:speed></extensions></trkpt>
   <trkpt lat="59.0704790197" lon="30.0329488632"><ele>94.259</ele><time>2026-04-20T19:35:25.075Z</time><hdop>58.25</hdop><vdop>8.75</vdop><extensions><gom:speed>0.0</gom:speed></extensions></trkpt>
   <trkpt lat="59.0704789359" lon="30.0329488632"><ele>94.258</ele><time>2026-04-20T19:35:26.075Z</time><hdop>58.875</hdop><vdop>10.0</vdop><extensions><gom:speed>0.0</gom:speed></extensions></trkpt>
   <trkpt lat="59.0704789359" lon="30.0329488632"><ele>94.257</ele><time>2026-04-20T19:35:27.075Z</time><hdop>61.5</hdop><vdop>10.75</vdop><extensions><gom:speed>0.0</gom:speed></extensions></trkpt>
   <trkpt lat="59.0704789359" lon="30.0329487794"><ele>94.255</ele><time>2026-04-20T19:35:28.076Z</time><hdop>66.0</hdop><vdop>11.5</vdop><extensions><gom:speed>0.0</gom:speed></extensions></trkpt>
   <trkpt lat="59.0704789359" lon="30.0329487794"><ele>94.254</ele><time>2026-04-20T19:35:29.075Z</time><hdop>72.0</hdop><vdop>12.125</vdop><extensions><gom:speed>0.0</gom:speed></extensions></trkpt>
   <trkpt lat="59.0704789359" lon="30.0329487794"><ele>94.253</ele><time>2026-04-20T19:35:30.076Z</time><hdop>78.125</hdop><vdop>12.75</vdop><extensions><gom:speed>0.0</gom:speed></extensions></trkpt>
   <trkpt lat="59.0704789359" lon="30.0329487794"><ele>94.252</ele><time>2026-04-20T19:35:31.075Z</time><hdop>81.125</hdop><vdop>12.375</vdop><extensions><gom:speed>0.0</gom:speed></extensions></trkpt>
   <trkpt lat="59.0704789359" lon="30.0329487794"><ele>94.251</ele><time>2026-04-20T19:35:32.075Z</time><hdop>81.25</hdop><vdop>11.5</vdop><extensions><gom:speed>0.0</gom:speed></extensions></trkpt>
   <trkpt lat="59.0704789359" lon="30.0329487794"><ele>94.25</ele><time>2026-04-20T19:35:33.075Z</time><hdop>79.25</hdop><vdop>10.875</vdop><extensions><gom:speed>0.0</gom:speed></extensions></trkpt>
   <trkpt lat="59.0704789359" lon="30.0329487794"><ele>94.248</ele><time>2026-04-20T19:35:34.075Z</time><hdop>74.875</hdop><vdop>10.0</vdop><extensions><gom:speed>0.0</gom:speed></extensions></trkpt>
   <trkpt lat="59.0704789359" lon="30.0329487794"><ele>94.245</ele><time>2026-04-20T19:35:35.076Z</time><hdop>68.875</hdop><vdop>9.375</vdop><extensions><gom:speed>0.0</gom:speed></extensions></trkpt>
   <trkpt lat="59.0704789359" lon="30.0329487794"><ele>94.242</ele><time>2026-04-20T19:35:36.075Z</time><hdop>61.625</hdop><vdop>8.875</vdop><extensions><gom:speed>0.0</gom:speed></extensions></trkpt>
   <trkpt lat="59.0704789359" lon="30.0329486955"><ele>94.24</ele><time>2026-04-20T19:35:37.075Z</time><hdop>57.125</hdop><vdop>8.5</vdop><extensions><gom:speed>0.0</gom:speed></extensions></trkpt>
   <trkpt lat="59.0704788521" lon="30.0329486955"><ele>94.237</ele><time>2026-04-20T19:35:38.075Z</time><hdop>53.875</hdop><vdop>8.875</vdop><extensions><gom:speed>0.0</gom:speed></extensions></trkpt>
   <trkpt lat="59.0704788521" lon="30.0329486955"><ele>94.235</ele><time>2026-04-20T19:35:39.075Z</time><hdop>51.875</hdop><vdop>9.25</vdop><extensions><gom:speed>0.0</gom:speed></extensions></trkpt>
   <trkpt lat="59.0704788521" lon="30.0329486955"><ele>94.233</ele><time>2026-04-20T19:35:40.075Z</time><hdop>50.25</hdop><vdop>9.625</vdop><extensions><gom:speed>0.0</gom:speed></extensions></trkpt>
   <trkpt lat="59.0704788521" lon="30.0329486955"><ele>94.231</ele><time>2026-04-20T19:35:41.075Z</time><hdop>49.625</hdop><vdop>9.875</vdop><extensions><gom:speed>0.0</gom:speed></extensions></trkpt>
   <trkpt lat="59.0704788521" lon="30.0329486955"><ele>94.23</ele><time>2026-04-20T19:35:42.075Z</time><hdop>49.875</hdop><vdop>10.25</vdop><extensions><gom:speed>0.0</gom:speed></extensions></trkpt>
   <trkpt lat="59.0704788521" lon="30.0329486955"><ele>94.229</ele><time>2026-04-20T19:35:43.075Z</time><hdop>50.75</hdop><vdop>10.5</vdop><extensions><gom:speed>0.0</gom:speed></extensions></trkpt>
   <trkpt lat="59.0704787264" lon="30.0329486117"><ele>94.227</ele><time>2026-04-20T19:35:44.075Z</time><hdop>51.625</hdop><vdop>10.875</vdop><extensions><gom:speed>0.0</gom:speed></extensions></trkpt>
   <trkpt lat="59.0704787264" lon="30.0329486117"><ele>94.226</ele><time>2026-04-20T19:35:45.075Z</time><hdop>50.25</hdop><vdop>10.25</vdop><extensions><gom:speed>0.0</gom:speed></extensions></trkpt>
   <trkpt lat="59.0704787264" lon="30.0329486117"><ele>94.224</ele><time>2026-04-20T19:35:46.075Z</time><hdop>49.625</hdop><vdop>10.125</vdop><extensions><gom:speed>0.0</gom:speed></extensions></trkpt>
   <trkpt lat="59.0704787264" lon="30.0329486117"><ele>94.221</ele><time>2026-04-20T19:35:47.075Z</time><hdop>48.625</hdop><vdop>10.0</vdop><extensions><gom:speed>0.0</gom:speed></extensions></trkpt>
   <trkpt lat="59.0704786426" lon="30.0329486117"><ele>94.219</ele><time>2026-04-20T19:35:48.075Z</time><hdop>47.375</hdop><vdop>10.0</vdop><extensions><gom:speed>0.0</gom:speed></extensions></trkpt>
   <trkpt lat="59.0704786426" lon="30.0329486117"><ele>94.215</ele><time>2026-04-20T19:35:49.075Z</time><hdop>45.875</hdop><vdop>9.875</vdop><extensions><gom:speed>0.0</gom:speed></extensions></trkpt>
   <trkpt lat="59.0704786426" lon="30.0329484441"><ele>94.211</ele><time>2026-04-20T19:35:50.076Z</time><hdop>44.25</hdop><vdop>9.875</vdop><extensions><gom:speed>0.0</gom:speed></extensions></trkpt>
   <trkpt lat="59.0704786426" lon="30.0329484441"><ele>94.206</ele><time>2026-04-20T19:35:51.075Z</time><hdop>44.375</hdop><vdop>9.375</vdop><extensions><gom:speed>0.0</gom:speed></extensions></trkpt>
   <trkpt lat="59.0704785168" lon="30.0329484441"><ele>94.202</ele><time>2026-04-20T19:35:52.075Z</time><hdop>44.875</hdop><vdop>10.25</vdop><extensions><gom:speed>0.0</gom:speed></extensions></trkpt>
   <trkpt lat="59.0704785168" lon="30.0329484441"><ele>94.198</ele><time>2026-04-20T19:35:53.076Z</time><hdop>46.375</hdop><vdop>11.25</vdop><extensions><gom:speed>0.0</gom:speed></extensions></trkpt>
   <trkpt lat="59.0704785168" lon="30.0329484441"><ele>94.194</ele><time>2026-04-20T19:35:54.076Z</time><hdop>49.0</hdop><vdop>12.25</vdop><extensions><gom:speed>0.0</gom:speed></extensions></trkpt>
   <trkpt lat="59.0704785168" lon="30.0329483603"><ele>94.19</ele><time>2026-04-20T19:35:55.075Z</time><hdop>55.125</hdop><vdop>16.125</vdop><extensions><gom:speed>0.0</gom:speed></extensions></trkpt>
   <trkpt lat="59.070478433" lon="30.0329483603"><ele>94.186</ele><time>2026-04-20T19:35:56.075Z</time><hdop>65.0</hdop><vdop>20.125</vdop><extensions><gom:speed>0.0</gom:speed></extensions></trkpt>
   <trkpt lat="59.070478433" lon="30.0329482765"><ele>94.184</ele><time>2026-04-20T19:35:57.076Z</time><hdop>72.625</hdop><vdop>18.625</vdop><extensions><gom:speed>0.0</gom:speed></extensions></trkpt>
   <trkpt lat="59.070478433" lon="30.0329482765"><ele>94.182</ele><time>2026-04-20T19:35:58.075Z</time><hdop>80.625</hdop><vdop>19.0</vdop><extensions><gom:speed>0.0</gom:speed></extensions></trkpt>
   <trkpt lat="59.070478433" lon="30.0329482765"><ele>94.182</ele><time>2026-04-20T19:35:59.075Z</time><hdop>88.25</hdop><vdop>19.25</vdop><extensions><gom:speed>0.0</gom:speed></extensions></trkpt>
   <trkpt lat="59.070478433" lon="30.0329482765"><ele>94.181</ele><time>2026-04-20T19:36:00.075Z</time><hdop>95.625</hdop><vdop>19.625</vdop><extensions><gom:speed>0.0</gom:speed></extensions></trkpt>
   <trkpt lat="59.0704783492" lon="30.0329482765"><ele>94.18</ele><time>2026-04-20T19:36:01.075Z</time><hdop>100.375</hdop><vdop>19.875</vdop><extensions><gom:speed>0.0</gom:speed></extensions></trkpt>
   <trkpt lat="59.0704783492" lon="30.0329482765"><ele>94.179</ele><time>2026-04-20T19:36:02.075Z</time><hdop>106.25</hdop><vdop>24.5</vdop><extensions><gom:speed>0.0</gom:speed></extensions></trkpt>
   <trkpt lat="59.0704783492" lon="30.0329481926"><ele>94.178</ele><time>2026-04-20T19:36:03.076Z</time><hdop>114.625</hdop><vdop>25.0</vdop><extensions><gom:speed>0.0</gom:speed></extensions></trkpt>
   <trkpt lat="59.0704782235" lon="30.0329481926"><ele>94.177</ele><time>2026-04-20T19:36:04.076Z</time><hdop>127.375</hdop><vdop>29.625</vdop><extensions><gom:speed>0.0</gom:speed></extensions></trkpt>
   <trkpt lat="59.0704782235" lon="30.0329481926"><ele>94.175</ele><time>2026-04-20T19:36:05.075Z</time><hdop>144.0</hdop><vdop>34.25</vdop><extensions><gom:speed>0.0</gom:speed></extensions></trkpt>
   <trkpt lat="59.0704782235" lon="30.0329481088"><ele>94.173</ele><time>2026-04-20T19:36:06.076Z</time><hdop>165.5</hdop><vdop>38.875</vdop><extensions><gom:speed>0.0</gom:speed></extensions></trkpt>
   <trkpt lat="59.0704782235" lon="30.0329481088"><ele>94.171</ele><time>2026-04-20T19:36:07.075Z</time><hdop>191.625</hdop><vdop>43.375</vdop><extensions><gom:speed>0.0</gom:speed></extensions></trkpt>
   <trkpt lat="59.0704782235" lon="30.0329481088"><ele>94.171</ele><time>2026-04-20T19:36:08.075Z</time><hdop>163.625</hdop><vdop>31.25</vdop><extensions><gom:speed>0.0</gom:speed></extensions></trkpt>
   <trkpt lat="59.0704782235" lon="30.0329481088"><ele>94.172</ele><time>2026-04-20T19:36:09.075Z</time><hdop>141.0</hdop><vdop>22.875</vdop><extensions><gom:speed>0.0</gom:speed></extensions></trkpt>
   <trkpt lat="59.0704781396" lon="30.0329481088"><ele>94.172</ele><time>2026-04-20T19:36:10.075Z</time><hdop>127.75</hdop><vdop>18.875</vdop><extensions><gom:speed>0.0</gom:speed></extensions></trkpt>
   <trkpt lat="59.0704781396" lon="30.0329481088"><ele>94.172</ele><time>2026-04-20T19:36:11.075Z</time><hdop>117.875</hdop><vdop>16.125</vdop><extensions><gom:speed>0.0</gom:speed></extensions></trkpt>
   <trkpt lat="59.0704781396" lon="30.0329481088"><ele>94.172</ele><time>2026-04-20T19:36:12.075Z</time><hdop>110.25</hdop><vdop>14.125</vdop><extensions><gom:speed>0.0</gom:speed></extensions></trkpt>
   <trkpt lat="59.0704781396" lon="30.0329481088"><ele>94.172</ele><time>2026-04-20T19:36:13.076Z</time><hdop>104.25</hdop><vdop>12.625</vdop><extensions><gom:speed>0.0</gom:speed></extensions></trkpt>
   <trkpt lat="59.0704781396" lon="30.0329481088"><ele>94.171</ele><time>2026-04-20T19:36:14.076Z</time><hdop>89.125</hdop><vdop>12.0</vdop><extensions><gom:speed>0.0</gom:speed></extensions></trkpt>
   <trkpt lat="59.0704781396" lon="30.0329481088"><ele>94.171</ele><time>2026-04-20T19:36:15.075Z</time><hdop>82.0</hdop><vdop>12.875</vdop><extensions><gom:speed>0.0</gom:speed></extensions></trkpt>
   <trkpt lat="59.0704781396" lon="30.0329481088"><ele>94.17</ele><time>2026-04-20T19:36:16.075Z</time><hdop>81.75</hdop><vdop>16.375</vdop><extensions><gom:speed>0.0</gom:speed></extensions></trkpt>
   <trkpt lat="59.0704781396" lon="30.0329481088"><ele>94.171</ele><time>2026-04-20T19:36:17.076Z</time><hdop>88.25</hdop><vdop>20.125</vdop><extensions><gom:speed>0.0</gom:speed></extensions></trkpt>
   <trkpt lat="59.0704781396" lon="30.0329481088"><ele>94.171</ele><time>2026-04-20T19:36:18.075Z</time><hdop>101.125</hdop><vdop>24.125</vdop><extensions><gom:speed>0.0</gom:speed></extensions></trkpt>
   <trkpt lat="59.0704781396" lon="30.0329481088"><ele>94.17</ele><time>2026-04-20T19:36:19.075Z</time><hdop>118.5</hdop><vdop>28.25</vdop><extensions><gom:speed>0.0</gom:speed></extensions></trkpt>
   <trkpt lat="59.0704781396" lon="30.0329479412"><ele>94.169</ele><time>2026-04-20T19:36:20.075Z</time><hdop>129.625</hdop><vdop>23.5</vdop><extensions><gom:speed>0.0</gom:speed></extensions></trkpt>
   <trkpt lat="59.0704781396" lon="30.0329479412"><ele>94.167</ele><time>2026-04-20T19:36:21.075Z</time><hdop>136.625</hdop><vdop>20.25</vdop><extensions><gom:speed>0.0</gom:speed></extensions></trkpt>
   <trkpt lat="59.0704780558" lon="30.0329479412"><ele>94.164</ele><time>2026-04-20T19:36:22.076Z</time><hdop>56.125</hdop><vdop>16.625</vdop><extensions><gom:speed>0.0</gom:speed></extensions></trkpt>
   <trkpt lat="59.0704780558" lon="30.0329479412"><ele>94.16</ele><time>2026-04-20T19:36:23.075Z</time><hdop>43.625</hdop><vdop>16.25</vdop><extensions><gom:speed>0.0</gom:speed></extensions></trkpt>
   <trkpt lat="59.0704780558" lon="30.0329478574"><ele>94.158</ele><time>2026-04-20T19:36:24.075Z</time><hdop>39.375</hdop><vdop>16.125</vdop><extensions><gom:speed>0.0</gom:speed></extensions></trkpt>
   <trkpt lat="59.0704779301" lon="30.0329478574"><ele>94.154</ele><time>2026-04-20T19:36:25.075Z</time><hdop>36.0</hdop><vdop>16.0</vdop><extensions><gom:speed>0.0</gom:speed></extensions></trkpt>
   <trkpt lat="59.0704779301" lon="30.0329477735"><ele>94.15</ele><time>2026-04-20T19:36:26.076Z</time><hdop>33.5</hdop><vdop>14.75</vdop><extensions><gom:speed>0.0</gom:speed></extensions></trkpt>
   <trkpt lat="59.0704778463" lon="30.0329477735"><ele>94.149</ele><time>2026-04-20T19:36:27.075Z</time><hdop>30.875</hdop><vdop>12.625</vdop><extensions><gom:speed>0.0</gom:speed></extensions></trkpt>
   <trkpt lat="59.0704778463" lon="30.0329476897"><ele>94.144</ele><time>2026-04-20T19:36:28.075Z</time><hdop>24.125</hdop><vdop>11.0</vdop><extensions><gom:speed>0.0</gom:speed></extensions></trkpt>
   <trkpt lat="59.0704777205" lon="30.0329476897"><ele>94.142</ele><time>2026-04-20T19:36:29.075Z</time><hdop>21.375</hdop><vdop>9.75</vdop><extensions><gom:speed>0.0</gom:speed></extensions></trkpt>
   <trkpt lat="59.0704777205" lon="30.0329476059"><ele>94.14</ele><time>2026-04-20T19:36:30.075Z</time><hdop>18.625</hdop><vdop>9.125</vdop><extensions><gom:speed>0.0</gom:speed></extensions></trkpt>
   <trkpt lat="59.0704777205" lon="30.0329476059"><ele>94.136</ele><time>2026-04-20T19:36:31.075Z</time><hdop>16.625</hdop><vdop>8.875</vdop><extensions><gom:speed>0.0</gom:speed></extensions></trkpt>
   <trkpt lat="59.0704776367" lon="30.0329474383"><ele>94.134</ele><time>2026-04-20T19:36:32.075Z</time><hdop>15.0</hdop><vdop>8.625</vdop><extensions><gom:speed>0.0</gom:speed></extensions></trkpt>
   <trkpt lat="59.0704776367" lon="30.0329473544"><ele>94.132</ele><time>2026-04-20T19:36:33.075Z</time><hdop>14.125</hdop><vdop>8.375</vdop><extensions><gom:speed>0.0</gom:speed></extensions></trkpt>
   <trkpt lat="59.0704776367" lon="30.0329473544"><ele>94.13</ele><time>2026-04-20T19:36:34.076Z</time><hdop>13.625</hdop><vdop>8.5</vdop><extensions><gom:speed>0.0</gom:speed></extensions></trkpt>
   <trkpt lat="59.0704775529" lon="30.0329473544"><ele>94.129</ele><time>2026-04-20T19:36:35.075Z</time><hdop>13.25</hdop><vdop>8.125</vdop><extensions><gom:speed>0.0</gom:speed></extensions></trkpt>
   <trkpt lat="59.0704775529" lon="30.0329473544"><ele>94.127</ele><time>2026-04-20T19:36:36.075Z</time><hdop>13.0</hdop><vdop>7.75</vdop><extensions><gom:speed>0.0</gom:speed></extensions></trkpt>
   <trkpt lat="59.0704775529" lon="30.0329473544"><ele>94.126</ele><time>2026-04-20T19:36:37.075Z</time><hdop>12.625</hdop><vdop>7.375</vdop><extensions><gom:speed>0.0</gom:speed></extensions></trkpt>
   <trkpt lat="59.0704774272" lon="30.0329473544"><ele>94.123</ele><time>2026-04-20T19:36:38.075Z</time><hdop>12.25</hdop><vdop>7.5</vdop><extensions><gom:speed>0.0</gom:speed></extensions></trkpt>
   <trkpt lat="59.0704774272" lon="30.0329473544"><ele>94.121</ele><time>2026-04-20T19:36:39.076Z</time><hdop>12.0</hdop><vdop>7.5</vdop><extensions><gom:speed>0.0</gom:speed></extensions></trkpt>
   <trkpt lat="59.0704774272" lon="30.0329473544"><ele>94.119</ele><time>2026-04-20T19:36:40.075Z</time><hdop>11.75</hdop><vdop>7.25</vdop><extensions><gom:speed>0.0</gom:speed></extensions></trkpt>
   <trkpt lat="59.0704774272" lon="30.0329473544"><ele>94.117</ele><time>2026-04-20T19:36:41.076Z</time><hdop>11.5</hdop><vdop>7.0</vdop><extensions><gom:speed>0.0</gom:speed></extensions></trkpt>
   <trkpt lat="59.0704773434" lon="30.0329472706"><ele>94.114</ele><time>2026-04-20T19:36:42.075Z</time><hdop>11.25</hdop><vdop>6.75</vdop><extensions><gom:speed>0.0</gom:speed></extensions></trkpt>
   <trkpt lat="59.0704773434" lon="30.0329472706"><ele>94.11</ele><time>2026-04-20T19:36:43.076Z</time><hdop>11.125</hdop><vdop>6.125</vdop><extensions><gom:speed>0.0</gom:speed></extensions></trkpt>
   <trkpt lat="59.0704772176" lon="30.0329471868"><ele>94.106</ele><time>2026-04-20T19:36:44.075Z</time><hdop>10.875</hdop><vdop>6.125</vdop><extensions><gom:speed>0.0</gom:speed></extensions></trkpt>
   <trkpt lat="59.0704772176" lon="30.032947103"><ele>94.1</ele><time>2026-04-20T19:36:45.076Z</time><hdop>10.75</hdop><vdop>6.375</vdop><extensions><gom:speed>0.0</gom:speed></extensions></trkpt>
   <trkpt lat="59.0704772176" lon="30.032947103"><ele>94.095</ele><time>2026-04-20T19:36:46.075Z</time><hdop>10.625</hdop><vdop>6.25</vdop><extensions><gom:speed>0.0</gom:speed></extensions></trkpt>
   <trkpt lat="59.0704772176" lon="30.0329469353"><ele>94.092</ele><time>2026-04-20T19:36:47.076Z</time><hdop>10.5</hdop><vdop>6.125</vdop><extensions><gom:speed>0.0</gom:speed></extensions></trkpt>
   <trkpt lat="59.0704772176" lon="30.0329469353"><ele>94.088</ele><time>2026-04-20T19:36:48.075Z</time><hdop>10.375</hdop><vdop>6.0</vdop><extensions><gom:speed>0.0</gom:speed></extensions></trkpt>
   <trkpt lat="59.0704772176" lon="30.0329468515"><ele>94.085</ele><time>2026-04-20T19:36:49.075Z</time><hdop>10.375</hdop><vdop>6.25</vdop><extensions><gom:speed>0.0</gom:speed></extensions></trkpt>
   <trkpt lat="59.0704772176" lon="30.0329467677"><ele>94.083</ele><time>2026-04-20T19:36:50.075Z</time><hdop>10.375</hdop><vdop>6.375</vdop><extensions><gom:speed>0.0</gom:speed></extensions></trkpt>
   <trkpt lat="59.0704772176" lon="30.0329466839"><ele>94.082</ele><time>2026-04-20T19:36:51.075Z</time><hdop>10.375</hdop><vdop>6.625</vdop><extensions><gom:speed>0.0</gom:speed></extensions></trkpt>
   <trkpt lat="59.0704771338" lon="30.0329466001"><ele>94.081</ele><time>2026-04-20T19:36:52.075Z</time><hdop>10.375</hdop><vdop>7.125</vdop><extensions><gom:speed>0.0</gom:speed></extensions></trkpt>
   <trkpt lat="59.0704771338" lon="30.0329466001"><ele>94.079</ele><time>2026-04-20T19:36:53.076Z</time><hdop>10.5</hdop><vdop>7.375</vdop><extensions><gom:speed>0.0</gom:speed></extensions></trkpt>
   <trkpt lat="59.0704771338" lon="30.0329464324"><ele>94.075</ele><time>2026-04-20T19:36:54.075Z</time><hdop>10.625</hdop><vdop>7.25</vdop><extensions><gom:speed>0.0</gom:speed></extensions></trkpt>
   <trkpt lat="59.0704771338" lon="30.0329462648"><ele>94.069</ele><time>2026-04-20T19:36:55.075Z</time><hdop>10.625</hdop><vdop>7.375</vdop><extensions><gom:speed>0.0</gom:speed></extensions></trkpt>
   <trkpt lat="59.07047705" lon="30.032946181"><ele>94.063</ele><time>2026-04-20T19:36:56.075Z</time><hdop>10.75</hdop><vdop>7.125</vdop><extensions><gom:speed>0.0</gom:speed></extensions></trkpt>
   <trkpt lat="59.07047705" lon="30.0329460972"><ele>94.056</ele><time>2026-04-20T19:36:57.076Z</time><hdop>10.75</hdop><vdop>6.875</vdop><extensions><gom:speed>0.0</gom:speed></extensions></trkpt>
   <trkpt lat="59.0704769243" lon="30.0329460133"><ele>94.05</ele><time>2026-04-20T19:36:58.075Z</time><hdop>10.75</hdop><vdop>6.375</vdop><extensions><gom:speed>0.0</gom:speed></extensions></trkpt>
   <trkpt lat="59.0704769243" lon="30.0329458457"><ele>94.043</ele><time>2026-04-20T19:36:59.075Z</time><hdop>10.75</hdop><vdop>6.375</vdop><extensions><gom:speed>0.0</gom:speed></extensions></trkpt>
   <trkpt lat="59.0704769243" lon="30.0329457619"><ele>94.036</ele><time>2026-04-20T19:37:00.075Z</time><hdop>10.625</hdop><vdop>6.0</vdop><extensions><gom:speed>0.0</gom:speed></extensions></trkpt>
   <trkpt lat="59.0704768404" lon="30.0329456781"><ele>94.031</ele><time>2026-04-20T19:37:01.075Z</time><hdop>10.5</hdop><vdop>5.75</vdop><extensions><gom:speed>0.0</gom:speed></extensions></trkpt>
   <trkpt lat="59.0704768404" lon="30.0329455942"><ele>94.025</ele><time>2026-04-20T19:37:02.075Z</time><hdop>10.5</hdop><vdop>5.625</vdop><extensions><gom:speed>0.0</gom:speed></extensions></trkpt>
   <trkpt lat="59.0704768404" lon="30.0329455104"><ele>94.022</ele><time>2026-04-20T19:37:03.075Z</time><hdop>10.375</hdop><vdop>5.5</vdop><extensions><gom:speed>0.0</gom:speed></extensions></trkpt>
   <trkpt lat="59.0704767566" lon="30.0329455104"><ele>94.02</ele><time>2026-04-20T19:37:04.075Z</time><hdop>10.375</hdop><vdop>5.5</vdop><extensions><gom:speed>0.0</gom:speed></extensions></trkpt>
   <trkpt lat="59.0704767566" lon="30.0329453428"><ele>94.017</ele><time>2026-04-20T19:37:05.075Z</time><hdop>10.375</hdop><vdop>5.5</vdop><extensions><gom:speed>0.0</gom:speed></extensions></trkpt>
   <trkpt lat="59.0704766309" lon="30.0329453428"><ele>94.017</ele><time>2026-04-20T19:37:06.075Z</time><hdop>10.25</hdop><vdop>5.375</vdop><extensions><gom:speed>0.0</gom:speed></extensions></trkpt>
   <trkpt lat="59.0704765471" lon="30.0329453428"><ele>94.016</ele><time>2026-04-20T19:37:07.076Z</time><hdop>10.25</hdop><vdop>5.25</vdop><extensions><gom:speed>0.0</gom:speed></extensions></trkpt>
   <trkpt lat="59.0704765471" lon="30.0329453428"><ele>94.016</ele><time>2026-04-20T19:37:08.075Z</time><hdop>10.25</hdop><vdop>5.125</vdop><extensions><gom:speed>0.0</gom:speed></extensions></trkpt>
   <trkpt lat="59.0704765471" lon="30.0329453428"><ele>94.016</ele><time>2026-04-20T19:37:09.076Z</time><hdop>10.25</hdop><vdop>5.0</vdop><extensions><gom:speed>0.0</gom:speed></extensions></trkpt>
   <trkpt lat="59.0704764214" lon="30.0329453428"><ele>94.012</ele><time>2026-04-20T19:37:10.075Z</time><hdop>10.125</hdop><vdop>5.0</vdop><extensions><gom:speed>0.0</gom:speed></extensions></trkpt>
   <trkpt lat="59.0704764214" lon="30.032945259"><ele>94.008</ele><time>2026-04-20T19:37:11.076Z</time><hdop>10.125</hdop><vdop>5.0</vdop><extensions><gom:speed>0.0</gom:speed></extensions></trkpt>
   <trkpt lat="59.0704767566" lon="30.0329450075"><ele>94.064</ele><time>2026-04-20T19:37:12.075Z</time><hdop>10.125</hdop><vdop>4.875</vdop><extensions><gom:speed>0.0</gom:speed></extensions></trkpt>
   <trkpt lat="59.0704769243" lon="30.0329447561"><ele>94.099</ele><time>2026-04-20T19:37:13.075Z</time><hdop>10.0</hdop><vdop>4.875</vdop><extensions><gom:speed>0.0</gom:speed></extensions></trkpt>
   <trkpt lat="59.0704772176" lon="30.0329445884"><ele>94.152</ele><time>2026-04-20T19:37:14.075Z</time><hdop>10.0</hdop><vdop>4.625</vdop><extensions><gom:speed>0.0</gom:speed></extensions></trkpt>
   <trkpt lat="59.0704773434" lon="30.032944337"><ele>94.184</ele><time>2026-04-20T19:37:15.075Z</time><hdop>10.0</hdop><vdop>4.625</vdop><extensions><gom:speed>0.0</gom:speed></extensions></trkpt>
   <trkpt lat="59.0704775529" lon="30.0329442531"><ele>94.228</ele><time>2026-04-20T19:37:16.075Z</time><hdop>10.0</hdop><vdop>5.125</vdop><extensions><gom:speed>0.0</gom:speed></extensions></trkpt>
   <trkpt lat="59.0704776367" lon="30.0329441693"><ele>94.255</ele><time>2026-04-20T19:37:17.075Z</time><hdop>10.0</hdop><vdop>5.5</vdop><extensions><gom:speed>0.0</gom:speed></extensions></trkpt>
   <trkpt lat="59.0704776367" lon="30.0329441693"><ele>94.272</ele><time>2026-04-20T19:37:18.075Z</time><hdop>10.0</hdop><vdop>5.875</vdop><extensions><gom:speed>0.0</gom:speed></extensions></trkpt>
   <trkpt lat="59.0704776367" lon="30.0329441693"><ele>94.283</ele><time>2026-04-20T19:37:19.076Z</time><hdop>10.0</hdop><vdop>6.25</vdop><extensions><gom:speed>0.0</gom:speed></extensions></trkpt>
   <trkpt lat="59.0704776367" lon="30.0329440855"><ele>94.289</ele><time>2026-04-20T19:37:20.075Z</time><hdop>10.125</hdop><vdop>6.5</vdop><extensions><gom:speed>0.0</gom:speed></extensions></trkpt>
   <trkpt lat="59.0704777205" lon="30.032943834"><ele>94.307</ele><time>2026-04-20T19:37:21.075Z</time><hdop>10.25</hdop><vdop>6.75</vdop><extensions><gom:speed>0.0</gom:speed></extensions></trkpt>
   <trkpt lat="59.0704777205" lon="30.0329437502"><ele>94.317</ele><time>2026-04-20T19:37:22.075Z</time><hdop>10.375</hdop><vdop>6.875</vdop><extensions><gom:speed>0.0</gom:speed></extensions></trkpt>
   <trkpt lat="59.0704779301" lon="30.0329434988"><ele>94.324</ele><time>2026-04-20T19:37:23.075Z</time><hdop>10.5</hdop><vdop>6.625</vdop><extensions><gom:speed>0.0</gom:speed></extensions></trkpt>
   <trkpt lat="59.0704780558" lon="30.0329432473"><ele>94.333</ele><time>2026-04-20T19:37:24.075Z</time><hdop>10.5</hdop><vdop>6.5</vdop><extensions><gom:speed>0.0</gom:speed></extensions></trkpt>
   <trkpt lat="59.0704780558" lon="30.0329431635"><ele>94.338</ele><time>2026-04-20T19:37:25.075Z</time><hdop>10.625</hdop><vdop>6.625</vdop><extensions><gom:speed>0.0</gom:speed></extensions></trkpt>
   <trkpt lat="59.0704780558" lon="30.0329429959"><ele>94.342</ele><time>2026-04-20T19:37:26.075Z</time><hdop>10.625</hdop><vdop>6.5</vdop><extensions><gom:speed>0.0</gom:speed></extensions></trkpt>
   <trkpt lat="59.0704779301" lon="30.032942912"><ele>94.346</ele><time>2026-04-20T19:37:27.075Z</time><hdop>10.625</hdop><vdop>6.375</vdop><extensions><gom:speed>0.0</gom:speed></extensions></trkpt>
   <trkpt lat="59.0704779301" lon="30.0329427444"><ele>94.347</ele><time>2026-04-20T19:37:28.075Z</time><hdop>10.625</hdop><vdop>6.25</vdop><extensions><gom:speed>0.0</gom:speed></extensions></trkpt>
   <trkpt lat="59.0704779301" lon="30.0329426606"><ele>94.35</ele><time>2026-04-20T19:37:29.075Z</time><hdop>10.75</hdop><vdop>6.375</vdop><extensions><gom:speed>0.0</gom:speed></extensions></trkpt>
   <trkpt lat="59.0704778463" lon="30.0329425768"><ele>94.349</ele><time>2026-04-20T19:37:30.075Z</time><hdop>10.75</hdop><vdop>6.375</vdop><extensions><gom:speed>0.0</gom:speed></extensions></trkpt>
   <trkpt lat="59.0704778463" lon="30.0329424929"><ele>94.347</ele><time>2026-04-20T19:37:31.075Z</time><hdop>10.875</hdop><vdop>6.25</vdop><extensions><gom:speed>0.0</gom:speed></extensions></trkpt>
   <trkpt lat="59.0704777205" lon="30.0329424929"><ele>94.345</ele><time>2026-04-20T19:37:32.076Z</time><hdop>10.875</hdop><vdop>6.125</vdop><extensions><gom:speed>0.0</gom:speed></extensions></trkpt>
   <trkpt lat="59.0704776367" lon="30.0329424091"><ele>94.346</ele><time>2026-04-20T19:37:33.075Z</time><hdop>11.0</hdop><vdop>6.5</vdop><extensions><gom:speed>0.0</gom:speed></extensions></trkpt>
   <trkpt lat="59.0704775529" lon="30.0329424091"><ele>94.347</ele><time>2026-04-20T19:37:34.076Z</time><hdop>11.0</hdop><vdop>6.5</vdop><extensions><gom:speed>0.0</gom:speed></extensions></trkpt>
   <trkpt lat="59.0704775529" lon="30.0329424091"><ele>94.347</ele><time>2026-04-20T19:37:35.075Z</time><hdop>11.0</hdop><vdop>6.75</vdop><extensions><gom:speed>0.0</gom:speed></extensions></trkpt>
   <trkpt lat="59.0704774272" lon="30.0329424091"><ele>94.348</ele><time>2026-04-20T19:37:36.075Z</time><hdop>11.0</hdop><vdop>7.125</vdop><extensions><gom:speed>0.0</gom:speed></extensions></trkpt>
   <trkpt lat="59.0704774272" lon="30.0329424091"><ele>94.349</ele><time>2026-04-20T19:37:37.076Z</time><hdop>11.0</hdop><vdop>6.875</vdop><extensions><gom:speed>0.0</gom:speed></extensions></trkpt>
   <trkpt lat="59.0704775529" lon="30.0329421577"><ele>94.376</ele><time>2026-04-20T19:37:38.075Z</time><hdop>11.0</hdop><vdop>6.625</vdop><extensions><gom:speed>0.0</gom:speed></extensions></trkpt>
   <trkpt lat="59.0704776367" lon="30.0329420738"><ele>94.411</ele><time>2026-04-20T19:37:39.075Z</time><hdop>10.875</hdop><vdop>6.5</vdop><extensions><gom:speed>0.0</gom:speed></extensions></trkpt>
   <trkpt lat="59.0704777205" lon="30.0329419062"><ele>94.433</ele><time>2026-04-20T19:37:40.075Z</time><hdop>10.875</hdop><vdop>6.25</vdop><extensions><gom:speed>0.0</gom:speed></extensions></trkpt>
   <trkpt lat="59.0704776367" lon="30.0329419062"><ele>94.448</ele><time>2026-04-20T19:37:41.075Z</time><hdop>10.75</hdop><vdop>6.0</vdop><extensions><gom:speed>0.0</gom:speed></extensions></trkpt>
   <trkpt lat="59.0704776367" lon="30.0329417386"><ele>94.458</ele><time>2026-04-20T19:37:42.075Z</time><hdop>10.625</hdop><vdop>5.75</vdop><extensions><gom:speed>0.0</gom:speed></extensions></trkpt>
   <trkpt lat="59.0704776367" lon="30.0329417386"><ele>94.463</ele><time>2026-04-20T19:37:43.075Z</time><hdop>10.625</hdop><vdop>5.625</vdop><extensions><gom:speed>0.0</gom:speed></extensions></trkpt>
   <trkpt lat="59.0704776367" lon="30.0329416547"><ele>94.467</ele><time>2026-04-20T19:37:44.075Z</time><hdop>10.5</hdop><vdop>5.375</vdop><extensions><gom:speed>0.0</gom:speed></extensions></trkpt>
   <trkpt lat="59.0704775529" lon="30.0329416547"><ele>94.472</ele><time>2026-04-20T19:37:45.076Z</time><hdop>10.5</hdop><vdop>5.375</vdop><extensions><gom:speed>0.0</gom:speed></extensions></trkpt>
   <trkpt lat="59.0704775529" lon="30.0329415709"><ele>94.474</ele><time>2026-04-20T19:37:46.075Z</time><hdop>10.5</hdop><vdop>5.5</vdop><extensions><gom:speed>0.0</gom:speed></extensions></trkpt>
   <trkpt lat="59.0704774272" lon="30.0329414871"><ele>94.475</ele><time>2026-04-20T19:37:47.075Z</time><hdop>10.5</hdop><vdop>5.625</vdop><extensions><gom:speed>0.0</gom:speed></extensions></trkpt>
   <trkpt lat="59.0704774272" lon="30.0329414871"><ele>94.476</ele><time>2026-04-20T19:37:48.076Z</time><hdop>10.625</hdop><vdop>5.75</vdop><extensions><gom:speed>0.0</gom:speed></extensions></trkpt>
   <trkpt lat="59.0704773434" lon="30.0329414033"><ele>94.477</ele><time>2026-04-20T19:37:49.075Z</time><hdop>10.75</hdop><vdop>5.75</vdop><extensions><gom:speed>0.0</gom:speed></extensions></trkpt>
   <trkpt lat="59.0704773434" lon="30.0329414033"><ele>94.478</ele><time>2026-04-20T19:37:50.075Z</time><hdop>10.75</hdop><vdop>5.75</vdop><extensions><gom:speed>0.0</gom:speed></extensions></trkpt>
   <trkpt lat="59.0704772176" lon="30.0329414033"><ele>94.478</ele><time>2026-04-20T19:37:51.075Z</time><hdop>10.875</hdop><vdop>5.875</vdop><extensions><gom:speed>0.0</gom:speed></extensions></trkpt>
   <trkpt lat="59.0704771338" lon="30.0329414033"><ele>94.476</ele><time>2026-04-20T19:37:52.075Z</time><hdop>10.875</hdop><vdop>5.875</vdop><extensions><gom:speed>0.0</gom:speed></extensions></trkpt>
   <trkpt lat="59.07047705" lon="30.0329414033"><ele>94.475</ele><time>2026-04-20T19:37:53.076Z</time><hdop>10.875</hdop><vdop>5.875</vdop><extensions><gom:speed>0.0</gom:speed></extensions></trkpt>
   <trkpt lat="59.07047705" lon="30.0329414033"><ele>94.473</ele><time>2026-04-20T19:37:54.075Z</time><hdop>10.875</hdop><vdop>6.125</vdop><extensions><gom:speed>0.0</gom:speed></extensions></trkpt>
   <trkpt lat="59.0704769243" lon="30.0329412357"><ele>94.47</ele><time>2026-04-20T19:37:55.075Z</time><hdop>10.75</hdop><vdop>5.875</vdop><extensions><gom:speed>0.0</gom:speed></extensions></trkpt>
   <trkpt lat="59.0704768404" lon="30.0329412357"><ele>94.467</ele><time>2026-04-20T19:37:56.075Z</time><hdop>10.75</hdop><vdop>5.875</vdop><extensions><gom:speed>0.0</gom:speed></extensions></trkpt>
   <trkpt lat="59.0704767566" lon="30.0329411518"><ele>94.463</ele><time>2026-04-20T19:37:57.076Z</time><hdop>10.75</hdop><vdop>5.625</vdop><extensions><gom:speed>0.0</gom:speed></extensions></trkpt>
   <trkpt lat="59.0704767566" lon="30.0329411518"><ele>94.458</ele><time>2026-04-20T19:37:58.075Z</time><hdop>10.75</hdop><vdop>5.75</vdop><extensions><gom:speed>0.0</gom:speed></extensions></trkpt>
   <trkpt lat="59.0704767566" lon="30.032941068"><ele>94.456</ele><time>2026-04-20T19:37:59.076Z</time><hdop>10.75</hdop><vdop>5.75</vdop><extensions><gom:speed>0.0</gom:speed></extensions></trkpt>
   <trkpt lat="59.0704767566" lon="30.032941068"><ele>94.451</ele><time>2026-04-20T19:38:00.075Z</time><hdop>10.75</hdop><vdop>5.75</vdop><extensions><gom:speed>0.0</gom:speed></extensions></trkpt>
   <trkpt lat="59.0704766309" lon="30.032941068"><ele>94.449</ele><time>2026-04-20T19:38:01.075Z</time><hdop>10.75</hdop><vdop>5.625</vdop><extensions><gom:speed>0.0</gom:speed></extensions></trkpt>
   <trkpt lat="59.0704766309" lon="30.0329409842"><ele>94.448</ele><time>2026-04-20T19:38:02.075Z</time><hdop>10.875</hdop><vdop>6.0</vdop><extensions><gom:speed>0.0</gom:speed></extensions></trkpt>
   <trkpt lat="59.0704765471" lon="30.0329409842"><ele>94.447</ele><time>2026-04-20T19:38:03.075Z</time><hdop>10.875</hdop><vdop>6.25</vdop><extensions><gom:speed>0.0</gom:speed></extensions></trkpt>
   <trkpt lat="59.0704765471" lon="30.0329409842"><ele>94.444</ele><time>2026-04-20T19:38:04.075Z</time><hdop>11.0</hdop><vdop>6.5</vdop><extensions><gom:speed>0.0</gom:speed></extensions></trkpt>
   <trkpt lat="59.0704765471" lon="30.0329409842"><ele>94.441</ele><time>2026-04-20T19:38:05.075Z</time><hdop>11.125</hdop><vdop>6.75</vdop><extensions><gom:speed>0.0</gom:speed></extensions></trkpt>
   <trkpt lat="59.0704764214" lon="30.0329409842"><ele>94.439</ele><time>2026-04-20T19:38:06.075Z</time><hdop>11.25</hdop><vdop>7.125</vdop><extensions><gom:speed>0.0</gom:speed></extensions></trkpt>
   <trkpt lat="59.0704764214" lon="30.0329409842"><ele>94.437</ele><time>2026-04-20T19:38:07.075Z</time><hdop>11.375</hdop><vdop>7.125</vdop><extensions><gom:speed>0.0</gom:speed></extensions></trkpt>
   <trkpt lat="59.0704763375" lon="30.0329409842"><ele>94.434</ele><time>2026-04-20T19:38:08.075Z</time><hdop>11.625</hdop><vdop>7.25</vdop><extensions><gom:speed>0.0</gom:speed></extensions></trkpt>
   <trkpt lat="59.0704763375" lon="30.0329409842"><ele>94.43</ele><time>2026-04-20T19:38:09.075Z</time><hdop>11.75</hdop><vdop>7.125</vdop><extensions><gom:speed>0.0</gom:speed></extensions></trkpt>
   <trkpt lat="59.0704763375" lon="30.0329409842"><ele>94.426</ele><time>2026-04-20T19:38:10.075Z</time><hdop>11.75</hdop><vdop>6.75</vdop><extensions><gom:speed>0.0</gom:speed></extensions></trkpt>
   <trkpt lat="59.0704763375" lon="30.0329409842"><ele>94.424</ele><time>2026-04-20T19:38:11.075Z</time><hdop>11.875</hdop><vdop>6.625</vdop><extensions><gom:speed>0.0</gom:speed></extensions></trkpt>
   <trkpt lat="59.0704762537" lon="30.0329409842"><ele>94.422</ele><time>2026-04-20T19:38:12.075Z</time><hdop>11.875</hdop><vdop>6.625</vdop><extensions><gom:speed>0.0</gom:speed></extensions></trkpt>
   <trkpt lat="59.0704762537" lon="30.0329409842"><ele>94.421</ele><time>2026-04-20T19:38:13.075Z</time><hdop>11.875</hdop><vdop>6.625</vdop><extensions><gom:speed>0.0</gom:speed></extensions></trkpt>
   <trkpt lat="59.070476128" lon="30.0329409842"><ele>94.421</ele><time>2026-04-20T19:38:14.075Z</time><hdop>11.875</hdop><vdop>6.5</vdop><extensions><gom:speed>0.0</gom:speed></extensions></trkpt>
   <trkpt lat="59.070476128" lon="30.0329409842"><ele>94.42</ele><time>2026-04-20T19:38:15.075Z</time><hdop>11.875</hdop><vdop>6.375</vdop><extensions><gom:speed>0.0</gom:speed></extensions></trkpt>
   <trkpt lat="59.0704760442" lon="30.0329409842"><ele>94.42</ele><time>2026-04-20T19:38:16.075Z</time><hdop>11.75</hdop><vdop>6.625</vdop><extensions><gom:speed>0.0</gom:speed></extensions></trkpt>
   <trkpt lat="59.0704760442" lon="30.0329409004"><ele>94.418</ele><time>2026-04-20T19:38:17.075Z</time><hdop>11.875</hdop><vdop>6.75</vdop><extensions><gom:speed>0.0</gom:speed></extensions></trkpt>
   <trkpt lat="59.0704759184" lon="30.0329409842"><ele>94.418</ele><time>2026-04-20T19:38:18.075Z</time><hdop>11.875</hdop><vdop>6.75</vdop><extensions><gom:speed>0.0</gom:speed></extensions></trkpt>
   <trkpt lat="59.0704758346" lon="30.0329409004"><ele>94.419</ele><time>2026-04-20T19:38:19.075Z</time><hdop>12.0</hdop><vdop>6.75</vdop><extensions><gom:speed>0.0</gom:speed></extensions></trkpt>
   <trkpt lat="59.0704758346" lon="30.0329409004"><ele>94.418</ele><time>2026-04-20T19:38:20.075Z</time><hdop>12.125</hdop><vdop>6.875</vdop><extensions><gom:speed>0.0</gom:speed></extensions></trkpt>
   <trkpt lat="59.0704757508" lon="30.0329409004"><ele>94.417</ele><time>2026-04-20T19:38:21.075Z</time><hdop>12.125</hdop><vdop>6.625</vdop><extensions><gom:speed>0.0</gom:speed></extensions></trkpt>
   <trkpt lat="59.0704756251" lon="30.0329407327"><ele>94.417</ele><time>2026-04-20T19:38:22.075Z</time><hdop>12.25</hdop><vdop>6.625</vdop><extensions><gom:speed>0.0</gom:speed></extensions></trkpt>
   <trkpt lat="59.0704755413" lon="30.0329407327"><ele>94.417</ele><time>2026-04-20T19:38:23.075Z</time><hdop>12.25</hdop><vdop>6.75</vdop><extensions><gom:speed>0.0</gom:speed></extensions></trkpt>
   <trkpt lat="59.0704755413" lon="30.0329407327"><ele>94.415</ele><time>2026-04-20T19:38:24.075Z</time><hdop>12.125</hdop><vdop>6.75</vdop><extensions><gom:speed>0.0</gom:speed></extensions></trkpt>
   <trkpt lat="59.0704755413" lon="30.0329407327"><ele>94.412</ele><time>2026-04-20T19:38:25.076Z</time><hdop>12.0</hdop><vdop>6.75</vdop><extensions><gom:speed>0.0</gom:speed></extensions></trkpt>
   <trkpt lat="59.0704755413" lon="30.0329407327"><ele>94.41</ele><time>2026-04-20T19:38:26.075Z</time><hdop>12.0</hdop><vdop>6.875</vdop><extensions><gom:speed>0.0</gom:speed></extensions></trkpt>
   <trkpt lat="59.0704754574" lon="30.0329407327"><ele>94.41</ele><time>2026-04-20T19:38:27.075Z</time><hdop>12.0</hdop><vdop>7.0</vdop><extensions><gom:speed>0.0</gom:speed></extensions></trkpt>
   <trkpt lat="59.0704753317" lon="30.0329407327"><ele>94.409</ele><time>2026-04-20T19:38:28.076Z</time><hdop>12.0</hdop><vdop>7.125</vdop><extensions><gom:speed>0.0</gom:speed></extensions></trkpt>
   <trkpt lat="59.0704753317" lon="30.0329407327"><ele>94.408</ele><time>2026-04-20T19:38:29.075Z</time><hdop>12.0</hdop><vdop>7.0</vdop><extensions><gom:speed>0.0</gom:speed></extensions></trkpt>
   <trkpt lat="59.0704752479" lon="30.0329407327"><ele>94.407</ele><time>2026-04-20T19:38:30.075Z</time><hdop>12.125</hdop><vdop>7.0</vdop><extensions><gom:speed>0.0</gom:speed></extensions></trkpt>
   <trkpt lat="59.0704752479" lon="30.0329407327"><ele>94.407</ele><time>2026-04-20T19:38:31.076Z</time><hdop>12.25</hdop><vdop>6.875</vdop><extensions><gom:speed>0.0</gom:speed></extensions></trkpt>
   <trkpt lat="59.0704751222" lon="30.0329407327"><ele>94.407</ele><time>2026-04-20T19:38:32.075Z</time><hdop>12.125</hdop><vdop>6.5</vdop><extensions><gom:speed>0.0</gom:speed></extensions></trkpt>
   <trkpt lat="59.0704751222" lon="30.0329407327"><ele>94.405</ele><time>2026-04-20T19:38:33.076Z</time><hdop>12.125</hdop><vdop>6.25</vdop><extensions><gom:speed>0.0</gom:speed></extensions></trkpt>
   <trkpt lat="59.0704750383" lon="30.0329407327"><ele>94.406</ele><time>2026-04-20T19:38:34.075Z</time><hdop>12.0</hdop><vdop>6.0</vdop><extensions><gom:speed>0.0</gom:speed></extensions></trkpt>
   <trkpt lat="59.0704750383" lon="30.0329407327"><ele>94.406</ele><time>2026-04-20T19:38:35.076Z</time><hdop>11.75</hdop><vdop>5.75</vdop><extensions><gom:speed>0.0</gom:speed></extensions></trkpt>
   <trkpt lat="59.0704750383" lon="30.0329407327"><ele>94.406</ele><time>2026-04-20T19:38:36.076Z</time><hdop>11.625</hdop><vdop>5.875</vdop><extensions><gom:speed>0.0</gom:speed></extensions></trkpt>
   <trkpt lat="59.0704749545" lon="30.0329407327"><ele>94.405</ele><time>2026-04-20T19:38:37.075Z</time><hdop>11.375</hdop><vdop>6.0</vdop><extensions><gom:speed>0.0</gom:speed></extensions></trkpt>
   <trkpt lat="59.0704749545" lon="30.0329407327"><ele>94.403</ele><time>2026-04-20T19:38:38.075Z</time><hdop>11.375</hdop><vdop>6.125</vdop><extensions><gom:speed>0.0</gom:speed></extensions></trkpt>
   <trkpt lat="59.0704748288" lon="30.0329407327"><ele>94.401</ele><time>2026-04-20T19:38:39.076Z</time><hdop>11.25</hdop><vdop>6.25</vdop><extensions><gom:speed>0.0</gom:speed></extensions></trkpt>
   <trkpt lat="59.0704748288" lon="30.0329407327"><ele>94.399</ele><time>2026-04-20T19:38:40.075Z</time><hdop>11.375</hdop><vdop>6.375</vdop><extensions><gom:speed>0.0</gom:speed></extensions></trkpt>
   <trkpt lat="59.070474745" lon="30.0329407327"><ele>94.399</ele><time>2026-04-20T19:38:41.075Z</time><hdop>11.375</hdop><vdop>6.5</vdop><extensions><gom:speed>0.0</gom:speed></extensions></trkpt>
   <trkpt lat="59.070474745" lon="30.0329407327"><ele>94.397</ele><time>2026-04-20T19:38:42.075Z</time><hdop>11.5</hdop><vdop>6.875</vdop><extensions><gom:speed>0.0</gom:speed></extensions></trkpt>
   <trkpt lat="59.070474745" lon="30.0329409004"><ele>94.396</ele><time>2026-04-20T19:38:43.075Z</time><hdop>11.625</hdop><vdop>7.375</vdop><extensions><gom:speed>0.0</gom:speed></extensions></trkpt>
   <trkpt lat="59.0704746192" lon="30.0329409004"><ele>94.396</ele><time>2026-04-20T19:38:44.075Z</time><hdop>11.75</hdop><vdop>7.75</vdop><extensions><gom:speed>0.0</gom:speed></extensions></trkpt>
   <trkpt lat="59.0704746192" lon="30.0329409004"><ele>94.396</ele><time>2026-04-20T19:38:45.075Z</time><hdop>11.875</hdop><vdop>7.75</vdop><extensions><gom:speed>0.0</gom:speed></extensions></trkpt>
   <trkpt lat="59.0704746192" lon="30.0329409842"><ele>94.396</ele><time>2026-04-20T19:38:46.075Z</time><hdop>11.875</hdop><vdop>7.5</vdop><extensions><gom:speed>0.0</gom:speed></extensions></trkpt>
   <trkpt lat="59.0704745354" lon="30.0329409842"><ele>94.396</ele><time>2026-04-20T19:38:47.075Z</time><hdop>12.0</hdop><vdop>7.5</vdop><extensions><gom:speed>0.0</gom:speed></extensions></trkpt>
   <trkpt lat="59.0704745354" lon="30.032941068"><ele>94.397</ele><time>2026-04-20T19:38:48.075Z</time><hdop>12.0</hdop><vdop>7.5</vdop><extensions><gom:speed>0.0</gom:speed></extensions></trkpt>
   <trkpt lat="59.0704745354" lon="30.032941068"><ele>94.396</ele><time>2026-04-20T19:38:49.075Z</time><hdop>12.0</hdop><vdop>7.375</vdop><extensions><gom:speed>0.0</gom:speed></extensions></trkpt>
   <trkpt lat="59.0704744516" lon="30.032941068"><ele>94.395</ele><time>2026-04-20T19:38:50.075Z</time><hdop>12.0</hdop><vdop>7.25</vdop><extensions><gom:speed>0.0</gom:speed></extensions></trkpt>
   <trkpt lat="59.0704743259" lon="30.0329409842"><ele>94.393</ele><time>2026-04-20T19:38:51.075Z</time><hdop>11.875</hdop><vdop>7.125</vdop><extensions><gom:speed>0.0</gom:speed></extensions></trkpt>
   <trkpt lat="59.0704743259" lon="30.0329409842"><ele>94.391</ele><time>2026-04-20T19:38:52.075Z</time><hdop>11.75</hdop><vdop>6.875</vdop><extensions><gom:speed>0.0</gom:speed></extensions></trkpt>
   <trkpt lat="59.0704742421" lon="30.0329409842"><ele>94.388</ele><time>2026-04-20T19:38:53.076Z</time><hdop>11.75</hdop><vdop>6.75</vdop><extensions><gom:speed>0.0</gom:speed></extensions></trkpt>
   <trkpt lat="59.0704741163" lon="30.0329409004"><ele>94.384</ele><time>2026-04-20T19:38:54.075Z</time><hdop>11.625</hdop><vdop>6.625</vdop><extensions><gom:speed>0.0</gom:speed></extensions></trkpt>
   <trkpt lat="59.0704741163" lon="30.0329409004"><ele>94.381</ele><time>2026-04-20T19:38:55.075Z</time><hdop>11.5</hdop><vdop>6.5</vdop><extensions><gom:speed>0.0</gom:speed></extensions></trkpt>
   <trkpt lat="59.0704740325" lon="30.0329407327"><ele>94.378</ele><time>2026-04-20T19:38:56.075Z</time><hdop>11.375</hdop><vdop>6.25</vdop><extensions><gom:speed>0.0</gom:speed></extensions></trkpt>
   <trkpt lat="59.0704740325" lon="30.0329407327"><ele>94.374</ele><time>2026-04-20T19:38:57.075Z</time><hdop>11.375</hdop><vdop>6.25</vdop><extensions><gom:speed>0.0</gom:speed></extensions></trkpt>
   <trkpt lat="59.0704739487" lon="30.0329407327"><ele>94.369</ele><time>2026-04-20T19:38:58.076Z</time><hdop>11.25</hdop><vdop>6.375</vdop><extensions><gom:speed>0.0</gom:speed></extensions></trkpt>
   <trkpt lat="59.0704739487" lon="30.0329406489"><ele>94.364</ele><time>2026-04-20T19:38:59.075Z</time><hdop>11.25</hdop><vdop>6.625</vdop><extensions><gom:speed>0.0</gom:speed></extensions></trkpt>
   <trkpt lat="59.070473823" lon="30.0329406489"><ele>94.36</ele><time>2026-04-20T19:39:00.076Z</time><hdop>11.125</hdop><vdop>6.375</vdop><extensions><gom:speed>0.0</gom:speed></extensions></trkpt>
   <trkpt lat="59.0704737391" lon="30.0329405651"><ele>94.355</ele><time>2026-04-20T19:39:01.076Z</time><hdop>11.125</hdop><vdop>6.625</vdop><extensions><gom:speed>0.0</gom:speed></extensions></trkpt>
   <trkpt lat="59.0704736553" lon="30.0329405651"><ele>94.353</ele><time>2026-04-20T19:39:02.076Z</time><hdop>11.25</hdop><vdop>7.0</vdop><extensions><gom:speed>0.0</gom:speed></extensions></trkpt>
   <trkpt lat="59.0704736553" lon="30.0329404813"><ele>94.348</ele><time>2026-04-20T19:39:03.075Z</time><hdop>11.25</hdop><vdop>6.875</vdop><extensions><gom:speed>0.0</gom:speed></extensions></trkpt>
   <trkpt lat="59.0704735296" lon="30.0329404813"><ele>94.343</ele><time>2026-04-20T19:39:04.075Z</time><hdop>11.25</hdop><vdop>7.125</vdop><extensions><gom:speed>0.0</gom:speed></extensions></trkpt>
   <trkpt lat="59.0704735296" lon="30.0329403975"><ele>94.339</ele><time>2026-04-20T19:39:05.075Z</time><hdop>11.25</hdop><vdop>7.5</vdop><extensions><gom:speed>0.0</gom:speed></extensions></trkpt>
   <trkpt lat="59.0704734458" lon="30.0329403975"><ele>94.333</ele><time>2026-04-20T19:39:06.075Z</time><hdop>11.375</hdop><vdop>8.0</vdop><extensions><gom:speed>0.0</gom:speed></extensions></trkpt>
   <trkpt lat="59.0704734458" lon="30.0329403975"><ele>94.332</ele><time>2026-04-20T19:39:07.076Z</time><hdop>11.5</hdop><vdop>8.5</vdop><extensions><gom:speed>0.0</gom:speed></extensions></trkpt>
   <trkpt lat="59.0704733201" lon="30.0329404813"><ele>94.331</ele><time>2026-04-20T19:39:08.075Z</time><hdop>11.625</hdop><vdop>8.75</vdop><extensions><gom:speed>0.0</gom:speed></extensions></trkpt>
   <trkpt lat="59.0704733201" lon="30.0329404813"><ele>94.331</ele><time>2026-04-20T19:39:09.075Z</time><hdop>11.75</hdop><vdop>9.125</vdop><extensions><gom:speed>0.0</gom:speed></extensions></trkpt>
   <trkpt lat="59.0704733201" lon="30.0329404813"><ele>94.33</ele><time>2026-04-20T19:39:10.075Z</time><hdop>11.875</hdop><vdop>9.75</vdop><extensions><gom:speed>0.0</gom:speed></extensions></trkpt>
   <trkpt lat="59.0704733201" lon="30.0329404813"><ele>94.33</ele><time>2026-04-20T19:39:11.076Z</time><hdop>12.0</hdop><vdop>10.0</vdop><extensions><gom:speed>0.0</gom:speed></extensions></trkpt>
   <trkpt lat="59.0704733201" lon="30.0329404813"><ele>94.329</ele><time>2026-04-20T19:39:12.075Z</time><hdop>12.0</hdop><vdop>9.375</vdop><extensions><gom:speed>0.0</gom:speed></extensions></trkpt>
   <trkpt lat="59.0704732362" lon="30.0329404813"><ele>94.328</ele><time>2026-04-20T19:39:13.075Z</time><hdop>12.0</hdop><vdop>9.0</vdop><extensions><gom:speed>0.0</gom:speed></extensions></trkpt>
   <trkpt lat="59.0704732362" lon="30.0329404813"><ele>94.326</ele><time>2026-04-20T19:39:14.075Z</time><hdop>11.875</hdop><vdop>8.625</vdop><extensions><gom:speed>0.0</gom:speed></extensions></trkpt>
   <trkpt lat="59.0704732362" lon="30.0329404813"><ele>94.327</ele><time>2026-04-20T19:39:15.075Z</time><hdop>11.75</hdop><vdop>8.25</vdop><extensions><gom:speed>0.0</gom:speed></extensions></trkpt>
   <trkpt lat="59.0704732362" lon="30.0329404813"><ele>94.327</ele><time>2026-04-20T19:39:16.075Z</time><hdop>11.625</hdop><vdop>8.25</vdop><extensions><gom:speed>0.0</gom:speed></extensions></trkpt>
   <trkpt lat="59.0704732362" lon="30.0329405651"><ele>94.326</ele><time>2026-04-20T19:39:17.076Z</time><hdop>11.375</hdop><vdop>8.5</vdop><extensions><gom:speed>0.0</gom:speed></extensions></trkpt>
   <trkpt lat="59.0704732362" lon="30.0329405651"><ele>94.325</ele><time>2026-04-20T19:39:18.076Z</time><hdop>11.375</hdop><vdop>8.375</vdop><extensions><gom:speed>0.0</gom:speed></extensions></trkpt>
   <trkpt lat="59.0704732362" lon="30.0329405651"><ele>94.323</ele><time>2026-04-20T19:39:19.075Z</time><hdop>11.25</hdop><vdop>8.125</vdop><extensions><gom:speed>0.0</gom:speed></extensions></trkpt>
   <trkpt lat="59.0704732362" lon="30.0329405651"><ele>94.323</ele><time>2026-04-20T19:39:20.075Z</time><hdop>11.125</hdop><vdop>7.875</vdop><extensions><gom:speed>0.0</gom:speed></extensions></trkpt>
   <trkpt lat="59.0704732362" lon="30.0329405651"><ele>94.323</ele><time>2026-04-20T19:39:21.075Z</time><hdop>11.125</hdop><vdop>7.875</vdop><extensions><gom:speed>0.0</gom:speed></extensions></trkpt>
   <trkpt lat="59.0704731524" lon="30.0329405651"><ele>94.322</ele><time>2026-04-20T19:39:22.075Z</time><hdop>11.125</hdop><vdop>7.75</vdop><extensions><gom:speed>0.0</gom:speed></extensions></trkpt>
   <trkpt lat="59.0704731524" lon="30.0329405651"><ele>94.322</ele><time>2026-04-20T19:39:23.075Z</time><hdop>11.0</hdop><vdop>7.5</vdop><extensions><gom:speed>0.0</gom:speed></extensions></trkpt>
   <trkpt lat="59.0704731524" lon="30.0329404813"><ele>94.321</ele><time>2026-04-20T19:39:24.076Z</time><hdop>10.875</hdop><vdop>7.625</vdop><extensions><gom:speed>0.0</gom:speed></extensions></trkpt>
   <trkpt lat="59.0704730267" lon="30.0329404813"><ele>94.319</ele><time>2026-04-20T19:39:25.075Z</time><hdop>10.875</hdop><vdop>7.5</vdop><extensions><gom:speed>0.0</gom:speed></extensions></trkpt>
   <trkpt lat="59.0704730267" lon="30.0329403975"><ele>94.318</ele><time>2026-04-20T19:39:26.075Z</time><hdop>10.875</hdop><vdop>7.5</vdop><extensions><gom:speed>0.0</gom:speed></extensions></trkpt>
   <trkpt lat="59.0704729429" lon="30.0329403975"><ele>94.319</ele><time>2026-04-20T19:39:27.075Z</time><hdop>10.75</hdop><vdop>7.75</vdop><extensions><gom:speed>0.0</gom:speed></extensions></trkpt>
   <trkpt lat="59.0704729429" lon="30.0329403136"><ele>94.318</ele><time>2026-04-20T19:39:28.076Z</time><hdop>10.75</hdop><vdop>8.0</vdop><extensions><gom:speed>0.0</gom:speed></extensions></trkpt>
   <trkpt lat="59.0704729429" lon="30.0329403136"><ele>94.316</ele><time>2026-04-20T19:39:29.075Z</time><hdop>10.875</hdop><vdop>8.25</vdop><extensions><gom:speed>0.0</gom:speed></extensions></trkpt>
   <trkpt lat="59.0704729429" lon="30.0329403136"><ele>94.314</ele><time>2026-04-20T19:39:30.075Z</time><hdop>10.875</hdop><vdop>8.375</vdop><extensions><gom:speed>0.0</gom:speed></extensions></trkpt>
   <trkpt lat="59.0704729429" lon="30.0329403136"><ele>94.312</ele><time>2026-04-20T19:39:31.075Z</time><hdop>11.0</hdop><vdop>8.625</vdop><extensions><gom:speed>0.0</gom:speed></extensions></trkpt>
   <trkpt lat="59.0704729429" lon="30.032940146"><ele>94.311</ele><time>2026-04-20T19:39:32.075Z</time><hdop>11.0</hdop><vdop>8.75</vdop><extensions><gom:speed>0.0</gom:speed></extensions></trkpt>
   <trkpt lat="59.0704728171" lon="30.032940146"><ele>94.311</ele><time>2026-04-20T19:39:33.075Z</time><hdop>11.125</hdop><vdop>8.875</vdop><extensions><gom:speed>0.0</gom:speed></extensions></trkpt>
   <trkpt lat="59.0704728171" lon="30.032940146"><ele>94.311</ele><time>2026-04-20T19:39:34.075Z</time><hdop>11.25</hdop><vdop>8.5</vdop><extensions><gom:speed>0.0</gom:speed></extensions></trkpt>
   <trkpt lat="59.0704728171" lon="30.0329400622"><ele>94.311</ele><time>2026-04-20T19:39:35.076Z</time><hdop>11.375</hdop><vdop>8.375</vdop><extensions><gom:speed>0.0</gom:speed></extensions></trkpt>
   <trkpt lat="59.0704728171" lon="30.0329400622"><ele>94.312</ele><time>2026-04-20T19:39:36.075Z</time><hdop>11.375</hdop><vdop>8.25</vdop><extensions><gom:speed>0.0</gom:speed></extensions></trkpt>
   <trkpt lat="59.0704728171" lon="30.0329400622"><ele>94.312</ele><time>2026-04-20T19:39:37.075Z</time><hdop>11.375</hdop><vdop>7.75</vdop><extensions><gom:speed>0.0</gom:speed></extensions></trkpt>
   <trkpt lat="59.0704728171" lon="30.0329399784"><ele>94.311</ele><time>2026-04-20T19:39:38.075Z</time><hdop>11.25</hdop><vdop>7.625</vdop><extensions><gom:speed>0.0</gom:speed></extensions></trkpt>
   <trkpt lat="59.0704728171" lon="30.0329399784"><ele>94.311</ele><time>2026-04-20T19:39:39.075Z</time><hdop>11.25</hdop><vdop>7.375</vdop><extensions><gom:speed>0.0</gom:speed></extensions></trkpt>
   <trkpt lat="59.0704728171" lon="30.0329399784"><ele>94.31</ele><time>2026-04-20T19:39:40.076Z</time><hdop>11.125</hdop><vdop>7.25</vdop><extensions><gom:speed>0.0</gom:speed></extensions></trkpt>
   <trkpt lat="59.0704728171" lon="30.0329398945"><ele>94.309</ele><time>2026-04-20T19:39:41.075Z</time><hdop>11.125</hdop><vdop>7.25</vdop><extensions><gom:speed>0.0</gom:speed></extensions></trkpt>
   <trkpt lat="59.0704727333" lon="30.0329398945"><ele>94.308</ele><time>2026-04-20T19:39:42.076Z</time><hdop>11.0</hdop><vdop>7.5</vdop><extensions><gom:speed>0.0</gom:speed></extensions></trkpt>
   <trkpt lat="59.0704727333" lon="30.0329398945"><ele>94.307</ele><time>2026-04-20T19:39:43.075Z</time><hdop>11.0</hdop><vdop>7.625</vdop><extensions><gom:speed>0.0</gom:speed></extensions></trkpt>
   <trkpt lat="59.0704727333" lon="30.0329398945"><ele>94.308</ele><time>2026-04-20T19:39:44.075Z</time><hdop>11.0</hdop><vdop>7.875</vdop><extensions><gom:speed>0.0</gom:speed></extensions></trkpt>
   <trkpt lat="59.0704726495" lon="30.0329398945"><ele>94.307</ele><time>2026-04-20T19:39:45.075Z</time><hdop>11.0</hdop><vdop>8.25</vdop><extensions><gom:speed>0.0</gom:speed></extensions></trkpt>
   <trkpt lat="59.0704726495" lon="30.0329398945"><ele>94.305</ele><time>2026-04-20T19:39:46.076Z</time><hdop>11.0</hdop><vdop>8.375</vdop><extensions><gom:speed>0.0</gom:speed></extensions></trkpt>
   <trkpt lat="59.0704725238" lon="30.0329398107"><ele>94.302</ele><time>2026-04-20T19:39:47.075Z</time><hdop>11.0</hdop><vdop>8.25</vdop><extensions><gom:speed>0.0</gom:speed></extensions></trkpt>
   <trkpt lat="59.07047244" lon="30.0329398107"><ele>94.298</ele><time>2026-04-20T19:39:48.075Z</time><hdop>11.0</hdop><vdop>7.875</vdop><extensions><gom:speed>0.0</gom:speed></extensions></trkpt>
   <trkpt lat="59.0704723561" lon="30.0329398107"><ele>94.294</ele><time>2026-04-20T19:39:49.075Z</time><hdop>11.0</hdop><vdop>8.0</vdop><extensions><gom:speed>0.0</gom:speed></extensions></trkpt>
   <trkpt lat="59.0704723561" lon="30.0329396431"><ele>94.287</ele><time>2026-04-20T19:39:50.075Z</time><hdop>11.0</hdop><vdop>8.0</vdop><extensions><gom:speed>0.0</gom:speed></extensions></trkpt>
   <trkpt lat="59.0704722304" lon="30.0329396431"><ele>94.282</ele><time>2026-04-20T19:39:51.075Z</time><hdop>10.875</hdop><vdop>8.0</vdop><extensions><gom:speed>0.0</gom:speed></extensions></trkpt>
   <trkpt lat="59.0704722304" lon="30.0329395593"><ele>94.277</ele><time>2026-04-20T19:39:52.076Z</time><hdop>10.875</hdop><vdop>8.25</vdop><extensions><gom:speed>0.0</gom:speed></extensions></trkpt>
   <trkpt lat="59.0704721466" lon="30.0329395593"><ele>94.27</ele><time>2026-04-20T19:39:53.076Z</time><hdop>10.75</hdop><vdop>7.875</vdop><extensions><gom:speed>0.0</gom:speed></extensions></trkpt>
   <trkpt lat="59.0704720209" lon="30.0329395593"><ele>94.266</ele><time>2026-04-20T19:39:54.076Z</time><hdop>10.75</hdop><vdop>7.875</vdop><extensions><gom:speed>0.0</gom:speed></extensions></trkpt>
   <trkpt lat="59.0704720209" lon="30.0329395593"><ele>94.26</ele><time>2026-04-20T19:39:55.075Z</time><hdop>10.75</hdop><vdop>7.375</vdop><extensions><gom:speed>0.0</gom:speed></extensions></trkpt>
   <trkpt lat="59.070471937" lon="30.0329395593"><ele>94.258</ele><time>2026-04-20T19:39:56.075Z</time><hdop>10.625</hdop><vdop>6.875</vdop><extensions><gom:speed>0.0</gom:speed></extensions></trkpt>
   <trkpt lat="59.070471937" lon="30.0329394755"><ele>94.254</ele><time>2026-04-20T19:39:57.076Z</time><hdop>10.625</hdop><vdop>6.75</vdop><extensions><gom:speed>0.0</gom:speed></extensions></trkpt>
   <trkpt lat="59.0704718532" lon="30.0329394755"><ele>94.252</ele><time>2026-04-20T19:39:58.075Z</time><hdop>10.625</hdop><vdop>6.625</vdop><extensions><gom:speed>0.0</gom:speed></extensions></trkpt>
   <trkpt lat="59.0704717275" lon="30.0329394755"><ele>94.248</ele><time>2026-04-20T19:39:59.075Z</time><hdop>10.625</hdop><vdop>6.5</vdop><extensions><gom:speed>0.0</gom:speed></extensions></trkpt>
   <trkpt lat="59.0704717275" lon="30.0329394755"><ele>94.244</ele><time>2026-04-20T19:40:00.075Z</time><hdop>10.5</hdop><vdop>6.25</vdop><extensions><gom:speed>0.0</gom:speed></extensions></trkpt>
   <trkpt lat="59.0704716437" lon="30.0329393916"><ele>94.238</ele><time>2026-04-20T19:40:01.075Z</time><hdop>10.5</hdop><vdop>6.125</vdop><extensions><gom:speed>0.0</gom:speed></extensions></trkpt>
   <trkpt lat="59.0704715179" lon="30.0329393916"><ele>94.235</ele><time>2026-04-20T19:40:02.075Z</time><hdop>10.625</hdop><vdop>6.0</vdop><extensions><gom:speed>0.0</gom:speed></extensions></trkpt>
   <trkpt lat="59.0704714341" lon="30.0329393078"><ele>94.232</ele><time>2026-04-20T19:40:03.075Z</time><hdop>10.625</hdop><vdop>6.0</vdop><extensions><gom:speed>0.0</gom:speed></extensions></trkpt>
   <trkpt lat="59.0704713503" lon="30.0329393078"><ele>94.232</ele><time>2026-04-20T19:40:04.076Z</time><hdop>10.625</hdop><vdop>5.875</vdop><extensions><gom:speed>0.0</gom:speed></extensions></trkpt>
   <trkpt lat="59.0704712246" lon="30.0329393078"><ele>94.231</ele><time>2026-04-20T19:40:05.076Z</time><hdop>10.625</hdop><vdop>5.75</vdop><extensions><gom:speed>0.0</gom:speed></extensions></trkpt>
   <trkpt lat="59.0704711408" lon="30.0329391402"><ele>94.231</ele><time>2026-04-20T19:40:06.075Z</time><hdop>10.75</hdop><vdop>5.75</vdop><extensions><gom:speed>0.0</gom:speed></extensions></trkpt>
   <trkpt lat="59.0704711408" lon="30.0329391402"><ele>94.23</ele><time>2026-04-20T19:40:07.076Z</time><hdop>10.75</hdop><vdop>5.75</vdop><extensions><gom:speed>0.0</gom:speed></extensions></trkpt>
   <trkpt lat="59.0704711408" lon="30.0329391402"><ele>94.229</ele><time>2026-04-20T19:40:08.075Z</time><hdop>11.0</hdop><vdop>5.75</vdop><extensions><gom:speed>0.0</gom:speed></extensions></trkpt>
   <trkpt lat="59.0704710569" lon="30.0329391402"><ele>94.229</ele><time>2026-04-20T19:40:09.076Z</time><hdop>11.25</hdop><vdop>5.875</vdop><extensions><gom:speed>0.0</gom:speed></extensions></trkpt>
   <trkpt lat="59.0704709312" lon="30.0329391402"><ele>94.23</ele><time>2026-04-20T19:40:10.075Z</time><hdop>11.625</hdop><vdop>6.0</vdop><extensions><gom:speed>0.0</gom:speed></extensions></trkpt>
   <trkpt lat="59.0704709312" lon="30.0329390564"><ele>94.232</ele><time>2026-04-20T19:40:11.075Z</time><hdop>12.125</hdop><vdop>6.0</vdop><extensions><gom:speed>0.0</gom:speed></extensions></trkpt>
   <trkpt lat="59.0704708474" lon="30.0329390564"><ele>94.235</ele><time>2026-04-20T19:40:12.076Z</time><hdop>12.625</hdop><vdop>5.875</vdop><extensions><gom:speed>0.0</gom:speed></extensions></trkpt>
   <trkpt lat="59.0704707217" lon="30.0329390564"><ele>94.236</ele><time>2026-04-20T19:40:13.075Z</time><hdop>13.125</hdop><vdop>5.75</vdop><extensions><gom:speed>0.0</gom:speed></extensions></trkpt>
   <trkpt lat="59.0704706378" lon="30.0329389725"><ele>94.236</ele><time>2026-04-20T19:40:14.075Z</time><hdop>13.75</hdop><vdop>5.625</vdop><extensions><gom:speed>0.0</gom:speed></extensions></trkpt>
   <trkpt lat="59.0704706378" lon="30.0329389725"><ele>94.236</ele><time>2026-04-20T19:40:15.075Z</time><hdop>14.375</hdop><vdop>5.625</vdop><extensions><gom:speed>0.0</gom:speed></extensions></trkpt>
   <trkpt lat="59.070470554" lon="30.0329388887"><ele>94.236</ele><time>2026-04-20T19:40:16.076Z</time><hdop>14.875</hdop><vdop>5.375</vdop><extensions><gom:speed>0.0</gom:speed></extensions></trkpt>
   <trkpt lat="59.0704704283" lon="30.0329388887"><ele>94.235</ele><time>2026-04-20T19:40:17.075Z</time><hdop>15.375</hdop><vdop>5.375</vdop><extensions><gom:speed>0.0</gom:speed></extensions></trkpt>
   <trkpt lat="59.0704704283" lon="30.0329388887"><ele>94.233</ele><time>2026-04-20T19:40:18.075Z</time><hdop>15.875</hdop><vdop>5.25</vdop><extensions><gom:speed>0.0</gom:speed></extensions></trkpt>
   <trkpt lat="59.0704704283" lon="30.0329388887"><ele>94.231</ele><time>2026-04-20T19:40:19.075Z</time><hdop>16.625</hdop><vdop>5.375</vdop><extensions><gom:speed>0.0</gom:speed></extensions></trkpt>
   <trkpt lat="59.0704704283" lon="30.0329388887"><ele>94.228</ele><time>2026-04-20T19:40:20.075Z</time><hdop>17.5</hdop><vdop>5.625</vdop><extensions><gom:speed>0.0</gom:speed></extensions></trkpt>
   <trkpt lat="59.0704703445" lon="30.0329388887"><ele>94.227</ele><time>2026-04-20T19:40:21.075Z</time><hdop>18.875</hdop><vdop>6.0</vdop><extensions><gom:speed>0.0</gom:speed></extensions></trkpt>
   <trkpt lat="59.0704703445" lon="30.0329388887"><ele>94.224</ele><time>2026-04-20T19:40:22.075Z</time><hdop>20.375</hdop><vdop>6.375</vdop><extensions><gom:speed>0.0</gom:speed></extensions></trkpt>
   <trkpt lat="59.0704703445" lon="30.0329388887"><ele>94.221</ele><time>2026-04-20T19:40:23.076Z</time><hdop>22.0</hdop><vdop>6.625</vdop><extensions><gom:speed>0.0</gom:speed></extensions></trkpt>
   <trkpt lat="59.0704703445" lon="30.0329388887"><ele>94.22</ele><time>2026-04-20T19:40:24.075Z</time><hdop>23.625</hdop><vdop>6.625</vdop><extensions><gom:speed>0.0</gom:speed></extensions></trkpt>
   <trkpt lat="59.0704702187" lon="30.0329388049"><ele>94.219</ele><time>2026-04-20T19:40:25.075Z</time><hdop>24.875</hdop><vdop>6.375</vdop><extensions><gom:speed>0.0</gom:speed></extensions></trkpt>
   <trkpt lat="59.0704702187" lon="30.0329388049"><ele>94.217</ele><time>2026-04-20T19:40:26.076Z</time><hdop>25.5</hdop><vdop>6.25</vdop><extensions><gom:speed>0.0</gom:speed></extensions></trkpt>
   <trkpt lat="59.0704702187" lon="30.0329388049"><ele>94.216</ele><time>2026-04-20T19:40:27.075Z</time><hdop>25.25</hdop><vdop>6.125</vdop><extensions><gom:speed>0.0</gom:speed></extensions></trkpt>
   <trkpt lat="59.0704702187" lon="30.0329388049"><ele>94.216</ele><time>2026-04-20T19:40:28.075Z</time><hdop>24.75</hdop><vdop>5.75</vdop><extensions><gom:speed>0.0</gom:speed></extensions></trkpt>
   <trkpt lat="59.0704701349" lon="30.0329388049"><ele>94.217</ele><time>2026-04-20T19:40:29.075Z</time><hdop>23.875</hdop><vdop>5.625</vdop><extensions><gom:speed>0.0</gom:speed></extensions></trkpt>
   <trkpt lat="59.0704701349" lon="30.0329388049"><ele>94.219</ele><time>2026-04-20T19:40:30.075Z</time><hdop>22.25</hdop><vdop>5.375</vdop><extensions><gom:speed>0.0</gom:speed></extensions></trkpt>
   <trkpt lat="59.0704701349" lon="30.0329388049"><ele>94.221</ele><time>2026-04-20T19:40:31.075Z</time><hdop>20.75</hdop><vdop>5.125</vdop><extensions><gom:speed>0.0</gom:speed></extensions></trkpt>
   <trkpt lat="59.0704700511" lon="30.0329388049"><ele>94.223</ele><time>2026-04-20T19:40:32.075Z</time><hdop>19.625</hdop><vdop>5.25</vdop><extensions><gom:speed>0.0</gom:speed></extensions></trkpt>
   <trkpt lat="59.0704700511" lon="30.0329388049"><ele>94.225</ele><time>2026-04-20T19:40:33.075Z</time><hdop>19.0</hdop><vdop>5.375</vdop><extensions><gom:speed>0.0</gom:speed></extensions></trkpt>
   <trkpt lat="59.0704700511" lon="30.0329386373"><ele>94.224</ele><time>2026-04-20T19:40:34.075Z</time><hdop>18.625</hdop><vdop>5.625</vdop><extensions><gom:speed>0.0</gom:speed></extensions></trkpt>
   <trkpt lat="59.0704699254" lon="30.0329386373"><ele>94.223</ele><time>2026-04-20T19:40:35.075Z</time><hdop>18.875</hdop><vdop>5.875</vdop><extensions><gom:speed>0.0</gom:speed></extensions></trkpt>
   <trkpt lat="59.0704699254" lon="30.0329386373"><ele>94.221</ele><time>2026-04-20T19:40:36.075Z</time><hdop>19.875</hdop><vdop>6.25</vdop><extensions><gom:speed>0.0</gom:speed></extensions></trkpt>
   <trkpt lat="59.0704698416" lon="30.0329386373"><ele>94.219</ele><time>2026-04-20T19:40:37.075Z</time><hdop>21.5</hdop><vdop>6.875</vdop><extensions><gom:speed>0.0</gom:speed></extensions></trkpt>
   <trkpt lat="59.0704698416" lon="30.0329386373"><ele>94.219</ele><time>2026-04-20T19:40:38.075Z</time><hdop>23.5</hdop><vdop>7.75</vdop><extensions><gom:speed>0.0</gom:speed></extensions></trkpt>
   <trkpt lat="59.0704697577" lon="30.0329386373"><ele>94.22</ele><time>2026-04-20T19:40:39.075Z</time><hdop>25.625</hdop><vdop>8.0</vdop><extensions><gom:speed>0.0</gom:speed></extensions></trkpt>
   <trkpt lat="59.0704697577" lon="30.0329386373"><ele>94.219</ele><time>2026-04-20T19:40:40.075Z</time><hdop>27.75</hdop><vdop>8.125</vdop><extensions><gom:speed>0.0</gom:speed></extensions></trkpt>
   <trkpt lat="59.0704697577" lon="30.0329386373"><ele>94.218</ele><time>2026-04-20T19:40:41.075Z</time><hdop>29.875</hdop><vdop>8.125</vdop><extensions><gom:speed>0.0</gom:speed></extensions></trkpt>
   <trkpt lat="59.070469632" lon="30.0329386373"><ele>94.219</ele><time>2026-04-20T19:40:42.075Z</time><hdop>31.125</hdop><vdop>7.75</vdop><extensions><gom:speed>0.0</gom:speed></extensions></trkpt>
   <trkpt lat="59.070469632" lon="30.0329386373"><ele>94.219</ele><time>2026-04-20T19:40:43.076Z</time><hdop>31.625</hdop><vdop>7.375</vdop><extensions><gom:speed>0.0</gom:speed></extensions></trkpt>
   <trkpt lat="59.070469632" lon="30.0329386373"><ele>94.22</ele><time>2026-04-20T19:40:44.076Z</time><hdop>31.75</hdop><vdop>7.0</vdop><extensions><gom:speed>0.0</gom:speed></extensions></trkpt>
   <trkpt lat="59.0704695482" lon="30.0329385534"><ele>94.22</ele><time>2026-04-20T19:40:45.075Z</time><hdop>31.625</hdop><vdop>6.75</vdop><extensions><gom:speed>0.0</gom:speed></extensions></trkpt>
   <trkpt lat="59.0704695482" lon="30.0329385534"><ele>94.222</ele><time>2026-04-20T19:40:46.075Z</time><hdop>31.375</hdop><vdop>7.0</vdop><extensions><gom:speed>0.0</gom:speed></extensions></trkpt>
   <trkpt lat="59.0704695482" lon="30.0329385534"><ele>94.224</ele><time>2026-04-20T19:40:47.076Z</time><hdop>31.375</hdop><vdop>7.25</vdop><extensions><gom:speed>0.0</gom:speed></extensions></trkpt>
   <trkpt lat="59.0704695482" lon="30.0329386373"><ele>94.228</ele><time>2026-04-20T19:40:48.075Z</time><hdop>30.375</hdop><vdop>6.875</vdop><extensions><gom:speed>0.0</gom:speed></extensions></trkpt>
   <trkpt lat="59.0704694225" lon="30.0329386373"><ele>94.232</ele><time>2026-04-20T19:40:49.075Z</time><hdop>29.5</hdop><vdop>7.0</vdop><extensions><gom:speed>0.0</gom:speed></extensions></trkpt>
   <trkpt lat="59.0704694225" lon="30.0329386373"><ele>94.236</ele><time>2026-04-20T19:40:50.075Z</time><hdop>28.125</hdop><vdop>7.25</vdop><extensions><gom:speed>0.0</gom:speed></extensions></trkpt>
   <trkpt lat="59.0704693386" lon="30.0329386373"><ele>94.24</ele><time>2026-04-20T19:40:51.075Z</time><hdop>26.625</hdop><vdop>7.75</vdop><extensions><gom:speed>0.0</gom:speed></extensions></trkpt>
   <trkpt lat="59.0704693386" lon="30.0329386373"><ele>94.24</ele><time>2026-04-20T19:40:52.076Z</time><hdop>25.25</hdop><vdop>8.0</vdop><extensions><gom:speed>0.0</gom:speed></extensions></trkpt>
   <trkpt lat="59.0704692548" lon="30.0329386373"><ele>94.241</ele><time>2026-04-20T19:40:53.075Z</time><hdop>23.625</hdop><vdop>8.125</vdop><extensions><gom:speed>0.0</gom:speed></extensions></trkpt>
   <trkpt lat="59.0704692548" lon="30.0329386373"><ele>94.241</ele><time>2026-04-20T19:40:54.076Z</time><hdop>23.5</hdop><vdop>8.25</vdop><extensions><gom:speed>0.0</gom:speed></extensions></trkpt>
   <trkpt lat="59.0704692548" lon="30.0329386373"><ele>94.242</ele><time>2026-04-20T19:40:55.075Z</time><hdop>23.625</hdop><vdop>8.375</vdop><extensions><gom:speed>0.0</gom:speed></extensions></trkpt>
   <trkpt lat="59.0704692548" lon="30.0329386373"><ele>94.244</ele><time>2026-04-20T19:40:56.075Z</time><hdop>24.25</hdop><vdop>8.25</vdop><extensions><gom:speed>0.0</gom:speed></extensions></trkpt>
   <trkpt lat="59.0704692548" lon="30.0329388049"><ele>94.247</ele><time>2026-04-20T19:40:57.075Z</time><hdop>24.625</hdop><vdop>7.875</vdop><extensions><gom:speed>0.0</gom:speed></extensions></trkpt>
   <trkpt lat="59.0704692548" lon="30.0329388049"><ele>94.252</ele><time>2026-04-20T19:40:58.076Z</time><hdop>24.5</hdop><vdop>7.75</vdop><extensions><gom:speed>0.0</gom:speed></extensions></trkpt>
   <trkpt lat="59.0704692548" lon="30.0329388049"><ele>94.255</ele><time>2026-04-20T19:40:59.075Z</time><hdop>24.0</hdop><vdop>7.625</vdop><extensions><gom:speed>0.0</gom:speed></extensions></trkpt>
   <trkpt lat="59.0704691291" lon="30.0329388887"><ele>94.26</ele><time>2026-04-20T19:41:00.075Z</time><hdop>23.75</hdop><vdop>7.75</vdop><extensions><gom:speed>0.0</gom:speed></extensions></trkpt>
   <trkpt lat="59.0704691291" lon="30.0329388887"><ele>94.264</ele><time>2026-04-20T19:41:01.075Z</time><hdop>23.375</hdop><vdop>7.875</vdop><extensions><gom:speed>0.0</gom:speed></extensions></trkpt>
   <trkpt lat="59.0704691291" lon="30.0329388887"><ele>94.27</ele><time>2026-04-20T19:41:02.075Z</time><hdop>22.5</hdop><vdop>8.0</vdop><extensions><gom:speed>0.0</gom:speed></extensions></trkpt>
   <trkpt lat="59.0704691291" lon="30.0329389725"><ele>94.275</ele><time>2026-04-20T19:41:03.075Z</time><hdop>21.875</hdop><vdop>8.25</vdop><extensions><gom:speed>0.0</gom:speed></extensions></trkpt>
   <trkpt lat="59.0704690453" lon="30.0329389725"><ele>94.281</ele><time>2026-04-20T19:41:04.075Z</time><hdop>21.25</hdop><vdop>7.875</vdop><extensions><gom:speed>0.0</gom:speed></extensions></trkpt>
   <trkpt lat="59.0704690453" lon="30.0329390564"><ele>94.286</ele><time>2026-04-20T19:41:05.075Z</time><hdop>20.625</hdop><vdop>8.125</vdop><extensions><gom:speed>0.0</gom:speed></extensions></trkpt>
   <trkpt lat="59.0704689196" lon="30.0329390564"><ele>94.291</ele><time>2026-04-20T19:41:06.075Z</time><hdop>19.75</hdop><vdop>8.25</vdop><extensions><gom:speed>0.0</gom:speed></extensions></trkpt>
   <trkpt lat="59.0704689196" lon="30.0329390564"><ele>94.296</ele><time>2026-04-20T19:41:07.075Z</time><hdop>19.0</hdop><vdop>8.5</vdop><extensions><gom:speed>0.0</gom:speed></extensions></trkpt>
   <trkpt lat="59.0704689196" lon="30.0329391402"><ele>94.302</ele><time>2026-04-20T19:41:08.075Z</time><hdop>18.75</hdop><vdop>8.625</vdop><extensions><gom:speed>0.0</gom:speed></extensions></trkpt>
   <trkpt lat="59.0704688357" lon="30.0329391402"><ele>94.307</ele><time>2026-04-20T19:41:09.076Z</time><hdop>18.625</hdop><vdop>9.0</vdop><extensions><gom:speed>0.0</gom:speed></extensions></trkpt>
   <trkpt lat="59.0704688357" lon="30.0329391402"><ele>94.313</ele><time>2026-04-20T19:41:10.076Z</time><hdop>18.625</hdop><vdop>9.125</vdop><extensions><gom:speed>0.0</gom:speed></extensions></trkpt>
   <trkpt lat="59.0704688357" lon="30.0329393078"><ele>94.319</ele><time>2026-04-20T19:41:11.075Z</time><hdop>18.875</hdop><vdop>9.5</vdop><extensions><gom:speed>0.0</gom:speed></extensions></trkpt>
   <trkpt lat="59.0704687519" lon="30.0329393078"><ele>94.326</ele><time>2026-04-20T19:41:12.075Z</time><hdop>19.375</hdop><vdop>10.125</vdop><extensions><gom:speed>0.0</gom:speed></extensions></trkpt>
   <trkpt lat="59.0704687519" lon="30.0329393078"><ele>94.331</ele><time>2026-04-20T19:41:13.075Z</time><hdop>20.125</hdop><vdop>10.75</vdop><extensions><gom:speed>0.0</gom:speed></extensions></trkpt>
   <trkpt lat="59.0704686262" lon="30.0329393078"><ele>94.334</ele><time>2026-04-20T19:41:14.075Z</time><hdop>20.75</hdop><vdop>11.0</vdop><extensions><gom:speed>0.0</gom:speed></extensions></trkpt>
   <trkpt lat="59.0704686262" lon="30.0329393916"><ele>94.338</ele><time>2026-04-20T19:41:15.075Z</time><hdop>21.5</hdop><vdop>11.0</vdop><extensions><gom:speed>0.0</gom:speed></extensions></trkpt>
   <trkpt lat="59.0704686262" lon="30.0329393916"><ele>94.342</ele><time>2026-04-20T19:41:16.075Z</time><hdop>22.5</hdop><vdop>11.0</vdop><extensions><gom:speed>0.0</gom:speed></extensions></trkpt>
   <trkpt lat="59.0704685424" lon="30.0329393916"><ele>94.346</ele><time>2026-04-20T19:41:17.075Z</time><hdop>23.375</hdop><vdop>11.125</vdop><extensions><gom:speed>0.0</gom:speed></extensions></trkpt>
   <trkpt lat="59.0704685424" lon="30.0329393916"><ele>94.351</ele><time>2026-04-20T19:41:18.075Z</time><hdop>24.125</hdop><vdop>11.125</vdop><extensions><gom:speed>0.0</gom:speed></extensions></trkpt>
   <trkpt lat="59.0704685424" lon="30.0329393916"><ele>94.354</ele><time>2026-04-20T19:41:19.075Z</time><hdop>24.75</hdop><vdop>11.0</vdop><extensions><gom:speed>0.0</gom:speed></extensions></trkpt>
   <trkpt lat="59.0704684166" lon="30.0329393916"><ele>94.356</ele><time>2026-04-20T19:41:20.075Z</time><hdop>25.5</hdop><vdop>11.0</vdop><extensions><gom:speed>0.0</gom:speed></extensions></trkpt>
   <trkpt lat="59.0704684166" lon="30.0329393078"><ele>94.357</ele><time>2026-04-20T19:41:21.075Z</time><hdop>26.375</hdop><vdop>11.125</vdop><extensions><gom:speed>0.0</gom:speed></extensions></trkpt>
   <trkpt lat="59.0704683328" lon="30.0329391402"><ele>94.356</ele><time>2026-04-20T19:41:22.075Z</time><hdop>27.125</hdop><vdop>11.0</vdop><extensions><gom:speed>0.0</gom:speed></extensions></trkpt>
   <trkpt lat="59.070468249" lon="30.0329391402"><ele>94.355</ele><time>2026-04-20T19:41:23.076Z</time><hdop>27.25</hdop><vdop>10.875</vdop><extensions><gom:speed>0.0</gom:speed></extensions></trkpt>
   <trkpt lat="59.070468249" lon="30.0329390564"><ele>94.355</ele><time>2026-04-20T19:41:24.076Z</time><hdop>27.625</hdop><vdop>11.125</vdop><extensions><gom:speed>0.0</gom:speed></extensions></trkpt>
   <trkpt lat="59.0704681233" lon="30.0329389725"><ele>94.355</ele><time>2026-04-20T19:41:25.075Z</time><hdop>26.875</hdop><vdop>10.625</vdop><extensions><gom:speed>0.0</gom:speed></extensions></trkpt>
   <trkpt lat="59.0704681233" lon="30.0329388887"><ele>94.355</ele><time>2026-04-20T19:41:26.075Z</time><hdop>25.5</hdop><vdop>10.125</vdop><extensions><gom:speed>0.0</gom:speed></extensions></trkpt>
   <trkpt lat="59.0704681233" lon="30.0329388887"><ele>94.356</ele><time>2026-04-20T19:41:27.076Z</time><hdop>23.625</hdop><vdop>9.625</vdop><extensions><gom:speed>0.0</gom:speed></extensions></trkpt>
   <trkpt lat="59.0704681233" lon="30.0329388049"><ele>94.357</ele><time>2026-04-20T19:41:28.076Z</time><hdop>21.375</hdop><vdop>9.125</vdop><extensions><gom:speed>0.0</gom:speed></extensions></trkpt>
   <trkpt lat="59.0704681233" lon="30.0329386373"><ele>94.36</ele><time>2026-04-20T19:41:29.075Z</time><hdop>19.375</hdop><vdop>8.625</vdop><extensions><gom:speed>0.0</gom:speed></extensions></trkpt>
   <trkpt lat="59.0704681233" lon="30.0329386373"><ele>94.362</ele><time>2026-04-20T19:41:30.075Z</time><hdop>17.0</hdop><vdop>8.375</vdop><extensions><gom:speed>0.0</gom:speed></extensions></trkpt>
   <trkpt lat="59.0704680395" lon="30.0329385534"><ele>94.364</ele><time>2026-04-20T19:41:31.076Z</time><hdop>15.5</hdop><vdop>8.875</vdop><extensions><gom:speed>0.0</gom:speed></extensions></trkpt>
   <trkpt lat="59.0704680395" lon="30.0329385534"><ele>94.365</ele><time>2026-04-20T19:41:32.075Z</time><hdop>14.375</hdop><vdop>8.375</vdop><extensions><gom:speed>0.0</gom:speed></extensions></trkpt>
   <trkpt lat="59.0704680395" lon="30.0329384696"><ele>94.366</ele><time>2026-04-20T19:41:33.075Z</time><hdop>13.75</hdop><vdop>8.75</vdop><extensions><gom:speed>0.0</gom:speed></extensions></trkpt>
   <trkpt lat="59.0704679556" lon="30.0329384696"><ele>94.365</ele><time>2026-04-20T19:41:34.075Z</time><hdop>13.125</hdop><vdop>8.0</vdop><extensions><gom:speed>0.0</gom:speed></extensions></trkpt>
   <trkpt lat="59.0704679556" lon="30.0329384696"><ele>94.364</ele><time>2026-04-20T19:41:35.075Z</time><hdop>12.75</hdop><vdop>8.125</vdop><extensions><gom:speed>0.0</gom:speed></extensions></trkpt>
   <trkpt lat="59.0704679556" lon="30.0329384696"><ele>94.364</ele><time>2026-04-20T19:41:36.075Z</time><hdop>12.5</hdop><vdop>8.0</vdop><extensions><gom:speed>0.0</gom:speed></extensions></trkpt>
   <trkpt lat="59.0704679556" lon="30.0329384696"><ele>94.363</ele><time>2026-04-20T19:41:37.075Z</time><hdop>12.25</hdop><vdop>8.125</vdop><extensions><gom:speed>0.0</gom:speed></extensions></trkpt>
   <trkpt lat="59.0704679556" lon="30.0329384696"><ele>94.361</ele><time>2026-04-20T19:41:38.075Z</time><hdop>12.0</hdop><vdop>8.0</vdop><extensions><gom:speed>0.0</gom:speed></extensions></trkpt>
   <trkpt lat="59.0704678299" lon="30.0329384696"><ele>94.36</ele><time>2026-04-20T19:41:39.075Z</time><hdop>11.75</hdop><vdop>7.625</vdop><extensions><gom:speed>0.0</gom:speed></extensions></trkpt>
   <trkpt lat="59.0704678299" lon="30.0329384696"><ele>94.359</ele><time>2026-04-20T19:41:40.075Z</time><hdop>11.5</hdop><vdop>7.25</vdop><extensions><gom:speed>0.0</gom:speed></extensions></trkpt>
   <trkpt lat="59.0704678299" lon="30.0329384696"><ele>94.355</ele><time>2026-04-20T19:41:41.075Z</time><hdop>11.25</hdop><vdop>7.0</vdop><extensions><gom:speed>0.0</gom:speed></extensions></trkpt>
   <trkpt lat="59.0704677461" lon="30.0329383858"><ele>94.353</ele><time>2026-04-20T19:41:42.075Z</time><hdop>11.125</hdop><vdop>6.625</vdop><extensions><gom:speed>0.0</gom:speed></extensions></trkpt>
   <trkpt lat="59.0704677461" lon="30.0329383858"><ele>94.348</ele><time>2026-04-20T19:41:43.075Z</time><hdop>11.0</hdop><vdop>7.125</vdop><extensions><gom:speed>0.0</gom:speed></extensions></trkpt>
   <trkpt lat="59.0704676204" lon="30.032938302"><ele>94.344</ele><time>2026-04-20T19:41:44.075Z</time><hdop>10.875</hdop><vdop>7.5</vdop><extensions><gom:speed>0.0</gom:speed></extensions></trkpt>
   <trkpt lat="59.0704676204" lon="30.0329381343"><ele>94.34</ele><time>2026-04-20T19:41:45.075Z</time><hdop>10.875</hdop><vdop>7.75</vdop><extensions><gom:speed>0.0</gom:speed></extensions></trkpt>
   <trkpt lat="59.0704676204" lon="30.0329381343"><ele>94.338</ele><time>2026-04-20T19:41:46.075Z</time><hdop>10.875</hdop><vdop>8.0</vdop><extensions><gom:speed>0.0</gom:speed></extensions></trkpt>
   <trkpt lat="59.0704676204" lon="30.0329380505"><ele>94.334</ele><time>2026-04-20T19:41:47.075Z</time><hdop>11.0</hdop><vdop>8.125</vdop><extensions><gom:speed>0.0</gom:speed></extensions></trkpt>
   <trkpt lat="59.0704676204" lon="30.0329380505"><ele>94.33</ele><time>2026-04-20T19:41:48.075Z</time><hdop>11.0</hdop><vdop>8.125</vdop><extensions><gom:speed>0.0</gom:speed></extensions></trkpt>
   <trkpt lat="59.0704676204" lon="30.0329380505"><ele>94.327</ele><time>2026-04-20T19:41:49.075Z</time><hdop>11.125</hdop><vdop>8.0</vdop><extensions><gom:speed>0.0</gom:speed></extensions></trkpt>
   <trkpt lat="59.0704675365" lon="30.0329379667"><ele>94.323</ele><time>2026-04-20T19:41:50.075Z</time><hdop>11.125</hdop><vdop>8.0</vdop><extensions><gom:speed>0.0</gom:speed></extensions></trkpt>
   <trkpt lat="59.0704676204" lon="30.0329379667"><ele>94.32</ele><time>2026-04-20T19:41:51.075Z</time><hdop>11.0</hdop><vdop>7.625</vdop><extensions><gom:speed>0.0</gom:speed></extensions></trkpt>
   <trkpt lat="59.0704675365" lon="30.0329380505"><ele>94.317</ele><time>2026-04-20T19:41:52.075Z</time><hdop>11.0</hdop><vdop>7.0</vdop><extensions><gom:speed>0.0</gom:speed></extensions></trkpt>
   <trkpt lat="59.0704675365" lon="30.0329380505"><ele>94.317</ele><time>2026-04-20T19:41:53.076Z</time><hdop>10.875</hdop><vdop>6.75</vdop><extensions><gom:speed>0.0</gom:speed></extensions></trkpt>
   <trkpt lat="59.0704675365" lon="30.0329380505"><ele>94.316</ele><time>2026-04-20T19:41:54.076Z</time><hdop>10.75</hdop><vdop>6.5</vdop><extensions><gom:speed>0.0</gom:speed></extensions></trkpt>
   <trkpt lat="59.0704674527" lon="30.0329380505"><ele>94.316</ele><time>2026-04-20T19:41:55.075Z</time><hdop>10.75</hdop><vdop>6.5</vdop><extensions><gom:speed>0.0</gom:speed></extensions></trkpt>
   <trkpt lat="59.0704674527" lon="30.0329380505"><ele>94.317</ele><time>2026-04-20T19:41:56.075Z</time><hdop>10.625</hdop><vdop>6.5</vdop><extensions><gom:speed>0.0</gom:speed></extensions></trkpt>
   <trkpt lat="59.0704674527" lon="30.0329381343"><ele>94.317</ele><time>2026-04-20T19:41:57.075Z</time><hdop>10.625</hdop><vdop>6.5</vdop><extensions><gom:speed>0.0</gom:speed></extensions></trkpt>
   <trkpt lat="59.0704674527" lon="30.0329381343"><ele>94.321</ele><time>2026-04-20T19:41:58.075Z</time><hdop>10.625</hdop><vdop>6.375</vdop><extensions><gom:speed>0.0</gom:speed></extensions></trkpt>
   <trkpt lat="59.0704674527" lon="30.032938302"><ele>94.325</ele><time>2026-04-20T19:41:59.075Z</time><hdop>10.5</hdop><vdop>6.25</vdop><extensions><gom:speed>0.0</gom:speed></extensions></trkpt>
   <trkpt lat="59.070467327" lon="30.0329383858"><ele>94.329</ele><time>2026-04-20T19:42:00.076Z</time><hdop>10.5</hdop><vdop>6.0</vdop><extensions><gom:speed>0.0</gom:speed></extensions></trkpt>
   <trkpt lat="59.070467327" lon="30.0329384696"><ele>94.331</ele><time>2026-04-20T19:42:01.075Z</time><hdop>10.5</hdop><vdop>6.0</vdop><extensions><gom:speed>0.0</gom:speed></extensions></trkpt>
   <trkpt lat="59.0704672432" lon="30.0329386373"><ele>94.341</ele><time>2026-04-20T19:42:02.075Z</time><hdop>10.375</hdop><vdop>5.75</vdop><extensions><gom:speed>0.0</gom:speed></extensions></trkpt>
   <trkpt lat="59.0704672432" lon="30.0329388049"><ele>94.347</ele><time>2026-04-20T19:42:03.075Z</time><hdop>10.375</hdop><vdop>5.75</vdop><extensions><gom:speed>0.0</gom:speed></extensions></trkpt>
   <trkpt lat="59.0704671174" lon="30.0329388049"><ele>94.349</ele><time>2026-04-20T19:42:04.075Z</time><hdop>10.375</hdop><vdop>5.875</vdop><extensions><gom:speed>0.0</gom:speed></extensions></trkpt>
   <trkpt lat="59.0704671174" lon="30.0329388049"><ele>94.354</ele><time>2026-04-20T19:42:05.076Z</time><hdop>10.375</hdop><vdop>5.875</vdop><extensions><gom:speed>0.0</gom:speed></extensions></trkpt>
   <trkpt lat="59.0704670336" lon="30.0329388049"><ele>94.355</ele><time>2026-04-20T19:42:06.076Z</time><hdop>10.375</hdop><vdop>5.625</vdop><extensions><gom:speed>0.0</gom:speed></extensions></trkpt>
   <trkpt lat="59.0704670336" lon="30.0329386373"><ele>94.355</ele><time>2026-04-20T19:42:07.075Z</time><hdop>10.25</hdop><vdop>5.25</vdop><extensions><gom:speed>0.0</gom:speed></extensions></trkpt>
   <trkpt lat="59.0704669498" lon="30.0329386373"><ele>94.354</ele><time>2026-04-20T19:42:08.075Z</time><hdop>10.25</hdop><vdop>5.375</vdop><extensions><gom:speed>0.0</gom:speed></extensions></trkpt>
   <trkpt lat="59.0704669498" lon="30.0329386373"><ele>94.351</ele><time>2026-04-20T19:42:09.075Z</time><hdop>10.25</hdop><vdop>5.375</vdop><extensions><gom:speed>0.0</gom:speed></extensions></trkpt>
   <trkpt lat="59.0704668241" lon="30.0329386373"><ele>94.348</ele><time>2026-04-20T19:42:10.075Z</time><hdop>10.375</hdop><vdop>5.5</vdop><extensions><gom:speed>0.0</gom:speed></extensions></trkpt>
   <trkpt lat="59.0704668241" lon="30.0329385534"><ele>94.347</ele><time>2026-04-20T19:42:11.075Z</time><hdop>10.375</hdop><vdop>5.5</vdop><extensions><gom:speed>0.0</gom:speed></extensions></trkpt>
   <trkpt lat="59.0704667403" lon="30.0329385534"><ele>94.345</ele><time>2026-04-20T19:42:12.075Z</time><hdop>10.375</hdop><vdop>5.5</vdop><extensions><gom:speed>0.0</gom:speed></extensions></trkpt>
   <trkpt lat="59.0704667403" lon="30.0329384696"><ele>94.342</ele><time>2026-04-20T19:42:13.075Z</time><hdop>10.5</hdop><vdop>5.75</vdop><extensions><gom:speed>0.0</gom:speed></extensions></trkpt>
   <trkpt lat="59.0704667403" lon="30.0329384696"><ele>94.341</ele><time>2026-04-20T19:42:14.075Z</time><hdop>10.625</hdop><vdop>5.875</vdop><extensions><gom:speed>0.0</gom:speed></extensions></trkpt>
   <trkpt lat="59.0704666564" lon="30.0329384696"><ele>94.339</ele><time>2026-04-20T19:42:15.075Z</time><hdop>10.75</hdop><vdop>5.875</vdop><extensions><gom:speed>0.0</gom:speed></extensions></trkpt>
   <trkpt lat="59.0704666564" lon="30.0329384696"><ele>94.336</ele><time>2026-04-20T19:42:16.076Z</time><hdop>10.875</hdop><vdop>6.0</vdop><extensions><gom:speed>0.0</gom:speed></extensions></trkpt>
   <trkpt lat="59.0704665307" lon="30.0329383858"><ele>94.334</ele><time>2026-04-20T19:42:17.075Z</time><hdop>11.125</hdop><vdop>6.0</vdop><extensions><gom:speed>0.0</gom:speed></extensions></trkpt>
   <trkpt lat="59.0704665307" lon="30.0329383858"><ele>94.334</ele><time>2026-04-20T19:42:18.075Z</time><hdop>11.25</hdop><vdop>6.25</vdop><extensions><gom:speed>0.0</gom:speed></extensions></trkpt>
   <trkpt lat="59.0704664469" lon="30.032938302"><ele>94.333</ele><time>2026-04-20T19:42:19.075Z</time><hdop>11.375</hdop><vdop>6.375</vdop><extensions><gom:speed>0.0</gom:speed></extensions></trkpt>
   <trkpt lat="59.0704663212" lon="30.0329381343"><ele>94.33</ele><time>2026-04-20T19:42:20.075Z</time><hdop>11.5</hdop><vdop>6.5</vdop><extensions><gom:speed>0.0</gom:speed></extensions></trkpt>
   <trkpt lat="59.0704662373" lon="30.0329381343"><ele>94.328</ele><time>2026-04-20T19:42:21.075Z</time><hdop>11.625</hdop><vdop>6.5</vdop><extensions><gom:speed>0.0</gom:speed></extensions></trkpt>
   <trkpt lat="59.0704661535" lon="30.0329380505"><ele>94.326</ele><time>2026-04-20T19:42:22.075Z</time><hdop>11.625</hdop><vdop>6.625</vdop><extensions><gom:speed>0.0</gom:speed></extensions></trkpt>
   <trkpt lat="59.0704661535" lon="30.0329378829"><ele>94.325</ele><time>2026-04-20T19:42:23.076Z</time><hdop>11.625</hdop><vdop>6.625</vdop><extensions><gom:speed>0.0</gom:speed></extensions></trkpt>
   <trkpt lat="59.0704660278" lon="30.0329378829"><ele>94.323</ele><time>2026-04-20T19:42:24.075Z</time><hdop>11.75</hdop><vdop>6.625</vdop><extensions><gom:speed>0.0</gom:speed></extensions></trkpt>
   <trkpt lat="59.070465944" lon="30.0329377991"><ele>94.321</ele><time>2026-04-20T19:42:25.075Z</time><hdop>11.875</hdop><vdop>6.625</vdop><extensions><gom:speed>0.0</gom:speed></extensions></trkpt>
   <trkpt lat="59.070465944" lon="30.0329377991"><ele>94.32</ele><time>2026-04-20T19:42:26.075Z</time><hdop>11.875</hdop><vdop>6.375</vdop><extensions><gom:speed>0.0</gom:speed></extensions></trkpt>
   <trkpt lat="59.0704658182" lon="30.0329377153"><ele>94.319</ele><time>2026-04-20T19:42:27.075Z</time><hdop>12.0</hdop><vdop>6.25</vdop><extensions><gom:speed>0.0</gom:speed></extensions></trkpt>
   <trkpt lat="59.0704658182" lon="30.0329377153"><ele>94.317</ele><time>2026-04-20T19:42:28.075Z</time><hdop>12.125</hdop><vdop>6.25</vdop><extensions><gom:speed>0.0</gom:speed></extensions></trkpt>
   <trkpt lat="59.0704658182" lon="30.0329377153"><ele>94.315</ele><time>2026-04-20T19:42:29.076Z</time><hdop>12.125</hdop><vdop>6.375</vdop><extensions><gom:speed>0.0</gom:speed></extensions></trkpt>
   <trkpt lat="59.0704657344" lon="30.0329377153"><ele>94.313</ele><time>2026-04-20T19:42:30.075Z</time><hdop>12.0</hdop><vdop>6.5</vdop><extensions><gom:speed>0.0</gom:speed></extensions></trkpt>
   <trkpt lat="59.0704657344" lon="30.0329375476"><ele>94.313</ele><time>2026-04-20T19:42:31.076Z</time><hdop>12.0</hdop><vdop>6.5</vdop><extensions><gom:speed>0.0</gom:speed></extensions></trkpt>
   <trkpt lat="59.0704656506" lon="30.0329375476"><ele>94.313</ele><time>2026-04-20T19:42:32.075Z</time><hdop>12.0</hdop><vdop>6.625</vdop><extensions><gom:speed>0.0</gom:speed></extensions></trkpt>
   <trkpt lat="59.0704655249" lon="30.0329374638"><ele>94.312</ele><time>2026-04-20T19:42:33.075Z</time><hdop>11.75</hdop><vdop>6.375</vdop><extensions><gom:speed>0.0</gom:speed></extensions></trkpt>
   <trkpt lat="59.0704654411" lon="30.03293738"><ele>94.313</ele><time>2026-04-20T19:42:34.075Z</time><hdop>11.625</hdop><vdop>6.5</vdop><extensions><gom:speed>0.0</gom:speed></extensions></trkpt>
   <trkpt lat="59.0704653572" lon="30.03293738"><ele>94.314</ele><time>2026-04-20T19:42:35.076Z</time><hdop>11.5</hdop><vdop>6.25</vdop><extensions><gom:speed>0.0</gom:speed></extensions></trkpt>
   <trkpt lat="59.0704652315" lon="30.0329372962"><ele>94.314</ele><time>2026-04-20T19:42:36.075Z</time><hdop>11.375</hdop><vdop>6.0</vdop><extensions><gom:speed>0.0</gom:speed></extensions></trkpt>
   <trkpt lat="59.0704651477" lon="30.0329372962"><ele>94.315</ele><time>2026-04-20T19:42:37.075Z</time><hdop>11.25</hdop><vdop>6.375</vdop><extensions><gom:speed>0.0</gom:speed></extensions></trkpt>
   <trkpt lat="59.070465022" lon="30.0329372123"><ele>94.314</ele><time>2026-04-20T19:42:38.075Z</time><hdop>11.125</hdop><vdop>6.0</vdop><extensions><gom:speed>0.0</gom:speed></extensions></trkpt>
   <trkpt lat="59.070465022" lon="30.0329372123"><ele>94.314</ele><time>2026-04-20T19:42:39.076Z</time><hdop>11.0</hdop><vdop>6.125</vdop><extensions><gom:speed>0.0</gom:speed></extensions></trkpt>
   <trkpt lat="59.0704649381" lon="30.0329372123"><ele>94.313</ele><time>2026-04-20T19:42:40.076Z</time><hdop>10.875</hdop><vdop>5.875</vdop><extensions><gom:speed>0.0</gom:speed></extensions></trkpt>
   <trkpt lat="59.0704648543" lon="30.0329372123"><ele>94.311</ele><time>2026-04-20T19:42:41.075Z</time><hdop>10.75</hdop><vdop>5.75</vdop><extensions><gom:speed>0.0</gom:speed></extensions></trkpt>
   <trkpt lat="59.0704648543" lon="30.0329370447"><ele>94.31</ele><time>2026-04-20T19:42:42.075Z</time><hdop>10.75</hdop><vdop>5.5</vdop><extensions><gom:speed>0.0</gom:speed></extensions></trkpt>
   <trkpt lat="59.0704647286" lon="30.0329370447"><ele>94.309</ele><time>2026-04-20T19:42:43.075Z</time><hdop>10.625</hdop><vdop>5.375</vdop><extensions><gom:speed>0.0</gom:speed></extensions></trkpt>
   <trkpt lat="59.0704646448" lon="30.0329370447"><ele>94.308</ele><time>2026-04-20T19:42:44.075Z</time><hdop>10.5</hdop><vdop>5.5</vdop><extensions><gom:speed>0.0</gom:speed></extensions></trkpt>
   <trkpt lat="59.0704645191" lon="30.0329369609"><ele>94.309</ele><time>2026-04-20T19:42:45.075Z</time><hdop>10.5</hdop><vdop>5.5</vdop><extensions><gom:speed>0.0</gom:speed></extensions></trkpt>
   <trkpt lat="59.0704644352" lon="30.0329368771"><ele>94.308</ele><time>2026-04-20T19:42:46.076Z</time><hdop>10.375</hdop><vdop>5.5</vdop><extensions><gom:speed>0.0</gom:speed></extensions></trkpt>
   <trkpt lat="59.0704643514" lon="30.0329368771"><ele>94.312</ele><time>2026-04-20T19:42:47.075Z</time><hdop>10.375</hdop><vdop>5.625</vdop><extensions><gom:speed>0.0</gom:speed></extensions></trkpt>
   <trkpt lat="59.0704642257" lon="30.0329368771"><ele>94.314</ele><time>2026-04-20T19:42:48.075Z</time><hdop>10.375</hdop><vdop>5.75</vdop><extensions><gom:speed>0.0</gom:speed></extensions></trkpt>
   <trkpt lat="59.0704641419" lon="30.0329368771"><ele>94.314</ele><time>2026-04-20T19:42:49.076Z</time><hdop>10.375</hdop><vdop>6.25</vdop><extensions><gom:speed>0.0</gom:speed></extensions></trkpt>
   <trkpt lat="59.0704641419" lon="30.0329368771"><ele>94.312</ele><time>2026-04-20T19:42:50.075Z</time><hdop>10.375</hdop><vdop>6.375</vdop><extensions><gom:speed>0.0</gom:speed></extensions></trkpt>
   <trkpt lat="59.0704640161" lon="30.0329367932"><ele>94.309</ele><time>2026-04-20T19:42:51.075Z</time><hdop>10.375</hdop><vdop>6.5</vdop><extensions><gom:speed>0.0</gom:speed></extensions></trkpt>
   <trkpt lat="59.0704639323" lon="30.0329367932"><ele>94.306</ele><time>2026-04-20T19:42:52.075Z</time><hdop>10.375</hdop><vdop>6.625</vdop><extensions><gom:speed>0.0</gom:speed></extensions></trkpt>
   <trkpt lat="59.0704639323" lon="30.0329367932"><ele>94.3</ele><time>2026-04-20T19:42:53.076Z</time><hdop>10.5</hdop><vdop>6.625</vdop><extensions><gom:speed>0.0</gom:speed></extensions></trkpt>
   <trkpt lat="59.0704638485" lon="30.0329367094"><ele>94.295</ele><time>2026-04-20T19:42:54.075Z</time><hdop>10.5</hdop><vdop>6.625</vdop><extensions><gom:speed>0.0</gom:speed></extensions></trkpt>
   <trkpt lat="59.0704637228" lon="30.0329365418"><ele>94.289</ele><time>2026-04-20T19:42:55.075Z</time><hdop>10.5</hdop><vdop>6.75</vdop><extensions><gom:speed>0.0</gom:speed></extensions></trkpt>
   <trkpt lat="59.0704637228" lon="30.0329365418"><ele>94.283</ele><time>2026-04-20T19:42:56.075Z</time><hdop>10.5</hdop><vdop>6.875</vdop><extensions><gom:speed>0.0</gom:speed></extensions></trkpt>
   <trkpt lat="59.0704637228" lon="30.032936458"><ele>94.275</ele><time>2026-04-20T19:42:57.075Z</time><hdop>10.625</hdop><vdop>7.0</vdop><extensions><gom:speed>0.0</gom:speed></extensions></trkpt>
   <trkpt lat="59.0704637228" lon="30.032936458"><ele>94.27</ele><time>2026-04-20T19:42:58.075Z</time><hdop>10.625</hdop><vdop>6.875</vdop><extensions><gom:speed>0.0</gom:speed></extensions></trkpt>
   <trkpt lat="59.070463639" lon="30.032936458"><ele>94.264</ele><time>2026-04-20T19:42:59.075Z</time><hdop>10.625</hdop><vdop>6.875</vdop><extensions><gom:speed>0.0</gom:speed></extensions></trkpt>
   <trkpt lat="59.070463639" lon="30.0329363741"><ele>94.262</ele><time>2026-04-20T19:43:00.075Z</time><hdop>10.75</hdop><vdop>7.0</vdop><extensions><gom:speed>0.0</gom:speed></extensions></trkpt>
   <trkpt lat="59.0704635551" lon="30.0329363741"><ele>94.258</ele><time>2026-04-20T19:43:01.075Z</time><hdop>10.75</hdop><vdop>7.0</vdop><extensions><gom:speed>0.0</gom:speed></extensions></trkpt>
   <trkpt lat="59.0704635551" lon="30.0329363741"><ele>94.257</ele><time>2026-04-20T19:43:02.075Z</time><hdop>10.75</hdop><vdop>7.0</vdop><extensions><gom:speed>0.0</gom:speed></extensions></trkpt>
   <trkpt lat="59.0704635551" lon="30.0329362903"><ele>94.253</ele><time>2026-04-20T19:43:03.075Z</time><hdop>10.875</hdop><vdop>7.125</vdop><extensions><gom:speed>0.0</gom:speed></extensions></trkpt>
   <trkpt lat="59.0704634294" lon="30.0329362903"><ele>94.249</ele><time>2026-04-20T19:43:04.075Z</time><hdop>10.875</hdop><vdop>7.0</vdop><extensions><gom:speed>0.0</gom:speed></extensions></trkpt>
   <trkpt lat="59.0704633456" lon="30.0329362065"><ele>94.242</ele><time>2026-04-20T19:43:05.075Z</time><hdop>11.0</hdop><vdop>7.0</vdop><extensions><gom:speed>0.0</gom:speed></extensions></trkpt>
   <trkpt lat="59.0704633456" lon="30.0329360389"><ele>94.238</ele><time>2026-04-20T19:43:06.075Z</time><hdop>11.0</hdop><vdop>6.875</vdop><extensions><gom:speed>0.0</gom:speed></extensions></trkpt>
   <trkpt lat="59.0704632199" lon="30.0329360389"><ele>94.236</ele><time>2026-04-20T19:43:07.075Z</time><hdop>11.0</hdop><vdop>6.75</vdop><extensions><gom:speed>0.0</gom:speed></extensions></trkpt>
   <trkpt lat="59.0704632199" lon="30.0329359551"><ele>94.234</ele><time>2026-04-20T19:43:08.075Z</time><hdop>11.0</hdop><vdop>6.875</vdop><extensions><gom:speed>0.0</gom:speed></extensions></trkpt>
   <trkpt lat="59.0704632199" lon="30.0329359551"><ele>94.235</ele><time>2026-04-20T19:43:09.075Z</time><hdop>11.0</hdop><vdop>7.0</vdop><extensions><gom:speed>0.0</gom:speed></extensions></trkpt>
   <trkpt lat="59.070463136" lon="30.0329359551"><ele>94.234</ele><time>2026-04-20T19:43:10.075Z</time><hdop>10.875</hdop><vdop>6.625</vdop><extensions><gom:speed>0.0</gom:speed></extensions></trkpt>
   <trkpt lat="59.0704630522" lon="30.0329358712"><ele>94.24</ele><time>2026-04-20T19:43:11.075Z</time><hdop>10.875</hdop><vdop>6.375</vdop><extensions><gom:speed>0.0</gom:speed></extensions></trkpt>
   <trkpt lat="59.0704630522" lon="30.0329358712"><ele>94.243</ele><time>2026-04-20T19:43:12.075Z</time><hdop>10.875</hdop><vdop>6.25</vdop><extensions><gom:speed>0.0</gom:speed></extensions></trkpt>
   <trkpt lat="59.0704630522" lon="30.0329357874"><ele>94.243</ele><time>2026-04-20T19:43:13.076Z</time><hdop>10.875</hdop><vdop>6.125</vdop><extensions><gom:speed>0.0</gom:speed></extensions></trkpt>
   <trkpt lat="59.0704629265" lon="30.0329357874"><ele>94.243</ele><time>2026-04-20T19:43:14.075Z</time><hdop>10.75</hdop><vdop>6.0</vdop><extensions><gom:speed>0.0</gom:speed></extensions></trkpt>
   <trkpt lat="59.0704629265" lon="30.0329357036"><ele>94.242</ele><time>2026-04-20T19:43:15.076Z</time><hdop>10.75</hdop><vdop>5.75</vdop><extensions><gom:speed>0.0</gom:speed></extensions></trkpt>
   <trkpt lat="59.0704628427" lon="30.032935536"><ele>94.24</ele><time>2026-04-20T19:43:16.075Z</time><hdop>10.75</hdop><vdop>5.75</vdop><extensions><gom:speed>0.0</gom:speed></extensions></trkpt>
   <trkpt lat="59.0704628427" lon="30.032935536"><ele>94.236</ele><time>2026-04-20T19:43:17.075Z</time><hdop>10.75</hdop><vdop>5.875</vdop><extensions><gom:speed>0.0</gom:speed></extensions></trkpt>
   <trkpt lat="59.0704627169" lon="30.0329354521"><ele>94.234</ele><time>2026-04-20T19:43:18.075Z</time><hdop>10.75</hdop><vdop>6.0</vdop><extensions><gom:speed>0.0</gom:speed></extensions></trkpt>
   <trkpt lat="59.0704627169" lon="30.0329353683"><ele>94.233</ele><time>2026-04-20T19:43:19.076Z</time><hdop>10.75</hdop><vdop>5.75</vdop><extensions><gom:speed>0.0</gom:speed></extensions></trkpt>
   <trkpt lat="59.0704627169" lon="30.0329352845"><ele>94.228</ele><time>2026-04-20T19:43:20.075Z</time><hdop>10.75</hdop><vdop>5.625</vdop><extensions><gom:speed>0.0</gom:speed></extensions></trkpt>
   <trkpt lat="59.0704625493" lon="30.0329352845"><ele>94.229</ele><time>2026-04-20T19:43:21.075Z</time><hdop>10.75</hdop><vdop>5.625</vdop><extensions><gom:speed>0.0</gom:speed></extensions></trkpt>
   <trkpt lat="59.0704625493" lon="30.0329352007"><ele>94.229</ele><time>2026-04-20T19:43:22.075Z</time><hdop>10.75</hdop><vdop>5.5</vdop><extensions><gom:speed>0.0</gom:speed></extensions></trkpt>
   <trkpt lat="59.0704624236" lon="30.032935033"><ele>94.227</ele><time>2026-04-20T19:43:23.075Z</time><hdop>10.75</hdop><vdop>5.375</vdop><extensions><gom:speed>0.0</gom:speed></extensions></trkpt>
   <trkpt lat="59.0704623398" lon="30.032935033"><ele>94.225</ele><time>2026-04-20T19:43:24.076Z</time><hdop>10.625</hdop><vdop>5.25</vdop><extensions><gom:speed>0.0</gom:speed></extensions></trkpt>
   <trkpt lat="59.0704623398" lon="30.0329349492"><ele>94.223</ele><time>2026-04-20T19:43:25.075Z</time><hdop>10.625</hdop><vdop>5.25</vdop><extensions><gom:speed>0.0</gom:speed></extensions></trkpt>
   <trkpt lat="59.0704622559" lon="30.0329347816"><ele>94.219</ele><time>2026-04-20T19:43:26.075Z</time><hdop>10.625</hdop><vdop>5.375</vdop><extensions><gom:speed>0.0</gom:speed></extensions></trkpt>
   <trkpt lat="59.0704621302" lon="30.0329346978"><ele>94.216</ele><time>2026-04-20T19:43:27.075Z</time><hdop>10.625</hdop><vdop>5.625</vdop><extensions><gom:speed>0.0</gom:speed></extensions></trkpt>
   <trkpt lat="59.0704621302" lon="30.0329346978"><ele>94.213</ele><time>2026-04-20T19:43:28.075Z</time><hdop>10.625</hdop><vdop>5.75</vdop><extensions><gom:speed>0.0</gom:speed></extensions></trkpt>
   <trkpt lat="59.0704619207" lon="30.0329346139"><ele>94.209</ele><time>2026-04-20T19:43:29.075Z</time><hdop>10.625</hdop><vdop>5.875</vdop><extensions><gom:speed>0.0</gom:speed></extensions></trkpt>
   <trkpt lat="59.0704618368" lon="30.0329344463"><ele>94.206</ele><time>2026-04-20T19:43:30.076Z</time><hdop>10.75</hdop><vdop>6.25</vdop><extensions><gom:speed>0.0</gom:speed></extensions></trkpt>
   <trkpt lat="59.070461753" lon="30.0329343625"><ele>94.202</ele><time>2026-04-20T19:43:31.075Z</time><hdop>10.75</hdop><vdop>6.5</vdop><extensions><gom:speed>0.0</gom:speed></extensions></trkpt>
   <trkpt lat="59.0704616273" lon="30.0329343625"><ele>94.198</ele><time>2026-04-20T19:43:32.075Z</time><hdop>10.875</hdop><vdop>6.625</vdop><extensions><gom:speed>0.0</gom:speed></extensions></trkpt>
   <trkpt lat="59.0704615435" lon="30.0329342787"><ele>94.196</ele><time>2026-04-20T19:43:33.075Z</time><hdop>10.875</hdop><vdop>6.5</vdop><extensions><gom:speed>0.0</gom:speed></extensions></trkpt>
   <trkpt lat="59.0704615435" lon="30.0329342787"><ele>94.194</ele><time>2026-04-20T19:43:34.075Z</time><hdop>11.0</hdop><vdop>6.875</vdop><extensions><gom:speed>0.0</gom:speed></extensions></trkpt>
   <trkpt lat="59.0704614177" lon="30.0329341949"><ele>94.193</ele><time>2026-04-20T19:43:35.076Z</time><hdop>11.0</hdop><vdop>6.875</vdop><extensions><gom:speed>0.0</gom:speed></extensions></trkpt>
   <trkpt lat="59.0704613339" lon="30.0329341949"><ele>94.189</ele><time>2026-04-20T19:43:36.076Z</time><hdop>11.125</hdop><vdop>6.75</vdop><extensions><gom:speed>0.0</gom:speed></extensions></trkpt>
   <trkpt lat="59.0704612501" lon="30.032934111"><ele>94.184</ele><time>2026-04-20T19:43:37.076Z</time><hdop>11.125</hdop><vdop>6.625</vdop><extensions><gom:speed>0.0</gom:speed></extensions></trkpt>
   <trkpt lat="59.0704612501" lon="30.032934111"><ele>94.178</ele><time>2026-04-20T19:43:38.075Z</time><hdop>11.125</hdop><vdop>6.625</vdop><extensions><gom:speed>0.0</gom:speed></extensions></trkpt>
   <trkpt lat="59.0704611244" lon="30.0329339434"><ele>94.173</ele><time>2026-04-20T19:43:39.075Z</time><hdop>11.125</hdop><vdop>6.625</vdop><extensions><gom:speed>0.0</gom:speed></extensions></trkpt>
   <trkpt lat="59.0704610406" lon="30.0329338596"><ele>94.166</ele><time>2026-04-20T19:43:40.076Z</time><hdop>11.0</hdop><vdop>6.625</vdop><extensions><gom:speed>0.0</gom:speed></extensions></trkpt>
   <trkpt lat="59.0704609567" lon="30.0329338596"><ele>94.159</ele><time>2026-04-20T19:43:41.075Z</time><hdop>11.0</hdop><vdop>6.625</vdop><extensions><gom:speed>0.0</gom:speed></extensions></trkpt>
   <trkpt lat="59.070460831" lon="30.0329337758"><ele>94.153</ele><time>2026-04-20T19:43:42.075Z</time><hdop>10.875</hdop><vdop>6.5</vdop><extensions><gom:speed>0.0</gom:speed></extensions></trkpt>
   <trkpt lat="59.0704607472" lon="30.0329336919"><ele>94.147</ele><time>2026-04-20T19:43:43.075Z</time><hdop>10.875</hdop><vdop>6.625</vdop><extensions><gom:speed>0.0</gom:speed></extensions></trkpt>
   <trkpt lat="59.0704606215" lon="30.0329336081"><ele>94.139</ele><time>2026-04-20T19:43:44.076Z</time><hdop>10.875</hdop><vdop>6.625</vdop><extensions><gom:speed>0.0</gom:speed></extensions></trkpt>
   <trkpt lat="59.0704605376" lon="30.0329334405"><ele>94.131</ele><time>2026-04-20T19:43:45.075Z</time><hdop>10.75</hdop><vdop>6.375</vdop><extensions><gom:speed>0.0</gom:speed></extensions></trkpt>
   <trkpt lat="59.0704604538" lon="30.0329334405"><ele>94.127</ele><time>2026-04-20T19:43:46.076Z</time><hdop>10.75</hdop><vdop>6.375</vdop><extensions><gom:speed>0.0</gom:speed></extensions></trkpt>
   <trkpt lat="59.0704603281" lon="30.0329333567"><ele>94.12</ele><time>2026-04-20T19:43:47.075Z</time><hdop>10.625</hdop><vdop>6.25</vdop><extensions><gom:speed>0.0</gom:speed></extensions></trkpt>
   <trkpt lat="59.0704602443" lon="30.0329333567"><ele>94.115</ele><time>2026-04-20T19:43:48.075Z</time><hdop>10.625</hdop><vdop>6.5</vdop><extensions><gom:speed>0.0</gom:speed></extensions></trkpt>
   <trkpt lat="59.0704601186" lon="30.0329333567"><ele>94.114</ele><time>2026-04-20T19:43:49.075Z</time><hdop>10.625</hdop><vdop>6.5</vdop><extensions><gom:speed>0.0</gom:speed></extensions></trkpt>
   <trkpt lat="59.0704600347" lon="30.0329334405"><ele>94.114</ele><time>2026-04-20T19:43:50.075Z</time><hdop>10.5</hdop><vdop>6.5</vdop><extensions><gom:speed>0.0</gom:speed></extensions></trkpt>
   <trkpt lat="59.0704599509" lon="30.0329334405"><ele>94.111</ele><time>2026-04-20T19:43:51.075Z</time><hdop>10.5</hdop><vdop>6.375</vdop><extensions><gom:speed>0.0</gom:speed></extensions></trkpt>
   <trkpt lat="59.0704598252" lon="30.0329334405"><ele>94.108</ele><time>2026-04-20T19:43:52.075Z</time><hdop>10.5</hdop><vdop>6.375</vdop><extensions><gom:speed>0.0</gom:speed></extensions></trkpt>
   <trkpt lat="59.0704597414" lon="30.0329333567"><ele>94.104</ele><time>2026-04-20T19:43:53.075Z</time><hdop>10.5</hdop><vdop>6.25</vdop><extensions><gom:speed>0.0</gom:speed></extensions></trkpt>
   <trkpt lat="59.0704596575" lon="30.0329333567"><ele>94.1</ele><time>2026-04-20T19:43:54.075Z</time><hdop>10.5</hdop><vdop>6.125</vdop><extensions><gom:speed>0.0</gom:speed></extensions></trkpt>
   <trkpt lat="59.0704595318" lon="30.0329333567"><ele>94.096</ele><time>2026-04-20T19:43:55.076Z</time><hdop>10.5</hdop><vdop>5.875</vdop><extensions><gom:speed>0.0</gom:speed></extensions></trkpt>
   <trkpt lat="59.070459448" lon="30.0329333567"><ele>94.095</ele><time>2026-04-20T19:43:56.075Z</time><hdop>10.5</hdop><vdop>5.875</vdop><extensions><gom:speed>0.0</gom:speed></extensions></trkpt>
   <trkpt lat="59.070459448" lon="30.0329333567"><ele>94.093</ele><time>2026-04-20T19:43:57.075Z</time><hdop>10.5</hdop><vdop>6.0</vdop><extensions><gom:speed>0.0</gom:speed></extensions></trkpt>
   <trkpt lat="59.0704593223" lon="30.0329333567"><ele>94.092</ele><time>2026-04-20T19:43:58.075Z</time><hdop>10.5</hdop><vdop>5.875</vdop><extensions><gom:speed>0.0</gom:speed></extensions></trkpt>
   <trkpt lat="59.0704592385" lon="30.0329333567"><ele>94.09</ele><time>2026-04-20T19:43:59.075Z</time><hdop>10.5</hdop><vdop>6.0</vdop><extensions><gom:speed>0.0</gom:speed></extensions></trkpt>
   <trkpt lat="59.0704592385" lon="30.0329333567"><ele>94.09</ele><time>2026-04-20T19:44:00.075Z</time><hdop>10.5</hdop><vdop>6.25</vdop><extensions><gom:speed>0.0</gom:speed></extensions></trkpt>
   <trkpt lat="59.0704591546" lon="30.0329333567"><ele>94.089</ele><time>2026-04-20T19:44:01.075Z</time><hdop>10.625</hdop><vdop>6.875</vdop><extensions><gom:speed>0.0</gom:speed></extensions></trkpt>
   <trkpt lat="59.0704590289" lon="30.0329334405"><ele>94.088</ele><time>2026-04-20T19:44:02.075Z</time><hdop>10.75</hdop><vdop>6.75</vdop><extensions><gom:speed>0.0</gom:speed></extensions></trkpt>
   <trkpt lat="59.0704589451" lon="30.0329334405"><ele>94.085</ele><time>2026-04-20T19:44:03.075Z</time><hdop>10.625</hdop><vdop>6.5</vdop><extensions><gom:speed>0.0</gom:speed></extensions></trkpt>
   <trkpt lat="59.0704588194" lon="30.0329334405"><ele>94.083</ele><time>2026-04-20T19:44:04.076Z</time><hdop>10.625</hdop><vdop>6.375</vdop><extensions><gom:speed>0.0</gom:speed></extensions></trkpt>
   <trkpt lat="59.0704588194" lon="30.0329333567"><ele>94.08</ele><time>2026-04-20T19:44:05.075Z</time><hdop>10.625</hdop><vdop>6.25</vdop><extensions><gom:speed>0.0</gom:speed></extensions></trkpt>
   <trkpt lat="59.0704587355" lon="30.0329333567"><ele>94.076</ele><time>2026-04-20T19:44:06.075Z</time><hdop>10.5</hdop><vdop>6.125</vdop><extensions><gom:speed>0.0</gom:speed></extensions></trkpt>
   <trkpt lat="59.0704586517" lon="30.0329332728"><ele>94.07</ele><time>2026-04-20T19:44:07.075Z</time><hdop>10.375</hdop><vdop>5.875</vdop><extensions><gom:speed>0.0</gom:speed></extensions></trkpt>
   <trkpt lat="59.070458526" lon="30.0329332728"><ele>94.066</ele><time>2026-04-20T19:44:08.075Z</time><hdop>10.25</hdop><vdop>5.5</vdop><extensions><gom:speed>0.0</gom:speed></extensions></trkpt>
   <trkpt lat="59.0704584422" lon="30.032933189"><ele>94.061</ele><time>2026-04-20T19:44:09.076Z</time><hdop>10.25</hdop><vdop>5.25</vdop><extensions><gom:speed>0.0</gom:speed></extensions></trkpt>
   <trkpt lat="59.0704583164" lon="30.032933189"><ele>94.055</ele><time>2026-04-20T19:44:10.075Z</time><hdop>10.125</hdop><vdop>5.25</vdop><extensions><gom:speed>0.0</gom:speed></extensions></trkpt>
   <trkpt lat="59.0704582326" lon="30.032933189"><ele>94.051</ele><time>2026-04-20T19:44:11.076Z</time><hdop>10.125</hdop><vdop>5.25</vdop><extensions><gom:speed>0.0</gom:speed></extensions></trkpt>
   <trkpt lat="59.0704581488" lon="30.032933189"><ele>94.046</ele><time>2026-04-20T19:44:12.075Z</time><hdop>10.125</hdop><vdop>5.125</vdop><extensions><gom:speed>0.0</gom:speed></extensions></trkpt>
   <trkpt lat="59.0704580231" lon="30.032933189"><ele>94.043</ele><time>2026-04-20T19:44:13.075Z</time><hdop>10.125</hdop><vdop>5.0</vdop><extensions><gom:speed>0.0</gom:speed></extensions></trkpt>
   <trkpt lat="59.0704579393" lon="30.032933189"><ele>94.039</ele><time>2026-04-20T19:44:14.075Z</time><hdop>10.125</hdop><vdop>5.0</vdop><extensions><gom:speed>0.0</gom:speed></extensions></trkpt>
   <trkpt lat="59.0704579393" lon="30.0329332728"><ele>94.037</ele><time>2026-04-20T19:44:15.075Z</time><hdop>10.125</hdop><vdop>4.75</vdop><extensions><gom:speed>0.0</gom:speed></extensions></trkpt>
   <trkpt lat="59.0704577297" lon="30.0329332728"><ele>94.033</ele><time>2026-04-20T19:44:16.076Z</time><hdop>10.125</hdop><vdop>4.875</vdop><extensions><gom:speed>0.0</gom:speed></extensions></trkpt>
   <trkpt lat="59.0704577297" lon="30.0329333567"><ele>94.028</ele><time>2026-04-20T19:44:17.075Z</time><hdop>10.125</hdop><vdop>4.875</vdop><extensions><gom:speed>0.0</gom:speed></extensions></trkpt>
   <trkpt lat="59.0704576459" lon="30.0329334405"><ele>94.024</ele><time>2026-04-20T19:44:18.075Z</time><hdop>10.125</hdop><vdop>4.875</vdop><extensions><gom:speed>0.0</gom:speed></extensions></trkpt>
   <trkpt lat="59.0704575202" lon="30.0329334405"><ele>94.02</ele><time>2026-04-20T19:44:19.075Z</time><hdop>10.125</hdop><vdop>4.875</vdop><extensions><gom:speed>0.0</gom:speed></extensions></trkpt>
   <trkpt lat="59.0704574363" lon="30.0329334405"><ele>94.016</ele><time>2026-04-20T19:44:20.075Z</time><hdop>10.125</hdop><vdop>5.125</vdop><extensions><gom:speed>0.0</gom:speed></extensions></trkpt>
   <trkpt lat="59.0704573525" lon="30.0329334405"><ele>94.012</ele><time>2026-04-20T19:44:21.075Z</time><hdop>10.125</hdop><vdop>5.375</vdop><extensions><gom:speed>0.0</gom:speed></extensions></trkpt>
   <trkpt lat="59.0704572268" lon="30.0329334405"><ele>94.008</ele><time>2026-04-20T19:44:22.076Z</time><hdop>10.25</hdop><vdop>5.625</vdop><extensions><gom:speed>0.0</gom:speed></extensions></trkpt>
   <trkpt lat="59.070457143" lon="30.0329336081"><ele>94.004</ele><time>2026-04-20T19:44:23.076Z</time><hdop>10.375</hdop><vdop>5.625</vdop><extensions><gom:speed>0.0</gom:speed></extensions></trkpt>
   <trkpt lat="59.070457143" lon="30.0329336081"><ele>93.999</ele><time>2026-04-20T19:44:24.075Z</time><hdop>10.375</hdop><vdop>5.75</vdop><extensions><gom:speed>0.0</gom:speed></extensions></trkpt>
   <trkpt lat="59.0704570172" lon="30.0329336081"><ele>93.994</ele><time>2026-04-20T19:44:25.075Z</time><hdop>10.5</hdop><vdop>5.625</vdop><extensions><gom:speed>0.0</gom:speed></extensions></trkpt>
   <trkpt lat="59.0704569334" lon="30.0329336919"><ele>93.989</ele><time>2026-04-20T19:44:26.075Z</time><hdop>10.5</hdop><vdop>5.5</vdop><extensions><gom:speed>0.0</gom:speed></extensions></trkpt>
   <trkpt lat="59.0704568496" lon="30.0329336919"><ele>93.984</ele><time>2026-04-20T19:44:27.075Z</time><hdop>10.5</hdop><vdop>5.5</vdop><extensions><gom:speed>0.0</gom:speed></extensions></trkpt>
   <trkpt lat="59.0704568496" lon="30.0329337758"><ele>93.979</ele><time>2026-04-20T19:44:28.075Z</time><hdop>10.5</hdop><vdop>5.625</vdop><extensions><gom:speed>0.0</gom:speed></extensions></trkpt>
   <trkpt lat="59.0704567239" lon="30.0329337758"><ele>93.975</ele><time>2026-04-20T19:44:29.075Z</time><hdop>10.5</hdop><vdop>5.75</vdop><extensions><gom:speed>0.0</gom:speed></extensions></trkpt>
   <trkpt lat="59.0704566401" lon="30.0329337758"><ele>93.973</ele><time>2026-04-20T19:44:30.075Z</time><hdop>10.5</hdop><vdop>5.625</vdop><extensions><gom:speed>0.0</gom:speed></extensions></trkpt>
   <trkpt lat="59.0704564305" lon="30.0329338596"><ele>93.972</ele><time>2026-04-20T19:44:31.075Z</time><hdop>10.625</hdop><vdop>5.75</vdop><extensions><gom:speed>0.0</gom:speed></extensions></trkpt>
   <trkpt lat="59.0704563467" lon="30.0329339434"><ele>93.973</ele><time>2026-04-20T19:44:32.075Z</time><hdop>10.625</hdop><vdop>5.875</vdop><extensions><gom:speed>0.0</gom:speed></extensions></trkpt>
   <trkpt lat="59.070456221" lon="30.032934111"><ele>93.974</ele><time>2026-04-20T19:44:33.076Z</time><hdop>10.75</hdop><vdop>6.0</vdop><extensions><gom:speed>0.0</gom:speed></extensions></trkpt>
   <trkpt lat="59.0704561371" lon="30.0329341949"><ele>93.977</ele><time>2026-04-20T19:44:34.075Z</time><hdop>10.875</hdop><vdop>6.375</vdop><extensions><gom:speed>0.0</gom:speed></extensions></trkpt>
   <trkpt lat="59.0704560533" lon="30.0329342787"><ele>93.978</ele><time>2026-04-20T19:44:35.075Z</time><hdop>11.0</hdop><vdop>6.625</vdop><extensions><gom:speed>0.0</gom:speed></extensions></trkpt>
   <trkpt lat="59.0704558438" lon="30.0329343625"><ele>93.978</ele><time>2026-04-20T19:44:36.075Z</time><hdop>11.125</hdop><vdop>6.75</vdop><extensions><gom:speed>0.0</gom:speed></extensions></trkpt>
   <trkpt lat="59.0704556342" lon="30.0329344463"><ele>93.976</ele><time>2026-04-20T19:44:37.075Z</time><hdop>11.125</hdop><vdop>6.5</vdop><extensions><gom:speed>0.0</gom:speed></extensions></trkpt>
   <trkpt lat="59.0704555504" lon="30.0329346139"><ele>93.974</ele><time>2026-04-20T19:44:38.075Z</time><hdop>11.25</hdop><vdop>6.625</vdop><extensions><gom:speed>0.0</gom:speed></extensions></trkpt>
   <trkpt lat="59.0704554247" lon="30.0329346978"><ele>93.972</ele><time>2026-04-20T19:44:39.075Z</time><hdop>11.375</hdop><vdop>6.875</vdop><extensions><gom:speed>0.0</gom:speed></extensions></trkpt>
   <trkpt lat="59.0704553409" lon="30.0329347816"><ele>93.97</ele><time>2026-04-20T19:44:40.076Z</time><hdop>11.5</hdop><vdop>7.0</vdop><extensions><gom:speed>0.0</gom:speed></extensions></trkpt>
   <trkpt lat="59.070455257" lon="30.0329347816"><ele>93.97</ele><time>2026-04-20T19:44:41.075Z</time><hdop>11.5</hdop><vdop>7.0</vdop><extensions><gom:speed>0.0</gom:speed></extensions></trkpt>
   <trkpt lat="59.0704551313" lon="30.0329348654"><ele>93.967</ele><time>2026-04-20T19:44:42.075Z</time><hdop>11.5</hdop><vdop>7.0</vdop><extensions><gom:speed>0.0</gom:speed></extensions></trkpt>
   <trkpt lat="59.0704550475" lon="30.0329349492"><ele>93.966</ele><time>2026-04-20T19:44:43.075Z</time><hdop>11.625</hdop><vdop>6.75</vdop><extensions><gom:speed>0.0</gom:speed></extensions></trkpt>
   <trkpt lat="59.0704550475" lon="30.0329349492"><ele>93.963</ele><time>2026-04-20T19:44:44.075Z</time><hdop>11.625</hdop><vdop>6.75</vdop><extensions><gom:speed>0.0</gom:speed></extensions></trkpt>
   <trkpt lat="59.0704549218" lon="30.032935033"><ele>93.962</ele><time>2026-04-20T19:44:45.075Z</time><hdop>11.5</hdop><vdop>6.5</vdop><extensions><gom:speed>0.0</gom:speed></extensions></trkpt>
   <trkpt lat="59.070454838" lon="30.0329352007"><ele>93.961</ele><time>2026-04-20T19:44:46.076Z</time><hdop>11.375</hdop><vdop>6.0</vdop><extensions><gom:speed>0.0</gom:speed></extensions></trkpt>
   <trkpt lat="59.070454838" lon="30.0329352845"><ele>93.961</ele><time>2026-04-20T19:44:47.075Z</time><hdop>11.25</hdop><vdop>5.875</vdop><extensions><gom:speed>0.0</gom:speed></extensions></trkpt>
   <trkpt lat="59.0704547541" lon="30.0329353683"><ele>93.957</ele><time>2026-04-20T19:44:48.075Z</time><hdop>11.125</hdop><vdop>5.875</vdop><extensions><gom:speed>0.0</gom:speed></extensions></trkpt>
   <trkpt lat="59.0704546284" lon="30.0329354521"><ele>93.956</ele><time>2026-04-20T19:44:49.075Z</time><hdop>11.0</hdop><vdop>6.375</vdop><extensions><gom:speed>0.0</gom:speed></extensions></trkpt>
   <trkpt lat="59.0704544189" lon="30.0329357036"><ele>93.961</ele><time>2026-04-20T19:44:50.075Z</time><hdop>10.875</hdop><vdop>6.625</vdop><extensions><gom:speed>0.0</gom:speed></extensions></trkpt>
   <trkpt lat="59.0704542512" lon="30.0329358712"><ele>93.962</ele><time>2026-04-20T19:44:51.075Z</time><hdop>10.75</hdop><vdop>7.0</vdop><extensions><gom:speed>0.0</gom:speed></extensions></trkpt>
   <trkpt lat="59.0704541255" lon="30.0329359551"><ele>93.961</ele><time>2026-04-20T19:44:52.075Z</time><hdop>10.875</hdop><vdop>7.125</vdop><extensions><gom:speed>0.0</gom:speed></extensions></trkpt>
   <trkpt lat="59.0704540417" lon="30.0329360389"><ele>93.962</ele><time>2026-04-20T19:44:53.076Z</time><hdop>10.875</hdop><vdop>7.25</vdop><extensions><gom:speed>0.0</gom:speed></extensions></trkpt>
   <trkpt lat="59.0704539579" lon="30.0329362065"><ele>93.96</ele><time>2026-04-20T19:44:54.075Z</time><hdop>11.0</hdop><vdop>7.25</vdop><extensions><gom:speed>0.0</gom:speed></extensions></trkpt>
   <trkpt lat="59.0704538321" lon="30.0329362903"><ele>93.957</ele><time>2026-04-20T19:44:55.075Z</time><hdop>11.0</hdop><vdop>7.25</vdop><extensions><gom:speed>0.0</gom:speed></extensions></trkpt>
   <trkpt lat="59.0704537483" lon="30.0329363741"><ele>93.953</ele><time>2026-04-20T19:44:56.075Z</time><hdop>11.0</hdop><vdop>7.125</vdop><extensions><gom:speed>0.0</gom:speed></extensions></trkpt>
   <trkpt lat="59.0704536226" lon="30.032936458"><ele>93.951</ele><time>2026-04-20T19:44:57.075Z</time><hdop>11.0</hdop><vdop>6.625</vdop><extensions><gom:speed>0.0</gom:speed></extensions></trkpt>
   <trkpt lat="59.0704535388" lon="30.032936458"><ele>93.95</ele><time>2026-04-20T19:44:58.076Z</time><hdop>11.0</hdop><vdop>6.5</vdop><extensions><gom:speed>0.0</gom:speed></extensions></trkpt>
   <trkpt lat="59.0704534549" lon="30.0329367094"><ele>93.948</ele><time>2026-04-20T19:44:59.075Z</time><hdop>10.875</hdop><vdop>6.625</vdop><extensions><gom:speed>0.0</gom:speed></extensions></trkpt>
   <trkpt lat="59.0704533292" lon="30.0329367932"><ele>93.945</ele><time>2026-04-20T19:45:00.075Z</time><hdop>10.875</hdop><vdop>6.75</vdop><extensions><gom:speed>0.0</gom:speed></extensions></trkpt>
   <trkpt lat="59.0704531197" lon="30.0329369609"><ele>93.947</ele><time>2026-04-20T19:45:01.075Z</time><hdop>10.75</hdop><vdop>6.875</vdop><extensions><gom:speed>0.0</gom:speed></extensions></trkpt>
   <trkpt lat="59.070452952" lon="30.0329372123"><ele>93.95</ele><time>2026-04-20T19:45:02.075Z</time><hdop>10.75</hdop><vdop>7.0</vdop><extensions><gom:speed>0.0</gom:speed></extensions></trkpt>
   <trkpt lat="59.0704528263" lon="30.0329372962"><ele>93.953</ele><time>2026-04-20T19:45:03.075Z</time><hdop>10.75</hdop><vdop>7.125</vdop><extensions><gom:speed>0.0</gom:speed></extensions></trkpt>
   <trkpt lat="59.0704526167" lon="30.0329374638"><ele>93.957</ele><time>2026-04-20T19:45:04.075Z</time><hdop>10.75</hdop><vdop>7.25</vdop><extensions><gom:speed>0.0</gom:speed></extensions></trkpt>
   <trkpt lat="59.0704524491" lon="30.0329377153"><ele>93.962</ele><time>2026-04-20T19:45:05.075Z</time><hdop>10.75</hdop><vdop>7.375</vdop><extensions><gom:speed>0.0</gom:speed></extensions></trkpt>
   <trkpt lat="59.0704523234" lon="30.0329378829"><ele>93.966</ele><time>2026-04-20T19:45:06.076Z</time><hdop>10.75</hdop><vdop>7.5</vdop><extensions><gom:speed>0.0</gom:speed></extensions></trkpt>
   <trkpt lat="59.0704521557" lon="30.0329380505"><ele>93.974</ele><time>2026-04-20T19:45:07.075Z</time><hdop>10.875</hdop><vdop>7.5</vdop><extensions><gom:speed>0.0</gom:speed></extensions></trkpt>
   <trkpt lat="59.0704519462" lon="30.032938302"><ele>93.987</ele><time>2026-04-20T19:45:08.075Z</time><hdop>10.875</hdop><vdop>7.25</vdop><extensions><gom:speed>0.0</gom:speed></extensions></trkpt>
   <trkpt lat="59.0704517366" lon="30.0329385534"><ele>94.002</ele><time>2026-04-20T19:45:09.075Z</time><hdop>10.875</hdop><vdop>7.5</vdop><extensions><gom:speed>0.0</gom:speed></extensions></trkpt>
   <trkpt lat="59.0704516528" lon="30.0329388049"><ele>94.013</ele><time>2026-04-20T19:45:10.075Z</time><hdop>10.875</hdop><vdop>7.5</vdop><extensions><gom:speed>0.0</gom:speed></extensions></trkpt>
   <trkpt lat="59.0704515271" lon="30.0329388887"><ele>94.023</ele><time>2026-04-20T19:45:11.075Z</time><hdop>10.875</hdop><vdop>7.5</vdop><extensions><gom:speed>0.0</gom:speed></extensions></trkpt>
   <trkpt lat="59.0704514433" lon="30.0329390564"><ele>94.027</ele><time>2026-04-20T19:45:12.075Z</time><hdop>10.875</hdop><vdop>7.25</vdop><extensions><gom:speed>0.0</gom:speed></extensions></trkpt>
   <trkpt lat="59.0704513176" lon="30.0329391402"><ele>94.029</ele><time>2026-04-20T19:45:13.075Z</time><hdop>10.875</hdop><vdop>7.125</vdop><extensions><gom:speed>0.0</gom:speed></extensions></trkpt>
   <trkpt lat="59.0704512337" lon="30.0329393916"><ele>94.032</ele><time>2026-04-20T19:45:14.075Z</time><hdop>10.875</hdop><vdop>6.875</vdop><extensions><gom:speed>0.0</gom:speed></extensions></trkpt>
   <trkpt lat="59.0704511499" lon="30.0329395593"><ele>94.033</ele><time>2026-04-20T19:45:15.075Z</time><hdop>10.875</hdop><vdop>6.75</vdop><extensions><gom:speed>0.0</gom:speed></extensions></trkpt>
   <trkpt lat="59.0704510242" lon="30.0329398107"><ele>94.036</ele><time>2026-04-20T19:45:16.075Z</time><hdop>10.75</hdop><vdop>6.5</vdop><extensions><gom:speed>0.0</gom:speed></extensions></trkpt>
   <trkpt lat="59.0704508565" lon="30.0329399784"><ele>94.036</ele><time>2026-04-20T19:45:17.076Z</time><hdop>10.75</hdop><vdop>6.25</vdop><extensions><gom:speed>0.0</gom:speed></extensions></trkpt>
   <trkpt lat="59.0704507308" lon="30.032940146"><ele>94.037</ele><time>2026-04-20T19:45:18.076Z</time><hdop>10.625</hdop><vdop>6.25</vdop><extensions><gom:speed>0.0</gom:speed></extensions></trkpt>
   <trkpt lat="59.070450647" lon="30.0329403975"><ele>94.035</ele><time>2026-04-20T19:45:19.075Z</time><hdop>10.625</hdop><vdop>6.375</vdop><extensions><gom:speed>0.0</gom:speed></extensions></trkpt>
   <trkpt lat="59.0704505213" lon="30.0329405651"><ele>94.036</ele><time>2026-04-20T19:45:20.075Z</time><hdop>10.625</hdop><vdop>6.25</vdop><extensions><gom:speed>0.0</gom:speed></extensions></trkpt>
   <trkpt lat="59.0704504375" lon="30.0329406489"><ele>94.037</ele><time>2026-04-20T19:45:21.075Z</time><hdop>10.5</hdop><vdop>6.375</vdop><extensions><gom:speed>0.0</gom:speed></extensions></trkpt>
   <trkpt lat="59.0704503536" lon="30.0329409004"><ele>94.038</ele><time>2026-04-20T19:45:22.075Z</time><hdop>10.625</hdop><vdop>6.375</vdop><extensions><gom:speed>0.0</gom:speed></extensions></trkpt>
   <trkpt lat="59.0704502279" lon="30.032941068"><ele>94.038</ele><time>2026-04-20T19:45:23.075Z</time><hdop>10.625</hdop><vdop>6.625</vdop><extensions><gom:speed>0.0</gom:speed></extensions></trkpt>
   <trkpt lat="59.0704502279" lon="30.0329412357"><ele>94.038</ele><time>2026-04-20T19:45:24.076Z</time><hdop>10.625</hdop><vdop>6.625</vdop><extensions><gom:speed>0.0</gom:speed></extensions></trkpt>
   <trkpt lat="59.0704501441" lon="30.0329414033"><ele>94.038</ele><time>2026-04-20T19:45:25.075Z</time><hdop>10.75</hdop><vdop>6.875</vdop><extensions><gom:speed>0.0</gom:speed></extensions></trkpt>
   <trkpt lat="59.0704500184" lon="30.0329415709"><ele>94.038</ele><time>2026-04-20T19:45:26.076Z</time><hdop>10.875</hdop><vdop>7.0</vdop><extensions><gom:speed>0.0</gom:speed></extensions></trkpt>
   <trkpt lat="59.0704499345" lon="30.0329419062"><ele>94.041</ele><time>2026-04-20T19:45:27.075Z</time><hdop>10.875</hdop><vdop>7.125</vdop><extensions><gom:speed>0.0</gom:speed></extensions></trkpt>
   <trkpt lat="59.0704498507" lon="30.0329420738"><ele>94.044</ele><time>2026-04-20T19:45:28.075Z</time><hdop>11.0</hdop><vdop>7.125</vdop><extensions><gom:speed>0.0</gom:speed></extensions></trkpt>
   <trkpt lat="59.070449725" lon="30.0329424091"><ele>94.048</ele><time>2026-04-20T19:45:29.075Z</time><hdop>11.0</hdop><vdop>7.25</vdop><extensions><gom:speed>0.0</gom:speed></extensions></trkpt>
   <trkpt lat="59.0704496412" lon="30.0329425768"><ele>94.051</ele><time>2026-04-20T19:45:30.075Z</time><hdop>11.125</hdop><vdop>7.375</vdop><extensions><gom:speed>0.0</gom:speed></extensions></trkpt>
   <trkpt lat="59.0704495574" lon="30.0329427444"><ele>94.051</ele><time>2026-04-20T19:45:31.075Z</time><hdop>11.125</hdop><vdop>7.625</vdop><extensions><gom:speed>0.0</gom:speed></extensions></trkpt>
   <trkpt lat="59.0704494316" lon="30.0329430797"><ele>94.054</ele><time>2026-04-20T19:45:32.076Z</time><hdop>11.25</hdop><vdop>7.75</vdop><extensions><gom:speed>0.0</gom:speed></extensions></trkpt>
   <trkpt lat="59.0704493478" lon="30.0329434149"><ele>94.055</ele><time>2026-04-20T19:45:33.075Z</time><hdop>11.25</hdop><vdop>7.875</vdop><extensions><gom:speed>0.0</gom:speed></extensions></trkpt>
   <trkpt lat="59.0704491383" lon="30.0329435826"><ele>94.053</ele><time>2026-04-20T19:45:34.075Z</time><hdop>11.375</hdop><vdop>8.125</vdop><extensions><gom:speed>0.0</gom:speed></extensions></trkpt>
   <trkpt lat="59.0704428518" lon="30.0329978973"><ele>91.851</ele><time>2026-04-20T19:45:35.075Z</time><hdop>11.375</hdop><vdop>7.5</vdop><extensions><gom:speed>0.0</gom:speed></extensions></trkpt>
   <trkpt lat="59.0704412174" lon="30.0330441654"><ele>89.141</ele><time>2026-04-20T19:45:36.075Z</time><hdop>11.375</hdop><vdop>6.875</vdop><extensions><gom:speed>0.308</gom:speed></extensions></trkpt>
   <trkpt lat="59.070438619" lon="30.0330756814"><ele>86.307</ele><time>2026-04-20T19:45:37.076Z</time><hdop>11.25</hdop><vdop>6.25</vdop><extensions><gom:speed>0.348</gom:speed></extensions></trkpt>
   <trkpt lat="59.0704405468" lon="30.0331023358"><ele>84.902</ele><time>2026-04-20T19:45:38.075Z</time><hdop>11.125</hdop><vdop>5.5</vdop><extensions><gom:speed>0.0</gom:speed></extensions></trkpt>
   <trkpt lat="59.0704461208" lon="30.0331245479"><ele>82.803</ele><time>2026-04-20T19:45:39.075Z</time><hdop>11.0</hdop><vdop>5.125</vdop><extensions><gom:speed>0.0</gom:speed></extensions></trkpt>
   <trkpt lat="59.0704532454" lon="30.0331446644"><ele>81.151</ele><time>2026-04-20T19:45:40.075Z</time><hdop>10.75</hdop><vdop>5.125</vdop><extensions><gom:speed>0.0</gom:speed></extensions></trkpt>
   <trkpt lat="59.0704611244" lon="30.0331644457"><ele>79.737</ele><time>2026-04-20T19:45:41.075Z</time><hdop>10.625</hdop><vdop>5.0</vdop><extensions><gom:speed>0.0</gom:speed></extensions></trkpt>
   <trkpt lat="59.070470554" lon="30.033185149"><ele>78.423</ele><time>2026-04-20T19:45:42.076Z</time><hdop>10.625</hdop><vdop>5.125</vdop><extensions><gom:speed>0.158</gom:speed></extensions></trkpt>
   <trkpt lat="59.0704936462" lon="30.0332259689"><ele>77.292</ele><time>2026-04-20T19:45:43.075Z</time><hdop>10.75</hdop><vdop>9.75</vdop><extensions><gom:speed>0.0</gom:speed></extensions></trkpt>
   <trkpt lat="59.0705083564" lon="30.0332493544"><ele>76.332</ele><time>2026-04-20T19:45:44.075Z</time><hdop>11.0</hdop><vdop>9.625</vdop><extensions><gom:speed>0.0</gom:speed></extensions></trkpt>
   <trkpt lat="59.0705160258" lon="30.0332646933"><ele>75.758</ele><time>2026-04-20T19:45:45.075Z</time><hdop>11.25</hdop><vdop>9.625</vdop><extensions><gom:speed>0.0</gom:speed></extensions></trkpt>
   <trkpt lat="59.0705205521" lon="30.0332753383"><ele>75.432</ele><time>2026-04-20T19:45:46.076Z</time><hdop>11.375</hdop><vdop>9.25</vdop><extensions><gom:speed>0.0</gom:speed></extensions></trkpt>
   <trkpt lat="59.0705232343" lon="30.0332846422"><ele>75.074</ele><time>2026-04-20T19:45:47.075Z</time><hdop>11.625</hdop><vdop>8.75</vdop><extensions><gom:speed>0.0</gom:speed></extensions></trkpt>
   <trkpt lat="59.070524743" lon="30.0332915154"><ele>74.721</ele><time>2026-04-20T19:45:48.075Z</time><hdop>11.75</hdop><vdop>8.625</vdop><extensions><gom:speed>0.0</gom:speed></extensions></trkpt>
   <trkpt lat="59.0705254555" lon="30.0332963769"><ele>74.265</ele><time>2026-04-20T19:45:49.075Z</time><hdop>11.625</hdop><vdop>8.5</vdop><extensions><gom:speed>0.0</gom:speed></extensions></trkpt>
   <trkpt lat="59.0705252459" lon="30.0333004002"><ele>74.033</ele><time>2026-04-20T19:45:50.075Z</time><hdop>11.5</hdop><vdop>8.0</vdop><extensions><gom:speed>0.0</gom:speed></extensions></trkpt>
   <trkpt lat="59.0705243239" lon="30.0333012384"><ele>73.901</ele><time>2026-04-20T19:45:51.076Z</time><hdop>11.375</hdop><vdop>7.5</vdop><extensions><gom:speed>0.0</gom:speed></extensions></trkpt>
   <trkpt lat="59.0705223542" lon="30.0333030824"><ele>73.786</ele><time>2026-04-20T19:45:52.075Z</time><hdop>11.375</hdop><vdop>7.125</vdop><extensions><gom:speed>0.0</gom:speed></extensions></trkpt>
   <trkpt lat="59.0705182471" lon="30.0333042559"><ele>73.859</ele><time>2026-04-20T19:45:53.075Z</time><hdop>11.25</hdop><vdop>6.875</vdop><extensions><gom:speed>0.0</gom:speed></extensions></trkpt>
   <trkpt lat="59.07051502" lon="30.0333058484"><ele>73.966</ele><time>2026-04-20T19:45:54.075Z</time><hdop>11.125</hdop><vdop>6.5</vdop><extensions><gom:speed>0.0</gom:speed></extensions></trkpt>
   <trkpt lat="59.0705120444" lon="30.0333071057"><ele>74.151</ele><time>2026-04-20T19:45:55.075Z</time><hdop>11.0</hdop><vdop>6.0</vdop><extensions><gom:speed>0.0</gom:speed></extensions></trkpt>
   <trkpt lat="59.0705091527" lon="30.0333082792"><ele>74.362</ele><time>2026-04-20T19:45:56.076Z</time><hdop>10.875</hdop><vdop>5.75</vdop><extensions><gom:speed>0.0</gom:speed></extensions></trkpt>
   <trkpt lat="59.0705073506" lon="30.0333086145"><ele>74.489</ele><time>2026-04-20T19:45:57.075Z</time><hdop>10.75</hdop><vdop>5.75</vdop><extensions><gom:speed>0.0</gom:speed></extensions></trkpt>
   <trkpt lat="59.0705063447" lon="30.0333086145"><ele>74.582</ele><time>2026-04-20T19:45:58.075Z</time><hdop>10.625</hdop><vdop>5.75</vdop><extensions><gom:speed>0.0</gom:speed></extensions></trkpt>
   <trkpt lat="59.0705052551" lon="30.0333086983"><ele>74.688</ele><time>2026-04-20T19:45:59.075Z</time><hdop>10.5</hdop><vdop>5.625</vdop><extensions><gom:speed>0.0</gom:speed></extensions></trkpt>
   <trkpt lat="59.0705038302" lon="30.0333089497"><ele>74.826</ele><time>2026-04-20T19:46:00.075Z</time><hdop>10.5</hdop><vdop>5.5</vdop><extensions><gom:speed>0.0</gom:speed></extensions></trkpt>
   <trkpt lat="59.0705022376" lon="30.0333093688"><ele>75.004</ele><time>2026-04-20T19:46:01.075Z</time><hdop>10.375</hdop><vdop>5.25</vdop><extensions><gom:speed>0.0</gom:speed></extensions></trkpt>
   <trkpt lat="59.0705009384" lon="30.0333095365"><ele>75.156</ele><time>2026-04-20T19:46:02.075Z</time><hdop>10.375</hdop><vdop>5.25</vdop><extensions><gom:speed>0.0</gom:speed></extensions></trkpt>
   <trkpt lat="59.0704998488" lon="30.0333094527"><ele>75.291</ele><time>2026-04-20T19:46:03.075Z</time><hdop>10.375</hdop><vdop>5.25</vdop><extensions><gom:speed>0.0</gom:speed></extensions></trkpt>
   <trkpt lat="59.0704988429" lon="30.0333089497"><ele>75.407</ele><time>2026-04-20T19:46:04.075Z</time><hdop>10.25</hdop><vdop>5.25</vdop><extensions><gom:speed>0.0</gom:speed></extensions></trkpt>
   <trkpt lat="59.0704982562" lon="30.0333087821"><ele>75.492</ele><time>2026-04-20T19:46:05.075Z</time><hdop>10.25</hdop><vdop>5.25</vdop><extensions><gom:speed>0.0</gom:speed></extensions></trkpt>
   <trkpt lat="59.0704977533" lon="30.0333087821"><ele>75.556</ele><time>2026-04-20T19:46:06.075Z</time><hdop>10.25</hdop><vdop>5.25</vdop><extensions><gom:speed>0.0</gom:speed></extensions></trkpt>
   <trkpt lat="59.0704973342" lon="30.0333087821"><ele>75.605</ele><time>2026-04-20T19:46:07.075Z</time><hdop>10.375</hdop><vdop>5.5</vdop><extensions><gom:speed>0.0</gom:speed></extensions></trkpt>
   <trkpt lat="59.0704970408" lon="30.0333086983"><ele>75.649</ele><time>2026-04-20T19:46:08.075Z</time><hdop>10.5</hdop><vdop>5.5</vdop><extensions><gom:speed>0.0</gom:speed></extensions></trkpt>
   <trkpt lat="59.0704967475" lon="30.0333086983"><ele>75.695</ele><time>2026-04-20T19:46:09.075Z</time><hdop>10.625</hdop><vdop>5.625</vdop><extensions><gom:speed>0.0</gom:speed></extensions></trkpt>
   <trkpt lat="59.0704963284" lon="30.0333087821"><ele>75.745</ele><time>2026-04-20T19:46:10.075Z</time><hdop>10.75</hdop><vdop>5.75</vdop><extensions><gom:speed>0.0</gom:speed></extensions></trkpt>
   <trkpt lat="59.0704961188" lon="30.0333087821"><ele>75.784</ele><time>2026-04-20T19:46:11.075Z</time><hdop>10.75</hdop><vdop>5.875</vdop><extensions><gom:speed>0.0</gom:speed></extensions></trkpt>
   <trkpt lat="59.0704957416" lon="30.0333088659"><ele>75.825</ele><time>2026-04-20T19:46:12.075Z</time><hdop>10.875</hdop><vdop>6.0</vdop><extensions><gom:speed>0.0</gom:speed></extensions></trkpt>
   <trkpt lat="59.0704953225" lon="30.0333087821"><ele>75.878</ele><time>2026-04-20T19:46:13.075Z</time><hdop>10.875</hdop><vdop>6.0</vdop><extensions><gom:speed>0.0</gom:speed></extensions></trkpt>
   <trkpt lat="59.0704949454" lon="30.0333087821"><ele>75.922</ele><time>2026-04-20T19:46:14.076Z</time><hdop>10.875</hdop><vdop>6.0</vdop><extensions><gom:speed>0.0</gom:speed></extensions></trkpt>
   <trkpt lat="59.0704945263" lon="30.0333087821"><ele>75.965</ele><time>2026-04-20T19:46:15.075Z</time><hdop>10.875</hdop><vdop>6.0</vdop><extensions><gom:speed>0.0</gom:speed></extensions></trkpt>
   <trkpt lat="59.0704943167" lon="30.0333087821"><ele>76.0</ele><time>2026-04-20T19:46:16.075Z</time><hdop>11.0</hdop><vdop>6.125</vdop><extensions><gom:speed>0.0</gom:speed></extensions></trkpt>
   <trkpt lat="59.0704940234" lon="30.0333087821"><ele>76.033</ele><time>2026-04-20T19:46:17.075Z</time><hdop>11.25</hdop><vdop>6.25</vdop><extensions><gom:speed>0.0</gom:speed></extensions></trkpt>
   <trkpt lat="59.0704938557" lon="30.0333088659"><ele>76.066</ele><time>2026-04-20T19:46:18.075Z</time><hdop>11.375</hdop><vdop>6.25</vdop><extensions><gom:speed>0.0</gom:speed></extensions></trkpt>
   <trkpt lat="59.0704933528" lon="30.0333088659"><ele>76.122</ele><time>2026-04-20T19:46:19.075Z</time><hdop>11.625</hdop><vdop>6.25</vdop><extensions><gom:speed>0.0</gom:speed></extensions></trkpt>
   <trkpt lat="59.0704929337" lon="30.0333088659"><ele>76.168</ele><time>2026-04-20T19:46:20.075Z</time><hdop>11.875</hdop><vdop>6.0</vdop><extensions><gom:speed>0.0</gom:speed></extensions></trkpt>
   <trkpt lat="59.070492347" lon="30.0333088659"><ele>76.237</ele><time>2026-04-20T19:46:21.075Z</time><hdop>12.125</hdop><vdop>6.25</vdop><extensions><gom:speed>0.0</gom:speed></extensions></trkpt>
   <trkpt lat="59.0704919279" lon="30.0333089497"><ele>76.289</ele><time>2026-04-20T19:46:22.076Z</time><hdop>12.375</hdop><vdop>6.5</vdop><extensions><gom:speed>0.0</gom:speed></extensions></trkpt>
   <trkpt lat="59.0704915507" lon="30.0333089497"><ele>76.335</ele><time>2026-04-20T19:46:23.075Z</time><hdop>12.5</hdop><vdop>6.625</vdop><extensions><gom:speed>0.0</gom:speed></extensions></trkpt>
   <trkpt lat="59.0704912573" lon="30.0333089497"><ele>76.372</ele><time>2026-04-20T19:46:24.075Z</time><hdop>12.625</hdop><vdop>6.75</vdop><extensions><gom:speed>0.0</gom:speed></extensions></trkpt>
   <trkpt lat="59.070490922" lon="30.0333088659"><ele>76.412</ele><time>2026-04-20T19:46:25.075Z</time><hdop>12.625</hdop><vdop>7.125</vdop><extensions><gom:speed>0.0</gom:speed></extensions></trkpt>
   <trkpt lat="59.0704907544" lon="30.0333088659"><ele>76.438</ele><time>2026-04-20T19:46:26.075Z</time><hdop>12.75</hdop><vdop>7.25</vdop><extensions><gom:speed>0.0</gom:speed></extensions></trkpt>
   <trkpt lat="59.0704906287" lon="30.0333089497"><ele>76.46</ele><time>2026-04-20T19:46:27.075Z</time><hdop>12.875</hdop><vdop>7.5</vdop><extensions><gom:speed>0.0</gom:speed></extensions></trkpt>
   <trkpt lat="59.070489539" lon="30.0333088659"><ele>76.565</ele><time>2026-04-20T19:46:28.076Z</time><hdop>13.0</hdop><vdop>7.5</vdop><extensions><gom:speed>0.0</gom:speed></extensions></trkpt>
   <trkpt lat="59.0704888266" lon="30.0333088659"><ele>76.648</ele><time>2026-04-20T19:46:29.075Z</time><hdop>13.25</hdop><vdop>7.625</vdop><extensions><gom:speed>0.0</gom:speed></extensions></trkpt>
   <trkpt lat="59.0704878207" lon="30.0333088659"><ele>76.755</ele><time>2026-04-20T19:46:30.075Z</time><hdop>13.375</hdop><vdop>7.25</vdop><extensions><gom:speed>0.0</gom:speed></extensions></trkpt>
   <trkpt lat="59.0704868568" lon="30.0333088659"><ele>76.871</ele><time>2026-04-20T19:46:31.075Z</time><hdop>13.5</hdop><vdop>7.25</vdop><extensions><gom:speed>0.0</gom:speed></extensions></trkpt>
   <trkpt lat="59.0704862282" lon="30.0333089497"><ele>76.949</ele><time>2026-04-20T19:46:32.075Z</time><hdop>13.625</hdop><vdop>7.125</vdop><extensions><gom:speed>0.0</gom:speed></extensions></trkpt>
   <trkpt lat="59.0704856414" lon="30.0333089497"><ele>77.016</ele><time>2026-04-20T19:46:33.075Z</time><hdop>13.5</hdop><vdop>7.0</vdop><extensions><gom:speed>0.0</gom:speed></extensions></trkpt>
   <trkpt lat="59.0704853481" lon="30.0333090336"><ele>77.062</ele><time>2026-04-20T19:46:34.076Z</time><hdop>13.5</hdop><vdop>7.125</vdop><extensions><gom:speed>0.0</gom:speed></extensions></trkpt>
   <trkpt lat="59.0704851385" lon="30.0333092012"><ele>77.095</ele><time>2026-04-20T19:46:35.075Z</time><hdop>13.375</hdop><vdop>7.5</vdop><extensions><gom:speed>0.0</gom:speed></extensions></trkpt>
   <trkpt lat="59.0705070572" lon="30.0332988915"><ele>77.124</ele><time>2026-04-20T19:46:35.966Z</time><hdop>12.375</hdop><vdop>8.0</vdop><extensions><gom:speed>0.309</gom:speed></extensions></trkpt>
   <trkpt lat="59.070508524" lon="30.0333031662"><ele>77.205</ele><time>2026-04-20T19:46:37.033Z</time><hdop>10.875</hdop><vdop>8.125</vdop><extensions><gom:speed>0.311</gom:speed></extensions></trkpt>
   <trkpt lat="59.0705097394" lon="30.0333076925"><ele>77.266</ele><time>2026-04-20T19:46:37.981Z</time><hdop>9.75</hdop><vdop>8.375</vdop><extensions><gom:speed>0.352</gom:speed></extensions></trkpt>
   <trkpt lat="59.0705083564" lon="30.0333128054"><ele>77.312</ele><time>2026-04-20T19:46:39.075Z</time><hdop>8.875</hdop><vdop>8.5</vdop><extensions><gom:speed>0.365</gom:speed></extensions></trkpt>
   <trkpt lat="59.070508524" lon="30.0333224446"><ele>77.349</ele><time>2026-04-20T19:46:39.994Z</time><hdop>8.0</hdop><vdop>8.875</vdop><extensions><gom:speed>0.452</gom:speed></extensions></trkpt>
   <trkpt lat="59.0705089431" lon="30.0333271385"><ele>77.371</ele><time>2026-04-20T19:46:40.621Z</time><hdop>7.5</hdop><vdop>8.875</vdop><extensions><gom:speed>0.465</gom:speed></extensions></trkpt>
   <trkpt lat="59.0705088174" lon="30.0333322514"><ele>77.403</ele><time>2026-04-20T19:46:41.261Z</time><hdop>7.625</hdop><vdop>8.75</vdop><extensions><gom:speed>0.477</gom:speed></extensions></trkpt>
   <trkpt lat="59.0705078535" lon="30.0333380349"><ele>77.428</ele><time>2026-04-20T19:46:42.008Z</time><hdop>7.75</hdop><vdop>8.75</vdop><extensions><gom:speed>0.45</gom:speed></extensions></trkpt>
   <trkpt lat="59.0705060514" lon="30.0333416392"><ele>77.446</ele><time>2026-04-20T19:46:42.955Z</time><hdop>7.875</hdop><vdop>9.0</vdop><extensions><gom:speed>0.307</gom:speed></extensions></trkpt>
   <trkpt lat="59.070505758" lon="30.0333392922"><ele>77.461</ele><time>2026-04-20T19:46:44.022Z</time><hdop>8.0</hdop><vdop>8.875</vdop><extensions><gom:speed>0.153</gom:speed></extensions></trkpt>
   <trkpt lat="59.070506219" lon="30.0333368615"><ele>77.476</ele><time>2026-04-20T19:46:44.970Z</time><hdop>8.125</hdop><vdop>8.875</vdop><extensions><gom:speed>0.103</gom:speed></extensions></trkpt>
   <trkpt lat="59.0705074344" lon="30.0333340955"><ele>77.491</ele><time>2026-04-20T19:46:46.036Z</time><hdop>8.25</hdop><vdop>8.75</vdop><extensions><gom:speed>0.087</gom:speed></extensions></trkpt>
   <trkpt lat="59.0705083564" lon="30.0333331734"><ele>77.5</ele><time>2026-04-20T19:46:47.037Z</time><hdop>8.375</hdop><vdop>8.75</vdop><extensions><gom:speed>0.089</gom:speed></extensions></trkpt>
   <trkpt lat="59.0705087336" lon="30.0333428126"><ele>74.232</ele><time>2026-04-20T19:46:48.075Z</time><hdop>8.25</hdop><vdop>7.0</vdop><extensions><gom:speed>0.125</gom:speed></extensions></trkpt>
   <trkpt lat="59.0705086498" lon="30.0333597441"><ele>71.823</ele><time>2026-04-20T19:46:49.075Z</time><hdop>7.875</hdop><vdop>5.625</vdop><extensions><gom:speed>0.126</gom:speed></extensions></trkpt>
   <trkpt lat="59.0705082307" lon="30.0333661143"><ele>70.385</ele><time>2026-04-20T19:46:49.683Z</time><hdop>7.625</hdop><vdop>5.625</vdop><extensions><gom:speed>0.137</gom:speed></extensions></trkpt>
   <trkpt lat="59.070506219" lon="30.0333885778"><ele>70.743</ele><time>2026-04-20T19:46:50.482Z</time><hdop>7.0</hdop><vdop>4.75</vdop><extensions><gom:speed>0.266</gom:speed></extensions></trkpt>
   <trkpt lat="59.0705043331" lon="30.0334071857"><ele>70.656</ele><time>2026-04-20T19:46:51.075Z</time><hdop>6.875</hdop><vdop>4.25</vdop><extensions><gom:speed>0.303</gom:speed></extensions></trkpt>
   <trkpt lat="59.0705018185" lon="30.033435265"><ele>70.325</ele><time>2026-04-20T19:46:52.075Z</time><hdop>6.0</hdop><vdop>4.375</vdop><extensions><gom:speed>0.397</gom:speed></extensions></trkpt>
   <trkpt lat="59.0704999326" lon="30.0334548787"><ele>70.128</ele><time>2026-04-20T19:46:52.941Z</time><hdop>5.875</hdop><vdop>4.375</vdop><extensions><gom:speed>0.426</gom:speed></extensions></trkpt>
   <trkpt lat="59.0704995554" lon="30.0334766716"><ele>69.275</ele><time>2026-04-20T19:46:53.600Z</time><hdop>5.625</hdop><vdop>4.375</vdop><extensions><gom:speed>0.512</gom:speed></extensions></trkpt>
   <trkpt lat="59.0704993459" lon="30.0334958662"><ele>68.243</ele><time>2026-04-20T19:46:54.076Z</time><hdop>5.625</hdop><vdop>4.125</vdop><extensions><gom:speed>0.558</gom:speed></extensions></trkpt>
   <trkpt lat="59.0704982562" lon="30.0335109536"><ele>67.626</ele><time>2026-04-20T19:46:54.756Z</time><hdop>5.625</hdop><vdop>4.125</vdop><extensions><gom:speed>0.587</gom:speed></extensions></trkpt>
   <trkpt lat="59.0704976276" lon="30.0335434754"><ele>66.724</ele><time>2026-04-20T19:46:55.694Z</time><hdop>5.5</hdop><vdop>3.875</vdop><extensions><gom:speed>0.638</gom:speed></extensions></trkpt>
   <trkpt lat="59.070497418" lon="30.0335687049"><ele>65.918</ele><time>2026-04-20T19:46:56.661Z</time><hdop>5.375</hdop><vdop>3.875</vdop><extensions><gom:speed>0.538</gom:speed></extensions></trkpt>
   <trkpt lat="59.070496035" lon="30.0335951079"><ele>65.097</ele><time>2026-04-20T19:46:58.076Z</time><hdop>5.125</hdop><vdop>3.5</vdop><extensions><gom:speed>0.346</gom:speed></extensions></trkpt>
   <trkpt lat="59.0704965379" lon="30.0335992989"><ele>64.607</ele><time>2026-04-20T19:46:59.021Z</time><hdop>4.875</hdop><vdop>3.5</vdop><extensions><gom:speed>0.241</gom:speed></extensions></trkpt>
   <trkpt lat="59.0704952387" lon="30.0336086028"><ele>64.952</ele><time>2026-04-20T19:47:00.075Z</time><hdop>4.625</hdop><vdop>3.25</vdop><extensions><gom:speed>0.223</gom:speed></extensions></trkpt>
   <trkpt lat="59.0704947358" lon="30.0336117879"><ele>65.159</ele><time>2026-04-20T19:47:01.014Z</time><hdop>4.375</hdop><vdop>3.25</vdop><extensions><gom:speed>0.167</gom:speed></extensions></trkpt>
   <trkpt lat="59.0704929337" lon="30.0336208404"><ele>65.81</ele><time>2026-04-20T19:47:01.963Z</time><hdop>4.25</hdop><vdop>3.25</vdop><extensions><gom:speed>0.17</gom:speed></extensions></trkpt>
   <trkpt lat="59.0704889523" lon="30.0336298928"><ele>66.284</ele><time>2026-04-20T19:47:02.684Z</time><hdop>4.125</hdop><vdop>3.125</vdop><extensions><gom:speed>0.188</gom:speed></extensions></trkpt>
   <trkpt lat="59.0704772176" lon="30.0336486683"><ele>66.278</ele><time>2026-04-20T19:47:04.075Z</time><hdop>4.125</hdop><vdop>3.125</vdop><extensions><gom:speed>0.324</gom:speed></extensions></trkpt>
   <trkpt lat="59.0704768404" lon="30.033649255"><ele>66.275</ele><time>2026-04-20T19:47:04.635Z</time><hdop>4.125</hdop><vdop>3.125</vdop><extensions><gom:speed>0.279</gom:speed></extensions></trkpt>
   <trkpt lat="59.0704707217" lon="30.033658978"><ele>65.856</ele><time>2026-04-20T19:47:05.575Z</time><hdop>4.25</hdop><vdop>3.125</vdop><extensions><gom:speed>0.226</gom:speed></extensions></trkpt>
   <trkpt lat="59.070465944" lon="30.0336652644"><ele>65.867</ele><time>2026-04-20T19:47:06.075Z</time><hdop>4.25</hdop><vdop>3.375</vdop><extensions><gom:speed>0.329</gom:speed></extensions></trkpt>
   <trkpt lat="59.0704588194" lon="30.033674736"><ele>65.853</ele><time>2026-04-20T19:47:07.075Z</time><hdop>4.375</hdop><vdop>3.25</vdop><extensions><gom:speed>0.354</gom:speed></extensions></trkpt>
   <trkpt lat="59.0704544189" lon="30.0336812739"><ele>65.649</ele><time>2026-04-20T19:47:08.076Z</time><hdop>4.375</hdop><vdop>3.375</vdop><extensions><gom:speed>0.322</gom:speed></extensions></trkpt>
   <trkpt lat="59.0704503536" lon="30.0336883985"><ele>65.787</ele><time>2026-04-20T19:47:09.075Z</time><hdop>4.5</hdop><vdop>3.625</vdop><extensions><gom:speed>0.29</gom:speed></extensions></trkpt>
   <trkpt lat="59.070444151" lon="30.0337016419"><ele>65.69</ele><time>2026-04-20T19:47:10.075Z</time><hdop>4.5</hdop><vdop>3.625</vdop><extensions><gom:speed>0.393</gom:speed></extensions></trkpt>
   <trkpt lat="59.0704408402" lon="30.0337091856"><ele>65.632</ele><time>2026-04-20T19:47:10.896Z</time><hdop>4.625</hdop><vdop>3.625</vdop><extensions><gom:speed>0.424</gom:speed></extensions></trkpt>
   <trkpt lat="59.0704318296" lon="30.0337258656"><ele>65.601</ele><time>2026-04-20T19:47:11.835Z</time><hdop>4.75</hdop><vdop>3.5</vdop><extensions><gom:speed>0.543</gom:speed></extensions></trkpt>
   <trkpt lat="59.0704239506" lon="30.033738187"><ele>65.648</ele><time>2026-04-20T19:47:12.762Z</time><hdop>5.0</hdop><vdop>3.375</vdop><extensions><gom:speed>0.596</gom:speed></extensions></trkpt>
   <trkpt lat="59.0704114197" lon="30.0337529392"><ele>65.752</ele><time>2026-04-20T19:47:13.620Z</time><hdop>5.0</hdop><vdop>3.5</vdop><extensions><gom:speed>0.684</gom:speed></extensions></trkpt>
   <trkpt lat="59.0704055524" lon="30.0337595609"><ele>65.83</ele><time>2026-04-20T19:47:14.075Z</time><hdop>5.0</hdop><vdop>3.625</vdop><extensions><gom:speed>0.695</gom:speed></extensions></trkpt>
   <trkpt lat="59.0703968352" lon="30.0337736425"><ele>66.189</ele><time>2026-04-20T19:47:15.075Z</time><hdop>5.0</hdop><vdop>3.75</vdop><extensions><gom:speed>0.726</gom:speed></extensions></trkpt>
   <trkpt lat="59.0703899201" lon="30.0337854609"><ele>67.157</ele><time>2026-04-20T19:47:16.075Z</time><hdop>5.0</hdop><vdop>3.75</vdop><extensions><gom:speed>0.713</gom:speed></extensions></trkpt>
   <trkpt lat="59.0703815382" lon="30.0337916635"><ele>68.179</ele><time>2026-04-20T19:47:17.076Z</time><hdop>4.875</hdop><vdop>3.75</vdop><extensions><gom:speed>0.665</gom:speed></extensions></trkpt>
   <trkpt lat="59.0703755451" lon="30.033789149"><ele>68.79</ele><time>2026-04-20T19:47:17.955Z</time><hdop>4.625</hdop><vdop>3.75</vdop><extensions><gom:speed>0.563</gom:speed></extensions></trkpt>
   <trkpt lat="59.0703698455" lon="30.0337800127"><ele>68.682</ele><time>2026-04-20T19:47:18.967Z</time><hdop>4.625</hdop><vdop>3.5</vdop><extensions><gom:speed>0.433</gom:speed></extensions></trkpt>
   <trkpt lat="59.0703641458" lon="30.0337795936"><ele>69.0</ele><time>2026-04-20T19:47:20.075Z</time><hdop>4.5</hdop><vdop>3.625</vdop><extensions><gom:speed>0.345</gom:speed></extensions></trkpt>
   <trkpt lat="59.0703607511" lon="30.0337788392"><ele>69.544</ele><time>2026-04-20T19:47:21.076Z</time><hdop>4.5</hdop><vdop>3.75</vdop><extensions><gom:speed>0.214</gom:speed></extensions></trkpt>
   <trkpt lat="59.0703575241" lon="30.0337778334"><ele>69.911</ele><time>2026-04-20T19:47:22.076Z</time><hdop>4.5</hdop><vdop>3.5</vdop><extensions><gom:speed>0.149</gom:speed></extensions></trkpt>
   <trkpt lat="59.0703520339" lon="30.0337767438"><ele>70.622</ele><time>2026-04-20T19:47:23.076Z</time><hdop>4.375</hdop><vdop>5.5</vdop><extensions><gom:speed>0.143</gom:speed></extensions></trkpt>
   <trkpt lat="59.0703420175" lon="30.0337745645"><ele>71.718</ele><time>2026-04-20T19:47:24.076Z</time><hdop>4.375</hdop><vdop>5.25</vdop><extensions><gom:speed>0.146</gom:speed></extensions></trkpt>
   <trkpt lat="59.0703347253" lon="30.0337744806"><ele>71.119</ele><time>2026-04-20T19:47:25.075Z</time><hdop>4.375</hdop><vdop>4.75</vdop><extensions><gom:speed>0.159</gom:speed></extensions></trkpt>
   <trkpt lat="59.070332546" lon="30.0337754865"><ele>70.762</ele><time>2026-04-20T19:47:25.881Z</time><hdop>4.375</hdop><vdop>4.75</vdop><extensions><gom:speed>0.169</gom:speed></extensions></trkpt>
   <trkpt lat="59.0703258405" lon="30.0337777496"><ele>70.14</ele><time>2026-04-20T19:47:27.017Z</time><hdop>4.25</hdop><vdop>4.375</vdop><extensions><gom:speed>0.192</gom:speed></extensions></trkpt>
   <trkpt lat="59.0703202246" lon="30.0337797612"><ele>70.307</ele><time>2026-04-20T19:47:28.075Z</time><hdop>4.25</hdop><vdop>6.0</vdop><extensions><gom:speed>0.22</gom:speed></extensions></trkpt>
   <trkpt lat="59.0703185482" lon="30.0337817729"><ele>70.407</ele><time>2026-04-20T19:47:28.882Z</time><hdop>4.375</hdop><vdop>6.0</vdop><extensions><gom:speed>0.202</gom:speed></extensions></trkpt>
   <trkpt lat="59.0703176262" lon="30.0337832816"><ele>70.764</ele><time>2026-04-20T19:47:29.392Z</time><hdop>4.375</hdop><vdop>6.25</vdop><extensions><gom:speed>0.229</gom:speed></extensions></trkpt>
   <trkpt lat="59.0703132257" lon="30.0337890652"><ele>71.06</ele><time>2026-04-20T19:47:30.075Z</time><hdop>4.375</hdop><vdop>6.125</vdop><extensions><gom:speed>0.271</gom:speed></extensions></trkpt>
   <trkpt lat="59.0703108369" lon="30.0337942619"><ele>71.237</ele><time>2026-04-20T19:47:30.659Z</time><hdop>4.5</hdop><vdop>6.125</vdop><extensions><gom:speed>0.372</gom:speed></extensions></trkpt>
   <trkpt lat="59.0703045504" lon="30.0338042364"><ele>71.915</ele><time>2026-04-20T19:47:31.577Z</time><hdop>4.625</hdop><vdop>5.0</vdop><extensions><gom:speed>0.459</gom:speed></extensions></trkpt>
   <trkpt lat="59.0703012396" lon="30.0338102714"><ele>71.646</ele><time>2026-04-20T19:47:32.075Z</time><hdop>4.625</hdop><vdop>4.5</vdop><extensions><gom:speed>0.475</gom:speed></extensions></trkpt>
   <trkpt lat="59.0703000242" lon="30.0338258617"><ele>71.485</ele><time>2026-04-20T19:47:32.998Z</time><hdop>4.625</hdop><vdop>4.5</vdop><extensions><gom:speed>0.642</gom:speed></extensions></trkpt>
   <trkpt lat="59.0702977192" lon="30.0338424579"><ele>71.062</ele><time>2026-04-20T19:47:33.857Z</time><hdop>4.75</hdop><vdop>4.0</vdop><extensions><gom:speed>0.726</gom:speed></extensions></trkpt>
   <trkpt lat="59.0702949532" lon="30.0338543602"><ele>70.843</ele><time>2026-04-20T19:47:34.736Z</time><hdop>4.875</hdop><vdop>3.75</vdop><extensions><gom:speed>0.667</gom:speed></extensions></trkpt>
   <trkpt lat="59.0702915166" lon="30.0338625744"><ele>71.165</ele><time>2026-04-20T19:47:35.654Z</time><hdop>5.0</hdop><vdop>3.5</vdop><extensions><gom:speed>0.623</gom:speed></extensions></trkpt>
   <trkpt lat="59.0702873256" lon="30.0338671007"><ele>71.484</ele><time>2026-04-20T19:47:36.316Z</time><hdop>5.0</hdop><vdop>3.125</vdop><extensions><gom:speed>0.612</gom:speed></extensions></trkpt>
   <trkpt lat="59.0702860264" lon="30.0338707049"><ele>71.674</ele><time>2026-04-20T19:47:36.799Z</time><hdop>5.0</hdop><vdop>3.125</vdop><extensions><gom:speed>0.574</gom:speed></extensions></trkpt>
   <trkpt lat="59.0702842243" lon="30.0338754826"><ele>71.778</ele><time>2026-04-20T19:47:37.680Z</time><hdop>5.0</hdop><vdop>3.0</vdop><extensions><gom:speed>0.495</gom:speed></extensions></trkpt>
   <trkpt lat="59.0702817517" lon="30.0338819366"><ele>71.705</ele><time>2026-04-20T19:47:38.577Z</time><hdop>5.0</hdop><vdop>3.0</vdop><extensions><gom:speed>0.487</gom:speed></extensions></trkpt>
   <trkpt lat="59.0702794466" lon="30.0338888098"><ele>71.277</ele><time>2026-04-20T19:47:39.076Z</time><hdop>5.0</hdop><vdop>3.125</vdop><extensions><gom:speed>0.555</gom:speed></extensions></trkpt>
   <trkpt lat="59.0702757167" lon="30.0339018018"><ele>71.123</ele><time>2026-04-20T19:47:40.076Z</time><hdop>4.875</hdop><vdop>3.375</vdop><extensions><gom:speed>0.587</gom:speed></extensions></trkpt>
   <trkpt lat="59.0702737469" lon="30.0339153804"><ele>71.032</ele><time>2026-04-20T19:47:40.897Z</time><hdop>4.875</hdop><vdop>3.375</vdop><extensions><gom:speed>0.65</gom:speed></extensions></trkpt>
   <trkpt lat="59.0702727411" lon="30.0339223374"><ele>70.805</ele><time>2026-04-20T19:47:41.711Z</time><hdop>4.875</hdop><vdop>3.5</vdop><extensions><gom:speed>0.622</gom:speed></extensions></trkpt>
   <trkpt lat="59.070269556" lon="30.0339397718"><ele>70.442</ele><time>2026-04-20T19:47:42.880Z</time><hdop>4.75</hdop><vdop>3.375</vdop><extensions><gom:speed>0.514</gom:speed></extensions></trkpt>
   <trkpt lat="59.0702674186" lon="30.0339468126"><ele>70.542</ele><time>2026-04-20T19:47:43.721Z</time><hdop>4.75</hdop><vdop>3.375</vdop><extensions><gom:speed>0.506</gom:speed></extensions></trkpt>
   <trkpt lat="59.0702660356" lon="30.0339556136"><ele>70.267</ele><time>2026-04-20T19:47:44.658Z</time><hdop>4.75</hdop><vdop>3.375</vdop><extensions><gom:speed>0.471</gom:speed></extensions></trkpt>
   <trkpt lat="59.0702666223" lon="30.0339621515"><ele>69.83</ele><time>2026-04-20T19:47:45.303Z</time><hdop>4.75</hdop><vdop>8.0</vdop><extensions><gom:speed>0.478</gom:speed></extensions></trkpt>
   <trkpt lat="59.0702677539" lon="30.0339644146"><ele>69.286</ele><time>2026-04-20T19:47:46.076Z</time><hdop>4.75</hdop><vdop>8.25</vdop><extensions><gom:speed>0.346</gom:speed></extensions></trkpt>
   <trkpt lat="59.0702692207" lon="30.0339624029"><ele>68.687</ele><time>2026-04-20T19:47:47.075Z</time><hdop>4.75</hdop><vdop>8.625</vdop><extensions><gom:speed>0.212</gom:speed></extensions></trkpt>
   <trkpt lat="59.0702698494" lon="30.0339613133"><ele>68.329</ele><time>2026-04-20T19:47:47.991Z</time><hdop>4.75</hdop><vdop>8.625</vdop><extensions><gom:speed>0.16</gom:speed></extensions></trkpt>
   <trkpt lat="59.0702716515" lon="30.0339639955"><ele>68.078</ele><time>2026-04-20T19:47:49.075Z</time><hdop>4.75</hdop><vdop>8.75</vdop><extensions><gom:speed>0.126</gom:speed></extensions></trkpt>
   <trkpt lat="59.0702738308" lon="30.0339666777"><ele>67.704</ele><time>2026-04-20T19:47:50.075Z</time><hdop>4.75</hdop><vdop>8.875</vdop><extensions><gom:speed>0.116</gom:speed></extensions></trkpt>
   <trkpt lat="59.0702743337" lon="30.033967013"><ele>67.829</ele><time>2026-04-20T19:47:50.952Z</time><hdop>4.75</hdop><vdop>8.875</vdop><extensions><gom:speed>0.121</gom:speed></extensions></trkpt>
   <trkpt lat="59.0702737469" lon="30.0339662586"><ele>67.903</ele><time>2026-04-20T19:47:51.637Z</time><hdop>4.75</hdop><vdop>8.875</vdop><extensions><gom:speed>0.146</gom:speed></extensions></trkpt>
   <trkpt lat="59.0702714419" lon="30.0339663424"><ele>67.936</ele><time>2026-04-20T19:47:52.722Z</time><hdop>4.875</hdop><vdop>8.75</vdop><extensions><gom:speed>0.207</gom:speed></extensions></trkpt>
   <trkpt lat="59.0702678377" lon="30.0339673482"><ele>68.028</ele><time>2026-04-20T19:47:53.621Z</time><hdop>5.0</hdop><vdop>8.375</vdop><extensions><gom:speed>0.332</gom:speed></extensions></trkpt>
   <trkpt lat="59.0702675443" lon="30.0339682702"><ele>68.254</ele><time>2026-04-20T19:47:54.075Z</time><hdop>5.0</hdop><vdop>8.125</vdop><extensions><gom:speed>0.353</gom:speed></extensions></trkpt>
   <trkpt lat="59.0702646526" lon="30.0339687732"><ele>68.39</ele><time>2026-04-20T19:47:54.716Z</time><hdop>5.125</hdop><vdop>8.125</vdop><extensions><gom:speed>0.384</gom:speed></extensions></trkpt>
   <trkpt lat="59.0702620542" lon="30.0339686055"><ele>68.443</ele><time>2026-04-20T19:47:55.536Z</time><hdop>5.25</hdop><vdop>7.875</vdop><extensions><gom:speed>0.404</gom:speed></extensions></trkpt>
   <trkpt lat="59.0702599168" lon="30.033968857"><ele>68.472</ele><time>2026-04-20T19:47:56.045Z</time><hdop>5.25</hdop><vdop>7.625</vdop><extensions><gom:speed>0.414</gom:speed></extensions></trkpt>
   <trkpt lat="59.0702589529" lon="30.0339724612"><ele>68.61</ele><time>2026-04-20T19:47:57.075Z</time><hdop>5.375</hdop><vdop>7.25</vdop><extensions><gom:speed>0.387</gom:speed></extensions></trkpt>
   <trkpt lat="59.0702565221" lon="30.0339720421"><ele>68.854</ele><time>2026-04-20T19:47:58.059Z</time><hdop>5.5</hdop><vdop>6.875</vdop><extensions><gom:speed>0.412</gom:speed></extensions></trkpt>
   <trkpt lat="59.0702552229" lon="30.0339703657"><ele>69.166</ele><time>2026-04-20T19:47:59.075Z</time><hdop>5.5</hdop><vdop>6.75</vdop><extensions><gom:speed>0.446</gom:speed></extensions></trkpt>
   <trkpt lat="59.0702545524" lon="30.0339703657"><ele>69.353</ele><time>2026-04-20T19:47:59.534Z</time><hdop>5.5</hdop><vdop>6.75</vdop><extensions><gom:speed>0.403</gom:speed></extensions></trkpt>
   <trkpt lat="59.0702529179" lon="30.0339710363"><ele>69.522</ele><time>2026-04-20T19:48:00.074Z</time><hdop>5.5</hdop><vdop>6.75</vdop><extensions><gom:speed>0.408</gom:speed></extensions></trkpt>
   <trkpt lat="59.0702537561" lon="30.0339790829"><ele>69.724</ele><time>2026-04-20T19:48:01.076Z</time><hdop>5.625</hdop><vdop>6.625</vdop><extensions><gom:speed>0.345</gom:speed></extensions></trkpt>
   <trkpt lat="59.0702555163" lon="30.0339862913"><ele>69.893</ele><time>2026-04-20T19:48:01.968Z</time><hdop>5.5</hdop><vdop>7.25</vdop><extensions><gom:speed>0.357</gom:speed></extensions></trkpt>
   <trkpt lat="59.070257025" lon="30.0339925778"><ele>69.993</ele><time>2026-04-20T19:48:02.998Z</time><hdop>5.625</hdop><vdop>7.25</vdop><extensions><gom:speed>0.352</gom:speed></extensions></trkpt>
   <trkpt lat="59.0702593301" lon="30.0340012111"><ele>70.232</ele><time>2026-04-20T19:48:03.997Z</time><hdop>5.625</hdop><vdop>7.75</vdop><extensions><gom:speed>0.348</gom:speed></extensions></trkpt>
   <trkpt lat="59.0702585338" lon="30.0340044801"><ele>70.458</ele><time>2026-04-20T19:48:04.659Z</time><hdop>5.625</hdop><vdop>8.25</vdop><extensions><gom:speed>0.338</gom:speed></extensions></trkpt>
   <trkpt lat="59.0702562288" lon="30.034007749"><ele>70.658</ele><time>2026-04-20T19:48:05.678Z</time><hdop>5.75</hdop><vdop>8.75</vdop><extensions><gom:speed>0.356</gom:speed></extensions></trkpt>
   <trkpt lat="59.0702561449" lon="30.0340109341"><ele>70.848</ele><time>2026-04-20T19:48:06.452Z</time><hdop>5.75</hdop><vdop>9.25</vdop><extensions><gom:speed>0.375</gom:speed></extensions></trkpt>
   <trkpt lat="59.0702546362" lon="30.0340150413"><ele>71.0</ele><time>2026-04-20T19:48:06.943Z</time><hdop>5.75</hdop><vdop>9.5</vdop><extensions><gom:speed>0.393</gom:speed></extensions></trkpt>
   <trkpt lat="59.0702531275" lon="30.0340178911"><ele>71.091</ele><time>2026-04-20T19:48:07.717Z</time><hdop>5.875</hdop><vdop>9.5</vdop><extensions><gom:speed>0.381</gom:speed></extensions></trkpt>
   <trkpt lat="59.0702501519" lon="30.0340225012"><ele>71.198</ele><time>2026-04-20T19:48:08.957Z</time><hdop>6.0</hdop><vdop>8.875</vdop><extensions><gom:speed>0.362</gom:speed></extensions></trkpt>
   <trkpt lat="59.0702490203" lon="30.0340245128"><ele>71.262</ele><time>2026-04-20T19:48:09.742Z</time><hdop>6.0</hdop><vdop>8.875</vdop><extensions><gom:speed>0.371</gom:speed></extensions></trkpt>
   <trkpt lat="59.0702469248" lon="30.0340277818"><ele>71.351</ele><time>2026-04-20T19:48:10.876Z</time><hdop>6.25</hdop><vdop>8.25</vdop><extensions><gom:speed>0.351</gom:speed></extensions></trkpt>
   <trkpt lat="59.070248224" lon="30.0340269436"><ele>71.426</ele><time>2026-04-20T19:48:11.853Z</time><hdop>6.375</hdop><vdop>8.125</vdop><extensions><gom:speed>0.326</gom:speed></extensions></trkpt>
   <trkpt lat="59.0702483498" lon="30.034027195"><ele>71.507</ele><time>2026-04-20T19:48:12.629Z</time><hdop>6.375</hdop><vdop>7.875</vdop><extensions><gom:speed>0.3</gom:speed></extensions></trkpt>
   <trkpt lat="59.070246841" lon="30.0340277818"><ele>72.038</ele><time>2026-04-20T19:48:13.275Z</time><hdop>6.375</hdop><vdop>6.125</vdop><extensions><gom:speed>0.271</gom:speed></extensions></trkpt>
   <trkpt lat="59.0702432368" lon="30.0340298772"><ele>72.535</ele><time>2026-04-20T19:48:14.075Z</time><hdop>6.375</hdop><vdop>4.875</vdop><extensions><gom:speed>0.281</gom:speed></extensions></trkpt>
   <trkpt lat="59.0702389201" lon="30.0340321404"><ele>72.832</ele><time>2026-04-20T19:48:15.083Z</time><hdop>6.125</hdop><vdop>4.875</vdop><extensions><gom:speed>0.356</gom:speed></extensions></trkpt>
   <trkpt lat="59.0702252576" lon="30.0340406899"><ele>73.684</ele><time>2026-04-20T19:48:16.075Z</time><hdop>6.0</hdop><vdop>3.75</vdop><extensions><gom:speed>0.446</gom:speed></extensions></trkpt>
   <trkpt lat="59.0702138163" lon="30.0340475631"><ele>73.567</ele><time>2026-04-20T19:48:17.075Z</time><hdop>5.75</hdop><vdop>3.625</vdop><extensions><gom:speed>0.392</gom:speed></extensions></trkpt>
   <trkpt lat="59.0702098349" lon="30.0340509996"><ele>73.497</ele><time>2026-04-20T19:48:18.043Z</time><hdop>5.625</hdop><vdop>3.625</vdop><extensions><gom:speed>0.355</gom:speed></extensions></trkpt>
   <trkpt lat="59.0702037161" lon="30.0340546877"><ele>73.573</ele><time>2026-04-20T19:48:18.789Z</time><hdop>5.5</hdop><vdop>3.5</vdop><extensions><gom:speed>0.367</gom:speed></extensions></trkpt>
   <trkpt lat="59.0701847311" lon="30.0340703618"><ele>73.45</ele><time>2026-04-20T19:48:20.076Z</time><hdop>5.25</hdop><vdop>3.75</vdop><extensions><gom:speed>0.391</gom:speed></extensions></trkpt>
   <trkpt lat="59.0701761397" lon="30.0340733793"><ele>73.766</ele><time>2026-04-20T19:48:21.076Z</time><hdop>5.125</hdop><vdop>3.875</vdop><extensions><gom:speed>0.285</gom:speed></extensions></trkpt>
   <trkpt lat="59.0701731222" lon="30.0340743851"><ele>73.955</ele><time>2026-04-20T19:48:21.813Z</time><hdop>5.0</hdop><vdop>3.875</vdop><extensions><gom:speed>0.277</gom:speed></extensions></trkpt>
   <trkpt lat="59.0701615552" lon="30.0340784085"><ele>74.239</ele><time>2026-04-20T19:48:23.075Z</time><hdop>4.875</hdop><vdop>10.75</vdop><extensions><gom:speed>0.24</gom:speed></extensions></trkpt>
   <trkpt lat="59.0701587472" lon="30.0340780732"><ele>74.216</ele><time>2026-04-20T19:48:24.001Z</time><hdop>4.75</hdop><vdop>11.0</vdop><extensions><gom:speed>0.14</gom:speed></extensions></trkpt>
   <trkpt lat="59.0701580348" lon="30.0340791628"><ele>74.202</ele><time>2026-04-20T19:48:24.943Z</time><hdop>4.75</hdop><vdop>11.0</vdop><extensions><gom:speed>0.126</gom:speed></extensions></trkpt>
   <trkpt lat="59.0701523351" lon="30.0340801687"><ele>74.39</ele><time>2026-04-20T19:48:26.076Z</time><hdop>4.75</hdop><vdop>10.5</vdop><extensions><gom:speed>0.099</gom:speed></extensions></trkpt>
   <trkpt lat="59.0701512454" lon="30.0340789952"><ele>74.285</ele><time>2026-04-20T19:48:26.963Z</time><hdop>4.75</hdop><vdop>9.875</vdop><extensions><gom:speed>0.071</gom:speed></extensions></trkpt>
   <trkpt lat="59.0701515388" lon="30.0340785761"><ele>74.432</ele><time>2026-04-20T19:48:28.029Z</time><hdop>4.75</hdop><vdop>9.375</vdop><extensions><gom:speed>0.077</gom:speed></extensions></trkpt>
   <trkpt lat="59.0701522512" lon="30.0340785761"><ele>74.519</ele><time>2026-04-20T19:48:28.881Z</time><hdop>4.75</hdop><vdop>9.375</vdop><extensions><gom:speed>0.092</gom:speed></extensions></trkpt>
   <trkpt lat="59.0701516226" lon="30.0340785761"><ele>74.727</ele><time>2026-04-20T19:48:29.939Z</time><hdop>4.875</hdop><vdop>9.125</vdop><extensions><gom:speed>0.088</gom:speed></extensions></trkpt>
   <trkpt lat="59.0701458391" lon="30.0340812583"><ele>74.817</ele><time>2026-04-20T19:48:30.816Z</time><hdop>5.0</hdop><vdop>8.625</vdop><extensions><gom:speed>0.123</gom:speed></extensions></trkpt>
   <trkpt lat="59.0701431569" lon="30.0340811745"><ele>74.814</ele><time>2026-04-20T19:48:31.938Z</time><hdop>5.0</hdop><vdop>8.125</vdop><extensions><gom:speed>0.134</gom:speed></extensions></trkpt>
   <trkpt lat="59.0701424444" lon="30.0340813421"><ele>75.053</ele><time>2026-04-20T19:48:33.004Z</time><hdop>5.125</hdop><vdop>7.875</vdop><extensions><gom:speed>0.146</gom:speed></extensions></trkpt>
   <trkpt lat="59.0701415224" lon="30.0340821803"><ele>75.196</ele><time>2026-04-20T19:48:33.817Z</time><hdop>5.125</hdop><vdop>7.875</vdop><extensions><gom:speed>0.187</gom:speed></extensions></trkpt>
   <trkpt lat="59.0701344397" lon="30.0340872095"><ele>75.454</ele><time>2026-04-20T19:48:34.463Z</time><hdop>5.375</hdop><vdop>7.75</vdop><extensions><gom:speed>0.23</gom:speed></extensions></trkpt>
   <trkpt lat="59.070132428" lon="30.0340894726"><ele>75.609</ele><time>2026-04-20T19:48:34.913Z</time><hdop>5.375</hdop><vdop>7.75</vdop><extensions><gom:speed>0.241</gom:speed></extensions></trkpt>
   <trkpt lat="59.0701256387" lon="30.034093915"><ele>75.925</ele><time>2026-04-20T19:48:35.417Z</time><hdop>5.5</hdop><vdop>7.625</vdop><extensions><gom:speed>0.234</gom:speed></extensions></trkpt>
   <trkpt lat="59.0701231241" lon="30.0340950884"><ele>76.114</ele><time>2026-04-20T19:48:36.018Z</time><hdop>5.5</hdop><vdop>7.625</vdop><extensions><gom:speed>0.25</gom:speed></extensions></trkpt>
   <trkpt lat="59.0701155385" lon="30.0340991956"><ele>76.428</ele><time>2026-04-20T19:48:36.839Z</time><hdop>5.5</hdop><vdop>7.625</vdop><extensions><gom:speed>0.26</gom:speed></extensions></trkpt>
   <trkpt lat="59.0701129401" lon="30.0341002014"><ele>76.615</ele><time>2026-04-20T19:48:37.460Z</time><hdop>5.625</hdop><vdop>7.625</vdop><extensions><gom:speed>0.283</gom:speed></extensions></trkpt>
   <trkpt lat="59.0701103417" lon="30.0341002852"><ele>76.727</ele><time>2026-04-20T19:48:38.535Z</time><hdop>5.625</hdop><vdop>7.625</vdop><extensions><gom:speed>0.297</gom:speed></extensions></trkpt>
   <trkpt lat="59.070108833" lon="30.0340987765"><ele>76.794</ele><time>2026-04-20T19:48:39.138Z</time><hdop>5.625</hdop><vdop>7.625</vdop><extensions><gom:speed>0.306</gom:speed></extensions></trkpt>
   <trkpt lat="59.0701068213" lon="30.0340956752"><ele>76.834</ele><time>2026-04-20T19:48:39.919Z</time><hdop>5.75</hdop><vdop>7.625</vdop><extensions><gom:speed>0.322</gom:speed></extensions></trkpt>
   <trkpt lat="59.0701043487" lon="30.0340934121"><ele>76.858</ele><time>2026-04-20T19:48:40.639Z</time><hdop>5.875</hdop><vdop>7.625</vdop><extensions><gom:speed>0.369</gom:speed></extensions></trkpt>
   <trkpt lat="59.0700962182" lon="30.0340981897"><ele>77.074</ele><time>2026-04-20T19:48:41.458Z</time><hdop>6.125</hdop><vdop>7.625</vdop><extensions><gom:speed>0.391</gom:speed></extensions></trkpt>
   <trkpt lat="59.0700946257" lon="30.0341002014"><ele>77.231</ele><time>2026-04-20T19:48:42.007Z</time><hdop>6.25</hdop><vdop>7.75</vdop><extensions><gom:speed>0.402</gom:speed></extensions></trkpt>
   <trkpt lat="59.0700910214" lon="30.0341051467"><ele>77.344</ele><time>2026-04-20T19:48:42.955Z</time><hdop>6.25</hdop><vdop>7.875</vdop><extensions><gom:speed>0.464</gom:speed></extensions></trkpt>
   <trkpt lat="59.070088926" lon="30.0341081642"><ele>77.411</ele><time>2026-04-20T19:48:43.547Z</time><hdop>6.375</hdop><vdop>7.875</vdop><extensions><gom:speed>0.494</gom:speed></extensions></trkpt>
   <trkpt lat="59.0700832263" lon="30.0341176358"><ele>77.468</ele><time>2026-04-20T19:48:44.075Z</time><hdop>6.375</hdop><vdop>8.0</vdop><extensions><gom:speed>0.513</gom:speed></extensions></trkpt>
   <trkpt lat="59.0700804183" lon="30.0341245089"><ele>77.513</ele><time>2026-04-20T19:48:44.970Z</time><hdop>6.5</hdop><vdop>8.125</vdop><extensions><gom:speed>0.468</gom:speed></extensions></trkpt>
   <trkpt lat="59.0700798316" lon="30.0341312983"><ele>77.54</ele><time>2026-04-20T19:48:45.939Z</time><hdop>6.5</hdop><vdop>8.125</vdop><extensions><gom:speed>0.414</gom:speed></extensions></trkpt>
   <trkpt lat="59.0700798316" lon="30.0341362436"><ele>77.594</ele><time>2026-04-20T19:48:46.983Z</time><hdop>6.625</hdop><vdop>8.5</vdop><extensions><gom:speed>0.327</gom:speed></extensions></trkpt>
   <trkpt lat="59.0700806279" lon="30.0341376685"><ele>77.632</ele><time>2026-04-20T19:48:48.048Z</time><hdop>6.75</hdop><vdop>8.25</vdop><extensions><gom:speed>0.229</gom:speed></extensions></trkpt>
   <trkpt lat="59.0700827234" lon="30.0341356569"><ele>77.661</ele><time>2026-04-20T19:48:48.996Z</time><hdop>6.75</hdop><vdop>8.25</vdop><extensions><gom:speed>0.154</gom:speed></extensions></trkpt>
   <trkpt lat="59.0700828491" lon="30.0341359921"><ele>77.678</ele><time>2026-04-20T19:48:49.475Z</time><hdop>7.0</hdop><vdop>8.25</vdop><extensions><gom:speed>0.164</gom:speed></extensions></trkpt>
   <trkpt lat="59.0700822204" lon="30.0341375009"><ele>77.698</ele><time>2026-04-20T19:48:49.945Z</time><hdop>7.0</hdop><vdop>8.5</vdop><extensions><gom:speed>0.163</gom:speed></extensions></trkpt>
   <trkpt lat="59.0700812565" lon="30.0341385905"><ele>77.717</ele><time>2026-04-20T19:48:51.010Z</time><hdop>7.125</hdop><vdop>8.75</vdop><extensions><gom:speed>0.198</gom:speed></extensions></trkpt>
   <trkpt lat="59.0700806279" lon="30.0341386743"><ele>77.75</ele><time>2026-04-20T19:48:51.958Z</time><hdop>7.25</hdop><vdop>8.75</vdop><extensions><gom:speed>0.199</gom:speed></extensions></trkpt>
   <trkpt lat="59.0700797478" lon="30.0341385067"><ele>77.774</ele><time>2026-04-20T19:48:53.024Z</time><hdop>7.25</hdop><vdop>8.875</vdop><extensions><gom:speed>0.192</gom:speed></extensions></trkpt>
   <trkpt lat="59.0700791191" lon="30.0341386743"><ele>77.789</ele><time>2026-04-20T19:48:53.955Z</time><hdop>7.375</hdop><vdop>8.875</vdop><extensions><gom:speed>0.159</gom:speed></extensions></trkpt>
   <trkpt lat="59.0700783229" lon="30.0341395963"><ele>77.843</ele><time>2026-04-20T19:48:55.021Z</time><hdop>7.5</hdop><vdop>8.875</vdop><extensions><gom:speed>0.127</gom:speed></extensions></trkpt>
   <trkpt lat="59.0700781552" lon="30.0341398478"><ele>77.881</ele><time>2026-04-20T19:48:55.985Z</time><hdop>7.625</hdop><vdop>8.875</vdop><extensions><gom:speed>0.125</gom:speed></extensions></trkpt>
   <trkpt lat="59.0700738385" lon="30.0341427815"><ele>77.909</ele><time>2026-04-20T19:48:57.056Z</time><hdop>7.625</hdop><vdop>8.5</vdop><extensions><gom:speed>0.147</gom:speed></extensions></trkpt>
   <trkpt lat="59.0700720364" lon="30.0341438711"><ele>77.931</ele><time>2026-04-20T19:48:58.043Z</time><hdop>7.5</hdop><vdop>8.25</vdop><extensions><gom:speed>0.208</gom:speed></extensions></trkpt>
   <trkpt lat="59.0700707372" lon="30.0341473915"><ele>77.959</ele><time>2026-04-20T19:48:58.947Z</time><hdop>7.5</hdop><vdop>8.0</vdop><extensions><gom:speed>0.258</gom:speed></extensions></trkpt>
   <trkpt lat="59.0700697314" lon="30.0341526721"><ele>77.953</ele><time>2026-04-20T19:49:00.013Z</time><hdop>7.375</hdop><vdop>8.0</vdop><extensions><gom:speed>0.272</gom:speed></extensions></trkpt>
   <trkpt lat="59.070069019" lon="30.0341559411"><ele>77.949</ele><time>2026-04-20T19:49:00.619Z</time><hdop>7.5</hdop><vdop>8.0</vdop><extensions><gom:speed>0.268</gom:speed></extensions></trkpt>
   <trkpt lat="59.0700676359" lon="30.0341621437"><ele>77.955</ele><time>2026-04-20T19:49:02.027Z</time><hdop>7.625</hdop><vdop>8.25</vdop><extensions><gom:speed>0.272</gom:speed></extensions></trkpt>
   <trkpt lat="59.0700662529" lon="30.0341654126"><ele>77.966</ele><time>2026-04-20T19:49:02.974Z</time><hdop>7.75</hdop><vdop>8.375</vdop><extensions><gom:speed>0.223</gom:speed></extensions></trkpt>
   <trkpt lat="59.0700654566" lon="30.0341672566"><ele>77.986</ele><time>2026-04-20T19:49:04.041Z</time><hdop>7.875</hdop><vdop>8.125</vdop><extensions><gom:speed>0.244</gom:speed></extensions></trkpt>
   <trkpt lat="59.0700653309" lon="30.0341681786"><ele>78.007</ele><time>2026-04-20T19:49:04.988Z</time><hdop>8.0</hdop><vdop>8.125</vdop><extensions><gom:speed>0.172</gom:speed></extensions></trkpt>
   <trkpt lat="59.0700659176" lon="30.0341665861"><ele>78.035</ele><time>2026-04-20T19:49:06.054Z</time><hdop>8.25</hdop><vdop>8.0</vdop><extensions><gom:speed>0.12</gom:speed></extensions></trkpt>
   <trkpt lat="59.0700669235" lon="30.0341641553"><ele>78.045</ele><time>2026-04-20T19:49:07.002Z</time><hdop>8.25</hdop><vdop>7.875</vdop><extensions><gom:speed>0.101</gom:speed></extensions></trkpt>
   <trkpt lat="59.0700667558" lon="30.0341623951"><ele>78.064</ele><time>2026-04-20T19:49:07.951Z</time><hdop>8.375</hdop><vdop>7.875</vdop><extensions><gom:speed>0.078</gom:speed></extensions></trkpt>
   <trkpt lat="59.0700668397" lon="30.0341620598"><ele>78.082</ele><time>2026-04-20T19:49:09.017Z</time><hdop>8.375</hdop><vdop>7.75</vdop><extensions><gom:speed>0.077</gom:speed></extensions></trkpt>
   <trkpt lat="59.0700676359" lon="30.0341608026"><ele>78.103</ele><time>2026-04-20T19:49:09.964Z</time><hdop>8.375</hdop><vdop>7.375</vdop><extensions><gom:speed>0.078</gom:speed></extensions></trkpt>
   <trkpt lat="59.0700685579" lon="30.0341592938"><ele>78.176</ele><time>2026-04-20T19:49:11.030Z</time><hdop>8.375</hdop><vdop>7.75</vdop><extensions><gom:speed>0.083</gom:speed></extensions></trkpt>
   <trkpt lat="59.0700697314" lon="30.0341572822"><ele>78.277</ele><time>2026-04-20T19:49:12.076Z</time><hdop>8.375</hdop><vdop>8.0</vdop><extensions><gom:speed>0.105</gom:speed></extensions></trkpt>
   <trkpt lat="59.0700714497" lon="30.0341566116"><ele>78.356</ele><time>2026-04-20T19:49:13.043Z</time><hdop>8.375</hdop><vdop>8.0</vdop><extensions><gom:speed>0.089</gom:speed></extensions></trkpt>
   <trkpt lat="59.0700720364" lon="30.0341558572"><ele>78.403</ele><time>2026-04-20T19:49:14.014Z</time><hdop>8.375</hdop><vdop>8.0</vdop><extensions><gom:speed>0.101</gom:speed></extensions></trkpt>
   <trkpt lat="59.0700720364" lon="30.0341532589"><ele>78.479</ele><time>2026-04-20T19:49:14.577Z</time><hdop>8.5</hdop><vdop>8.125</vdop><extensions><gom:speed>0.079</gom:speed></extensions></trkpt>
   <trkpt lat="59.0700721203" lon="30.0341520854"><ele>78.59</ele><time>2026-04-20T19:49:15.057Z</time><hdop>8.5</hdop><vdop>7.875</vdop><extensions><gom:speed>0.117</gom:speed></extensions></trkpt>
   <trkpt lat="59.0700714497" lon="30.0341521692"><ele>78.657</ele><time>2026-04-20T19:49:16.040Z</time><hdop>8.5</hdop><vdop>7.875</vdop><extensions><gom:speed>0.114</gom:speed></extensions></trkpt>
   <trkpt lat="59.0700705277" lon="30.0341548514"><ele>78.729</ele><time>2026-04-20T19:49:16.740Z</time><hdop>8.5</hdop><vdop>7.75</vdop><extensions><gom:speed>0.131</gom:speed></extensions></trkpt>
   <trkpt lat="59.0700682227" lon="30.0341551029"><ele>78.803</ele><time>2026-04-20T19:49:17.342Z</time><hdop>8.375</hdop><vdop>7.875</vdop><extensions><gom:speed>0.194</gom:speed></extensions></trkpt>
   <trkpt lat="59.0700675521" lon="30.0341577013"><ele>78.848</ele><time>2026-04-20T19:49:17.835Z</time><hdop>8.375</hdop><vdop>7.875</vdop><extensions><gom:speed>0.187</gom:speed></extensions></trkpt>
   <trkpt lat="59.0700662529" lon="30.0341654964"><ele>78.906</ele><time>2026-04-20T19:49:18.967Z</time><hdop>8.375</hdop><vdop>7.875</vdop><extensions><gom:speed>0.293</gom:speed></extensions></trkpt>
   <trkpt lat="59.0700649537" lon="30.0341667537"><ele>78.941</ele><time>2026-04-20T19:49:19.622Z</time><hdop>8.375</hdop><vdop>7.875</vdop><extensions><gom:speed>0.291</gom:speed></extensions></trkpt>
   <trkpt lat="59.070063445" lon="30.0341670052"><ele>78.985</ele><time>2026-04-20T19:49:20.540Z</time><hdop>8.375</hdop><vdop>7.375</vdop><extensions><gom:speed>0.224</gom:speed></extensions></trkpt>
   <trkpt lat="59.0700622296" lon="30.0341683463"><ele>79.031</ele><time>2026-04-20T19:49:21.596Z</time><hdop>8.375</hdop><vdop>7.25</vdop><extensions><gom:speed>0.271</gom:speed></extensions></trkpt>
   <trkpt lat="59.0700619362" lon="30.0341701903"><ele>79.08</ele><time>2026-04-20T19:49:22.047Z</time><hdop>8.375</hdop><vdop>7.25</vdop><extensions><gom:speed>0.3</gom:speed></extensions></trkpt>
   <trkpt lat="59.0700620201" lon="30.0341722858"><ele>79.114</ele><time>2026-04-20T19:49:22.994Z</time><hdop>8.5</hdop><vdop>7.375</vdop><extensions><gom:speed>0.251</gom:speed></extensions></trkpt>
   <trkpt lat="59.070062523" lon="30.0341660832"><ele>79.157</ele><time>2026-04-20T19:49:24.075Z</time><hdop>8.625</hdop><vdop>7.75</vdop><extensions><gom:speed>0.17</gom:speed></extensions></trkpt>
   <trkpt lat="59.0700628163" lon="30.0341615569"><ele>79.182</ele><time>2026-04-20T19:49:24.814Z</time><hdop>8.375</hdop><vdop>7.75</vdop><extensions><gom:speed>0.158</gom:speed></extensions></trkpt>
   <trkpt lat="59.0700633193" lon="30.0341577013"><ele>79.203</ele><time>2026-04-20T19:49:25.764Z</time><hdop>8.25</hdop><vdop>7.625</vdop><extensions><gom:speed>0.057</gom:speed></extensions></trkpt>
   <trkpt lat="59.0700638222" lon="30.0341536779"><ele>79.22</ele><time>2026-04-20T19:49:26.903Z</time><hdop>8.125</hdop><vdop>7.625</vdop><extensions><gom:speed>0.081</gom:speed></extensions></trkpt>
   <trkpt lat="59.0700609304" lon="30.0341546"><ele>78.962</ele><time>2026-04-20T19:49:27.973Z</time><hdop>7.5</hdop><vdop>6.625</vdop><extensions><gom:speed>0.12</gom:speed></extensions></trkpt>
   <trkpt lat="59.0700577453" lon="30.0341623951"><ele>78.536</ele><time>2026-04-20T19:49:28.980Z</time><hdop>7.125</hdop><vdop>6.0</vdop><extensions><gom:speed>0.131</gom:speed></extensions></trkpt>
   <trkpt lat="59.0700533448" lon="30.0341769796"><ele>77.538</ele><time>2026-04-20T19:49:29.781Z</time><hdop>6.875</hdop><vdop>5.125</vdop><extensions><gom:speed>0.188</gom:speed></extensions></trkpt>
   <trkpt lat="59.0700457173" lon="30.0342012872"><ele>77.759</ele><time>2026-04-20T19:49:30.956Z</time><hdop>6.5</hdop><vdop>4.75</vdop><extensions><gom:speed>0.231</gom:speed></extensions></trkpt>
   <trkpt lat="59.0700379221" lon="30.0342237507"><ele>77.764</ele><time>2026-04-20T19:49:31.656Z</time><hdop>6.25</hdop><vdop>4.5</vdop><extensions><gom:speed>0.211</gom:speed></extensions></trkpt>
   <trkpt lat="59.0700288277" lon="30.0342455436"><ele>77.876</ele><time>2026-04-20T19:49:32.553Z</time><hdop>6.0</hdop><vdop>4.125</vdop><extensions><gom:speed>0.198</gom:speed></extensions></trkpt>
   <trkpt lat="59.0700243434" lon="30.0342556019"><ele>78.125</ele><time>2026-04-20T19:49:33.075Z</time><hdop>5.75</hdop><vdop>3.75</vdop><extensions><gom:speed>0.234</gom:speed></extensions></trkpt>
   <trkpt lat="59.0700176379" lon="30.0342719466"><ele>77.962</ele><time>2026-04-20T19:49:34.075Z</time><hdop>5.5</hdop><vdop>3.75</vdop><extensions><gom:speed>0.263</gom:speed></extensions></trkpt>
   <trkpt lat="59.0700141175" lon="30.0342841842"><ele>77.776</ele><time>2026-04-20T19:49:35.075Z</time><hdop>5.25</hdop><vdop>3.5</vdop><extensions><gom:speed>0.232</gom:speed></extensions></trkpt>
   <trkpt lat="59.0700099265" lon="30.0342993554"><ele>77.799</ele><time>2026-04-20T19:49:36.075Z</time><hdop>5.0</hdop><vdop>3.5</vdop><extensions><gom:speed>0.293</gom:speed></extensions></trkpt>
   <trkpt lat="59.0700043526" lon="30.0343147781"><ele>77.688</ele><time>2026-04-20T19:49:37.075Z</time><hdop>4.75</hdop><vdop>7.5</vdop><extensions><gom:speed>0.314</gom:speed></extensions></trkpt>
   <trkpt lat="59.0699987367" lon="30.0343248364"><ele>77.494</ele><time>2026-04-20T19:49:38.075Z</time><hdop>4.625</hdop><vdop>7.625</vdop><extensions><gom:speed>0.258</gom:speed></extensions></trkpt>
   <trkpt lat="59.0699955516" lon="30.0343327992"><ele>77.327</ele><time>2026-04-20T19:49:39.075Z</time><hdop>4.625</hdop><vdop>7.5</vdop><extensions><gom:speed>0.145</gom:speed></extensions></trkpt>
   <trkpt lat="59.069995342" lon="30.034334308"><ele>77.304</ele><time>2026-04-20T19:49:40.052Z</time><hdop>4.625</hdop><vdop>7.5</vdop><extensions><gom:speed>0.119</gom:speed></extensions></trkpt>
   <trkpt lat="59.0699920312" lon="30.0343437795"><ele>77.349</ele><time>2026-04-20T19:49:41.075Z</time><hdop>4.75</hdop><vdop>7.25</vdop><extensions><gom:speed>0.119</gom:speed></extensions></trkpt>
   <trkpt lat="59.0699911511" lon="30.0343485572"><ele>77.409</ele><time>2026-04-20T19:49:41.947Z</time><hdop>4.75</hdop><vdop>7.375</vdop><extensions><gom:speed>0.097</gom:speed></extensions></trkpt>
   <trkpt lat="59.0699909415" lon="30.0343512394"><ele>77.418</ele><time>2026-04-20T19:49:43.014Z</time><hdop>4.75</hdop><vdop>7.5</vdop><extensions><gom:speed>0.109</gom:speed></extensions></trkpt>
   <trkpt lat="59.0699909415" lon="30.0343529996"><ele>77.343</ele><time>2026-04-20T19:49:43.961Z</time><hdop>4.75</hdop><vdop>7.25</vdop><extensions><gom:speed>0.119</gom:speed></extensions></trkpt>
   <trkpt lat="59.069988846" lon="30.034364399"><ele>77.379</ele><time>2026-04-20T19:49:45.075Z</time><hdop>4.75</hdop><vdop>7.25</vdop><extensions><gom:speed>0.105</gom:speed></extensions></trkpt>
   <trkpt lat="59.069988427" lon="30.0343690929"><ele>77.504</ele><time>2026-04-20T19:49:45.975Z</time><hdop>4.75</hdop><vdop>7.25</vdop><extensions><gom:speed>0.073</gom:speed></extensions></trkpt>
   <trkpt lat="59.069988846" lon="30.0343706854"><ele>77.624</ele><time>2026-04-20T19:49:47.041Z</time><hdop>4.75</hdop><vdop>7.125</vdop><extensions><gom:speed>0.103</gom:speed></extensions></trkpt>
   <trkpt lat="59.0699894328" lon="30.0343734514"><ele>77.757</ele><time>2026-04-20T19:49:47.989Z</time><hdop>4.875</hdop><vdop>6.875</vdop><extensions><gom:speed>0.157</gom:speed></extensions></trkpt>
   <trkpt lat="59.0699875469" lon="30.0343928975"><ele>77.838</ele><time>2026-04-20T19:49:49.075Z</time><hdop>4.875</hdop><vdop>6.5</vdop><extensions><gom:speed>0.23</gom:speed></extensions></trkpt>
   <trkpt lat="59.0699899357" lon="30.0343959149"><ele>77.92</ele><time>2026-04-20T19:49:50.003Z</time><hdop>5.0</hdop><vdop>6.625</vdop><extensions><gom:speed>0.124</gom:speed></extensions></trkpt>
   <trkpt lat="59.0699908577" lon="30.0343950768"><ele>77.969</ele><time>2026-04-20T19:49:51.033Z</time><hdop>5.125</hdop><vdop>6.625</vdop><extensions><gom:speed>0.093</gom:speed></extensions></trkpt>
   <trkpt lat="59.0699912349" lon="30.03439449"><ele>78.079</ele><time>2026-04-20T19:49:51.661Z</time><hdop>5.125</hdop><vdop>6.5</vdop><extensions><gom:speed>0.073</gom:speed></extensions></trkpt>
   <trkpt lat="59.0699913187" lon="30.0343961664"><ele>78.248</ele><time>2026-04-20T19:49:52.999Z</time><hdop>5.375</hdop><vdop>6.25</vdop><extensions><gom:speed>0.127</gom:speed></extensions></trkpt>
   <trkpt lat="59.0699871278" lon="30.0344099965"><ele>78.51</ele><time>2026-04-20T19:49:54.030Z</time><hdop>5.375</hdop><vdop>6.125</vdop><extensions><gom:speed>0.114</gom:speed></extensions></trkpt>
   <trkpt lat="59.0699860381" lon="30.0344127626"><ele>78.667</ele><time>2026-04-20T19:49:55.060Z</time><hdop>5.375</hdop><vdop>6.125</vdop><extensions><gom:speed>0.139</gom:speed></extensions></trkpt>
   <trkpt lat="59.0699824339" lon="30.0344270956"><ele>78.847</ele><time>2026-04-20T19:49:56.045Z</time><hdop>5.375</hdop><vdop>6.125</vdop><extensions><gom:speed>0.199</gom:speed></extensions></trkpt>
   <trkpt lat="59.0699812185" lon="30.0344301969"><ele>78.955</ele><time>2026-04-20T19:49:56.842Z</time><hdop>5.375</hdop><vdop>6.125</vdop><extensions><gom:speed>0.201</gom:speed></extensions></trkpt>
   <trkpt lat="59.0699806318" lon="30.0344322924"><ele>79.066</ele><time>2026-04-20T19:49:57.578Z</time><hdop>5.375</hdop><vdop>6.375</vdop><extensions><gom:speed>0.152</gom:speed></extensions></trkpt>
   <trkpt lat="59.0699776562" lon="30.0344437756"><ele>79.175</ele><time>2026-04-20T19:49:58.075Z</time><hdop>5.375</hdop><vdop>6.5</vdop><extensions><gom:speed>0.201</gom:speed></extensions></trkpt>
   <trkpt lat="59.0699772371" lon="30.0344458711"><ele>79.24</ele><time>2026-04-20T19:49:58.635Z</time><hdop>5.5</hdop><vdop>6.5</vdop><extensions><gom:speed>0.153</gom:speed></extensions></trkpt>
   <trkpt lat="59.0699770276" lon="30.0344473798"><ele>79.298</ele><time>2026-04-20T19:49:59.542Z</time><hdop>5.5</hdop><vdop>6.375</vdop><extensions><gom:speed>0.155</gom:speed></extensions></trkpt>
   <trkpt lat="59.0699774467" lon="30.0344494753"><ele>79.376</ele><time>2026-04-20T19:50:01.020Z</time><hdop>5.625</hdop><vdop>6.375</vdop><extensions><gom:speed>0.151</gom:speed></extensions></trkpt>
   <trkpt lat="59.0699782429" lon="30.0344503973"><ele>79.48</ele><time>2026-04-20T19:50:01.967Z</time><hdop>5.625</hdop><vdop>6.5</vdop><extensions><gom:speed>0.135</gom:speed></extensions></trkpt>
   <trkpt lat="59.0699785363" lon="30.0344529119"><ele>79.542</ele><time>2026-04-20T19:50:02.938Z</time><hdop>5.75</hdop><vdop>6.5</vdop><extensions><gom:speed>0.177</gom:speed></extensions></trkpt>
   <trkpt lat="59.0699788297" lon="30.0344545883"><ele>79.589</ele><time>2026-04-20T19:50:03.981Z</time><hdop>5.75</hdop><vdop>6.5</vdop><extensions><gom:speed>0.182</gom:speed></extensions></trkpt>
   <trkpt lat="59.0699787459" lon="30.0344589469"><ele>79.628</ele><time>2026-04-20T19:50:05.002Z</time><hdop>5.875</hdop><vdop>6.625</vdop><extensions><gom:speed>0.182</gom:speed></extensions></trkpt>
   <trkpt lat="59.069974052" lon="30.0344708492"><ele>79.663</ele><time>2026-04-20T19:50:05.634Z</time><hdop>5.875</hdop><vdop>6.375</vdop><extensions><gom:speed>0.177</gom:speed></extensions></trkpt>
   <trkpt lat="59.069971747" lon="30.034476465"><ele>79.695</ele><time>2026-04-20T19:50:06.444Z</time><hdop>6.0</hdop><vdop>6.25</vdop><extensions><gom:speed>0.251</gom:speed></extensions></trkpt>
   <trkpt lat="59.069970322" lon="30.0344793149"><ele>79.735</ele><time>2026-04-20T19:50:06.942Z</time><hdop>6.0</hdop><vdop>6.125</vdop><extensions><gom:speed>0.259</gom:speed></extensions></trkpt>
   <trkpt lat="59.0699678494" lon="30.0344856013"><ele>79.759</ele><time>2026-04-20T19:50:08.062Z</time><hdop>6.125</hdop><vdop>6.125</vdop><extensions><gom:speed>0.325</gom:speed></extensions></trkpt>
   <trkpt lat="59.0699644547" lon="30.0344957434"><ele>79.786</ele><time>2026-04-20T19:50:08.921Z</time><hdop>6.25</hdop><vdop>6.375</vdop><extensions><gom:speed>0.466</gom:speed></extensions></trkpt>
   <trkpt lat="59.0699594256" lon="30.0345099088"><ele>79.827</ele><time>2026-04-20T19:50:10.076Z</time><hdop>6.5</hdop><vdop>6.25</vdop><extensions><gom:speed>0.543</gom:speed></extensions></trkpt>
   <trkpt lat="59.0699546479" lon="30.0345223979"><ele>79.858</ele><time>2026-04-20T19:50:11.015Z</time><hdop>6.75</hdop><vdop>6.625</vdop><extensions><gom:speed>0.511</gom:speed></extensions></trkpt>
   <trkpt lat="59.0699536421" lon="30.0345208891"><ele>79.955</ele><time>2026-04-20T19:50:12.036Z</time><hdop>7.0</hdop><vdop>6.5</vdop><extensions><gom:speed>0.388</gom:speed></extensions></trkpt>
   <trkpt lat="59.0699545222" lon="30.0345109147"><ele>80.071</ele><time>2026-04-20T19:50:12.984Z</time><hdop>7.375</hdop><vdop>6.25</vdop><extensions><gom:speed>0.199</gom:speed></extensions></trkpt>
   <trkpt lat="59.0699572463" lon="30.0345021137"><ele>80.149</ele><time>2026-04-20T19:50:14.050Z</time><hdop>7.5</hdop><vdop>6.0</vdop><extensions><gom:speed>0.118</gom:speed></extensions></trkpt>
   <trkpt lat="59.0699550251" lon="30.0345069752"><ele>80.206</ele><time>2026-04-20T19:50:15.076Z</time><hdop>7.5</hdop><vdop>5.75</vdop><extensions><gom:speed>0.119</gom:speed></extensions></trkpt>
   <trkpt lat="59.0699542288" lon="30.0345071428"><ele>80.247</ele><time>2026-04-20T19:50:15.945Z</time><hdop>7.25</hdop><vdop>5.5</vdop><extensions><gom:speed>0.076</gom:speed></extensions></trkpt>
   <trkpt lat="59.0699552346" lon="30.0345097412"><ele>80.325</ele><time>2026-04-20T19:50:17.011Z</time><hdop>7.0</hdop><vdop>5.5</vdop><extensions><gom:speed>0.07</gom:speed></extensions></trkpt>
   <trkpt lat="59.0699558213" lon="30.0345112499"><ele>80.391</ele><time>2026-04-20T19:50:17.959Z</time><hdop>6.875</hdop><vdop>5.625</vdop><extensions><gom:speed>0.069</gom:speed></extensions></trkpt>
   <trkpt lat="59.0699558213" lon="30.0345143512"><ele>80.439</ele><time>2026-04-20T19:50:19.025Z</time><hdop>6.625</hdop><vdop>5.625</vdop><extensions><gom:speed>0.065</gom:speed></extensions></trkpt>
   <trkpt lat="59.0699507503" lon="30.0345231522"><ele>80.77</ele><time>2026-04-20T19:50:20.076Z</time><hdop>6.25</hdop><vdop>5.0</vdop><extensions><gom:speed>0.072</gom:speed></extensions></trkpt>
   <trkpt lat="59.0699422427" lon="30.0345318694"><ele>79.667</ele><time>2026-04-20T19:50:21.075Z</time><hdop>6.0</hdop><vdop>5.875</vdop><extensions><gom:speed>0.077</gom:speed></extensions></trkpt>
   <trkpt lat="59.0699354533" lon="30.0345405866"><ele>78.041</ele><time>2026-04-20T19:50:22.075Z</time><hdop>5.75</hdop><vdop>6.25</vdop><extensions><gom:speed>0.11</gom:speed></extensions></trkpt>
   <trkpt lat="59.0699338189" lon="30.0345412571"><ele>77.07</ele><time>2026-04-20T19:50:22.579Z</time><hdop>5.625</hdop><vdop>6.25</vdop><extensions><gom:speed>0.096</gom:speed></extensions></trkpt>
   <trkpt lat="59.0699278258" lon="30.0345482979"><ele>76.092</ele><time>2026-04-20T19:50:23.075Z</time><hdop>5.375</hdop><vdop>6.375</vdop><extensions><gom:speed>0.087</gom:speed></extensions></trkpt>
   <trkpt lat="59.0699233415" lon="30.0345552549"><ele>75.721</ele><time>2026-04-20T19:50:24.075Z</time><hdop>5.125</hdop><vdop>6.375</vdop><extensions><gom:speed>0.083</gom:speed></extensions></trkpt>
   <trkpt lat="59.0699197373" lon="30.0345643074"><ele>75.601</ele><time>2026-04-20T19:50:25.075Z</time><hdop>4.875</hdop><vdop>6.25</vdop><extensions><gom:speed>0.067</gom:speed></extensions></trkpt>
   <trkpt lat="59.0699176418" lon="30.0345747848"><ele>75.635</ele><time>2026-04-20T19:50:26.075Z</time><hdop>4.75</hdop><vdop>5.875</vdop><extensions><gom:speed>0.111</gom:speed></extensions></trkpt>
   <trkpt lat="59.0699165521" lon="30.034584843"><ele>75.499</ele><time>2026-04-20T19:50:27.076Z</time><hdop>4.625</hdop><vdop>5.75</vdop><extensions><gom:speed>0.075</gom:speed></extensions></trkpt>
   <trkpt lat="59.0699153368" lon="30.034588112"><ele>75.417</ele><time>2026-04-20T19:50:28.063Z</time><hdop>4.5</hdop><vdop>5.75</vdop><extensions><gom:speed>0.086</gom:speed></extensions></trkpt>
   <trkpt lat="59.069916133" lon="30.0345955719"><ele>75.3</ele><time>2026-04-20T19:50:28.739Z</time><hdop>4.5</hdop><vdop>5.625</vdop><extensions><gom:speed>0.073</gom:speed></extensions></trkpt>
   <trkpt lat="59.0699169293" lon="30.034611749"><ele>75.71</ele><time>2026-04-20T19:50:29.700Z</time><hdop>4.5</hdop><vdop>5.875</vdop><extensions><gom:speed>0.123</gom:speed></extensions></trkpt>
   <trkpt lat="59.0699164264" lon="30.0346152694"><ele>75.853</ele><time>2026-04-20T19:50:30.598Z</time><hdop>4.5</hdop><vdop>6.0</vdop><extensions><gom:speed>0.197</gom:speed></extensions></trkpt>
   <trkpt lat="59.0699162169" lon="30.0346239027"><ele>76.241</ele><time>2026-04-20T19:50:31.075Z</time><hdop>4.5</hdop><vdop>6.375</vdop><extensions><gom:speed>0.199</gom:speed></extensions></trkpt>
   <trkpt lat="59.0699122355" lon="30.0346307759"><ele>76.716</ele><time>2026-04-20T19:50:32.055Z</time><hdop>4.375</hdop><vdop>6.375</vdop><extensions><gom:speed>0.382</gom:speed></extensions></trkpt>
   <trkpt lat="59.0699051527" lon="30.034637649"><ele>76.999</ele><time>2026-04-20T19:50:33.057Z</time><hdop>4.5</hdop><vdop>6.375</vdop><extensions><gom:speed>0.552</gom:speed></extensions></trkpt>
   <trkpt lat="59.0699015485" lon="30.0346529041"><ele>77.192</ele><time>2026-04-20T19:50:33.737Z</time><hdop>4.5</hdop><vdop>6.25</vdop><extensions><gom:speed>0.577</gom:speed></extensions></trkpt>
   <trkpt lat="59.069897148" lon="30.0346628786"><ele>77.418</ele><time>2026-04-20T19:50:34.538Z</time><hdop>4.5</hdop><vdop>6.375</vdop><extensions><gom:speed>0.65</gom:speed></extensions></trkpt>
   <trkpt lat="59.0698932504" lon="30.0346783013"><ele>77.707</ele><time>2026-04-20T19:50:35.075Z</time><hdop>4.5</hdop><vdop>6.75</vdop><extensions><gom:speed>0.644</gom:speed></extensions></trkpt>
   <trkpt lat="59.0698891433" lon="30.0346914609"><ele>77.989</ele><time>2026-04-20T19:50:35.965Z</time><hdop>4.375</hdop><vdop>6.75</vdop><extensions><gom:speed>0.742</gom:speed></extensions></trkpt>
   <trkpt lat="59.0698835274" lon="30.0347036146"><ele>78.197</ele><time>2026-04-20T19:50:37.031Z</time><hdop>4.5</hdop><vdop>6.75</vdop><extensions><gom:speed>0.756</gom:speed></extensions></trkpt>
   <trkpt lat="59.0698777439" lon="30.0347154331"><ele>78.321</ele><time>2026-04-20T19:50:38.042Z</time><hdop>4.625</hdop><vdop>6.75</vdop><extensions><gom:speed>0.779</gom:speed></extensions></trkpt>
   <trkpt lat="59.069872631" lon="30.0347312749"><ele>78.408</ele><time>2026-04-20T19:50:38.980Z</time><hdop>4.625</hdop><vdop>6.75</vdop><extensions><gom:speed>0.788</gom:speed></extensions></trkpt>
   <trkpt lat="59.0698680209" lon="30.0347417523"><ele>78.51</ele><time>2026-04-20T19:50:39.839Z</time><hdop>4.75</hdop><vdop>6.625</vdop><extensions><gom:speed>0.768</gom:speed></extensions></trkpt>
   <trkpt lat="59.0698671408" lon="30.0347580132"><ele>78.006</ele><time>2026-04-20T19:50:40.600Z</time><hdop>5.0</hdop><vdop>5.5</vdop><extensions><gom:speed>0.711</gom:speed></extensions></trkpt>
   <trkpt lat="59.0698660512" lon="30.0347694126"><ele>78.194</ele><time>2026-04-20T19:50:41.075Z</time><hdop>5.0</hdop><vdop>4.75</vdop><extensions><gom:speed>0.702</gom:speed></extensions></trkpt>
   <trkpt lat="59.0698603515" lon="30.0347910379"><ele>78.077</ele><time>2026-04-20T19:50:42.075Z</time><hdop>5.0</hdop><vdop>4.25</vdop><extensions><gom:speed>0.72</gom:speed></extensions></trkpt>
   <trkpt lat="59.0698558252" lon="30.03480118"><ele>78.008</ele><time>2026-04-20T19:50:42.800Z</time><hdop>5.0</hdop><vdop>4.25</vdop><extensions><gom:speed>0.785</gom:speed></extensions></trkpt>
   <trkpt lat="59.0698523468" lon="30.0348156807"><ele>78.036</ele><time>2026-04-20T19:50:43.441Z</time><hdop>5.0</hdop><vdop>4.375</vdop><extensions><gom:speed>0.756</gom:speed></extensions></trkpt>
   <trkpt lat="59.0698496226" lon="30.0348295946"><ele>77.679</ele><time>2026-04-20T19:50:44.075Z</time><hdop>5.0</hdop><vdop>4.125</vdop><extensions><gom:speed>0.76</gom:speed></extensions></trkpt>
   <trkpt lat="59.0698465213" lon="30.0348492921"><ele>76.909</ele><time>2026-04-20T19:50:45.076Z</time><hdop>4.875</hdop><vdop>3.875</vdop><extensions><gom:speed>0.726</gom:speed></extensions></trkpt>
   <trkpt lat="59.0698437553" lon="30.0348681514"><ele>76.34</ele><time>2026-04-20T19:50:46.075Z</time><hdop>4.875</hdop><vdop>7.375</vdop><extensions><gom:speed>0.661</gom:speed></extensions></trkpt>
   <trkpt lat="59.0698421208" lon="30.0348770362"><ele>76.0</ele><time>2026-04-20T19:50:46.679Z</time><hdop>4.75</hdop><vdop>7.375</vdop><extensions><gom:speed>0.664</gom:speed></extensions></trkpt>
   <trkpt lat="59.0698411569" lon="30.034888687"><ele>75.863</ele><time>2026-04-20T19:50:47.351Z</time><hdop>4.75</hdop><vdop>7.5</vdop><extensions><gom:speed>0.658</gom:speed></extensions></trkpt>
   <trkpt lat="59.069839732" lon="30.0349062052"><ele>75.795</ele><time>2026-04-20T19:50:48.075Z</time><hdop>4.75</hdop><vdop>7.5</vdop><extensions><gom:speed>0.645</gom:speed></extensions></trkpt>
   <trkpt lat="59.0698385166" lon="30.0349152577"><ele>75.754</ele><time>2026-04-20T19:50:48.961Z</time><hdop>4.75</hdop><vdop>7.5</vdop><extensions><gom:speed>0.568</gom:speed></extensions></trkpt>
   <trkpt lat="59.0698365469" lon="30.0349223823"><ele>75.462</ele><time>2026-04-20T19:50:49.843Z</time><hdop>4.875</hdop><vdop>7.25</vdop><extensions><gom:speed>0.547</gom:speed></extensions></trkpt>
   <trkpt lat="59.0698324397" lon="30.0349334464"><ele>75.091</ele><time>2026-04-20T19:50:50.777Z</time><hdop>5.0</hdop><vdop>7.0</vdop><extensions><gom:speed>0.573</gom:speed></extensions></trkpt>
   <trkpt lat="59.0698288355" lon="30.034939649"><ele>74.841</ele><time>2026-04-20T19:50:51.957Z</time><hdop>5.125</hdop><vdop>6.625</vdop><extensions><gom:speed>0.405</gom:speed></extensions></trkpt>
   <trkpt lat="59.0698280392" lon="30.034941493"><ele>74.692</ele><time>2026-04-20T19:50:52.563Z</time><hdop>5.25</hdop><vdop>6.625</vdop><extensions><gom:speed>0.395</gom:speed></extensions></trkpt>
   <trkpt lat="59.0698271172" lon="30.0349462707"><ele>74.789</ele><time>2026-04-20T19:50:53.076Z</time><hdop>5.375</hdop><vdop>6.5</vdop><extensions><gom:speed>0.392</gom:speed></extensions></trkpt>
   <trkpt lat="59.0698242255" lon="30.0349564966"><ele>74.687</ele><time>2026-04-20T19:50:53.971Z</time><hdop>5.5</hdop><vdop>6.375</vdop><extensions><gom:speed>0.43</gom:speed></extensions></trkpt>
   <trkpt lat="59.0698226329" lon="30.0349634536"><ele>74.617</ele><time>2026-04-20T19:50:55.036Z</time><hdop>5.75</hdop><vdop>6.5</vdop><extensions><gom:speed>0.43</gom:speed></extensions></trkpt>
   <trkpt lat="59.0698233454" lon="30.0349663873"><ele>74.575</ele><time>2026-04-20T19:50:56.057Z</time><hdop>5.875</hdop><vdop>6.5</vdop><extensions><gom:speed>0.327</gom:speed></extensions></trkpt>
   <trkpt lat="59.0698231358" lon="30.0349716679"><ele>74.474</ele><time>2026-04-20T19:50:56.777Z</time><hdop>6.0</hdop><vdop>6.625</vdop><extensions><gom:speed>0.348</gom:speed></extensions></trkpt>
   <trkpt lat="59.06982213" lon="30.034979463"><ele>74.701</ele><time>2026-04-20T19:50:58.075Z</time><hdop>6.125</hdop><vdop>6.125</vdop><extensions><gom:speed>0.317</gom:speed></extensions></trkpt>
   <trkpt lat="59.06982213" lon="30.0349810556"><ele>74.837</ele><time>2026-04-20T19:50:59.019Z</time><hdop>6.125</hdop><vdop>6.125</vdop><extensions><gom:speed>0.238</gom:speed></extensions></trkpt>
   <trkpt lat="59.0698217528" lon="30.0349842407"><ele>75.024</ele><time>2026-04-20T19:50:59.720Z</time><hdop>6.25</hdop><vdop>6.125</vdop><extensions><gom:speed>0.278</gom:speed></extensions></trkpt>
   <trkpt lat="59.069818442" lon="30.0349899404"><ele>75.309</ele><time>2026-04-20T19:51:00.959Z</time><hdop>6.125</hdop><vdop>6.25</vdop><extensions><gom:speed>0.289</gom:speed></extensions></trkpt>
   <trkpt lat="59.0698174361" lon="30.0349893537"><ele>75.496</ele><time>2026-04-20T19:51:02.025Z</time><hdop>6.125</hdop><vdop>6.375</vdop><extensions><gom:speed>0.182</gom:speed></extensions></trkpt>
   <trkpt lat="59.0698158436" lon="30.0349885993"><ele>75.624</ele><time>2026-04-20T19:51:03.075Z</time><hdop>6.0</hdop><vdop>6.625</vdop><extensions><gom:speed>0.114</gom:speed></extensions></trkpt>
   <trkpt lat="59.0698157178" lon="30.034988767"><ele>75.705</ele><time>2026-04-20T19:51:04.040Z</time><hdop>6.0</hdop><vdop>6.625</vdop><extensions><gom:speed>0.104</gom:speed></extensions></trkpt>
   <trkpt lat="59.0698152568" lon="30.0349889346"><ele>75.779</ele><time>2026-04-20T19:51:04.987Z</time><hdop>5.875</hdop><vdop>6.625</vdop><extensions><gom:speed>0.078</gom:speed></extensions></trkpt>
   <trkpt lat="59.0698147539" lon="30.0349885993"><ele>75.822</ele><time>2026-04-20T19:51:05.935Z</time><hdop>5.875</hdop><vdop>6.625</vdop><extensions><gom:speed>0.074</gom:speed></extensions></trkpt>
   <trkpt lat="59.0698117364" lon="30.0349881802"><ele>75.873</ele><time>2026-04-20T19:51:07.002Z</time><hdop>5.875</hdop><vdop>6.75</vdop><extensions><gom:speed>0.065</gom:speed></extensions></trkpt>
   <trkpt lat="59.0698102277" lon="30.034987845"><ele>75.918</ele><time>2026-04-20T19:51:07.948Z</time><hdop>5.75</hdop><vdop>6.875</vdop><extensions><gom:speed>0.072</gom:speed></extensions></trkpt>
   <trkpt lat="59.0698095571" lon="30.0349875097"><ele>75.962</ele><time>2026-04-20T19:51:09.015Z</time><hdop>5.875</hdop><vdop>7.375</vdop><extensions><gom:speed>0.083</gom:speed></extensions></trkpt>
   <trkpt lat="59.0698093476" lon="30.0349863362"><ele>75.989</ele><time>2026-04-20T19:51:09.962Z</time><hdop>5.875</hdop><vdop>7.5</vdop><extensions><gom:speed>0.091</gom:speed></extensions></trkpt>
   <trkpt lat="59.0698088447" lon="30.0349876773"><ele>76.012</ele><time>2026-04-20T19:51:11.028Z</time><hdop>5.875</hdop><vdop>7.75</vdop><extensions><gom:speed>0.08</gom:speed></extensions></trkpt>
   <trkpt lat="59.0698084256" lon="30.0349877611"><ele>76.026</ele><time>2026-04-20T19:51:11.496Z</time><hdop>5.875</hdop><vdop>7.75</vdop><extensions><gom:speed>0.094</gom:speed></extensions></trkpt>
   <trkpt lat="59.0698082579" lon="30.0349885155"><ele>76.057</ele><time>2026-04-20T19:51:11.976Z</time><hdop>5.875</hdop><vdop>7.5</vdop><extensions><gom:speed>0.095</gom:speed></extensions></trkpt>
   <trkpt lat="59.0698079227" lon="30.0349885993"><ele>76.075</ele><time>2026-04-20T19:51:12.741Z</time><hdop>6.0</hdop><vdop>7.5</vdop><extensions><gom:speed>0.111</gom:speed></extensions></trkpt>
   <trkpt lat="59.0698072521" lon="30.0349901081"><ele>76.11</ele><time>2026-04-20T19:51:13.580Z</time><hdop>6.0</hdop><vdop>7.125</vdop><extensions><gom:speed>0.064</gom:speed></extensions></trkpt>
   <trkpt lat="59.0698065397" lon="30.0349914492"><ele>76.133</ele><time>2026-04-20T19:51:14.075Z</time><hdop>6.0</hdop><vdop>6.875</vdop><extensions><gom:speed>0.099</gom:speed></extensions></trkpt>
   <trkpt lat="59.0698058272" lon="30.0349935446"><ele>76.148</ele><time>2026-04-20T19:51:15.056Z</time><hdop>6.0</hdop><vdop>7.25</vdop><extensions><gom:speed>0.123</gom:speed></extensions></trkpt>
   <trkpt lat="59.0698058272" lon="30.0349964783"><ele>76.168</ele><time>2026-04-20T19:51:16.005Z</time><hdop>6.0</hdop><vdop>7.25</vdop><extensions><gom:speed>0.157</gom:speed></extensions></trkpt>
   <trkpt lat="59.0698055338" lon="30.0349980709"><ele>76.181</ele><time>2026-04-20T19:51:16.580Z</time><hdop>6.0</hdop><vdop>7.25</vdop><extensions><gom:speed>0.168</gom:speed></extensions></trkpt>
   <trkpt lat="59.0698046537" lon="30.0350006693"><ele>76.202</ele><time>2026-04-20T19:51:17.441Z</time><hdop>6.125</hdop><vdop>7.375</vdop><extensions><gom:speed>0.261</gom:speed></extensions></trkpt>
   <trkpt lat="59.0698038574" lon="30.0350031"><ele>76.215</ele><time>2026-04-20T19:51:17.942Z</time><hdop>6.125</hdop><vdop>7.375</vdop><extensions><gom:speed>0.275</gom:speed></extensions></trkpt>
   <trkpt lat="59.0698024325" lon="30.0350082968"><ele>76.243</ele><time>2026-04-20T19:51:18.801Z</time><hdop>6.25</hdop><vdop>7.5</vdop><extensions><gom:speed>0.28</gom:speed></extensions></trkpt>
   <trkpt lat="59.0698005466" lon="30.0350095541"><ele>76.292</ele><time>2026-04-20T19:51:20.031Z</time><hdop>6.375</hdop><vdop>7.875</vdop><extensions><gom:speed>0.247</gom:speed></extensions></trkpt>
   <trkpt lat="59.0697997503" lon="30.0350077939"><ele>76.32</ele><time>2026-04-20T19:51:20.659Z</time><hdop>6.5</hdop><vdop>7.875</vdop><extensions><gom:speed>0.199</gom:speed></extensions></trkpt>
   <trkpt lat="59.069798954" lon="30.0350059499"><ele>76.389</ele><time>2026-04-20T19:51:21.219Z</time><hdop>6.625</hdop><vdop>8.0</vdop><extensions><gom:speed>0.217</gom:speed></extensions></trkpt>
   <trkpt lat="59.0697979482" lon="30.0350033515"><ele>76.502</ele><time>2026-04-20T19:51:22.045Z</time><hdop>6.75</hdop><vdop>8.0</vdop><extensions><gom:speed>0.232</gom:speed></extensions></trkpt>
   <trkpt lat="59.0697974453" lon="30.035000334"><ele>76.57</ele><time>2026-04-20T19:51:23.056Z</time><hdop>6.875</hdop><vdop>8.0</vdop><extensions><gom:speed>0.188</gom:speed></extensions></trkpt>
   <trkpt lat="59.069796649" lon="30.0349964783"><ele>76.712</ele><time>2026-04-20T19:51:23.940Z</time><hdop>6.75</hdop><vdop>8.0</vdop><extensions><gom:speed>0.207</gom:speed></extensions></trkpt>
   <trkpt lat="59.0697962299" lon="30.034996143"><ele>76.797</ele><time>2026-04-20T19:51:24.414Z</time><hdop>6.75</hdop><vdop>8.0</vdop><extensions><gom:speed>0.197</gom:speed></extensions></trkpt>
   <trkpt lat="59.0697946374" lon="30.0349953048"><ele>76.927</ele><time>2026-04-20T19:51:25.006Z</time><hdop>6.75</hdop><vdop>7.875</vdop><extensions><gom:speed>0.211</gom:speed></extensions></trkpt>
   <trkpt lat="59.0697937573" lon="30.0349956401"><ele>77.004</ele><time>2026-04-20T19:51:25.517Z</time><hdop>6.75</hdop><vdop>7.875</vdop><extensions><gom:speed>0.222</gom:speed></extensions></trkpt>
   <trkpt lat="59.0697918294" lon="30.0349956401"><ele>77.085</ele><time>2026-04-20T19:51:26.294Z</time><hdop>6.75</hdop><vdop>7.625</vdop><extensions><gom:speed>0.245</gom:speed></extensions></trkpt>
   <trkpt lat="59.0697897339" lon="30.0349958916"><ele>77.133</ele><time>2026-04-20T19:51:27.036Z</time><hdop>6.75</hdop><vdop>7.625</vdop><extensions><gom:speed>0.305</gom:speed></extensions></trkpt>
   <trkpt lat="59.0697857525" lon="30.0349945505"><ele>77.181</ele><time>2026-04-20T19:51:27.736Z</time><hdop>6.75</hdop><vdop>7.5</vdop><extensions><gom:speed>0.442</gom:speed></extensions></trkpt>
   <trkpt lat="59.0697803462" lon="30.0349935446"><ele>77.231</ele><time>2026-04-20T19:51:28.535Z</time><hdop>6.75</hdop><vdop>7.25</vdop><extensions><gom:speed>0.574</gom:speed></extensions></trkpt>
   <trkpt lat="59.069776742" lon="30.0349935446"><ele>77.341</ele><time>2026-04-20T19:51:29.034Z</time><hdop>6.75</hdop><vdop>7.25</vdop><extensions><gom:speed>0.6</gom:speed></extensions></trkpt>
   <trkpt lat="59.0697701203" lon="30.0349969812"><ele>77.419</ele><time>2026-04-20T19:51:29.983Z</time><hdop>6.875</hdop><vdop>7.375</vdop><extensions><gom:speed>0.647</gom:speed></extensions></trkpt>
   <trkpt lat="59.0697678572" lon="30.0349990767"><ele>77.465</ele><time>2026-04-20T19:51:30.574Z</time><hdop>6.875</hdop><vdop>7.375</vdop><extensions><gom:speed>0.709</gom:speed></extensions></trkpt>
   <trkpt lat="59.0697616546" lon="30.0350096379"><ele>77.51</ele><time>2026-04-20T19:51:31.048Z</time><hdop>7.0</hdop><vdop>7.375</vdop><extensions><gom:speed>0.776</gom:speed></extensions></trkpt>
   <trkpt lat="59.0697592238" lon="30.0350158405"><ele>77.537</ele><time>2026-04-20T19:51:31.676Z</time><hdop>7.125</hdop><vdop>7.375</vdop><extensions><gom:speed>0.815</gom:speed></extensions></trkpt>
   <trkpt lat="59.069757757" lon="30.0350250606"><ele>77.579</ele><time>2026-04-20T19:51:32.394Z</time><hdop>7.125</hdop><vdop>7.5</vdop><extensions><gom:speed>0.82</gom:speed></extensions></trkpt>
   <trkpt lat="59.0697563321" lon="30.0350315147"><ele>77.605</ele><time>2026-04-20T19:51:32.959Z</time><hdop>7.25</hdop><vdop>7.5</vdop><extensions><gom:speed>0.784</gom:speed></extensions></trkpt>
   <trkpt lat="59.0697546557" lon="30.035040148"><ele>77.653</ele><time>2026-04-20T19:51:33.697Z</time><hdop>7.375</hdop><vdop>7.5</vdop><extensions><gom:speed>0.808</gom:speed></extensions></trkpt>
   <trkpt lat="59.0697578408" lon="30.0350431655"><ele>77.69</ele><time>2026-04-20T19:51:34.459Z</time><hdop>7.375</hdop><vdop>7.25</vdop><extensions><gom:speed>0.784</gom:speed></extensions></trkpt>
   <trkpt lat="59.0697566254" lon="30.0350502901"><ele>77.76</ele><time>2026-04-20T19:51:35.075Z</time><hdop>7.375</hdop><vdop>7.375</vdop><extensions><gom:speed>0.775</gom:speed></extensions></trkpt>
   <trkpt lat="59.069751722" lon="30.0350611028"><ele>77.802</ele><time>2026-04-20T19:51:36.057Z</time><hdop>7.625</hdop><vdop>7.375</vdop><extensions><gom:speed>0.822</gom:speed></extensions></trkpt>
   <trkpt lat="59.0697469443" lon="30.0350691494"><ele>77.84</ele><time>2026-04-20T19:51:36.739Z</time><hdop>7.625</hdop><vdop>7.375</vdop><extensions><gom:speed>0.94</gom:speed></extensions></trkpt>
   <trkpt lat="59.069740155" lon="30.0350800459"><ele>77.885</ele><time>2026-04-20T19:51:37.345Z</time><hdop>7.875</hdop><vdop>7.25</vdop><extensions><gom:speed>0.964</gom:speed></extensions></trkpt>
   <trkpt lat="59.0697351258" lon="30.0350876734"><ele>77.941</ele><time>2026-04-20T19:51:38.037Z</time><hdop>8.0</hdop><vdop>7.125</vdop><extensions><gom:speed>1.0</gom:speed></extensions></trkpt>
   <trkpt lat="59.0697312283" lon="30.0350898527"><ele>77.266</ele><time>2026-04-20T19:51:39.075Z</time><hdop>8.125</hdop><vdop>5.375</vdop><extensions><gom:speed>1.022</gom:speed></extensions></trkpt>
   <trkpt lat="59.0697244389" lon="30.0350871705"><ele>76.709</ele><time>2026-04-20T19:51:40.075Z</time><hdop>8.125</hdop><vdop>4.875</vdop><extensions><gom:speed>1.0</gom:speed></extensions></trkpt>
   <trkpt lat="59.0697132491" lon="30.0350830634"><ele>76.705</ele><time>2026-04-20T19:51:41.075Z</time><hdop>8.0</hdop><vdop>4.75</vdop><extensions><gom:speed>0.985</gom:speed></extensions></trkpt>
   <trkpt lat="59.0697007181" lon="30.0350756035"><ele>78.01</ele><time>2026-04-20T19:51:42.076Z</time><hdop>7.625</hdop><vdop>4.25</vdop><extensions><gom:speed>1.009</gom:speed></extensions></trkpt>
   <trkpt lat="59.0696897378" lon="30.035067473"><ele>78.79</ele><time>2026-04-20T19:51:43.074Z</time><hdop>7.25</hdop><vdop>4.25</vdop><extensions><gom:speed>1.044</gom:speed></extensions></trkpt>
   <trkpt lat="59.0696766202" lon="30.0350742624"><ele>79.512</ele><time>2026-04-20T19:51:43.836Z</time><hdop>6.75</hdop><vdop>3.75</vdop><extensions><gom:speed>1.057</gom:speed></extensions></trkpt>
   <trkpt lat="59.0696628319" lon="30.0350872543"><ele>80.293</ele><time>2026-04-20T19:51:44.497Z</time><hdop>6.375</hdop><vdop>3.625</vdop><extensions><gom:speed>1.031</gom:speed></extensions></trkpt>
   <trkpt lat="59.0696539471" lon="30.0351033476"><ele>80.623</ele><time>2026-04-20T19:51:45.075Z</time><hdop>6.375</hdop><vdop>3.5</vdop><extensions><gom:speed>0.983</gom:speed></extensions></trkpt>
   <trkpt lat="59.0696459424" lon="30.0351251405"><ele>80.508</ele><time>2026-04-20T19:51:46.075Z</time><hdop>6.125</hdop><vdop>3.375</vdop><extensions><gom:speed>0.843</gom:speed></extensions></trkpt>
   <trkpt lat="59.0696353393" lon="30.035136959"><ele>80.773</ele><time>2026-04-20T19:51:47.075Z</time><hdop>5.875</hdop><vdop>3.125</vdop><extensions><gom:speed>0.713</gom:speed></extensions></trkpt>
   <trkpt lat="59.0696300168" lon="30.0351367914"><ele>80.931</ele><time>2026-04-20T19:51:47.599Z</time><hdop>5.875</hdop><vdop>3.125</vdop><extensions><gom:speed>0.69</gom:speed></extensions></trkpt>
   <trkpt lat="59.0696225569" lon="30.0351388868"><ele>80.944</ele><time>2026-04-20T19:51:48.075Z</time><hdop>5.75</hdop><vdop>3.125</vdop><extensions><gom:speed>0.714</gom:speed></extensions></trkpt>
   <trkpt lat="59.0696089363" lon="30.0351410661"><ele>81.372</ele><time>2026-04-20T19:51:49.075Z</time><hdop>5.625</hdop><vdop>3.0</vdop><extensions><gom:speed>0.786</gom:speed></extensions></trkpt>
   <trkpt lat="59.0695966568" lon="30.0351393898"><ele>81.579</ele><time>2026-04-20T19:51:50.075Z</time><hdop>5.375</hdop><vdop>3.0</vdop><extensions><gom:speed>0.686</gom:speed></extensions></trkpt>
   <trkpt lat="59.0695910409" lon="30.0351373781"><ele>82.228</ele><time>2026-04-20T19:51:51.075Z</time><hdop>5.375</hdop><vdop>3.0</vdop><extensions><gom:speed>0.524</gom:speed></extensions></trkpt>
   <trkpt lat="59.0695876463" lon="30.0351405632"><ele>83.098</ele><time>2026-04-20T19:51:52.075Z</time><hdop>5.375</hdop><vdop>3.125</vdop><extensions><gom:speed>0.319</gom:speed></extensions></trkpt>
   <trkpt lat="59.0695825333" lon="30.0351453409"><ele>83.855</ele><time>2026-04-20T19:51:53.075Z</time><hdop>5.25</hdop><vdop>3.125</vdop><extensions><gom:speed>0.231</gom:speed></extensions></trkpt>
   <trkpt lat="59.0695745286" lon="30.0351486099"><ele>84.417</ele><time>2026-04-20T19:51:54.075Z</time><hdop>5.0</hdop><vdop>3.25</vdop><extensions><gom:speed>0.178</gom:speed></extensions></trkpt>
   <trkpt lat="59.0695708405" lon="30.0351500348"><ele>84.753</ele><time>2026-04-20T19:51:55.039Z</time><hdop>4.75</hdop><vdop>3.25</vdop><extensions><gom:speed>0.154</gom:speed></extensions></trkpt>
   <trkpt lat="59.0695574295" lon="30.0351471849"><ele>85.376</ele><time>2026-04-20T19:51:55.861Z</time><hdop>4.5</hdop><vdop>3.375</vdop><extensions><gom:speed>0.18</gom:speed></extensions></trkpt>
   <trkpt lat="59.0695444375" lon="30.0351432454"><ele>85.331</ele><time>2026-04-20T19:51:56.738Z</time><hdop>4.25</hdop><vdop>3.25</vdop><extensions><gom:speed>0.249</gom:speed></extensions></trkpt>
   <trkpt lat="59.0695324514" lon="30.0351353664"><ele>85.493</ele><time>2026-04-20T19:51:57.408Z</time><hdop>4.0</hdop><vdop>3.25</vdop><extensions><gom:speed>0.505</gom:speed></extensions></trkpt>
   <trkpt lat="59.0695230218" lon="30.0351254758"><ele>85.544</ele><time>2026-04-20T19:51:58.075Z</time><hdop>3.875</hdop><vdop>3.25</vdop><extensions><gom:speed>0.631</gom:speed></extensions></trkpt>
   <trkpt lat="59.0695134245" lon="30.0351132382"><ele>85.574</ele><time>2026-04-20T19:51:58.921Z</time><hdop>3.625</hdop><vdop>3.25</vdop><extensions><gom:speed>0.78</gom:speed></extensions></trkpt>
   <trkpt lat="59.069500223" lon="30.0351010845"><ele>85.743</ele><time>2026-04-20T19:51:59.720Z</time><hdop>3.375</hdop><vdop>3.125</vdop><extensions><gom:speed>0.912</gom:speed></extensions></trkpt>
   <trkpt lat="59.0694876501" lon="30.0350914453"><ele>86.168</ele><time>2026-04-20T19:52:00.413Z</time><hdop>3.25</hdop><vdop>3.0</vdop><extensions><gom:speed>0.987</gom:speed></extensions></trkpt>
   <trkpt lat="59.0694765441" lon="30.0350844883"><ele>86.695</ele><time>2026-04-20T19:52:01.075Z</time><hdop>3.125</hdop><vdop>3.0</vdop><extensions><gom:speed>1.015</gom:speed></extensions></trkpt>
   <trkpt lat="59.0694628397" lon="30.0350789562"><ele>87.009</ele><time>2026-04-20T19:52:01.822Z</time><hdop>3.0</hdop><vdop>3.0</vdop><extensions><gom:speed>1.033</gom:speed></extensions></trkpt>
   <trkpt lat="59.0694512308" lon="30.0350727536"><ele>86.668</ele><time>2026-04-20T19:52:02.641Z</time><hdop>3.0</hdop><vdop>3.0</vdop><extensions><gom:speed>1.045</gom:speed></extensions></trkpt>
   <trkpt lat="59.0694384484" lon="30.0350658805"><ele>86.817</ele><time>2026-04-20T19:52:03.343Z</time><hdop>3.125</hdop><vdop>2.875</vdop><extensions><gom:speed>1.054</gom:speed></extensions></trkpt>
   <trkpt lat="59.0694267556" lon="30.0350590911"><ele>86.442</ele><time>2026-04-20T19:52:04.075Z</time><hdop>3.125</hdop><vdop>3.0</vdop><extensions><gom:speed>1.041</gom:speed></extensions></trkpt>
   <trkpt lat="59.0694168231" lon="30.0350500387"><ele>86.218</ele><time>2026-04-20T19:52:05.001Z</time><hdop>3.25</hdop><vdop>3.0</vdop><extensions><gom:speed>0.949</gom:speed></extensions></trkpt>
   <trkpt lat="59.0694106205" lon="30.0350407348"><ele>85.834</ele><time>2026-04-20T19:52:05.978Z</time><hdop>3.5</hdop><vdop>3.0</vdop><extensions><gom:speed>0.873</gom:speed></extensions></trkpt>
   <trkpt lat="59.0694008555" lon="30.0350337778"><ele>85.283</ele><time>2026-04-20T19:52:06.738Z</time><hdop>3.75</hdop><vdop>3.125</vdop><extensions><gom:speed>0.815</gom:speed></extensions></trkpt>
   <trkpt lat="59.0693921384" lon="30.0350316823"><ele>84.836</ele><time>2026-04-20T19:52:07.770Z</time><hdop>3.875</hdop><vdop>3.125</vdop><extensions><gom:speed>0.766</gom:speed></extensions></trkpt>
   <trkpt lat="59.0693763385" lon="30.0350275752"><ele>84.544</ele><time>2026-04-20T19:52:08.702Z</time><hdop>4.25</hdop><vdop>3.125</vdop><extensions><gom:speed>0.738</gom:speed></extensions></trkpt>
   <trkpt lat="59.0693657354" lon="30.0350222946"><ele>84.654</ele><time>2026-04-20T19:52:09.582Z</time><hdop>4.375</hdop><vdop>3.125</vdop><extensions><gom:speed>0.721</gom:speed></extensions></trkpt>
   <trkpt lat="59.0693591556" lon="30.0350209535"><ele>84.82</ele><time>2026-04-20T19:52:10.075Z</time><hdop>4.375</hdop><vdop>3.25</vdop><extensions><gom:speed>0.738</gom:speed></extensions></trkpt>
   <trkpt lat="59.0693535397" lon="30.0350210373"><ele>84.918</ele><time>2026-04-20T19:52:10.676Z</time><hdop>4.5</hdop><vdop>3.25</vdop><extensions><gom:speed>0.741</gom:speed></extensions></trkpt>
   <trkpt lat="59.0693438167" lon="30.0350238871"><ele>85.596</ele><time>2026-04-20T19:52:11.357Z</time><hdop>4.625</hdop><vdop>3.375</vdop><extensions><gom:speed>0.771</gom:speed></extensions></trkpt>
   <trkpt lat="59.0693351414" lon="30.0350266532"><ele>86.263</ele><time>2026-04-20T19:52:12.075Z</time><hdop>4.625</hdop><vdop>3.5</vdop><extensions><gom:speed>0.799</gom:speed></extensions></trkpt>
   <trkpt lat="59.0693261309" lon="30.0350321852"><ele>86.662</ele><time>2026-04-20T19:52:12.939Z</time><hdop>4.75</hdop><vdop>3.5</vdop><extensions><gom:speed>0.864</gom:speed></extensions></trkpt>
   <trkpt lat="59.0693154439" lon="30.0350329396"><ele>87.068</ele><time>2026-04-20T19:52:13.697Z</time><hdop>4.75</hdop><vdop>3.5</vdop><extensions><gom:speed>0.927</gom:speed></extensions></trkpt>
   <trkpt lat="59.0693023263" lon="30.0350321014"><ele>87.583</ele><time>2026-04-20T19:52:14.456Z</time><hdop>4.75</hdop><vdop>3.375</vdop><extensions><gom:speed>0.95</gom:speed></extensions></trkpt>
   <trkpt lat="59.0692949502" lon="30.035031347"><ele>87.751</ele><time>2026-04-20T19:52:15.075Z</time><hdop>4.75</hdop><vdop>3.375</vdop><extensions><gom:speed>0.953</gom:speed></extensions></trkpt>
   <trkpt lat="59.0692846405" lon="30.0350315985"><ele>87.851</ele><time>2026-04-20T19:52:16.017Z</time><hdop>4.75</hdop><vdop>3.375</vdop><extensions><gom:speed>0.935</gom:speed></extensions></trkpt>
   <trkpt lat="59.0692745403" lon="30.0350288325"><ele>87.856</ele><time>2026-04-20T19:52:16.757Z</time><hdop>4.75</hdop><vdop>3.5</vdop><extensions><gom:speed>0.963</gom:speed></extensions></trkpt>
   <trkpt lat="59.0692642305" lon="30.035025815"><ele>87.563</ele><time>2026-04-20T19:52:17.522Z</time><hdop>4.875</hdop><vdop>3.75</vdop><extensions><gom:speed>0.975</gom:speed></extensions></trkpt>
   <trkpt lat="59.0692571478" lon="30.0350238871"><ele>87.174</ele><time>2026-04-20T19:52:18.075Z</time><hdop>4.75</hdop><vdop>3.375</vdop><extensions><gom:speed>0.985</gom:speed></extensions></trkpt>
   <trkpt lat="59.0692471314" lon="30.0350192771"><ele>86.941</ele><time>2026-04-20T19:52:18.996Z</time><hdop>4.875</hdop><vdop>3.375</vdop><extensions><gom:speed>0.993</gom:speed></extensions></trkpt>
   <trkpt lat="59.06923854" lon="30.035016092"><ele>86.709</ele><time>2026-04-20T19:52:19.699Z</time><hdop>4.875</hdop><vdop>3.25</vdop><extensions><gom:speed>0.971</gom:speed></extensions></trkpt>
   <trkpt lat="59.0692254223" lon="30.0350113143"><ele>86.481</ele><time>2026-04-20T19:52:20.617Z</time><hdop>4.875</hdop><vdop>3.25</vdop><extensions><gom:speed>0.927</gom:speed></extensions></trkpt>
   <trkpt lat="59.0692219438" lon="30.0350103923"><ele>86.294</ele><time>2026-04-20T19:52:21.076Z</time><hdop>4.875</hdop><vdop>3.125</vdop><extensions><gom:speed>0.933</gom:speed></extensions></trkpt>
   <trkpt lat="59.0692179205" lon="30.0350087159"><ele>86.183</ele><time>2026-04-20T19:52:21.554Z</time><hdop>4.875</hdop><vdop>3.125</vdop><extensions><gom:speed>0.922</gom:speed></extensions></trkpt>
   <trkpt lat="59.0692129333" lon="30.0350074586"><ele>86.043</ele><time>2026-04-20T19:52:22.075Z</time><hdop>4.875</hdop><vdop>3.125</vdop><extensions><gom:speed>0.92</gom:speed></extensions></trkpt>
   <trkpt lat="59.0692034198" lon="30.0350064528"><ele>86.172</ele><time>2026-04-20T19:52:23.075Z</time><hdop>4.75</hdop><vdop>3.125</vdop><extensions><gom:speed>0.882</gom:speed></extensions></trkpt>
   <trkpt lat="59.0691957504" lon="30.0350078777"><ele>86.249</ele><time>2026-04-20T19:52:23.964Z</time><hdop>4.75</hdop><vdop>3.125</vdop><extensions><gom:speed>0.873</gom:speed></extensions></trkpt>
   <trkpt lat="59.0691882486" lon="30.0350104761"><ele>86.206</ele><time>2026-04-20T19:52:24.784Z</time><hdop>4.75</hdop><vdop>3.125</vdop><extensions><gom:speed>0.874</gom:speed></extensions></trkpt>
   <trkpt lat="59.0691801181" lon="30.0350122363"><ele>86.24</ele><time>2026-04-20T19:52:25.641Z</time><hdop>4.75</hdop><vdop>3.125</vdop><extensions><gom:speed>0.854</gom:speed></extensions></trkpt>
   <trkpt lat="59.0691750471" lon="30.0350135774"><ele>86.158</ele><time>2026-04-20T19:52:26.249Z</time><hdop>4.75</hdop><vdop>3.375</vdop><extensions><gom:speed>0.84</gom:speed></extensions></trkpt>
   <trkpt lat="59.0691650307" lon="30.0350155052"><ele>85.579</ele><time>2026-04-20T19:52:27.075Z</time><hdop>4.75</hdop><vdop>3.5</vdop><extensions><gom:speed>0.869</gom:speed></extensions></trkpt>
   <trkpt lat="59.0691582414" lon="30.0350153376"><ele>85.233</ele><time>2026-04-20T19:52:27.844Z</time><hdop>4.75</hdop><vdop>3.5</vdop><extensions><gom:speed>0.913</gom:speed></extensions></trkpt>
   <trkpt lat="59.0691494404" lon="30.0350161758"><ele>84.844</ele><time>2026-04-20T19:52:28.644Z</time><hdop>4.875</hdop><vdop>3.625</vdop><extensions><gom:speed>0.926</gom:speed></extensions></trkpt>
   <trkpt lat="59.0691422319" lon="30.0350208696"><ele>84.488</ele><time>2026-04-20T19:52:29.362Z</time><hdop>4.875</hdop><vdop>3.375</vdop><extensions><gom:speed>0.91</gom:speed></extensions></trkpt>
   <trkpt lat="59.0691364484" lon="30.0350261502"><ele>84.16</ele><time>2026-04-20T19:52:30.075Z</time><hdop>4.875</hdop><vdop>3.375</vdop><extensions><gom:speed>0.853</gom:speed></extensions></trkpt>
   <trkpt lat="59.0691304553" lon="30.0350338616"><ele>83.964</ele><time>2026-04-20T19:52:31.002Z</time><hdop>5.0</hdop><vdop>3.375</vdop><extensions><gom:speed>0.786</gom:speed></extensions></trkpt>
   <trkpt lat="59.0691269349" lon="30.0350447581"><ele>83.682</ele><time>2026-04-20T19:52:31.782Z</time><hdop>5.0</hdop><vdop>3.625</vdop><extensions><gom:speed>0.779</gom:speed></extensions></trkpt>
   <trkpt lat="59.0691257196" lon="30.0350529723"><ele>83.817</ele><time>2026-04-20T19:52:32.409Z</time><hdop>5.0</hdop><vdop>3.75</vdop><extensions><gom:speed>0.783</gom:speed></extensions></trkpt>
   <trkpt lat="59.0691216543" lon="30.0350676407"><ele>83.475</ele><time>2026-04-20T19:52:33.075Z</time><hdop>4.875</hdop><vdop>4.0</vdop><extensions><gom:speed>0.787</gom:speed></extensions></trkpt>
   <trkpt lat="59.0691158289" lon="30.0350756873"><ele>83.059</ele><time>2026-04-20T19:52:34.075Z</time><hdop>4.875</hdop><vdop>4.25</vdop><extensions><gom:speed>0.801</gom:speed></extensions></trkpt>
   <trkpt lat="59.0691089558" lon="30.0350754358"><ele>82.81</ele><time>2026-04-20T19:52:34.979Z</time><hdop>4.875</hdop><vdop>4.25</vdop><extensions><gom:speed>0.81</gom:speed></extensions></trkpt>
   <trkpt lat="59.0691038428" lon="30.0350726698"><ele>82.317</ele><time>2026-04-20T19:52:35.722Z</time><hdop>4.875</hdop><vdop>4.375</vdop><extensions><gom:speed>0.819</gom:speed></extensions></trkpt>
   <trkpt lat="59.0690978497" lon="30.0350699038"><ele>81.905</ele><time>2026-04-20T19:52:36.501Z</time><hdop>4.875</hdop><vdop>4.25</vdop><extensions><gom:speed>0.818</gom:speed></extensions></trkpt>
   <trkpt lat="59.0690936169" lon="30.0350686465"><ele>81.393</ele><time>2026-04-20T19:52:37.075Z</time><hdop>4.875</hdop><vdop>4.25</vdop><extensions><gom:speed>0.805</gom:speed></extensions></trkpt>
   <trkpt lat="59.0690863246" lon="30.0350659643"><ele>81.317</ele><time>2026-04-20T19:52:38.075Z</time><hdop>4.875</hdop><vdop>4.0</vdop><extensions><gom:speed>0.739</gom:speed></extensions></trkpt>
   <trkpt lat="59.0690832233" lon="30.0350637012"><ele>81.272</ele><time>2026-04-20T19:52:38.584Z</time><hdop>4.875</hdop><vdop>4.0</vdop><extensions><gom:speed>0.714</gom:speed></extensions></trkpt>
   <trkpt lat="59.0690781523" lon="30.0350585044"><ele>80.566</ele><time>2026-04-20T19:52:39.075Z</time><hdop>4.875</hdop><vdop>4.0</vdop><extensions><gom:speed>0.719</gom:speed></extensions></trkpt>
   <trkpt lat="59.0690725364" lon="30.0350544811"><ele>79.91</ele><time>2026-04-20T19:52:40.076Z</time><hdop>4.875</hdop><vdop>4.125</vdop><extensions><gom:speed>0.702</gom:speed></extensions></trkpt>
   <trkpt lat="59.0690658309" lon="30.0350521341"><ele>79.146</ele><time>2026-04-20T19:52:41.076Z</time><hdop>4.875</hdop><vdop>4.25</vdop><extensions><gom:speed>0.62</gom:speed></extensions></trkpt>
   <trkpt lat="59.0690582452" lon="30.0350494519"><ele>79.307</ele><time>2026-04-20T19:52:42.075Z</time><hdop>4.75</hdop><vdop>4.125</vdop><extensions><gom:speed>0.695</gom:speed></extensions></trkpt>
   <trkpt lat="59.0690512464" lon="30.0350457639"><ele>79.404</ele><time>2026-04-20T19:52:42.936Z</time><hdop>4.75</hdop><vdop>4.125</vdop><extensions><gom:speed>0.736</gom:speed></extensions></trkpt>
   <trkpt lat="59.0690417329" lon="30.0350424111"><ele>79.305</ele><time>2026-04-20T19:52:43.914Z</time><hdop>4.75</hdop><vdop>4.375</vdop><extensions><gom:speed>0.736</gom:speed></extensions></trkpt>
   <trkpt lat="59.0690332253" lon="30.0350376335"><ele>78.89</ele><time>2026-04-20T19:52:44.979Z</time><hdop>4.625</hdop><vdop>4.5</vdop><extensions><gom:speed>0.688</gom:speed></extensions></trkpt>
   <trkpt lat="59.0690251367" lon="30.0350386393"><ele>78.001</ele><time>2026-04-20T19:52:45.898Z</time><hdop>4.625</hdop><vdop>4.5</vdop><extensions><gom:speed>0.642</gom:speed></extensions></trkpt>
   <trkpt lat="59.0690188503" lon="30.0350478594"><ele>77.417</ele><time>2026-04-20T19:52:46.777Z</time><hdop>4.5</hdop><vdop>4.5</vdop><extensions><gom:speed>0.581</gom:speed></extensions></trkpt>
   <trkpt lat="59.0690144498" lon="30.0350675568"><ele>76.894</ele><time>2026-04-20T19:52:48.075Z</time><hdop>4.375</hdop><vdop>4.125</vdop><extensions><gom:speed>0.53</gom:speed></extensions></trkpt>
   <trkpt lat="59.0690116419" lon="30.0350752682"><ele>76.581</ele><time>2026-04-20T19:52:48.761Z</time><hdop>4.375</hdop><vdop>4.125</vdop><extensions><gom:speed>0.566</gom:speed></extensions></trkpt>
   <trkpt lat="59.0690045172" lon="30.0350840692"><ele>76.445</ele><time>2026-04-20T19:52:49.522Z</time><hdop>4.25</hdop><vdop>4.125</vdop><extensions><gom:speed>0.677</gom:speed></extensions></trkpt>
   <trkpt lat="59.0689985242" lon="30.0350896851"><ele>75.963</ele><time>2026-04-20T19:52:50.075Z</time><hdop>4.25</hdop><vdop>4.0</vdop><extensions><gom:speed>0.706</gom:speed></extensions></trkpt>
   <trkpt lat="59.0689901423" lon="30.0350959715"><ele>75.675</ele><time>2026-04-20T19:52:51.022Z</time><hdop>4.25</hdop><vdop>4.0</vdop><extensions><gom:speed>0.732</gom:speed></extensions></trkpt>
   <trkpt lat="59.0689793296" lon="30.0351073709"><ele>75.374</ele><time>2026-04-20T19:52:51.741Z</time><hdop>4.25</hdop><vdop>4.125</vdop><extensions><gom:speed>0.807</gom:speed></extensions></trkpt>
   <trkpt lat="59.0689725403" lon="30.0351152499"><ele>74.724</ele><time>2026-04-20T19:52:52.482Z</time><hdop>4.375</hdop><vdop>3.875</vdop><extensions><gom:speed>0.845</gom:speed></extensions></trkpt>
   <trkpt lat="59.0689670501" lon="30.0351241347"><ele>73.806</ele><time>2026-04-20T19:52:53.075Z</time><hdop>4.375</hdop><vdop>3.875</vdop><extensions><gom:speed>0.867</gom:speed></extensions></trkpt>
   <trkpt lat="59.0689582491" lon="30.0351409823"><ele>72.803</ele><time>2026-04-20T19:52:54.075Z</time><hdop>4.375</hdop><vdop>3.875</vdop><extensions><gom:speed>0.885</gom:speed></extensions></trkpt>
   <trkpt lat="59.068951837" lon="30.0351535552"><ele>72.204</ele><time>2026-04-20T19:52:54.921Z</time><hdop>4.375</hdop><vdop>3.875</vdop><extensions><gom:speed>0.896</gom:speed></extensions></trkpt>
   <trkpt lat="59.0689456344" lon="30.0351701513"><ele>71.553</ele><time>2026-04-20T19:52:55.742Z</time><hdop>4.5</hdop><vdop>4.0</vdop><extensions><gom:speed>0.889</gom:speed></extensions></trkpt>
   <trkpt lat="59.0689394318" lon="30.0351865799"><ele>70.707</ele><time>2026-04-20T19:52:56.421Z</time><hdop>4.5</hdop><vdop>4.125</vdop><extensions><gom:speed>0.946</gom:speed></extensions></trkpt>
   <trkpt lat="59.0689335225" lon="30.0352005777"><ele>70.646</ele><time>2026-04-20T19:52:57.075Z</time><hdop>4.5</hdop><vdop>4.0</vdop><extensions><gom:speed>0.96</gom:speed></extensions></trkpt>
   <trkpt lat="59.0689229194" lon="30.0352201913"><ele>70.609</ele><time>2026-04-20T19:52:58.019Z</time><hdop>4.5</hdop><vdop>4.0</vdop><extensions><gom:speed>1.006</gom:speed></extensions></trkpt>
   <trkpt lat="59.0689174293" lon="30.0352327642"><ele>70.776</ele><time>2026-04-20T19:52:58.780Z</time><hdop>4.5</hdop><vdop>3.875</vdop><extensions><gom:speed>1.03</gom:speed></extensions></trkpt>
   <trkpt lat="59.0689111428" lon="30.0352476839"><ele>70.829</ele><time>2026-04-20T19:52:59.482Z</time><hdop>4.5</hdop><vdop>3.75</vdop><extensions><gom:speed>1.021</gom:speed></extensions></trkpt>
   <trkpt lat="59.0689059461" lon="30.0352591672"><ele>70.936</ele><time>2026-04-20T19:53:00.075Z</time><hdop>4.5</hdop><vdop>3.5</vdop><extensions><gom:speed>1.024</gom:speed></extensions></trkpt>
   <trkpt lat="59.0688995339" lon="30.0352755957"><ele>71.0</ele><time>2026-04-20T19:53:01.020Z</time><hdop>4.5</hdop><vdop>3.5</vdop><extensions><gom:speed>1.022</gom:speed></extensions></trkpt>
   <trkpt lat="59.0688944209" lon="30.0352900964"><ele>70.883</ele><time>2026-04-20T19:53:01.821Z</time><hdop>4.5</hdop><vdop>3.5</vdop><extensions><gom:speed>0.987</gom:speed></extensions></trkpt>
   <trkpt lat="59.0688872544" lon="30.0353046809"><ele>71.291</ele><time>2026-04-20T19:53:02.619Z</time><hdop>4.625</hdop><vdop>3.5</vdop><extensions><gom:speed>0.986</gom:speed></extensions></trkpt>
   <trkpt lat="59.0688813452" lon="30.0353149068"><ele>71.312</ele><time>2026-04-20T19:53:03.480Z</time><hdop>4.75</hdop><vdop>8.625</vdop><extensions><gom:speed>0.89</gom:speed></extensions></trkpt>
   <trkpt lat="59.068877238" lon="30.035320355"><ele>71.417</ele><time>2026-04-20T19:53:04.037Z</time><hdop>4.75</hdop><vdop>8.375</vdop><extensions><gom:speed>0.883</gom:speed></extensions></trkpt>
   <trkpt lat="59.0688719574" lon="30.0353243784"><ele>71.344</ele><time>2026-04-20T19:53:05.075Z</time><hdop>4.875</hdop><vdop>8.375</vdop><extensions><gom:speed>0.724</gom:speed></extensions></trkpt>
   <trkpt lat="59.0688669283" lon="30.0353248813"><ele>70.956</ele><time>2026-04-20T19:53:06.051Z</time><hdop>5.125</hdop><vdop>8.125</vdop><extensions><gom:speed>0.59</gom:speed></extensions></trkpt>
   <trkpt lat="59.0688631565" lon="30.0353232887"><ele>70.646</ele><time>2026-04-20T19:53:06.999Z</time><hdop>5.25</hdop><vdop>7.75</vdop><extensions><gom:speed>0.441</gom:speed></extensions></trkpt>
   <trkpt lat="59.0688614382" lon="30.0353229534"><ele>70.461</ele><time>2026-04-20T19:53:08.079Z</time><hdop>5.625</hdop><vdop>7.75</vdop><extensions><gom:speed>0.397</gom:speed></extensions></trkpt>
   <trkpt lat="59.0688591331" lon="30.0353263062"><ele>70.232</ele><time>2026-04-20T19:53:08.997Z</time><hdop>5.75</hdop><vdop>7.5</vdop><extensions><gom:speed>0.426</gom:speed></extensions></trkpt>
   <trkpt lat="59.0688556546" lon="30.0353295751"><ele>70.23</ele><time>2026-04-20T19:53:09.876Z</time><hdop>5.875</hdop><vdop>7.375</vdop><extensions><gom:speed>0.446</gom:speed></extensions></trkpt>
   <trkpt lat="59.0688498292" lon="30.0353320897"><ele>70.054</ele><time>2026-04-20T19:53:10.822Z</time><hdop>6.125</hdop><vdop>7.0</vdop><extensions><gom:speed>0.523</gom:speed></extensions></trkpt>
   <trkpt lat="59.0688465184" lon="30.0353344366"><ele>69.802</ele><time>2026-04-20T19:53:11.603Z</time><hdop>6.125</hdop><vdop>7.0</vdop><extensions><gom:speed>0.575</gom:speed></extensions></trkpt>
   <trkpt lat="59.0688431237" lon="30.0353356101"><ele>69.478</ele><time>2026-04-20T19:53:12.351Z</time><hdop>6.125</hdop><vdop>7.0</vdop><extensions><gom:speed>0.59</gom:speed></extensions></trkpt>
   <trkpt lat="59.0688363344" lon="30.0353374541"><ele>69.385</ele><time>2026-04-20T19:53:13.040Z</time><hdop>6.125</hdop><vdop>6.875</vdop><extensions><gom:speed>0.598</gom:speed></extensions></trkpt>
   <trkpt lat="59.0688310538" lon="30.0353409745"><ele>69.358</ele><time>2026-04-20T19:53:13.988Z</time><hdop>6.25</hdop><vdop>6.625</vdop><extensions><gom:speed>0.616</gom:speed></extensions></trkpt>
   <trkpt lat="59.0688296288" lon="30.0353460875"><ele>69.308</ele><time>2026-04-20T19:53:15.076Z</time><hdop>6.375</hdop><vdop>6.5</vdop><extensions><gom:speed>0.555</gom:speed></extensions></trkpt>
   <trkpt lat="59.0688269466" lon="30.035347261"><ele>69.376</ele><time>2026-04-20T19:53:16.001Z</time><hdop>6.375</hdop><vdop>6.5</vdop><extensions><gom:speed>0.517</gom:speed></extensions></trkpt>
   <trkpt lat="59.0688227557" lon="30.0353465066"><ele>69.417</ele><time>2026-04-20T19:53:17.043Z</time><hdop>6.5</hdop><vdop>6.5</vdop><extensions><gom:speed>0.492</gom:speed></extensions></trkpt>
   <trkpt lat="59.0688191515" lon="30.0353451655"><ele>69.495</ele><time>2026-04-20T19:53:18.015Z</time><hdop>6.625</hdop><vdop>6.375</vdop><extensions><gom:speed>0.429</gom:speed></extensions></trkpt>
   <trkpt lat="59.0688182294" lon="30.035344914"><ele>69.541</ele><time>2026-04-20T19:53:18.608Z</time><hdop>6.625</hdop><vdop>6.375</vdop><extensions><gom:speed>0.422</gom:speed></extensions></trkpt>
   <trkpt lat="59.0688143319" lon="30.0353435729"><ele>69.555</ele><time>2026-04-20T19:53:19.265Z</time><hdop>6.75</hdop><vdop>6.25</vdop><extensions><gom:speed>0.42</gom:speed></extensions></trkpt>
   <trkpt lat="59.068811943" lon="30.0353426509"><ele>69.564</ele><time>2026-04-20T19:53:20.085Z</time><hdop>6.75</hdop><vdop>6.25</vdop><extensions><gom:speed>0.386</gom:speed></extensions></trkpt>
   <trkpt lat="59.068808255" lon="30.0353415613"><ele>69.622</ele><time>2026-04-20T19:53:21.021Z</time><hdop>6.875</hdop><vdop>6.125</vdop><extensions><gom:speed>0.418</gom:speed></extensions></trkpt>
   <trkpt lat="59.0688090513" lon="30.0353369512"><ele>68.904</ele><time>2026-04-20T19:53:22.037Z</time><hdop>6.875</hdop><vdop>5.0</vdop><extensions><gom:speed>0.47</gom:speed></extensions></trkpt>
   <trkpt lat="59.0688064529" lon="30.0353297428"><ele>66.029</ele><time>2026-04-20T19:53:22.935Z</time><hdop>6.75</hdop><vdop>4.5</vdop><extensions><gom:speed>0.578</gom:speed></extensions></trkpt>
   <trkpt lat="59.0688007532" lon="30.0353213609"><ele>62.544</ele><time>2026-04-20T19:53:23.858Z</time><hdop>6.5</hdop><vdop>4.25</vdop><extensions><gom:speed>0.629</gom:speed></extensions></trkpt>
   <trkpt lat="59.0687940477" lon="30.0353149068"><ele>59.392</ele><time>2026-04-20T19:53:24.704Z</time><hdop>6.25</hdop><vdop>4.125</vdop><extensions><gom:speed>0.635</gom:speed></extensions></trkpt>
   <trkpt lat="59.0687852467" lon="30.0353118055"><ele>56.671</ele><time>2026-04-20T19:53:25.620Z</time><hdop>6.0</hdop><vdop>4.0</vdop><extensions><gom:speed>0.635</gom:speed></extensions></trkpt>
   <trkpt lat="59.0687812233" lon="30.0353137333"><ele>54.66</ele><time>2026-04-20T19:53:26.075Z</time><hdop>5.75</hdop><vdop>4.0</vdop><extensions><gom:speed>0.636</gom:speed></extensions></trkpt>
   <trkpt lat="59.0687729253" lon="30.0353198521"><ele>52.497</ele><time>2026-04-20T19:53:27.075Z</time><hdop>5.625</hdop><vdop>4.0</vdop><extensions><gom:speed>0.643</gom:speed></extensions></trkpt>
   <trkpt lat="59.0687639566" lon="30.03532639"><ele>51.055</ele><time>2026-04-20T19:53:28.075Z</time><hdop>5.375</hdop><vdop>4.125</vdop><extensions><gom:speed>0.569</gom:speed></extensions></trkpt>
   <trkpt lat="59.0687560357" lon="30.0353330117"><ele>50.173</ele><time>2026-04-20T19:53:29.075Z</time><hdop>5.125</hdop><vdop>4.25</vdop><extensions><gom:speed>0.506</gom:speed></extensions></trkpt>
   <trkpt lat="59.0687513419" lon="30.035337957"><ele>49.646</ele><time>2026-04-20T19:53:29.796Z</time><hdop>5.0</hdop><vdop>4.25</vdop><extensions><gom:speed>0.541</gom:speed></extensions></trkpt>
   <trkpt lat="59.0687448459" lon="30.0353486021"><ele>49.185</ele><time>2026-04-20T19:53:30.804Z</time><hdop>4.875</hdop><vdop>4.375</vdop><extensions><gom:speed>0.586</gom:speed></extensions></trkpt>
   <trkpt lat="59.0687374279" lon="30.0353611749"><ele>48.358</ele><time>2026-04-20T19:53:31.782Z</time><hdop>4.75</hdop><vdop>4.25</vdop><extensions><gom:speed>0.607</gom:speed></extensions></trkpt>
   <trkpt lat="59.0687339494" lon="30.0353717361"><ele>47.385</ele><time>2026-04-20T19:53:32.581Z</time><hdop>4.625</hdop><vdop>4.25</vdop><extensions><gom:speed>0.601</gom:speed></extensions></trkpt>
   <trkpt lat="59.0687315187" lon="30.035378274"><ele>46.631</ele><time>2026-04-20T19:53:33.075Z</time><hdop>4.625</hdop><vdop>4.125</vdop><extensions><gom:speed>0.6</gom:speed></extensions></trkpt>
   <trkpt lat="59.0687256513" lon="30.0353838061"><ele>46.529</ele><time>2026-04-20T19:53:34.007Z</time><hdop>4.625</hdop><vdop>4.25</vdop><extensions><gom:speed>0.596</gom:speed></extensions></trkpt>
   <trkpt lat="59.0687198259" lon="30.0353862368"><ele>46.468</ele><time>2026-04-20T19:53:35.038Z</time><hdop>4.625</hdop><vdop>4.25</vdop><extensions><gom:speed>0.605</gom:speed></extensions></trkpt>
   <trkpt lat="59.0687139167" lon="30.0353887514"><ele>46.14</ele><time>2026-04-20T19:53:35.936Z</time><hdop>4.625</hdop><vdop>4.0</vdop><extensions><gom:speed>0.653</gom:speed></extensions></trkpt>
   <trkpt lat="59.0687086361" lon="30.0353926071"><ele>45.378</ele><time>2026-04-20T19:53:36.715Z</time><hdop>4.75</hdop><vdop>3.875</vdop><extensions><gom:speed>0.696</gom:speed></extensions></trkpt>
   <trkpt lat="59.0687029364" lon="30.0353980553"><ele>44.793</ele><time>2026-04-20T19:53:37.515Z</time><hdop>4.75</hdop><vdop>3.875</vdop><extensions><gom:speed>0.719</gom:speed></extensions></trkpt>
   <trkpt lat="59.0687012181" lon="30.0354017433"><ele>44.047</ele><time>2026-04-20T19:53:38.075Z</time><hdop>4.75</hdop><vdop>3.875</vdop><extensions><gom:speed>0.711</gom:speed></extensions></trkpt>
   <trkpt lat="59.0686966499" lon="30.0354084489"><ele>43.443</ele><time>2026-04-20T19:53:39.075Z</time><hdop>4.75</hdop><vdop>4.0</vdop><extensions><gom:speed>0.717</gom:speed></extensions></trkpt>
   <trkpt lat="59.0686911179" lon="30.0354130589"><ele>43.081</ele><time>2026-04-20T19:53:40.024Z</time><hdop>4.75</hdop><vdop>4.0</vdop><extensions><gom:speed>0.729</gom:speed></extensions></trkpt>
   <trkpt lat="59.0686856277" lon="30.0354230334"><ele>42.845</ele><time>2026-04-20T19:53:40.980Z</time><hdop>4.75</hdop><vdop>4.25</vdop><extensions><gom:speed>0.687</gom:speed></extensions></trkpt>
   <trkpt lat="59.0686798442" lon="30.0354331755"><ele>42.1</ele><time>2026-04-20T19:53:41.938Z</time><hdop>4.75</hdop><vdop>4.375</vdop><extensions><gom:speed>0.669</gom:speed></extensions></trkpt>
   <trkpt lat="59.0686721329" lon="30.0354440719"><ele>41.529</ele><time>2026-04-20T19:53:43.075Z</time><hdop>4.625</hdop><vdop>8.125</vdop><extensions><gom:speed>0.589</gom:speed></extensions></trkpt>
   <trkpt lat="59.068667439" lon="30.0354467541"><ele>41.121</ele><time>2026-04-20T19:53:43.957Z</time><hdop>4.75</hdop><vdop>8.75</vdop><extensions><gom:speed>0.476</gom:speed></extensions></trkpt>
   <trkpt lat="59.0686671456" lon="30.0354473409"><ele>40.877</ele><time>2026-04-20T19:53:44.644Z</time><hdop>4.75</hdop><vdop>8.75</vdop><extensions><gom:speed>0.406</gom:speed></extensions></trkpt>
   <trkpt lat="59.0686646311" lon="30.035451448"><ele>40.453</ele><time>2026-04-20T19:53:45.443Z</time><hdop>4.75</hdop><vdop>8.875</vdop><extensions><gom:speed>0.336</gom:speed></extensions></trkpt>
   <trkpt lat="59.0686629547" lon="30.0354516995"><ele>40.113</ele><time>2026-04-20T19:53:45.971Z</time><hdop>4.75</hdop><vdop>9.0</vdop><extensions><gom:speed>0.339</gom:speed></extensions></trkpt>
   <trkpt lat="59.0686596438" lon="30.03545237"><ele>40.601</ele><time>2026-04-20T19:53:47.075Z</time><hdop>4.875</hdop><vdop>8.875</vdop><extensions><gom:speed>0.335</gom:speed></extensions></trkpt>
   <trkpt lat="59.0686566264" lon="30.0354546331"><ele>40.893</ele><time>2026-04-20T19:53:47.999Z</time><hdop>5.0</hdop><vdop>8.875</vdop><extensions><gom:speed>0.351</gom:speed></extensions></trkpt>
   <trkpt lat="59.0686533574" lon="30.0354579021"><ele>39.89</ele><time>2026-04-20T19:53:48.877Z</time><hdop>5.125</hdop><vdop>8.625</vdop><extensions><gom:speed>0.373</gom:speed></extensions></trkpt>
   <trkpt lat="59.0686507171" lon="30.035462093"><ele>38.344</ele><time>2026-04-20T19:53:49.541Z</time><hdop>5.25</hdop><vdop>8.25</vdop><extensions><gom:speed>0.425</gom:speed></extensions></trkpt>
   <trkpt lat="59.0686490407" lon="30.0354677927"><ele>38.497</ele><time>2026-04-20T19:53:50.075Z</time><hdop>5.375</hdop><vdop>7.5</vdop><extensions><gom:speed>0.443</gom:speed></extensions></trkpt>
   <trkpt lat="59.0686465262" lon="30.0354766775"><ele>38.426</ele><time>2026-04-20T19:53:50.946Z</time><hdop>5.5</hdop><vdop>7.125</vdop><extensions><gom:speed>0.477</gom:speed></extensions></trkpt>
   <trkpt lat="59.0686422514" lon="30.0354843889"><ele>38.025</ele><time>2026-04-20T19:53:52.076Z</time><hdop>5.625</hdop><vdop>6.625</vdop><extensions><gom:speed>0.499</gom:speed></extensions></trkpt>
   <trkpt lat="59.068638731" lon="30.0354879931"><ele>37.786</ele><time>2026-04-20T19:53:53.013Z</time><hdop>5.75</hdop><vdop>6.625</vdop><extensions><gom:speed>0.455</gom:speed></extensions></trkpt>
   <trkpt lat="59.0686363422" lon="30.0354926032"><ele>36.82</ele><time>2026-04-20T19:53:54.075Z</time><hdop>5.75</hdop><vdop>5.75</vdop><extensions><gom:speed>0.365</gom:speed></extensions></trkpt>
   <trkpt lat="59.068636426" lon="30.0354965427"><ele>36.242</ele><time>2026-04-20T19:53:54.721Z</time><hdop>5.75</hdop><vdop>5.75</vdop><extensions><gom:speed>0.373</gom:speed></extensions></trkpt>
   <trkpt lat="59.0686372223" lon="30.0355055113"><ele>35.802</ele><time>2026-04-20T19:53:55.619Z</time><hdop>5.625</hdop><vdop>5.5</vdop><extensions><gom:speed>0.423</gom:speed></extensions></trkpt>
   <trkpt lat="59.0686383538" lon="30.0355164916"><ele>34.689</ele><time>2026-04-20T19:53:56.075Z</time><hdop>5.5</hdop><vdop>5.25</vdop><extensions><gom:speed>0.467</gom:speed></extensions></trkpt>
   <trkpt lat="59.0686388567" lon="30.035520012"><ele>34.024</ele><time>2026-04-20T19:53:56.557Z</time><hdop>5.375</hdop><vdop>5.25</vdop><extensions><gom:speed>0.458</gom:speed></extensions></trkpt>
   <trkpt lat="59.068639653" lon="30.0355262984"><ele>33.636</ele><time>2026-04-20T19:53:57.075Z</time><hdop>5.375</hdop><vdop>5.375</vdop><extensions><gom:speed>0.449</gom:speed></extensions></trkpt>
   <trkpt lat="59.068639653" lon="30.0355331716"><ele>33.263</ele><time>2026-04-20T19:53:58.075Z</time><hdop>5.25</hdop><vdop>9.5</vdop><extensions><gom:speed>0.311</gom:speed></extensions></trkpt>
   <trkpt lat="59.0686389405" lon="30.035532501"><ele>33.04</ele><time>2026-04-20T19:53:58.759Z</time><hdop>5.25</hdop><vdop>9.5</vdop><extensions><gom:speed>0.239</gom:speed></extensions></trkpt>
   <trkpt lat="59.0686369289" lon="30.0355380331"><ele>32.419</ele><time>2026-04-20T19:53:59.737Z</time><hdop>5.125</hdop><vdop>9.375</vdop><extensions><gom:speed>0.262</gom:speed></extensions></trkpt>
   <trkpt lat="59.0686351268" lon="30.0355461635"><ele>30.93</ele><time>2026-04-20T19:54:00.379Z</time><hdop>5.125</hdop><vdop>7.875</vdop><extensions><gom:speed>0.289</gom:speed></extensions></trkpt>
   <trkpt lat="59.0686335342" lon="30.0355486781"><ele>30.04</ele><time>2026-04-20T19:54:00.999Z</time><hdop>5.125</hdop><vdop>7.875</vdop><extensions><gom:speed>0.294</gom:speed></extensions></trkpt>
   <trkpt lat="59.0686309358" lon="30.035556138"><ele>29.307</ele><time>2026-04-20T19:54:01.721Z</time><hdop>5.0</hdop><vdop>7.0</vdop><extensions><gom:speed>0.299</gom:speed></extensions></trkpt>
   <trkpt lat="59.0686275412" lon="30.035564939"><ele>27.877</ele><time>2026-04-20T19:54:02.659Z</time><hdop>5.125</hdop><vdop>6.625</vdop><extensions><gom:speed>0.309</gom:speed></extensions></trkpt>
   <trkpt lat="59.0686241465" lon="30.0355755002"><ele>27.022</ele><time>2026-04-20T19:54:03.358Z</time><hdop>5.125</hdop><vdop>6.25</vdop><extensions><gom:speed>0.359</gom:speed></extensions></trkpt>
   <trkpt lat="59.0686203327" lon="30.0355833792"><ele>26.715</ele><time>2026-04-20T19:54:04.076Z</time><hdop>5.0</hdop><vdop>6.375</vdop><extensions><gom:speed>0.385</gom:speed></extensions></trkpt>
   <trkpt lat="59.0686139206" lon="30.0355926831"><ele>26.138</ele><time>2026-04-20T19:54:05.075Z</time><hdop>5.0</hdop><vdop>6.25</vdop><extensions><gom:speed>0.392</gom:speed></extensions></trkpt>
   <trkpt lat="59.0686069217" lon="30.0355993048"><ele>25.546</ele><time>2026-04-20T19:54:06.075Z</time><hdop>5.0</hdop><vdop>6.125</vdop><extensions><gom:speed>0.39</gom:speed></extensions></trkpt>
   <trkpt lat="59.0685992522" lon="30.0356037472"><ele>24.963</ele><time>2026-04-20T19:54:07.075Z</time><hdop>5.0</hdop><vdop>6.125</vdop><extensions><gom:speed>0.407</gom:speed></extensions></trkpt>
   <trkpt lat="59.0685913313" lon="30.0356078543"><ele>24.898</ele><time>2026-04-20T19:54:08.076Z</time><hdop>5.0</hdop><vdop>6.0</vdop><extensions><gom:speed>0.399</gom:speed></extensions></trkpt>
   <trkpt lat="59.0685840391" lon="30.0356148113"><ele>25.014</ele><time>2026-04-20T19:54:09.075Z</time><hdop>5.0</hdop><vdop>6.0</vdop><extensions><gom:speed>0.424</gom:speed></extensions></trkpt>
   <trkpt lat="59.0685791357" lon="30.0356219359"><ele>25.084</ele><time>2026-04-20T19:54:09.854Z</time><hdop>5.0</hdop><vdop>6.0</vdop><extensions><gom:speed>0.524</gom:speed></extensions></trkpt>
   <trkpt lat="59.068570628" lon="30.0356289767"><ele>26.113</ele><time>2026-04-20T19:54:10.724Z</time><hdop>4.875</hdop><vdop>5.875</vdop><extensions><gom:speed>0.546</gom:speed></extensions></trkpt>
   <trkpt lat="59.0685615337" lon="30.0356348441"><ele>26.876</ele><time>2026-04-20T19:54:12.032Z</time><hdop>4.875</hdop><vdop>5.75</vdop><extensions><gom:speed>0.471</gom:speed></extensions></trkpt>
   <trkpt lat="59.0685566303" lon="30.0356369395"><ele>26.878</ele><time>2026-04-20T19:54:13.075Z</time><hdop>4.875</hdop><vdop>5.625</vdop><extensions><gom:speed>0.38</gom:speed></extensions></trkpt>
   <trkpt lat="59.0685557502" lon="30.0356355984"><ele>27.219</ele><time>2026-04-20T19:54:14.046Z</time><hdop>4.875</hdop><vdop>5.5</vdop><extensions><gom:speed>0.218</gom:speed></extensions></trkpt>
   <trkpt lat="59.0685579294" lon="30.0356319104"><ele>27.423</ele><time>2026-04-20T19:54:14.919Z</time><hdop>4.75</hdop><vdop>5.5</vdop><extensions><gom:speed>0.123</gom:speed></extensions></trkpt>
   <trkpt lat="59.0685545348" lon="30.0356328324"><ele>27.481</ele><time>2026-04-20T19:54:15.659Z</time><hdop>4.75</hdop><vdop>5.5</vdop><extensions><gom:speed>0.121</gom:speed></extensions></trkpt>
   <trkpt lat="59.0685498409" lon="30.0356345926"><ele>27.435</ele><time>2026-04-20T19:54:17.008Z</time><hdop>4.75</hdop><vdop>5.25</vdop><extensions><gom:speed>0.119</gom:speed></extensions></trkpt>
   <trkpt lat="59.0685466558" lon="30.0356359337"><ele>27.075</ele><time>2026-04-20T19:54:18.075Z</time><hdop>4.625</hdop><vdop>4.875</vdop><extensions><gom:speed>0.089</gom:speed></extensions></trkpt>
   <trkpt lat="59.0685453566" lon="30.035636269"><ele>26.469</ele><time>2026-04-20T19:54:19.021Z</time><hdop>4.625</hdop><vdop>4.625</vdop><extensions><gom:speed>0.091</gom:speed></extensions></trkpt>
   <trkpt lat="59.0685423391" lon="30.0356389512"><ele>25.628</ele><time>2026-04-20T19:54:20.075Z</time><hdop>4.625</hdop><vdop>4.375</vdop><extensions><gom:speed>0.096</gom:speed></extensions></trkpt>
   <trkpt lat="59.0685385253" lon="30.0356409628"><ele>25.121</ele><time>2026-04-20T19:54:21.076Z</time><hdop>4.625</hdop><vdop>4.25</vdop><extensions><gom:speed>0.086</gom:speed></extensions></trkpt>
   <trkpt lat="59.068536346" lon="30.0356419687"><ele>24.476</ele><time>2026-04-20T19:54:22.075Z</time><hdop>4.625</hdop><vdop>4.0</vdop><extensions><gom:speed>0.11</gom:speed></extensions></trkpt>
   <trkpt lat="59.0685356336" lon="30.0356428069"><ele>23.687</ele><time>2026-04-20T19:54:23.075Z</time><hdop>4.625</hdop><vdop>3.875</vdop><extensions><gom:speed>0.078</gom:speed></extensions></trkpt>
   <trkpt lat="59.0685341248" lon="30.0356449862"><ele>23.172</ele><time>2026-04-20T19:54:24.075Z</time><hdop>4.5</hdop><vdop>4.0</vdop><extensions><gom:speed>0.072</gom:speed></extensions></trkpt>
   <trkpt lat="59.0685334543" lon="30.0356459082"><ele>22.612</ele><time>2026-04-20T19:54:24.944Z</time><hdop>4.375</hdop><vdop>4.0</vdop><extensions><gom:speed>0.06</gom:speed></extensions></trkpt>
   <trkpt lat="59.0685328256" lon="30.0356454053"><ele>22.277</ele><time>2026-04-20T19:54:25.441Z</time><hdop>4.25</hdop><vdop>4.0</vdop><extensions><gom:speed>0.03</gom:speed></extensions></trkpt>
   <trkpt lat="59.0685325323" lon="30.0356454891"><ele>22.077</ele><time>2026-04-20T19:54:26.035Z</time><hdop>4.25</hdop><vdop>4.0</vdop><extensions><gom:speed>0.073</gom:speed></extensions></trkpt>
   <trkpt lat="59.0685313169" lon="30.0356480875"><ele>21.777</ele><time>2026-04-20T19:54:26.602Z</time><hdop>4.25</hdop><vdop>4.125</vdop><extensions><gom:speed>0.062</gom:speed></extensions></trkpt>
   <trkpt lat="59.0685286347" lon="30.0356539548"><ele>21.677</ele><time>2026-04-20T19:54:27.075Z</time><hdop>4.25</hdop><vdop>4.0</vdop><extensions><gom:speed>0.1</gom:speed></extensions></trkpt>
   <trkpt lat="59.0685256172" lon="30.0356591516"><ele>21.378</ele><time>2026-04-20T19:54:28.075Z</time><hdop>4.125</hdop><vdop>3.875</vdop><extensions><gom:speed>0.133</gom:speed></extensions></trkpt>
   <trkpt lat="59.0685239408" lon="30.0356616661"><ele>20.89</ele><time>2026-04-20T19:54:28.971Z</time><hdop>4.125</hdop><vdop>3.875</vdop><extensions><gom:speed>0.137</gom:speed></extensions></trkpt>
   <trkpt lat="59.0685234379" lon="30.035663594"><ele>20.598</ele><time>2026-04-20T19:54:29.578Z</time><hdop>4.25</hdop><vdop>3.875</vdop><extensions><gom:speed>0.189</gom:speed></extensions></trkpt>
   <trkpt lat="59.06852063" lon="30.0356693775"><ele>19.817</ele><time>2026-04-20T19:54:30.075Z</time><hdop>4.25</hdop><vdop>3.625</vdop><extensions><gom:speed>0.244</gom:speed></extensions></trkpt>
   <trkpt lat="59.0685158523" lon="30.035681196"><ele>18.856</ele><time>2026-04-20T19:54:31.076Z</time><hdop>4.25</hdop><vdop>3.75</vdop><extensions><gom:speed>0.318</gom:speed></extensions></trkpt>
   <trkpt lat="59.0685113261" lon="30.0356947747"><ele>18.254</ele><time>2026-04-20T19:54:32.075Z</time><hdop>4.375</hdop><vdop>9.75</vdop><extensions><gom:speed>0.391</gom:speed></extensions></trkpt>
   <trkpt lat="59.0685098173" lon="30.035698798"><ele>17.894</ele><time>2026-04-20T19:54:32.763Z</time><hdop>4.5</hdop><vdop>9.75</vdop><extensions><gom:speed>0.381</gom:speed></extensions></trkpt>
   <trkpt lat="59.068505333" lon="30.0357105326"><ele>17.622</ele><time>2026-04-20T19:54:33.496Z</time><hdop>4.5</hdop><vdop>10.0</vdop><extensions><gom:speed>0.371</gom:speed></extensions></trkpt>
   <trkpt lat="59.0685047463" lon="30.035714053"><ele>17.444</ele><time>2026-04-20T19:54:33.947Z</time><hdop>4.625</hdop><vdop>9.625</vdop><extensions><gom:speed>0.372</gom:speed></extensions></trkpt>
   <trkpt lat="59.0685046205" lon="30.0357211777"><ele>17.337</ele><time>2026-04-20T19:54:35.038Z</time><hdop>4.625</hdop><vdop>9.625</vdop><extensions><gom:speed>0.405</gom:speed></extensions></trkpt>
   <trkpt lat="59.0685041176" lon="30.0357334991"><ele>17.745</ele><time>2026-04-20T19:54:35.898Z</time><hdop>4.75</hdop><vdop>8.125</vdop><extensions><gom:speed>0.464</gom:speed></extensions></trkpt>
   <trkpt lat="59.0684980407" lon="30.0357495923"><ele>18.742</ele><time>2026-04-20T19:54:37.075Z</time><hdop>4.875</hdop><vdop>6.75</vdop><extensions><gom:speed>0.374</gom:speed></extensions></trkpt>
   <trkpt lat="59.068492844" lon="30.0357542024"><ele>19.236</ele><time>2026-04-20T19:54:38.076Z</time><hdop>5.0</hdop><vdop>6.375</vdop><extensions><gom:speed>0.266</gom:speed></extensions></trkpt>
   <trkpt lat="59.0684907485" lon="30.035755292"><ele>19.532</ele><time>2026-04-20T19:54:38.660Z</time><hdop>5.125</hdop><vdop>6.375</vdop><extensions><gom:speed>0.255</gom:speed></extensions></trkpt>
   <trkpt lat="59.0684852164" lon="30.0357652665"><ele>18.776</ele><time>2026-04-20T19:54:39.989Z</time><hdop>5.125</hdop><vdop>5.75</vdop><extensions><gom:speed>0.274</gom:speed></extensions></trkpt>
   <trkpt lat="59.0684825342" lon="30.035769206"><ele>18.44</ele><time>2026-04-20T19:54:41.076Z</time><hdop>5.125</hdop><vdop>5.875</vdop><extensions><gom:speed>0.195</gom:speed></extensions></trkpt>
   <trkpt lat="59.0684818218" lon="30.03577105"><ele>18.24</ele><time>2026-04-20T19:54:42.056Z</time><hdop>5.125</hdop><vdop>5.875</vdop><extensions><gom:speed>0.176</gom:speed></extensions></trkpt>
   <trkpt lat="59.0684786366" lon="30.0357790128"><ele>18.116</ele><time>2026-04-20T19:54:42.984Z</time><hdop>5.125</hdop><vdop>5.625</vdop><extensions><gom:speed>0.204</gom:speed></extensions></trkpt>
   <trkpt lat="59.0684715539" lon="30.0357938488"><ele>18.425</ele><time>2026-04-20T19:54:44.075Z</time><hdop>5.125</hdop><vdop>5.75</vdop><extensions><gom:speed>0.292</gom:speed></extensions></trkpt>
   <trkpt lat="59.0684653513" lon="30.0358087685"><ele>18.382</ele><time>2026-04-20T19:54:45.076Z</time><hdop>5.0</hdop><vdop>5.625</vdop><extensions><gom:speed>0.423</gom:speed></extensions></trkpt>
   <trkpt lat="59.0684607413" lon="30.0358200841"><ele>18.357</ele><time>2026-04-20T19:54:45.914Z</time><hdop>5.0</hdop><vdop>5.625</vdop><extensions><gom:speed>0.528</gom:speed></extensions></trkpt>
   <trkpt lat="59.0684520241" lon="30.0358433858"><ele>17.979</ele><time>2026-04-20T19:54:47.001Z</time><hdop>4.875</hdop><vdop>5.75</vdop><extensions><gom:speed>0.606</gom:speed></extensions></trkpt>
   <trkpt lat="59.0684456539" lon="30.0358656817"><ele>17.097</ele><time>2026-04-20T19:54:48.076Z</time><hdop>4.75</hdop><vdop>5.875</vdop><extensions><gom:speed>0.586</gom:speed></extensions></trkpt>
   <trkpt lat="59.0684450252" lon="30.0358776678"><ele>16.569</ele><time>2026-04-20T19:54:49.054Z</time><hdop>4.625</hdop><vdop>5.875</vdop><extensions><gom:speed>0.56</gom:speed></extensions></trkpt>
   <trkpt lat="59.0684402475" lon="30.035890073"><ele>15.784</ele><time>2026-04-20T19:54:49.716Z</time><hdop>4.625</hdop><vdop>5.625</vdop><extensions><gom:speed>0.6</gom:speed></extensions></trkpt>
   <trkpt lat="59.0684315303" lon="30.0359020591"><ele>15.16</ele><time>2026-04-20T19:54:50.940Z</time><hdop>4.375</hdop><vdop>5.5</vdop><extensions><gom:speed>0.508</gom:speed></extensions></trkpt>
   <trkpt lat="59.0684234418" lon="30.0359114469"><ele>14.597</ele><time>2026-04-20T19:54:51.699Z</time><hdop>4.25</hdop><vdop>5.375</vdop><extensions><gom:speed>0.547</gom:speed></extensions></trkpt>
   <trkpt lat="59.0684208434" lon="30.0359148834"><ele>13.962</ele><time>2026-04-20T19:54:52.411Z</time><hdop>4.25</hdop><vdop>5.5</vdop><extensions><gom:speed>0.574</gom:speed></extensions></trkpt>
   <trkpt lat="59.0684155209" lon="30.0359216728"><ele>13.601</ele><time>2026-04-20T19:54:53.075Z</time><hdop>4.25</hdop><vdop>5.375</vdop><extensions><gom:speed>0.591</gom:speed></extensions></trkpt>
   <trkpt lat="59.0684100308" lon="30.0359238521"><ele>13.497</ele><time>2026-04-20T19:54:53.967Z</time><hdop>4.25</hdop><vdop>5.375</vdop><extensions><gom:speed>0.557</gom:speed></extensions></trkpt>
   <trkpt lat="59.0684063427" lon="30.0359279592"><ele>13.562</ele><time>2026-04-20T19:54:55.075Z</time><hdop>4.25</hdop><vdop>5.25</vdop><extensions><gom:speed>0.381</gom:speed></extensions></trkpt>
   <trkpt lat="59.0684054207" lon="30.035938688"><ele>13.618</ele><time>2026-04-20T19:54:56.075Z</time><hdop>4.375</hdop><vdop>5.25</vdop><extensions><gom:speed>0.39</gom:speed></extensions></trkpt>
   <trkpt lat="59.0684051274" lon="30.035945645"><ele>13.652</ele><time>2026-04-20T19:54:57.020Z</time><hdop>4.5</hdop><vdop>5.25</vdop><extensions><gom:speed>0.368</gom:speed></extensions></trkpt>
   <trkpt lat="59.0684039539" lon="30.0359505065"><ele>13.541</ele><time>2026-04-20T19:54:57.520Z</time><hdop>4.5</hdop><vdop>5.375</vdop><extensions><gom:speed>0.395</gom:speed></extensions></trkpt>
   <trkpt lat="59.0684019422" lon="30.0359603134"><ele>13.325</ele><time>2026-04-20T19:54:57.993Z</time><hdop>4.625</hdop><vdop>5.375</vdop><extensions><gom:speed>0.455</gom:speed></extensions></trkpt>
   <trkpt lat="59.0684004335" lon="30.0359671027"><ele>13.195</ele><time>2026-04-20T19:54:58.975Z</time><hdop>4.75</hdop><vdop>5.375</vdop><extensions><gom:speed>0.475</gom:speed></extensions></trkpt>
   <trkpt lat="59.0683979189" lon="30.0359769933"><ele>12.768</ele><time>2026-04-20T19:54:59.813Z</time><hdop>4.75</hdop><vdop>5.5</vdop><extensions><gom:speed>0.538</gom:speed></extensions></trkpt>
   <trkpt lat="59.0683953205" lon="30.0359883089"><ele>12.165</ele><time>2026-04-20T19:55:00.475Z</time><hdop>4.875</hdop><vdop>5.375</vdop><extensions><gom:speed>0.588</gom:speed></extensions></trkpt>
   <trkpt lat="59.0683923449" lon="30.0359961879"><ele>11.603</ele><time>2026-04-20T19:55:01.075Z</time><hdop>4.875</hdop><vdop>5.5</vdop><extensions><gom:speed>0.606</gom:speed></extensions></trkpt>
   <trkpt lat="59.0683851365" lon="30.0360073358"><ele>11.314</ele><time>2026-04-20T19:55:02.075Z</time><hdop>5.125</hdop><vdop>5.5</vdop><extensions><gom:speed>0.622</gom:speed></extensions></trkpt>
   <trkpt lat="59.0683792273" lon="30.0360140414"><ele>11.14</ele><time>2026-04-20T19:55:02.874Z</time><hdop>5.125</hdop><vdop>5.5</vdop><extensions><gom:speed>0.681</gom:speed></extensions></trkpt>
   <trkpt lat="59.0683704263" lon="30.0360235967"><ele>10.986</ele><time>2026-04-20T19:55:03.636Z</time><hdop>5.25</hdop><vdop>5.625</vdop><extensions><gom:speed>0.8</gom:speed></extensions></trkpt>
   <trkpt lat="59.0683591526" lon="30.0360380974"><ele>10.444</ele><time>2026-04-20T19:55:04.503Z</time><hdop>5.25</hdop><vdop>5.25</vdop><extensions><gom:speed>0.828</gom:speed></extensions></trkpt>
   <trkpt lat="59.0683536206" lon="30.036049413"><ele>9.776</ele><time>2026-04-20T19:55:05.075Z</time><hdop>5.125</hdop><vdop>5.125</vdop><extensions><gom:speed>0.87</gom:speed></extensions></trkpt>
   <trkpt lat="59.0683484238" lon="30.0360647519"><ele>9.376</ele><time>2026-04-20T19:55:06.004Z</time><hdop>5.125</hdop><vdop>5.125</vdop><extensions><gom:speed>0.849</gom:speed></extensions></trkpt>
   <trkpt lat="59.0683431432" lon="30.0360841141"><ele>8.698</ele><time>2026-04-20T19:55:06.979Z</time><hdop>5.125</hdop><vdop>4.875</vdop><extensions><gom:speed>0.835</gom:speed></extensions></trkpt>
   <trkpt lat="59.068339539" lon="30.0360987824"><ele>8.433</ele><time>2026-04-20T19:55:07.702Z</time><hdop>5.25</hdop><vdop>4.75</vdop><extensions><gom:speed>0.751</gom:speed></extensions></trkpt>
   <trkpt lat="59.0683341326" lon="30.0361210783"><ele>8.611</ele><time>2026-04-20T19:55:09.075Z</time><hdop>5.25</hdop><vdop>5.0</vdop><extensions><gom:speed>0.65</gom:speed></extensions></trkpt>
   <trkpt lat="59.0683340488" lon="30.036121665"><ele>8.717</ele><time>2026-04-20T19:55:09.839Z</time><hdop>5.25</hdop><vdop>5.0</vdop><extensions><gom:speed>0.527</gom:speed></extensions></trkpt>
   <trkpt lat="59.0683314504" lon="30.0361273647"><ele>9.47</ele><time>2026-04-20T19:55:11.025Z</time><hdop>5.25</hdop><vdop>4.875</vdop><extensions><gom:speed>0.325</gom:speed></extensions></trkpt>
   <trkpt lat="59.0683308218" lon="30.036126275"><ele>10.733</ele><time>2026-04-20T19:55:12.075Z</time><hdop>5.125</hdop><vdop>4.75</vdop><extensions><gom:speed>0.241</gom:speed></extensions></trkpt>
   <trkpt lat="59.0683301512" lon="30.0361235928"><ele>12.139</ele><time>2026-04-20T19:55:13.075Z</time><hdop>5.0</hdop><vdop>4.625</vdop><extensions><gom:speed>0.132</gom:speed></extensions></trkpt>
   <trkpt lat="59.0683285168" lon="30.036121665"><ele>13.427</ele><time>2026-04-20T19:55:14.075Z</time><hdop>4.875</hdop><vdop>4.625</vdop><extensions><gom:speed>0.102</gom:speed></extensions></trkpt>
   <trkpt lat="59.0683259184" lon="30.0361185637"><ele>13.975</ele><time>2026-04-20T19:55:15.076Z</time><hdop>4.75</hdop><vdop>4.375</vdop><extensions><gom:speed>0.135</gom:speed></extensions></trkpt>
   <trkpt lat="59.0683249544" lon="30.0361186475"><ele>14.302</ele><time>2026-04-20T19:55:15.682Z</time><hdop>4.5</hdop><vdop>4.375</vdop><extensions><gom:speed>0.118</gom:speed></extensions></trkpt>
   <trkpt lat="59.0683205539" lon="30.0361168035"><ele>14.652</ele><time>2026-04-20T19:55:16.864Z</time><hdop>4.375</hdop><vdop>4.375</vdop><extensions><gom:speed>0.119</gom:speed></extensions></trkpt>
   <trkpt lat="59.0683158182" lon="30.0361142889"><ele>14.456</ele><time>2026-04-20T19:55:18.013Z</time><hdop>4.375</hdop><vdop>4.125</vdop><extensions><gom:speed>0.126</gom:speed></extensions></trkpt>
   <trkpt lat="59.0683109567" lon="30.0361103494"><ele>14.774</ele><time>2026-04-20T19:55:19.075Z</time><hdop>4.5</hdop><vdop>4.25</vdop><extensions><gom:speed>0.124</gom:speed></extensions></trkpt>
   <trkpt lat="59.0683063466" lon="30.036105907"><ele>14.818</ele><time>2026-04-20T19:55:20.075Z</time><hdop>4.5</hdop><vdop>4.125</vdop><extensions><gom:speed>0.112</gom:speed></extensions></trkpt>
   <trkpt lat="59.0683022395" lon="30.0360992853"><ele>15.016</ele><time>2026-04-20T19:55:21.075Z</time><hdop>4.625</hdop><vdop>4.125</vdop><extensions><gom:speed>0.099</gom:speed></extensions></trkpt>
   <trkpt lat="59.0682988448" lon="30.0360940885"><ele>15.473</ele><time>2026-04-20T19:55:22.075Z</time><hdop>4.75</hdop><vdop>4.0</vdop><extensions><gom:speed>0.122</gom:speed></extensions></trkpt>
   <trkpt lat="59.0682980485" lon="30.0360921607"><ele>15.747</ele><time>2026-04-20T19:55:22.943Z</time><hdop>4.75</hdop><vdop>4.0</vdop><extensions><gom:speed>0.102</gom:speed></extensions></trkpt>
   <trkpt lat="59.0682967493" lon="30.0360878859"><ele>16.988</ele><time>2026-04-20T19:55:24.075Z</time><hdop>4.75</hdop><vdop>3.75</vdop><extensions><gom:speed>0.101</gom:speed></extensions></trkpt>
   <trkpt lat="59.0682963302" lon="30.0360868801"><ele>17.797</ele><time>2026-04-20T19:55:25.001Z</time><hdop>4.75</hdop><vdop>3.625</vdop><extensions><gom:speed>0.106</gom:speed></extensions></trkpt>
   <trkpt lat="59.0682962464" lon="30.0360872992"><ele>17.754</ele><time>2026-04-20T19:55:25.950Z</time><hdop>4.75</hdop><vdop>3.5</vdop><extensions><gom:speed>0.098</gom:speed></extensions></trkpt>
   <trkpt lat="59.0682953244" lon="30.0360850361"><ele>18.084</ele><time>2026-04-20T19:55:27.075Z</time><hdop>4.625</hdop><vdop>3.5</vdop><extensions><gom:speed>0.127</gom:speed></extensions></trkpt>
   <trkpt lat="59.0682943186" lon="30.0360841979"><ele>18.134</ele><time>2026-04-20T19:55:27.964Z</time><hdop>4.625</hdop><vdop>3.75</vdop><extensions><gom:speed>0.114</gom:speed></extensions></trkpt>
   <trkpt lat="59.068294151" lon="30.0360841979"><ele>18.164</ele><time>2026-04-20T19:55:28.618Z</time><hdop>4.625</hdop><vdop>3.75</vdop><extensions><gom:speed>0.085</gom:speed></extensions></trkpt>
   <trkpt lat="59.0682934385" lon="30.0360821024"><ele>18.44</ele><time>2026-04-20T19:55:29.076Z</time><hdop>4.625</hdop><vdop>4.0</vdop><extensions><gom:speed>0.121</gom:speed></extensions></trkpt>
   <trkpt lat="59.0682930194" lon="30.0360810966"><ele>18.605</ele><time>2026-04-20T19:55:29.717Z</time><hdop>4.625</hdop><vdop>4.0</vdop><extensions><gom:speed>0.121</gom:speed></extensions></trkpt>
   <trkpt lat="59.0682917202" lon="30.0360803422"><ele>18.775</ele><time>2026-04-20T19:55:30.474Z</time><hdop>4.5</hdop><vdop>4.0</vdop><extensions><gom:speed>0.131</gom:speed></extensions></trkpt>
   <trkpt lat="59.0682901276" lon="30.0360807613"><ele>19.272</ele><time>2026-04-20T19:55:31.075Z</time><hdop>4.5</hdop><vdop>4.125</vdop><extensions><gom:speed>0.178</gom:speed></extensions></trkpt>
   <trkpt lat="59.0682850566" lon="30.0360824377"><ele>19.557</ele><time>2026-04-20T19:55:32.075Z</time><hdop>4.5</hdop><vdop>4.25</vdop><extensions><gom:speed>0.278</gom:speed></extensions></trkpt>
   <trkpt lat="59.0682781415" lon="30.0360826891"><ele>19.727</ele><time>2026-04-20T19:55:32.945Z</time><hdop>4.5</hdop><vdop>4.25</vdop><extensions><gom:speed>0.439</gom:speed></extensions></trkpt>
   <trkpt lat="59.0682669517" lon="30.0360826053"><ele>20.2</ele><time>2026-04-20T19:55:33.922Z</time><hdop>4.5</hdop><vdop>4.125</vdop><extensions><gom:speed>0.612</gom:speed></extensions></trkpt>
   <trkpt lat="59.0682614196" lon="30.0360843655"><ele>20.699</ele><time>2026-04-20T19:55:34.596Z</time><hdop>4.5</hdop><vdop>4.25</vdop><extensions><gom:speed>0.668</gom:speed></extensions></trkpt>
   <trkpt lat="59.0682531215" lon="30.0360875506"><ele>20.75</ele><time>2026-04-20T19:55:35.075Z</time><hdop>4.625</hdop><vdop>4.25</vdop><extensions><gom:speed>0.69</gom:speed></extensions></trkpt>
   <trkpt lat="59.0682486372" lon="30.0360883888"><ele>20.781</ele><time>2026-04-20T19:55:35.696Z</time><hdop>4.625</hdop><vdop>4.25</vdop><extensions><gom:speed>0.697</gom:speed></extensions></trkpt>
   <trkpt lat="59.0682412192" lon="30.0360870477"><ele>21.072</ele><time>2026-04-20T19:55:36.653Z</time><hdop>4.625</hdop><vdop>4.25</vdop><extensions><gom:speed>0.634</gom:speed></extensions></trkpt>
   <trkpt lat="59.0682356453" lon="30.0360862095"><ele>21.554</ele><time>2026-04-20T19:55:37.433Z</time><hdop>4.625</hdop><vdop>4.25</vdop><extensions><gom:speed>0.549</gom:speed></extensions></trkpt>
   <trkpt lat="59.0682308257" lon="30.0360868801"><ele>21.543</ele><time>2026-04-20T19:55:38.075Z</time><hdop>4.625</hdop><vdop>4.25</vdop><extensions><gom:speed>0.546</gom:speed></extensions></trkpt>
   <trkpt lat="59.0682236172" lon="30.0360893947"><ele>21.914</ele><time>2026-04-20T19:55:39.075Z</time><hdop>4.625</hdop><vdop>4.375</vdop><extensions><gom:speed>0.528</gom:speed></extensions></trkpt>
   <trkpt lat="59.0682177499" lon="30.0360930827"><ele>22.526</ele><time>2026-04-20T19:55:40.075Z</time><hdop>4.5</hdop><vdop>4.5</vdop><extensions><gom:speed>0.466</gom:speed></extensions></trkpt>
   <trkpt lat="59.0682158221" lon="30.0360950944"><ele>22.891</ele><time>2026-04-20T19:55:40.756Z</time><hdop>4.5</hdop><vdop>4.5</vdop><extensions><gom:speed>0.447</gom:speed></extensions></trkpt>
   <trkpt lat="59.0682126369" lon="30.0360983633"><ele>23.296</ele><time>2026-04-20T19:55:41.325Z</time><hdop>4.5</hdop><vdop>4.75</vdop><extensions><gom:speed>0.436</gom:speed></extensions></trkpt>
   <trkpt lat="59.068214942" lon="30.0360979442"><ele>23.08</ele><time>2026-04-20T19:55:41.942Z</time><hdop>4.625</hdop><vdop>4.875</vdop><extensions><gom:speed>0.257</gom:speed></extensions></trkpt>
   <trkpt lat="59.0682182528" lon="30.0360957649"><ele>22.951</ele><time>2026-04-20T19:55:42.868Z</time><hdop>4.625</hdop><vdop>4.875</vdop><extensions><gom:speed>0.135</gom:speed></extensions></trkpt>
   <trkpt lat="59.0682196358" lon="30.0360946753"><ele>22.524</ele><time>2026-04-20T19:55:43.762Z</time><hdop>4.75</hdop><vdop>4.875</vdop><extensions><gom:speed>0.093</gom:speed></extensions></trkpt>
   <trkpt lat="59.0682192167" lon="30.0360940047"><ele>22.0</ele><time>2026-04-20T19:55:44.584Z</time><hdop>4.75</hdop><vdop>4.75</vdop><extensions><gom:speed>0.157</gom:speed></extensions></trkpt>
   <trkpt lat="59.0682174565" lon="30.0360942562"><ele>22.171</ele><time>2026-04-20T19:55:45.075Z</time><hdop>4.75</hdop><vdop>4.75</vdop><extensions><gom:speed>0.17</gom:speed></extensions></trkpt>
   <trkpt lat="59.0682134332" lon="30.0360951782"><ele>21.936</ele><time>2026-04-20T19:55:46.075Z</time><hdop>4.75</hdop><vdop>4.75</vdop><extensions><gom:speed>0.2</gom:speed></extensions></trkpt>
   <trkpt lat="59.0682120502" lon="30.0360957649"><ele>21.796</ele><time>2026-04-20T19:55:46.916Z</time><hdop>4.75</hdop><vdop>4.75</vdop><extensions><gom:speed>0.221</gom:speed></extensions></trkpt>
   <trkpt lat="59.0682092423" lon="30.0360962678"><ele>21.428</ele><time>2026-04-20T19:55:47.643Z</time><hdop>4.625</hdop><vdop>5.0</vdop><extensions><gom:speed>0.232</gom:speed></extensions></trkpt>
   <trkpt lat="59.068204255" lon="30.036099872"><ele>21.154</ele><time>2026-04-20T19:55:49.042Z</time><hdop>4.625</hdop><vdop>5.25</vdop><extensions><gom:speed>0.252</gom:speed></extensions></trkpt>
   <trkpt lat="59.0682001479" lon="30.0361018837"><ele>21.246</ele><time>2026-04-20T19:55:49.940Z</time><hdop>4.625</hdop><vdop>5.25</vdop><extensions><gom:speed>0.266</gom:speed></extensions></trkpt>
   <trkpt lat="59.0681941548" lon="30.0361028895"><ele>21.342</ele><time>2026-04-20T19:55:51.078Z</time><hdop>4.75</hdop><vdop>5.375</vdop><extensions><gom:speed>0.299</gom:speed></extensions></trkpt>
   <trkpt lat="59.0681867369" lon="30.0361036439"><ele>21.032</ele><time>2026-04-20T19:55:51.994Z</time><hdop>4.75</hdop><vdop>5.375</vdop><extensions><gom:speed>0.393</gom:speed></extensions></trkpt>
   <trkpt lat="59.0681762176" lon="30.036104985"><ele>20.895</ele><time>2026-04-20T19:55:52.862Z</time><hdop>4.75</hdop><vdop>5.375</vdop><extensions><gom:speed>0.5</gom:speed></extensions></trkpt>
   <trkpt lat="59.0681655306" lon="30.0361035601"><ele>20.906</ele><time>2026-04-20T19:55:53.900Z</time><hdop>4.875</hdop><vdop>5.125</vdop><extensions><gom:speed>0.533</gom:speed></extensions></trkpt>
   <trkpt lat="59.0681576517" lon="30.0361035601"><ele>20.546</ele><time>2026-04-20T19:55:54.619Z</time><hdop>4.75</hdop><vdop>5.0</vdop><extensions><gom:speed>0.555</gom:speed></extensions></trkpt>
   <trkpt lat="59.06815103" lon="30.0361044821"><ele>20.129</ele><time>2026-04-20T19:55:55.579Z</time><hdop>4.875</hdop><vdop>5.0</vdop><extensions><gom:speed>0.579</gom:speed></extensions></trkpt>
   <trkpt lat="59.0681481382" lon="30.0361062423"><ele>20.112</ele><time>2026-04-20T19:55:56.037Z</time><hdop>4.875</hdop><vdop>9.125</vdop><extensions><gom:speed>0.59</gom:speed></extensions></trkpt>
   <trkpt lat="59.0681446178" lon="30.0361090083"><ele>20.101</ele><time>2026-04-20T19:55:56.666Z</time><hdop>4.875</hdop><vdop>9.125</vdop><extensions><gom:speed>0.596</gom:speed></extensions></trkpt>
   <trkpt lat="59.068139421" lon="30.0361127802"><ele>20.088</ele><time>2026-04-20T19:55:57.523Z</time><hdop>5.0</hdop><vdop>8.75</vdop><extensions><gom:speed>0.65</gom:speed></extensions></trkpt>
   <trkpt lat="59.068135733" lon="30.0361153786"><ele>19.557</ele><time>2026-04-20T19:55:58.075Z</time><hdop>5.0</hdop><vdop>7.875</vdop><extensions><gom:speed>0.648</gom:speed></extensions></trkpt>
   <trkpt lat="59.0681298237" lon="30.0361194857"><ele>20.73</ele><time>2026-04-20T19:55:59.075Z</time><hdop>5.125</hdop><vdop>6.75</vdop><extensions><gom:speed>0.612</gom:speed></extensions></trkpt>
   <trkpt lat="59.0681249203" lon="30.0361259398"><ele>21.204</ele><time>2026-04-20T19:56:00.075Z</time><hdop>5.125</hdop><vdop>6.375</vdop><extensions><gom:speed>0.589</gom:speed></extensions></trkpt>
   <trkpt lat="59.0681201426" lon="30.0361333997"><ele>21.488</ele><time>2026-04-20T19:56:01.057Z</time><hdop>5.25</hdop><vdop>6.375</vdop><extensions><gom:speed>0.636</gom:speed></extensions></trkpt>
   <trkpt lat="59.068112557" lon="30.0361402728"><ele>21.188</ele><time>2026-04-20T19:56:01.895Z</time><hdop>5.125</hdop><vdop>6.0</vdop><extensions><gom:speed>0.721</gom:speed></extensions></trkpt>
   <trkpt lat="59.0681027502" lon="30.036145302"><ele>21.351</ele><time>2026-04-20T19:56:02.882Z</time><hdop>5.125</hdop><vdop>5.5</vdop><extensions><gom:speed>0.711</gom:speed></extensions></trkpt>
   <trkpt lat="59.0680937396" lon="30.0361485709"><ele>21.629</ele><time>2026-04-20T19:56:03.878Z</time><hdop>5.125</hdop><vdop>8.75</vdop><extensions><gom:speed>0.702</gom:speed></extensions></trkpt>
   <trkpt lat="59.0680858188" lon="30.0361528457"><ele>22.793</ele><time>2026-04-20T19:56:04.738Z</time><hdop>5.125</hdop><vdop>7.0</vdop><extensions><gom:speed>0.713</gom:speed></extensions></trkpt>
   <trkpt lat="59.068080622" lon="30.0361589645"><ele>22.935</ele><time>2026-04-20T19:56:05.558Z</time><hdop>5.25</hdop><vdop>6.375</vdop><extensions><gom:speed>0.697</gom:speed></extensions></trkpt>
   <trkpt lat="59.068077353" lon="30.0361632392"><ele>22.458</ele><time>2026-04-20T19:56:06.075Z</time><hdop>5.25</hdop><vdop>8.25</vdop><extensions><gom:speed>0.686</gom:speed></extensions></trkpt>
   <trkpt lat="59.0680749223" lon="30.0361670111"><ele>22.173</ele><time>2026-04-20T19:56:06.556Z</time><hdop>5.25</hdop><vdop>8.25</vdop><extensions><gom:speed>0.664</gom:speed></extensions></trkpt>
   <trkpt lat="59.0680719467" lon="30.0361704477"><ele>21.694</ele><time>2026-04-20T19:56:07.075Z</time><hdop>5.25</hdop><vdop>7.375</vdop><extensions><gom:speed>0.642</gom:speed></extensions></trkpt>
   <trkpt lat="59.0680688454" lon="30.0361743872"><ele>21.407</ele><time>2026-04-20T19:56:07.660Z</time><hdop>5.375</hdop><vdop>7.375</vdop><extensions><gom:speed>0.662</gom:speed></extensions></trkpt>
   <trkpt lat="59.0680633552" lon="30.0361789134"><ele>21.338</ele><time>2026-04-20T19:56:08.617Z</time><hdop>5.5</hdop><vdop>6.25</vdop><extensions><gom:speed>0.657</gom:speed></extensions></trkpt>
   <trkpt lat="59.0680602539" lon="30.0361784105"><ele>22.153</ele><time>2026-04-20T19:56:09.075Z</time><hdop>5.5</hdop><vdop>6.125</vdop><extensions><gom:speed>0.642</gom:speed></extensions></trkpt>
   <trkpt lat="59.0680541352" lon="30.0361746386"><ele>23.228</ele><time>2026-04-20T19:56:10.075Z</time><hdop>5.625</hdop><vdop>5.875</vdop><extensions><gom:speed>0.546</gom:speed></extensions></trkpt>
   <trkpt lat="59.0680488546" lon="30.0361727108"><ele>23.982</ele><time>2026-04-20T19:56:11.075Z</time><hdop>5.625</hdop><vdop>5.625</vdop><extensions><gom:speed>0.487</gom:speed></extensions></trkpt>
   <trkpt lat="59.0680475554" lon="30.0361717888"><ele>24.433</ele><time>2026-04-20T19:56:11.673Z</time><hdop>5.625</hdop><vdop>5.625</vdop><extensions><gom:speed>0.47</gom:speed></extensions></trkpt>
   <trkpt lat="59.068041227" lon="30.0361706991"><ele>24.804</ele><time>2026-04-20T19:56:12.303Z</time><hdop>5.75</hdop><vdop>5.5</vdop><extensions><gom:speed>0.472</gom:speed></extensions></trkpt>
   <trkpt lat="59.068038922" lon="30.0361704477"><ele>25.027</ele><time>2026-04-20T19:56:12.822Z</time><hdop>5.75</hdop><vdop>5.5</vdop><extensions><gom:speed>0.462</gom:speed></extensions></trkpt>
   <trkpt lat="59.0680359464" lon="30.036171705"><ele>25.39</ele><time>2026-04-20T19:56:13.276Z</time><hdop>5.625</hdop><vdop>5.625</vdop><extensions><gom:speed>0.467</gom:speed></extensions></trkpt>
   <trkpt lat="59.0680317555" lon="30.0361736328"><ele>25.152</ele><time>2026-04-20T19:56:14.075Z</time><hdop>5.625</hdop><vdop>5.5</vdop><extensions><gom:speed>0.41</gom:speed></extensions></trkpt>
   <trkpt lat="59.0680305401" lon="30.0361746386"><ele>25.01</ele><time>2026-04-20T19:56:14.619Z</time><hdop>5.625</hdop><vdop>5.5</vdop><extensions><gom:speed>0.333</gom:speed></extensions></trkpt>
   <trkpt lat="59.0680285284" lon="30.0361766503"><ele>24.695</ele><time>2026-04-20T19:56:15.075Z</time><hdop>5.625</hdop><vdop>5.375</vdop><extensions><gom:speed>0.34</gom:speed></extensions></trkpt>
   <trkpt lat="59.0680269359" lon="30.0361774046"><ele>24.507</ele><time>2026-04-20T19:56:15.620Z</time><hdop>5.5</hdop><vdop>5.375</vdop><extensions><gom:speed>0.326</gom:speed></extensions></trkpt>
   <trkpt lat="59.0680246309" lon="30.0361795001"><ele>24.093</ele><time>2026-04-20T19:56:16.076Z</time><hdop>5.5</hdop><vdop>5.375</vdop><extensions><gom:speed>0.328</gom:speed></extensions></trkpt>
   <trkpt lat="59.0680225354" lon="30.0361803383"><ele>23.846</ele><time>2026-04-20T19:56:16.555Z</time><hdop>5.375</hdop><vdop>5.375</vdop><extensions><gom:speed>0.344</gom:speed></extensions></trkpt>
   <trkpt lat="59.0680193503" lon="30.0361833558"><ele>23.059</ele><time>2026-04-20T19:56:17.075Z</time><hdop>5.375</hdop><vdop>5.375</vdop><extensions><gom:speed>0.362</gom:speed></extensions></trkpt>
   <trkpt lat="59.0680184282" lon="30.0361844454"><ele>22.588</ele><time>2026-04-20T19:56:17.833Z</time><hdop>5.375</hdop><vdop>5.375</vdop><extensions><gom:speed>0.337</gom:speed></extensions></trkpt>
   <trkpt lat="59.0680105493" lon="30.0361960963"><ele>21.832</ele><time>2026-04-20T19:56:19.075Z</time><hdop>5.125</hdop><vdop>5.25</vdop><extensions><gom:speed>0.366</gom:speed></extensions></trkpt>
   <trkpt lat="59.0680066517" lon="30.0361971021"><ele>21.379</ele><time>2026-04-20T19:56:19.900Z</time><hdop>5.125</hdop><vdop>5.25</vdop><extensions><gom:speed>0.409</gom:speed></extensions></trkpt>
   <trkpt lat="59.0680022512" lon="30.0361965992"><ele>20.929</ele><time>2026-04-20T19:56:20.583Z</time><hdop>5.125</hdop><vdop>5.5</vdop><extensions><gom:speed>0.539</gom:speed></extensions></trkpt>
   <trkpt lat="59.0679977249" lon="30.0361982756"><ele>20.629</ele><time>2026-04-20T19:56:21.075Z</time><hdop>5.125</hdop><vdop>5.625</vdop><extensions><gom:speed>0.625</gom:speed></extensions></trkpt>
   <trkpt lat="59.0679883372" lon="30.0361971021"><ele>20.45</ele><time>2026-04-20T19:56:22.082Z</time><hdop>5.125</hdop><vdop>5.625</vdop><extensions><gom:speed>0.759</gom:speed></extensions></trkpt>
   <trkpt lat="59.0679791171" lon="30.0362002872"><ele>20.183</ele><time>2026-04-20T19:56:22.901Z</time><hdop>5.125</hdop><vdop>5.625</vdop><extensions><gom:speed>0.807</gom:speed></extensions></trkpt>
   <trkpt lat="59.0679706514" lon="30.0362076633"><ele>19.96</ele><time>2026-04-20T19:56:23.762Z</time><hdop>5.25</hdop><vdop>5.75</vdop><extensions><gom:speed>0.777</gom:speed></extensions></trkpt>
   <trkpt lat="59.0679610541" lon="30.0362117705"><ele>19.914</ele><time>2026-04-20T19:56:24.602Z</time><hdop>5.25</hdop><vdop>5.75</vdop><extensions><gom:speed>0.713</gom:speed></extensions></trkpt>
   <trkpt lat="59.0679585396" lon="30.0362122734"><ele>19.589</ele><time>2026-04-20T19:56:25.075Z</time><hdop>5.25</hdop><vdop>5.75</vdop><extensions><gom:speed>0.727</gom:speed></extensions></trkpt>
   <trkpt lat="59.0679517502" lon="30.0362100103"><ele>19.346</ele><time>2026-04-20T19:56:26.075Z</time><hdop>5.25</hdop><vdop>5.375</vdop><extensions><gom:speed>0.714</gom:speed></extensions></trkpt>
   <trkpt lat="59.0679466372" lon="30.0362028018"><ele>19.289</ele><time>2026-04-20T19:56:26.955Z</time><hdop>5.25</hdop><vdop>5.125</vdop><extensions><gom:speed>0.704</gom:speed></extensions></trkpt>
   <trkpt lat="59.0679425301" lon="30.0361955934"><ele>18.148</ele><time>2026-04-20T19:56:28.020Z</time><hdop>5.25</hdop><vdop>4.875</vdop><extensions><gom:speed>0.619</gom:speed></extensions></trkpt>
   <trkpt lat="59.0679379201" lon="30.0361960963"><ele>17.347</ele><time>2026-04-20T19:56:29.075Z</time><hdop>5.25</hdop><vdop>4.75</vdop><extensions><gom:speed>0.581</gom:speed></extensions></trkpt>
   <trkpt lat="59.0679339387" lon="30.0362018798"><ele>16.585</ele><time>2026-04-20T19:56:30.075Z</time><hdop>5.375</hdop><vdop>9.0</vdop><extensions><gom:speed>0.564</gom:speed></extensions></trkpt>
   <trkpt lat="59.0679280294" lon="30.0362076633"><ele>16.13</ele><time>2026-04-20T19:56:31.075Z</time><hdop>5.375</hdop><vdop>9.0</vdop><extensions><gom:speed>0.545</gom:speed></extensions></trkpt>
   <trkpt lat="59.067928239" lon="30.0362101779"><ele>14.917</ele><time>2026-04-20T19:56:32.075Z</time><hdop>5.5</hdop><vdop>8.75</vdop><extensions><gom:speed>0.503</gom:speed></extensions></trkpt>
   <trkpt lat="59.0679253472" lon="30.036208753"><ele>14.192</ele><time>2026-04-20T19:56:32.921Z</time><hdop>5.5</hdop><vdop>8.75</vdop><extensions><gom:speed>0.545</gom:speed></extensions></trkpt>
   <trkpt lat="59.0679224555" lon="30.0362059869"><ele>13.897</ele><time>2026-04-20T19:56:34.075Z</time><hdop>5.375</hdop><vdop>8.375</vdop><extensions><gom:speed>0.49</gom:speed></extensions></trkpt>
   <trkpt lat="59.0679188512" lon="30.0362079148"><ele>13.803</ele><time>2026-04-20T19:56:35.009Z</time><hdop>5.25</hdop><vdop>7.125</vdop><extensions><gom:speed>0.501</gom:speed></extensions></trkpt>
   <trkpt lat="59.0679156242" lon="30.0362108484"><ele>13.747</ele><time>2026-04-20T19:56:35.844Z</time><hdop>5.25</hdop><vdop>7.125</vdop><extensions><gom:speed>0.461</gom:speed></extensions></trkpt>
   <trkpt lat="59.0679157499" lon="30.0362110161"><ele>14.026</ele><time>2026-04-20T19:56:36.431Z</time><hdop>5.25</hdop><vdop>6.625</vdop><extensions><gom:speed>0.415</gom:speed></extensions></trkpt>
   <trkpt lat="59.067912942" lon="30.0362143688"><ele>13.822</ele><time>2026-04-20T19:56:37.024Z</time><hdop>5.125</hdop><vdop>6.25</vdop><extensions><gom:speed>0.393</gom:speed></extensions></trkpt>
   <trkpt lat="59.0679114333" lon="30.0362138659"><ele>13.7</ele><time>2026-04-20T19:56:37.837Z</time><hdop>5.125</hdop><vdop>6.25</vdop><extensions><gom:speed>0.361</gom:speed></extensions></trkpt>
   <trkpt lat="59.0679099245" lon="30.0362106808"><ele>13.379</ele><time>2026-04-20T19:56:38.775Z</time><hdop>5.125</hdop><vdop>6.0</vdop><extensions><gom:speed>0.354</gom:speed></extensions></trkpt>
   <trkpt lat="59.0679082481" lon="30.0362080824"><ele>13.136</ele><time>2026-04-20T19:56:39.613Z</time><hdop>5.125</hdop><vdop>5.875</vdop><extensions><gom:speed>0.351</gom:speed></extensions></trkpt>
   <trkpt lat="59.0679066556" lon="30.0362074119"><ele>13.002</ele><time>2026-04-20T19:56:40.076Z</time><hdop>5.125</hdop><vdop>5.5</vdop><extensions><gom:speed>0.365</gom:speed></extensions></trkpt>
   <trkpt lat="59.0679051468" lon="30.0362050649"><ele>12.871</ele><time>2026-04-20T19:56:41.075Z</time><hdop>5.0</hdop><vdop>5.375</vdop><extensions><gom:speed>0.264</gom:speed></extensions></trkpt>
   <trkpt lat="59.0679058174" lon="30.0362035562"><ele>12.574</ele><time>2026-04-20T19:56:41.998Z</time><hdop>5.0</hdop><vdop>8.0</vdop><extensions><gom:speed>0.151</gom:speed></extensions></trkpt>
   <trkpt lat="59.0679065298" lon="30.0362031371"><ele>12.397</ele><time>2026-04-20T19:56:42.591Z</time><hdop>5.0</hdop><vdop>8.0</vdop><extensions><gom:speed>0.135</gom:speed></extensions></trkpt>
   <trkpt lat="59.0679066556" lon="30.036201796"><ele>12.618</ele><time>2026-04-20T19:56:43.415Z</time><hdop>4.875</hdop><vdop>7.125</vdop><extensions><gom:speed>0.111</gom:speed></extensions></trkpt>
   <trkpt lat="59.0679061527" lon="30.0362007063"><ele>13.503</ele><time>2026-04-20T19:56:44.075Z</time><hdop>4.875</hdop><vdop>7.375</vdop><extensions><gom:speed>0.142</gom:speed></extensions></trkpt>
   <trkpt lat="59.0679057336" lon="30.0361993652"><ele>14.031</ele><time>2026-04-20T19:56:44.995Z</time><hdop>4.875</hdop><vdop>7.375</vdop><extensions><gom:speed>0.147</gom:speed></extensions></trkpt>
   <trkpt lat="59.0679046439" lon="30.036195761"><ele>14.957</ele><time>2026-04-20T19:56:45.694Z</time><hdop>4.875</hdop><vdop>6.75</vdop><extensions><gom:speed>0.17</gom:speed></extensions></trkpt>
   <trkpt lat="59.0679024227" lon="30.0361905642"><ele>15.397</ele><time>2026-04-20T19:56:46.436Z</time><hdop>4.875</hdop><vdop>6.125</vdop><extensions><gom:speed>0.19</gom:speed></extensions></trkpt>
   <trkpt lat="59.0679001177" lon="30.0361867924"><ele>16.43</ele><time>2026-04-20T19:56:47.075Z</time><hdop>4.875</hdop><vdop>6.0</vdop><extensions><gom:speed>0.212</gom:speed></extensions></trkpt>
   <trkpt lat="59.0678971421" lon="30.0361806736"><ele>17.492</ele><time>2026-04-20T19:56:48.076Z</time><hdop>4.75</hdop><vdop>5.875</vdop><extensions><gom:speed>0.194</gom:speed></extensions></trkpt>
   <trkpt lat="59.0678966392" lon="30.0361791648"><ele>18.126</ele><time>2026-04-20T19:56:48.750Z</time><hdop>4.75</hdop><vdop>5.875</vdop><extensions><gom:speed>0.178</gom:speed></extensions></trkpt>
   <trkpt lat="59.0678913167" lon="30.0361736328"><ele>19.29</ele><time>2026-04-20T19:56:49.862Z</time><hdop>4.625</hdop><vdop>5.75</vdop><extensions><gom:speed>0.208</gom:speed></extensions></trkpt>
   <trkpt lat="59.0678878382" lon="30.0361682684"><ele>19.229</ele><time>2026-04-20T19:56:50.443Z</time><hdop>4.625</hdop><vdop>5.5</vdop><extensions><gom:speed>0.134</gom:speed></extensions></trkpt>
   <trkpt lat="59.0678846531" lon="30.0361649994"><ele>19.164</ele><time>2026-04-20T19:56:51.075Z</time><hdop>4.5</hdop><vdop>5.75</vdop><extensions><gom:speed>0.173</gom:speed></extensions></trkpt>
   <trkpt lat="59.067882851" lon="30.0361627363"><ele>19.125</ele><time>2026-04-20T19:56:52.042Z</time><hdop>4.5</hdop><vdop>5.75</vdop><extensions><gom:speed>0.157</gom:speed></extensions></trkpt>
   <trkpt lat="59.0678811327" lon="30.0361608923"><ele>19.524</ele><time>2026-04-20T19:56:52.723Z</time><hdop>4.5</hdop><vdop>6.0</vdop><extensions><gom:speed>0.179</gom:speed></extensions></trkpt>
   <trkpt lat="59.0678741338" lon="30.0361552764"><ele>20.532</ele><time>2026-04-20T19:56:53.433Z</time><hdop>4.625</hdop><vdop>6.0</vdop><extensions><gom:speed>0.34</gom:speed></extensions></trkpt>
   <trkpt lat="59.0678705296" lon="30.0361532648"><ele>21.387</ele><time>2026-04-20T19:56:54.082Z</time><hdop>4.75</hdop><vdop>6.125</vdop><extensions><gom:speed>0.368</gom:speed></extensions></trkpt>
   <trkpt lat="59.0678627344" lon="30.0361465592"><ele>21.898</ele><time>2026-04-20T19:56:54.910Z</time><hdop>4.875</hdop><vdop>6.125</vdop><extensions><gom:speed>0.533</gom:speed></extensions></trkpt>
   <trkpt lat="59.0678399356" lon="30.036123509"><ele>22.315</ele><time>2026-04-20T19:56:55.882Z</time><hdop>5.25</hdop><vdop>6.125</vdop><extensions><gom:speed>0.798</gom:speed></extensions></trkpt>
   <trkpt lat="59.0678267341" lon="30.0361044821"><ele>22.422</ele><time>2026-04-20T19:56:56.662Z</time><hdop>5.375</hdop><vdop>5.75</vdop><extensions><gom:speed>0.886</gom:speed></extensions></trkpt>
   <trkpt lat="59.0678183522" lon="30.0360891432"><ele>23.057</ele><time>2026-04-20T19:56:57.273Z</time><hdop>5.375</hdop><vdop>5.625</vdop><extensions><gom:speed>0.895</gom:speed></extensions></trkpt>
   <trkpt lat="59.0678128202" lon="30.0360803422"><ele>23.436</ele><time>2026-04-20T19:56:58.014Z</time><hdop>5.375</hdop><vdop>5.625</vdop><extensions><gom:speed>0.885</gom:speed></extensions></trkpt>
   <trkpt lat="59.0678053184" lon="30.0360661768"><ele>23.331</ele><time>2026-04-20T19:56:59.056Z</time><hdop>5.375</hdop><vdop>5.25</vdop><extensions><gom:speed>0.787</gom:speed></extensions></trkpt>
   <trkpt lat="59.0677999539" lon="30.0360569567"><ele>23.397</ele><time>2026-04-20T19:57:00.075Z</time><hdop>5.25</hdop><vdop>5.125</vdop><extensions><gom:speed>0.651</gom:speed></extensions></trkpt>
   <trkpt lat="59.0677969365" lon="30.0360517599"><ele>23.782</ele><time>2026-04-20T19:57:00.951Z</time><hdop>5.125</hdop><vdop>5.25</vdop><extensions><gom:speed>0.509</gom:speed></extensions></trkpt>
   <trkpt lat="59.0677952182" lon="30.0360449706"><ele>24.012</ele><time>2026-04-20T19:57:01.638Z</time><hdop>5.0</hdop><vdop>5.25</vdop><extensions><gom:speed>0.489</gom:speed></extensions></trkpt>
   <trkpt lat="59.0677955534" lon="30.0360346608"><ele>23.159</ele><time>2026-04-20T19:57:02.965Z</time><hdop>5.0</hdop><vdop>4.875</vdop><extensions><gom:speed>0.364</gom:speed></extensions></trkpt>
   <trkpt lat="59.0677961402" lon="30.0360259437"><ele>21.983</ele><time>2026-04-20T19:57:04.076Z</time><hdop>5.0</hdop><vdop>4.625</vdop><extensions><gom:speed>0.345</gom:speed></extensions></trkpt>
   <trkpt lat="59.0677957211" lon="30.0360194896"><ele>21.279</ele><time>2026-04-20T19:57:04.778Z</time><hdop>5.0</hdop><vdop>4.625</vdop><extensions><gom:speed>0.383</gom:speed></extensions></trkpt>
   <trkpt lat="59.0677950505" lon="30.0360107724"><ele>20.9</ele><time>2026-04-20T19:57:05.694Z</time><hdop>5.0</hdop><vdop>4.375</vdop><extensions><gom:speed>0.412</gom:speed></extensions></trkpt>
   <trkpt lat="59.0677953439" lon="30.0359987025"><ele>19.708</ele><time>2026-04-20T19:57:07.075Z</time><hdop>5.0</hdop><vdop>3.75</vdop><extensions><gom:speed>0.39</gom:speed></extensions></trkpt>
   <trkpt lat="59.0677964335" lon="30.0359911588"><ele>18.616</ele><time>2026-04-20T19:57:08.075Z</time><hdop>4.875</hdop><vdop>3.5</vdop><extensions><gom:speed>0.351</gom:speed></extensions></trkpt>
   <trkpt lat="59.0677966431" lon="30.0359893986"><ele>17.456</ele><time>2026-04-20T19:57:09.075Z</time><hdop>4.875</hdop><vdop>3.625</vdop><extensions><gom:speed>0.287</gom:speed></extensions></trkpt>
   <trkpt lat="59.0677963497" lon="30.0359894824"><ele>16.763</ele><time>2026-04-20T19:57:10.056Z</time><hdop>4.75</hdop><vdop>3.625</vdop><extensions><gom:speed>0.229</gom:speed></extensions></trkpt>
   <trkpt lat="59.0677956373" lon="30.0359928351"><ele>16.51</ele><time>2026-04-20T19:57:11.075Z</time><hdop>4.5</hdop><vdop>9.125</vdop><extensions><gom:speed>0.211</gom:speed></extensions></trkpt>
   <trkpt lat="59.067796224" lon="30.0359917455"><ele>16.36</ele><time>2026-04-20T19:57:11.775Z</time><hdop>4.375</hdop><vdop>9.125</vdop><extensions><gom:speed>0.192</gom:speed></extensions></trkpt>
   <trkpt lat="59.0677964335" lon="30.0359920808"><ele>15.989</ele><time>2026-04-20T19:57:13.075Z</time><hdop>4.375</hdop><vdop>10.125</vdop><extensions><gom:speed>0.151</gom:speed></extensions></trkpt>
   <trkpt lat="59.0677968526" lon="30.0359912426"><ele>15.512</ele><time>2026-04-20T19:57:13.982Z</time><hdop>4.375</hdop><vdop>10.5</vdop><extensions><gom:speed>0.164</gom:speed></extensions></trkpt>
   <trkpt lat="59.0677967269" lon="30.0359914102"><ele>15.085</ele><time>2026-04-20T19:57:15.075Z</time><hdop>4.5</hdop><vdop>11.0</vdop><extensions><gom:speed>0.2</gom:speed></extensions></trkpt>
   <trkpt lat="59.0677968526" lon="30.0359895662"><ele>14.699</ele><time>2026-04-20T19:57:15.995Z</time><hdop>4.5</hdop><vdop>11.25</vdop><extensions><gom:speed>0.209</gom:speed></extensions></trkpt>
   <trkpt lat="59.0677969365" lon="30.0359881413"><ele>14.69</ele><time>2026-04-20T19:57:17.062Z</time><hdop>4.625</hdop><vdop>11.5</vdop><extensions><gom:speed>0.159</gom:speed></extensions></trkpt>
   <trkpt lat="59.0677965174" lon="30.0359868002"><ele>14.64</ele><time>2026-04-20T19:57:18.010Z</time><hdop>4.625</hdop><vdop>11.375</vdop><extensions><gom:speed>0.162</gom:speed></extensions></trkpt>
   <trkpt lat="59.0677957211" lon="30.0359842856"><ele>14.61</ele><time>2026-04-20T19:57:19.080Z</time><hdop>4.75</hdop><vdop>11.375</vdop><extensions><gom:speed>0.188</gom:speed></extensions></trkpt>
   <trkpt lat="59.0677954277" lon="30.0359843694"><ele>14.547</ele><time>2026-04-20T19:57:19.668Z</time><hdop>4.875</hdop><vdop>10.875</vdop><extensions><gom:speed>0.152</gom:speed></extensions></trkpt>
   <trkpt lat="59.0677929551" lon="30.0359852076"><ele>16.173</ele><time>2026-04-20T19:57:21.075Z</time><hdop>5.0</hdop><vdop>8.375</vdop><extensions><gom:speed>0.194</gom:speed></extensions></trkpt>
   <trkpt lat="59.0677914463" lon="30.0359857943"><ele>17.144</ele><time>2026-04-20T19:57:21.834Z</time><hdop>5.0</hdop><vdop>8.375</vdop><extensions><gom:speed>0.241</gom:speed></extensions></trkpt>
   <trkpt lat="59.0677865429" lon="30.0359818548"><ele>17.515</ele><time>2026-04-20T19:57:23.076Z</time><hdop>5.0</hdop><vdop>7.125</vdop><extensions><gom:speed>0.263</gom:speed></extensions></trkpt>
   <trkpt lat="59.0677848246" lon="30.0359788374"><ele>17.736</ele><time>2026-04-20T19:57:23.857Z</time><hdop>5.0</hdop><vdop>7.125</vdop><extensions><gom:speed>0.238</gom:speed></extensions></trkpt>
   <trkpt lat="59.0677790411" lon="30.0359691144"><ele>19.153</ele><time>2026-04-20T19:57:25.075Z</time><hdop>5.0</hdop><vdop>6.625</vdop><extensions><gom:speed>0.189</gom:speed></extensions></trkpt>
   <trkpt lat="59.0677778257" lon="30.0359667674"><ele>19.999</ele><time>2026-04-20T19:57:25.762Z</time><hdop>4.875</hdop><vdop>6.625</vdop><extensions><gom:speed>0.184</gom:speed></extensions></trkpt>
   <trkpt lat="59.0677745568" lon="30.035958637"><ele>20.787</ele><time>2026-04-20T19:57:26.897Z</time><hdop>4.75</hdop><vdop>6.375</vdop><extensions><gom:speed>0.166</gom:speed></extensions></trkpt>
   <trkpt lat="59.0677719165" lon="30.0359529373"><ele>21.31</ele><time>2026-04-20T19:57:28.075Z</time><hdop>4.75</hdop><vdop>6.375</vdop><extensions><gom:speed>0.154</gom:speed></extensions></trkpt>
   <trkpt lat="59.0677711202" lon="30.0359500874"><ele>21.622</ele><time>2026-04-20T19:57:28.983Z</time><hdop>4.75</hdop><vdop>6.375</vdop><extensions><gom:speed>0.135</gom:speed></extensions></trkpt>
   <trkpt lat="59.0677706173" lon="30.0359487463"><ele>21.277</ele><time>2026-04-20T19:57:29.522Z</time><hdop>4.75</hdop><vdop>6.375</vdop><extensions><gom:speed>0.141</gom:speed></extensions></trkpt>
   <trkpt lat="59.0677701563" lon="30.0359481596"><ele>21.054</ele><time>2026-04-20T19:57:29.973Z</time><hdop>4.75</hdop><vdop>6.125</vdop><extensions><gom:speed>0.141</gom:speed></extensions></trkpt>
   <trkpt lat="59.0677669292" lon="30.0359429628"><ele>20.54</ele><time>2026-04-20T19:57:31.075Z</time><hdop>4.75</hdop><vdop>6.0</vdop><extensions><gom:speed>0.185</gom:speed></extensions></trkpt>
   <trkpt lat="59.0677624449" lon="30.0359358382"><ele>20.172</ele><time>2026-04-20T19:57:32.075Z</time><hdop>4.75</hdop><vdop>5.875</vdop><extensions><gom:speed>0.209</gom:speed></extensions></trkpt>
   <trkpt lat="59.0677576253" lon="30.0359299709"><ele>19.743</ele><time>2026-04-20T19:57:33.075Z</time><hdop>4.75</hdop><vdop>6.125</vdop><extensions><gom:speed>0.246</gom:speed></extensions></trkpt>
   <trkpt lat="59.0677527219" lon="30.0359264505"><ele>19.487</ele><time>2026-04-20T19:57:33.798Z</time><hdop>4.75</hdop><vdop>6.125</vdop><extensions><gom:speed>0.366</gom:speed></extensions></trkpt>
   <trkpt lat="59.067743418" lon="30.0359179847"><ele>19.05</ele><time>2026-04-20T19:57:34.734Z</time><hdop>4.75</hdop><vdop>6.5</vdop><extensions><gom:speed>0.549</gom:speed></extensions></trkpt>
   <trkpt lat="59.0677340303" lon="30.0359097705"><ele>18.559</ele><time>2026-04-20T19:57:35.615Z</time><hdop>4.75</hdop><vdop>6.25</vdop><extensions><gom:speed>0.649</gom:speed></extensions></trkpt>
   <trkpt lat="59.0677289173" lon="30.0359065015"><ele>17.857</ele><time>2026-04-20T19:57:36.075Z</time><hdop>4.875</hdop><vdop>6.125</vdop><extensions><gom:speed>0.659</gom:speed></extensions></trkpt>
   <trkpt lat="59.06772305" lon="30.0359023944"><ele>17.438</ele><time>2026-04-20T19:57:36.936Z</time><hdop>4.875</hdop><vdop>6.125</vdop><extensions><gom:speed>0.607</gom:speed></extensions></trkpt>
   <trkpt lat="59.0677201163" lon="30.0358980358"><ele>16.663</ele><time>2026-04-20T19:57:37.639Z</time><hdop>5.0</hdop><vdop>5.875</vdop><extensions><gom:speed>0.509</gom:speed></extensions></trkpt>
   <trkpt lat="59.0677188171" lon="30.0358938449"><ele>15.981</ele><time>2026-04-20T19:57:38.182Z</time><hdop>5.25</hdop><vdop>8.875</vdop><extensions><gom:speed>0.512</gom:speed></extensions></trkpt>
   <trkpt lat="59.0677180208" lon="30.035886385"><ele>15.574</ele><time>2026-04-20T19:57:38.822Z</time><hdop>5.375</hdop><vdop>8.875</vdop><extensions><gom:speed>0.448</gom:speed></extensions></trkpt>
   <trkpt lat="59.0677144166" lon="30.0358811044"><ele>15.363</ele><time>2026-04-20T19:57:39.859Z</time><hdop>5.5</hdop><vdop>8.25</vdop><extensions><gom:speed>0.456</gom:speed></extensions></trkpt>
   <trkpt lat="59.0677097228" lon="30.0358809367"><ele>15.207</ele><time>2026-04-20T19:57:40.700Z</time><hdop>5.625</hdop><vdop>7.5</vdop><extensions><gom:speed>0.48</gom:speed></extensions></trkpt>
   <trkpt lat="59.0677066215" lon="30.0358831998"><ele>15.694</ele><time>2026-04-20T19:57:41.657Z</time><hdop>5.625</hdop><vdop>7.25</vdop><extensions><gom:speed>0.41</gom:speed></extensions></trkpt>
   <trkpt lat="59.0677029334" lon="30.0358826969"><ele>16.0</ele><time>2026-04-20T19:57:42.721Z</time><hdop>5.75</hdop><vdop>7.0</vdop><extensions><gom:speed>0.436</gom:speed></extensions></trkpt>
   <trkpt lat="59.0676973175" lon="30.0358771649"><ele>16.987</ele><time>2026-04-20T19:57:44.075Z</time><hdop>5.625</hdop><vdop>6.625</vdop><extensions><gom:speed>0.413</gom:speed></extensions></trkpt>
   <trkpt lat="59.0676954316" lon="30.0358729739"><ele>17.577</ele><time>2026-04-20T19:57:44.677Z</time><hdop>5.625</hdop><vdop>6.625</vdop><extensions><gom:speed>0.364</gom:speed></extensions></trkpt>
   <trkpt lat="59.0676933361" lon="30.0358707108"><ele>18.397</ele><time>2026-04-20T19:57:45.515Z</time><hdop>5.5</hdop><vdop>6.5</vdop><extensions><gom:speed>0.357</gom:speed></extensions></trkpt>
   <trkpt lat="59.0676905282" lon="30.0358702079"><ele>18.602</ele><time>2026-04-20T19:57:46.075Z</time><hdop>5.375</hdop><vdop>6.375</vdop><extensions><gom:speed>0.372</gom:speed></extensions></trkpt>
   <trkpt lat="59.0676882232" lon="30.0358718843"><ele>18.235</ele><time>2026-04-20T19:57:47.031Z</time><hdop>5.25</hdop><vdop>6.125</vdop><extensions><gom:speed>0.303</gom:speed></extensions></trkpt>
   <trkpt lat="59.0676860439" lon="30.0358712975"><ele>17.666</ele><time>2026-04-20T19:57:48.075Z</time><hdop>5.125</hdop><vdop>6.0</vdop><extensions><gom:speed>0.214</gom:speed></extensions></trkpt>
   <trkpt lat="59.067685541" lon="30.0358709623"><ele>16.823</ele><time>2026-04-20T19:57:49.045Z</time><hdop>5.0</hdop><vdop>5.625</vdop><extensions><gom:speed>0.173</gom:speed></extensions></trkpt>
   <trkpt lat="59.0676843256" lon="30.0358703755"><ele>16.206</ele><time>2026-04-20T19:57:50.075Z</time><hdop>4.875</hdop><vdop>5.375</vdop><extensions><gom:speed>0.117</gom:speed></extensions></trkpt>
   <trkpt lat="59.0676847447" lon="30.0358698726"><ele>15.838</ele><time>2026-04-20T19:57:50.580Z</time><hdop>4.875</hdop><vdop>5.375</vdop><extensions><gom:speed>0.057</gom:speed></extensions></trkpt>
   <trkpt lat="59.0676831521" lon="30.0358708784"><ele>15.65</ele><time>2026-04-20T19:57:52.075Z</time><hdop>4.75</hdop><vdop>4.875</vdop><extensions><gom:speed>0.087</gom:speed></extensions></trkpt>
   <trkpt lat="59.0676830264" lon="30.0358718005"><ele>15.633</ele><time>2026-04-20T19:57:52.954Z</time><hdop>4.75</hdop><vdop>4.75</vdop><extensions><gom:speed>0.071</gom:speed></extensions></trkpt>
   <trkpt lat="59.0676829426" lon="30.0358726386"><ele>15.766</ele><time>2026-04-20T19:57:54.021Z</time><hdop>4.75</hdop><vdop>4.5</vdop><extensions><gom:speed>0.08</gom:speed></extensions></trkpt>
   <trkpt lat="59.067682733" lon="30.0358730577"><ele>15.785</ele><time>2026-04-20T19:57:54.968Z</time><hdop>4.75</hdop><vdop>4.25</vdop><extensions><gom:speed>0.104</gom:speed></extensions></trkpt>
   <trkpt lat="59.0676822301" lon="30.0358734768"><ele>15.797</ele><time>2026-04-20T19:57:55.645Z</time><hdop>4.875</hdop><vdop>4.25</vdop><extensions><gom:speed>0.099</gom:speed></extensions></trkpt>
   <trkpt lat="59.0676797575" lon="30.0358746503"><ele>16.205</ele><time>2026-04-20T19:57:56.745Z</time><hdop>4.875</hdop><vdop>4.375</vdop><extensions><gom:speed>0.124</gom:speed></extensions></trkpt>
   <trkpt lat="59.0676750217" lon="30.0358754047"><ele>16.753</ele><time>2026-04-20T19:57:58.075Z</time><hdop>4.875</hdop><vdop>4.625</vdop><extensions><gom:speed>0.117</gom:speed></extensions></trkpt>
   <trkpt lat="59.0676703278" lon="30.035876159"><ele>16.736</ele><time>2026-04-20T19:57:59.076Z</time><hdop>4.875</hdop><vdop>4.75</vdop><extensions><gom:speed>0.124</gom:speed></extensions></trkpt>
   <trkpt lat="59.0676652568" lon="30.0358760752"><ele>17.18</ele><time>2026-04-20T19:58:00.076Z</time><hdop>4.75</hdop><vdop>4.75</vdop><extensions><gom:speed>0.144</gom:speed></extensions></trkpt>
   <trkpt lat="59.0676640414" lon="30.0358769134"><ele>17.444</ele><time>2026-04-20T19:58:00.602Z</time><hdop>4.625</hdop><vdop>4.75</vdop><extensions><gom:speed>0.116</gom:speed></extensions></trkpt>
   <trkpt lat="59.0676615268" lon="30.0358760752"><ele>17.577</ele><time>2026-04-20T19:58:01.075Z</time><hdop>4.5</hdop><vdop>4.75</vdop><extensions><gom:speed>0.122</gom:speed></extensions></trkpt>
   <trkpt lat="59.0676603533" lon="30.0358759076"><ele>17.657</ele><time>2026-04-20T19:58:01.803Z</time><hdop>4.375</hdop><vdop>4.75</vdop><extensions><gom:speed>0.127</gom:speed></extensions></trkpt>
   <trkpt lat="59.0676573359" lon="30.0358749856"><ele>17.919</ele><time>2026-04-20T19:58:03.023Z</time><hdop>4.375</hdop><vdop>4.875</vdop><extensions><gom:speed>0.143</gom:speed></extensions></trkpt>
   <trkpt lat="59.0676522229" lon="30.0358747341"><ele>18.099</ele><time>2026-04-20T19:58:04.076Z</time><hdop>4.25</hdop><vdop>4.875</vdop><extensions><gom:speed>0.169</gom:speed></extensions></trkpt>
   <trkpt lat="59.0676482415" lon="30.0358746503"><ele>18.273</ele><time>2026-04-20T19:58:05.075Z</time><hdop>4.125</hdop><vdop>5.0</vdop><extensions><gom:speed>0.159</gom:speed></extensions></trkpt>
   <trkpt lat="59.0676428352" lon="30.0358759076"><ele>18.639</ele><time>2026-04-20T19:58:06.075Z</time><hdop>4.125</hdop><vdop>5.0</vdop><extensions><gom:speed>0.235</gom:speed></extensions></trkpt>
   <trkpt lat="59.0676399434" lon="30.0358790927"><ele>18.857</ele><time>2026-04-20T19:58:06.915Z</time><hdop>4.125</hdop><vdop>5.0</vdop><extensions><gom:speed>0.295</gom:speed></extensions></trkpt>
   <trkpt lat="59.0676334474" lon="30.0358811882"><ele>19.198</ele><time>2026-04-20T19:58:07.922Z</time><hdop>4.125</hdop><vdop>5.125</vdop><extensions><gom:speed>0.331</gom:speed></extensions></trkpt>
   <trkpt lat="59.0676277477" lon="30.0358797633"><ele>19.08</ele><time>2026-04-20T19:58:08.496Z</time><hdop>4.125</hdop><vdop>5.25</vdop><extensions><gom:speed>0.378</gom:speed></extensions></trkpt>
   <trkpt lat="59.067624856" lon="30.0358790089"><ele>19.061</ele><time>2026-04-20T19:58:09.182Z</time><hdop>4.125</hdop><vdop>5.375</vdop><extensions><gom:speed>0.402</gom:speed></extensions></trkpt>
   <trkpt lat="59.0676158454" lon="30.0358749018"><ele>18.752</ele><time>2026-04-20T19:58:10.075Z</time><hdop>4.25</hdop><vdop>5.375</vdop><extensions><gom:speed>0.512</gom:speed></extensions></trkpt>
   <trkpt lat="59.0676078407" lon="30.0358712975"><ele>18.566</ele><time>2026-04-20T19:58:11.042Z</time><hdop>4.375</hdop><vdop>5.375</vdop><extensions><gom:speed>0.607</gom:speed></extensions></trkpt>
   <trkpt lat="59.0676019315" lon="30.0358686153"><ele>18.322</ele><time>2026-04-20T19:58:11.715Z</time><hdop>4.5</hdop><vdop>5.125</vdop><extensions><gom:speed>0.697</gom:speed></extensions></trkpt>
   <trkpt lat="59.0675917475" lon="30.0358593114"><ele>18.659</ele><time>2026-04-20T19:58:12.524Z</time><hdop>4.5</hdop><vdop>5.0</vdop><extensions><gom:speed>0.769</gom:speed></extensions></trkpt>
   <trkpt lat="59.0675853353" lon="30.0358536955"><ele>18.603</ele><time>2026-04-20T19:58:13.075Z</time><hdop>4.625</hdop><vdop>5.0</vdop><extensions><gom:speed>0.784</gom:speed></extensions></trkpt>
   <trkpt lat="59.0675755285" lon="30.0358454813"><ele>17.947</ele><time>2026-04-20T19:58:14.075Z</time><hdop>4.625</hdop><vdop>5.0</vdop><extensions><gom:speed>0.769</gom:speed></extensions></trkpt>
   <trkpt lat="59.0675715471" lon="30.0358417094"><ele>17.555</ele><time>2026-04-20T19:58:14.536Z</time><hdop>4.75</hdop><vdop>5.0</vdop><extensions><gom:speed>0.763</gom:speed></extensions></trkpt>
   <trkpt lat="59.0675681524" lon="30.0358376861"><ele>17.118</ele><time>2026-04-20T19:58:14.987Z</time><hdop>4.75</hdop><vdop>5.125</vdop><extensions><gom:speed>0.759</gom:speed></extensions></trkpt>
   <trkpt lat="59.0675629556" lon="30.0358295557"><ele>16.857</ele><time>2026-04-20T19:58:15.898Z</time><hdop>4.875</hdop><vdop>5.125</vdop><extensions><gom:speed>0.665</gom:speed></extensions></trkpt>
   <trkpt lat="59.0675580522" lon="30.0358143006"><ele>16.954</ele><time>2026-04-20T19:58:17.075Z</time><hdop>4.875</hdop><vdop>5.25</vdop><extensions><gom:speed>0.601</gom:speed></extensions></trkpt>
   <trkpt lat="59.0675547414" lon="30.0358096067"><ele>17.012</ele><time>2026-04-20T19:58:17.984Z</time><hdop>4.875</hdop><vdop>5.25</vdop><extensions><gom:speed>0.514</gom:speed></extensions></trkpt>
   <trkpt lat="59.0675501313" lon="30.0358060025"><ele>17.176</ele><time>2026-04-20T19:58:18.761Z</time><hdop>4.875</hdop><vdop>5.125</vdop><extensions><gom:speed>0.546</gom:speed></extensions></trkpt>
   <trkpt lat="59.0675446412" lon="30.0358078465"><ele>17.455</ele><time>2026-04-20T19:58:19.760Z</time><hdop>4.875</hdop><vdop>5.5</vdop><extensions><gom:speed>0.543</gom:speed></extensions></trkpt>
   <trkpt lat="59.0675396539" lon="30.0358106126"><ele>17.219</ele><time>2026-04-20T19:58:20.617Z</time><hdop>5.0</hdop><vdop>5.5</vdop><extensions><gom:speed>0.574</gom:speed></extensions></trkpt>
   <trkpt lat="59.067536846" lon="30.035807176"><ele>17.062</ele><time>2026-04-20T19:58:21.075Z</time><hdop>5.0</hdop><vdop>5.125</vdop><extensions><gom:speed>0.579</gom:speed></extensions></trkpt>
   <trkpt lat="59.0675292185" lon="30.0358005543"><ele>16.968</ele><time>2026-04-20T19:58:21.960Z</time><hdop>5.0</hdop><vdop>5.125</vdop><extensions><gom:speed>0.615</gom:speed></extensions></trkpt>
   <trkpt lat="59.067524357" lon="30.0357920047"><ele>16.689</ele><time>2026-04-20T19:58:23.075Z</time><hdop>5.125</hdop><vdop>4.75</vdop><extensions><gom:speed>0.638</gom:speed></extensions></trkpt>
   <trkpt lat="59.0675181544" lon="30.035781695"><ele>16.195</ele><time>2026-04-20T19:58:24.075Z</time><hdop>5.125</hdop><vdop>5.0</vdop><extensions><gom:speed>0.645</gom:speed></extensions></trkpt>
   <trkpt lat="59.0675124547" lon="30.0357723073"><ele>15.727</ele><time>2026-04-20T19:58:25.075Z</time><hdop>5.25</hdop><vdop>5.125</vdop><extensions><gom:speed>0.646</gom:speed></extensions></trkpt>
   <trkpt lat="59.0675075513" lon="30.0357648474"><ele>15.148</ele><time>2026-04-20T19:58:26.004Z</time><hdop>5.25</hdop><vdop>5.125</vdop><extensions><gom:speed>0.632</gom:speed></extensions></trkpt>
   <trkpt lat="59.0675040309" lon="30.0357579742"><ele>15.117</ele><time>2026-04-20T19:58:27.076Z</time><hdop>5.25</hdop><vdop>5.375</vdop><extensions><gom:speed>0.562</gom:speed></extensions></trkpt>
   <trkpt lat="59.0675041566" lon="30.0357588124"><ele>15.099</ele><time>2026-04-20T19:58:27.780Z</time><hdop>5.25</hdop><vdop>5.375</vdop><extensions><gom:speed>0.436</gom:speed></extensions></trkpt>
   <trkpt lat="59.0675008457" lon="30.035756214"><ele>15.017</ele><time>2026-04-20T19:58:28.624Z</time><hdop>5.25</hdop><vdop>5.375</vdop><extensions><gom:speed>0.422</gom:speed></extensions></trkpt>
   <trkpt lat="59.0674998399" lon="30.0357537833"><ele>14.986</ele><time>2026-04-20T19:58:29.075Z</time><hdop>5.25</hdop><vdop>5.375</vdop><extensions><gom:speed>0.415</gom:speed></extensions></trkpt>
   <trkpt lat="59.0674966548" lon="30.0357505981"><ele>14.968</ele><time>2026-04-20T19:58:29.995Z</time><hdop>5.25</hdop><vdop>5.375</vdop><extensions><gom:speed>0.432</gom:speed></extensions></trkpt>
   <trkpt lat="59.067494224" lon="30.0357441441"><ele>14.623</ele><time>2026-04-20T19:58:30.618Z</time><hdop>5.375</hdop><vdop>5.5</vdop><extensions><gom:speed>0.516</gom:speed></extensions></trkpt>
   <trkpt lat="59.067491458" lon="30.03573769"><ele>14.55</ele><time>2026-04-20T19:58:31.075Z</time><hdop>5.25</hdop><vdop>5.5</vdop><extensions><gom:speed>0.562</gom:speed></extensions></trkpt>
   <trkpt lat="59.0674857164" lon="30.0357285537"><ele>14.759</ele><time>2026-04-20T19:58:32.075Z</time><hdop>5.25</hdop><vdop>5.375</vdop><extensions><gom:speed>0.556</gom:speed></extensions></trkpt>
   <trkpt lat="59.0674797233" lon="30.0357231893"><ele>14.884</ele><time>2026-04-20T19:58:32.800Z</time><hdop>5.25</hdop><vdop>5.375</vdop><extensions><gom:speed>0.703</gom:speed></extensions></trkpt>
   <trkpt lat="59.0674735207" lon="30.0357169867"><ele>14.791</ele><time>2026-04-20T19:58:33.578Z</time><hdop>5.375</hdop><vdop>5.25</vdop><extensions><gom:speed>0.723</gom:speed></extensions></trkpt>
   <trkpt lat="59.0674710481" lon="30.0357088563"><ele>14.768</ele><time>2026-04-20T19:58:34.075Z</time><hdop>5.5</hdop><vdop>5.125</vdop><extensions><gom:speed>0.667</gom:speed></extensions></trkpt>
   <trkpt lat="59.0674720539" lon="30.035700642"><ele>14.722</ele><time>2026-04-20T19:58:35.006Z</time><hdop>5.5</hdop><vdop>5.125</vdop><extensions><gom:speed>0.604</gom:speed></extensions></trkpt>
   <trkpt lat="59.0674712576" lon="30.0356900808"><ele>14.695</ele><time>2026-04-20T19:58:35.878Z</time><hdop>5.625</hdop><vdop>5.125</vdop><extensions><gom:speed>0.694</gom:speed></extensions></trkpt>
   <trkpt lat="59.0674666476" lon="30.0356759992"><ele>14.385</ele><time>2026-04-20T19:58:36.857Z</time><hdop>5.75</hdop><vdop>5.375</vdop><extensions><gom:speed>0.82</gom:speed></extensions></trkpt>
   <trkpt lat="59.0674555415" lon="30.0356678688"><ele>14.06</ele><time>2026-04-20T19:58:38.075Z</time><hdop>5.75</hdop><vdop>5.75</vdop><extensions><gom:speed>0.802</gom:speed></extensions></trkpt>
   <trkpt lat="59.0674499257" lon="30.0356622529"><ele>13.865</ele><time>2026-04-20T19:58:38.762Z</time><hdop>5.75</hdop><vdop>5.75</vdop><extensions><gom:speed>0.795</gom:speed></extensions></trkpt>
   <trkpt lat="59.0674405379" lon="30.0356553797"><ele>13.779</ele><time>2026-04-20T19:58:39.580Z</time><hdop>5.75</hdop><vdop>5.75</vdop><extensions><gom:speed>0.863</gom:speed></extensions></trkpt>
   <trkpt lat="59.0674347544" lon="30.0356512726"><ele>13.89</ele><time>2026-04-20T19:58:40.075Z</time><hdop>5.75</hdop><vdop>5.5</vdop><extensions><gom:speed>0.874</gom:speed></extensions></trkpt>
   <trkpt lat="59.0674270431" lon="30.0356434774"><ele>13.956</ele><time>2026-04-20T19:58:40.736Z</time><hdop>5.625</hdop><vdop>5.5</vdop><extensions><gom:speed>0.848</gom:speed></extensions></trkpt>
   <trkpt lat="59.0674193317" lon="30.0356434774"><ele>13.982</ele><time>2026-04-20T19:58:41.575Z</time><hdop>5.5</hdop><vdop>5.5</vdop><extensions><gom:speed>0.838</gom:speed></extensions></trkpt>
   <trkpt lat="59.0674142188" lon="30.0356440642"><ele>13.912</ele><time>2026-04-20T19:58:42.075Z</time><hdop>5.5</hdop><vdop>5.375</vdop><extensions><gom:speed>0.814</gom:speed></extensions></trkpt>
   <trkpt lat="59.0674046215" lon="30.0356421363"><ele>13.982</ele><time>2026-04-20T19:58:43.076Z</time><hdop>5.375</hdop><vdop>5.5</vdop><extensions><gom:speed>0.84</gom:speed></extensions></trkpt>
   <trkpt lat="59.067396952" lon="30.0356371072"><ele>14.024</ele><time>2026-04-20T19:58:43.874Z</time><hdop>5.25</hdop><vdop>5.5</vdop><extensions><gom:speed>0.911</gom:speed></extensions></trkpt>
   <trkpt lat="59.0673873548" lon="30.0356273842"><ele>14.115</ele><time>2026-04-20T19:58:44.842Z</time><hdop>5.125</hdop><vdop>5.375</vdop><extensions><gom:speed>0.991</gom:speed></extensions></trkpt>
   <trkpt lat="59.0673754525" lon="30.0356087763"><ele>14.234</ele><time>2026-04-20T19:58:45.961Z</time><hdop>5.0</hdop><vdop>5.25</vdop><extensions><gom:speed>1.144</gom:speed></extensions></trkpt>
   <trkpt lat="59.0673658552" lon="30.0355907552"><ele>14.289</ele><time>2026-04-20T19:58:46.758Z</time><hdop>5.0</hdop><vdop>5.375</vdop><extensions><gom:speed>1.273</gom:speed></extensions></trkpt>
   <trkpt lat="59.0673593173" lon="30.0355744944"><ele>14.421</ele><time>2026-04-20T19:58:47.358Z</time><hdop>5.125</hdop><vdop>5.625</vdop><extensions><gom:speed>1.31</gom:speed></extensions></trkpt>
   <trkpt lat="59.0673528213" lon="30.0355594069"><ele>14.5</ele><time>2026-04-20T19:58:48.086Z</time><hdop>5.125</hdop><vdop>5.625</vdop><extensions><gom:speed>1.313</gom:speed></extensions></trkpt>
   <trkpt lat="59.0673477503" lon="30.0355428108"><ele>14.263</ele><time>2026-04-20T19:58:48.839Z</time><hdop>5.125</hdop><vdop>5.625</vdop><extensions><gom:speed>1.205</gom:speed></extensions></trkpt>
   <trkpt lat="59.0673427211" lon="30.0355242868"><ele>13.981</ele><time>2026-04-20T19:58:49.835Z</time><hdop>5.125</hdop><vdop>5.625</vdop><extensions><gom:speed>1.06</gom:speed></extensions></trkpt>
   <trkpt lat="59.0673399551" lon="30.0355123845"><ele>13.92</ele><time>2026-04-20T19:58:50.598Z</time><hdop>5.125</hdop><vdop>5.875</vdop><extensions><gom:speed>0.951</gom:speed></extensions></trkpt>
   <trkpt lat="59.0673388235" lon="30.0355043378"><ele>13.985</ele><time>2026-04-20T19:58:51.075Z</time><hdop>5.125</hdop><vdop>6.25</vdop><extensions><gom:speed>0.94</gom:speed></extensions></trkpt>
   <trkpt lat="59.0673355546" lon="30.0354895019"><ele>14.023</ele><time>2026-04-20T19:58:52.020Z</time><hdop>5.125</hdop><vdop>6.25</vdop><extensions><gom:speed>0.899</gom:speed></extensions></trkpt>
   <trkpt lat="59.0673350517" lon="30.0354704749"><ele>14.563</ele><time>2026-04-20T19:58:52.760Z</time><hdop>5.125</hdop><vdop>6.125</vdop><extensions><gom:speed>0.878</gom:speed></extensions></trkpt>
   <trkpt lat="59.0673351355" lon="30.0354564772"><ele>14.683</ele><time>2026-04-20T19:58:53.618Z</time><hdop>5.0</hdop><vdop>5.875</vdop><extensions><gom:speed>0.847</gom:speed></extensions></trkpt>
   <trkpt lat="59.0673351355" lon="30.0354478438"><ele>14.663</ele><time>2026-04-20T19:58:54.075Z</time><hdop>5.0</hdop><vdop>5.625</vdop><extensions><gom:speed>0.838</gom:speed></extensions></trkpt>
   <trkpt lat="59.0673326209" lon="30.0354309124"><ele>14.178</ele><time>2026-04-20T19:58:55.075Z</time><hdop>4.875</hdop><vdop>5.5</vdop><extensions><gom:speed>0.832</gom:speed></extensions></trkpt>
   <trkpt lat="59.0673285557" lon="30.0354191777"><ele>13.887</ele><time>2026-04-20T19:58:56.075Z</time><hdop>4.875</hdop><vdop>5.5</vdop><extensions><gom:speed>0.779</gom:speed></extensions></trkpt>
   <trkpt lat="59.0673249515" lon="30.035412556"><ele>13.954</ele><time>2026-04-20T19:58:56.934Z</time><hdop>5.0</hdop><vdop>5.375</vdop><extensions><gom:speed>0.74</gom:speed></extensions></trkpt>
   <trkpt lat="59.0673222274" lon="30.0354050961"><ele>13.158</ele><time>2026-04-20T19:58:58.075Z</time><hdop>5.125</hdop><vdop>5.25</vdop><extensions><gom:speed>0.645</gom:speed></extensions></trkpt>
   <trkpt lat="59.0673217245" lon="30.0354035873"><ele>12.683</ele><time>2026-04-20T19:58:58.697Z</time><hdop>5.125</hdop><vdop>5.25</vdop><extensions><gom:speed>0.59</gom:speed></extensions></trkpt>
   <trkpt lat="59.0673174497" lon="30.0354005699"><ele>12.743</ele><time>2026-04-20T19:58:59.253Z</time><hdop>5.25</hdop><vdop>5.375</vdop><extensions><gom:speed>0.579</gom:speed></extensions></trkpt>
   <trkpt lat="59.0673127558" lon="30.0353983067"><ele>12.779</ele><time>2026-04-20T19:58:59.997Z</time><hdop>5.25</hdop><vdop>5.375</vdop><extensions><gom:speed>0.633</gom:speed></extensions></trkpt>
   <trkpt lat="59.0673055474" lon="30.0353983067"><ele>12.85</ele><time>2026-04-20T19:59:00.757Z</time><hdop>5.375</hdop><vdop>5.375</vdop><extensions><gom:speed>0.68</gom:speed></extensions></trkpt>
   <trkpt lat="59.0672981294" lon="30.0353998993"><ele>13.296</ele><time>2026-04-20T19:59:01.593Z</time><hdop>5.25</hdop><vdop>5.375</vdop><extensions><gom:speed>0.687</gom:speed></extensions></trkpt>
   <trkpt lat="59.0672935194" lon="30.0354011566"><ele>13.636</ele><time>2026-04-20T19:59:02.075Z</time><hdop>5.25</hdop><vdop>5.25</vdop><extensions><gom:speed>0.693</gom:speed></extensions></trkpt>
   <trkpt lat="59.0672896218" lon="30.0354021624"><ele>13.84</ele><time>2026-04-20T19:59:02.583Z</time><hdop>5.25</hdop><vdop>5.25</vdop><extensions><gom:speed>0.686</gom:speed></extensions></trkpt>
   <trkpt lat="59.0672847184" lon="30.0354014919"><ele>14.125</ele><time>2026-04-20T19:59:03.075Z</time><hdop>5.125</hdop><vdop>5.25</vdop><extensions><gom:speed>0.691</gom:speed></extensions></trkpt>
   <trkpt lat="59.067276546" lon="30.0353962113"><ele>14.291</ele><time>2026-04-20T19:59:04.075Z</time><hdop>5.125</hdop><vdop>5.25</vdop><extensions><gom:speed>0.674</gom:speed></extensions></trkpt>
   <trkpt lat="59.0672745343" lon="30.0353913498"><ele>14.39</ele><time>2026-04-20T19:59:04.574Z</time><hdop>5.0</hdop><vdop>5.25</vdop><extensions><gom:speed>0.623</gom:speed></extensions></trkpt>
   <trkpt lat="59.0672701338" lon="30.0353843928"><ele>14.836</ele><time>2026-04-20T19:59:05.075Z</time><hdop>5.0</hdop><vdop>5.25</vdop><extensions><gom:speed>0.629</gom:speed></extensions></trkpt>
   <trkpt lat="59.0672656495" lon="30.0353796989"><ele>14.878</ele><time>2026-04-20T19:59:06.075Z</time><hdop>4.875</hdop><vdop>5.125</vdop><extensions><gom:speed>0.555</gom:speed></extensions></trkpt>
   <trkpt lat="59.0672623387" lon="30.0353742507"><ele>14.744</ele><time>2026-04-20T19:59:06.990Z</time><hdop>4.875</hdop><vdop>5.125</vdop><extensions><gom:speed>0.499</gom:speed></extensions></trkpt>
   <trkpt lat="59.0672608299" lon="30.035366707"><ele>14.664</ele><time>2026-04-20T19:59:07.920Z</time><hdop>4.875</hdop><vdop>5.125</vdop><extensions><gom:speed>0.509</gom:speed></extensions></trkpt>
   <trkpt lat="59.0672593212" lon="30.0353561458"><ele>14.367</ele><time>2026-04-20T19:59:08.800Z</time><hdop>5.0</hdop><vdop>10.5</vdop><extensions><gom:speed>0.565</gom:speed></extensions></trkpt>
   <trkpt lat="59.0672574353" lon="30.0353455846"><ele>14.341</ele><time>2026-04-20T19:59:09.678Z</time><hdop>5.125</hdop><vdop>10.5</vdop><extensions><gom:speed>0.59</gom:speed></extensions></trkpt>
   <trkpt lat="59.0672548369" lon="30.0353396334"><ele>14.293</ele><time>2026-04-20T19:59:10.301Z</time><hdop>5.375</hdop><vdop>10.375</vdop><extensions><gom:speed>0.6</gom:speed></extensions></trkpt>
   <trkpt lat="59.0672505202" lon="30.0353338499"><ele>14.493</ele><time>2026-04-20T19:59:11.075Z</time><hdop>5.375</hdop><vdop>10.25</vdop><extensions><gom:speed>0.644</gom:speed></extensions></trkpt>
   <trkpt lat="59.0672461197" lon="30.0353253004"><ele>14.613</ele><time>2026-04-20T19:59:11.860Z</time><hdop>5.625</hdop><vdop>10.25</vdop><extensions><gom:speed>0.697</gom:speed></extensions></trkpt>
   <trkpt lat="59.0672425574" lon="30.0353167508"><ele>14.616</ele><time>2026-04-20T19:59:12.540Z</time><hdop>5.75</hdop><vdop>10.25</vdop><extensions><gom:speed>0.737</gom:speed></extensions></trkpt>
   <trkpt lat="59.0672399171" lon="30.0353123922"><ele>14.86</ele><time>2026-04-20T19:59:13.075Z</time><hdop>5.75</hdop><vdop>9.875</vdop><extensions><gom:speed>0.736</gom:speed></extensions></trkpt>
   <trkpt lat="59.0672351394" lon="30.0353033398"><ele>15.006</ele><time>2026-04-20T19:59:14.044Z</time><hdop>5.875</hdop><vdop>9.875</vdop><extensions><gom:speed>0.732</gom:speed></extensions></trkpt>
   <trkpt lat="59.067231158" lon="30.0352957123"><ele>15.145</ele><time>2026-04-20T19:59:14.821Z</time><hdop>6.0</hdop><vdop>9.625</vdop><extensions><gom:speed>0.732</gom:speed></extensions></trkpt>
   <trkpt lat="59.0672275538" lon="30.0352885038"><ele>15.216</ele><time>2026-04-20T19:59:15.799Z</time><hdop>6.125</hdop><vdop>9.5</vdop><extensions><gom:speed>0.736</gom:speed></extensions></trkpt>
   <trkpt lat="59.0672242429" lon="30.0352776073"><ele>14.896</ele><time>2026-04-20T19:59:17.082Z</time><hdop>6.125</hdop><vdop>8.75</vdop><extensions><gom:speed>0.588</gom:speed></extensions></trkpt>
   <trkpt lat="59.0672229437" lon="30.0352691416"><ele>16.064</ele><time>2026-04-20T19:59:17.841Z</time><hdop>6.0</hdop><vdop>8.625</vdop><extensions><gom:speed>0.551</gom:speed></extensions></trkpt>
   <trkpt lat="59.0672217284" lon="30.0352641125"><ele>18.244</ele><time>2026-04-20T19:59:18.582Z</time><hdop>5.875</hdop><vdop>7.875</vdop><extensions><gom:speed>0.573</gom:speed></extensions></trkpt>
   <trkpt lat="59.0672203453" lon="30.0352584966"><ele>19.466</ele><time>2026-04-20T19:59:19.075Z</time><hdop>5.75</hdop><vdop>7.75</vdop><extensions><gom:speed>0.577</gom:speed></extensions></trkpt>
   <trkpt lat="59.0672162382" lon="30.0352441635"><ele>20.719</ele><time>2026-04-20T19:59:20.075Z</time><hdop>5.625</hdop><vdop>7.5</vdop><extensions><gom:speed>0.645</gom:speed></extensions></trkpt>
   <trkpt lat="59.0672129274" lon="30.0352332671"><ele>21.467</ele><time>2026-04-20T19:59:20.885Z</time><hdop>5.375</hdop><vdop>7.5</vdop><extensions><gom:speed>0.656</gom:speed></extensions></trkpt>
   <trkpt lat="59.067209826" lon="30.0352185987"><ele>23.257</ele><time>2026-04-20T19:59:21.533Z</time><hdop>5.25</hdop><vdop>7.375</vdop><extensions><gom:speed>0.72</gom:speed></extensions></trkpt>
   <trkpt lat="59.0672064314" lon="30.0352049362"><ele>25.857</ele><time>2026-04-20T19:59:22.075Z</time><hdop>5.25</hdop><vdop>7.375</vdop><extensions><gom:speed>0.731</gom:speed></extensions></trkpt>
   <trkpt lat="59.0672019471" lon="30.0351906032"><ele>27.411</ele><time>2026-04-20T19:59:22.837Z</time><hdop>5.125</hdop><vdop>7.375</vdop><extensions><gom:speed>0.802</gom:speed></extensions></trkpt>
   <trkpt lat="59.0671956187" lon="30.0351759349"><ele>28.809</ele><time>2026-04-20T19:59:23.442Z</time><hdop>5.0</hdop><vdop>7.5</vdop><extensions><gom:speed>0.804</gom:speed></extensions></trkpt>
   <trkpt lat="59.0671881169" lon="30.0351640326"><ele>30.354</ele><time>2026-04-20T19:59:24.075Z</time><hdop>5.0</hdop><vdop>7.625</vdop><extensions><gom:speed>0.819</gom:speed></extensions></trkpt>
   <trkpt lat="59.0671796512" lon="30.0351583329"><ele>31.278</ele><time>2026-04-20T19:59:24.978Z</time><hdop>4.875</hdop><vdop>7.625</vdop><extensions><gom:speed>0.775</gom:speed></extensions></trkpt>
   <trkpt lat="59.0671687547" lon="30.0351481069"><ele>32.101</ele><time>2026-04-20T19:59:25.817Z</time><hdop>4.875</hdop><vdop>7.5</vdop><extensions><gom:speed>0.767</gom:speed></extensions></trkpt>
   <trkpt lat="59.06716075" lon="30.035134193"><ele>33.169</ele><time>2026-04-20T19:59:26.320Z</time><hdop>4.875</hdop><vdop>7.125</vdop><extensions><gom:speed>0.793</gom:speed></extensions></trkpt>
   <trkpt lat="59.0671522424" lon="30.0351144117"><ele>34.177</ele><time>2026-04-20T19:59:27.075Z</time><hdop>4.875</hdop><vdop>7.125</vdop><extensions><gom:speed>0.82</gom:speed></extensions></trkpt>
   <trkpt lat="59.0671430223" lon="30.0350854103"><ele>36.308</ele><time>2026-04-20T19:59:28.075Z</time><hdop>4.875</hdop><vdop>7.0</vdop><extensions><gom:speed>0.813</gom:speed></extensions></trkpt>
   <trkpt lat="59.0671363168" lon="30.0350541458"><ele>39.368</ele><time>2026-04-20T19:59:29.075Z</time><hdop>5.0</hdop><vdop>6.75</vdop><extensions><gom:speed>0.782</gom:speed></extensions></trkpt>
   <trkpt lat="59.0671306171" lon="30.0350222946"><ele>39.378</ele><time>2026-04-20T19:59:30.075Z</time><hdop>5.0</hdop><vdop>6.375</vdop><extensions><gom:speed>0.784</gom:speed></extensions></trkpt>
   <trkpt lat="59.0671250431" lon="30.0350017589"><ele>38.178</ele><time>2026-04-20T19:59:31.035Z</time><hdop>5.0</hdop><vdop>5.875</vdop><extensions><gom:speed>0.755</gom:speed></extensions></trkpt>
   <trkpt lat="59.0671215227" lon="30.0349964783"><ele>37.46</ele><time>2026-04-20T19:59:31.938Z</time><hdop>5.0</hdop><vdop>5.875</vdop><extensions><gom:speed>0.69</gom:speed></extensions></trkpt>
   <trkpt lat="59.0671142304" lon="30.0349803012"><ele>35.711</ele><time>2026-04-20T19:59:33.076Z</time><hdop>5.0</hdop><vdop>5.375</vdop><extensions><gom:speed>0.625</gom:speed></extensions></trkpt>
   <trkpt lat="59.0671057228" lon="30.0349653815"><ele>33.507</ele><time>2026-04-20T19:59:34.075Z</time><hdop>4.875</hdop><vdop>5.125</vdop><extensions><gom:speed>0.584</gom:speed></extensions></trkpt>
   <trkpt lat="59.0670971314" lon="30.0349518866"><ele>32.141</ele><time>2026-04-20T19:59:35.075Z</time><hdop>4.75</hdop><vdop>5.0</vdop><extensions><gom:speed>0.609</gom:speed></extensions></trkpt>
   <trkpt lat="59.067088037" lon="30.0349404034"><ele>30.21</ele><time>2026-04-20T19:59:36.075Z</time><hdop>4.625</hdop><vdop>4.875</vdop><extensions><gom:speed>0.637</gom:speed></extensions></trkpt>
   <trkpt lat="59.067079236" lon="30.034935039"><ele>29.224</ele><time>2026-04-20T19:59:37.075Z</time><hdop>4.5</hdop><vdop>4.875</vdop><extensions><gom:speed>0.614</gom:speed></extensions></trkpt>
   <trkpt lat="59.06707274" lon="30.0349348713"><ele>28.616</ele><time>2026-04-20T19:59:38.024Z</time><hdop>4.375</hdop><vdop>5.125</vdop><extensions><gom:speed>0.607</gom:speed></extensions></trkpt>
   <trkpt lat="59.0670675432" lon="30.0349334464"><ele>28.318</ele><time>2026-04-20T19:59:38.972Z</time><hdop>4.375</hdop><vdop>5.25</vdop><extensions><gom:speed>0.57</gom:speed></extensions></trkpt>
   <trkpt lat="59.0670613406" lon="30.0349279982"><ele>28.696</ele><time>2026-04-20T19:59:40.075Z</time><hdop>4.375</hdop><vdop>5.5</vdop><extensions><gom:speed>0.515</gom:speed></extensions></trkpt>
   <trkpt lat="59.0670544256" lon="30.0349217117"><ele>29.368</ele><time>2026-04-20T19:59:41.075Z</time><hdop>4.375</hdop><vdop>5.375</vdop><extensions><gom:speed>0.504</gom:speed></extensions></trkpt>
   <trkpt lat="59.0670522463" lon="30.0349204544"><ele>29.769</ele><time>2026-04-20T19:59:41.578Z</time><hdop>4.375</hdop><vdop>5.375</vdop><extensions><gom:speed>0.54</gom:speed></extensions></trkpt>
   <trkpt lat="59.0670436548" lon="30.0349163473"><ele>30.752</ele><time>2026-04-20T19:59:42.075Z</time><hdop>4.5</hdop><vdop>5.25</vdop><extensions><gom:speed>0.607</gom:speed></extensions></trkpt>
   <trkpt lat="59.0670311239" lon="30.0349122402"><ele>32.26</ele><time>2026-04-20T19:59:43.075Z</time><hdop>4.625</hdop><vdop>5.25</vdop><extensions><gom:speed>0.76</gom:speed></extensions></trkpt>
   <trkpt lat="59.06702182" lon="30.0349055347"><ele>33.162</ele><time>2026-04-20T19:59:44.002Z</time><hdop>4.625</hdop><vdop>5.25</vdop><extensions><gom:speed>0.825</gom:speed></extensions></trkpt>
   <trkpt lat="59.0670144439" lon="30.0348971528"><ele>34.18</ele><time>2026-04-20T19:59:44.641Z</time><hdop>4.625</hdop><vdop>5.25</vdop><extensions><gom:speed>0.851</gom:speed></extensions></trkpt>
   <trkpt lat="59.067008828" lon="30.0348865077"><ele>34.881</ele><time>2026-04-20T19:59:45.313Z</time><hdop>4.75</hdop><vdop>5.5</vdop><extensions><gom:speed>0.851</gom:speed></extensions></trkpt>
   <trkpt lat="59.0670049304" lon="30.0348735158"><ele>36.42</ele><time>2026-04-20T19:59:46.075Z</time><hdop>4.625</hdop><vdop>5.75</vdop><extensions><gom:speed>0.854</gom:speed></extensions></trkpt>
   <trkpt lat="59.0670035474" lon="30.0348606915"><ele>37.339</ele><time>2026-04-20T19:59:46.815Z</time><hdop>4.75</hdop><vdop>5.75</vdop><extensions><gom:speed>0.86</gom:speed></extensions></trkpt>
   <trkpt lat="59.0670035474" lon="30.0348457717"><ele>36.705</ele><time>2026-04-20T19:59:47.574Z</time><hdop>4.625</hdop><vdop>5.625</vdop><extensions><gom:speed>0.874</gom:speed></extensions></trkpt>
   <trkpt lat="59.0670041341" lon="30.0348306004"><ele>35.511</ele><time>2026-04-20T19:59:48.075Z</time><hdop>4.625</hdop><vdop>5.5</vdop><extensions><gom:speed>0.895</gom:speed></extensions></trkpt>
   <trkpt lat="59.0670027511" lon="30.0348177761"><ele>34.797</ele><time>2026-04-20T19:59:48.996Z</time><hdop>4.625</hdop><vdop>5.5</vdop><extensions><gom:speed>0.89</gom:speed></extensions></trkpt>
   <trkpt lat="59.0669994403" lon="30.0348052033"><ele>33.729</ele><time>2026-04-20T19:59:49.795Z</time><hdop>4.625</hdop><vdop>5.25</vdop><extensions><gom:speed>0.859</gom:speed></extensions></trkpt>
   <trkpt lat="59.0669965485" lon="30.0347959832"><ele>31.971</ele><time>2026-04-20T19:59:50.457Z</time><hdop>4.5</hdop><vdop>5.25</vdop><extensions><gom:speed>0.84</gom:speed></extensions></trkpt>
   <trkpt lat="59.0669932377" lon="30.0347884395"><ele>30.19</ele><time>2026-04-20T19:59:51.075Z</time><hdop>4.5</hdop><vdop>5.125</vdop><extensions><gom:speed>0.864</gom:speed></extensions></trkpt>
   <trkpt lat="59.0669862388" lon="30.0347806443"><ele>29.126</ele><time>2026-04-20T19:59:51.940Z</time><hdop>4.5</hdop><vdop>5.125</vdop><extensions><gom:speed>0.899</gom:speed></extensions></trkpt>
   <trkpt lat="59.0669799524" lon="30.0347748608"><ele>28.467</ele><time>2026-04-20T19:59:52.677Z</time><hdop>4.625</hdop><vdop>5.125</vdop><extensions><gom:speed>0.943</gom:speed></extensions></trkpt>
   <trkpt lat="59.0669730373" lon="30.0347695802"><ele>27.858</ele><time>2026-04-20T19:59:53.458Z</time><hdop>4.75</hdop><vdop>4.875</vdop><extensions><gom:speed>0.905</gom:speed></extensions></trkpt>
   <trkpt lat="59.0669678405" lon="30.0347664789"><ele>26.614</ele><time>2026-04-20T19:59:54.075Z</time><hdop>4.75</hdop><vdop>4.75</vdop><extensions><gom:speed>0.847</gom:speed></extensions></trkpt>
   <trkpt lat="59.0669623504" lon="30.0347634614"><ele>25.438</ele><time>2026-04-20T19:59:54.964Z</time><hdop>4.875</hdop><vdop>4.625</vdop><extensions><gom:speed>0.838</gom:speed></extensions></trkpt>
   <trkpt lat="59.0669579499" lon="30.0347586837"><ele>24.211</ele><time>2026-04-20T19:59:56.076Z</time><hdop>5.0</hdop><vdop>4.75</vdop><extensions><gom:speed>0.807</gom:speed></extensions></trkpt>
   <trkpt lat="59.0669534236" lon="30.0347521458"><ele>23.477</ele><time>2026-04-20T19:59:57.021Z</time><hdop>5.25</hdop><vdop>4.75</vdop><extensions><gom:speed>0.779</gom:speed></extensions></trkpt>
   <trkpt lat="59.0669507414" lon="30.0347508047"><ele>22.682</ele><time>2026-04-20T19:59:57.920Z</time><hdop>5.375</hdop><vdop>4.875</vdop><extensions><gom:speed>0.731</gom:speed></extensions></trkpt>
   <trkpt lat="59.0669491489" lon="30.0347521458"><ele>21.739</ele><time>2026-04-20T19:59:58.702Z</time><hdop>5.375</hdop><vdop>4.875</vdop><extensions><gom:speed>0.721</gom:speed></extensions></trkpt>
   <trkpt lat="59.0669452513" lon="30.0347555824"><ele>20.487</ele><time>2026-04-20T19:59:59.500Z</time><hdop>5.375</hdop><vdop>4.75</vdop><extensions><gom:speed>0.733</gom:speed></extensions></trkpt>
   <trkpt lat="59.0669418566" lon="30.034758097"><ele>19.661</ele><time>2026-04-20T20:00:00.075Z</time><hdop>5.375</hdop><vdop>4.875</vdop><extensions><gom:speed>0.741</gom:speed></extensions></trkpt>
   <trkpt lat="59.0669341453" lon="30.0347536546"><ele>19.168</ele><time>2026-04-20T20:00:01.059Z</time><hdop>5.375</hdop><vdop>4.875</vdop><extensions><gom:speed>0.789</gom:speed></extensions></trkpt>
   <trkpt lat="59.066929619" lon="30.0347554986"><ele>18.422</ele><time>2026-04-20T20:00:01.919Z</time><hdop>5.375</hdop><vdop>4.875</vdop><extensions><gom:speed>0.779</gom:speed></extensions></trkpt>
   <trkpt lat="59.066925931" lon="30.0347549119"><ele>18.059</ele><time>2026-04-20T20:00:02.580Z</time><hdop>5.25</hdop><vdop>5.0</vdop><extensions><gom:speed>0.701</gom:speed></extensions></trkpt>
   <trkpt lat="59.0669244222" lon="30.0347591028"><ele>17.233</ele><time>2026-04-20T20:00:03.075Z</time><hdop>5.25</hdop><vdop>5.375</vdop><extensions><gom:speed>0.668</gom:speed></extensions></trkpt>
   <trkpt lat="59.0669214467" lon="30.0347568397"><ele>16.195</ele><time>2026-04-20T20:00:03.966Z</time><hdop>5.375</hdop><vdop>5.625</vdop><extensions><gom:speed>0.612</gom:speed></extensions></trkpt>
   <trkpt lat="59.0669182196" lon="30.0347487093"><ele>15.575</ele><time>2026-04-20T20:00:04.997Z</time><hdop>5.5</hdop><vdop>5.625</vdop><extensions><gom:speed>0.623</gom:speed></extensions></trkpt>
   <trkpt lat="59.0669197284" lon="30.0347518944"><ele>15.302</ele><time>2026-04-20T20:00:05.604Z</time><hdop>5.5</hdop><vdop>5.5</vdop><extensions><gom:speed>0.617</gom:speed></extensions></trkpt>
   <trkpt lat="59.066922243" lon="30.0347544928"><ele>15.076</ele><time>2026-04-20T20:00:06.075Z</time><hdop>5.5</hdop><vdop>5.625</vdop><extensions><gom:speed>0.656</gom:speed></extensions></trkpt>
   <trkpt lat="59.0669247575" lon="30.0347415008"><ele>14.941</ele><time>2026-04-20T20:00:06.862Z</time><hdop>5.5</hdop><vdop>5.625</vdop><extensions><gom:speed>0.775</gom:speed></extensions></trkpt>
   <trkpt lat="59.0669285294" lon="30.0347397406"><ele>14.767</ele><time>2026-04-20T20:00:07.641Z</time><hdop>5.5</hdop><vdop>5.625</vdop><extensions><gom:speed>0.761</gom:speed></extensions></trkpt>
   <trkpt lat="59.0669302477" lon="30.0347396568"><ele>14.58</ele><time>2026-04-20T20:00:08.505Z</time><hdop>5.5</hdop><vdop>5.625</vdop><extensions><gom:speed>0.689</gom:speed></extensions></trkpt>
   <trkpt lat="59.0669269368" lon="30.034736304"><ele>14.32</ele><time>2026-04-20T20:00:09.320Z</time><hdop>5.5</hdop><vdop>10.375</vdop><extensions><gom:speed>0.687</gom:speed></extensions></trkpt>
   <trkpt lat="59.0669262244" lon="30.034742339"><ele>14.106</ele><time>2026-04-20T20:00:10.075Z</time><hdop>5.5</hdop><vdop>10.5</vdop><extensions><gom:speed>0.559</gom:speed></extensions></trkpt>
   <trkpt lat="59.0669249252" lon="30.0347446859"><ele>13.979</ele><time>2026-04-20T20:00:10.682Z</time><hdop>5.5</hdop><vdop>10.5</vdop><extensions><gom:speed>0.488</gom:speed></extensions></trkpt>
   <trkpt lat="59.0669226201" lon="30.0347453565"><ele>13.972</ele><time>2026-04-20T20:00:11.702Z</time><hdop>5.625</hdop><vdop>10.5</vdop><extensions><gom:speed>0.404</gom:speed></extensions></trkpt>
   <trkpt lat="59.0669251347" lon="30.0347554986"><ele>13.961</ele><time>2026-04-20T20:00:12.495Z</time><hdop>5.75</hdop><vdop>10.25</vdop><extensions><gom:speed>0.352</gom:speed></extensions></trkpt>
   <trkpt lat="59.0669241289" lon="30.0347596057"><ele>13.919</ele><time>2026-04-20T20:00:12.969Z</time><hdop>5.875</hdop><vdop>10.125</vdop><extensions><gom:speed>0.328</gom:speed></extensions></trkpt>
   <trkpt lat="59.0669228297" lon="30.0347603601"><ele>13.894</ele><time>2026-04-20T20:00:13.694Z</time><hdop>6.0</hdop><vdop>10.125</vdop><extensions><gom:speed>0.344</gom:speed></extensions></trkpt>
   <trkpt lat="59.0669238355" lon="30.0347679876"><ele>13.828</ele><time>2026-04-20T20:00:14.524Z</time><hdop>6.0</hdop><vdop>9.875</vdop><extensions><gom:speed>0.361</gom:speed></extensions></trkpt>
   <trkpt lat="59.0669249252" lon="30.034773352"><ele>13.713</ele><time>2026-04-20T20:00:15.075Z</time><hdop>6.0</hdop><vdop>9.75</vdop><extensions><gom:speed>0.356</gom:speed></extensions></trkpt>
   <trkpt lat="59.0669240451" lon="30.034777543"><ele>13.868</ele><time>2026-04-20T20:00:16.075Z</time><hdop>6.0</hdop><vdop>8.375</vdop><extensions><gom:speed>0.414</gom:speed></extensions></trkpt>
   <trkpt lat="59.0669210276" lon="30.0347746093"><ele>13.961</ele><time>2026-04-20T20:00:17.003Z</time><hdop>5.875</hdop><vdop>8.375</vdop><extensions><gom:speed>0.454</gom:speed></extensions></trkpt>
   <trkpt lat="59.0669219496" lon="30.0347646349"><ele>13.463</ele><time>2026-04-20T20:00:18.038Z</time><hdop>5.875</hdop><vdop>7.625</vdop><extensions><gom:speed>0.46</gom:speed></extensions></trkpt>
   <trkpt lat="59.0669240451" lon="30.0347623718"><ele>12.615</ele><time>2026-04-20T20:00:18.655Z</time><hdop>5.75</hdop><vdop>7.0</vdop><extensions><gom:speed>0.438</gom:speed></extensions></trkpt>
   <trkpt lat="59.0669256376" lon="30.0347551633"><ele>11.829</ele><time>2026-04-20T20:00:19.924Z</time><hdop>5.625</hdop><vdop>7.125</vdop><extensions><gom:speed>0.337</gom:speed></extensions></trkpt>
   <trkpt lat="59.0669253443" lon="30.0347563368"><ele>11.945</ele><time>2026-04-20T20:00:20.643Z</time><hdop>5.625</hdop><vdop>7.25</vdop><extensions><gom:speed>0.327</gom:speed></extensions></trkpt>
   <trkpt lat="59.0669225363" lon="30.0347561691"><ele>11.885</ele><time>2026-04-20T20:00:21.777Z</time><hdop>5.5</hdop><vdop>7.0</vdop><extensions><gom:speed>0.334</gom:speed></extensions></trkpt>
   <trkpt lat="59.0669182196" lon="30.0347518944"><ele>11.615</ele><time>2026-04-20T20:00:23.075Z</time><hdop>5.25</hdop><vdop>6.875</vdop><extensions><gom:speed>0.337</gom:speed></extensions></trkpt>
   <trkpt lat="59.0669165433" lon="30.0347470329"><ele>11.589</ele><time>2026-04-20T20:00:24.075Z</time><hdop>5.125</hdop><vdop>6.75</vdop><extensions><gom:speed>0.301</gom:speed></extensions></trkpt>
   <trkpt lat="59.0669160403" lon="30.0347443507"><ele>11.573</ele><time>2026-04-20T20:00:24.856Z</time><hdop>5.0</hdop><vdop>6.75</vdop><extensions><gom:speed>0.27</gom:speed></extensions></trkpt>
   <trkpt lat="59.0669153279" lon="30.0347385672"><ele>11.676</ele><time>2026-04-20T20:00:26.082Z</time><hdop>4.75</hdop><vdop>6.625</vdop><extensions><gom:speed>0.201</gom:speed></extensions></trkpt>
   <trkpt lat="59.0669132324" lon="30.0347338733"><ele>12.072</ele><time>2026-04-20T20:00:27.075Z</time><hdop>4.75</hdop><vdop>6.875</vdop><extensions><gom:speed>0.177</gom:speed></extensions></trkpt>
   <trkpt lat="59.0669107178" lon="30.0347308558"><ele>12.672</ele><time>2026-04-20T20:00:28.075Z</time><hdop>4.75</hdop><vdop>7.0</vdop><extensions><gom:speed>0.166</gom:speed></extensions></trkpt>
   <trkpt lat="59.0669087481" lon="30.0347270839"><ele>13.218</ele><time>2026-04-20T20:00:29.075Z</time><hdop>4.625</hdop><vdop>7.0</vdop><extensions><gom:speed>0.125</gom:speed></extensions></trkpt>
   <trkpt lat="59.0669067364" lon="30.0347242341"><ele>13.848</ele><time>2026-04-20T20:00:30.075Z</time><hdop>4.5</hdop><vdop>7.0</vdop><extensions><gom:speed>0.122</gom:speed></extensions></trkpt>
   <trkpt lat="59.0669048505" lon="30.0347215519"><ele>14.564</ele><time>2026-04-20T20:00:31.075Z</time><hdop>4.5</hdop><vdop>7.125</vdop><extensions><gom:speed>0.091</gom:speed></extensions></trkpt>
   <trkpt lat="59.0669042219" lon="30.0347199593"><ele>15.4</ele><time>2026-04-20T20:00:32.040Z</time><hdop>4.375</hdop><vdop>7.125</vdop><extensions><gom:speed>0.109</gom:speed></extensions></trkpt>
   <trkpt lat="59.0669026293" lon="30.0347153493"><ele>16.638</ele><time>2026-04-20T20:00:33.075Z</time><hdop>4.375</hdop><vdop>7.0</vdop><extensions><gom:speed>0.068</gom:speed></extensions></trkpt>
   <trkpt lat="59.0669003243" lon="30.0347088952"><ele>17.783</ele><time>2026-04-20T20:00:34.075Z</time><hdop>4.375</hdop><vdop>7.0</vdop><extensions><gom:speed>0.073</gom:speed></extensions></trkpt>
   <trkpt lat="59.0668980193" lon="30.0347021897"><ele>18.778</ele><time>2026-04-20T20:00:35.075Z</time><hdop>4.5</hdop><vdop>10.0</vdop><extensions><gom:speed>0.07</gom:speed></extensions></trkpt>
   <trkpt lat="59.0668954209" lon="30.0346969929"><ele>19.645</ele><time>2026-04-20T20:00:36.076Z</time><hdop>4.5</hdop><vdop>9.375</vdop><extensions><gom:speed>0.098</gom:speed></extensions></trkpt>
   <trkpt lat="59.0668946246" lon="30.034694646"><ele>19.76</ele><time>2026-04-20T20:00:37.015Z</time><hdop>4.5</hdop><vdop>8.5</vdop><extensions><gom:speed>0.081</gom:speed></extensions></trkpt>
   <trkpt lat="59.0668941217" lon="30.0346935563"><ele>19.828</ele><time>2026-04-20T20:00:37.998Z</time><hdop>4.625</hdop><vdop>8.5</vdop><extensions><gom:speed>0.096</gom:speed></extensions></trkpt>
   <trkpt lat="59.066888422" lon="30.0346819893"><ele>19.732</ele><time>2026-04-20T20:00:39.075Z</time><hdop>4.75</hdop><vdop>7.125</vdop><extensions><gom:speed>0.123</gom:speed></extensions></trkpt>
   <trkpt lat="59.0668833509" lon="30.034672853"><ele>19.499</ele><time>2026-04-20T20:00:40.075Z</time><hdop>4.75</hdop><vdop>6.625</vdop><extensions><gom:speed>0.178</gom:speed></extensions></trkpt>
   <trkpt lat="59.066880543" lon="30.0346720987"><ele>19.359</ele><time>2026-04-20T20:00:40.978Z</time><hdop>4.75</hdop><vdop>6.625</vdop><extensions><gom:speed>0.232</gom:speed></extensions></trkpt>
   <trkpt lat="59.0668738375" lon="30.0346687459"><ele>19.851</ele><time>2026-04-20T20:00:42.053Z</time><hdop>4.875</hdop><vdop>6.375</vdop><extensions><gom:speed>0.337</gom:speed></extensions></trkpt>
   <trkpt lat="59.0668677187" lon="30.0346663151"><ele>19.628</ele><time>2026-04-20T20:00:43.057Z</time><hdop>4.875</hdop><vdop>6.25</vdop><extensions><gom:speed>0.334</gom:speed></extensions></trkpt>
   <trkpt lat="59.0668604264" lon="30.0346663151"><ele>19.545</ele><time>2026-04-20T20:00:44.075Z</time><hdop>4.75</hdop><vdop>5.875</vdop><extensions><gom:speed>0.38</gom:speed></extensions></trkpt>
   <trkpt lat="59.0668570317" lon="30.0346653093"><ele>19.495</ele><time>2026-04-20T20:00:44.799Z</time><hdop>4.75</hdop><vdop>5.875</vdop><extensions><gom:speed>0.392</gom:speed></extensions></trkpt>
   <trkpt lat="59.0668516254" lon="30.0346604478"><ele>19.387</ele><time>2026-04-20T20:00:45.302Z</time><hdop>4.75</hdop><vdop>6.0</vdop><extensions><gom:speed>0.417</gom:speed></extensions></trkpt>
   <trkpt lat="59.0668502424" lon="30.0346571789"><ele>19.286</ele><time>2026-04-20T20:00:46.018Z</time><hdop>4.75</hdop><vdop>6.0</vdop><extensions><gom:speed>0.346</gom:speed></extensions></trkpt>
   <trkpt lat="59.0668452552" lon="30.0346509763"><ele>18.871</ele><time>2026-04-20T20:00:47.075Z</time><hdop>4.625</hdop><vdop>5.875</vdop><extensions><gom:speed>0.333</gom:speed></extensions></trkpt>
   <trkpt lat="59.066841651" lon="30.0346485455"><ele>18.624</ele><time>2026-04-20T20:00:48.096Z</time><hdop>4.625</hdop><vdop>5.875</vdop><extensions><gom:speed>0.319</gom:speed></extensions></trkpt>
   <trkpt lat="59.0668320537" lon="30.0346474559"><ele>17.079</ele><time>2026-04-20T20:00:49.075Z</time><hdop>4.625</hdop><vdop>5.625</vdop><extensions><gom:speed>0.363</gom:speed></extensions></trkpt>
   <trkpt lat="59.0668310478" lon="30.0346470368"><ele>16.157</ele><time>2026-04-20T20:00:49.571Z</time><hdop>4.625</hdop><vdop>5.625</vdop><extensions><gom:speed>0.293</gom:speed></extensions></trkpt>
   <trkpt lat="59.066823546" lon="30.0346482102"><ele>15.329</ele><time>2026-04-20T20:00:50.075Z</time><hdop>4.625</hdop><vdop>5.75</vdop><extensions><gom:speed>0.305</gom:speed></extensions></trkpt>
   <trkpt lat="59.066816631" lon="30.0346492999"><ele>14.744</ele><time>2026-04-20T20:00:51.076Z</time><hdop>4.5</hdop><vdop>5.875</vdop><extensions><gom:speed>0.318</gom:speed></extensions></trkpt>
   <trkpt lat="59.0668099254" lon="30.0346539937"><ele>14.584</ele><time>2026-04-20T20:00:52.075Z</time><hdop>4.5</hdop><vdop>5.875</vdop><extensions><gom:speed>0.336</gom:speed></extensions></trkpt>
   <trkpt lat="59.0668070337" lon="30.0346591905"><ele>14.488</ele><time>2026-04-20T20:00:52.864Z</time><hdop>4.5</hdop><vdop>5.875</vdop><extensions><gom:speed>0.356</gom:speed></extensions></trkpt>
   <trkpt lat="59.0668018369" lon="30.034665896"><ele>14.49</ele><time>2026-04-20T20:00:53.534Z</time><hdop>4.5</hdop><vdop>5.875</vdop><extensions><gom:speed>0.454</gom:speed></extensions></trkpt>
   <trkpt lat="59.0667970173" lon="30.0346726016"><ele>14.437</ele><time>2026-04-20T20:00:54.075Z</time><hdop>4.5</hdop><vdop>5.75</vdop><extensions><gom:speed>0.505</gom:speed></extensions></trkpt>
   <trkpt lat="59.06678742" lon="30.0346843362"><ele>14.406</ele><time>2026-04-20T20:00:54.859Z</time><hdop>4.5</hdop><vdop>5.75</vdop><extensions><gom:speed>0.774</gom:speed></extensions></trkpt>
   <trkpt lat="59.0667765236" lon="30.0346950651"><ele>13.972</ele><time>2026-04-20T20:00:55.478Z</time><hdop>4.625</hdop><vdop>5.75</vdop><extensions><gom:speed>0.929</gom:speed></extensions></trkpt>
   <trkpt lat="59.06676613" lon="30.0347039499"><ele>13.671</ele><time>2026-04-20T20:00:56.075Z</time><hdop>4.625</hdop><vdop>5.5</vdop><extensions><gom:speed>0.943</gom:speed></extensions></trkpt>
   <trkpt lat="59.0667593407" lon="30.0347073865"><ele>13.491</ele><time>2026-04-20T20:00:56.920Z</time><hdop>4.625</hdop><vdop>5.5</vdop><extensions><gom:speed>0.937</gom:speed></extensions></trkpt>
   <trkpt lat="59.0667519227" lon="30.0347119965"><ele>13.079</ele><time>2026-04-20T20:00:57.641Z</time><hdop>4.625</hdop><vdop>5.125</vdop><extensions><gom:speed>0.941</gom:speed></extensions></trkpt>
   <trkpt lat="59.0667435408" lon="30.0347178638"><ele>12.534</ele><time>2026-04-20T20:00:58.400Z</time><hdop>4.75</hdop><vdop>4.875</vdop><extensions><gom:speed>0.945</gom:speed></extensions></trkpt>
   <trkpt lat="59.0667385535" lon="30.034721049"><ele>12.208</ele><time>2026-04-20T20:00:58.933Z</time><hdop>4.75</hdop><vdop>4.875</vdop><extensions><gom:speed>0.944</gom:speed></extensions></trkpt>
   <trkpt lat="59.0667302555" lon="30.0347302691"><ele>11.891</ele><time>2026-04-20T20:00:59.820Z</time><hdop>4.75</hdop><vdop>4.75</vdop><extensions><gom:speed>0.913</gom:speed></extensions></trkpt>
   <trkpt lat="59.0667218316" lon="30.0347421714"><ele>11.63</ele><time>2026-04-20T20:01:00.762Z</time><hdop>4.875</hdop><vdop>4.625</vdop><extensions><gom:speed>0.89</gom:speed></extensions></trkpt>
   <trkpt lat="59.0667147489" lon="30.0347549957"><ele>10.957</ele><time>2026-04-20T20:01:01.481Z</time><hdop>5.0</hdop><vdop>4.5</vdop><extensions><gom:speed>0.909</gom:speed></extensions></trkpt>
   <trkpt lat="59.0667131564" lon="30.034757175"><ele>10.556</ele><time>2026-04-20T20:01:02.009Z</time><hdop>5.125</hdop><vdop>4.5</vdop><extensions><gom:speed>0.905</gom:speed></extensions></trkpt>
   <trkpt lat="59.0667000387" lon="30.0347758666"><ele>10.166</ele><time>2026-04-20T20:01:02.882Z</time><hdop>5.25</hdop><vdop>4.25</vdop><extensions><gom:speed>0.876</gom:speed></extensions></trkpt>
   <trkpt lat="59.0666916568" lon="30.0347816501"><ele>10.176</ele><time>2026-04-20T20:01:03.704Z</time><hdop>5.375</hdop><vdop>4.0</vdop><extensions><gom:speed>0.883</gom:speed></extensions></trkpt>
   <trkpt lat="59.0666843226" lon="30.0347876851"><ele>9.783</ele><time>2026-04-20T20:01:04.481Z</time><hdop>5.375</hdop><vdop>3.875</vdop><extensions><gom:speed>0.875</gom:speed></extensions></trkpt>
   <trkpt lat="59.0666789163" lon="30.0347917084"><ele>9.447</ele><time>2026-04-20T20:01:05.076Z</time><hdop>5.375</hdop><vdop>4.125</vdop><extensions><gom:speed>0.858</gom:speed></extensions></trkpt>
   <trkpt lat="59.0666712469" lon="30.0347938039"><ele>9.246</ele><time>2026-04-20T20:01:06.020Z</time><hdop>5.375</hdop><vdop>4.125</vdop><extensions><gom:speed>0.826</gom:speed></extensions></trkpt>
   <trkpt lat="59.0666645413" lon="30.0348026049"><ele>9.131</ele><time>2026-04-20T20:01:06.919Z</time><hdop>5.25</hdop><vdop>4.0</vdop><extensions><gom:speed>0.788</gom:speed></extensions></trkpt>
   <trkpt lat="59.0666609371" lon="30.034817357"><ele>8.974</ele><time>2026-04-20T20:01:07.639Z</time><hdop>5.125</hdop><vdop>3.875</vdop><extensions><gom:speed>0.78</gom:speed></extensions></trkpt>
   <trkpt lat="59.0666596379" lon="30.0348293432"><ele>8.775</ele><time>2026-04-20T20:01:08.169Z</time><hdop>5.0</hdop><vdop>3.75</vdop><extensions><gom:speed>0.737</gom:speed></extensions></trkpt>
   <trkpt lat="59.0666557403" lon="30.0348457717"><ele>8.679</ele><time>2026-04-20T20:01:09.076Z</time><hdop>4.875</hdop><vdop>3.75</vdop><extensions><gom:speed>0.691</gom:speed></extensions></trkpt>
   <trkpt lat="59.0666499568" lon="30.0348540698"><ele>8.463</ele><time>2026-04-20T20:01:10.075Z</time><hdop>4.875</hdop><vdop>3.625</vdop><extensions><gom:speed>0.691</gom:speed></extensions></trkpt>
   <trkpt lat="59.0666429579" lon="30.0348580093"><ele>8.334</ele><time>2026-04-20T20:01:11.016Z</time><hdop>4.75</hdop><vdop>3.625</vdop><extensions><gom:speed>0.699</gom:speed></extensions></trkpt>
   <trkpt lat="59.06663554" lon="30.0348583445"><ele>8.385</ele><time>2026-04-20T20:01:11.858Z</time><hdop>4.75</hdop><vdop>3.625</vdop><extensions><gom:speed>0.692</gom:speed></extensions></trkpt>
   <trkpt lat="59.0666277448" lon="30.0348601886"><ele>8.279</ele><time>2026-04-20T20:01:12.763Z</time><hdop>4.625</hdop><vdop>3.625</vdop><extensions><gom:speed>0.672</gom:speed></extensions></trkpt>
   <trkpt lat="59.0666198239" lon="30.0348678999"><ele>7.987</ele><time>2026-04-20T20:01:13.939Z</time><hdop>4.625</hdop><vdop>3.625</vdop><extensions><gom:speed>0.64</gom:speed></extensions></trkpt>
   <trkpt lat="59.06661513" lon="30.0348772876"><ele>7.707</ele><time>2026-04-20T20:01:14.698Z</time><hdop>4.625</hdop><vdop>3.5</vdop><extensions><gom:speed>0.623</gom:speed></extensions></trkpt>
   <trkpt lat="59.0666131184" lon="30.0348855857"><ele>7.478</ele><time>2026-04-20T20:01:15.695Z</time><hdop>4.5</hdop><vdop>3.5</vdop><extensions><gom:speed>0.515</gom:speed></extensions></trkpt>
   <trkpt lat="59.0666111486" lon="30.0348927942"><ele>6.827</ele><time>2026-04-20T20:01:16.436Z</time><hdop>4.5</hdop><vdop>3.5</vdop><extensions><gom:speed>0.478</gom:speed></extensions></trkpt>
   <trkpt lat="59.0666097237" lon="30.0348994997"><ele>6.533</ele><time>2026-04-20T20:01:17.075Z</time><hdop>4.5</hdop><vdop>3.625</vdop><extensions><gom:speed>0.491</gom:speed></extensions></trkpt>
   <trkpt lat="59.0666081311" lon="30.0349099771"><ele>6.357</ele><time>2026-04-20T20:01:18.055Z</time><hdop>4.5</hdop><vdop>3.625</vdop><extensions><gom:speed>0.535</gom:speed></extensions></trkpt>
   <trkpt lat="59.0666053232" lon="30.0349215441"><ele>6.216</ele><time>2026-04-20T20:01:18.715Z</time><hdop>4.5</hdop><vdop>3.625</vdop><extensions><gom:speed>0.651</gom:speed></extensions></trkpt>
   <trkpt lat="59.0666014256" lon="30.0349338655"><ele>5.747</ele><time>2026-04-20T20:01:19.416Z</time><hdop>4.5</hdop><vdop>3.5</vdop><extensions><gom:speed>0.678</gom:speed></extensions></trkpt>
   <trkpt lat="59.0665991206" lon="30.0349451811"><ele>5.552</ele><time>2026-04-20T20:01:20.075Z</time><hdop>4.5</hdop><vdop>3.25</vdop><extensions><gom:speed>0.707</gom:speed></extensions></trkpt>
   <trkpt lat="59.066601719" lon="30.0349613581"><ele>5.436</ele><time>2026-04-20T20:01:20.957Z</time><hdop>4.5</hdop><vdop>3.25</vdop><extensions><gom:speed>0.721</gom:speed></extensions></trkpt>
   <trkpt lat="59.0666034373" lon="30.0349718355"><ele>5.212</ele><time>2026-04-20T20:01:21.696Z</time><hdop>4.5</hdop><vdop>3.25</vdop><extensions><gom:speed>0.769</gom:speed></extensions></trkpt>
   <trkpt lat="59.0666043174" lon="30.0349840731"><ele>5.139</ele><time>2026-04-20T20:01:22.518Z</time><hdop>4.375</hdop><vdop>3.125</vdop><extensions><gom:speed>0.677</gom:speed></extensions></trkpt>
   <trkpt lat="59.0666039402" lon="30.0349930417"><ele>4.971</ele><time>2026-04-20T20:01:23.075Z</time><hdop>4.375</hdop><vdop>3.125</vdop><extensions><gom:speed>0.681</gom:speed></extensions></trkpt>
   <trkpt lat="59.0666024314" lon="30.0350054469"><ele>4.656</ele><time>2026-04-20T20:01:24.075Z</time><hdop>4.375</hdop><vdop>3.125</vdop><extensions><gom:speed>0.567</gom:speed></extensions></trkpt>
   <trkpt lat="59.0665996235" lon="30.0350134936"><ele>4.468</ele><time>2026-04-20T20:01:25.023Z</time><hdop>4.375</hdop><vdop>3.125</vdop><extensions><gom:speed>0.537</gom:speed></extensions></trkpt>
   <trkpt lat="59.0665981567" lon="30.035023971"><ele>4.113</ele><time>2026-04-20T20:01:25.882Z</time><hdop>4.25</hdop><vdop>3.0</vdop><extensions><gom:speed>0.535</gom:speed></extensions></trkpt>
   <trkpt lat="59.0666001264" lon="30.0350354542"><ele>4.043</ele><time>2026-04-20T20:01:26.742Z</time><hdop>4.25</hdop><vdop>3.25</vdop><extensions><gom:speed>0.549</gom:speed></extensions></trkpt>
   <trkpt lat="59.0666023476" lon="30.0350440037"><ele>4.177</ele><time>2026-04-20T20:01:27.215Z</time><hdop>4.375</hdop><vdop>3.5</vdop><extensions><gom:speed>0.532</gom:speed></extensions></trkpt>
   <trkpt lat="59.0666053232" lon="30.0350533914"><ele>3.994</ele><time>2026-04-20T20:01:28.075Z</time><hdop>4.375</hdop><vdop>3.75</vdop><extensions><gom:speed>0.624</gom:speed></extensions></trkpt>
   <trkpt lat="59.0666118192" lon="30.0350669701"><ele>4.178</ele><time>2026-04-20T20:01:29.075Z</time><hdop>4.375</hdop><vdop>4.0</vdop><extensions><gom:speed>0.785</gom:speed></extensions></trkpt>
   <trkpt lat="59.0666184409" lon="30.0350803812"><ele>4.388</ele><time>2026-04-20T20:01:30.075Z</time><hdop>4.375</hdop><vdop>4.25</vdop><extensions><gom:speed>0.793</gom:speed></extensions></trkpt>
   <trkpt lat="59.0666214164" lon="30.035094798"><ele>4.513</ele><time>2026-04-20T20:01:31.035Z</time><hdop>4.5</hdop><vdop>4.25</vdop><extensions><gom:speed>0.805</gom:speed></extensions></trkpt>
   <trkpt lat="59.0666223385" lon="30.0351098016"><ele>4.316</ele><time>2026-04-20T20:01:31.834Z</time><hdop>4.625</hdop><vdop>4.25</vdop><extensions><gom:speed>0.865</gom:speed></extensions></trkpt>
   <trkpt lat="59.0666221289" lon="30.0351279066"><ele>4.259</ele><time>2026-04-20T20:01:32.881Z</time><hdop>4.75</hdop><vdop>4.25</vdop><extensions><gom:speed>0.872</gom:speed></extensions></trkpt>
   <trkpt lat="59.0666203268" lon="30.0351415691"><ele>4.172</ele><time>2026-04-20T20:01:33.463Z</time><hdop>5.0</hdop><vdop>4.125</vdop><extensions><gom:speed>0.839</gom:speed></extensions></trkpt>
   <trkpt lat="59.0666192372" lon="30.0351463467"><ele>4.145</ele><time>2026-04-20T20:01:34.075Z</time><hdop>5.0</hdop><vdop>4.125</vdop><extensions><gom:speed>0.822</gom:speed></extensions></trkpt>
   <trkpt lat="59.0666156329" lon="30.0351543934"><ele>4.201</ele><time>2026-04-20T20:01:35.075Z</time><hdop>5.125</hdop><vdop>4.25</vdop><extensions><gom:speed>0.792</gom:speed></extensions></trkpt>
   <trkpt lat="59.0666111486" lon="30.0351610989"><ele>4.235</ele><time>2026-04-20T20:01:35.804Z</time><hdop>5.125</hdop><vdop>4.25</vdop><extensions><gom:speed>0.842</gom:speed></extensions></trkpt>
   <trkpt lat="59.0666053232" lon="30.0351728336"><ele>4.548</ele><time>2026-04-20T20:01:36.878Z</time><hdop>5.25</hdop><vdop>4.375</vdop><extensions><gom:speed>0.776</gom:speed></extensions></trkpt>
   <trkpt lat="59.0666046526" lon="30.0351741747"><ele>5.024</ele><time>2026-04-20T20:01:37.583Z</time><hdop>5.25</hdop><vdop>4.375</vdop><extensions><gom:speed>0.575</gom:speed></extensions></trkpt>
   <trkpt lat="59.0666044431" lon="30.035174007"><ele>5.284</ele><time>2026-04-20T20:01:38.075Z</time><hdop>5.25</hdop><vdop>4.375</vdop><extensions><gom:speed>0.546</gom:speed></extensions></trkpt>
   <trkpt lat="59.0666043174" lon="30.035177276"><ele>5.439</ele><time>2026-04-20T20:01:38.902Z</time><hdop>5.375</hdop><vdop>4.375</vdop><extensions><gom:speed>0.459</gom:speed></extensions></trkpt>
   <trkpt lat="59.0666024314" lon="30.0351864961"><ele>5.491</ele><time>2026-04-20T20:01:39.898Z</time><hdop>5.5</hdop><vdop>4.375</vdop><extensions><gom:speed>0.472</gom:speed></extensions></trkpt>
   <trkpt lat="59.0666006293" lon="30.0351849873"><ele>5.709</ele><time>2026-04-20T20:01:40.698Z</time><hdop>5.5</hdop><vdop>4.375</vdop><extensions><gom:speed>0.495</gom:speed></extensions></trkpt>
   <trkpt lat="59.0665976538" lon="30.0351823051"><ele>6.275</ele><time>2026-04-20T20:01:41.676Z</time><hdop>5.625</hdop><vdop>4.5</vdop><extensions><gom:speed>0.478</gom:speed></extensions></trkpt>
   <trkpt lat="59.0665945524" lon="30.0351816346"><ele>6.545</ele><time>2026-04-20T20:01:42.456Z</time><hdop>5.625</hdop><vdop>4.625</vdop><extensions><gom:speed>0.514</gom:speed></extensions></trkpt>
   <trkpt lat="59.0665916188" lon="30.0351823889"><ele>6.645</ele><time>2026-04-20T20:01:43.075Z</time><hdop>5.5</hdop><vdop>4.75</vdop><extensions><gom:speed>0.509</gom:speed></extensions></trkpt>
   <trkpt lat="59.0665863382" lon="30.0351835624"><ele>6.802</ele><time>2026-04-20T20:01:44.075Z</time><hdop>5.5</hdop><vdop>4.75</vdop><extensions><gom:speed>0.502</gom:speed></extensions></trkpt>
   <trkpt lat="59.0665806385" lon="30.0351844006"><ele>7.056</ele><time>2026-04-20T20:01:45.075Z</time><hdop>5.375</hdop><vdop>4.875</vdop><extensions><gom:speed>0.506</gom:speed></extensions></trkpt>
   <trkpt lat="59.0665732205" lon="30.0351867475"><ele>7.118</ele><time>2026-04-20T20:01:46.075Z</time><hdop>5.25</hdop><vdop>5.0</vdop><extensions><gom:speed>0.574</gom:speed></extensions></trkpt>
   <trkpt lat="59.0665653415" lon="30.0351911061"><ele>6.686</ele><time>2026-04-20T20:01:47.075Z</time><hdop>5.25</hdop><vdop>4.875</vdop><extensions><gom:speed>0.677</gom:speed></extensions></trkpt>
   <trkpt lat="59.0665588455" lon="30.0351965543"><ele>6.428</ele><time>2026-04-20T20:01:48.043Z</time><hdop>5.125</hdop><vdop>4.875</vdop><extensions><gom:speed>0.664</gom:speed></extensions></trkpt>
   <trkpt lat="59.0665528525" lon="30.0351926987"><ele>6.342</ele><time>2026-04-20T20:01:48.861Z</time><hdop>5.125</hdop><vdop>4.75</vdop><extensions><gom:speed>0.595</gom:speed></extensions></trkpt>
   <trkpt lat="59.066546147" lon="30.0351849873"><ele>6.278</ele><time>2026-04-20T20:01:49.840Z</time><hdop>5.0</hdop><vdop>4.625</vdop><extensions><gom:speed>0.622</gom:speed></extensions></trkpt>
   <trkpt lat="59.0665404473" lon="30.0351779465"><ele>6.414</ele><time>2026-04-20T20:01:50.817Z</time><hdop>4.875</hdop><vdop>4.625</vdop><extensions><gom:speed>0.594</gom:speed></extensions></trkpt>
   <trkpt lat="59.0665378489" lon="30.0351750128"><ele>6.454</ele><time>2026-04-20T20:01:51.523Z</time><hdop>4.875</hdop><vdop>4.625</vdop><extensions><gom:speed>0.543</gom:speed></extensions></trkpt>
   <trkpt lat="59.0665327359" lon="30.0351706543"><ele>7.199</ele><time>2026-04-20T20:01:52.075Z</time><hdop>4.75</hdop><vdop>4.75</vdop><extensions><gom:speed>0.499</gom:speed></extensions></trkpt>
   <trkpt lat="59.0665274553" lon="30.0351717439"><ele>8.255</ele><time>2026-04-20T20:01:53.075Z</time><hdop>4.625</hdop><vdop>4.875</vdop><extensions><gom:speed>0.482</gom:speed></extensions></trkpt>
   <trkpt lat="59.066523432" lon="30.0351755158"><ele>8.887</ele><time>2026-04-20T20:01:53.938Z</time><hdop>4.5</hdop><vdop>4.875</vdop><extensions><gom:speed>0.493</gom:speed></extensions></trkpt>
   <trkpt lat="59.0665187381" lon="30.0351771921"><ele>9.522</ele><time>2026-04-20T20:01:54.558Z</time><hdop>4.5</hdop><vdop>4.75</vdop><extensions><gom:speed>0.544</gom:speed></extensions></trkpt>
   <trkpt lat="59.0665159302" lon="30.035180964"><ele>9.822</ele><time>2026-04-20T20:01:55.078Z</time><hdop>4.5</hdop><vdop>4.75</vdop><extensions><gom:speed>0.548</gom:speed></extensions></trkpt>
   <trkpt lat="59.0665085541" lon="30.0351852388"><ele>9.946</ele><time>2026-04-20T20:01:56.076Z</time><hdop>4.5</hdop><vdop>4.75</vdop><extensions><gom:speed>0.562</gom:speed></extensions></trkpt>
   <trkpt lat="59.0665028544" lon="30.0351909385"><ele>10.259</ele><time>2026-04-20T20:01:57.076Z</time><hdop>4.625</hdop><vdop>4.875</vdop><extensions><gom:speed>0.549</gom:speed></extensions></trkpt>
   <trkpt lat="59.0665015552" lon="30.0351926987"><ele>10.446</ele><time>2026-04-20T20:01:57.683Z</time><hdop>4.625</hdop><vdop>4.875</vdop><extensions><gom:speed>0.516</gom:speed></extensions></trkpt>
   <trkpt lat="59.0664965261" lon="30.0351959676"><ele>10.793</ele><time>2026-04-20T20:01:58.180Z</time><hdop>4.625</hdop><vdop>4.75</vdop><extensions><gom:speed>0.491</gom:speed></extensions></trkpt>
   <trkpt lat="59.0664912455" lon="30.0351984822"><ele>11.072</ele><time>2026-04-20T20:01:59.075Z</time><hdop>4.625</hdop><vdop>4.75</vdop><extensions><gom:speed>0.486</gom:speed></extensions></trkpt>
   <trkpt lat="59.0664857553" lon="30.0352010806"><ele>11.238</ele><time>2026-04-20T20:01:59.917Z</time><hdop>4.75</hdop><vdop>4.75</vdop><extensions><gom:speed>0.542</gom:speed></extensions></trkpt>
   <trkpt lat="59.0664785469" lon="30.0352087081"><ele>11.219</ele><time>2026-04-20T20:02:01.014Z</time><hdop>4.75</hdop><vdop>5.0</vdop><extensions><gom:speed>0.505</gom:speed></extensions></trkpt>
   <trkpt lat="59.0664740207" lon="30.035218012"><ele>11.014</ele><time>2026-04-20T20:02:02.001Z</time><hdop>4.75</hdop><vdop>5.125</vdop><extensions><gom:speed>0.473</gom:speed></extensions></trkpt>
   <trkpt lat="59.0664685305" lon="30.0352315907"><ele>10.52</ele><time>2026-04-20T20:02:03.075Z</time><hdop>4.75</hdop><vdop>5.5</vdop><extensions><gom:speed>0.487</gom:speed></extensions></trkpt>
   <trkpt lat="59.0664668542" lon="30.0352372904"><ele>10.225</ele><time>2026-04-20T20:02:03.843Z</time><hdop>4.75</hdop><vdop>5.5</vdop><extensions><gom:speed>0.474</gom:speed></extensions></trkpt>
   <trkpt lat="59.0664635433" lon="30.0352515396"><ele>9.741</ele><time>2026-04-20T20:02:04.860Z</time><hdop>4.875</hdop><vdop>5.625</vdop><extensions><gom:speed>0.508</gom:speed></extensions></trkpt>
   <trkpt lat="59.0664591428" lon="30.0352646992"><ele>9.476</ele><time>2026-04-20T20:02:05.615Z</time><hdop>4.875</hdop><vdop>5.625</vdop><extensions><gom:speed>0.733</gom:speed></extensions></trkpt>
   <trkpt lat="59.0664559577" lon="30.0352727458"><ele>8.935</ele><time>2026-04-20T20:02:06.075Z</time><hdop>4.875</hdop><vdop>5.5</vdop><extensions><gom:speed>0.724</gom:speed></extensions></trkpt>
   <trkpt lat="59.0664529402" lon="30.0352812116"><ele>8.612</ele><time>2026-04-20T20:02:06.542Z</time><hdop>5.0</hdop><vdop>5.5</vdop><extensions><gom:speed>0.785</gom:speed></extensions></trkpt>
   <trkpt lat="59.0664497551" lon="30.0352890067"><ele>8.348</ele><time>2026-04-20T20:02:07.075Z</time><hdop>5.0</hdop><vdop>5.625</vdop><extensions><gom:speed>0.779</gom:speed></extensions></trkpt>
   <trkpt lat="59.0664438458" lon="30.0353005738"><ele>8.3</ele><time>2026-04-20T20:02:08.075Z</time><hdop>5.0</hdop><vdop>5.625</vdop><extensions><gom:speed>0.75</gom:speed></extensions></trkpt>
   <trkpt lat="59.0664372241" lon="30.0353109673"><ele>8.175</ele><time>2026-04-20T20:02:09.076Z</time><hdop>5.125</hdop><vdop>5.625</vdop><extensions><gom:speed>0.781</gom:speed></extensions></trkpt>
   <trkpt lat="59.0664328236" lon="30.0353223667"><ele>8.1</ele><time>2026-04-20T20:02:09.938Z</time><hdop>5.125</hdop><vdop>5.625</vdop><extensions><gom:speed>0.79</gom:speed></extensions></trkpt>
   <trkpt lat="59.0664290518" lon="30.035334269"><ele>7.882</ele><time>2026-04-20T20:02:10.697Z</time><hdop>5.25</hdop><vdop>5.75</vdop><extensions><gom:speed>0.79</gom:speed></extensions></trkpt>
   <trkpt lat="59.0664228492" lon="30.0353413936"><ele>8.021</ele><time>2026-04-20T20:02:11.538Z</time><hdop>5.125</hdop><vdop>5.75</vdop><extensions><gom:speed>0.722</gom:speed></extensions></trkpt>
   <trkpt lat="59.0664181553" lon="30.0353439082"><ele>7.958</ele><time>2026-04-20T20:02:12.075Z</time><hdop>5.125</hdop><vdop>5.875</vdop><extensions><gom:speed>0.734</gom:speed></extensions></trkpt>
   <trkpt lat="59.066409941" lon="30.0353476801"><ele>8.239</ele><time>2026-04-20T20:02:13.075Z</time><hdop>5.125</hdop><vdop>5.75</vdop><extensions><gom:speed>0.746</gom:speed></extensions></trkpt>
   <trkpt lat="59.0664014334" lon="30.0353574869"><ele>8.291</ele><time>2026-04-20T20:02:14.075Z</time><hdop>5.0</hdop><vdop>11.5</vdop><extensions><gom:speed>0.757</gom:speed></extensions></trkpt>
   <trkpt lat="59.0663939316" lon="30.0353657011"><ele>8.321</ele><time>2026-04-20T20:02:14.943Z</time><hdop>5.0</hdop><vdop>11.5</vdop><extensions><gom:speed>0.821</gom:speed></extensions></trkpt>
   <trkpt lat="59.0663885253" lon="30.0353686348"><ele>8.579</ele><time>2026-04-20T20:02:15.534Z</time><hdop>5.125</hdop><vdop>11.5</vdop><extensions><gom:speed>0.837</gom:speed></extensions></trkpt>
   <trkpt lat="59.0663828256" lon="30.0353701436"><ele>8.475</ele><time>2026-04-20T20:02:16.075Z</time><hdop>5.125</hdop><vdop>9.25</vdop><extensions><gom:speed>0.836</gom:speed></extensions></trkpt>
   <trkpt lat="59.0663730187" lon="30.0353716523"><ele>7.656</ele><time>2026-04-20T20:02:17.075Z</time><hdop>5.125</hdop><vdop>8.375</vdop><extensions><gom:speed>0.758</gom:speed></extensions></trkpt>
   <trkpt lat="59.0663665228" lon="30.0353765976"><ele>7.166</ele><time>2026-04-20T20:02:18.062Z</time><hdop>5.125</hdop><vdop>8.375</vdop><extensions><gom:speed>0.782</gom:speed></extensions></trkpt>
   <trkpt lat="59.0663583504" lon="30.0353835546"><ele>6.559</ele><time>2026-04-20T20:02:19.079Z</time><hdop>5.25</hdop><vdop>7.625</vdop><extensions><gom:speed>0.799</gom:speed></extensions></trkpt>
   <trkpt lat="59.0663513515" lon="30.0353853148"><ele>6.18</ele><time>2026-04-20T20:02:19.878Z</time><hdop>5.25</hdop><vdop>7.25</vdop><extensions><gom:speed>0.804</gom:speed></extensions></trkpt>
   <trkpt lat="59.0663449394" lon="30.0353905954"><ele>6.22</ele><time>2026-04-20T20:02:20.657Z</time><hdop>5.125</hdop><vdop>7.0</vdop><extensions><gom:speed>0.766</gom:speed></extensions></trkpt>
   <trkpt lat="59.0663393235" lon="30.0354016595"><ele>6.902</ele><time>2026-04-20T20:02:21.437Z</time><hdop>5.125</hdop><vdop>6.875</vdop><extensions><gom:speed>0.766</gom:speed></extensions></trkpt>
   <trkpt lat="59.0663361384" lon="30.0354128913"><ele>7.376</ele><time>2026-04-20T20:02:22.075Z</time><hdop>5.0</hdop><vdop>6.625</vdop><extensions><gom:speed>0.785</gom:speed></extensions></trkpt>
   <trkpt lat="59.066331235" lon="30.0354287331"><ele>7.659</ele><time>2026-04-20T20:02:22.938Z</time><hdop>5.0</hdop><vdop>6.625</vdop><extensions><gom:speed>0.788</gom:speed></extensions></trkpt>
   <trkpt lat="59.0663255353" lon="30.0354331755"><ele>7.673</ele><time>2026-04-20T20:02:23.639Z</time><hdop>5.0</hdop><vdop>6.5</vdop><extensions><gom:speed>0.838</gom:speed></extensions></trkpt>
   <trkpt lat="59.0663170276" lon="30.0354356062"><ele>7.734</ele><time>2026-04-20T20:02:24.477Z</time><hdop>5.0</hdop><vdop>6.25</vdop><extensions><gom:speed>0.792</gom:speed></extensions></trkpt>
   <trkpt lat="59.0663114537" lon="30.0354387075"><ele>7.763</ele><time>2026-04-20T20:02:25.075Z</time><hdop>4.875</hdop><vdop>6.0</vdop><extensions><gom:speed>0.778</gom:speed></extensions></trkpt>
   <trkpt lat="59.0663026527" lon="30.0354463351"><ele>7.491</ele><time>2026-04-20T20:02:26.075Z</time><hdop>4.875</hdop><vdop>5.75</vdop><extensions><gom:speed>0.767</gom:speed></extensions></trkpt>
   <trkpt lat="59.0662945222" lon="30.0354507775"><ele>7.328</ele><time>2026-04-20T20:02:27.035Z</time><hdop>4.75</hdop><vdop>5.75</vdop><extensions><gom:speed>0.756</gom:speed></extensions></trkpt>
   <trkpt lat="59.0662883196" lon="30.0354551361"><ele>7.227</ele><time>2026-04-20T20:02:27.883Z</time><hdop>4.75</hdop><vdop>5.625</vdop><extensions><gom:speed>0.737</gom:speed></extensions></trkpt>
   <trkpt lat="59.0662864337" lon="30.0354592432"><ele>7.645</ele><time>2026-04-20T20:02:28.600Z</time><hdop>4.625</hdop><vdop>5.625</vdop><extensions><gom:speed>0.705</gom:speed></extensions></trkpt>
   <trkpt lat="59.0662803568" lon="30.0354659487"><ele>8.136</ele><time>2026-04-20T20:02:29.075Z</time><hdop>4.625</hdop><vdop>5.625</vdop><extensions><gom:speed>0.658</gom:speed></extensions></trkpt>
   <trkpt lat="59.0662761239" lon="30.0354677089"><ele>8.708</ele><time>2026-04-20T20:02:30.075Z</time><hdop>4.5</hdop><vdop>11.125</vdop><extensions><gom:speed>0.547</gom:speed></extensions></trkpt>
   <trkpt lat="59.0662704243" lon="30.0354683795"><ele>9.143</ele><time>2026-04-20T20:02:31.075Z</time><hdop>4.5</hdop><vdop>11.25</vdop><extensions><gom:speed>0.593</gom:speed></extensions></trkpt>
   <trkpt lat="59.0662661495" lon="30.0354689662"><ele>9.403</ele><time>2026-04-20T20:02:31.802Z</time><hdop>4.5</hdop><vdop>11.25</vdop><extensions><gom:speed>0.583</gom:speed></extensions></trkpt>
   <trkpt lat="59.0662598211" lon="30.0354675413"><ele>9.851</ele><time>2026-04-20T20:02:32.982Z</time><hdop>4.5</hdop><vdop>11.125</vdop><extensions><gom:speed>0.562</gom:speed></extensions></trkpt>
   <trkpt lat="59.0662554206" lon="30.0354673736"><ele>10.118</ele><time>2026-04-20T20:02:33.756Z</time><hdop>4.625</hdop><vdop>11.125</vdop><extensions><gom:speed>0.621</gom:speed></extensions></trkpt>
   <trkpt lat="59.0662527384" lon="30.0354651943"><ele>11.203</ele><time>2026-04-20T20:02:34.760Z</time><hdop>4.625</hdop><vdop>9.125</vdop><extensions><gom:speed>0.602</gom:speed></extensions></trkpt>
   <trkpt lat="59.0662474578" lon="30.0354605843"><ele>10.639</ele><time>2026-04-20T20:02:35.335Z</time><hdop>4.75</hdop><vdop>8.125</vdop><extensions><gom:speed>0.573</gom:speed></extensions></trkpt>
   <trkpt lat="59.0662435183" lon="30.0354579021"><ele>11.188</ele><time>2026-04-20T20:02:36.075Z</time><hdop>4.75</hdop><vdop>7.5</vdop><extensions><gom:speed>0.545</gom:speed></extensions></trkpt>
   <trkpt lat="59.0662382377" lon="30.0354555551"><ele>12.447</ele><time>2026-04-20T20:02:37.075Z</time><hdop>4.75</hdop><vdop>7.25</vdop><extensions><gom:speed>0.579</gom:speed></extensions></trkpt>
   <trkpt lat="59.0662328314" lon="30.0354522862"><ele>13.377</ele><time>2026-04-20T20:02:38.075Z</time><hdop>4.75</hdop><vdop>7.125</vdop><extensions><gom:speed>0.533</gom:speed></extensions></trkpt>
   <trkpt lat="59.0662296463" lon="30.0354511966"><ele>13.933</ele><time>2026-04-20T20:02:38.662Z</time><hdop>4.75</hdop><vdop>7.125</vdop><extensions><gom:speed>0.547</gom:speed></extensions></trkpt>
   <trkpt lat="59.0662245333" lon="30.0354488496"><ele>14.406</ele><time>2026-04-20T20:02:39.680Z</time><hdop>4.75</hdop><vdop>6.875</vdop><extensions><gom:speed>0.469</gom:speed></extensions></trkpt>
   <trkpt lat="59.0662213482" lon="30.0354452454"><ele>14.041</ele><time>2026-04-20T20:02:40.322Z</time><hdop>4.75</hdop><vdop>6.75</vdop><extensions><gom:speed>0.45</gom:speed></extensions></trkpt>
   <trkpt lat="59.0662203424" lon="30.035445916"><ele>13.823</ele><time>2026-04-20T20:02:40.920Z</time><hdop>4.75</hdop><vdop>6.75</vdop><extensions><gom:speed>0.446</gom:speed></extensions></trkpt>
   <trkpt lat="59.0662148522" lon="30.0354467541"><ele>13.946</ele><time>2026-04-20T20:02:41.653Z</time><hdop>4.75</hdop><vdop>6.875</vdop><extensions><gom:speed>0.426</gom:speed></extensions></trkpt>
   <trkpt lat="59.0662129244" lon="30.0354543817"><ele>14.465</ele><time>2026-04-20T20:02:42.819Z</time><hdop>4.75</hdop><vdop>6.5</vdop><extensions><gom:speed>0.403</gom:speed></extensions></trkpt>
   <trkpt lat="59.0662107451" lon="30.0354570639"><ele>14.489</ele><time>2026-04-20T20:02:43.619Z</time><hdop>4.875</hdop><vdop>6.375</vdop><extensions><gom:speed>0.346</gom:speed></extensions></trkpt>
   <trkpt lat="59.0662097393" lon="30.0354516157"><ele>14.384</ele><time>2026-04-20T20:02:44.076Z</time><hdop>4.875</hdop><vdop>6.375</vdop><extensions><gom:speed>0.332</gom:speed></extensions></trkpt>
   <trkpt lat="59.0662085239" lon="30.0354446587"><ele>14.322</ele><time>2026-04-20T20:02:44.881Z</time><hdop>4.875</hdop><vdop>6.375</vdop><extensions><gom:speed>0.33</gom:speed></extensions></trkpt>
   <trkpt lat="59.0662077276" lon="30.0354395457"><ele>14.171</ele><time>2026-04-20T20:02:45.503Z</time><hdop>5.0</hdop><vdop>6.25</vdop><extensions><gom:speed>0.311</gom:speed></extensions></trkpt>
   <trkpt lat="59.0662062189" lon="30.035438037"><ele>13.706</ele><time>2026-04-20T20:02:46.012Z</time><hdop>5.125</hdop><vdop>6.125</vdop><extensions><gom:speed>0.317</gom:speed></extensions></trkpt>
   <trkpt lat="59.0662035367" lon="30.0354397134"><ele>13.428</ele><time>2026-04-20T20:02:47.083Z</time><hdop>5.25</hdop><vdop>6.125</vdop><extensions><gom:speed>0.321</gom:speed></extensions></trkpt>
   <trkpt lat="59.0662036205" lon="30.0354413059"><ele>12.332</ele><time>2026-04-20T20:02:48.076Z</time><hdop>5.25</hdop><vdop>6.5</vdop><extensions><gom:speed>0.331</gom:speed></extensions></trkpt>
   <trkpt lat="59.0662033271" lon="30.0354461674"><ele>11.284</ele><time>2026-04-20T20:02:48.974Z</time><hdop>5.375</hdop><vdop>6.375</vdop><extensions><gom:speed>0.339</gom:speed></extensions></trkpt>
   <trkpt lat="59.0662005192" lon="30.0354516995"><ele>10.658</ele><time>2026-04-20T20:02:50.054Z</time><hdop>5.5</hdop><vdop>6.375</vdop><extensions><gom:speed>0.372</gom:speed></extensions></trkpt>
   <trkpt lat="59.0661984237" lon="30.0354516157"><ele>10.38</ele><time>2026-04-20T20:02:50.942Z</time><hdop>5.625</hdop><vdop>6.25</vdop><extensions><gom:speed>0.423</gom:speed></extensions></trkpt>
   <trkpt lat="59.0661973341" lon="30.0354548846"><ele>10.088</ele><time>2026-04-20T20:02:51.921Z</time><hdop>5.5</hdop><vdop>5.875</vdop><extensions><gom:speed>0.4</gom:speed></extensions></trkpt>
   <trkpt lat="59.0661998486" lon="30.0354618416"><ele>10.121</ele><time>2026-04-20T20:02:53.075Z</time><hdop>5.375</hdop><vdop>5.5</vdop><extensions><gom:speed>0.35</gom:speed></extensions></trkpt>
   <trkpt lat="59.0662010221" lon="30.0354662002"><ele>9.923</ele><time>2026-04-20T20:02:53.949Z</time><hdop>5.375</hdop><vdop>5.25</vdop><extensions><gom:speed>0.273</gom:speed></extensions></trkpt>
   <trkpt lat="59.066201525" lon="30.0354663678"><ele>9.805</ele><time>2026-04-20T20:02:54.782Z</time><hdop>5.25</hdop><vdop>5.25</vdop><extensions><gom:speed>0.185</gom:speed></extensions></trkpt>
   <trkpt lat="59.0662030337" lon="30.0354682956"><ele>9.962</ele><time>2026-04-20T20:02:55.819Z</time><hdop>5.125</hdop><vdop>5.375</vdop><extensions><gom:speed>0.184</gom:speed></extensions></trkpt>
   <trkpt lat="59.0662033271" lon="30.0354688824"><ele>10.166</ele><time>2026-04-20T20:02:56.480Z</time><hdop>5.0</hdop><vdop>9.0</vdop><extensions><gom:speed>0.142</gom:speed></extensions></trkpt>
   <trkpt lat="59.0662032433" lon="30.0354701397"><ele>10.238</ele><time>2026-04-20T20:02:57.030Z</time><hdop>5.0</hdop><vdop>9.125</vdop><extensions><gom:speed>0.167</gom:speed></extensions></trkpt>
   <trkpt lat="59.0662035367" lon="30.0354693853"><ele>10.281</ele><time>2026-04-20T20:02:57.842Z</time><hdop>5.0</hdop><vdop>9.125</vdop><extensions><gom:speed>0.151</gom:speed></extensions></trkpt>
   <trkpt lat="59.0662036205" lon="30.0354698044"><ele>10.628</ele><time>2026-04-20T20:02:58.455Z</time><hdop>5.125</hdop><vdop>8.0</vdop><extensions><gom:speed>0.144</gom:speed></extensions></trkpt>
   <trkpt lat="59.0662034528" lon="30.0354708102"><ele>10.835</ele><time>2026-04-20T20:02:58.918Z</time><hdop>5.125</hdop><vdop>8.0</vdop><extensions><gom:speed>0.167</gom:speed></extensions></trkpt>
   <trkpt lat="59.06620383" lon="30.0354716484"><ele>10.127</ele><time>2026-04-20T20:02:59.516Z</time><hdop>5.125</hdop><vdop>8.625</vdop><extensions><gom:speed>0.188</gom:speed></extensions></trkpt>
   <trkpt lat="59.0662033271" lon="30.0354752526"><ele>9.851</ele><time>2026-04-20T20:02:59.990Z</time><hdop>5.125</hdop><vdop>8.625</vdop><extensions><gom:speed>0.224</gom:speed></extensions></trkpt>
   <trkpt lat="59.0662027404" lon="30.0354786054"><ele>9.685</ele><time>2026-04-20T20:03:00.814Z</time><hdop>5.125</hdop><vdop>8.625</vdop><extensions><gom:speed>0.263</gom:speed></extensions></trkpt>
   <trkpt lat="59.0662059255" lon="30.0354864844"><ele>9.446</ele><time>2026-04-20T20:03:02.075Z</time><hdop>5.125</hdop><vdop>8.375</vdop><extensions><gom:speed>0.311</gom:speed></extensions></trkpt>
   <trkpt lat="59.0662086496" lon="30.0354912621"><ele>11.311</ele><time>2026-04-20T20:03:03.075Z</time><hdop>5.125</hdop><vdop>7.25</vdop><extensions><gom:speed>0.316</gom:speed></extensions></trkpt>
   <trkpt lat="59.0662081467" lon="30.0355027453"><ele>12.286</ele><time>2026-04-20T20:03:04.075Z</time><hdop>5.25</hdop><vdop>7.0</vdop><extensions><gom:speed>0.438</gom:speed></extensions></trkpt>
   <trkpt lat="59.066201525" lon="30.0355175812"><ele>12.333</ele><time>2026-04-20T20:03:05.075Z</time><hdop>5.375</hdop><vdop>6.5</vdop><extensions><gom:speed>0.626</gom:speed></extensions></trkpt>
   <trkpt lat="59.0661985494" lon="30.0355196767"><ele>12.361</ele><time>2026-04-20T20:03:05.677Z</time><hdop>5.5</hdop><vdop>6.5</vdop><extensions><gom:speed>0.684</gom:speed></extensions></trkpt>
   <trkpt lat="59.0661914248" lon="30.0355211854"><ele>11.683</ele><time>2026-04-20T20:03:06.133Z</time><hdop>5.625</hdop><vdop>6.375</vdop><extensions><gom:speed>0.729</gom:speed></extensions></trkpt>
   <trkpt lat="59.0661861442" lon="30.0355217722"><ele>11.278</ele><time>2026-04-20T20:03:06.836Z</time><hdop>5.625</hdop><vdop>6.375</vdop><extensions><gom:speed>0.758</gom:speed></extensions></trkpt>
   <trkpt lat="59.0661780557" lon="30.0355259631"><ele>10.724</ele><time>2026-04-20T20:03:07.763Z</time><hdop>5.75</hdop><vdop>6.375</vdop><extensions><gom:speed>0.749</gom:speed></extensions></trkpt>
   <trkpt lat="59.0661721464" lon="30.0355271366"><ele>10.121</ele><time>2026-04-20T20:03:08.472Z</time><hdop>5.75</hdop><vdop>6.25</vdop><extensions><gom:speed>0.703</gom:speed></extensions></trkpt>
   <trkpt lat="59.0661687518" lon="30.0355247897"><ele>9.831</ele><time>2026-04-20T20:03:08.994Z</time><hdop>5.75</hdop><vdop>6.25</vdop><extensions><gom:speed>0.696</gom:speed></extensions></trkpt>
   <trkpt lat="59.0661623396" lon="30.0355195091"><ele>9.658</ele><time>2026-04-20T20:03:09.976Z</time><hdop>5.75</hdop><vdop>6.25</vdop><extensions><gom:speed>0.735</gom:speed></extensions></trkpt>
   <trkpt lat="59.0661574362" lon="30.0355183356"><ele>9.726</ele><time>2026-04-20T20:03:10.478Z</time><hdop>5.875</hdop><vdop>6.375</vdop><extensions><gom:speed>0.808</gom:speed></extensions></trkpt>
   <trkpt lat="59.0661525328" lon="30.0355193414"><ele>10.166</ele><time>2026-04-20T20:03:11.006Z</time><hdop>5.875</hdop><vdop>6.375</vdop><extensions><gom:speed>0.84</gom:speed></extensions></trkpt>
   <trkpt lat="59.066148719" lon="30.0355193414"><ele>10.428</ele><time>2026-04-20T20:03:11.836Z</time><hdop>6.125</hdop><vdop>6.375</vdop><extensions><gom:speed>0.841</gom:speed></extensions></trkpt>
   <trkpt lat="59.0661366491" lon="30.0355279748"><ele>10.688</ele><time>2026-04-20T20:03:13.014Z</time><hdop>6.375</hdop><vdop>6.5</vdop><extensions><gom:speed>0.911</gom:speed></extensions></trkpt>
   <trkpt lat="59.0661285186" lon="30.0355392065"><ele>11.156</ele><time>2026-04-20T20:03:13.902Z</time><hdop>6.5</hdop><vdop>6.625</vdop><extensions><gom:speed>0.991</gom:speed></extensions></trkpt>
   <trkpt lat="59.0661244534" lon="30.0355535396"><ele>11.371</ele><time>2026-04-20T20:03:14.416Z</time><hdop>6.625</hdop><vdop>6.5</vdop><extensions><gom:speed>0.969</gom:speed></extensions></trkpt>
   <trkpt lat="59.0661205558" lon="30.0355688785"><ele>11.563</ele><time>2026-04-20T20:03:15.075Z</time><hdop>6.625</hdop><vdop>8.75</vdop><extensions><gom:speed>0.985</gom:speed></extensions></trkpt>
   <trkpt lat="59.0661176222" lon="30.0355881569"><ele>11.678</ele><time>2026-04-20T20:03:15.996Z</time><hdop>6.75</hdop><vdop>8.75</vdop><extensions><gom:speed>0.981</gom:speed></extensions></trkpt>
   <trkpt lat="59.0661175383" lon="30.0356109556"><ele>11.831</ele><time>2026-04-20T20:03:16.756Z</time><hdop>6.625</hdop><vdop>8.0</vdop><extensions><gom:speed>0.99</gom:speed></extensions></trkpt>
   <trkpt lat="59.0661174545" lon="30.0356345088"><ele>11.672</ele><time>2026-04-20T20:03:17.477Z</time><hdop>6.5</hdop><vdop>7.0</vdop><extensions><gom:speed>0.981</gom:speed></extensions></trkpt>
   <trkpt lat="59.0661168259" lon="30.0356512726"><ele>11.914</ele><time>2026-04-20T20:03:18.076Z</time><hdop>6.5</hdop><vdop>6.5</vdop><extensions><gom:speed>0.983</gom:speed></extensions></trkpt>
   <trkpt lat="59.0661150238" lon="30.0356697966"><ele>12.058</ele><time>2026-04-20T20:03:18.864Z</time><hdop>6.375</hdop><vdop>6.5</vdop><extensions><gom:speed>0.997</gom:speed></extensions></trkpt>
   <trkpt lat="59.0661154429" lon="30.0356885721"><ele>12.301</ele><time>2026-04-20T20:03:19.696Z</time><hdop>6.125</hdop><vdop>6.25</vdop><extensions><gom:speed>0.893</gom:speed></extensions></trkpt>
   <trkpt lat="59.0661147304" lon="30.0357034918"><ele>12.392</ele><time>2026-04-20T20:03:20.596Z</time><hdop>6.0</hdop><vdop>6.25</vdop><extensions><gom:speed>0.77</gom:speed></extensions></trkpt>
   <trkpt lat="59.0661145209" lon="30.0357112032"><ele>12.502</ele><time>2026-04-20T20:03:21.075Z</time><hdop>5.875</hdop><vdop>6.0</vdop><extensions><gom:speed>0.758</gom:speed></extensions></trkpt>
   <trkpt lat="59.0661153171" lon="30.0357254524"><ele>12.628</ele><time>2026-04-20T20:03:22.075Z</time><hdop>5.625</hdop><vdop>9.0</vdop><extensions><gom:speed>0.65</gom:speed></extensions></trkpt>
   <trkpt lat="59.0661183346" lon="30.0357384444"><ele>12.758</ele><time>2026-04-20T20:03:23.076Z</time><hdop>5.5</hdop><vdop>8.25</vdop><extensions><gom:speed>0.614</gom:speed></extensions></trkpt>
   <trkpt lat="59.0661212264" lon="30.0357490894"><ele>12.5</ele><time>2026-04-20T20:03:24.075Z</time><hdop>5.375</hdop><vdop>7.25</vdop><extensions><gom:speed>0.537</gom:speed></extensions></trkpt>
   <trkpt lat="59.0661204301" lon="30.0357574713"><ele>12.345</ele><time>2026-04-20T20:03:25.037Z</time><hdop>5.25</hdop><vdop>7.25</vdop><extensions><gom:speed>0.499</gom:speed></extensions></trkpt>
   <trkpt lat="59.0661178317" lon="30.035764093"><ele>11.861</ele><time>2026-04-20T20:03:25.996Z</time><hdop>5.25</hdop><vdop>6.625</vdop><extensions><gom:speed>0.495</gom:speed></extensions></trkpt>
   <trkpt lat="59.0661177479" lon="30.0357709662"><ele>11.677</ele><time>2026-04-20T20:03:26.883Z</time><hdop>5.375</hdop><vdop>6.125</vdop><extensions><gom:speed>0.446</gom:speed></extensions></trkpt>
   <trkpt lat="59.0661184184" lon="30.0357773364"><ele>11.216</ele><time>2026-04-20T20:03:27.475Z</time><hdop>5.375</hdop><vdop>5.875</vdop><extensions><gom:speed>0.435</gom:speed></extensions></trkpt>
   <trkpt lat="59.0661182508" lon="30.0357838743"><ele>10.722</ele><time>2026-04-20T20:03:28.075Z</time><hdop>5.375</hdop><vdop>5.75</vdop><extensions><gom:speed>0.437</gom:speed></extensions></trkpt>
   <trkpt lat="59.0661159458" lon="30.0357909989"><ele>10.586</ele><time>2026-04-20T20:03:29.075Z</time><hdop>5.375</hdop><vdop>5.5</vdop><extensions><gom:speed>0.372</gom:speed></extensions></trkpt>
   <trkpt lat="59.0661127187" lon="30.0357952737"><ele>10.883</ele><time>2026-04-20T20:03:30.075Z</time><hdop>5.375</hdop><vdop>5.25</vdop><extensions><gom:speed>0.275</gom:speed></extensions></trkpt>
   <trkpt lat="59.0661113357" lon="30.0357975368"><ele>11.06</ele><time>2026-04-20T20:03:30.743Z</time><hdop>5.375</hdop><vdop>5.25</vdop><extensions><gom:speed>0.275</gom:speed></extensions></trkpt>
   <trkpt lat="59.0661074381" lon="30.0358050805"><ele>10.839</ele><time>2026-04-20T20:03:31.998Z</time><hdop>5.25</hdop><vdop>5.0</vdop><extensions><gom:speed>0.289</gom:speed></extensions></trkpt>
   <trkpt lat="59.0661050493" lon="30.0358112831"><ele>10.401</ele><time>2026-04-20T20:03:32.521Z</time><hdop>5.125</hdop><vdop>4.875</vdop><extensions><gom:speed>0.3</gom:speed></extensions></trkpt>
   <trkpt lat="59.0661049236" lon="30.0358137977"><ele>10.14</ele><time>2026-04-20T20:03:32.993Z</time><hdop>5.125</hdop><vdop>4.875</vdop><extensions><gom:speed>0.317</gom:speed></extensions></trkpt>
   <trkpt lat="59.0661045464" lon="30.0358213414"><ele>9.869</ele><time>2026-04-20T20:03:33.477Z</time><hdop>5.0</hdop><vdop>4.875</vdop><extensions><gom:speed>0.412</gom:speed></extensions></trkpt>
   <trkpt lat="59.0661052169" lon="30.0358304777"><ele>9.031</ele><time>2026-04-20T20:03:34.075Z</time><hdop>5.0</hdop><vdop>4.875</vdop><extensions><gom:speed>0.471</gom:speed></extensions></trkpt>
   <trkpt lat="59.0661073543" lon="30.0358464033"><ele>8.212</ele><time>2026-04-20T20:03:35.075Z</time><hdop>5.0</hdop><vdop>5.0</vdop><extensions><gom:speed>0.538</gom:speed></extensions></trkpt>
   <trkpt lat="59.066109827" lon="30.0358616584"><ele>7.509</ele><time>2026-04-20T20:03:36.075Z</time><hdop>4.875</hdop><vdop>5.25</vdop><extensions><gom:speed>0.611</gom:speed></extensions></trkpt>
   <trkpt lat="59.0661109166" lon="30.0358661846"><ele>7.089</ele><time>2026-04-20T20:03:36.592Z</time><hdop>5.0</hdop><vdop>5.25</vdop><extensions><gom:speed>0.599</gom:speed></extensions></trkpt>
   <trkpt lat="59.0661119225" lon="30.0358801824"><ele>7.144</ele><time>2026-04-20T20:03:37.076Z</time><hdop>4.875</hdop><vdop>5.375</vdop><extensions><gom:speed>0.625</gom:speed></extensions></trkpt>
   <trkpt lat="59.0661111262" lon="30.0358927552"><ele>6.876</ele><time>2026-04-20T20:03:38.076Z</time><hdop>4.875</hdop><vdop>5.375</vdop><extensions><gom:speed>0.587</gom:speed></extensions></trkpt>
   <trkpt lat="59.0661102461" lon="30.0358907436"><ele>6.716</ele><time>2026-04-20T20:03:38.879Z</time><hdop>5.0</hdop><vdop>5.375</vdop><extensions><gom:speed>0.405</gom:speed></extensions></trkpt>
   <trkpt lat="59.0661082344" lon="30.0359021429"><ele>7.106</ele><time>2026-04-20T20:03:39.755Z</time><hdop>5.125</hdop><vdop>5.5</vdop><extensions><gom:speed>0.422</gom:speed></extensions></trkpt>
   <trkpt lat="59.066103331" lon="30.0359200802"><ele>7.57</ele><time>2026-04-20T20:03:40.458Z</time><hdop>5.375</hdop><vdop>5.75</vdop><extensions><gom:speed>0.579</gom:speed></extensions></trkpt>
   <trkpt lat="59.0660981342" lon="30.0359346647"><ele>8.14</ele><time>2026-04-20T20:03:41.075Z</time><hdop>5.375</hdop><vdop>5.875</vdop><extensions><gom:speed>0.664</gom:speed></extensions></trkpt>
   <trkpt lat="59.0660920574" lon="30.0359489978"><ele>8.48</ele><time>2026-04-20T20:03:41.760Z</time><hdop>5.5</hdop><vdop>5.875</vdop><extensions><gom:speed>0.728</gom:speed></extensions></trkpt>
   <trkpt lat="59.0660824182" lon="30.0359660969"><ele>9.121</ele><time>2026-04-20T20:03:42.538Z</time><hdop>5.625</hdop><vdop>6.125</vdop><extensions><gom:speed>0.811</gom:speed></extensions></trkpt>
   <trkpt lat="59.0660734495" lon="30.0359824416"><ele>9.034</ele><time>2026-04-20T20:03:43.075Z</time><hdop>5.625</hdop><vdop>5.875</vdop><extensions><gom:speed>0.846</gom:speed></extensions></trkpt>
   <trkpt lat="59.0660692167" lon="30.0359961041"><ele>8.983</ele><time>2026-04-20T20:03:43.940Z</time><hdop>5.5</hdop><vdop>5.875</vdop><extensions><gom:speed>0.877</gom:speed></extensions></trkpt>
   <trkpt lat="59.0660637265" lon="30.0360109401"><ele>9.25</ele><time>2026-04-20T20:03:44.624Z</time><hdop>5.5</hdop><vdop>5.5</vdop><extensions><gom:speed>0.92</gom:speed></extensions></trkpt>
   <trkpt lat="59.0660590327" lon="30.0360209145"><ele>9.362</ele><time>2026-04-20T20:03:45.075Z</time><hdop>5.375</hdop><vdop>5.5</vdop><extensions><gom:speed>0.942</gom:speed></extensions></trkpt>
   <trkpt lat="59.0660503574" lon="30.0360324815"><ele>9.429</ele><time>2026-04-20T20:03:46.013Z</time><hdop>5.25</hdop><vdop>5.5</vdop><extensions><gom:speed>0.909</gom:speed></extensions></trkpt>
   <trkpt lat="59.0660424365" lon="30.0360401929"><ele>10.431</ele><time>2026-04-20T20:03:46.715Z</time><hdop>5.125</hdop><vdop>5.125</vdop><extensions><gom:speed>0.931</gom:speed></extensions></trkpt>
   <trkpt lat="59.0660354376" lon="30.0360446353"><ele>10.243</ele><time>2026-04-20T20:03:47.455Z</time><hdop>5.125</hdop><vdop>4.875</vdop><extensions><gom:speed>0.94</gom:speed></extensions></trkpt>
   <trkpt lat="59.0660309533" lon="30.0360471499"><ele>9.876</ele><time>2026-04-20T20:03:48.076Z</time><hdop>5.0</hdop><vdop>4.875</vdop><extensions><gom:speed>0.937</gom:speed></extensions></trkpt>
   <trkpt lat="59.0660279358" lon="30.036047569"><ele>9.657</ele><time>2026-04-20T20:03:48.912Z</time><hdop>5.0</hdop><vdop>4.875</vdop><extensions><gom:speed>0.9</gom:speed></extensions></trkpt>
   <trkpt lat="59.0660172489" lon="30.0360551127"><ele>9.242</ele><time>2026-04-20T20:03:49.962Z</time><hdop>5.0</hdop><vdop>4.875</vdop><extensions><gom:speed>0.835</gom:speed></extensions></trkpt>
   <trkpt lat="59.0660129322" lon="30.036067015"><ele>8.896</ele><time>2026-04-20T20:03:50.781Z</time><hdop>5.0</hdop><vdop>4.625</vdop><extensions><gom:speed>0.839</gom:speed></extensions></trkpt>
   <trkpt lat="59.0660072325" lon="30.0360832759"><ele>8.388</ele><time>2026-04-20T20:03:52.075Z</time><hdop>4.875</hdop><vdop>4.625</vdop><extensions><gom:speed>0.688</gom:speed></extensions></trkpt>
   <trkpt lat="59.0660034187" lon="30.036087383"><ele>8.084</ele><time>2026-04-20T20:03:53.062Z</time><hdop>4.875</hdop><vdop>4.625</vdop><extensions><gom:speed>0.56</gom:speed></extensions></trkpt>
   <trkpt lat="59.0660000241" lon="30.0360969384"><ele>7.449</ele><time>2026-04-20T20:03:53.822Z</time><hdop>4.875</hdop><vdop>4.875</vdop><extensions><gom:speed>0.566</gom:speed></extensions></trkpt>
   <trkpt lat="59.0659966294" lon="30.0361076672"><ele>7.036</ele><time>2026-04-20T20:03:54.719Z</time><hdop>4.75</hdop><vdop>9.25</vdop><extensions><gom:speed>0.593</gom:speed></extensions></trkpt>
   <trkpt lat="59.0659923546" lon="30.0361191504"><ele>7.075</ele><time>2026-04-20T20:03:55.520Z</time><hdop>4.75</hdop><vdop>8.5</vdop><extensions><gom:speed>0.62</gom:speed></extensions></trkpt>
   <trkpt lat="59.065990343" lon="30.0361231737"><ele>7.374</ele><time>2026-04-20T20:03:56.075Z</time><hdop>4.75</hdop><vdop>7.625</vdop><extensions><gom:speed>0.621</gom:speed></extensions></trkpt>
   <trkpt lat="59.0659850204" lon="30.0361298793"><ele>7.238</ele><time>2026-04-20T20:03:57.075Z</time><hdop>4.875</hdop><vdop>7.25</vdop><extensions><gom:speed>0.625</gom:speed></extensions></trkpt>
   <trkpt lat="59.0659786502" lon="30.0361333158"><ele>7.157</ele><time>2026-04-20T20:03:57.937Z</time><hdop>4.875</hdop><vdop>7.25</vdop><extensions><gom:speed>0.679</gom:speed></extensions></trkpt>
   <trkpt lat="59.0659723219" lon="30.0361377582"><ele>7.487</ele><time>2026-04-20T20:03:58.800Z</time><hdop>4.875</hdop><vdop>7.25</vdop><extensions><gom:speed>0.688</gom:speed></extensions></trkpt>
   <trkpt lat="59.0659661193" lon="30.0361490738"><ele>7.398</ele><time>2026-04-20T20:03:59.755Z</time><hdop>5.0</hdop><vdop>7.125</vdop><extensions><gom:speed>0.764</gom:speed></extensions></trkpt>
   <trkpt lat="59.0659590365" lon="30.0361589645"><ele>7.488</ele><time>2026-04-20T20:04:00.643Z</time><hdop>5.0</hdop><vdop>9.625</vdop><extensions><gom:speed>0.752</gom:speed></extensions></trkpt>
   <trkpt lat="59.0659539236" lon="30.0361634907"><ele>8.15</ele><time>2026-04-20T20:04:01.349Z</time><hdop>5.0</hdop><vdop>8.75</vdop><extensions><gom:speed>0.761</gom:speed></extensions></trkpt>
   <trkpt lat="59.0659454579" lon="30.03617028"><ele>8.671</ele><time>2026-04-20T20:04:02.075Z</time><hdop>5.0</hdop><vdop>7.875</vdop><extensions><gom:speed>0.758</gom:speed></extensions></trkpt>
   <trkpt lat="59.0659371179" lon="30.0361774885"><ele>9.175</ele><time>2026-04-20T20:04:03.075Z</time><hdop>5.125</hdop><vdop>7.375</vdop><extensions><gom:speed>0.758</gom:speed></extensions></trkpt>
   <trkpt lat="59.06592685" lon="30.0361831882"><ele>9.962</ele><time>2026-04-20T20:04:04.075Z</time><hdop>5.125</hdop><vdop>7.25</vdop><extensions><gom:speed>0.78</gom:speed></extensions></trkpt>
   <trkpt lat="59.065918552" lon="30.036185116"><ele>10.433</ele><time>2026-04-20T20:04:04.918Z</time><hdop>5.25</hdop><vdop>7.25</vdop><extensions><gom:speed>0.801</gom:speed></extensions></trkpt>
   <trkpt lat="59.0659093319" lon="30.0361837749"><ele>10.828</ele><time>2026-04-20T20:04:05.716Z</time><hdop>5.25</hdop><vdop>7.0</vdop><extensions><gom:speed>0.8</gom:speed></extensions></trkpt>
   <trkpt lat="59.0659017462" lon="30.0361836073"><ele>11.162</ele><time>2026-04-20T20:04:06.320Z</time><hdop>5.25</hdop><vdop>6.75</vdop><extensions><gom:speed>0.804</gom:speed></extensions></trkpt>
   <trkpt lat="59.0658954179" lon="30.0361865409"><ele>11.362</ele><time>2026-04-20T20:04:06.940Z</time><hdop>5.25</hdop><vdop>6.75</vdop><extensions><gom:speed>0.845</gom:speed></extensions></trkpt>
   <trkpt lat="59.0658904307" lon="30.0361872953"><ele>11.32</ele><time>2026-04-20T20:04:07.510Z</time><hdop>5.25</hdop><vdop>9.125</vdop><extensions><gom:speed>0.897</gom:speed></extensions></trkpt>
   <trkpt lat="59.0658786541" lon="30.0361893908"><ele>10.696</ele><time>2026-04-20T20:04:08.076Z</time><hdop>5.25</hdop><vdop>8.25</vdop><extensions><gom:speed>0.947</gom:speed></extensions></trkpt>
   <trkpt lat="59.0658666261" lon="30.0361886364"><ele>10.284</ele><time>2026-04-20T20:04:09.075Z</time><hdop>5.25</hdop><vdop>7.25</vdop><extensions><gom:speed>0.99</gom:speed></extensions></trkpt>
   <trkpt lat="59.0658574479" lon="30.0361889717"><ele>10.038</ele><time>2026-04-20T20:04:09.901Z</time><hdop>5.375</hdop><vdop>7.25</vdop><extensions><gom:speed>1.032</gom:speed></extensions></trkpt>
   <trkpt lat="59.0658484373" lon="30.0361883849"><ele>10.58</ele><time>2026-04-20T20:04:10.642Z</time><hdop>5.25</hdop><vdop>6.875</vdop><extensions><gom:speed>0.994</gom:speed></extensions></trkpt>
   <trkpt lat="59.0658376247" lon="30.0361853675"><ele>10.991</ele><time>2026-04-20T20:04:11.659Z</time><hdop>5.25</hdop><vdop>6.625</vdop><extensions><gom:speed>0.906</gom:speed></extensions></trkpt>
   <trkpt lat="59.0658287399" lon="30.0361831882"><ele>11.806</ele><time>2026-04-20T20:04:12.439Z</time><hdop>5.25</hdop><vdop>6.5</vdop><extensions><gom:speed>0.955</gom:speed></extensions></trkpt>
   <trkpt lat="59.0658227468" lon="30.0361836073"><ele>12.293</ele><time>2026-04-20T20:04:13.021Z</time><hdop>5.25</hdop><vdop>6.5</vdop><extensions><gom:speed>0.96</gom:speed></extensions></trkpt>
   <trkpt lat="59.0658185559" lon="30.0361826014"><ele>12.31</ele><time>2026-04-20T20:04:13.668Z</time><hdop>5.25</hdop><vdop>6.25</vdop><extensions><gom:speed>1.017</gom:speed></extensions></trkpt>
   <trkpt lat="59.0658016244" lon="30.0361805898"><ele>11.751</ele><time>2026-04-20T20:04:14.481Z</time><hdop>5.25</hdop><vdop>6.0</vdop><extensions><gom:speed>1.046</gom:speed></extensions></trkpt>
   <trkpt lat="59.0657941226" lon="30.0361785781"><ele>11.387</ele><time>2026-04-20T20:04:15.075Z</time><hdop>5.125</hdop><vdop>5.875</vdop><extensions><gom:speed>1.052</gom:speed></extensions></trkpt>
   <trkpt lat="59.0657849444" lon="30.036176315"><ele>11.169</ele><time>2026-04-20T20:04:15.815Z</time><hdop>5.125</hdop><vdop>5.875</vdop><extensions><gom:speed>1.095</gom:speed></extensions></trkpt>
   <trkpt lat="59.0657750538" lon="30.0361733813"><ele>10.535</ele><time>2026-04-20T20:04:16.576Z</time><hdop>5.125</hdop><vdop>5.875</vdop><extensions><gom:speed>1.073</gom:speed></extensions></trkpt>
   <trkpt lat="59.0657687254" lon="30.0361707829"><ele>9.65</ele><time>2026-04-20T20:04:17.075Z</time><hdop>5.125</hdop><vdop>5.875</vdop><extensions><gom:speed>1.096</gom:speed></extensions></trkpt>
   <trkpt lat="59.0657588348" lon="30.0361650833"><ele>9.121</ele><time>2026-04-20T20:04:17.996Z</time><hdop>5.125</hdop><vdop>5.875</vdop><extensions><gom:speed>1.031</gom:speed></extensions></trkpt>
   <trkpt lat="59.0657509558" lon="30.0361611438"><ele>9.143</ele><time>2026-04-20T20:04:18.680Z</time><hdop>5.25</hdop><vdop>5.875</vdop><extensions><gom:speed>0.984</gom:speed></extensions></trkpt>
   <trkpt lat="59.065742532" lon="30.0361618143"><ele>9.046</ele><time>2026-04-20T20:04:19.359Z</time><hdop>5.25</hdop><vdop>5.875</vdop><extensions><gom:speed>0.994</gom:speed></extensions></trkpt>
   <trkpt lat="59.0657412328" lon="30.0361626525"><ele>8.988</ele><time>2026-04-20T20:04:19.828Z</time><hdop>5.25</hdop><vdop>5.875</vdop><extensions><gom:speed>0.953</gom:speed></extensions></trkpt>
   <trkpt lat="59.0657287438" lon="30.0361758959"><ele>9.002</ele><time>2026-04-20T20:04:20.958Z</time><hdop>5.375</hdop><vdop>5.875</vdop><extensions><gom:speed>0.918</gom:speed></extensions></trkpt>
   <trkpt lat="59.0657252234" lon="30.0361798354"><ele>9.011</ele><time>2026-04-20T20:04:21.480Z</time><hdop>5.5</hdop><vdop>5.75</vdop><extensions><gom:speed>0.927</gom:speed></extensions></trkpt>
   <trkpt lat="59.0657204457" lon="30.0361817632"><ele>8.664</ele><time>2026-04-20T20:04:22.075Z</time><hdop>5.5</hdop><vdop>5.625</vdop><extensions><gom:speed>0.916</gom:speed></extensions></trkpt>
   <trkpt lat="59.065711938" lon="30.0361798354"><ele>8.457</ele><time>2026-04-20T20:04:23.041Z</time><hdop>5.625</hdop><vdop>5.625</vdop><extensions><gom:speed>0.904</gom:speed></extensions></trkpt>
   <trkpt lat="59.0657065317" lon="30.0361691904"><ele>8.198</ele><time>2026-04-20T20:04:23.938Z</time><hdop>5.625</hdop><vdop>5.5</vdop><extensions><gom:speed>0.843</gom:speed></extensions></trkpt>
   <trkpt lat="59.0657011254" lon="30.0361630716"><ele>8.085</ele><time>2026-04-20T20:04:24.758Z</time><hdop>5.75</hdop><vdop>5.375</vdop><extensions><gom:speed>0.82</gom:speed></extensions></trkpt>
   <trkpt lat="59.0656946294" lon="30.036160557"><ele>7.464</ele><time>2026-04-20T20:04:25.597Z</time><hdop>5.875</hdop><vdop>5.25</vdop><extensions><gom:speed>0.842</gom:speed></extensions></trkpt>
   <trkpt lat="59.0656922406" lon="30.0361595512"><ele>7.479</ele><time>2026-04-20T20:04:26.075Z</time><hdop>6.0</hdop><vdop>5.25</vdop><extensions><gom:speed>0.861</gom:speed></extensions></trkpt>
   <trkpt lat="59.0656868342" lon="30.0361574557"><ele>7.485</ele><time>2026-04-20T20:04:27.076Z</time><hdop>6.0</hdop><vdop>10.0</vdop><extensions><gom:speed>0.832</gom:speed></extensions></trkpt>
   <trkpt lat="59.0656815536" lon="30.036155947"><ele>7.49</ele><time>2026-04-20T20:04:27.878Z</time><hdop>6.125</hdop><vdop>10.0</vdop><extensions><gom:speed>0.814</gom:speed></extensions></trkpt>
   <trkpt lat="59.065677237" lon="30.0361513369"><ele>7.584</ele><time>2026-04-20T20:04:28.597Z</time><hdop>6.125</hdop><vdop>8.875</vdop><extensions><gom:speed>0.856</gom:speed></extensions></trkpt>
   <trkpt lat="59.0656743452" lon="30.0361461402"><ele>8.245</ele><time>2026-04-20T20:04:29.075Z</time><hdop>6.0</hdop><vdop>7.875</vdop><extensions><gom:speed>0.853</gom:speed></extensions></trkpt>
   <trkpt lat="59.0656677235" lon="30.0361344055"><ele>7.871</ele><time>2026-04-20T20:04:30.075Z</time><hdop>6.0</hdop><vdop>7.0</vdop><extensions><gom:speed>0.864</gom:speed></extensions></trkpt>
   <trkpt lat="59.0656612275" lon="30.0361274485"><ele>7.648</ele><time>2026-04-20T20:04:30.881Z</time><hdop>5.75</hdop><vdop>7.0</vdop><extensions><gom:speed>0.883</gom:speed></extensions></trkpt>
   <trkpt lat="59.0656551506" lon="30.0361243472"><ele>7.684</ele><time>2026-04-20T20:04:31.541Z</time><hdop>5.625</hdop><vdop>6.5</vdop><extensions><gom:speed>0.919</gom:speed></extensions></trkpt>
   <trkpt lat="59.0656509178" lon="30.0361228385"><ele>7.665</ele><time>2026-04-20T20:04:32.075Z</time><hdop>5.625</hdop><vdop>6.125</vdop><extensions><gom:speed>0.907</gom:speed></extensions></trkpt>
   <trkpt lat="59.0656423263" lon="30.0361169711"><ele>7.436</ele><time>2026-04-20T20:04:32.977Z</time><hdop>5.5</hdop><vdop>5.875</vdop><extensions><gom:speed>0.854</gom:speed></extensions></trkpt>
   <trkpt lat="59.0656407338" lon="30.0361039792"><ele>6.92</ele><time>2026-04-20T20:04:34.075Z</time><hdop>5.5</hdop><vdop>5.5</vdop><extensions><gom:speed>0.713</gom:speed></extensions></trkpt>
   <trkpt lat="59.0656388478" lon="30.0360948429"><ele>6.611</ele><time>2026-04-20T20:04:35.084Z</time><hdop>5.5</hdop><vdop>5.5</vdop><extensions><gom:speed>0.605</gom:speed></extensions></trkpt>
   <trkpt lat="59.0656351179" lon="30.0360935018"><ele>6.397</ele><time>2026-04-20T20:04:35.776Z</time><hdop>5.5</hdop><vdop>5.375</vdop><extensions><gom:speed>0.633</gom:speed></extensions></trkpt>
   <trkpt lat="59.065630424" lon="30.0360900652"><ele>5.981</ele><time>2026-04-20T20:04:36.495Z</time><hdop>5.5</hdop><vdop>5.375</vdop><extensions><gom:speed>0.7</gom:speed></extensions></trkpt>
   <trkpt lat="59.0656275323" lon="30.0360845332"><ele>5.439</ele><time>2026-04-20T20:04:37.075Z</time><hdop>5.5</hdop><vdop>5.25</vdop><extensions><gom:speed>0.71</gom:speed></extensions></trkpt>
   <trkpt lat="59.0656237185" lon="30.0360779115"><ele>5.115</ele><time>2026-04-20T20:04:37.699Z</time><hdop>5.5</hdop><vdop>5.25</vdop><extensions><gom:speed>0.802</gom:speed></extensions></trkpt>
   <trkpt lat="59.0656208268" lon="30.036069781"><ele>5.454</ele><time>2026-04-20T20:04:38.425Z</time><hdop>5.5</hdop><vdop>5.5</vdop><extensions><gom:speed>0.862</gom:speed></extensions></trkpt>
   <trkpt lat="59.0656144565" lon="30.0360552803"><ele>5.742</ele><time>2026-04-20T20:04:39.075Z</time><hdop>5.5</hdop><vdop>5.5</vdop><extensions><gom:speed>0.9</gom:speed></extensions></trkpt>
   <trkpt lat="59.0656059489" lon="30.0360458088"><ele>5.914</ele><time>2026-04-20T20:04:40.061Z</time><hdop>5.5</hdop><vdop>5.5</vdop><extensions><gom:speed>1.026</gom:speed></extensions></trkpt>
   <trkpt lat="59.0655979442" lon="30.0360376783"><ele>6.294</ele><time>2026-04-20T20:04:40.778Z</time><hdop>5.5</hdop><vdop>5.5</vdop><extensions><gom:speed>1.11</gom:speed></extensions></trkpt>
   <trkpt lat="59.065591532" lon="30.0360297155"><ele>6.222</ele><time>2026-04-20T20:04:41.480Z</time><hdop>5.375</hdop><vdop>5.5</vdop><extensions><gom:speed>1.076</gom:speed></extensions></trkpt>
   <trkpt lat="59.0655863352" lon="30.0360231776"><ele>6.693</ele><time>2026-04-20T20:04:42.075Z</time><hdop>5.375</hdop><vdop>5.5</vdop><extensions><gom:speed>1.084</gom:speed></extensions></trkpt>
   <trkpt lat="59.0655779533" lon="30.0360161368"><ele>6.974</ele><time>2026-04-20T20:04:42.941Z</time><hdop>5.375</hdop><vdop>5.5</vdop><extensions><gom:speed>1.075</gom:speed></extensions></trkpt>
   <trkpt lat="59.0655707449" lon="30.0360096828"><ele>6.564</ele><time>2026-04-20T20:04:43.661Z</time><hdop>5.375</hdop><vdop>5.375</vdop><extensions><gom:speed>1.078</gom:speed></extensions></trkpt>
   <trkpt lat="59.0655619439" lon="30.0360057433"><ele>6.36</ele><time>2026-04-20T20:04:44.520Z</time><hdop>5.25</hdop><vdop>5.5</vdop><extensions><gom:speed>1.007</gom:speed></extensions></trkpt>
   <trkpt lat="59.0655543164" lon="30.0359981157"><ele>6.187</ele><time>2026-04-20T20:04:45.075Z</time><hdop>5.125</hdop><vdop>5.625</vdop><extensions><gom:speed>1.022</gom:speed></extensions></trkpt>
   <trkpt lat="59.0655503349" lon="30.0359902368"><ele>6.084</ele><time>2026-04-20T20:04:45.822Z</time><hdop>5.125</hdop><vdop>5.625</vdop><extensions><gom:speed>0.968</gom:speed></extensions></trkpt>
   <trkpt lat="59.0655445514" lon="30.0359795917"><ele>5.815</ele><time>2026-04-20T20:04:46.623Z</time><hdop>5.125</hdop><vdop>5.5</vdop><extensions><gom:speed>0.962</gom:speed></extensions></trkpt>
   <trkpt lat="59.0655406539" lon="30.0359740597"><ele>5.531</ele><time>2026-04-20T20:04:47.075Z</time><hdop>5.125</hdop><vdop>5.75</vdop><extensions><gom:speed>0.957</gom:speed></extensions></trkpt>
   <trkpt lat="59.0655317271" lon="30.0359671027"><ele>5.122</ele><time>2026-04-20T20:04:48.076Z</time><hdop>5.125</hdop><vdop>5.875</vdop><extensions><gom:speed>0.906</gom:speed></extensions></trkpt>
   <trkpt lat="59.0655249378" lon="30.0359671865"><ele>4.877</ele><time>2026-04-20T20:04:48.775Z</time><hdop>5.0</hdop><vdop>5.875</vdop><extensions><gom:speed>0.895</gom:speed></extensions></trkpt>
   <trkpt lat="59.0655177293" lon="30.0359643367"><ele>5.104</ele><time>2026-04-20T20:04:49.702Z</time><hdop>5.0</hdop><vdop>5.875</vdop><extensions><gom:speed>0.739</gom:speed></extensions></trkpt>
   <trkpt lat="59.0655144185" lon="30.0359584693"><ele>5.191</ele><time>2026-04-20T20:04:50.333Z</time><hdop>5.0</hdop><vdop>5.875</vdop><extensions><gom:speed>0.744</gom:speed></extensions></trkpt>
   <trkpt lat="59.0655140413" lon="30.035957715"><ele>5.242</ele><time>2026-04-20T20:04:50.864Z</time><hdop>5.0</hdop><vdop>5.875</vdop><extensions><gom:speed>0.685</gom:speed></extensions></trkpt>
   <trkpt lat="59.0655112334" lon="30.0359435496"><ele>5.365</ele><time>2026-04-20T20:04:52.047Z</time><hdop>5.0</hdop><vdop>5.875</vdop><extensions><gom:speed>0.536</gom:speed></extensions></trkpt>
   <trkpt lat="59.0655092217" lon="30.035938688"><ele>5.917</ele><time>2026-04-20T20:04:53.075Z</time><hdop>4.875</hdop><vdop>6.0</vdop><extensions><gom:speed>0.401</gom:speed></extensions></trkpt>
   <trkpt lat="59.0655057432" lon="30.0359365926"><ele>6.247</ele><time>2026-04-20T20:04:54.018Z</time><hdop>4.875</hdop><vdop>6.0</vdop><extensions><gom:speed>0.401</gom:speed></extensions></trkpt>
   <trkpt lat="59.0655002531" lon="30.0359335751"><ele>6.789</ele><time>2026-04-20T20:04:54.855Z</time><hdop>4.875</hdop><vdop>5.875</vdop><extensions><gom:speed>0.484</gom:speed></extensions></trkpt>
   <trkpt lat="59.0654908234" lon="30.035924355"><ele>7.76</ele><time>2026-04-20T20:04:55.556Z</time><hdop>5.0</hdop><vdop>5.5</vdop><extensions><gom:speed>0.758</gom:speed></extensions></trkpt>
   <trkpt lat="59.0654842436" lon="30.0359169789"><ele>8.189</ele><time>2026-04-20T20:04:56.075Z</time><hdop>5.0</hdop><vdop>5.375</vdop><extensions><gom:speed>0.801</gom:speed></extensions></trkpt>
   <trkpt lat="59.0654745206" lon="30.0359097705"><ele>8.445</ele><time>2026-04-20T20:04:56.939Z</time><hdop>5.125</hdop><vdop>5.375</vdop><extensions><gom:speed>0.891</gom:speed></extensions></trkpt>
   <trkpt lat="59.0654662226" lon="30.0359020591"><ele>8.487</ele><time>2026-04-20T20:04:57.461Z</time><hdop>5.125</hdop><vdop>5.375</vdop><extensions><gom:speed>0.913</gom:speed></extensions></trkpt>
   <trkpt lat="59.0654597266" lon="30.0358935096"><ele>8.658</ele><time>2026-04-20T20:04:58.075Z</time><hdop>5.125</hdop><vdop>5.375</vdop><extensions><gom:speed>0.931</gom:speed></extensions></trkpt>
   <trkpt lat="59.0654503388" lon="30.0358874746"><ele>8.761</ele><time>2026-04-20T20:04:58.961Z</time><hdop>5.125</hdop><vdop>5.375</vdop><extensions><gom:speed>0.948</gom:speed></extensions></trkpt>
   <trkpt lat="59.0654412445" lon="30.0358833675"><ele>8.336</ele><time>2026-04-20T20:04:59.822Z</time><hdop>5.25</hdop><vdop>5.25</vdop><extensions><gom:speed>0.943</gom:speed></extensions></trkpt>
   <trkpt lat="59.0654342456" lon="30.0358741474"><ele>8.08</ele><time>2026-04-20T20:05:00.580Z</time><hdop>5.25</hdop><vdop>5.25</vdop><extensions><gom:speed>0.896</gom:speed></extensions></trkpt>
   <trkpt lat="59.0654301385" lon="30.0358666875"><ele>8.032</ele><time>2026-04-20T20:05:01.075Z</time><hdop>5.25</hdop><vdop>5.25</vdop><extensions><gom:speed>0.905</gom:speed></extensions></trkpt>
   <trkpt lat="59.065423852" lon="30.0358555396"><ele>8.003</ele><time>2026-04-20T20:05:02.081Z</time><hdop>5.375</hdop><vdop>5.25</vdop><extensions><gom:speed>0.837</gom:speed></extensions></trkpt>
   <trkpt lat="59.065416937" lon="30.0358512648"><ele>8.004</ele><time>2026-04-20T20:05:02.864Z</time><hdop>5.375</hdop><vdop>5.25</vdop><extensions><gom:speed>0.792</gom:speed></extensions></trkpt>
   <trkpt lat="59.0654055376" lon="30.0358438049"><ele>8.086</ele><time>2026-04-20T20:05:03.720Z</time><hdop>5.375</hdop><vdop>5.5</vdop><extensions><gom:speed>0.797</gom:speed></extensions></trkpt>
   <trkpt lat="59.0653982453" lon="30.0358391949"><ele>8.082</ele><time>2026-04-20T20:05:04.599Z</time><hdop>5.25</hdop><vdop>5.375</vdop><extensions><gom:speed>0.749</gom:speed></extensions></trkpt>
   <trkpt lat="59.0653934257" lon="30.0358355906"><ele>8.415</ele><time>2026-04-20T20:05:05.075Z</time><hdop>5.25</hdop><vdop>5.375</vdop><extensions><gom:speed>0.753</gom:speed></extensions></trkpt>
   <trkpt lat="59.0653866364" lon="30.0358282146"><ele>8.566</ele><time>2026-04-20T20:05:06.075Z</time><hdop>5.25</hdop><vdop>5.25</vdop><extensions><gom:speed>0.668</gom:speed></extensions></trkpt>
   <trkpt lat="59.0653822359" lon="30.0358201679"><ele>8.656</ele><time>2026-04-20T20:05:07.036Z</time><hdop>5.125</hdop><vdop>5.25</vdop><extensions><gom:speed>0.601</gom:speed></extensions></trkpt>
   <trkpt lat="59.06537662" lon="30.0358101097"><ele>9.091</ele><time>2026-04-20T20:05:07.937Z</time><hdop>5.125</hdop><vdop>5.25</vdop><extensions><gom:speed>0.604</gom:speed></extensions></trkpt>
   <trkpt lat="59.0653697468" lon="30.0358019792"><ele>9.206</ele><time>2026-04-20T20:05:08.804Z</time><hdop>5.0</hdop><vdop>5.125</vdop><extensions><gom:speed>0.631</gom:speed></extensions></trkpt>
   <trkpt lat="59.0653661426" lon="30.0357968662"><ele>8.93</ele><time>2026-04-20T20:05:09.351Z</time><hdop>5.0</hdop><vdop>5.0</vdop><extensions><gom:speed>0.649</gom:speed></extensions></trkpt>
   <trkpt lat="59.0653600238" lon="30.0357920047"><ele>8.765</ele><time>2026-04-20T20:05:09.860Z</time><hdop>5.0</hdop><vdop>5.0</vdop><extensions><gom:speed>0.656</gom:speed></extensions></trkpt>
   <trkpt lat="59.0653543241" lon="30.0357859698"><ele>8.864</ele><time>2026-04-20T20:05:10.757Z</time><hdop>5.0</hdop><vdop>4.875</vdop><extensions><gom:speed>0.631</gom:speed></extensions></trkpt>
   <trkpt lat="59.0653462356" lon="30.0357801024"><ele>8.469</ele><time>2026-04-20T20:05:11.616Z</time><hdop>5.0</hdop><vdop>5.0</vdop><extensions><gom:speed>0.675</gom:speed></extensions></trkpt>
   <trkpt lat="59.0653420447" lon="30.0357750733"><ele>8.133</ele><time>2026-04-20T20:05:12.075Z</time><hdop>5.0</hdop><vdop>4.75</vdop><extensions><gom:speed>0.67</gom:speed></extensions></trkpt>
   <trkpt lat="59.0653348362" lon="30.0357626681"><ele>8.286</ele><time>2026-04-20T20:05:13.075Z</time><hdop>4.875</hdop><vdop>4.875</vdop><extensions><gom:speed>0.666</gom:speed></extensions></trkpt>
   <trkpt lat="59.0653291365" lon="30.0357524422"><ele>8.377</ele><time>2026-04-20T20:05:13.957Z</time><hdop>4.875</hdop><vdop>4.875</vdop><extensions><gom:speed>0.711</gom:speed></extensions></trkpt>
   <trkpt lat="59.0653240236" lon="30.0357465748"><ele>8.418</ele><time>2026-04-20T20:05:14.795Z</time><hdop>4.875</hdop><vdop>4.875</vdop><extensions><gom:speed>0.667</gom:speed></extensions></trkpt>
   <trkpt lat="59.0653219281" lon="30.0357459043"><ele>8.463</ele><time>2026-04-20T20:05:15.501Z</time><hdop>4.875</hdop><vdop>10.5</vdop><extensions><gom:speed>0.62</gom:speed></extensions></trkpt>
   <trkpt lat="59.0653170247" lon="30.0357438088"><ele>8.49</ele><time>2026-04-20T20:05:15.998Z</time><hdop>4.875</hdop><vdop>10.5</vdop><extensions><gom:speed>0.559</gom:speed></extensions></trkpt>
   <trkpt lat="59.0653130433" lon="30.0357381091"><ele>8.713</ele><time>2026-04-20T20:05:17.075Z</time><hdop>5.0</hdop><vdop>10.375</vdop><extensions><gom:speed>0.518</gom:speed></extensions></trkpt>
   <trkpt lat="59.0653083494" lon="30.0357298948"><ele>9.676</ele><time>2026-04-20T20:05:18.076Z</time><hdop>5.0</hdop><vdop>8.25</vdop><extensions><gom:speed>0.535</gom:speed></extensions></trkpt>
   <trkpt lat="59.0653043261" lon="30.0357231893"><ele>10.622</ele><time>2026-04-20T20:05:19.076Z</time><hdop>5.125</hdop><vdop>7.25</vdop><extensions><gom:speed>0.488</gom:speed></extensions></trkpt>
   <trkpt lat="59.0652990455" lon="30.0357198366"><ele>11.695</ele><time>2026-04-20T20:05:20.075Z</time><hdop>5.125</hdop><vdop>6.625</vdop><extensions><gom:speed>0.477</gom:speed></extensions></trkpt>
   <trkpt lat="59.0652934296" lon="30.0357201718"><ele>12.336</ele><time>2026-04-20T20:05:20.697Z</time><hdop>5.125</hdop><vdop>6.625</vdop><extensions><gom:speed>0.584</gom:speed></extensions></trkpt>
   <trkpt lat="59.0652848382" lon="30.0357189984"><ele>12.489</ele><time>2026-04-20T20:05:21.577Z</time><hdop>5.125</hdop><vdop>6.25</vdop><extensions><gom:speed>0.639</gom:speed></extensions></trkpt>
   <trkpt lat="59.0652780488" lon="30.0357149751"><ele>12.522</ele><time>2026-04-20T20:05:22.075Z</time><hdop>5.0</hdop><vdop>5.875</vdop><extensions><gom:speed>0.668</gom:speed></extensions></trkpt>
   <trkpt lat="59.0652735226" lon="30.0357051682"><ele>12.698</ele><time>2026-04-20T20:05:23.082Z</time><hdop>5.0</hdop><vdop>5.625</vdop><extensions><gom:speed>0.662</gom:speed></extensions></trkpt>
   <trkpt lat="59.0652724329" lon="30.0356892426"><ele>12.804</ele><time>2026-04-20T20:05:23.896Z</time><hdop>5.0</hdop><vdop>5.625</vdop><extensions><gom:speed>0.775</gom:speed></extensions></trkpt>
   <trkpt lat="59.0652735226" lon="30.0356766698"><ele>12.482</ele><time>2026-04-20T20:05:24.658Z</time><hdop>4.875</hdop><vdop>5.5</vdop><extensions><gom:speed>0.709</gom:speed></extensions></trkpt>
   <trkpt lat="59.0652724329" lon="30.0356636778"><ele>11.597</ele><time>2026-04-20T20:05:25.494Z</time><hdop>4.875</hdop><vdop>5.25</vdop><extensions><gom:speed>0.661</gom:speed></extensions></trkpt>
   <trkpt lat="59.0652700441" lon="30.0356554635"><ele>11.668</ele><time>2026-04-20T20:05:26.075Z</time><hdop>4.75</hdop><vdop>5.0</vdop><extensions><gom:speed>0.66</gom:speed></extensions></trkpt>
   <trkpt lat="59.0652642187" lon="30.0356428907"><ele>11.753</ele><time>2026-04-20T20:05:27.075Z</time><hdop>4.75</hdop><vdop>5.0</vdop><extensions><gom:speed>0.685</gom:speed></extensions></trkpt>
   <trkpt lat="59.0652587285" lon="30.0356343411"><ele>11.804</ele><time>2026-04-20T20:05:27.962Z</time><hdop>4.625</hdop><vdop>5.0</vdop><extensions><gom:speed>0.704</gom:speed></extensions></trkpt>
   <trkpt lat="59.0652525259" lon="30.0356279709"><ele>12.009</ele><time>2026-04-20T20:05:28.762Z</time><hdop>4.625</hdop><vdop>5.0</vdop><extensions><gom:speed>0.75</gom:speed></extensions></trkpt>
   <trkpt lat="59.0652464491" lon="30.0356242829"><ele>12.25</ele><time>2026-04-20T20:05:29.434Z</time><hdop>4.625</hdop><vdop>4.875</vdop><extensions><gom:speed>0.82</gom:speed></extensions></trkpt>
   <trkpt lat="59.065240917" lon="30.0356208463"><ele>12.739</ele><time>2026-04-20T20:05:30.075Z</time><hdop>4.625</hdop><vdop>4.875</vdop><extensions><gom:speed>0.821</gom:speed></extensions></trkpt>
   <trkpt lat="59.0652324513" lon="30.0356162362"><ele>13.031</ele><time>2026-04-20T20:05:31.004Z</time><hdop>4.625</hdop><vdop>4.875</vdop><extensions><gom:speed>0.906</gom:speed></extensions></trkpt>
   <trkpt lat="59.0652248237" lon="30.0356102851"><ele>12.434</ele><time>2026-04-20T20:05:31.734Z</time><hdop>4.75</hdop><vdop>4.75</vdop><extensions><gom:speed>0.966</gom:speed></extensions></trkpt>
   <trkpt lat="59.0652174477" lon="30.0356041663"><ele>12.195</ele><time>2026-04-20T20:05:32.475Z</time><hdop>4.75</hdop><vdop>4.625</vdop><extensions><gom:speed>0.961</gom:speed></extensions></trkpt>
   <trkpt lat="59.0652123347" lon="30.0355989695"><ele>11.608</ele><time>2026-04-20T20:05:33.075Z</time><hdop>4.75</hdop><vdop>4.5</vdop><extensions><gom:speed>0.956</gom:speed></extensions></trkpt>
   <trkpt lat="59.0652057549" lon="30.0355912582"><ele>11.258</ele><time>2026-04-20T20:05:33.976Z</time><hdop>4.75</hdop><vdop>4.5</vdop><extensions><gom:speed>0.903</gom:speed></extensions></trkpt>
   <trkpt lat="59.0651982531" lon="30.0355807808"><ele>11.804</ele><time>2026-04-20T20:05:35.075Z</time><hdop>4.875</hdop><vdop>4.375</vdop><extensions><gom:speed>0.757</gom:speed></extensions></trkpt>
   <trkpt lat="59.0651966186" lon="30.0355780986"><ele>11.826</ele><time>2026-04-20T20:05:35.994Z</time><hdop>4.875</hdop><vdop>4.375</vdop><extensions><gom:speed>0.579</gom:speed></extensions></trkpt>
   <trkpt lat="59.0651977502" lon="30.0355750811"><ele>11.775</ele><time>2026-04-20T20:05:37.075Z</time><hdop>4.875</hdop><vdop>4.125</vdop><extensions><gom:speed>0.391</gom:speed></extensions></trkpt>
   <trkpt lat="59.0652007258" lon="30.0355756678"><ele>12.043</ele><time>2026-04-20T20:05:38.007Z</time><hdop>5.125</hdop><vdop>4.25</vdop><extensions><gom:speed>0.244</gom:speed></extensions></trkpt>
   <trkpt lat="59.0652016478" lon="30.0355765898"><ele>12.203</ele><time>2026-04-20T20:05:38.741Z</time><hdop>5.25</hdop><vdop>4.25</vdop><extensions><gom:speed>0.178</gom:speed></extensions></trkpt>
   <trkpt lat="59.0652032403" lon="30.0355766736"><ele>12.758</ele><time>2026-04-20T20:05:39.444Z</time><hdop>5.25</hdop><vdop>4.375</vdop><extensions><gom:speed>0.119</gom:speed></extensions></trkpt>
   <trkpt lat="59.0652031565" lon="30.0355755002"><ele>13.292</ele><time>2026-04-20T20:05:40.075Z</time><hdop>5.25</hdop><vdop>4.625</vdop><extensions><gom:speed>0.145</gom:speed></extensions></trkpt>
   <trkpt lat="59.0652028212" lon="30.0355749134"><ele>13.611</ele><time>2026-04-20T20:05:40.637Z</time><hdop>5.125</hdop><vdop>4.625</vdop><extensions><gom:speed>0.132</gom:speed></extensions></trkpt>
   <trkpt lat="59.0652002229" lon="30.0355693814"><ele>14.027</ele><time>2026-04-20T20:05:42.075Z</time><hdop>5.125</hdop><vdop>4.5</vdop><extensions><gom:speed>0.18</gom:speed></extensions></trkpt>
   <trkpt lat="59.0651989237" lon="30.0355679565"><ele>14.275</ele><time>2026-04-20T20:05:42.582Z</time><hdop>5.0</hdop><vdop>4.5</vdop><extensions><gom:speed>0.232</gom:speed></extensions></trkpt>
   <trkpt lat="59.0651975406" lon="30.0355678727"><ele>14.247</ele><time>2026-04-20T20:05:43.118Z</time><hdop>5.0</hdop><vdop>4.5</vdop><extensions><gom:speed>0.249</gom:speed></extensions></trkpt>
   <trkpt lat="59.0651954452" lon="30.0355685432"><ele>14.229</ele><time>2026-04-20T20:05:43.835Z</time><hdop>4.875</hdop><vdop>4.5</vdop><extensions><gom:speed>0.273</gom:speed></extensions></trkpt>
   <trkpt lat="59.0651936431" lon="30.0355668668"><ele>13.597</ele><time>2026-04-20T20:05:44.996Z</time><hdop>4.875</hdop><vdop>4.25</vdop><extensions><gom:speed>0.215</gom:speed></extensions></trkpt>
   <trkpt lat="59.0651937269" lon="30.0355657772"><ele>12.94</ele><time>2026-04-20T20:05:46.075Z</time><hdop>4.875</hdop><vdop>4.0</vdop><extensions><gom:speed>0.154</gom:speed></extensions></trkpt>
   <trkpt lat="59.0651948165" lon="30.0355631788"><ele>12.467</ele><time>2026-04-20T20:05:47.075Z</time><hdop>4.875</hdop><vdop>3.875</vdop><extensions><gom:speed>0.094</gom:speed></extensions></trkpt>
   <trkpt lat="59.0651958224" lon="30.0355611671"><ele>12.113</ele><time>2026-04-20T20:05:48.075Z</time><hdop>4.875</hdop><vdop>3.875</vdop><extensions><gom:speed>0.083</gom:speed></extensions></trkpt>
   <trkpt lat="59.0651970377" lon="30.0355589878"><ele>12.157</ele><time>2026-04-20T20:05:49.075Z</time><hdop>4.75</hdop><vdop>3.875</vdop><extensions><gom:speed>0.067</gom:speed></extensions></trkpt>
   <trkpt lat="59.0651967444" lon="30.0355578144"><ele>12.243</ele><time>2026-04-20T20:05:50.075Z</time><hdop>4.625</hdop><vdop>3.75</vdop><extensions><gom:speed>0.095</gom:speed></extensions></trkpt>
   <trkpt lat="59.0651961576" lon="30.0355578144"><ele>12.295</ele><time>2026-04-20T20:05:50.618Z</time><hdop>4.375</hdop><vdop>3.75</vdop><extensions><gom:speed>0.093</gom:speed></extensions></trkpt>
   <trkpt lat="59.0651954452" lon="30.0355573115"><ele>12.586</ele><time>2026-04-20T20:05:51.456Z</time><hdop>4.125</hdop><vdop>3.875</vdop><extensions><gom:speed>0.074</gom:speed></extensions></trkpt>
   <trkpt lat="59.065194146" lon="30.0355558865"><ele>12.676</ele><time>2026-04-20T20:05:52.075Z</time><hdop>4.125</hdop><vdop>4.125</vdop><extensions><gom:speed>0.121</gom:speed></extensions></trkpt>
   <trkpt lat="59.0651935173" lon="30.0355554674"><ele>12.73</ele><time>2026-04-20T20:05:52.697Z</time><hdop>4.125</hdop><vdop>4.125</vdop><extensions><gom:speed>0.115</gom:speed></extensions></trkpt>
   <trkpt lat="59.0651928468" lon="30.0355542101"><ele>12.849</ele><time>2026-04-20T20:05:53.263Z</time><hdop>4.125</hdop><vdop>7.75</vdop><extensions><gom:speed>0.157</gom:speed></extensions></trkpt>
   <trkpt lat="59.0651911285" lon="30.0355513603"><ele>12.921</ele><time>2026-04-20T20:05:54.042Z</time><hdop>4.125</hdop><vdop>7.75</vdop><extensions><gom:speed>0.252</gom:speed></extensions></trkpt>
   <trkpt lat="59.0651845487" lon="30.0355423078"><ele>12.88</ele><time>2026-04-20T20:05:54.803Z</time><hdop>4.25</hdop><vdop>7.75</vdop><extensions><gom:speed>0.491</gom:speed></extensions></trkpt>
   <trkpt lat="59.0651780527" lon="30.0355309085"><ele>12.529</ele><time>2026-04-20T20:05:55.502Z</time><hdop>4.375</hdop><vdop>6.875</vdop><extensions><gom:speed>0.665</gom:speed></extensions></trkpt>
   <trkpt lat="59.0651733169" lon="30.0355211854"><ele>12.524</ele><time>2026-04-20T20:05:56.075Z</time><hdop>4.5</hdop><vdop>6.375</vdop><extensions><gom:speed>0.727</gom:speed></extensions></trkpt>
   <trkpt lat="59.0651657313" lon="30.0355104566"><ele>12.52</ele><time>2026-04-20T20:05:57.043Z</time><hdop>4.75</hdop><vdop>6.375</vdop><extensions><gom:speed>0.759</gom:speed></extensions></trkpt>
   <trkpt lat="59.0651578523" lon="30.0355074391"><ele>12.774</ele><time>2026-04-20T20:05:57.903Z</time><hdop>5.0</hdop><vdop>5.875</vdop><extensions><gom:speed>0.757</gom:speed></extensions></trkpt>
   <trkpt lat="59.0651505182" lon="30.0355071877"><ele>12.836</ele><time>2026-04-20T20:05:58.681Z</time><hdop>5.125</hdop><vdop>5.25</vdop><extensions><gom:speed>0.811</gom:speed></extensions></trkpt>
   <trkpt lat="59.0651420524" lon="30.0355035835"><ele>13.23</ele><time>2026-04-20T20:05:59.581Z</time><hdop>5.375</hdop><vdop>5.25</vdop><extensions><gom:speed>0.744</gom:speed></extensions></trkpt>
   <trkpt lat="59.0651392445" lon="30.0354975485"><ele>13.291</ele><time>2026-04-20T20:06:00.076Z</time><hdop>5.375</hdop><vdop>5.25</vdop><extensions><gom:speed>0.706</gom:speed></extensions></trkpt>
   <trkpt lat="59.0651363528" lon="30.0354869873"><ele>13.327</ele><time>2026-04-20T20:06:01.081Z</time><hdop>5.375</hdop><vdop>5.25</vdop><extensions><gom:speed>0.672</gom:speed></extensions></trkpt>
   <trkpt lat="59.0651317427" lon="30.0354755879"><ele>13.32</ele><time>2026-04-20T20:06:02.075Z</time><hdop>5.375</hdop><vdop>5.0</vdop><extensions><gom:speed>0.629</gom:speed></extensions></trkpt>
   <trkpt lat="59.0651295215" lon="30.0354734086"><ele>13.316</ele><time>2026-04-20T20:06:02.622Z</time><hdop>5.375</hdop><vdop>5.0</vdop><extensions><gom:speed>0.556</gom:speed></extensions></trkpt>
   <trkpt lat="59.0651271327" lon="30.0354694691"><ele>13.937</ele><time>2026-04-20T20:06:03.075Z</time><hdop>5.25</hdop><vdop>5.0</vdop><extensions><gom:speed>0.542</gom:speed></extensions></trkpt>
   <trkpt lat="59.0651232351" lon="30.0354675413"><ele>14.308</ele><time>2026-04-20T20:06:04.081Z</time><hdop>5.25</hdop><vdop>5.0</vdop><extensions><gom:speed>0.478</gom:speed></extensions></trkpt>
   <trkpt lat="59.0651198404" lon="30.0354601652"><ele>14.537</ele><time>2026-04-20T20:06:04.900Z</time><hdop>5.25</hdop><vdop>5.0</vdop><extensions><gom:speed>0.523</gom:speed></extensions></trkpt>
   <trkpt lat="59.0651141407" lon="30.0354430661"><ele>14.774</ele><time>2026-04-20T20:06:06.075Z</time><hdop>5.25</hdop><vdop>4.75</vdop><extensions><gom:speed>0.531</gom:speed></extensions></trkpt>
   <trkpt lat="59.0651122548" lon="30.0354397972"><ele>14.656</ele><time>2026-04-20T20:06:07.029Z</time><hdop>5.25</hdop><vdop>4.625</vdop><extensions><gom:speed>0.434</gom:speed></extensions></trkpt>
   <trkpt lat="59.0651114166" lon="30.035438037"><ele>14.586</ele><time>2026-04-20T20:06:07.576Z</time><hdop>5.375</hdop><vdop>4.625</vdop><extensions><gom:speed>0.397</gom:speed></extensions></trkpt>
   <trkpt lat="59.065109824" lon="30.0354323373"><ele>14.313</ele><time>2026-04-20T20:06:08.075Z</time><hdop>5.375</hdop><vdop>4.625</vdop><extensions><gom:speed>0.401</gom:speed></extensions></trkpt>
   <trkpt lat="59.0651074352" lon="30.0354235363"><ele>14.378</ele><time>2026-04-20T20:06:09.042Z</time><hdop>5.5</hdop><vdop>7.625</vdop><extensions><gom:speed>0.432</gom:speed></extensions></trkpt>
   <trkpt lat="59.0651073514" lon="30.0354216084"><ele>14.417</ele><time>2026-04-20T20:06:09.620Z</time><hdop>5.625</hdop><vdop>7.625</vdop><extensions><gom:speed>0.322</gom:speed></extensions></trkpt>
   <trkpt lat="59.0651069323" lon="30.0354175851"><ele>15.185</ele><time>2026-04-20T20:06:10.075Z</time><hdop>5.625</hdop><vdop>6.75</vdop><extensions><gom:speed>0.311</gom:speed></extensions></trkpt>
   <trkpt lat="59.0651054235" lon="30.0354078621"><ele>16.106</ele><time>2026-04-20T20:06:11.076Z</time><hdop>5.75</hdop><vdop>7.25</vdop><extensions><gom:speed>0.3</gom:speed></extensions></trkpt>
   <trkpt lat="59.0651029509" lon="30.0353965465"><ele>17.626</ele><time>2026-04-20T20:06:12.075Z</time><hdop>5.75</hdop><vdop>7.25</vdop><extensions><gom:speed>0.296</gom:speed></extensions></trkpt>
   <trkpt lat="59.0651003525" lon="30.0353857339"><ele>20.714</ele><time>2026-04-20T20:06:13.075Z</time><hdop>5.75</hdop><vdop>6.5</vdop><extensions><gom:speed>0.311</gom:speed></extensions></trkpt>
   <trkpt lat="59.0650971254" lon="30.0353803695"><ele>22.56</ele><time>2026-04-20T20:06:14.103Z</time><hdop>5.625</hdop><vdop>6.5</vdop><extensions><gom:speed>0.297</gom:speed></extensions></trkpt>
   <trkpt lat="59.0650937308" lon="30.0353704788"><ele>23.13</ele><time>2026-04-20T20:06:14.941Z</time><hdop>5.625</hdop><vdop>6.25</vdop><extensions><gom:speed>0.328</gom:speed></extensions></trkpt>
   <trkpt lat="59.0650893303" lon="30.0353556429"><ele>22.993</ele><time>2026-04-20T20:06:15.916Z</time><hdop>5.375</hdop><vdop>5.875</vdop><extensions><gom:speed>0.355</gom:speed></extensions></trkpt>
   <trkpt lat="59.0650845526" lon="30.0353425671"><ele>23.807</ele><time>2026-04-20T20:06:16.717Z</time><hdop>5.25</hdop><vdop>5.5</vdop><extensions><gom:speed>0.416</gom:speed></extensions></trkpt>
   <trkpt lat="59.0650799425" lon="30.035329156"><ele>23.729</ele><time>2026-04-20T20:06:17.475Z</time><hdop>5.0</hdop><vdop>5.375</vdop><extensions><gom:speed>0.451</gom:speed></extensions></trkpt>
   <trkpt lat="59.0650771346" lon="30.0353180081"><ele>23.446</ele><time>2026-04-20T20:06:18.076Z</time><hdop>5.0</hdop><vdop>5.25</vdop><extensions><gom:speed>0.481</gom:speed></extensions></trkpt>
   <trkpt lat="59.0650742428" lon="30.0353067764"><ele>23.277</ele><time>2026-04-20T20:06:19.055Z</time><hdop>4.75</hdop><vdop>5.25</vdop><extensions><gom:speed>0.477</gom:speed></extensions></trkpt>
   <trkpt lat="59.0650700519" lon="30.0352962152"><ele>23.323</ele><time>2026-04-20T20:06:19.817Z</time><hdop>4.625</hdop><vdop>5.0</vdop><extensions><gom:speed>0.486</gom:speed></extensions></trkpt>
   <trkpt lat="59.0650642265" lon="30.0352888391"><ele>23.112</ele><time>2026-04-20T20:06:20.617Z</time><hdop>4.625</hdop><vdop>5.0</vdop><extensions><gom:speed>0.549</gom:speed></extensions></trkpt>
   <trkpt lat="59.0650612509" lon="30.0352844805"><ele>22.894</ele><time>2026-04-20T20:06:21.075Z</time><hdop>4.625</hdop><vdop>4.75</vdop><extensions><gom:speed>0.572</gom:speed></extensions></trkpt>
   <trkpt lat="59.0650516536" lon="30.0352818821"><ele>23.199</ele><time>2026-04-20T20:06:22.075Z</time><hdop>4.625</hdop><vdop>4.75</vdop><extensions><gom:speed>0.718</gom:speed></extensions></trkpt>
   <trkpt lat="59.0650427269" lon="30.0352756795"><ele>22.97</ele><time>2026-04-20T20:06:23.075Z</time><hdop>4.625</hdop><vdop>4.625</vdop><extensions><gom:speed>0.69</gom:speed></extensions></trkpt>
   <trkpt lat="59.0650416372" lon="30.0352709018"><ele>22.834</ele><time>2026-04-20T20:06:23.612Z</time><hdop>4.75</hdop><vdop>4.625</vdop><extensions><gom:speed>0.579</gom:speed></extensions></trkpt>
   <trkpt lat="59.0650406314" lon="30.0352585804"><ele>22.752</ele><time>2026-04-20T20:06:24.081Z</time><hdop>4.75</hdop><vdop>4.625</vdop><extensions><gom:speed>0.64</gom:speed></extensions></trkpt>
   <trkpt lat="59.065044529" lon="30.0352501985"><ele>21.835</ele><time>2026-04-20T20:06:25.076Z</time><hdop>4.875</hdop><vdop>4.5</vdop><extensions><gom:speed>0.538</gom:speed></extensions></trkpt>
   <trkpt lat="59.065045451" lon="30.0352442474"><ele>21.096</ele><time>2026-04-20T20:06:25.917Z</time><hdop>4.875</hdop><vdop>4.5</vdop><extensions><gom:speed>0.431</gom:speed></extensions></trkpt>
   <trkpt lat="59.0650450319" lon="30.0352401402"><ele>20.459</ele><time>2026-04-20T20:06:26.776Z</time><hdop>4.875</hdop><vdop>4.625</vdop><extensions><gom:speed>0.318</gom:speed></extensions></trkpt>
   <trkpt lat="59.0650458282" lon="30.0352384639"><ele>19.477</ele><time>2026-04-20T20:06:27.685Z</time><hdop>4.875</hdop><vdop>4.5</vdop><extensions><gom:speed>0.226</gom:speed></extensions></trkpt>
   <trkpt lat="59.0650466245" lon="30.0352382124"><ele>18.691</ele><time>2026-04-20T20:06:28.627Z</time><hdop>5.0</hdop><vdop>4.5</vdop><extensions><gom:speed>0.199</gom:speed></extensions></trkpt>
   <trkpt lat="59.0650464568" lon="30.0352369551"><ele>18.137</ele><time>2026-04-20T20:06:29.637Z</time><hdop>4.875</hdop><vdop>4.625</vdop><extensions><gom:speed>0.197</gom:speed></extensions></trkpt>
   <trkpt lat="59.0650463311" lon="30.0352330994"><ele>17.568</ele><time>2026-04-20T20:06:30.820Z</time><hdop>4.875</hdop><vdop>4.625</vdop><extensions><gom:speed>0.194</gom:speed></extensions></trkpt>
   <trkpt lat="59.0650460377" lon="30.035230082"><ele>16.661</ele><time>2026-04-20T20:06:31.662Z</time><hdop>5.0</hdop><vdop>4.5</vdop><extensions><gom:speed>0.223</gom:speed></extensions></trkpt>
   <trkpt lat="59.065045451" lon="30.0352246337"><ele>15.727</ele><time>2026-04-20T20:06:32.322Z</time><hdop>4.875</hdop><vdop>4.25</vdop><extensions><gom:speed>0.271</gom:speed></extensions></trkpt>
   <trkpt lat="59.0650443195" lon="30.0352154136"><ele>14.307</ele><time>2026-04-20T20:06:33.075Z</time><hdop>4.875</hdop><vdop>4.125</vdop><extensions><gom:speed>0.391</gom:speed></extensions></trkpt>
   <trkpt lat="59.0650435232" lon="30.0352097977"><ele>13.458</ele><time>2026-04-20T20:06:33.558Z</time><hdop>4.875</hdop><vdop>4.125</vdop><extensions><gom:speed>0.416</gom:speed></extensions></trkpt>
   <trkpt lat="59.0650419306" lon="30.0352035951"><ele>12.579</ele><time>2026-04-20T20:06:34.075Z</time><hdop>4.875</hdop><vdop>4.125</vdop><extensions><gom:speed>0.45</gom:speed></extensions></trkpt>
   <trkpt lat="59.065038033" lon="30.0351911899"><ele>11.848</ele><time>2026-04-20T20:06:35.076Z</time><hdop>4.75</hdop><vdop>4.125</vdop><extensions><gom:speed>0.555</gom:speed></extensions></trkpt>
   <trkpt lat="59.0650361471" lon="30.035185155"><ele>11.411</ele><time>2026-04-20T20:06:35.931Z</time><hdop>4.75</hdop><vdop>4.125</vdop><extensions><gom:speed>0.576</gom:speed></extensions></trkpt>
   <trkpt lat="59.0650312437" lon="30.0351657089"><ele>10.881</ele><time>2026-04-20T20:06:36.942Z</time><hdop>4.625</hdop><vdop>4.125</vdop><extensions><gom:speed>0.632</gom:speed></extensions></trkpt>
   <trkpt lat="59.0650321238" lon="30.0351535552"><ele>10.353</ele><time>2026-04-20T20:06:37.682Z</time><hdop>4.625</hdop><vdop>4.0</vdop><extensions><gom:speed>0.749</gom:speed></extensions></trkpt>
   <trkpt lat="59.0650333392" lon="30.0351445865"><ele>9.778</ele><time>2026-04-20T20:06:38.336Z</time><hdop>4.625</hdop><vdop>4.0</vdop><extensions><gom:speed>0.767</gom:speed></extensions></trkpt>
   <trkpt lat="59.0650346384" lon="30.0351351988"><ele>9.037</ele><time>2026-04-20T20:06:39.075Z</time><hdop>4.625</hdop><vdop>3.875</vdop><extensions><gom:speed>0.782</gom:speed></extensions></trkpt>
   <trkpt lat="59.0650355185" lon="30.0351234641"><ele>8.42</ele><time>2026-04-20T20:06:40.075Z</time><hdop>4.625</hdop><vdop>3.75</vdop><extensions><gom:speed>0.763</gom:speed></extensions></trkpt>
   <trkpt lat="59.0650363566" lon="30.0351104722"><ele>8.051</ele><time>2026-04-20T20:06:41.020Z</time><hdop>4.625</hdop><vdop>3.75</vdop><extensions><gom:speed>0.777</gom:speed></extensions></trkpt>
   <trkpt lat="59.0650378235" lon="30.035098989"><ele>7.453</ele><time>2026-04-20T20:06:41.739Z</time><hdop>4.625</hdop><vdop>3.75</vdop><extensions><gom:speed>0.828</gom:speed></extensions></trkpt>
   <trkpt lat="59.0650409248" lon="30.0350818899"><ele>6.946</ele><time>2026-04-20T20:06:42.677Z</time><hdop>4.625</hdop><vdop>3.625</vdop><extensions><gom:speed>0.777</gom:speed></extensions></trkpt>
   <trkpt lat="59.0650392484" lon="30.0350773637"><ele>6.519</ele><time>2026-04-20T20:06:43.515Z</time><hdop>4.625</hdop><vdop>3.625</vdop><extensions><gom:speed>0.672</gom:speed></extensions></trkpt>
   <trkpt lat="59.0650369434" lon="30.035075352"><ele>6.388</ele><time>2026-04-20T20:06:44.075Z</time><hdop>4.625</hdop><vdop>3.75</vdop><extensions><gom:speed>0.675</gom:speed></extensions></trkpt>
   <trkpt lat="59.065030154" lon="30.0350746815"><ele>6.506</ele><time>2026-04-20T20:06:45.075Z</time><hdop>4.625</hdop><vdop>3.875</vdop><extensions><gom:speed>0.692</gom:speed></extensions></trkpt>
   <trkpt lat="59.0650241191" lon="30.0350756035"><ele>6.577</ele><time>2026-04-20T20:06:46.062Z</time><hdop>4.625</hdop><vdop>3.875</vdop><extensions><gom:speed>0.593</gom:speed></extensions></trkpt>
   <trkpt lat="59.0650191318" lon="30.0350777828"><ele>6.518</ele><time>2026-04-20T20:06:46.942Z</time><hdop>4.5</hdop><vdop>4.0</vdop><extensions><gom:speed>0.569</gom:speed></extensions></trkpt>
   <trkpt lat="59.0650141446" lon="30.0350780342"><ele>6.328</ele><time>2026-04-20T20:06:47.661Z</time><hdop>4.5</hdop><vdop>4.125</vdop><extensions><gom:speed>0.63</gom:speed></extensions></trkpt>
   <trkpt lat="59.0650095346" lon="30.0350774475"><ele>6.068</ele><time>2026-04-20T20:06:48.214Z</time><hdop>4.5</hdop><vdop>4.25</vdop><extensions><gom:speed>0.642</gom:speed></extensions></trkpt>
   <trkpt lat="59.0650011527" lon="30.0350723345"><ele>5.913</ele><time>2026-04-20T20:06:49.083Z</time><hdop>4.5</hdop><vdop>4.25</vdop><extensions><gom:speed>0.735</gom:speed></extensions></trkpt>
   <trkpt lat="59.0649951177" lon="30.0350699038"><ele>5.654</ele><time>2026-04-20T20:06:49.695Z</time><hdop>4.5</hdop><vdop>4.125</vdop><extensions><gom:speed>0.84</gom:speed></extensions></trkpt>
   <trkpt lat="59.064985227" lon="30.0350678083"><ele>5.506</ele><time>2026-04-20T20:06:50.644Z</time><hdop>4.5</hdop><vdop>4.0</vdop><extensions><gom:speed>0.863</gom:speed></extensions></trkpt>
   <trkpt lat="59.0649782281" lon="30.0350690656"><ele>5.483</ele><time>2026-04-20T20:06:51.254Z</time><hdop>4.5</hdop><vdop>4.125</vdop><extensions><gom:speed>0.874</gom:speed></extensions></trkpt>
   <trkpt lat="59.0649717322" lon="30.035071664"><ele>5.469</ele><time>2026-04-20T20:06:51.958Z</time><hdop>4.5</hdop><vdop>4.125</vdop><extensions><gom:speed>0.908</gom:speed></extensions></trkpt>
   <trkpt lat="59.0649645237" lon="30.0350766931"><ele>5.469</ele><time>2026-04-20T20:06:52.656Z</time><hdop>4.5</hdop><vdop>4.25</vdop><extensions><gom:speed>0.935</gom:speed></extensions></trkpt>
   <trkpt lat="59.0649564352" lon="30.0350799621"><ele>4.943</ele><time>2026-04-20T20:06:53.417Z</time><hdop>4.5</hdop><vdop>4.25</vdop><extensions><gom:speed>0.939</gom:speed></extensions></trkpt>
   <trkpt lat="59.0649493525" lon="30.0350811355"><ele>4.426</ele><time>2026-04-20T20:06:54.075Z</time><hdop>4.5</hdop><vdop>4.125</vdop><extensions><gom:speed>0.974</gom:speed></extensions></trkpt>
   <trkpt lat="59.0649469217" lon="30.0350811355"><ele>4.117</ele><time>2026-04-20T20:06:54.528Z</time><hdop>4.5</hdop><vdop>4.125</vdop><extensions><gom:speed>0.969</gom:speed></extensions></trkpt>
   <trkpt lat="59.0649370311" lon="30.0350839016"><ele>3.984</ele><time>2026-04-20T20:06:55.075Z</time><hdop>4.5</hdop><vdop>4.125</vdop><extensions><gom:speed>0.961</gom:speed></extensions></trkpt>
   <trkpt lat="59.064931038" lon="30.0350862485"><ele>3.905</ele><time>2026-04-20T20:06:55.716Z</time><hdop>4.5</hdop><vdop>4.125</vdop><extensions><gom:speed>0.943</gom:speed></extensions></trkpt>
   <trkpt lat="59.0649238296" lon="30.0350922835"><ele>3.896</ele><time>2026-04-20T20:06:56.458Z</time><hdop>4.5</hdop><vdop>4.0</vdop><extensions><gom:speed>0.958</gom:speed></extensions></trkpt>
   <trkpt lat="59.064917627" lon="30.0350968935"><ele>4.005</ele><time>2026-04-20T20:06:57.075Z</time><hdop>4.5</hdop><vdop>4.125</vdop><extensions><gom:speed>0.96</gom:speed></extensions></trkpt>
   <trkpt lat="59.0649081554" lon="30.0351021741"><ele>3.651</ele><time>2026-04-20T20:06:58.075Z</time><hdop>4.625</hdop><vdop>3.875</vdop><extensions><gom:speed>0.931</gom:speed></extensions></trkpt>
   <trkpt lat="59.0649011565" lon="30.0351044372"><ele>3.44</ele><time>2026-04-20T20:06:58.855Z</time><hdop>4.625</hdop><vdop>3.875</vdop><extensions><gom:speed>0.902</gom:speed></extensions></trkpt>
   <trkpt lat="59.0648929423" lon="30.0351051916"><ele>3.956</ele><time>2026-04-20T20:06:59.716Z</time><hdop>4.625</hdop><vdop>3.875</vdop><extensions><gom:speed>0.856</gom:speed></extensions></trkpt>
   <trkpt lat="59.064887033" lon="30.0351044372"><ele>4.263</ele><time>2026-04-20T20:07:00.473Z</time><hdop>4.625</hdop><vdop>4.0</vdop><extensions><gom:speed>0.759</gom:speed></extensions></trkpt>
   <trkpt lat="59.0648809562" lon="30.0351046049"><ele>4.447</ele><time>2026-04-20T20:07:01.057Z</time><hdop>4.625</hdop><vdop>4.0</vdop><extensions><gom:speed>0.755</gom:speed></extensions></trkpt>
   <trkpt lat="59.064878232" lon="30.0351054431"><ele>4.512</ele><time>2026-04-20T20:07:01.836Z</time><hdop>4.625</hdop><vdop>4.25</vdop><extensions><gom:speed>0.671</gom:speed></extensions></trkpt>
   <trkpt lat="59.0648732448" lon="30.0351087958"><ele>4.468</ele><time>2026-04-20T20:07:02.775Z</time><hdop>4.625</hdop><vdop>4.25</vdop><extensions><gom:speed>0.627</gom:speed></extensions></trkpt>
   <trkpt lat="59.0648663297" lon="30.0351153337"><ele>4.329</ele><time>2026-04-20T20:07:04.076Z</time><hdop>4.5</hdop><vdop>4.875</vdop><extensions><gom:speed>0.575</gom:speed></extensions></trkpt>
   <trkpt lat="59.0648640247" lon="30.0351152499"><ele>4.246</ele><time>2026-04-20T20:07:04.561Z</time><hdop>4.5</hdop><vdop>4.875</vdop><extensions><gom:speed>0.534</gom:speed></extensions></trkpt>
   <trkpt lat="59.0648607558" lon="30.0351135735"><ele>4.457</ele><time>2026-04-20T20:07:05.075Z</time><hdop>4.5</hdop><vdop>5.0</vdop><extensions><gom:speed>0.539</gom:speed></extensions></trkpt>
   <trkpt lat="59.0648551399" lon="30.0351118133"><ele>4.584</ele><time>2026-04-20T20:07:05.982Z</time><hdop>4.5</hdop><vdop>5.0</vdop><extensions><gom:speed>0.562</gom:speed></extensions></trkpt>
   <trkpt lat="59.0648487277" lon="30.0351101369"><ele>4.851</ele><time>2026-04-20T20:07:06.704Z</time><hdop>4.5</hdop><vdop>5.25</vdop><extensions><gom:speed>0.672</gom:speed></extensions></trkpt>
   <trkpt lat="59.0648400525" lon="30.0351083767"><ele>5.502</ele><time>2026-04-20T20:07:07.408Z</time><hdop>4.5</hdop><vdop>5.5</vdop><extensions><gom:speed>0.76</gom:speed></extensions></trkpt>
   <trkpt lat="59.0648358196" lon="30.0351077062"><ele>5.891</ele><time>2026-04-20T20:07:07.956Z</time><hdop>4.5</hdop><vdop>5.5</vdop><extensions><gom:speed>0.771</gom:speed></extensions></trkpt>
   <trkpt lat="59.064826851" lon="30.0351038505"><ele>6.171</ele><time>2026-04-20T20:07:08.757Z</time><hdop>4.625</hdop><vdop>5.375</vdop><extensions><gom:speed>0.898</gom:speed></extensions></trkpt>
   <trkpt lat="59.0648175471" lon="30.0350976479"><ele>5.791</ele><time>2026-04-20T20:07:09.516Z</time><hdop>4.625</hdop><vdop>5.125</vdop><extensions><gom:speed>0.939</gom:speed></extensions></trkpt>
   <trkpt lat="59.0648109254" lon="30.0350921996"><ele>5.736</ele><time>2026-04-20T20:07:10.076Z</time><hdop>4.625</hdop><vdop>5.125</vdop><extensions><gom:speed>0.94</gom:speed></extensions></trkpt>
   <trkpt lat="59.0648026273" lon="30.0350866676"><ele>5.703</ele><time>2026-04-20T20:07:10.878Z</time><hdop>4.75</hdop><vdop>5.125</vdop><extensions><gom:speed>0.97</gom:speed></extensions></trkpt>
   <trkpt lat="59.0647944549" lon="30.0350803812"><ele>5.35</ele><time>2026-04-20T20:07:11.639Z</time><hdop>4.875</hdop><vdop>5.0</vdop><extensions><gom:speed>0.93</gom:speed></extensions></trkpt>
   <trkpt lat="59.0647872465" lon="30.0350769446"><ele>5.402</ele><time>2026-04-20T20:07:12.418Z</time><hdop>4.875</hdop><vdop>5.0</vdop><extensions><gom:speed>0.891</gom:speed></extensions></trkpt>
   <trkpt lat="59.0647816306" lon="30.035076274"><ele>5.529</ele><time>2026-04-20T20:07:13.075Z</time><hdop>4.875</hdop><vdop>5.125</vdop><extensions><gom:speed>0.877</gom:speed></extensions></trkpt>
   <trkpt lat="59.0647724524" lon="30.035076274"><ele>5.446</ele><time>2026-04-20T20:07:14.076Z</time><hdop>4.75</hdop><vdop>5.125</vdop><extensions><gom:speed>0.828</gom:speed></extensions></trkpt>
   <trkpt lat="59.064765244" lon="30.0350751844"><ele>5.397</ele><time>2026-04-20T20:07:15.015Z</time><hdop>4.75</hdop><vdop>5.125</vdop><extensions><gom:speed>0.801</gom:speed></extensions></trkpt>
   <trkpt lat="59.0647584546" lon="30.0350704905"><ele>5.511</ele><time>2026-04-20T20:07:15.943Z</time><hdop>4.625</hdop><vdop>5.0</vdop><extensions><gom:speed>0.767</gom:speed></extensions></trkpt>
   <trkpt lat="59.0647519168" lon="30.0350668863"><ele>5.942</ele><time>2026-04-20T20:07:17.075Z</time><hdop>4.5</hdop><vdop>4.875</vdop><extensions><gom:speed>0.645</gom:speed></extensions></trkpt>
   <trkpt lat="59.0647478515" lon="30.0350655452"><ele>5.898</ele><time>2026-04-20T20:07:18.076Z</time><hdop>4.375</hdop><vdop>4.75</vdop><extensions><gom:speed>0.532</gom:speed></extensions></trkpt>
   <trkpt lat="59.0647437444" lon="30.0350627792"><ele>5.872</ele><time>2026-04-20T20:07:19.023Z</time><hdop>4.375</hdop><vdop>4.75</vdop><extensions><gom:speed>0.53</gom:speed></extensions></trkpt>
   <trkpt lat="59.0647376256" lon="30.0350583368"><ele>5.88</ele><time>2026-04-20T20:07:19.939Z</time><hdop>4.375</hdop><vdop>4.625</vdop><extensions><gom:speed>0.506</gom:speed></extensions></trkpt>
   <trkpt lat="59.0647336442" lon="30.0350546487"><ele>5.844</ele><time>2026-04-20T20:07:20.838Z</time><hdop>4.25</hdop><vdop>4.875</vdop><extensions><gom:speed>0.47</gom:speed></extensions></trkpt>
   <trkpt lat="59.0647297466" lon="30.0350505416"><ele>6.047</ele><time>2026-04-20T20:07:21.638Z</time><hdop>4.25</hdop><vdop>4.875</vdop><extensions><gom:speed>0.458</gom:speed></extensions></trkpt>
   <trkpt lat="59.0647270225" lon="30.0350467697"><ele>6.123</ele><time>2026-04-20T20:07:22.418Z</time><hdop>4.25</hdop><vdop>4.75</vdop><extensions><gom:speed>0.471</gom:speed></extensions></trkpt>
   <trkpt lat="59.0647238374" lon="30.0350419082"><ele>6.102</ele><time>2026-04-20T20:07:23.076Z</time><hdop>4.25</hdop><vdop>4.5</vdop><extensions><gom:speed>0.499</gom:speed></extensions></trkpt>
   <trkpt lat="59.0647176348" lon="30.0350354542"><ele>6.281</ele><time>2026-04-20T20:07:24.075Z</time><hdop>4.25</hdop><vdop>4.375</vdop><extensions><gom:speed>0.518</gom:speed></extensions></trkpt>
   <trkpt lat="59.0647115579" lon="30.0350326043"><ele>6.388</ele><time>2026-04-20T20:07:24.935Z</time><hdop>4.375</hdop><vdop>4.375</vdop><extensions><gom:speed>0.597</gom:speed></extensions></trkpt>
   <trkpt lat="59.0647088338" lon="30.0350302574"><ele>6.339</ele><time>2026-04-20T20:07:25.444Z</time><hdop>4.375</hdop><vdop>4.0</vdop><extensions><gom:speed>0.591</gom:speed></extensions></trkpt>
   <trkpt lat="59.0647023378" lon="30.035024893"><ele>6.437</ele><time>2026-04-20T20:07:26.075Z</time><hdop>4.375</hdop><vdop>3.875</vdop><extensions><gom:speed>0.588</gom:speed></extensions></trkpt>
   <trkpt lat="59.0646987336" lon="30.0350193609"><ele>6.497</ele><time>2026-04-20T20:07:26.880Z</time><hdop>4.5</hdop><vdop>3.875</vdop><extensions><gom:speed>0.598</gom:speed></extensions></trkpt>
   <trkpt lat="59.0646943331" lon="30.0350093864"><ele>6.624</ele><time>2026-04-20T20:07:27.660Z</time><hdop>4.5</hdop><vdop>3.75</vdop><extensions><gom:speed>0.651</gom:speed></extensions></trkpt>
   <trkpt lat="59.0646880467" lon="30.0349979032"><ele>6.719</ele><time>2026-04-20T20:07:28.579Z</time><hdop>4.5</hdop><vdop>3.875</vdop><extensions><gom:speed>0.705</gom:speed></extensions></trkpt>
   <trkpt lat="59.0646845263" lon="30.034992455"><ele>6.587</ele><time>2026-04-20T20:07:29.075Z</time><hdop>4.5</hdop><vdop>4.0</vdop><extensions><gom:speed>0.701</gom:speed></extensions></trkpt>
   <trkpt lat="59.0646779465" lon="30.0349865038"><ele>6.509</ele><time>2026-04-20T20:07:30.020Z</time><hdop>4.5</hdop><vdop>4.0</vdop><extensions><gom:speed>0.694</gom:speed></extensions></trkpt>
   <trkpt lat="59.0646720372" lon="30.0349844084"><ele>6.361</ele><time>2026-04-20T20:07:30.640Z</time><hdop>4.625</hdop><vdop>4.125</vdop><extensions><gom:speed>0.797</gom:speed></extensions></trkpt>
   <trkpt lat="59.0646654574" lon="30.0349830673"><ele>6.154</ele><time>2026-04-20T20:07:31.384Z</time><hdop>4.625</hdop><vdop>4.0</vdop><extensions><gom:speed>0.8</gom:speed></extensions></trkpt>
   <trkpt lat="59.0646567403" lon="30.0349835702"><ele>6.03</ele><time>2026-04-20T20:07:32.044Z</time><hdop>4.75</hdop><vdop>4.0</vdop><extensions><gom:speed>0.831</gom:speed></extensions></trkpt>
   <trkpt lat="59.0646515435" lon="30.0349828158"><ele>5.944</ele><time>2026-04-20T20:07:32.922Z</time><hdop>4.875</hdop><vdop>4.0</vdop><extensions><gom:speed>0.822</gom:speed></extensions></trkpt>
   <trkpt lat="59.0646453409" lon="30.0349821453"><ele>5.982</ele><time>2026-04-20T20:07:33.721Z</time><hdop>4.875</hdop><vdop>4.0</vdop><extensions><gom:speed>0.802</gom:speed></extensions></trkpt>
   <trkpt lat="59.0646384258" lon="30.0349820614"><ele>5.325</ele><time>2026-04-20T20:07:34.638Z</time><hdop>5.0</hdop><vdop>4.0</vdop><extensions><gom:speed>0.784</gom:speed></extensions></trkpt>
   <trkpt lat="59.064631846" lon="30.0349788763"><ele>5.213</ele><time>2026-04-20T20:07:35.556Z</time><hdop>5.0</hdop><vdop>4.125</vdop><extensions><gom:speed>0.762</gom:speed></extensions></trkpt>
   <trkpt lat="59.0646282418" lon="30.0349758588"><ele>4.896</ele><time>2026-04-20T20:07:36.075Z</time><hdop>5.0</hdop><vdop>4.125</vdop><extensions><gom:speed>0.765</gom:speed></extensions></trkpt>
   <trkpt lat="59.0646214524" lon="30.0349725899"><ele>4.7</ele><time>2026-04-20T20:07:37.076Z</time><hdop>4.875</hdop><vdop>4.125</vdop><extensions><gom:speed>0.713</gom:speed></extensions></trkpt>
   <trkpt lat="59.0646180578" lon="30.0349725061"><ele>4.582</ele><time>2026-04-20T20:07:37.881Z</time><hdop>5.0</hdop><vdop>4.125</vdop><extensions><gom:speed>0.723</gom:speed></extensions></trkpt>
   <trkpt lat="59.0646074547" lon="30.0349720032"><ele>4.544</ele><time>2026-04-20T20:07:38.794Z</time><hdop>5.0</hdop><vdop>4.375</vdop><extensions><gom:speed>0.755</gom:speed></extensions></trkpt>
   <trkpt lat="59.0645997433" lon="30.034967896"><ele>4.785</ele><time>2026-04-20T20:07:39.513Z</time><hdop>5.0</hdop><vdop>4.5</vdop><extensions><gom:speed>0.833</gom:speed></extensions></trkpt>
   <trkpt lat="59.0645936245" lon="30.0349656329"><ele>4.872</ele><time>2026-04-20T20:07:40.075Z</time><hdop>5.0</hdop><vdop>4.375</vdop><extensions><gom:speed>0.848</gom:speed></extensions></trkpt>
   <trkpt lat="59.064585536" lon="30.0349624478"><ele>4.924</ele><time>2026-04-20T20:07:40.917Z</time><hdop>5.0</hdop><vdop>4.375</vdop><extensions><gom:speed>0.887</gom:speed></extensions></trkpt>
   <trkpt lat="59.0645778246" lon="30.0349596818"><ele>5.049</ele><time>2026-04-20T20:07:41.598Z</time><hdop>5.0</hdop><vdop>4.375</vdop><extensions><gom:speed>0.899</gom:speed></extensions></trkpt>
   <trkpt lat="59.0645721249" lon="30.0349578377"><ele>5.044</ele><time>2026-04-20T20:07:42.075Z</time><hdop>5.0</hdop><vdop>4.5</vdop><extensions><gom:speed>0.912</gom:speed></extensions></trkpt>
   <trkpt lat="59.0645631563" lon="30.034957251"><ele>5.042</ele><time>2026-04-20T20:07:42.918Z</time><hdop>5.0</hdop><vdop>4.5</vdop><extensions><gom:speed>0.936</gom:speed></extensions></trkpt>
   <trkpt lat="59.0645555288" lon="30.0349575863"><ele>5.135</ele><time>2026-04-20T20:07:43.522Z</time><hdop>5.0</hdop><vdop>4.5</vdop><extensions><gom:speed>0.988</gom:speed></extensions></trkpt>
   <trkpt lat="59.0645488232" lon="30.0349591788"><ele>4.717</ele><time>2026-04-20T20:07:44.075Z</time><hdop>5.0</hdop><vdop>4.25</vdop><extensions><gom:speed>0.995</gom:speed></extensions></trkpt>
   <trkpt lat="59.0645389326" lon="30.0349613581"><ele>4.467</ele><time>2026-04-20T20:07:45.023Z</time><hdop>5.0</hdop><vdop>4.25</vdop><extensions><gom:speed>0.968</gom:speed></extensions></trkpt>
   <trkpt lat="59.0645307183" lon="30.0349570834"><ele>4.457</ele><time>2026-04-20T20:07:45.783Z</time><hdop>4.875</hdop><vdop>4.125</vdop><extensions><gom:speed>0.914</gom:speed></extensions></trkpt>
   <trkpt lat="59.0645229232" lon="30.0349510484"><ele>4.196</ele><time>2026-04-20T20:07:46.603Z</time><hdop>4.875</hdop><vdop>4.0</vdop><extensions><gom:speed>0.845</gom:speed></extensions></trkpt>
   <trkpt lat="59.0645190256" lon="30.0349464383"><ele>4.014</ele><time>2026-04-20T20:07:47.075Z</time><hdop>4.875</hdop><vdop>3.875</vdop><extensions><gom:speed>0.834</gom:speed></extensions></trkpt>
   <trkpt lat="59.0645127392" lon="30.0349380564"><ele>3.833</ele><time>2026-04-20T20:07:48.075Z</time><hdop>4.75</hdop><vdop>3.875</vdop><extensions><gom:speed>0.739</gom:speed></extensions></trkpt>
   <trkpt lat="59.0645073328" lon="30.0349326082"><ele>3.802</ele><time>2026-04-20T20:07:49.075Z</time><hdop>4.75</hdop><vdop>4.0</vdop><extensions><gom:speed>0.628</gom:speed></extensions></trkpt>
   <trkpt lat="59.0645035191" lon="30.0349300936"><ele>3.784</ele><time>2026-04-20T20:07:49.998Z</time><hdop>4.625</hdop><vdop>4.0</vdop><extensions><gom:speed>0.531</gom:speed></extensions></trkpt>
   <trkpt lat="59.0644976517" lon="30.0349305127"><ele>3.761</ele><time>2026-04-20T20:07:50.857Z</time><hdop>4.625</hdop><vdop>4.0</vdop><extensions><gom:speed>0.535</gom:speed></extensions></trkpt>
   <trkpt lat="59.0644930417" lon="30.034935039"><ele>3.604</ele><time>2026-04-20T20:07:51.617Z</time><hdop>4.625</hdop><vdop>3.75</vdop><extensions><gom:speed>0.616</gom:speed></extensions></trkpt>
   <trkpt lat="59.0644894375" lon="30.0349381403"><ele>3.628</ele><time>2026-04-20T20:07:52.075Z</time><hdop>4.625</hdop><vdop>3.75</vdop><extensions><gom:speed>0.635</gom:speed></extensions></trkpt>
   <trkpt lat="59.0644806365" lon="30.0349414092"><ele>3.729</ele><time>2026-04-20T20:07:53.075Z</time><hdop>4.5</hdop><vdop>3.5</vdop><extensions><gom:speed>0.703</gom:speed></extensions></trkpt>
   <trkpt lat="59.0644731347" lon="30.0349412416"><ele>3.79</ele><time>2026-04-20T20:07:53.837Z</time><hdop>4.5</hdop><vdop>3.5</vdop><extensions><gom:speed>0.784</gom:speed></extensions></trkpt>
   <trkpt lat="59.0644644175" lon="30.0349409901"><ele>3.952</ele><time>2026-04-20T20:07:54.578Z</time><hdop>4.625</hdop><vdop>3.375</vdop><extensions><gom:speed>0.865</gom:speed></extensions></trkpt>
   <trkpt lat="59.0644591369" lon="30.0349401519"><ele>3.9</ele><time>2026-04-20T20:07:55.075Z</time><hdop>4.625</hdop><vdop>3.25</vdop><extensions><gom:speed>0.854</gom:speed></extensions></trkpt>
   <trkpt lat="59.0644494558" lon="30.034939649"><ele>4.194</ele><time>2026-04-20T20:07:56.075Z</time><hdop>4.625</hdop><vdop>3.25</vdop><extensions><gom:speed>0.874</gom:speed></extensions></trkpt>
   <trkpt lat="59.0644384336" lon="30.0349415768"><ele>4.37</ele><time>2026-04-20T20:07:57.015Z</time><hdop>4.625</hdop><vdop>3.25</vdop><extensions><gom:speed>0.888</gom:speed></extensions></trkpt>
   <trkpt lat="59.0644330273" lon="30.0349404034"><ele>4.142</ele><time>2026-04-20T20:07:57.678Z</time><hdop>4.625</hdop><vdop>3.125</vdop><extensions><gom:speed>0.926</gom:speed></extensions></trkpt>
   <trkpt lat="59.0644239329" lon="30.0349358772"><ele>4.149</ele><time>2026-04-20T20:07:58.634Z</time><hdop>4.75</hdop><vdop>3.0</vdop><extensions><gom:speed>0.872</gom:speed></extensions></trkpt>
   <trkpt lat="59.0644176465" lon="30.0349331111"><ele>4.183</ele><time>2026-04-20T20:07:59.337Z</time><hdop>4.75</hdop><vdop>2.75</vdop><extensions><gom:speed>0.845</gom:speed></extensions></trkpt>
   <trkpt lat="59.064412324" lon="30.034934536"><ele>4.204</ele><time>2026-04-20T20:08:00.017Z</time><hdop>4.75</hdop><vdop>2.75</vdop><extensions><gom:speed>0.789</gom:speed></extensions></trkpt>
   <trkpt lat="59.0644061213" lon="30.0349342008"><ele>4.271</ele><time>2026-04-20T20:08:00.817Z</time><hdop>4.75</hdop><vdop>2.75</vdop><extensions><gom:speed>0.764</gom:speed></extensions></trkpt>
   <trkpt lat="59.0644010503" lon="30.0349314347"><ele>4.377</ele><time>2026-04-20T20:08:01.477Z</time><hdop>4.75</hdop><vdop>2.75</vdop><extensions><gom:speed>0.759</gom:speed></extensions></trkpt>
   <trkpt lat="59.0643966498" lon="30.0349275791"><ele>4.196</ele><time>2026-04-20T20:08:02.075Z</time><hdop>4.75</hdop><vdop>2.625</vdop><extensions><gom:speed>0.745</gom:speed></extensions></trkpt>
   <trkpt lat="59.0643892318" lon="30.0349191972"><ele>3.875</ele><time>2026-04-20T20:08:03.075Z</time><hdop>4.75</hdop><vdop>2.625</vdop><extensions><gom:speed>0.66</gom:speed></extensions></trkpt>
   <trkpt lat="59.0643853342" lon="30.0349179399"><ele>3.684</ele><time>2026-04-20T20:08:03.859Z</time><hdop>4.75</hdop><vdop>2.625</vdop><extensions><gom:speed>0.665</gom:speed></extensions></trkpt>
   <trkpt lat="59.0643810175" lon="30.034917437"><ele>3.404</ele><time>2026-04-20T20:08:04.597Z</time><hdop>4.75</hdop><vdop>2.75</vdop><extensions><gom:speed>0.664</gom:speed></extensions></trkpt>
   <trkpt lat="59.064378042" lon="30.034918359"><ele>3.215</ele><time>2026-04-20T20:08:05.075Z</time><hdop>4.625</hdop><vdop>2.75</vdop><extensions><gom:speed>0.679</gom:speed></extensions></trkpt>
   <trkpt lat="59.064371546" lon="30.0349236396"><ele>3.102</ele><time>2026-04-20T20:08:06.037Z</time><hdop>4.625</hdop><vdop>2.75</vdop><extensions><gom:speed>0.703</gom:speed></extensions></trkpt>
   <trkpt lat="59.0643652177" lon="30.0349303451"><ele>2.673</ele><time>2026-04-20T20:08:06.837Z</time><hdop>4.75</hdop><vdop>2.625</vdop><extensions><gom:speed>0.748</gom:speed></extensions></trkpt>
   <trkpt lat="59.0643605238" lon="30.0349389785"><ele>2.362</ele><time>2026-04-20T20:08:07.597Z</time><hdop>4.75</hdop><vdop>2.625</vdop><extensions><gom:speed>0.78</gom:speed></extensions></trkpt>
   <trkpt lat="59.0643570453" lon="30.034943337"><ele>2.611</ele><time>2026-04-20T20:08:08.076Z</time><hdop>4.75</hdop><vdop>2.75</vdop><extensions><gom:speed>0.793</gom:speed></extensions></trkpt>
   <trkpt lat="59.0643526448" lon="30.034945684"><ele>2.76</ele><time>2026-04-20T20:08:08.798Z</time><hdop>4.75</hdop><vdop>2.75</vdop><extensions><gom:speed>0.792</gom:speed></extensions></trkpt>
   <trkpt lat="59.0643409521" lon="30.0349388946"><ele>2.625</ele><time>2026-04-20T20:08:09.978Z</time><hdop>4.75</hdop><vdop>2.75</vdop><extensions><gom:speed>0.781</gom:speed></extensions></trkpt>
   <trkpt lat="59.0643350428" lon="30.0349293393"><ele>2.834</ele><time>2026-04-20T20:08:10.834Z</time><hdop>4.75</hdop><vdop>2.75</vdop><extensions><gom:speed>0.79</gom:speed></extensions></trkpt>
   <trkpt lat="59.0643271219" lon="30.0349230528"><ele>2.909</ele><time>2026-04-20T20:08:11.655Z</time><hdop>4.75</hdop><vdop>2.75</vdop><extensions><gom:speed>0.824</gom:speed></extensions></trkpt>
   <trkpt lat="59.0643198297" lon="30.0349195324"><ele>2.815</ele><time>2026-04-20T20:08:12.336Z</time><hdop>4.75</hdop><vdop>2.625</vdop><extensions><gom:speed>0.835</gom:speed></extensions></trkpt>
   <trkpt lat="59.0643129565" lon="30.0349161797"><ele>2.81</ele><time>2026-04-20T20:08:13.075Z</time><hdop>4.75</hdop><vdop>2.625</vdop><extensions><gom:speed>0.827</gom:speed></extensions></trkpt>
   <trkpt lat="59.064305329" lon="30.0349119049"><ele>2.808</ele><time>2026-04-20T20:08:13.895Z</time><hdop>4.75</hdop><vdop>2.625</vdop><extensions><gom:speed>0.867</gom:speed></extensions></trkpt>
   <trkpt lat="59.06429745" lon="30.0349049479"><ele>2.656</ele><time>2026-04-20T20:08:14.655Z</time><hdop>4.75</hdop><vdop>2.625</vdop><extensions><gom:speed>0.862</gom:speed></extensions></trkpt>
   <trkpt lat="59.0642901577" lon="30.0348941353"><ele>2.641</ele><time>2026-04-20T20:08:15.299Z</time><hdop>4.75</hdop><vdop>2.625</vdop><extensions><gom:speed>0.872</gom:speed></extensions></trkpt>
   <trkpt lat="59.0642854219" lon="30.0348853343"><ele>2.633</ele><time>2026-04-20T20:08:16.058Z</time><hdop>4.75</hdop><vdop>2.625</vdop><extensions><gom:speed>0.895</gom:speed></extensions></trkpt>
   <trkpt lat="59.0642800575" lon="30.0348732643"><ele>2.649</ele><time>2026-04-20T20:08:16.817Z</time><hdop>4.625</hdop><vdop>2.625</vdop><extensions><gom:speed>0.913</gom:speed></extensions></trkpt>
   <trkpt lat="59.064275657" lon="30.0348593504"><ele>2.629</ele><time>2026-04-20T20:08:17.557Z</time><hdop>4.625</hdop><vdop>2.625</vdop><extensions><gom:speed>0.925</gom:speed></extensions></trkpt>
   <trkpt lat="59.0642725557" lon="30.0348493759"><ele>2.467</ele><time>2026-04-20T20:08:18.075Z</time><hdop>4.625</hdop><vdop>2.75</vdop><extensions><gom:speed>0.931</gom:speed></extensions></trkpt>
   <trkpt lat="59.0642646348" lon="30.0348402396"><ele>2.371</ele><time>2026-04-20T20:08:19.098Z</time><hdop>4.625</hdop><vdop>2.75</vdop><extensions><gom:speed>0.877</gom:speed></extensions></trkpt>
   <trkpt lat="59.0642570492" lon="30.0348430895"><ele>2.244</ele><time>2026-04-20T20:08:19.937Z</time><hdop>4.625</hdop><vdop>2.75</vdop><extensions><gom:speed>0.878</gom:speed></extensions></trkpt>
   <trkpt lat="59.0642507209" lon="30.0348483701"><ele>2.004</ele><time>2026-04-20T20:08:20.775Z</time><hdop>4.5</hdop><vdop>2.625</vdop><extensions><gom:speed>0.823</gom:speed></extensions></trkpt>
   <trkpt lat="59.0642443506" lon="30.0348568358"><ele>1.848</ele><time>2026-04-20T20:08:21.495Z</time><hdop>4.5</hdop><vdop>2.625</vdop><extensions><gom:speed>0.836</gom:speed></extensions></trkpt>
   <trkpt lat="59.064241836" lon="30.0348596018"><ele>1.72</ele><time>2026-04-20T20:08:22.075Z</time><hdop>4.5</hdop><vdop>2.625</vdop><extensions><gom:speed>0.809</gom:speed></extensions></trkpt>
   <trkpt lat="59.0642362202" lon="30.0348689896"><ele>1.644</ele><time>2026-04-20T20:08:23.094Z</time><hdop>4.5</hdop><vdop>2.625</vdop><extensions><gom:speed>0.83</gom:speed></extensions></trkpt>
   <trkpt lat="59.0642315263" lon="30.0348767009"><ele>1.42</ele><time>2026-04-20T20:08:23.915Z</time><hdop>4.5</hdop><vdop>2.625</vdop><extensions><gom:speed>0.831</gom:speed></extensions></trkpt>
   <trkpt lat="59.0642271258" lon="30.0348842446"><ele>1.084</ele><time>2026-04-20T20:08:24.673Z</time><hdop>4.375</hdop><vdop>2.75</vdop><extensions><gom:speed>0.839</gom:speed></extensions></trkpt>
   <trkpt lat="59.0642222224" lon="30.0348940515"><ele>1.094</ele><time>2026-04-20T20:08:25.603Z</time><hdop>4.5</hdop><vdop>2.75</vdop><extensions><gom:speed>0.805</gom:speed></extensions></trkpt>
   <trkpt lat="59.0642197497" lon="30.0348967337"><ele>1.242</ele><time>2026-04-20T20:08:26.075Z</time><hdop>4.5</hdop><vdop>2.875</vdop><extensions><gom:speed>0.79</gom:speed></extensions></trkpt>
   <trkpt lat="59.0642133376" lon="30.0349017628"><ele>1.189</ele><time>2026-04-20T20:08:27.075Z</time><hdop>4.5</hdop><vdop>2.875</vdop><extensions><gom:speed>0.791</gom:speed></extensions></trkpt>
   <trkpt lat="59.0642065482" lon="30.0349041936"><ele>1.158</ele><time>2026-04-20T20:08:27.922Z</time><hdop>4.5</hdop><vdop>2.875</vdop><extensions><gom:speed>0.718</gom:speed></extensions></trkpt>
   <trkpt lat="59.0642040337" lon="30.0349051156"><ele>0.988</ele><time>2026-04-20T20:08:28.859Z</time><hdop>4.625</hdop><vdop>2.875</vdop><extensions><gom:speed>0.641</gom:speed></extensions></trkpt>
   <trkpt lat="59.064200639" lon="30.0349065405"><ele>0.923</ele><time>2026-04-20T20:08:29.897Z</time><hdop>4.625</hdop><vdop>2.875</vdop><extensions><gom:speed>0.585</gom:speed></extensions></trkpt>
   <trkpt lat="59.0641971186" lon="30.0349046127"><ele>0.992</ele><time>2026-04-20T20:08:31.081Z</time><hdop>4.625</hdop><vdop>3.0</vdop><extensions><gom:speed>0.501</gom:speed></extensions></trkpt>
   <trkpt lat="59.0641946459" lon="30.0349048641"><ele>1.088</ele><time>2026-04-20T20:08:32.058Z</time><hdop>4.625</hdop><vdop>3.125</vdop><extensions><gom:speed>0.443</gom:speed></extensions></trkpt>
   <trkpt lat="59.0641923409" lon="30.0349058699"><ele>1.021</ele><time>2026-04-20T20:08:33.093Z</time><hdop>4.625</hdop><vdop>3.375</vdop><extensions><gom:speed>0.458</gom:speed></extensions></trkpt>
   <trkpt lat="59.0641873537" lon="30.0349036906"><ele>1.223</ele><time>2026-04-20T20:08:33.913Z</time><hdop>4.625</hdop><vdop>3.625</vdop><extensions><gom:speed>0.501</gom:speed></extensions></trkpt>
   <trkpt lat="59.0641848391" lon="30.0349038583"><ele>1.1</ele><time>2026-04-20T20:08:34.744Z</time><hdop>4.625</hdop><vdop>4.0</vdop><extensions><gom:speed>0.493</gom:speed></extensions></trkpt>
   <trkpt lat="59.0641809415" lon="30.0349065405"><ele>1.644</ele><time>2026-04-20T20:08:36.042Z</time><hdop>4.625</hdop><vdop>4.375</vdop><extensions><gom:speed>0.409</gom:speed></extensions></trkpt>
   <trkpt lat="59.0641803548" lon="30.0349075463"><ele>1.863</ele><time>2026-04-20T20:08:37.076Z</time><hdop>4.625</hdop><vdop>4.75</vdop><extensions><gom:speed>0.295</gom:speed></extensions></trkpt>
   <trkpt lat="59.0641796423" lon="30.0349089712"><ele>1.994</ele><time>2026-04-20T20:08:37.764Z</time><hdop>4.625</hdop><vdop>4.75</vdop><extensions><gom:speed>0.293</gom:speed></extensions></trkpt>
   <trkpt lat="59.0641780498" lon="30.0349105638"><ele>2.299</ele><time>2026-04-20T20:08:38.582Z</time><hdop>4.625</hdop><vdop>5.0</vdop><extensions><gom:speed>0.272</gom:speed></extensions></trkpt>
   <trkpt lat="59.0641768344" lon="30.0349116535"><ele>2.731</ele><time>2026-04-20T20:08:39.075Z</time><hdop>4.625</hdop><vdop>5.0</vdop><extensions><gom:speed>0.282</gom:speed></extensions></trkpt>
   <trkpt lat="59.0641768344" lon="30.0349117373"><ele>2.989</ele><time>2026-04-20T20:08:39.714Z</time><hdop>4.625</hdop><vdop>5.0</vdop><extensions><gom:speed>0.247</gom:speed></extensions></trkpt>
   <trkpt lat="59.0641753256" lon="30.0349134975"><ele>3.345</ele><time>2026-04-20T20:08:40.863Z</time><hdop>4.75</hdop><vdop>5.25</vdop><extensions><gom:speed>0.178</gom:speed></extensions></trkpt>
   <trkpt lat="59.0641731463" lon="30.0349140004"><ele>3.384</ele><time>2026-04-20T20:08:41.937Z</time><hdop>4.75</hdop><vdop>5.25</vdop><extensions><gom:speed>0.191</gom:speed></extensions></trkpt>
   <trkpt lat="59.0641698355" lon="30.0349146709"><ele>3.436</ele><time>2026-04-20T20:08:43.075Z</time><hdop>4.75</hdop><vdop>5.75</vdop><extensions><gom:speed>0.2</gom:speed></extensions></trkpt>
   <trkpt lat="59.0641678238" lon="30.0349135813"><ele>3.84</ele><time>2026-04-20T20:08:43.979Z</time><hdop>4.75</hdop><vdop>5.5</vdop><extensions><gom:speed>0.175</gom:speed></extensions></trkpt>
   <trkpt lat="59.064166357" lon="30.0349119049"><ele>4.371</ele><time>2026-04-20T20:08:45.075Z</time><hdop>4.75</hdop><vdop>5.25</vdop><extensions><gom:speed>0.148</gom:speed></extensions></trkpt>
   <trkpt lat="59.064166357" lon="30.0349115696"><ele>4.661</ele><time>2026-04-20T20:08:45.992Z</time><hdop>4.75</hdop><vdop>5.375</vdop><extensions><gom:speed>0.11</gom:speed></extensions></trkpt>
   <trkpt lat="59.0641651416" lon="30.0349091389"><ele>5.06</ele><time>2026-04-20T20:08:47.075Z</time><hdop>4.875</hdop><vdop>5.375</vdop><extensions><gom:speed>0.125</gom:speed></extensions></trkpt>
   <trkpt lat="59.0641650578" lon="30.0349090551"><ele>5.467</ele><time>2026-04-20T20:08:48.005Z</time><hdop>4.875</hdop><vdop>5.375</vdop><extensions><gom:speed>0.096</gom:speed></extensions></trkpt>
   <trkpt lat="59.0641647225" lon="30.0349089712"><ele>5.71</ele><time>2026-04-20T20:08:49.036Z</time><hdop>5.0</hdop><vdop>5.375</vdop><extensions><gom:speed>0.088</gom:speed></extensions></trkpt>
   <trkpt lat="59.064161747" lon="30.0349060376"><ele>6.522</ele><time>2026-04-20T20:08:49.854Z</time><hdop>5.0</hdop><vdop>5.125</vdop><extensions><gom:speed>0.136</gom:speed></extensions></trkpt>
   <trkpt lat="59.0641573465" lon="30.0349020981"><ele>7.454</ele><time>2026-04-20T20:08:50.695Z</time><hdop>4.875</hdop><vdop>4.875</vdop><extensions><gom:speed>0.199</gom:speed></extensions></trkpt>
   <trkpt lat="59.064152443" lon="30.0348971528"><ele>8.15</ele><time>2026-04-20T20:08:51.544Z</time><hdop>4.875</hdop><vdop>4.875</vdop><extensions><gom:speed>0.245</gom:speed></extensions></trkpt>
   <trkpt lat="59.0641493417" lon="30.0348925427"><ele>8.405</ele><time>2026-04-20T20:08:52.075Z</time><hdop>4.75</hdop><vdop>4.75</vdop><extensions><gom:speed>0.254</gom:speed></extensions></trkpt>
   <trkpt lat="59.0641465338" lon="30.0348882679"><ele>8.558</ele><time>2026-04-20T20:08:52.817Z</time><hdop>4.75</hdop><vdop>4.75</vdop><extensions><gom:speed>0.283</gom:speed></extensions></trkpt>
   <trkpt lat="59.0641406246" lon="30.0348819815"><ele>8.551</ele><time>2026-04-20T20:08:53.864Z</time><hdop>4.75</hdop><vdop>5.0</vdop><extensions><gom:speed>0.342</gom:speed></extensions></trkpt>
   <trkpt lat="59.0641366432" lon="30.034878042"><ele>8.624</ele><time>2026-04-20T20:08:54.553Z</time><hdop>4.625</hdop><vdop>5.0</vdop><extensions><gom:speed>0.335</gom:speed></extensions></trkpt>
   <trkpt lat="59.064133458" lon="30.0348746054"><ele>8.964</ele><time>2026-04-20T20:08:55.075Z</time><hdop>4.625</hdop><vdop>5.125</vdop><extensions><gom:speed>0.343</gom:speed></extensions></trkpt>
   <trkpt lat="59.0641312368" lon="30.0348727614"><ele>9.368</ele><time>2026-04-20T20:08:55.941Z</time><hdop>4.625</hdop><vdop>5.0</vdop><extensions><gom:speed>0.252</gom:speed></extensions></trkpt>
   <trkpt lat="59.0641290575" lon="30.0348713365"><ele>9.61</ele><time>2026-04-20T20:08:57.080Z</time><hdop>4.625</hdop><vdop>5.0</vdop><extensions><gom:speed>0.273</gom:speed></extensions></trkpt>
   <trkpt lat="59.0641253276" lon="30.0348668103"><ele>9.831</ele><time>2026-04-20T20:08:57.722Z</time><hdop>4.75</hdop><vdop>5.125</vdop><extensions><gom:speed>0.285</gom:speed></extensions></trkpt>
   <trkpt lat="59.0641211366" lon="30.0348608591"><ele>9.861</ele><time>2026-04-20T20:08:58.429Z</time><hdop>4.75</hdop><vdop>5.25</vdop><extensions><gom:speed>0.328</gom:speed></extensions></trkpt>
   <trkpt lat="59.0641173229" lon="30.0348570873"><ele>9.328</ele><time>2026-04-20T20:08:59.021Z</time><hdop>4.75</hdop><vdop>5.625</vdop><extensions><gom:speed>0.353</gom:speed></extensions></trkpt>
   <trkpt lat="59.0641159399" lon="30.034856752"><ele>9.01</ele><time>2026-04-20T20:08:59.697Z</time><hdop>4.875</hdop><vdop>5.625</vdop><extensions><gom:speed>0.328</gom:speed></extensions></trkpt>
   <trkpt lat="59.0641122518" lon="30.034853483"><ele>8.733</ele><time>2026-04-20T20:09:00.260Z</time><hdop>4.875</hdop><vdop>5.625</vdop><extensions><gom:speed>0.354</gom:speed></extensions></trkpt>
   <trkpt lat="59.064108941" lon="30.0348519743"><ele>8.569</ele><time>2026-04-20T20:09:00.900Z</time><hdop>4.875</hdop><vdop>5.625</vdop><extensions><gom:speed>0.405</gom:speed></extensions></trkpt>
   <trkpt lat="59.0641025288" lon="30.0348447659"><ele>8.349</ele><time>2026-04-20T20:09:01.543Z</time><hdop>5.0</hdop><vdop>5.875</vdop><extensions><gom:speed>0.507</gom:speed></extensions></trkpt>
   <trkpt lat="59.0640976254" lon="30.0348388147"><ele>7.945</ele><time>2026-04-20T20:09:02.075Z</time><hdop>5.0</hdop><vdop>5.75</vdop><extensions><gom:speed>0.546</gom:speed></extensions></trkpt>
   <trkpt lat="59.0640895369" lon="30.0348318577"><ele>7.704</ele><time>2026-04-20T20:09:02.875Z</time><hdop>5.125</hdop><vdop>5.75</vdop><extensions><gom:speed>0.706</gom:speed></extensions></trkpt>
   <trkpt lat="59.0640794367" lon="30.0348205422"><ele>7.227</ele><time>2026-04-20T20:09:03.538Z</time><hdop>5.125</hdop><vdop>5.75</vdop><extensions><gom:speed>0.857</gom:speed></extensions></trkpt>
   <trkpt lat="59.0640732341" lon="30.0348120764"><ele>7.034</ele><time>2026-04-20T20:09:04.075Z</time><hdop>5.125</hdop><vdop>5.625</vdop><extensions><gom:speed>0.891</gom:speed></extensions></trkpt>
   <trkpt lat="59.0640690431" lon="30.0348078017"><ele>6.92</ele><time>2026-04-20T20:09:04.707Z</time><hdop>5.25</hdop><vdop>5.625</vdop><extensions><gom:speed>0.926</gom:speed></extensions></trkpt>
   <trkpt lat="59.0640564283" lon="30.0347954803"><ele>6.619</ele><time>2026-04-20T20:09:05.638Z</time><hdop>5.375</hdop><vdop>5.5</vdop><extensions><gom:speed>0.922</gom:speed></extensions></trkpt>
   <trkpt lat="59.0640502257" lon="30.0347901159"><ele>6.309</ele><time>2026-04-20T20:09:06.383Z</time><hdop>5.375</hdop><vdop>5.75</vdop><extensions><gom:speed>0.892</gom:speed></extensions></trkpt>
   <trkpt lat="59.064044526" lon="30.0347887748"><ele>6.075</ele><time>2026-04-20T20:09:07.076Z</time><hdop>5.375</hdop><vdop>6.0</vdop><extensions><gom:speed>0.884</gom:speed></extensions></trkpt>
   <trkpt lat="59.0640409218" lon="30.0347782974"><ele>5.688</ele><time>2026-04-20T20:09:08.023Z</time><hdop>5.5</hdop><vdop>6.25</vdop><extensions><gom:speed>0.726</gom:speed></extensions></trkpt>
   <trkpt lat="59.0640393293" lon="30.0347694126"><ele>5.456</ele><time>2026-04-20T20:09:08.955Z</time><hdop>5.625</hdop><vdop>6.25</vdop><extensions><gom:speed>0.645</gom:speed></extensions></trkpt>
   <trkpt lat="59.0640381558" lon="30.034759941"><ele>4.807</ele><time>2026-04-20T20:09:10.037Z</time><hdop>5.625</hdop><vdop>8.75</vdop><extensions><gom:speed>0.453</gom:speed></extensions></trkpt>
   <trkpt lat="59.064038533" lon="30.0347601086"><ele>4.42</ele><time>2026-04-20T20:09:10.867Z</time><hdop>5.625</hdop><vdop>8.75</vdop><extensions><gom:speed>0.326</gom:speed></extensions></trkpt>
   <trkpt lat="59.0640384492" lon="30.0347541575"><ele>3.778</ele><time>2026-04-20T20:09:12.051Z</time><hdop>5.75</hdop><vdop>7.75</vdop><extensions><gom:speed>0.109</gom:speed></extensions></trkpt>
   <trkpt lat="59.0640380301" lon="30.0347557501"><ele>3.146</ele><time>2026-04-20T20:09:12.999Z</time><hdop>5.625</hdop><vdop>7.5</vdop><extensions><gom:speed>0.091</gom:speed></extensions></trkpt>
   <trkpt lat="59.0640378205" lon="30.034753906"><ele>2.921</ele><time>2026-04-20T20:09:14.075Z</time><hdop>5.625</hdop><vdop>7.125</vdop><extensions><gom:speed>0.1</gom:speed></extensions></trkpt>
   <trkpt lat="59.0640367309" lon="30.0347535708"><ele>3.05</ele><time>2026-04-20T20:09:15.075Z</time><hdop>5.375</hdop><vdop>6.875</vdop><extensions><gom:speed>0.119</gom:speed></extensions></trkpt>
   <trkpt lat="59.0640369404" lon="30.0347527326"><ele>3.248</ele><time>2026-04-20T20:09:16.078Z</time><hdop>5.25</hdop><vdop>6.875</vdop><extensions><gom:speed>0.089</gom:speed></extensions></trkpt>
   <trkpt lat="59.0640339229" lon="30.0347497989"><ele>3.978</ele><time>2026-04-20T20:09:17.076Z</time><hdop>5.0</hdop><vdop>6.875</vdop><extensions><gom:speed>0.115</gom:speed></extensions></trkpt>
   <trkpt lat="59.0640311569" lon="30.0347461109"><ele>4.713</ele><time>2026-04-20T20:09:18.075Z</time><hdop>4.875</hdop><vdop>6.75</vdop><extensions><gom:speed>0.128</gom:speed></extensions></trkpt>
   <trkpt lat="59.0640277203" lon="30.0347422552"><ele>5.655</ele><time>2026-04-20T20:09:19.075Z</time><hdop>4.75</hdop><vdop>6.75</vdop><extensions><gom:speed>0.15</gom:speed></extensions></trkpt>
   <trkpt lat="59.0640267564" lon="30.0347415846"><ele>6.218</ele><time>2026-04-20T20:09:19.754Z</time><hdop>4.625</hdop><vdop>6.75</vdop><extensions><gom:speed>0.133</gom:speed></extensions></trkpt>
   <trkpt lat="59.0640199252" lon="30.0347365555"><ele>6.46</ele><time>2026-04-20T20:09:21.075Z</time><hdop>4.5</hdop><vdop>8.75</vdop><extensions><gom:speed>0.152</gom:speed></extensions></trkpt>
   <trkpt lat="59.0640180392" lon="30.0347358849"><ele>6.848</ele><time>2026-04-20T20:09:22.001Z</time><hdop>4.5</hdop><vdop>7.875</vdop><extensions><gom:speed>0.167</gom:speed></extensions></trkpt>
   <trkpt lat="59.0640171172" lon="30.034736304"><ele>7.079</ele><time>2026-04-20T20:09:22.834Z</time><hdop>4.5</hdop><vdop>7.875</vdop><extensions><gom:speed>0.144</gom:speed></extensions></trkpt>
   <trkpt lat="59.0640113337" lon="30.0347342924"><ele>6.758</ele><time>2026-04-20T20:09:23.901Z</time><hdop>4.5</hdop><vdop>7.25</vdop><extensions><gom:speed>0.21</gom:speed></extensions></trkpt>
   <trkpt lat="59.0640062207" lon="30.0347322807"><ele>6.86</ele><time>2026-04-20T20:09:25.075Z</time><hdop>4.5</hdop><vdop>6.0</vdop><extensions><gom:speed>0.217</gom:speed></extensions></trkpt>
   <trkpt lat="59.0640017364" lon="30.0347302691"><ele>7.141</ele><time>2026-04-20T20:09:26.075Z</time><hdop>4.5</hdop><vdop>8.125</vdop><extensions><gom:speed>0.21</gom:speed></extensions></trkpt>
   <trkpt lat="59.0639978388" lon="30.0347276707"><ele>8.054</ele><time>2026-04-20T20:09:27.075Z</time><hdop>4.625</hdop><vdop>7.125</vdop><extensions><gom:speed>0.182</gom:speed></extensions></trkpt>
   <trkpt lat="59.0639941508" lon="30.0347240665"><ele>9.133</ele><time>2026-04-20T20:09:28.075Z</time><hdop>4.75</hdop><vdop>6.5</vdop><extensions><gom:speed>0.133</gom:speed></extensions></trkpt>
   <trkpt lat="59.0639935222" lon="30.0347234797"><ele>9.777</ele><time>2026-04-20T20:09:28.540Z</time><hdop>4.75</hdop><vdop>6.5</vdop><extensions><gom:speed>0.069</gom:speed></extensions></trkpt>
   <trkpt lat="59.06399084" lon="30.0347209652"><ele>10.535</ele><time>2026-04-20T20:09:29.075Z</time><hdop>4.75</hdop><vdop>7.25</vdop><extensions><gom:speed>0.111</gom:speed></extensions></trkpt>
   <trkpt lat="59.0639891217" lon="30.0347202108"><ele>11.534</ele><time>2026-04-20T20:09:30.055Z</time><hdop>4.875</hdop><vdop>7.25</vdop><extensions><gom:speed>0.134</gom:speed></extensions></trkpt>
   <trkpt lat="59.0639852241" lon="30.0347194564"><ele>12.071</ele><time>2026-04-20T20:09:31.075Z</time><hdop>4.875</hdop><vdop>7.25</vdop><extensions><gom:speed>0.127</gom:speed></extensions></trkpt>
   <trkpt lat="59.0639804464" lon="30.0347169418"><ele>12.71</ele><time>2026-04-20T20:09:32.075Z</time><hdop>4.75</hdop><vdop>6.375</vdop><extensions><gom:speed>0.099</gom:speed></extensions></trkpt>
   <trkpt lat="59.0639787281" lon="30.034716858"><ele>13.092</ele><time>2026-04-20T20:09:32.864Z</time><hdop>4.75</hdop><vdop>6.375</vdop><extensions><gom:speed>0.127</gom:speed></extensions></trkpt>
   <trkpt lat="59.0639737409" lon="30.0347133376"><ele>13.089</ele><time>2026-04-20T20:09:33.885Z</time><hdop>4.625</hdop><vdop>6.0</vdop><extensions><gom:speed>0.132</gom:speed></extensions></trkpt>
   <trkpt lat="59.0639645208" lon="30.0347029441"><ele>12.973</ele><time>2026-04-20T20:09:35.076Z</time><hdop>4.625</hdop><vdop>5.875</vdop><extensions><gom:speed>0.187</gom:speed></extensions></trkpt>
   <trkpt lat="59.0639635569" lon="30.0347011839"><ele>12.903</ele><time>2026-04-20T20:09:35.623Z</time><hdop>4.5</hdop><vdop>5.875</vdop><extensions><gom:speed>0.169</gom:speed></extensions></trkpt>
   <trkpt lat="59.0639592402" lon="30.0346938916"><ele>12.901</ele><time>2026-04-20T20:09:36.075Z</time><hdop>4.5</hdop><vdop>5.75</vdop><extensions><gom:speed>0.195</gom:speed></extensions></trkpt>
   <trkpt lat="59.0639575219" lon="30.0346910418"><ele>12.9</ele><time>2026-04-20T20:09:36.743Z</time><hdop>4.5</hdop><vdop>5.75</vdop><extensions><gom:speed>0.241</gom:speed></extensions></trkpt>
   <trkpt lat="59.0639498524" lon="30.0346822408"><ele>13.068</ele><time>2026-04-20T20:09:37.602Z</time><hdop>4.375</hdop><vdop>5.75</vdop><extensions><gom:speed>0.419</gom:speed></extensions></trkpt>
   <trkpt lat="59.0639444461" lon="30.0346767925"><ele>13.107</ele><time>2026-04-20T20:09:38.075Z</time><hdop>4.375</hdop><vdop>5.625</vdop><extensions><gom:speed>0.495</gom:speed></extensions></trkpt>
   <trkpt lat="59.0639318314" lon="30.034665896"><ele>13.277</ele><time>2026-04-20T20:09:39.075Z</time><hdop>4.25</hdop><vdop>5.625</vdop><extensions><gom:speed>0.679</gom:speed></extensions></trkpt>
   <trkpt lat="59.0639258383" lon="30.0346598611"><ele>13.308</ele><time>2026-04-20T20:09:40.005Z</time><hdop>4.25</hdop><vdop>5.75</vdop><extensions><gom:speed>0.617</gom:speed></extensions></trkpt>
   <trkpt lat="59.0639201386" lon="30.0346531556"><ele>13.547</ele><time>2026-04-20T20:09:41.075Z</time><hdop>4.25</hdop><vdop>5.625</vdop><extensions><gom:speed>0.526</gom:speed></extensions></trkpt>
   <trkpt lat="59.0639198452" lon="30.0346514792"><ele>13.69</ele><time>2026-04-20T20:09:41.782Z</time><hdop>4.25</hdop><vdop>5.625</vdop><extensions><gom:speed>0.474</gom:speed></extensions></trkpt>
   <trkpt lat="59.0639152352" lon="30.034638152"><ele>13.4</ele><time>2026-04-20T20:09:43.085Z</time><hdop>4.125</hdop><vdop>5.375</vdop><extensions><gom:speed>0.405</gom:speed></extensions></trkpt>
   <trkpt lat="59.0639118405" lon="30.0346296024"><ele>13.059</ele><time>2026-04-20T20:09:44.075Z</time><hdop>4.25</hdop><vdop>5.25</vdop><extensions><gom:speed>0.328</gom:speed></extensions></trkpt>
   <trkpt lat="59.0639100384" lon="30.0346219749"><ele>12.499</ele><time>2026-04-20T20:09:45.076Z</time><hdop>4.25</hdop><vdop>5.0</vdop><extensions><gom:speed>0.277</gom:speed></extensions></trkpt>
   <trkpt lat="59.0639092421" lon="30.0346159399"><ele>12.165</ele><time>2026-04-20T20:09:46.002Z</time><hdop>4.25</hdop><vdop>5.0</vdop><extensions><gom:speed>0.304</gom:speed></extensions></trkpt>
   <trkpt lat="59.0639067276" lon="30.0346052949"><ele>11.779</ele><time>2026-04-20T20:09:46.860Z</time><hdop>4.375</hdop><vdop>4.75</vdop><extensions><gom:speed>0.346</gom:speed></extensions></trkpt>
   <trkpt lat="59.0639036263" lon="30.0345923029"><ele>11.645</ele><time>2026-04-20T20:09:47.915Z</time><hdop>4.375</hdop><vdop>4.625</vdop><extensions><gom:speed>0.388</gom:speed></extensions></trkpt>
   <trkpt lat="59.0639012374" lon="30.0345838372"><ele>11.788</ele><time>2026-04-20T20:09:48.855Z</time><hdop>4.5</hdop><vdop>4.5</vdop><extensions><gom:speed>0.319</gom:speed></extensions></trkpt>
   <trkpt lat="59.0639016565" lon="30.0345867709"><ele>11.822</ele><time>2026-04-20T20:09:49.956Z</time><hdop>4.5</hdop><vdop>4.5</vdop><extensions><gom:speed>0.23</gom:speed></extensions></trkpt>
   <trkpt lat="59.0639011536" lon="30.0345888664"><ele>11.77</ele><time>2026-04-20T20:09:51.075Z</time><hdop>4.625</hdop><vdop>6.75</vdop><extensions><gom:speed>0.179</gom:speed></extensions></trkpt>
  </trkseg>
 </trk>
</gpx>